<?xml version='1.0' encoding='UTF-8'?><gpx version="1.1" creator="JPX - https://github.com/jenetics/jpx" xmlns="http://www.topografix.com/GPX/1/1"><trk><trkseg><trkpt lat="49.1536368067672" lon="6.273919432091207"><ele>259.2</ele><time>2026-04-20T12:16:59Z</time></trkpt><trkpt lat="49.15363534634359" lon="6.274021578132934"><ele>259.4</ele><time>2026-04-20T12:17:10Z</time></trkpt><trkpt lat="49.15358041478634" lon="6.274100120457804"><ele>259.6</ele><time>2026-04-20T12:17:12Z</time></trkpt><trkpt lat="49.153475093047064" lon="6.274188463182024"><ele>259.8</ele><time>2026-04-20T12:17:14Z</time></trkpt><trkpt lat="49.153384859662026" lon="6.274302493185227"><ele>260.0</ele><time>2026-04-20T12:17:17Z</time></trkpt><trkpt lat="49.153292629317065" lon="6.274390869725559"><ele>260.0</ele><time>2026-04-20T12:17:19Z</time></trkpt><trkpt lat="49.15322356271577" lon="6.274473624049421"><ele>260.0</ele><time>2026-04-20T12:17:20Z</time></trkpt><trkpt lat="49.15315100613846" lon="6.274553039852495"><ele>260.0</ele><time>2026-04-20T12:17:21Z</time></trkpt><trkpt lat="49.15308124941147" lon="6.274629035380887"><ele>260.0</ele><time>2026-04-20T12:17:22Z</time></trkpt><trkpt lat="49.153000009084316" lon="6.274715411683104"><ele>260.0</ele><time>2026-04-20T12:17:23Z</time></trkpt><trkpt lat="49.15291425299172" lon="6.274814919417429"><ele>259.6</ele><time>2026-04-20T12:17:24Z</time></trkpt><trkpt lat="49.15282873575313" lon="6.2749077749529905"><ele>259.2</ele><time>2026-04-20T12:17:25Z</time></trkpt><trkpt lat="49.15274114680429" lon="6.2750079236388805"><ele>258.8</ele><time>2026-04-20T12:17:26Z</time></trkpt><trkpt lat="49.15265769490184" lon="6.275107386639608"><ele>258.4</ele><time>2026-04-20T12:17:27Z</time></trkpt><trkpt lat="49.15257093789388" lon="6.275210777722187"><ele>258.0</ele><time>2026-04-20T12:17:28Z</time></trkpt><trkpt lat="49.15247322683929" lon="6.275323239292102"><ele>258.0</ele><time>2026-04-20T12:17:28.999Z</time></trkpt><trkpt lat="49.15237618924692" lon="6.275434725097882"><ele>258.0</ele><time>2026-04-20T12:17:29.999Z</time></trkpt><trkpt lat="49.152278155761515" lon="6.275553657999322"><ele>258.0</ele><time>2026-04-20T12:17:30.999Z</time></trkpt><trkpt lat="49.15217402133016" lon="6.275682894740871"><ele>258.0</ele><time>2026-04-20T12:17:31.999Z</time></trkpt><trkpt lat="49.152079467374925" lon="6.275803702426039"><ele>257.6</ele><time>2026-04-20T12:17:32.999Z</time></trkpt><trkpt lat="49.15198215877826" lon="6.275918597261356"><ele>257.20000000000005</ele><time>2026-04-20T12:17:33.999Z</time></trkpt><trkpt lat="49.15189717409309" lon="6.276022261709299"><ele>256.8</ele><time>2026-04-20T12:17:34.999Z</time></trkpt><trkpt lat="49.15182590099109" lon="6.276105930479929"><ele>256.40000000000003</ele><time>2026-04-20T12:17:35.999Z</time></trkpt><trkpt lat="49.15176287286166" lon="6.276177513048484"><ele>256.0</ele><time>2026-04-20T12:17:36.999Z</time></trkpt><trkpt lat="49.1516967617015" lon="6.276258321276501"><ele>256.0</ele><time>2026-04-20T12:17:37.999Z</time></trkpt><trkpt lat="49.151610499506454" lon="6.276358946876398"><ele>256.0</ele><time>2026-04-20T12:17:38.999Z</time></trkpt><trkpt lat="49.15152211112207" lon="6.276465455709701"><ele>256.0</ele><time>2026-04-20T12:17:39.999Z</time></trkpt><trkpt lat="49.15143066536515" lon="6.276583914995902"><ele>256.0</ele><time>2026-04-20T12:17:40.999Z</time></trkpt><trkpt lat="49.151338358458915" lon="6.2766988766082585"><ele>257.5</ele><time>2026-04-20T12:17:41.999Z</time></trkpt><trkpt lat="49.15124145734159" lon="6.276816406011499"><ele>259.0</ele><time>2026-04-20T12:17:42.999Z</time></trkpt><trkpt lat="49.151136043987826" lon="6.276947478159132"><ele>260.5</ele><time>2026-04-20T12:17:43.999Z</time></trkpt><trkpt lat="49.151037627967085" lon="6.2770765990492166"><ele>262.0</ele><time>2026-04-20T12:17:44.999Z</time></trkpt><trkpt lat="49.15094245210645" lon="6.277213154879163"><ele>261.75</ele><time>2026-04-20T12:17:45.999Z</time></trkpt><trkpt lat="49.15085083734994" lon="6.2773582274791275"><ele>261.5</ele><time>2026-04-20T12:17:46.999Z</time></trkpt><trkpt lat="49.1507549970499" lon="6.277502009996224"><ele>261.25</ele><time>2026-04-20T12:17:47.999Z</time></trkpt><trkpt lat="49.1506600233832" lon="6.277641690250898"><ele>261.0</ele><time>2026-04-20T12:17:48.999Z</time></trkpt><trkpt lat="49.15056840219722" lon="6.277773952549272"><ele>261.0</ele><time>2026-04-20T12:17:49.999Z</time></trkpt><trkpt lat="49.150496881266434" lon="6.277878931292015"><ele>261.0</ele><time>2026-04-20T12:17:50.999Z</time></trkpt><trkpt lat="49.150412962647586" lon="6.277903543091887"><ele>261.0</ele><time>2026-04-20T12:17:51.999Z</time></trkpt><trkpt lat="49.15034945912083" lon="6.277882831364083"><ele>261.0</ele><time>2026-04-20T12:17:52.999Z</time></trkpt><trkpt lat="49.150273394610984" lon="6.27785401689211"><ele>261.0</ele><time>2026-04-20T12:17:53.999Z</time></trkpt><trkpt lat="49.150220987807366" lon="6.2777608831061675"><ele>261.0</ele><time>2026-04-20T12:17:54.999Z</time></trkpt><trkpt lat="49.15017536341557" lon="6.277639602178791"><ele>261.0</ele><time>2026-04-20T12:17:55.999Z</time></trkpt><trkpt lat="49.15011363612492" lon="6.277480590518193"><ele>261.0</ele><time>2026-04-20T12:17:56.999Z</time></trkpt><trkpt lat="49.15005461572655" lon="6.277320203507274"><ele>261.0</ele><time>2026-04-20T12:17:57.999Z</time></trkpt><trkpt lat="49.149995704852174" lon="6.277153183110944"><ele>261.0</ele><time>2026-04-20T12:17:58.999Z</time></trkpt><trkpt lat="49.149922519038626" lon="6.2769566444238345"><ele>261.25</ele><time>2026-04-20T12:17:59.999Z</time></trkpt><trkpt lat="49.14987801913716" lon="6.2767749290386"><ele>261.5</ele><time>2026-04-20T12:18:00.999Z</time></trkpt><trkpt lat="49.149818580621606" lon="6.276578883089142"><ele>261.75</ele><time>2026-04-20T12:18:01.999Z</time></trkpt><trkpt lat="49.14976469861023" lon="6.276382663806025"><ele>262.0</ele><time>2026-04-20T12:18:02.999Z</time></trkpt><trkpt lat="49.14970941207726" lon="6.276199921000558"><ele>262.0</ele><time>2026-04-20T12:18:03.999Z</time></trkpt><trkpt lat="49.149652183474146" lon="6.276014594069869"><ele>262.0</ele><time>2026-04-20T12:18:04.999Z</time></trkpt><trkpt lat="49.149612145703394" lon="6.275852818821051"><ele>262.0</ele><time>2026-04-20T12:18:05.999Z</time></trkpt><trkpt lat="49.14957624595333" lon="6.275736184358921"><ele>262.0</ele><time>2026-04-20T12:18:06.999Z</time></trkpt><trkpt lat="49.14955680830221" lon="6.275628422628524"><ele>262.0</ele><time>2026-04-20T12:18:07.999Z</time></trkpt><trkpt lat="49.14953293302664" lon="6.275491389618315"><ele>262.25</ele><time>2026-04-20T12:18:08.999Z</time></trkpt><trkpt lat="49.14949611258644" lon="6.275352082088869"><ele>262.5</ele><time>2026-04-20T12:18:09.999Z</time></trkpt><trkpt lat="49.14944502651245" lon="6.2751820950654285"><ele>262.75</ele><time>2026-04-20T12:18:10.999Z</time></trkpt><trkpt lat="49.149390743462604" lon="6.27500456480548"><ele>263.0</ele><time>2026-04-20T12:18:11.999Z</time></trkpt><trkpt lat="49.149320149940834" lon="6.274843890084609"><ele>262.75</ele><time>2026-04-20T12:18:12.999Z</time></trkpt><trkpt lat="49.14923638832909" lon="6.2746863067453615"><ele>262.5</ele><time>2026-04-20T12:18:13.999Z</time></trkpt><trkpt lat="49.1491560415644" lon="6.274526782904799"><ele>262.25</ele><time>2026-04-20T12:18:14.999Z</time></trkpt><trkpt lat="49.14908091965673" lon="6.274363410136908"><ele>262.0</ele><time>2026-04-20T12:18:15.999Z</time></trkpt><trkpt lat="49.14900705050251" lon="6.274208609550006"><ele>261.75</ele><time>2026-04-20T12:18:16.999Z</time></trkpt><trkpt lat="49.14893348755158" lon="6.274043596288953"><ele>261.5</ele><time>2026-04-20T12:18:17.999Z</time></trkpt><trkpt lat="49.14885724338272" lon="6.273859869209003"><ele>261.25</ele><time>2026-04-20T12:18:18.999Z</time></trkpt><trkpt lat="49.148812905260186" lon="6.273668444466179"><ele>261.0</ele><time>2026-04-20T12:18:19.999Z</time></trkpt><trkpt lat="49.14877373989429" lon="6.273507506249306"><ele>261.0</ele><time>2026-04-20T12:18:20.999Z</time></trkpt><trkpt lat="49.14872800705772" lon="6.273347667048095"><ele>261.0</ele><time>2026-04-20T12:18:21.999Z</time></trkpt><trkpt lat="49.148684050439066" lon="6.273166564885642"><ele>261.0</ele><time>2026-04-20T12:18:22.999Z</time></trkpt><trkpt lat="49.14866380589657" lon="6.2729866845074636"><ele>261.0</ele><time>2026-04-20T12:18:23.999Z</time></trkpt><trkpt lat="49.148629798386054" lon="6.2728259397164345"><ele>260.8</ele><time>2026-04-20T12:18:24.999Z</time></trkpt><trkpt lat="49.148597995968565" lon="6.272708185367755"><ele>260.6</ele><time>2026-04-20T12:18:25.999Z</time></trkpt><trkpt lat="49.14857414965046" lon="6.272541603142499"><ele>260.4</ele><time>2026-04-20T12:18:27.999Z</time></trkpt><trkpt lat="49.14857927969042" lon="6.272420050335309"><ele>260.2</ele><time>2026-04-20T12:18:28.999Z</time></trkpt><trkpt lat="49.148566130144545" lon="6.2722920845112204"><ele>260.0</ele><time>2026-04-20T12:18:29.999Z</time></trkpt><trkpt lat="49.14853307326846" lon="6.272160149163897"><ele>259.8</ele><time>2026-04-20T12:18:30.999Z</time></trkpt><trkpt lat="49.14849876426064" lon="6.272012777014006"><ele>259.6</ele><time>2026-04-20T12:18:31.999Z</time></trkpt><trkpt lat="49.14846296028314" lon="6.2718506989251726"><ele>259.4</ele><time>2026-04-20T12:18:32.999Z</time></trkpt><trkpt lat="49.14842651663431" lon="6.271697487468874"><ele>259.2</ele><time>2026-04-20T12:18:33.999Z</time></trkpt><trkpt lat="49.148386807178596" lon="6.271528247567574"><ele>259.0</ele><time>2026-04-20T12:18:34.999Z</time></trkpt><trkpt lat="49.148349304015625" lon="6.27136667762183"><ele>258.5</ele><time>2026-04-20T12:18:35.999Z</time></trkpt><trkpt lat="49.148323993746615" lon="6.2712273114295725"><ele>258.0</ele><time>2026-04-20T12:18:36.999Z</time></trkpt><trkpt lat="49.14830001724088" lon="6.271120792283055"><ele>257.5</ele><time>2026-04-20T12:18:37.999Z</time></trkpt><trkpt lat="49.14828813301605" lon="6.2709768410079905"><ele>257.0</ele><time>2026-04-20T12:18:39.999Z</time></trkpt><trkpt lat="49.14826209834529" lon="6.2708644781951834"><ele>256.5</ele><time>2026-04-20T12:18:42.999Z</time></trkpt><trkpt lat="49.14825026364126" lon="6.270739275635407"><ele>256.0</ele><time>2026-04-20T12:19:51.999Z</time></trkpt><trkpt lat="49.148261923647134" lon="6.270629838963695"><ele>256.0</ele><time>2026-04-20T12:19:54.999Z</time></trkpt><trkpt lat="49.14827466425054" lon="6.270513226123185"><ele>256.0</ele><time>2026-04-20T12:19:57.999Z</time></trkpt><trkpt lat="49.14823829220439" lon="6.270627919773547"><ele>256.0</ele><time>2026-04-20T12:20:03.999Z</time></trkpt><trkpt lat="49.148223817875724" lon="6.270819516972455"><ele>256.0</ele><time>2026-04-20T12:20:05.999Z</time></trkpt><trkpt lat="49.148220608448526" lon="6.270943172032572"><ele>256.0</ele><time>2026-04-20T12:20:06.999Z</time></trkpt><trkpt lat="49.14823492547752" lon="6.271089018320864"><ele>256.0</ele><time>2026-04-20T12:20:07.999Z</time></trkpt><trkpt lat="49.1482675586425" lon="6.2712211676189344"><ele>256.0</ele><time>2026-04-20T12:20:08.999Z</time></trkpt><trkpt lat="49.14830092709324" lon="6.27137094804286"><ele>256.0</ele><time>2026-04-20T12:20:09.999Z</time></trkpt><trkpt lat="49.14834158642995" lon="6.2715439706598755"><ele>256.0</ele><time>2026-04-20T12:20:10.999Z</time></trkpt><trkpt lat="49.14838836930815" lon="6.271728447118151"><ele>256.0</ele><time>2026-04-20T12:20:11.999Z</time></trkpt><trkpt lat="49.14842953277612" lon="6.271912102115266"><ele>256.6</ele><time>2026-04-20T12:20:12.999Z</time></trkpt><trkpt lat="49.14847226364434" lon="6.272078411597356"><ele>257.20000000000005</ele><time>2026-04-20T12:20:13.999Z</time></trkpt><trkpt lat="49.148501646571155" lon="6.272230960820202"><ele>257.79999999999995</ele><time>2026-04-20T12:20:14.999Z</time></trkpt><trkpt lat="49.14853017075025" lon="6.272359181771962"><ele>258.4</ele><time>2026-04-20T12:20:15.999Z</time></trkpt><trkpt lat="49.14853888498428" lon="6.272494310227272"><ele>259.0</ele><time>2026-04-20T12:20:17.999Z</time></trkpt><trkpt lat="49.14852315948392" lon="6.27259420776153"><ele>259.2</ele><time>2026-04-20T12:20:22.999Z</time></trkpt><trkpt lat="49.14842329628151" lon="6.272558093118245"><ele>259.4</ele><time>2026-04-20T12:20:23.999Z</time></trkpt><trkpt lat="49.14831216410982" lon="6.2726353997001025"><ele>259.6</ele><time>2026-04-20T12:20:25.999Z</time></trkpt><trkpt lat="49.14823808784676" lon="6.272678200263566"><ele>259.8</ele><time>2026-04-20T12:20:26.999Z</time></trkpt><trkpt lat="49.14816136172235" lon="6.272712650627856"><ele>260.0</ele><time>2026-04-20T12:20:27.999Z</time></trkpt><trkpt lat="49.14806974690944" lon="6.272738602922365"><ele>260.0</ele><time>2026-04-20T12:20:28.999Z</time></trkpt><trkpt lat="49.14798631298052" lon="6.272760431113742"><ele>260.0</ele><time>2026-04-20T12:20:29.999Z</time></trkpt><trkpt lat="49.14789453874415" lon="6.2727647937070925"><ele>260.0</ele><time>2026-04-20T12:20:30.999Z</time></trkpt><trkpt lat="49.14778771813313" lon="6.272778840074622"><ele>260.0</ele><time>2026-04-20T12:20:31.999Z</time></trkpt><trkpt lat="49.14768136268494" lon="6.272799507158374"><ele>260.0</ele><time>2026-04-20T12:20:32.999Z</time></trkpt><trkpt lat="49.14758878238785" lon="6.272821488522418"><ele>260.0</ele><time>2026-04-20T12:20:33.999Z</time></trkpt><trkpt lat="49.147514225016835" lon="6.272816569072921"><ele>260.0</ele><time>2026-04-20T12:20:34.999Z</time></trkpt><trkpt lat="49.14743479158173" lon="6.272851851045625"><ele>260.0</ele><time>2026-04-20T12:20:36.999Z</time></trkpt><trkpt lat="49.147354410725846" lon="6.272864508597049"><ele>260.0</ele><time>2026-04-20T12:20:38.999Z</time></trkpt><trkpt lat="49.147273782449346" lon="6.2728678597422824"><ele>260.0</ele><time>2026-04-20T12:20:41.999Z</time></trkpt><trkpt lat="49.147203795922785" lon="6.272884400476272"><ele>260.0</ele><time>2026-04-20T12:21:36.999Z</time></trkpt><trkpt lat="49.14712786917389" lon="6.272897925689019"><ele>259.2</ele><time>2026-04-20T12:21:40.999Z</time></trkpt><trkpt lat="49.14703779400161" lon="6.272922189839744"><ele>258.4</ele><time>2026-04-20T12:21:43.999Z</time></trkpt><trkpt lat="49.14693400471197" lon="6.272956051847364"><ele>257.6</ele><time>2026-04-20T12:21:46.999Z</time></trkpt><trkpt lat="49.146797565377724" lon="6.272991528964974"><ele>256.8</ele><time>2026-04-20T12:21:48.999Z</time></trkpt><trkpt lat="49.146704478786596" lon="6.273013472367491"><ele>256.0</ele><time>2026-04-20T12:21:49.999Z</time></trkpt><trkpt lat="49.1465984964803" lon="6.273039764275053"><ele>255.25</ele><time>2026-04-20T12:21:50.999Z</time></trkpt><trkpt lat="49.14647752166789" lon="6.273063451126607"><ele>254.5</ele><time>2026-04-20T12:21:51.999Z</time></trkpt><trkpt lat="49.14634920163938" lon="6.273079481888913"><ele>253.75</ele><time>2026-04-20T12:21:52.999Z</time></trkpt><trkpt lat="49.146207566238594" lon="6.27307383491086"><ele>253.0</ele><time>2026-04-20T12:21:53.999Z</time></trkpt><trkpt lat="49.14606499594251" lon="6.273046947452263"><ele>253.0</ele><time>2026-04-20T12:21:54.999Z</time></trkpt><trkpt lat="49.14591913476839" lon="6.272993029637653"><ele>253.0</ele><time>2026-04-20T12:21:55.999Z</time></trkpt><trkpt lat="49.14578250897669" lon="6.272911214730404"><ele>253.0</ele><time>2026-04-20T12:21:56.999Z</time></trkpt><trkpt lat="49.14566418021668" lon="6.272799852634435"><ele>253.0</ele><time>2026-04-20T12:21:57.999Z</time></trkpt><trkpt lat="49.14555342209685" lon="6.272661966014501"><ele>252.25</ele><time>2026-04-20T12:21:58.999Z</time></trkpt><trkpt lat="49.14545030152475" lon="6.272500254018631"><ele>251.5</ele><time>2026-04-20T12:21:59.999Z</time></trkpt><trkpt lat="49.14536800677513" lon="6.272333307204978"><ele>250.75</ele><time>2026-04-20T12:22:00.999Z</time></trkpt><trkpt lat="49.14530024011166" lon="6.27215939396934"><ele>250.0</ele><time>2026-04-20T12:22:01.999Z</time></trkpt><trkpt lat="49.14523996282064" lon="6.2719836491447385"><ele>250.0</ele><time>2026-04-20T12:22:02.999Z</time></trkpt><trkpt lat="49.1451672770258" lon="6.2718161153101155"><ele>250.0</ele><time>2026-04-20T12:22:03.999Z</time></trkpt><trkpt lat="49.14509410039118" lon="6.271644850643042"><ele>250.0</ele><time>2026-04-20T12:22:04.999Z</time></trkpt><trkpt lat="49.14502404153198" lon="6.271472911151575"><ele>250.0</ele><time>2026-04-20T12:22:05.999Z</time></trkpt><trkpt lat="49.14495343014472" lon="6.2713045933599645"><ele>250.0</ele><time>2026-04-20T12:22:06.999Z</time></trkpt><trkpt lat="49.14488431695124" lon="6.2711212771539895"><ele>250.0</ele><time>2026-04-20T12:22:07.999Z</time></trkpt><trkpt lat="49.14481011648173" lon="6.270937021444817"><ele>250.0</ele><time>2026-04-20T12:22:08.999Z</time></trkpt><trkpt lat="49.14473666174625" lon="6.270749062476899"><ele>250.0</ele><time>2026-04-20T12:22:09.999Z</time></trkpt><trkpt lat="49.1446611118319" lon="6.270553728903455"><ele>249.75</ele><time>2026-04-20T12:22:10.999Z</time></trkpt><trkpt lat="49.14459248233843" lon="6.270369838472919"><ele>249.5</ele><time>2026-04-20T12:22:11.999Z</time></trkpt><trkpt lat="49.14451257587186" lon="6.270176954863633"><ele>249.25</ele><time>2026-04-20T12:22:12.999Z</time></trkpt><trkpt lat="49.14443205864217" lon="6.269985138361893"><ele>249.0</ele><time>2026-04-20T12:22:13.999Z</time></trkpt><trkpt lat="49.14435553531336" lon="6.269795138684999"><ele>248.75</ele><time>2026-04-20T12:22:14.999Z</time></trkpt><trkpt lat="49.144280538508355" lon="6.269603097076309"><ele>248.5</ele><time>2026-04-20T12:22:15.999Z</time></trkpt><trkpt lat="49.14420429843158" lon="6.269407281252642"><ele>248.25</ele><time>2026-04-20T12:22:16.999Z</time></trkpt><trkpt lat="49.14413111527434" lon="6.269220623500448"><ele>248.0</ele><time>2026-04-20T12:22:17.999Z</time></trkpt><trkpt lat="49.144054908602705" lon="6.269034373226086"><ele>247.25</ele><time>2026-04-20T12:22:18.999Z</time></trkpt><trkpt lat="49.14397710537096" lon="6.268836010258218"><ele>246.5</ele><time>2026-04-20T12:22:19.999Z</time></trkpt><trkpt lat="49.14389699332307" lon="6.268632842196302"><ele>245.75</ele><time>2026-04-20T12:22:20.999Z</time></trkpt><trkpt lat="49.143819102348964" lon="6.26845034703493"><ele>245.0</ele><time>2026-04-20T12:22:21.999Z</time></trkpt><trkpt lat="49.14374550270566" lon="6.2682680714620265"><ele>244.75</ele><time>2026-04-20T12:22:22.999Z</time></trkpt><trkpt lat="49.14367266158026" lon="6.268082777943089"><ele>244.5</ele><time>2026-04-20T12:22:23.999Z</time></trkpt><trkpt lat="49.14359789231749" lon="6.2678940495947195"><ele>244.25</ele><time>2026-04-20T12:22:24.999Z</time></trkpt><trkpt lat="49.14352016544276" lon="6.267697136755762"><ele>244.0</ele><time>2026-04-20T12:22:25.999Z</time></trkpt><trkpt lat="49.14344297475147" lon="6.267501691076533"><ele>244.0</ele><time>2026-04-20T12:22:26.999Z</time></trkpt><trkpt lat="49.14335548139787" lon="6.267316832465049"><ele>244.0</ele><time>2026-04-20T12:22:27.999Z</time></trkpt><trkpt lat="49.14328192179282" lon="6.2671278440339755"><ele>244.0</ele><time>2026-04-20T12:22:28.999Z</time></trkpt><trkpt lat="49.14320987738001" lon="6.266930640545629"><ele>244.0</ele><time>2026-04-20T12:22:29.999Z</time></trkpt><trkpt lat="49.14312595405568" lon="6.266736827045934"><ele>243.66666666666666</ele><time>2026-04-20T12:22:30.999Z</time></trkpt><trkpt lat="49.143044929582715" lon="6.266539846098089"><ele>243.33333333333331</ele><time>2026-04-20T12:22:31.999Z</time></trkpt><trkpt lat="49.14296653759983" lon="6.26634606131499"><ele>243.0</ele><time>2026-04-20T12:22:32.999Z</time></trkpt><trkpt lat="49.14288839718324" lon="6.266150166316032"><ele>242.5</ele><time>2026-04-20T12:22:33.999Z</time></trkpt><trkpt lat="49.1428098626247" lon="6.265953134812903"><ele>242.0</ele><time>2026-04-20T12:22:34.999Z</time></trkpt><trkpt lat="49.14272912913556" lon="6.265757352362536"><ele>241.5</ele><time>2026-04-20T12:22:35.999Z</time></trkpt><trkpt lat="49.14266969913887" lon="6.265552823678608"><ele>241.0</ele><time>2026-04-20T12:22:36.999Z</time></trkpt><trkpt lat="49.14259541733765" lon="6.2653553294693705"><ele>240.5</ele><time>2026-04-20T12:22:37.999Z</time></trkpt><trkpt lat="49.14252296340961" lon="6.265157928847765"><ele>240.0</ele><time>2026-04-20T12:22:38.999Z</time></trkpt><trkpt lat="49.14245414713866" lon="6.264957857534741"><ele>239.5</ele><time>2026-04-20T12:22:39.999Z</time></trkpt><trkpt lat="49.142389656109685" lon="6.264761266652523"><ele>239.0</ele><time>2026-04-20T12:22:40.999Z</time></trkpt><trkpt lat="49.142313053027266" lon="6.264568560418811"><ele>238.25</ele><time>2026-04-20T12:22:41.999Z</time></trkpt><trkpt lat="49.14225577253571" lon="6.264361470850243"><ele>237.5</ele><time>2026-04-20T12:22:42.999Z</time></trkpt><trkpt lat="49.14219741484764" lon="6.264153790759808"><ele>236.75</ele><time>2026-04-20T12:22:43.999Z</time></trkpt><trkpt lat="49.142142882362656" lon="6.263949787885817"><ele>236.0</ele><time>2026-04-20T12:22:44.999Z</time></trkpt><trkpt lat="49.142088503707015" lon="6.263743688448199"><ele>235.25</ele><time>2026-04-20T12:22:45.999Z</time></trkpt><trkpt lat="49.14203554515904" lon="6.263536050611143"><ele>234.5</ele><time>2026-04-20T12:22:46.999Z</time></trkpt><trkpt lat="49.14198054190553" lon="6.263337401612306"><ele>233.75</ele><time>2026-04-20T12:22:47.999Z</time></trkpt><trkpt lat="49.14192426091738" lon="6.263139045644061"><ele>233.0</ele><time>2026-04-20T12:22:48.999Z</time></trkpt><trkpt lat="49.1418649394313" lon="6.262941230876542"><ele>232.0</ele><time>2026-04-20T12:22:49.999Z</time></trkpt><trkpt lat="49.14180598163653" lon="6.2627419745745785"><ele>231.0</ele><time>2026-04-20T12:22:50.999Z</time></trkpt><trkpt lat="49.14174854590596" lon="6.262541990682264"><ele>230.0</ele><time>2026-04-20T12:22:51.999Z</time></trkpt><trkpt lat="49.14169163479277" lon="6.2623491991893205"><ele>229.0</ele><time>2026-04-20T12:22:52.999Z</time></trkpt><trkpt lat="49.141609405632536" lon="6.262179068667205"><ele>227.5</ele><time>2026-04-20T12:22:53.999Z</time></trkpt><trkpt lat="49.14152639789513" lon="6.2620190536579905"><ele>226.0</ele><time>2026-04-20T12:22:54.999Z</time></trkpt><trkpt lat="49.141435486093" lon="6.261869210324184"><ele>224.5</ele><time>2026-04-20T12:22:55.999Z</time></trkpt><trkpt lat="49.14133708835866" lon="6.2617328286983405"><ele>223.0</ele><time>2026-04-20T12:22:56.999Z</time></trkpt><trkpt lat="49.141228397241434" lon="6.261599564797785"><ele>223.0</ele><time>2026-04-20T12:22:57.999Z</time></trkpt><trkpt lat="49.14110996661061" lon="6.261467501191659"><ele>223.0</ele><time>2026-04-20T12:22:58.999Z</time></trkpt><trkpt lat="49.14099178669124" lon="6.261360167133612"><ele>223.0</ele><time>2026-04-20T12:22:59.999Z</time></trkpt><trkpt lat="49.140861787628616" lon="6.261267165361092"><ele>223.0</ele><time>2026-04-20T12:23:00.999Z</time></trkpt><trkpt lat="49.14072153476601" lon="6.261183905612503"><ele>219.75</ele><time>2026-04-20T12:23:01.999Z</time></trkpt><trkpt lat="49.140587296576626" lon="6.26112272247765"><ele>216.5</ele><time>2026-04-20T12:23:02.999Z</time></trkpt><trkpt lat="49.14045323238898" lon="6.261080526799776"><ele>213.25</ele><time>2026-04-20T12:23:03.999Z</time></trkpt><trkpt lat="49.140304854324526" lon="6.261062154449155"><ele>210.0</ele><time>2026-04-20T12:23:04.999Z</time></trkpt><trkpt lat="49.14015965474485" lon="6.261043703195642"><ele>210.0</ele><time>2026-04-20T12:23:05.999Z</time></trkpt><trkpt lat="49.14002280188615" lon="6.261031863519414"><ele>210.0</ele><time>2026-04-20T12:23:06.999Z</time></trkpt><trkpt lat="49.13988986803335" lon="6.261007350754146"><ele>210.0</ele><time>2026-04-20T12:23:07.999Z</time></trkpt><trkpt lat="49.139745140074034" lon="6.2609792047966994"><ele>210.0</ele><time>2026-04-20T12:23:08.999Z</time></trkpt><trkpt lat="49.13959524028435" lon="6.260946262015644"><ele>210.25</ele><time>2026-04-20T12:23:10Z</time></trkpt><trkpt lat="49.13945980498022" lon="6.260911787899344"><ele>210.5</ele><time>2026-04-20T12:23:11Z</time></trkpt><trkpt lat="49.13931907722016" lon="6.260859028325801"><ele>210.75</ele><time>2026-04-20T12:23:12Z</time></trkpt><trkpt lat="49.13917267462078" lon="6.260773618656528"><ele>211.0</ele><time>2026-04-20T12:23:13Z</time></trkpt><trkpt lat="49.13903950039575" lon="6.260680228076664"><ele>209.5</ele><time>2026-04-20T12:23:14Z</time></trkpt><trkpt lat="49.13891357665534" lon="6.260578021870603"><ele>208.0</ele><time>2026-04-20T12:23:15Z</time></trkpt><trkpt lat="49.13880613266484" lon="6.260445454619631"><ele>206.5</ele><time>2026-04-20T12:23:16Z</time></trkpt><trkpt lat="49.13870958405489" lon="6.260301430504486"><ele>205.0</ele><time>2026-04-20T12:23:17Z</time></trkpt><trkpt lat="49.138617300009" lon="6.2601559207488195"><ele>205.0</ele><time>2026-04-20T12:23:18Z</time></trkpt><trkpt lat="49.138527800296565" lon="6.260006381253188"><ele>205.0</ele><time>2026-04-20T12:23:19Z</time></trkpt><trkpt lat="49.1384400612094" lon="6.2598642434744844"><ele>205.0</ele><time>2026-04-20T12:23:20Z</time></trkpt><trkpt lat="49.1383530839827" lon="6.259727900214941"><ele>205.0</ele><time>2026-04-20T12:23:21Z</time></trkpt><trkpt lat="49.13827201382148" lon="6.259601634386394"><ele>204.2</ele><time>2026-04-20T12:23:22Z</time></trkpt><trkpt lat="49.13819247557954" lon="6.259484991051399"><ele>203.4</ele><time>2026-04-20T12:23:23Z</time></trkpt><trkpt lat="49.13810154149321" lon="6.259382885012127"><ele>202.60000000000002</ele><time>2026-04-20T12:23:24Z</time></trkpt><trkpt lat="49.13800653359535" lon="6.259308003772286"><ele>201.8</ele><time>2026-04-20T12:23:25Z</time></trkpt><trkpt lat="49.13791042640443" lon="6.259241962235318"><ele>201.0</ele><time>2026-04-20T12:23:26Z</time></trkpt><trkpt lat="49.13781746743907" lon="6.2591752569446415"><ele>201.0</ele><time>2026-04-20T12:23:27Z</time></trkpt><trkpt lat="49.13772574489862" lon="6.259111304286675"><ele>201.0</ele><time>2026-04-20T12:23:28Z</time></trkpt><trkpt lat="49.13762696259638" lon="6.259048818997488"><ele>201.0</ele><time>2026-04-20T12:23:29Z</time></trkpt><trkpt lat="49.13751926016681" lon="6.259004556508156"><ele>201.0</ele><time>2026-04-20T12:23:30Z</time></trkpt><trkpt lat="49.13741672473507" lon="6.25897259580042"><ele>201.0</ele><time>2026-04-20T12:23:31Z</time></trkpt><trkpt lat="49.13731597079122" lon="6.258942989526765"><ele>200.83333333333334</ele><time>2026-04-20T12:23:32Z</time></trkpt><trkpt lat="49.13723124956824" lon="6.258917056181208"><ele>200.66666666666669</ele><time>2026-04-20T12:23:33Z</time></trkpt><trkpt lat="49.13716713769381" lon="6.258895548309724"><ele>200.5</ele><time>2026-04-20T12:23:34Z</time></trkpt><trkpt lat="49.13708732866396" lon="6.258884470567126"><ele>200.33333333333334</ele><time>2026-04-20T12:23:35Z</time></trkpt><trkpt lat="49.13700632907934" lon="6.258896528495636"><ele>200.16666666666669</ele><time>2026-04-20T12:23:36Z</time></trkpt><trkpt lat="49.1369235439134" lon="6.258920589039733"><ele>200.0</ele><time>2026-04-20T12:23:37Z</time></trkpt><trkpt lat="49.13682673464875" lon="6.258946231409686"><ele>199.4</ele><time>2026-04-20T12:23:38Z</time></trkpt><trkpt lat="49.136728311612785" lon="6.258968477906498"><ele>198.8</ele><time>2026-04-20T12:23:39Z</time></trkpt><trkpt lat="49.13663213178755" lon="6.258993855938285"><ele>198.2</ele><time>2026-04-20T12:23:40Z</time></trkpt><trkpt lat="49.13653599485834" lon="6.259016363767915"><ele>197.6</ele><time>2026-04-20T12:23:41Z</time></trkpt><trkpt lat="49.13644490653768" lon="6.2590363383733685"><ele>197.0</ele><time>2026-04-20T12:23:42Z</time></trkpt><trkpt lat="49.13636776685074" lon="6.259052880225532"><ele>196.83333333333334</ele><time>2026-04-20T12:23:43Z</time></trkpt><trkpt lat="49.13626821242984" lon="6.259067553359085"><ele>196.66666666666669</ele><time>2026-04-20T12:23:45Z</time></trkpt><trkpt lat="49.13620105176552" lon="6.258984503102984"><ele>196.5</ele><time>2026-04-20T12:23:47Z</time></trkpt><trkpt lat="49.136188060846855" lon="6.258877663097905"><ele>196.33333333333331</ele><time>2026-04-20T12:23:48Z</time></trkpt><trkpt lat="49.13617181191221" lon="6.25877648313279"><ele>196.16666666666666</ele><time>2026-04-20T12:23:49Z</time></trkpt><trkpt lat="49.136145820351445" lon="6.258672350859169"><ele>196.0</ele><time>2026-04-20T12:23:50Z</time></trkpt><trkpt lat="49.13610903964076" lon="6.258544824168268"><ele>196.4</ele><time>2026-04-20T12:23:51Z</time></trkpt><trkpt lat="49.1360608596778" lon="6.258413769978083"><ele>196.8</ele><time>2026-04-20T12:23:52Z</time></trkpt><trkpt lat="49.13600743645334" lon="6.258290462585293"><ele>197.20000000000002</ele><time>2026-04-20T12:23:53Z</time></trkpt><trkpt lat="49.135943993899915" lon="6.25816136638576"><ele>197.60000000000002</ele><time>2026-04-20T12:23:54Z</time></trkpt><trkpt lat="49.135875268720085" lon="6.258027694862336"><ele>198.0</ele><time>2026-04-20T12:23:55Z</time></trkpt><trkpt lat="49.135799681368646" lon="6.2579001539265215"><ele>198.0</ele><time>2026-04-20T12:23:56Z</time></trkpt><trkpt lat="49.13572193123066" lon="6.25777898225722"><ele>198.0</ele><time>2026-04-20T12:23:57Z</time></trkpt><trkpt lat="49.135638237162446" lon="6.257648365908746"><ele>198.0</ele><time>2026-04-20T12:23:58Z</time></trkpt><trkpt lat="49.13555441088768" lon="6.257525523804606"><ele>198.0</ele><time>2026-04-20T12:23:59Z</time></trkpt><trkpt lat="49.1354732353087" lon="6.257405386235683"><ele>198.0</ele><time>2026-04-20T12:24:00Z</time></trkpt><trkpt lat="49.13539856410654" lon="6.257295433666514"><ele>198.0</ele><time>2026-04-20T12:24:01Z</time></trkpt><trkpt lat="49.13533466782194" lon="6.2571989904002905"><ele>198.0</ele><time>2026-04-20T12:24:02Z</time></trkpt><trkpt lat="49.13525837607946" lon="6.2570866575597766"><ele>198.0</ele><time>2026-04-20T12:24:03Z</time></trkpt><trkpt lat="49.13518542985155" lon="6.256971930030144"><ele>198.0</ele><time>2026-04-20T12:24:04Z</time></trkpt><trkpt lat="49.13512188382564" lon="6.25687011367157"><ele>198.4</ele><time>2026-04-20T12:24:05Z</time></trkpt><trkpt lat="49.13506560250717" lon="6.256770932573208"><ele>198.8</ele><time>2026-04-20T12:24:06Z</time></trkpt><trkpt lat="49.135000360682625" lon="6.256649351891053"><ele>199.2</ele><time>2026-04-20T12:24:07Z</time></trkpt><trkpt lat="49.13493619731179" lon="6.256525992705501"><ele>199.6</ele><time>2026-04-20T12:24:08Z</time></trkpt><trkpt lat="49.134874294221426" lon="6.256405573548945"><ele>200.0</ele><time>2026-04-20T12:24:09Z</time></trkpt><trkpt lat="49.1348208759966" lon="6.256289095410694"><ele>198.6</ele><time>2026-04-20T12:24:10Z</time></trkpt><trkpt lat="49.134773021303864" lon="6.256165941637192"><ele>197.2</ele><time>2026-04-20T12:24:11Z</time></trkpt><trkpt lat="49.13470660170178" lon="6.256050369039504"><ele>195.8</ele><time>2026-04-20T12:24:12Z</time></trkpt><trkpt lat="49.1346351908527" lon="6.255945355724285"><ele>194.4</ele><time>2026-04-20T12:24:13Z</time></trkpt><trkpt lat="49.13455589668987" lon="6.255852192538307"><ele>193.0</ele><time>2026-04-20T12:24:13.999Z</time></trkpt><trkpt lat="49.13446645251125" lon="6.255777863345584"><ele>193.0</ele><time>2026-04-20T12:24:14.999Z</time></trkpt><trkpt lat="49.134372475427035" lon="6.255709832874704"><ele>193.0</ele><time>2026-04-20T12:24:15.999Z</time></trkpt><trkpt lat="49.13427801013076" lon="6.255632866691573"><ele>193.0</ele><time>2026-04-20T12:24:16.999Z</time></trkpt><trkpt lat="49.13418330255625" lon="6.255555965820106"><ele>193.0</ele><time>2026-04-20T12:24:17.999Z</time></trkpt><trkpt lat="49.134088663600295" lon="6.255469465836817"><ele>193.0</ele><time>2026-04-20T12:24:18.999Z</time></trkpt><trkpt lat="49.13400308958903" lon="6.255372803583271"><ele>193.0</ele><time>2026-04-20T12:24:19.999Z</time></trkpt><trkpt lat="49.13392560429549" lon="6.2552712653542715"><ele>193.0</ele><time>2026-04-20T12:24:20.999Z</time></trkpt><trkpt lat="49.13385233506273" lon="6.255169003742858"><ele>193.0</ele><time>2026-04-20T12:24:21.999Z</time></trkpt><trkpt lat="49.13378467596772" lon="6.255060450555574"><ele>193.0</ele><time>2026-04-20T12:24:22.999Z</time></trkpt><trkpt lat="49.133729966096176" lon="6.254947689963225"><ele>193.0</ele><time>2026-04-20T12:24:23.999Z</time></trkpt><trkpt lat="49.133675372220814" lon="6.254837902128462"><ele>193.4</ele><time>2026-04-20T12:24:24.999Z</time></trkpt><trkpt lat="49.133627122854904" lon="6.254726139050355"><ele>193.8</ele><time>2026-04-20T12:24:25.999Z</time></trkpt><trkpt lat="49.1335815067911" lon="6.254604691889766"><ele>194.2</ele><time>2026-04-20T12:24:26.999Z</time></trkpt><trkpt lat="49.133531133936266" lon="6.254460035286608"><ele>194.6</ele><time>2026-04-20T12:24:27.999Z</time></trkpt><trkpt lat="49.13346544411072" lon="6.254331305514544"><ele>195.0</ele><time>2026-04-20T12:24:28.999Z</time></trkpt><trkpt lat="49.13340681819344" lon="6.254177842936822"><ele>195.0</ele><time>2026-04-20T12:24:29.999Z</time></trkpt><trkpt lat="49.133347366881544" lon="6.254017592598999"><ele>195.0</ele><time>2026-04-20T12:24:30.999Z</time></trkpt><trkpt lat="49.133289464758064" lon="6.253854780398237"><ele>195.0</ele><time>2026-04-20T12:24:31.999Z</time></trkpt><trkpt lat="49.133233861060745" lon="6.253700445376682"><ele>195.0</ele><time>2026-04-20T12:24:32.999Z</time></trkpt><trkpt lat="49.133173553932394" lon="6.253542945234022"><ele>194.5</ele><time>2026-04-20T12:24:33.999Z</time></trkpt><trkpt lat="49.13311266183369" lon="6.253383321259152"><ele>194.0</ele><time>2026-04-20T12:24:34.999Z</time></trkpt><trkpt lat="49.133056155655346" lon="6.253220081756445"><ele>193.5</ele><time>2026-04-20T12:24:35.999Z</time></trkpt><trkpt lat="49.1330031150639" lon="6.253052068307368"><ele>193.0</ele><time>2026-04-20T12:24:36.999Z</time></trkpt><trkpt lat="49.1329409055118" lon="6.252889808093314"><ele>192.75</ele><time>2026-04-20T12:24:37.999Z</time></trkpt><trkpt lat="49.13287900127125" lon="6.2527296364114795"><ele>192.5</ele><time>2026-04-20T12:24:38.999Z</time></trkpt><trkpt lat="49.132820913371155" lon="6.25256791951359"><ele>192.25</ele><time>2026-04-20T12:24:39.999Z</time></trkpt><trkpt lat="49.132758041108374" lon="6.252412626427744"><ele>192.0</ele><time>2026-04-20T12:24:40.999Z</time></trkpt><trkpt lat="49.13268894892025" lon="6.252263812586083"><ele>192.5</ele><time>2026-04-20T12:24:41.999Z</time></trkpt><trkpt lat="49.13262853884382" lon="6.252103119146741"><ele>193.0</ele><time>2026-04-20T12:24:42.999Z</time></trkpt><trkpt lat="49.132566027236635" lon="6.251940932644587"><ele>193.5</ele><time>2026-04-20T12:24:43.999Z</time></trkpt><trkpt lat="49.13250690020211" lon="6.251766624447618"><ele>194.0</ele><time>2026-04-20T12:24:44.999Z</time></trkpt><trkpt lat="49.13243903577471" lon="6.251591069195146"><ele>194.5</ele><time>2026-04-20T12:24:45.999Z</time></trkpt><trkpt lat="49.13236838297559" lon="6.25140918527688"><ele>195.0</ele><time>2026-04-20T12:24:46.999Z</time></trkpt><trkpt lat="49.132300348454066" lon="6.251224569795086"><ele>195.5</ele><time>2026-04-20T12:24:47.999Z</time></trkpt><trkpt lat="49.13223471025329" lon="6.251035548906118"><ele>196.0</ele><time>2026-04-20T12:24:48.999Z</time></trkpt><trkpt lat="49.13216569504892" lon="6.250834435477125"><ele>196.0</ele><time>2026-04-20T12:24:49.999Z</time></trkpt><trkpt lat="49.13209468834625" lon="6.250627109433018"><ele>196.0</ele><time>2026-04-20T12:24:50.999Z</time></trkpt><trkpt lat="49.132026935318564" lon="6.250425486659452"><ele>196.0</ele><time>2026-04-20T12:24:51.999Z</time></trkpt><trkpt lat="49.1319625120488" lon="6.2502383897490725"><ele>196.0</ele><time>2026-04-20T12:24:52.999Z</time></trkpt><trkpt lat="49.13189318254547" lon="6.2500428802561325"><ele>196.25</ele><time>2026-04-20T12:24:53.999Z</time></trkpt><trkpt lat="49.13183006666851" lon="6.249846878269962"><ele>196.5</ele><time>2026-04-20T12:24:54.999Z</time></trkpt><trkpt lat="49.13174824211516" lon="6.249655095407523"><ele>196.75</ele><time>2026-04-20T12:24:55.999Z</time></trkpt><trkpt lat="49.13165175257811" lon="6.249481990921836"><ele>197.0</ele><time>2026-04-20T12:24:56.999Z</time></trkpt><trkpt lat="49.13154753837295" lon="6.249324313368094"><ele>196.0</ele><time>2026-04-20T12:24:57.999Z</time></trkpt><trkpt lat="49.13143330969946" lon="6.249178574740742"><ele>195.0</ele><time>2026-04-20T12:24:58.999Z</time></trkpt><trkpt lat="49.131312197186375" lon="6.249051991895902"><ele>194.0</ele><time>2026-04-20T12:24:59.999Z</time></trkpt><trkpt lat="49.13118452677976" lon="6.24893341873981"><ele>193.0</ele><time>2026-04-20T12:25:00.999Z</time></trkpt><trkpt lat="49.131054832966754" lon="6.2488231857160015"><ele>193.0</ele><time>2026-04-20T12:25:01.999Z</time></trkpt><trkpt lat="49.13092197149996" lon="6.248726239918886"><ele>193.0</ele><time>2026-04-20T12:25:02.999Z</time></trkpt><trkpt lat="49.130788016345676" lon="6.248641105375681"><ele>193.0</ele><time>2026-04-20T12:25:03.999Z</time></trkpt><trkpt lat="49.13065462440468" lon="6.248542112241627"><ele>193.0</ele><time>2026-04-20T12:25:04.999Z</time></trkpt><trkpt lat="49.1305268939522" lon="6.248426525208026"><ele>191.33333333333331</ele><time>2026-04-20T12:25:05.999Z</time></trkpt><trkpt lat="49.130404322944095" lon="6.2482909968340214"><ele>189.66666666666666</ele><time>2026-04-20T12:25:06.999Z</time></trkpt><trkpt lat="49.130292244790944" lon="6.2481355397480005"><ele>188.0</ele><time>2026-04-20T12:25:07.999Z</time></trkpt><trkpt lat="49.130190779901525" lon="6.247967230444993"><ele>188.0</ele><time>2026-04-20T12:25:08.999Z</time></trkpt><trkpt lat="49.130101048064255" lon="6.247785772037969"><ele>188.0</ele><time>2026-04-20T12:25:09.999Z</time></trkpt><trkpt lat="49.13001550183819" lon="6.247585462816299"><ele>188.0</ele><time>2026-04-20T12:25:10.999Z</time></trkpt><trkpt lat="49.12993646307143" lon="6.247383476100696"><ele>186.66666666666666</ele><time>2026-04-20T12:25:11.999Z</time></trkpt><trkpt lat="49.12986272367034" lon="6.2471740637839765"><ele>185.33333333333334</ele><time>2026-04-20T12:25:12.999Z</time></trkpt><trkpt lat="49.129792387276176" lon="6.246959018677939"><ele>184.0</ele><time>2026-04-20T12:25:13.999Z</time></trkpt><trkpt lat="49.12973664720037" lon="6.246745966467693"><ele>184.0</ele><time>2026-04-20T12:25:14.999Z</time></trkpt><trkpt lat="49.129688541533476" lon="6.246528770128025"><ele>184.0</ele><time>2026-04-20T12:25:16Z</time></trkpt><trkpt lat="49.12965261246683" lon="6.246304294109031"><ele>184.0</ele><time>2026-04-20T12:25:17Z</time></trkpt><trkpt lat="49.12963405756756" lon="6.246076804323006"><ele>184.0</ele><time>2026-04-20T12:25:18Z</time></trkpt><trkpt lat="49.12962489499696" lon="6.245848136583404"><ele>184.0</ele><time>2026-04-20T12:25:19Z</time></trkpt><trkpt lat="49.129628369432716" lon="6.245621462271193"><ele>184.0</ele><time>2026-04-20T12:25:20Z</time></trkpt><trkpt lat="49.12964701549411" lon="6.245396128407749"><ele>184.0</ele><time>2026-04-20T12:25:21Z</time></trkpt><trkpt lat="49.129676487788046" lon="6.245175858559774"><ele>184.0</ele><time>2026-04-20T12:25:22Z</time></trkpt><trkpt lat="49.129712728181715" lon="6.24496539353118"><ele>184.0</ele><time>2026-04-20T12:25:23Z</time></trkpt><trkpt lat="49.12974562914214" lon="6.244754298972081"><ele>184.0</ele><time>2026-04-20T12:25:24Z</time></trkpt><trkpt lat="49.12977666249255" lon="6.244547723014923"><ele>184.0</ele><time>2026-04-20T12:25:25Z</time></trkpt><trkpt lat="49.129807912757684" lon="6.244340203994133"><ele>184.0</ele><time>2026-04-20T12:25:26Z</time></trkpt><trkpt lat="49.129837293747556" lon="6.244150124844601"><ele>184.0</ele><time>2026-04-20T12:25:27Z</time></trkpt><trkpt lat="49.12986341719054" lon="6.24395234215425"><ele>184.0</ele><time>2026-04-20T12:25:28Z</time></trkpt><trkpt lat="49.129889659484775" lon="6.243763952931468"><ele>184.0</ele><time>2026-04-20T12:25:29Z</time></trkpt><trkpt lat="49.12991307965962" lon="6.243603033780842"><ele>183.6</ele><time>2026-04-20T12:25:30Z</time></trkpt><trkpt lat="49.12993745282856" lon="6.243456099210777"><ele>183.2</ele><time>2026-04-20T12:25:31Z</time></trkpt><trkpt lat="49.12995114092462" lon="6.243338915675015"><ele>182.79999999999998</ele><time>2026-04-20T12:25:32Z</time></trkpt><trkpt lat="49.12998008754929" lon="6.2431889749514395"><ele>182.39999999999998</ele><time>2026-04-20T12:25:34Z</time></trkpt><trkpt lat="49.12984541054042" lon="6.243062676978762"><ele>182.0</ele><time>2026-04-20T12:25:36Z</time></trkpt><trkpt lat="49.12975947376697" lon="6.243027381981356"><ele>182.0</ele><time>2026-04-20T12:25:37Z</time></trkpt><trkpt lat="49.12967395457165" lon="6.242970662133932"><ele>182.0</ele><time>2026-04-20T12:25:38Z</time></trkpt><trkpt lat="49.12957947809586" lon="6.242902212829738"><ele>182.0</ele><time>2026-04-20T12:25:39Z</time></trkpt><trkpt lat="49.129474837645525" lon="6.2428325494910055"><ele>182.0</ele><time>2026-04-20T12:25:40Z</time></trkpt><trkpt lat="49.12935778495093" lon="6.242760322804433"><ele>182.0</ele><time>2026-04-20T12:25:41Z</time></trkpt><trkpt lat="49.12923716416031" lon="6.242689102236893"><ele>182.0</ele><time>2026-04-20T12:25:42Z</time></trkpt><trkpt lat="49.129107653537545" lon="6.242617623954092"><ele>182.0</ele><time>2026-04-20T12:25:43Z</time></trkpt><trkpt lat="49.12897326004897" lon="6.242566643116522"><ele>182.0</ele><time>2026-04-20T12:25:44Z</time></trkpt><trkpt lat="49.12883654030239" lon="6.242534808800647"><ele>182.0</ele><time>2026-04-20T12:25:45Z</time></trkpt><trkpt lat="49.12869910232495" lon="6.2425207603155695"><ele>184.75</ele><time>2026-04-20T12:25:46Z</time></trkpt><trkpt lat="49.12856574934149" lon="6.242513371614109"><ele>187.5</ele><time>2026-04-20T12:25:47Z</time></trkpt><trkpt lat="49.128426243227864" lon="6.242512083864098"><ele>190.25</ele><time>2026-04-20T12:25:48Z</time></trkpt><trkpt lat="49.128283129572395" lon="6.242541755578865"><ele>193.0</ele><time>2026-04-20T12:25:49Z</time></trkpt><trkpt lat="49.12814787915777" lon="6.242591231296648"><ele>195.5</ele><time>2026-04-20T12:25:50Z</time></trkpt><trkpt lat="49.1280172080337" lon="6.242686796631794"><ele>198.0</ele><time>2026-04-20T12:25:51Z</time></trkpt><trkpt lat="49.127895370820674" lon="6.242808945399336"><ele>200.5</ele><time>2026-04-20T12:25:52Z</time></trkpt><trkpt lat="49.12777881517401" lon="6.242941403664428"><ele>203.0</ele><time>2026-04-20T12:25:53Z</time></trkpt><trkpt lat="49.127677719071535" lon="6.243099580970556"><ele>203.25</ele><time>2026-04-20T12:25:54Z</time></trkpt><trkpt lat="49.12758428879799" lon="6.243269823238328"><ele>203.5</ele><time>2026-04-20T12:25:55Z</time></trkpt><trkpt lat="49.12750889433373" lon="6.243450204582864"><ele>203.75</ele><time>2026-04-20T12:25:56Z</time></trkpt><trkpt lat="49.1274396567866" lon="6.243639974550771"><ele>204.0</ele><time>2026-04-20T12:25:57Z</time></trkpt><trkpt lat="49.127376070896595" lon="6.2438384031681435"><ele>203.25</ele><time>2026-04-20T12:25:58Z</time></trkpt><trkpt lat="49.12732512692228" lon="6.244046590254355"><ele>202.5</ele><time>2026-04-20T12:25:59Z</time></trkpt><trkpt lat="49.127302134713645" lon="6.244262515885621"><ele>201.75</ele><time>2026-04-20T12:26:00Z</time></trkpt><trkpt lat="49.127296582702584" lon="6.244489260061316"><ele>201.0</ele><time>2026-04-20T12:26:01Z</time></trkpt><trkpt lat="49.12729960535847" lon="6.244715559501666"><ele>201.75</ele><time>2026-04-20T12:26:02Z</time></trkpt><trkpt lat="49.12730897956902" lon="6.24493245465818"><ele>202.5</ele><time>2026-04-20T12:26:03Z</time></trkpt><trkpt lat="49.127312028216465" lon="6.24514581993928"><ele>203.25</ele><time>2026-04-20T12:26:04Z</time></trkpt><trkpt lat="49.127313169049785" lon="6.245367294347854"><ele>204.0</ele><time>2026-04-20T12:26:05Z</time></trkpt><trkpt lat="49.12732085784641" lon="6.245600099123773"><ele>203.0</ele><time>2026-04-20T12:26:06Z</time></trkpt><trkpt lat="49.127325364217526" lon="6.245810946113289"><ele>202.0</ele><time>2026-04-20T12:26:07Z</time></trkpt><trkpt lat="49.127329961272544" lon="6.246014540463102"><ele>201.0</ele><time>2026-04-20T12:26:08Z</time></trkpt><trkpt lat="49.12731892773423" lon="6.246238547607107"><ele>200.0</ele><time>2026-04-20T12:26:09Z</time></trkpt><trkpt lat="49.12733727274517" lon="6.246444295092052"><ele>199.75</ele><time>2026-04-20T12:26:10Z</time></trkpt><trkpt lat="49.127340319657826" lon="6.246641073214377"><ele>199.5</ele><time>2026-04-20T12:26:11Z</time></trkpt><trkpt lat="49.127349389496075" lon="6.246855700063193"><ele>199.25</ele><time>2026-04-20T12:26:12Z</time></trkpt><trkpt lat="49.12736285560297" lon="6.247075875569789"><ele>199.0</ele><time>2026-04-20T12:26:13Z</time></trkpt><trkpt lat="49.127364259574506" lon="6.24729698331733"><ele>200.5</ele><time>2026-04-20T12:26:14Z</time></trkpt><trkpt lat="49.127383423042644" lon="6.247520458941091"><ele>202.0</ele><time>2026-04-20T12:26:15Z</time></trkpt><trkpt lat="49.127402786215676" lon="6.247730816318327"><ele>203.5</ele><time>2026-04-20T12:26:16Z</time></trkpt><trkpt lat="49.127420767463256" lon="6.247927984021059"><ele>205.0</ele><time>2026-04-20T12:26:17Z</time></trkpt><trkpt lat="49.12743912151157" lon="6.248110669497369"><ele>203.6</ele><time>2026-04-20T12:26:18Z</time></trkpt><trkpt lat="49.12745269384309" lon="6.2482801135403285"><ele>202.2</ele><time>2026-04-20T12:26:19Z</time></trkpt><trkpt lat="49.12746225021664" lon="6.248439753137825"><ele>200.8</ele><time>2026-04-20T12:26:20Z</time></trkpt><trkpt lat="49.12746673070646" lon="6.248599116049894"><ele>199.4</ele><time>2026-04-20T12:26:21Z</time></trkpt><trkpt lat="49.127447136980855" lon="6.248749094503078"><ele>198.0</ele><time>2026-04-20T12:26:22Z</time></trkpt><trkpt lat="49.12739911285602" lon="6.248872952572657"><ele>199.2</ele><time>2026-04-20T12:26:23Z</time></trkpt><trkpt lat="49.12732555962135" lon="6.248942717620735"><ele>200.4</ele><time>2026-04-20T12:26:24Z</time></trkpt><trkpt lat="49.12723508795115" lon="6.248979759513354"><ele>201.6</ele><time>2026-04-20T12:26:25Z</time></trkpt><trkpt lat="49.12713327520745" lon="6.248985307516815"><ele>202.79999999999998</ele><time>2026-04-20T12:26:26Z</time></trkpt><trkpt lat="49.12702083224553" lon="6.248986448321234"><ele>204.0</ele><time>2026-04-20T12:26:27Z</time></trkpt><trkpt lat="49.126899056407325" lon="6.249003132437342"><ele>204.0</ele><time>2026-04-20T12:26:28Z</time></trkpt><trkpt lat="49.12677639866322" lon="6.249024906184551"><ele>204.0</ele><time>2026-04-20T12:26:29Z</time></trkpt><trkpt lat="49.12665095627544" lon="6.249043633863986"><ele>204.0</ele><time>2026-04-20T12:26:30Z</time></trkpt><trkpt lat="49.12651656857571" lon="6.249055029236635"><ele>204.0</ele><time>2026-04-20T12:26:31Z</time></trkpt><trkpt lat="49.126375895453215" lon="6.249048562465065"><ele>204.75</ele><time>2026-04-20T12:26:32Z</time></trkpt><trkpt lat="49.126235924202824" lon="6.249019147901721"><ele>205.5</ele><time>2026-04-20T12:26:33Z</time></trkpt><trkpt lat="49.126099216024414" lon="6.2489665118527284"><ele>206.25</ele><time>2026-04-20T12:26:34Z</time></trkpt><trkpt lat="49.1259640200458" lon="6.248892450952811"><ele>207.0</ele><time>2026-04-20T12:26:35Z</time></trkpt><trkpt lat="49.12583062715592" lon="6.248797383987845"><ele>207.75</ele><time>2026-04-20T12:26:36Z</time></trkpt><trkpt lat="49.12570800786848" lon="6.248683457916856"><ele>208.5</ele><time>2026-04-20T12:26:37Z</time></trkpt><trkpt lat="49.125590941838205" lon="6.248550624796644"><ele>209.25</ele><time>2026-04-20T12:26:38Z</time></trkpt><trkpt lat="49.12548098290733" lon="6.248405963758264"><ele>210.0</ele><time>2026-04-20T12:26:39Z</time></trkpt><trkpt lat="49.1253663625926" lon="6.24826853557063"><ele>210.0</ele><time>2026-04-20T12:26:40Z</time></trkpt><trkpt lat="49.12525320012319" lon="6.248138638869844"><ele>210.0</ele><time>2026-04-20T12:26:41Z</time></trkpt><trkpt lat="49.12515636118263" lon="6.248018397252876"><ele>210.0</ele><time>2026-04-20T12:26:42Z</time></trkpt><trkpt lat="49.12507034086761" lon="6.247902121203471"><ele>210.0</ele><time>2026-04-20T12:26:43Z</time></trkpt><trkpt lat="49.12500005784309" lon="6.24780219612045"><ele>210.66666666666666</ele><time>2026-04-20T12:26:44Z</time></trkpt><trkpt lat="49.124946811309975" lon="6.24772179705463"><ele>211.33333333333331</ele><time>2026-04-20T12:26:45Z</time></trkpt><trkpt lat="49.124908227971794" lon="6.2476302138035535"><ele>212.0</ele><time>2026-04-20T12:26:47Z</time></trkpt><trkpt lat="49.12489570757463" lon="6.247507489262746"><ele>212.66666666666666</ele><time>2026-04-20T12:26:49.999Z</time></trkpt><trkpt lat="49.12486168704391" lon="6.247425706759785"><ele>213.33333333333331</ele><time>2026-04-20T12:26:51.999Z</time></trkpt><trkpt lat="49.1247656440738" lon="6.247384126252219"><ele>214.0</ele><time>2026-04-20T12:26:53.999Z</time></trkpt><trkpt lat="49.12466279463402" lon="6.247493067478599"><ele>214.83333333333331</ele><time>2026-04-20T12:26:55.999Z</time></trkpt><trkpt lat="49.12462157672873" lon="6.247578862207672"><ele>215.66666666666666</ele><time>2026-04-20T12:26:56.999Z</time></trkpt><trkpt lat="49.12456456755168" lon="6.2476552238433145"><ele>216.5</ele><time>2026-04-20T12:26:57.999Z</time></trkpt><trkpt lat="49.12450845326939" lon="6.247714359801951"><ele>217.33333333333331</ele><time>2026-04-20T12:26:58.999Z</time></trkpt><trkpt lat="49.12445601529019" lon="6.247772619241768"><ele>218.16666666666666</ele><time>2026-04-20T12:26:59.999Z</time></trkpt><trkpt lat="49.124356330999504" lon="6.247884199221161"><ele>219.0</ele><time>2026-04-20T12:27:01.999Z</time></trkpt><trkpt lat="49.124302563963944" lon="6.247954430874366"><ele>219.0</ele><time>2026-04-20T12:27:02.999Z</time></trkpt><trkpt lat="49.124243068091005" lon="6.248052770783217"><ele>219.0</ele><time>2026-04-20T12:27:03.999Z</time></trkpt><trkpt lat="49.12419541492149" lon="6.248149053722241"><ele>219.0</ele><time>2026-04-20T12:27:04.999Z</time></trkpt><trkpt lat="49.124150250730395" lon="6.248245748328426"><ele>219.0</ele><time>2026-04-20T12:27:05.999Z</time></trkpt><trkpt lat="49.12409883009733" lon="6.248351161603763"><ele>219.0</ele><time>2026-04-20T12:27:06.999Z</time></trkpt><trkpt lat="49.12404489073122" lon="6.248470650741726"><ele>219.0</ele><time>2026-04-20T12:27:07.999Z</time></trkpt><trkpt lat="49.123979797753776" lon="6.248602863938588"><ele>218.75</ele><time>2026-04-20T12:27:08.999Z</time></trkpt><trkpt lat="49.12391142144168" lon="6.248736988709728"><ele>218.5</ele><time>2026-04-20T12:27:09.999Z</time></trkpt><trkpt lat="49.12383579432512" lon="6.248878188597355"><ele>218.25</ele><time>2026-04-20T12:27:10.999Z</time></trkpt><trkpt lat="49.123757418685805" lon="6.249031545975682"><ele>218.0</ele><time>2026-04-20T12:27:11.999Z</time></trkpt><trkpt lat="49.12367206731612" lon="6.2491903039138945"><ele>217.75</ele><time>2026-04-20T12:27:12.999Z</time></trkpt><trkpt lat="49.12358476919223" lon="6.24934592787927"><ele>217.5</ele><time>2026-04-20T12:27:13.999Z</time></trkpt><trkpt lat="49.12350140188585" lon="6.249507504476357"><ele>217.25</ele><time>2026-04-20T12:27:14.999Z</time></trkpt><trkpt lat="49.12341679986003" lon="6.249662252865235"><ele>217.0</ele><time>2026-04-20T12:27:15.999Z</time></trkpt><trkpt lat="49.123334841907955" lon="6.249815451827686"><ele>217.0</ele><time>2026-04-20T12:27:16.999Z</time></trkpt><trkpt lat="49.12325936679649" lon="6.249967370674233"><ele>217.0</ele><time>2026-04-20T12:27:17.999Z</time></trkpt><trkpt lat="49.12318976692212" lon="6.250112284446555"><ele>217.0</ele><time>2026-04-20T12:27:18.999Z</time></trkpt><trkpt lat="49.123118881032326" lon="6.250252523713937"><ele>217.0</ele><time>2026-04-20T12:27:19.999Z</time></trkpt><trkpt lat="49.12304936234626" lon="6.250384902077841"><ele>217.0</ele><time>2026-04-20T12:27:20.999Z</time></trkpt><trkpt lat="49.12298542906087" lon="6.250509032300304"><ele>217.0</ele><time>2026-04-20T12:27:22.001Z</time></trkpt><trkpt lat="49.122926139628504" lon="6.250622834472647"><ele>217.0</ele><time>2026-04-20T12:27:23.001Z</time></trkpt><trkpt lat="49.12288074407216" lon="6.250721011624293"><ele>217.0</ele><time>2026-04-20T12:27:24.001Z</time></trkpt><trkpt lat="49.12284547436615" lon="6.250812585885825"><ele>217.0</ele><time>2026-04-20T12:27:25.001Z</time></trkpt><trkpt lat="49.1227866632634" lon="6.250959360391838"><ele>216.66666666666666</ele><time>2026-04-20T12:27:27.001Z</time></trkpt><trkpt lat="49.12271505968552" lon="6.251070878819327"><ele>216.33333333333331</ele><time>2026-04-20T12:27:29.001Z</time></trkpt><trkpt lat="49.122659375623556" lon="6.25112703478411"><ele>216.0</ele><time>2026-04-20T12:27:33Z</time></trkpt><trkpt lat="49.12258379677784" lon="6.251181028798006"><ele>215.66666666666669</ele><time>2026-04-20T12:27:36Z</time></trkpt><trkpt lat="49.122501407380405" lon="6.251032439455819"><ele>215.33333333333334</ele><time>2026-04-20T12:27:38Z</time></trkpt><trkpt lat="49.12247396719615" lon="6.250941899611381"><ele>215.0</ele><time>2026-04-20T12:27:39Z</time></trkpt><trkpt lat="49.12240991895481" lon="6.250755842233242"><ele>214.8</ele><time>2026-04-20T12:27:41Z</time></trkpt><trkpt lat="49.12237013179541" lon="6.250644918423387"><ele>214.6</ele><time>2026-04-20T12:27:42Z</time></trkpt><trkpt lat="49.12232833052259" lon="6.2505329473659685"><ele>214.39999999999998</ele><time>2026-04-20T12:27:43Z</time></trkpt><trkpt lat="49.12228416273905" lon="6.25040586168321"><ele>214.2</ele><time>2026-04-20T12:27:44Z</time></trkpt><trkpt lat="49.12223336994139" lon="6.250263070956148"><ele>214.0</ele><time>2026-04-20T12:27:45Z</time></trkpt><trkpt lat="49.122180440076534" lon="6.250114531286185"><ele>214.5</ele><time>2026-04-20T12:27:46Z</time></trkpt><trkpt lat="49.12212344213967" lon="6.2499565790864215"><ele>215.0</ele><time>2026-04-20T12:27:47Z</time></trkpt><trkpt lat="49.12206372050945" lon="6.249794052653511"><ele>215.5</ele><time>2026-04-20T12:27:48Z</time></trkpt><trkpt lat="49.122001796248675" lon="6.24963309248454"><ele>216.0</ele><time>2026-04-20T12:27:49Z</time></trkpt><trkpt lat="49.12192934160738" lon="6.2494693199889495"><ele>216.75</ele><time>2026-04-20T12:27:50Z</time></trkpt><trkpt lat="49.12184833324384" lon="6.24931083847768"><ele>217.5</ele><time>2026-04-20T12:27:51Z</time></trkpt><trkpt lat="49.121760621937206" lon="6.249155414556407"><ele>218.25</ele><time>2026-04-20T12:27:52Z</time></trkpt><trkpt lat="49.12166976696882" lon="6.249017935391139"><ele>219.0</ele><time>2026-04-20T12:27:53Z</time></trkpt><trkpt lat="49.12157157857432" lon="6.248891347315799"><ele>219.75</ele><time>2026-04-20T12:27:54Z</time></trkpt><trkpt lat="49.12145820208567" lon="6.248767772849835"><ele>220.5</ele><time>2026-04-20T12:27:55Z</time></trkpt><trkpt lat="49.12133831567704" lon="6.248654153636971"><ele>221.25</ele><time>2026-04-20T12:27:56Z</time></trkpt><trkpt lat="49.121217289213114" lon="6.248555823899801"><ele>222.0</ele><time>2026-04-20T12:27:57Z</time></trkpt><trkpt lat="49.12109109815703" lon="6.248468367673899"><ele>222.0</ele><time>2026-04-20T12:27:58Z</time></trkpt><trkpt lat="49.12095927798505" lon="6.248401892468322"><ele>222.0</ele><time>2026-04-20T12:27:59Z</time></trkpt><trkpt lat="49.120823327883265" lon="6.2483487242996985"><ele>222.0</ele><time>2026-04-20T12:28:00Z</time></trkpt><trkpt lat="49.12068587981968" lon="6.248311561305456"><ele>222.0</ele><time>2026-04-20T12:28:01Z</time></trkpt><trkpt lat="49.1205534950613" lon="6.248290868941754"><ele>221.75</ele><time>2026-04-20T12:28:02Z</time></trkpt><trkpt lat="49.12041668024044" lon="6.248276393492058"><ele>221.5</ele><time>2026-04-20T12:28:03Z</time></trkpt><trkpt lat="49.120279982443286" lon="6.248259431552972"><ele>221.25</ele><time>2026-04-20T12:28:04Z</time></trkpt><trkpt lat="49.12014370653857" lon="6.248220304661587"><ele>221.0</ele><time>2026-04-20T12:28:05Z</time></trkpt><trkpt lat="49.12001815237396" lon="6.248157970993751"><ele>220.75</ele><time>2026-04-20T12:28:06Z</time></trkpt><trkpt lat="49.11989749049871" lon="6.248071796603271"><ele>220.5</ele><time>2026-04-20T12:28:07Z</time></trkpt><trkpt lat="49.11978118226697" lon="6.247965580561034"><ele>220.25</ele><time>2026-04-20T12:28:08Z</time></trkpt><trkpt lat="49.11967192154244" lon="6.247836130401937"><ele>220.0</ele><time>2026-04-20T12:28:09Z</time></trkpt><trkpt lat="49.119568733742035" lon="6.247695305919116"><ele>220.0</ele><time>2026-04-20T12:28:10Z</time></trkpt><trkpt lat="49.11947671585678" lon="6.247559236039388"><ele>220.0</ele><time>2026-04-20T12:28:11Z</time></trkpt><trkpt lat="49.11938094401119" lon="6.247471050800369"><ele>220.0</ele><time>2026-04-20T12:28:12Z</time></trkpt><trkpt lat="49.119279763257296" lon="6.247417078362316"><ele>220.0</ele><time>2026-04-20T12:28:13Z</time></trkpt><trkpt lat="49.1192075225366" lon="6.24736678627062"><ele>220.0</ele><time>2026-04-20T12:28:14Z</time></trkpt><trkpt lat="49.119160233454" lon="6.2472869736023675"><ele>220.49999999999997</ele><time>2026-04-20T12:28:16Z</time></trkpt><trkpt lat="49.11910824363471" lon="6.247145195066658"><ele>221.0</ele><time>2026-04-20T12:28:21Z</time></trkpt><trkpt lat="49.1190886021702" lon="6.247052390449012"><ele>221.5</ele><time>2026-04-20T12:28:22Z</time></trkpt><trkpt lat="49.11905838769721" lon="6.246938182463734"><ele>222.0</ele><time>2026-04-20T12:28:23Z</time></trkpt><trkpt lat="49.119002495794035" lon="6.246827592298358"><ele>222.49999999999997</ele><time>2026-04-20T12:28:24Z</time></trkpt><trkpt lat="49.11892490018393" lon="6.246731789334175"><ele>223.0</ele><time>2026-04-20T12:28:25Z</time></trkpt><trkpt lat="49.11883136465797" lon="6.246652174772928"><ele>223.0</ele><time>2026-04-20T12:28:26Z</time></trkpt><trkpt lat="49.11872212306344" lon="6.24660689947995"><ele>223.0</ele><time>2026-04-20T12:28:27Z</time></trkpt><trkpt lat="49.11862405391021" lon="6.246614135993398"><ele>223.0</ele><time>2026-04-20T12:28:28Z</time></trkpt><trkpt lat="49.11853407898274" lon="6.246663494073643"><ele>223.0</ele><time>2026-04-20T12:28:29Z</time></trkpt><trkpt lat="49.11845082054812" lon="6.246732509372783"><ele>223.0</ele><time>2026-04-20T12:28:30Z</time></trkpt><trkpt lat="49.118380998544126" lon="6.246826528168869"><ele>222.99999999999997</ele><time>2026-04-20T12:28:31Z</time></trkpt><trkpt lat="49.11832701711075" lon="6.246921904350933"><ele>223.0</ele><time>2026-04-20T12:28:32Z</time></trkpt><trkpt lat="49.11826802863859" lon="6.247008404583613"><ele>223.0</ele><time>2026-04-20T12:28:33Z</time></trkpt><trkpt lat="49.11820951674608" lon="6.247062281904883"><ele>223.0</ele><time>2026-04-20T12:28:34Z</time></trkpt><trkpt lat="49.118121813616696" lon="6.247116406813911"><ele>222.99999999999997</ele><time>2026-04-20T12:28:35Z</time></trkpt><trkpt lat="49.118047664699596" lon="6.247216537273353"><ele>223.0</ele><time>2026-04-20T12:28:36Z</time></trkpt><trkpt lat="49.11791257401848" lon="6.247160875219703"><ele>222.4</ele><time>2026-04-20T12:28:37Z</time></trkpt><trkpt lat="49.11780266172447" lon="6.2471694942123035"><ele>221.8</ele><time>2026-04-20T12:28:38Z</time></trkpt><trkpt lat="49.11770375640355" lon="6.24717992808675"><ele>221.2</ele><time>2026-04-20T12:28:39Z</time></trkpt><trkpt lat="49.11761222462585" lon="6.247188040445169"><ele>220.6</ele><time>2026-04-20T12:28:40Z</time></trkpt><trkpt lat="49.117522251081766" lon="6.247192803576671"><ele>220.0</ele><time>2026-04-20T12:28:41Z</time></trkpt><trkpt lat="49.11743299292108" lon="6.2472064907015605"><ele>220.0</ele><time>2026-04-20T12:28:42Z</time></trkpt><trkpt lat="49.117333886944266" lon="6.2472152101318"><ele>220.0</ele><time>2026-04-20T12:28:43Z</time></trkpt><trkpt lat="49.11722695009231" lon="6.247217969020484"><ele>220.0</ele><time>2026-04-20T12:28:44Z</time></trkpt><trkpt lat="49.117110468169706" lon="6.24723511989527"><ele>220.0</ele><time>2026-04-20T12:28:45Z</time></trkpt><trkpt lat="49.1169923648078" lon="6.247248492926863"><ele>220.0</ele><time>2026-04-20T12:28:46Z</time></trkpt><trkpt lat="49.11686864010122" lon="6.247261911552517"><ele>220.0</ele><time>2026-04-20T12:28:47Z</time></trkpt><trkpt lat="49.116737412794855" lon="6.247273722018472"><ele>220.0</ele><time>2026-04-20T12:28:47.999Z</time></trkpt><trkpt lat="49.116601979186996" lon="6.247283218882404"><ele>220.0</ele><time>2026-04-20T12:28:48.999Z</time></trkpt><trkpt lat="49.11646777878429" lon="6.247291338834029"><ele>220.0</ele><time>2026-04-20T12:28:49.999Z</time></trkpt><trkpt lat="49.116333100713526" lon="6.24729929600953"><ele>220.2</ele><time>2026-04-20T12:28:50.999Z</time></trkpt><trkpt lat="49.11620481461361" lon="6.24730060711447"><ele>220.4</ele><time>2026-04-20T12:28:51.999Z</time></trkpt><trkpt lat="49.116082279045784" lon="6.247307671581924"><ele>220.60000000000002</ele><time>2026-04-20T12:28:52.999Z</time></trkpt><trkpt lat="49.115979170173915" lon="6.247319921236698"><ele>220.8</ele><time>2026-04-20T12:28:53.999Z</time></trkpt><trkpt lat="49.11589694182091" lon="6.247328936269472"><ele>221.0</ele><time>2026-04-20T12:28:54.999Z</time></trkpt><trkpt lat="49.11582240942654" lon="6.247332573007418"><ele>221.0</ele><time>2026-04-20T12:28:55.999Z</time></trkpt><trkpt lat="49.11575824769208" lon="6.247330253942018"><ele>221.00000000000003</ele><time>2026-04-20T12:28:56.999Z</time></trkpt><trkpt lat="49.115622763855534" lon="6.247337667297687"><ele>221.00000000000003</ele><time>2026-04-20T12:28:58.999Z</time></trkpt><trkpt lat="49.11555559761159" lon="6.247339514148081"><ele>221.0</ele><time>2026-04-20T12:28:59.999Z</time></trkpt><trkpt lat="49.115440648636735" lon="6.247341489440828"><ele>221.0</ele><time>2026-04-20T12:29:01.999Z</time></trkpt><trkpt lat="49.11536246890153" lon="6.2473411819152345"><ele>220.8</ele><time>2026-04-20T12:29:02.999Z</time></trkpt><trkpt lat="49.11528201881814" lon="6.24734552126105"><ele>220.60000000000002</ele><time>2026-04-20T12:29:03.999Z</time></trkpt><trkpt lat="49.11519314669179" lon="6.24734996915769"><ele>220.4</ele><time>2026-04-20T12:29:04.999Z</time></trkpt><trkpt lat="49.11509617760948" lon="6.247354527793918"><ele>220.2</ele><time>2026-04-20T12:29:05.999Z</time></trkpt><trkpt lat="49.11499689103094" lon="6.247358554911211"><ele>220.0</ele><time>2026-04-20T12:29:06.999Z</time></trkpt><trkpt lat="49.114894340430396" lon="6.2473626669020295"><ele>220.0</ele><time>2026-04-20T12:29:07.999Z</time></trkpt><trkpt lat="49.1147852697482" lon="6.247369132887574"><ele>220.0</ele><time>2026-04-20T12:29:08.999Z</time></trkpt><trkpt lat="49.114677760587234" lon="6.247372562717039"><ele>220.0</ele><time>2026-04-20T12:29:09.999Z</time></trkpt><trkpt lat="49.11456418788692" lon="6.247383782531228"><ele>220.0</ele><time>2026-04-20T12:29:10.999Z</time></trkpt><trkpt lat="49.11444390642105" lon="6.247388428449671"><ele>220.0</ele><time>2026-04-20T12:29:11.999Z</time></trkpt><trkpt lat="49.11432258234569" lon="6.247388442442963"><ele>220.0</ele><time>2026-04-20T12:29:12.999Z</time></trkpt><trkpt lat="49.11420705899121" lon="6.2473917830565"><ele>220.0</ele><time>2026-04-20T12:29:13.999Z</time></trkpt><trkpt lat="49.11408944577998" lon="6.247395965227893"><ele>220.0</ele><time>2026-04-20T12:29:14.999Z</time></trkpt><trkpt lat="49.113971363194175" lon="6.247398584723959"><ele>220.4</ele><time>2026-04-20T12:29:15.999Z</time></trkpt><trkpt lat="49.11385746759015" lon="6.2474019445809486"><ele>220.8</ele><time>2026-04-20T12:29:16.999Z</time></trkpt><trkpt lat="49.11374599908031" lon="6.247405962920545"><ele>221.2</ele><time>2026-04-20T12:29:17.999Z</time></trkpt><trkpt lat="49.113633209032756" lon="6.247416113107301"><ele>221.6</ele><time>2026-04-20T12:29:18.999Z</time></trkpt><trkpt lat="49.1135248436843" lon="6.247423180810409"><ele>222.0</ele><time>2026-04-20T12:29:19.999Z</time></trkpt><trkpt lat="49.11341642236527" lon="6.2474294958081416"><ele>222.0</ele><time>2026-04-20T12:29:20.999Z</time></trkpt><trkpt lat="49.11331164140154" lon="6.24743176915215"><ele>222.0</ele><time>2026-04-20T12:29:21.999Z</time></trkpt><trkpt lat="49.1132039171877" lon="6.247435349272744"><ele>222.0</ele><time>2026-04-20T12:29:22.999Z</time></trkpt><trkpt lat="49.11309527148623" lon="6.247437676740882"><ele>222.0</ele><time>2026-04-20T12:29:23.999Z</time></trkpt><trkpt lat="49.112984785380505" lon="6.247440969185356"><ele>222.0</ele><time>2026-04-20T12:29:24.999Z</time></trkpt><trkpt lat="49.11288175647689" lon="6.247447172924141"><ele>222.39999999999998</ele><time>2026-04-20T12:29:25.999Z</time></trkpt><trkpt lat="49.112785232244505" lon="6.247451237553853"><ele>222.79999999999998</ele><time>2026-04-20T12:29:26.999Z</time></trkpt><trkpt lat="49.11269327791649" lon="6.247454998685627"><ele>223.2</ele><time>2026-04-20T12:29:28Z</time></trkpt><trkpt lat="49.11259543315536" lon="6.247465008179355"><ele>223.6</ele><time>2026-04-20T12:29:29Z</time></trkpt><trkpt lat="49.11248928915504" lon="6.24747246964046"><ele>224.0</ele><time>2026-04-20T12:29:30Z</time></trkpt><trkpt lat="49.1123765981644" lon="6.2474783724874685"><ele>224.39999999999998</ele><time>2026-04-20T12:29:31Z</time></trkpt><trkpt lat="49.11226711760896" lon="6.247484368207797"><ele>224.79999999999998</ele><time>2026-04-20T12:29:32Z</time></trkpt><trkpt lat="49.112162956053396" lon="6.247488679329939"><ele>225.20000000000002</ele><time>2026-04-20T12:29:33Z</time></trkpt><trkpt lat="49.112059353460815" lon="6.247494222820429"><ele>225.60000000000002</ele><time>2026-04-20T12:29:34Z</time></trkpt><trkpt lat="49.1119530941863" lon="6.247499180480231"><ele>226.0</ele><time>2026-04-20T12:29:35Z</time></trkpt><trkpt lat="49.11184331949492" lon="6.2475058372725085"><ele>225.99999999999997</ele><time>2026-04-20T12:29:36Z</time></trkpt><trkpt lat="49.1117403407299" lon="6.247511575151389"><ele>226.0</ele><time>2026-04-20T12:29:37Z</time></trkpt><trkpt lat="49.111649917897566" lon="6.24751636479408"><ele>226.0</ele><time>2026-04-20T12:29:38Z</time></trkpt><trkpt lat="49.111579090489585" lon="6.247519163432251"><ele>226.0</ele><time>2026-04-20T12:29:39Z</time></trkpt><trkpt lat="49.11150884912938" lon="6.247525579007168"><ele>225.99999999999997</ele><time>2026-04-20T12:29:40Z</time></trkpt><trkpt lat="49.11143029246186" lon="6.247532928826626"><ele>226.0</ele><time>2026-04-20T12:29:41Z</time></trkpt><trkpt lat="49.11135093518599" lon="6.24752894328876"><ele>226.33333333333331</ele><time>2026-04-20T12:29:42Z</time></trkpt><trkpt lat="49.11127197189268" lon="6.247530691303111"><ele>226.66666666666666</ele><time>2026-04-20T12:29:43Z</time></trkpt><trkpt lat="49.11118633568476" lon="6.247538307650904"><ele>227.0</ele><time>2026-04-20T12:29:44Z</time></trkpt><trkpt lat="49.1111084803018" lon="6.2475476384950905"><ele>227.33333333333331</ele><time>2026-04-20T12:29:45Z</time></trkpt><trkpt lat="49.11100357507969" lon="6.247551549058526"><ele>227.66666666666666</ele><time>2026-04-20T12:29:47Z</time></trkpt><trkpt lat="49.1109330404844" lon="6.247550338193317"><ele>228.0</ele><time>2026-04-20T12:29:49Z</time></trkpt><trkpt lat="49.11082313895501" lon="6.247563373545505"><ele>228.0</ele><time>2026-04-20T12:29:51Z</time></trkpt><trkpt lat="49.11069778197653" lon="6.247569221445654"><ele>228.0</ele><time>2026-04-20T12:29:53Z</time></trkpt><trkpt lat="49.11062143603238" lon="6.247569563197203"><ele>228.0</ele><time>2026-04-20T12:29:54Z</time></trkpt><trkpt lat="49.1105393606758" lon="6.247576702952054"><ele>228.0</ele><time>2026-04-20T12:29:55Z</time></trkpt><trkpt lat="49.11046773815263" lon="6.247576948917339"><ele>228.0</ele><time>2026-04-20T12:29:56Z</time></trkpt><trkpt lat="49.110390681574884" lon="6.247579364259983"><ele>228.0</ele><time>2026-04-20T12:29:57Z</time></trkpt><trkpt lat="49.11031735313334" lon="6.247586660564538"><ele>228.0</ele><time>2026-04-20T12:29:58Z</time></trkpt><trkpt lat="49.110240431949606" lon="6.2475954787110926"><ele>228.0</ele><time>2026-04-20T12:29:59Z</time></trkpt><trkpt lat="49.1101568477011" lon="6.247600322906866"><ele>228.0</ele><time>2026-04-20T12:30:00Z</time></trkpt><trkpt lat="49.11007691632277" lon="6.247601453219163"><ele>228.0</ele><time>2026-04-20T12:30:01Z</time></trkpt><trkpt lat="49.109992038529406" lon="6.247605756085574"><ele>228.0</ele><time>2026-04-20T12:30:02Z</time></trkpt><trkpt lat="49.10991298312013" lon="6.2476056832859195"><ele>228.0</ele><time>2026-04-20T12:30:03Z</time></trkpt><trkpt lat="49.109845375937915" lon="6.247608439707417"><ele>228.16666666666666</ele><time>2026-04-20T12:30:04Z</time></trkpt><trkpt lat="49.10977640416244" lon="6.247609510854881"><ele>228.33333333333331</ele><time>2026-04-20T12:30:05Z</time></trkpt><trkpt lat="49.10969886109433" lon="6.247614065983204"><ele>228.5</ele><time>2026-04-20T12:30:06Z</time></trkpt><trkpt lat="49.10961525645935" lon="6.247614306555372"><ele>228.66666666666666</ele><time>2026-04-20T12:30:07Z</time></trkpt><trkpt lat="49.10952548263803" lon="6.247620764826857"><ele>228.83333333333331</ele><time>2026-04-20T12:30:08Z</time></trkpt><trkpt lat="49.10943084591781" lon="6.24763064884811"><ele>229.0</ele><time>2026-04-20T12:30:09Z</time></trkpt><trkpt lat="49.10933623531647" lon="6.247635408962825"><ele>228.99999999999997</ele><time>2026-04-20T12:30:10Z</time></trkpt><trkpt lat="49.109249211727075" lon="6.247641574856888"><ele>229.0</ele><time>2026-04-20T12:30:11Z</time></trkpt><trkpt lat="49.109172741302864" lon="6.247647969900822"><ele>229.0</ele><time>2026-04-20T12:30:12Z</time></trkpt><trkpt lat="49.109088545565044" lon="6.24765637375921"><ele>229.0</ele><time>2026-04-20T12:30:13Z</time></trkpt><trkpt lat="49.108998101269606" lon="6.247659592310977"><ele>228.99999999999997</ele><time>2026-04-20T12:30:14Z</time></trkpt><trkpt lat="49.108899476362595" lon="6.2476647067578055"><ele>229.0</ele><time>2026-04-20T12:30:15Z</time></trkpt><trkpt lat="49.10879812284471" lon="6.247670708689458"><ele>229.33333333333331</ele><time>2026-04-20T12:30:16Z</time></trkpt><trkpt lat="49.108701235579346" lon="6.247672022761119"><ele>229.66666666666666</ele><time>2026-04-20T12:30:17Z</time></trkpt><trkpt lat="49.10861426633104" lon="6.247666212886011"><ele>230.0</ele><time>2026-04-20T12:30:18Z</time></trkpt><trkpt lat="49.108539796313" lon="6.247658460370946"><ele>230.33333333333331</ele><time>2026-04-20T12:30:19Z</time></trkpt><trkpt lat="49.1084754992786" lon="6.247645095115425"><ele>230.66666666666666</ele><time>2026-04-20T12:30:20Z</time></trkpt><trkpt lat="49.108410701516455" lon="6.247605467629139"><ele>231.0</ele><time>2026-04-20T12:30:21Z</time></trkpt><trkpt lat="49.108349895218815" lon="6.247541222407909"><ele>231.0</ele><time>2026-04-20T12:30:22Z</time></trkpt><trkpt lat="49.108286947057216" lon="6.247490108393868"><ele>231.0</ele><time>2026-04-20T12:30:23Z</time></trkpt><trkpt lat="49.108216334719316" lon="6.247470096735782"><ele>231.0</ele><time>2026-04-20T12:30:24Z</time></trkpt><trkpt lat="49.108149458181046" lon="6.247492430985636"><ele>231.0</ele><time>2026-04-20T12:30:25Z</time></trkpt><trkpt lat="49.10809228385895" lon="6.247547176391491"><ele>231.0</ele><time>2026-04-20T12:30:26Z</time></trkpt><trkpt lat="49.10805999106324" lon="6.247650795770483"><ele>231.0</ele><time>2026-04-20T12:30:27Z</time></trkpt><trkpt lat="49.10805298503647" lon="6.247770794165088"><ele>231.0</ele><time>2026-04-20T12:30:28Z</time></trkpt><trkpt lat="49.10807922930444" lon="6.247876811232308"><ele>230.8</ele><time>2026-04-20T12:30:29Z</time></trkpt><trkpt lat="49.10812975950142" lon="6.247971701861577"><ele>230.60000000000002</ele><time>2026-04-20T12:30:30Z</time></trkpt><trkpt lat="49.10818957325044" lon="6.248068509877356"><ele>230.4</ele><time>2026-04-20T12:30:31Z</time></trkpt><trkpt lat="49.10822436184132" lon="6.248193192496857"><ele>230.2</ele><time>2026-04-20T12:30:32Z</time></trkpt><trkpt lat="49.108244775617784" lon="6.248332035561726"><ele>230.0</ele><time>2026-04-20T12:30:33Z</time></trkpt><trkpt lat="49.108257574138875" lon="6.248489827064613"><ele>229.75</ele><time>2026-04-20T12:30:34Z</time></trkpt><trkpt lat="49.108275539384294" lon="6.2486558200323605"><ele>229.5</ele><time>2026-04-20T12:30:35Z</time></trkpt><trkpt lat="49.10829498782404" lon="6.248839418705314"><ele>229.25</ele><time>2026-04-20T12:30:36Z</time></trkpt><trkpt lat="49.10831586651407" lon="6.249035610466099"><ele>229.0</ele><time>2026-04-20T12:30:37Z</time></trkpt><trkpt lat="49.10833343820975" lon="6.2492396254558145"><ele>228.75</ele><time>2026-04-20T12:30:38Z</time></trkpt><trkpt lat="49.108356456575486" lon="6.249455521079576"><ele>228.5</ele><time>2026-04-20T12:30:39Z</time></trkpt><trkpt lat="49.10837924078638" lon="6.249677901221591"><ele>228.25</ele><time>2026-04-20T12:30:40Z</time></trkpt><trkpt lat="49.108401372175194" lon="6.24989594900067"><ele>228.0</ele><time>2026-04-20T12:30:41Z</time></trkpt><trkpt lat="49.10842729777208" lon="6.250112026545513"><ele>228.0</ele><time>2026-04-20T12:30:41.999Z</time></trkpt><trkpt lat="49.108448000247556" lon="6.250323577897598"><ele>228.0</ele><time>2026-04-20T12:30:42.999Z</time></trkpt><trkpt lat="49.10846947833858" lon="6.25053791827163"><ele>228.0</ele><time>2026-04-20T12:30:43.999Z</time></trkpt><trkpt lat="49.10849184996332" lon="6.250750979736536"><ele>228.0</ele><time>2026-04-20T12:30:44.999Z</time></trkpt><trkpt lat="49.108513337106594" lon="6.2509630012661255"><ele>228.25</ele><time>2026-04-20T12:30:45.999Z</time></trkpt><trkpt lat="49.10853568391512" lon="6.251174279468019"><ele>228.5</ele><time>2026-04-20T12:30:46.999Z</time></trkpt><trkpt lat="49.10856099459394" lon="6.251389146430033"><ele>228.75</ele><time>2026-04-20T12:30:47.999Z</time></trkpt><trkpt lat="49.108582100977" lon="6.2516001123458524"><ele>229.0</ele><time>2026-04-20T12:30:48.999Z</time></trkpt><trkpt lat="49.108607304737625" lon="6.251818707272075"><ele>228.75</ele><time>2026-04-20T12:30:49.999Z</time></trkpt><trkpt lat="49.10862835417954" lon="6.252039362127283"><ele>228.5</ele><time>2026-04-20T12:30:50.999Z</time></trkpt><trkpt lat="49.108650478273304" lon="6.252261467296069"><ele>228.25</ele><time>2026-04-20T12:30:51.999Z</time></trkpt><trkpt lat="49.108673946322014" lon="6.252482047322304"><ele>228.0</ele><time>2026-04-20T12:30:52.999Z</time></trkpt><trkpt lat="49.1086958241236" lon="6.252705610914448"><ele>228.0</ele><time>2026-04-20T12:30:53.999Z</time></trkpt><trkpt lat="49.10871586588826" lon="6.252929832369484"><ele>228.0</ele><time>2026-04-20T12:30:54.999Z</time></trkpt><trkpt lat="49.10873556430541" lon="6.253146363828205"><ele>228.0</ele><time>2026-04-20T12:30:55.999Z</time></trkpt><trkpt lat="49.10875964044154" lon="6.253357305463127"><ele>228.0</ele><time>2026-04-20T12:30:56.999Z</time></trkpt><trkpt lat="49.108782080483905" lon="6.2535757011087965"><ele>227.75</ele><time>2026-04-20T12:30:57.999Z</time></trkpt><trkpt lat="49.108803564418494" lon="6.253801654223677"><ele>227.5</ele><time>2026-04-20T12:30:58.999Z</time></trkpt><trkpt lat="49.108827725846986" lon="6.254023369147741"><ele>227.25</ele><time>2026-04-20T12:30:59.999Z</time></trkpt><trkpt lat="49.10885127416012" lon="6.254231011620563"><ele>227.0</ele><time>2026-04-20T12:31:00.999Z</time></trkpt><trkpt lat="49.10887643495546" lon="6.254437691305964"><ele>227.0</ele><time>2026-04-20T12:31:01.999Z</time></trkpt><trkpt lat="49.10890112643585" lon="6.254637697628718"><ele>227.0</ele><time>2026-04-20T12:31:02.999Z</time></trkpt><trkpt lat="49.10892215646063" lon="6.254835129677712"><ele>227.0</ele><time>2026-04-20T12:31:03.999Z</time></trkpt><trkpt lat="49.10893325597689" lon="6.255031112560968"><ele>227.0</ele><time>2026-04-20T12:31:04.999Z</time></trkpt><trkpt lat="49.108915806558755" lon="6.2552290166480855"><ele>226.75</ele><time>2026-04-20T12:31:05.999Z</time></trkpt><trkpt lat="49.108876512621194" lon="6.255419392096262"><ele>226.5</ele><time>2026-04-20T12:31:06.999Z</time></trkpt><trkpt lat="49.108820633646395" lon="6.2556151414164765"><ele>226.25</ele><time>2026-04-20T12:31:07.999Z</time></trkpt><trkpt lat="49.10875459974099" lon="6.255806540699175"><ele>226.0</ele><time>2026-04-20T12:31:08.999Z</time></trkpt><trkpt lat="49.108685665535184" lon="6.255992869488794"><ele>226.0</ele><time>2026-04-20T12:31:09.999Z</time></trkpt><trkpt lat="49.10861154496141" lon="6.2561609056993355"><ele>226.0</ele><time>2026-04-20T12:31:10.999Z</time></trkpt><trkpt lat="49.10852340679815" lon="6.256325861182525"><ele>226.0</ele><time>2026-04-20T12:31:11.999Z</time></trkpt><trkpt lat="49.108424692076" lon="6.256473600784417"><ele>226.0</ele><time>2026-04-20T12:31:12.999Z</time></trkpt><trkpt lat="49.108312467554235" lon="6.256613631081103"><ele>227.25</ele><time>2026-04-20T12:31:13.999Z</time></trkpt><trkpt lat="49.10819132167741" lon="6.256745375299923"><ele>228.5</ele><time>2026-04-20T12:31:14.999Z</time></trkpt><trkpt lat="49.10807396174076" lon="6.256874981498289"><ele>229.75</ele><time>2026-04-20T12:31:15.999Z</time></trkpt><trkpt lat="49.10795601422797" lon="6.257010235122701"><ele>231.0</ele><time>2026-04-20T12:31:16.999Z</time></trkpt><trkpt lat="49.107840374308545" lon="6.257141367163581"><ele>231.0</ele><time>2026-04-20T12:31:17.999Z</time></trkpt><trkpt lat="49.107729754656745" lon="6.257265099711718"><ele>231.0</ele><time>2026-04-20T12:31:18.999Z</time></trkpt><trkpt lat="49.10761649520881" lon="6.257396516243316"><ele>231.0</ele><time>2026-04-20T12:31:19.999Z</time></trkpt><trkpt lat="49.107498588771975" lon="6.257526061794535"><ele>231.0</ele><time>2026-04-20T12:31:20.999Z</time></trkpt><trkpt lat="49.10738179211084" lon="6.257657391113757"><ele>231.0</ele><time>2026-04-20T12:31:21.999Z</time></trkpt><trkpt lat="49.1072627970139" lon="6.257790877143003"><ele>231.0</ele><time>2026-04-20T12:31:22.999Z</time></trkpt><trkpt lat="49.107146149063425" lon="6.25792496628532"><ele>231.0</ele><time>2026-04-20T12:31:23.999Z</time></trkpt><trkpt lat="49.10702910870173" lon="6.258056869263413"><ele>231.0</ele><time>2026-04-20T12:31:24.999Z</time></trkpt><trkpt lat="49.10691259373424" lon="6.258189564371895"><ele>231.0</ele><time>2026-04-20T12:31:25.999Z</time></trkpt><trkpt lat="49.10679973573362" lon="6.258312253643166"><ele>231.0</ele><time>2026-04-20T12:31:26.999Z</time></trkpt><trkpt lat="49.10668745415049" lon="6.258442809311832"><ele>231.0</ele><time>2026-04-20T12:31:27.999Z</time></trkpt><trkpt lat="49.106571365914064" lon="6.258577834334935"><ele>231.0</ele><time>2026-04-20T12:31:28.999Z</time></trkpt><trkpt lat="49.10645980617988" lon="6.258706599282146"><ele>230.75</ele><time>2026-04-20T12:31:29.999Z</time></trkpt><trkpt lat="49.10635303611551" lon="6.2588284089578075"><ele>230.5</ele><time>2026-04-20T12:31:30.999Z</time></trkpt><trkpt lat="49.10624788669084" lon="6.25894933215347"><ele>230.25</ele><time>2026-04-20T12:31:31.999Z</time></trkpt><trkpt lat="49.10613664362282" lon="6.259080531354132"><ele>230.0</ele><time>2026-04-20T12:31:32.999Z</time></trkpt><trkpt lat="49.10602934030922" lon="6.259212350959766"><ele>229.25</ele><time>2026-04-20T12:31:34Z</time></trkpt><trkpt lat="49.10593473071287" lon="6.259351755367358"><ele>228.5</ele><time>2026-04-20T12:31:35Z</time></trkpt><trkpt lat="49.105846642956834" lon="6.259504977409092"><ele>227.75</ele><time>2026-04-20T12:31:36Z</time></trkpt><trkpt lat="49.10577072894048" lon="6.259676940384641"><ele>227.0</ele><time>2026-04-20T12:31:37Z</time></trkpt><trkpt lat="49.105707503313084" lon="6.259865487557471"><ele>225.75</ele><time>2026-04-20T12:31:38Z</time></trkpt><trkpt lat="49.10565328282595" lon="6.260057315337127"><ele>224.5</ele><time>2026-04-20T12:31:39Z</time></trkpt><trkpt lat="49.10564423947947" lon="6.260273659431184"><ele>223.25</ele><time>2026-04-20T12:31:40Z</time></trkpt><trkpt lat="49.10561946197256" lon="6.260486619548717"><ele>222.0</ele><time>2026-04-20T12:31:41Z</time></trkpt><trkpt lat="49.10563331907997" lon="6.26070391235816"><ele>221.75</ele><time>2026-04-20T12:31:42Z</time></trkpt><trkpt lat="49.10566174610482" lon="6.26091831858399"><ele>221.5</ele><time>2026-04-20T12:31:43Z</time></trkpt><trkpt lat="49.10570975965371" lon="6.261124080214042"><ele>221.25</ele><time>2026-04-20T12:31:44Z</time></trkpt><trkpt lat="49.10578937528709" lon="6.2613073009614055"><ele>221.0</ele><time>2026-04-20T12:31:45Z</time></trkpt><trkpt lat="49.105856136784254" lon="6.261497643831529"><ele>221.0</ele><time>2026-04-20T12:31:46Z</time></trkpt><trkpt lat="49.10592636620675" lon="6.26168826639567"><ele>221.0</ele><time>2026-04-20T12:31:47Z</time></trkpt><trkpt lat="49.10599675300724" lon="6.2618776467626"><ele>221.0</ele><time>2026-04-20T12:31:48Z</time></trkpt><trkpt lat="49.10607378367873" lon="6.262076097923164"><ele>221.0</ele><time>2026-04-20T12:31:49Z</time></trkpt><trkpt lat="49.10614480227694" lon="6.262267398056715"><ele>220.5</ele><time>2026-04-20T12:31:50Z</time></trkpt><trkpt lat="49.10621601544706" lon="6.2624570912246496"><ele>220.0</ele><time>2026-04-20T12:31:51Z</time></trkpt><trkpt lat="49.10628147813105" lon="6.262639229415521"><ele>219.5</ele><time>2026-04-20T12:31:52Z</time></trkpt><trkpt lat="49.106348145056344" lon="6.262819594872595"><ele>219.0</ele><time>2026-04-20T12:31:53Z</time></trkpt><trkpt lat="49.106419505238456" lon="6.263001900096369"><ele>219.0</ele><time>2026-04-20T12:31:54Z</time></trkpt><trkpt lat="49.1064880682686" lon="6.263189809260364"><ele>219.0</ele><time>2026-04-20T12:31:55Z</time></trkpt><trkpt lat="49.10656109439956" lon="6.263377803168265"><ele>219.0</ele><time>2026-04-20T12:31:56Z</time></trkpt><trkpt lat="49.10663534910618" lon="6.26356754050571"><ele>219.0</ele><time>2026-04-20T12:31:57Z</time></trkpt><trkpt lat="49.1067033585068" lon="6.263750558075964"><ele>219.0</ele><time>2026-04-20T12:31:58Z</time></trkpt><trkpt lat="49.10677527586076" lon="6.263941887589784"><ele>219.0</ele><time>2026-04-20T12:31:59Z</time></trkpt><trkpt lat="49.10684724566218" lon="6.264139052778178"><ele>219.0</ele><time>2026-04-20T12:32:00Z</time></trkpt><trkpt lat="49.10691700193563" lon="6.264332506550263"><ele>219.0</ele><time>2026-04-20T12:32:01Z</time></trkpt><trkpt lat="49.1069845312463" lon="6.264525992345929"><ele>218.0</ele><time>2026-04-20T12:32:02Z</time></trkpt><trkpt lat="49.107048207013456" lon="6.2647221656912935"><ele>217.0</ele><time>2026-04-20T12:32:03Z</time></trkpt><trkpt lat="49.10710661447008" lon="6.264922803258109"><ele>216.0</ele><time>2026-04-20T12:32:04Z</time></trkpt><trkpt lat="49.107161567875266" lon="6.26513258167448"><ele>215.0</ele><time>2026-04-20T12:32:05Z</time></trkpt><trkpt lat="49.10720604169386" lon="6.26534715928226"><ele>215.25</ele><time>2026-04-20T12:32:06Z</time></trkpt><trkpt lat="49.10724290977538" lon="6.265565944055889"><ele>215.5</ele><time>2026-04-20T12:32:07Z</time></trkpt><trkpt lat="49.10727250522614" lon="6.265787579687669"><ele>215.75</ele><time>2026-04-20T12:32:08Z</time></trkpt><trkpt lat="49.107297641409914" lon="6.266003095966614"><ele>216.0</ele><time>2026-04-20T12:32:09Z</time></trkpt><trkpt lat="49.1073168061005" lon="6.266214085353502"><ele>216.0</ele><time>2026-04-20T12:32:10Z</time></trkpt><trkpt lat="49.10733101331573" lon="6.266418117460203"><ele>216.0</ele><time>2026-04-20T12:32:11Z</time></trkpt><trkpt lat="49.10734763130139" lon="6.266623577080124"><ele>216.0</ele><time>2026-04-20T12:32:12Z</time></trkpt><trkpt lat="49.10735507959802" lon="6.266831447321717"><ele>216.0</ele><time>2026-04-20T12:32:13Z</time></trkpt><trkpt lat="49.10737054566032" lon="6.267038990314254"><ele>216.5</ele><time>2026-04-20T12:32:14Z</time></trkpt><trkpt lat="49.10738061595571" lon="6.267238010049941"><ele>217.0</ele><time>2026-04-20T12:32:15Z</time></trkpt><trkpt lat="49.1073848551003" lon="6.267462796316327"><ele>217.5</ele><time>2026-04-20T12:32:16Z</time></trkpt><trkpt lat="49.10740428435009" lon="6.26766516914869"><ele>218.0</ele><time>2026-04-20T12:32:17Z</time></trkpt><trkpt lat="49.10742649418521" lon="6.267858616646704"><ele>218.0</ele><time>2026-04-20T12:32:18Z</time></trkpt><trkpt lat="49.10744090648157" lon="6.268051726071738"><ele>218.0</ele><time>2026-04-20T12:32:19Z</time></trkpt><trkpt lat="49.10745625433937" lon="6.268245190825193"><ele>218.0</ele><time>2026-04-20T12:32:20Z</time></trkpt><trkpt lat="49.10746889431183" lon="6.268441279971434"><ele>218.0</ele><time>2026-04-20T12:32:21Z</time></trkpt><trkpt lat="49.10748030017516" lon="6.268640006062078"><ele>219.5</ele><time>2026-04-20T12:32:22Z</time></trkpt><trkpt lat="49.10749268871523" lon="6.268844033740939"><ele>221.0</ele><time>2026-04-20T12:32:23Z</time></trkpt><trkpt lat="49.10750893544454" lon="6.269049110244988"><ele>222.5</ele><time>2026-04-20T12:32:24Z</time></trkpt><trkpt lat="49.10752599109052" lon="6.269248504577871"><ele>224.0</ele><time>2026-04-20T12:32:25Z</time></trkpt><trkpt lat="49.1075390922145" lon="6.269448704601066"><ele>224.75</ele><time>2026-04-20T12:32:26Z</time></trkpt><trkpt lat="49.10755243524041" lon="6.269650180619357"><ele>225.5</ele><time>2026-04-20T12:32:27Z</time></trkpt><trkpt lat="49.107564574943915" lon="6.269847955035432"><ele>226.25</ele><time>2026-04-20T12:32:28Z</time></trkpt><trkpt lat="49.107571258542784" lon="6.270051152691216"><ele>227.0</ele><time>2026-04-20T12:32:29Z</time></trkpt><trkpt lat="49.107585926266" lon="6.270261373811738"><ele>227.0</ele><time>2026-04-20T12:32:30Z</time></trkpt><trkpt lat="49.10759717602201" lon="6.270474580777409"><ele>227.0</ele><time>2026-04-20T12:32:31Z</time></trkpt><trkpt lat="49.107611769854344" lon="6.270686137560363"><ele>227.0</ele><time>2026-04-20T12:32:32Z</time></trkpt><trkpt lat="49.107622579665126" lon="6.270905997580348"><ele>227.0</ele><time>2026-04-20T12:32:33Z</time></trkpt><trkpt lat="49.107629411953695" lon="6.271112100933559"><ele>227.25</ele><time>2026-04-20T12:32:34Z</time></trkpt><trkpt lat="49.10764117451834" lon="6.271312799463355"><ele>227.5</ele><time>2026-04-20T12:32:35Z</time></trkpt><trkpt lat="49.107653404465076" lon="6.271527187667995"><ele>227.75</ele><time>2026-04-20T12:32:36Z</time></trkpt><trkpt lat="49.10766784240113" lon="6.271739982804573"><ele>228.0</ele><time>2026-04-20T12:32:37Z</time></trkpt><trkpt lat="49.10768344639178" lon="6.271949896849979"><ele>228.75</ele><time>2026-04-20T12:32:38Z</time></trkpt><trkpt lat="49.10770185210749" lon="6.27215650659549"><ele>229.5</ele><time>2026-04-20T12:32:38.999Z</time></trkpt><trkpt lat="49.10772317288806" lon="6.272363822567343"><ele>230.25</ele><time>2026-04-20T12:32:39.999Z</time></trkpt><trkpt lat="49.10774677385318" lon="6.272575428173753"><ele>231.0</ele><time>2026-04-20T12:32:40.999Z</time></trkpt><trkpt lat="49.10777577262299" lon="6.27278946602018"><ele>231.5</ele><time>2026-04-20T12:32:41.999Z</time></trkpt><trkpt lat="49.10780535329127" lon="6.273003355696698"><ele>232.0</ele><time>2026-04-20T12:32:42.999Z</time></trkpt><trkpt lat="49.107835493699255" lon="6.273216066365675"><ele>232.5</ele><time>2026-04-20T12:32:43.999Z</time></trkpt><trkpt lat="49.107867093667465" lon="6.273428299124036"><ele>233.0</ele><time>2026-04-20T12:32:44.999Z</time></trkpt><trkpt lat="49.10790062143088" lon="6.273639833334959"><ele>233.75</ele><time>2026-04-20T12:32:45.999Z</time></trkpt><trkpt lat="49.107926876361056" lon="6.273839523125936"><ele>234.5</ele><time>2026-04-20T12:32:46.999Z</time></trkpt><trkpt lat="49.10795299660947" lon="6.274042081899856"><ele>235.25</ele><time>2026-04-20T12:32:47.999Z</time></trkpt><trkpt lat="49.10797153822778" lon="6.274244749462725"><ele>236.0</ele><time>2026-04-20T12:32:48.999Z</time></trkpt><trkpt lat="49.107988526202014" lon="6.2744563121842"><ele>236.0</ele><time>2026-04-20T12:32:49.999Z</time></trkpt><trkpt lat="49.108000952285224" lon="6.274674259568338"><ele>236.0</ele><time>2026-04-20T12:32:50.999Z</time></trkpt><trkpt lat="49.108007729574275" lon="6.274892891863935"><ele>236.0</ele><time>2026-04-20T12:32:51.999Z</time></trkpt><trkpt lat="49.108007648804794" lon="6.275113542991495"><ele>236.0</ele><time>2026-04-20T12:32:52.999Z</time></trkpt><trkpt lat="49.10800398034107" lon="6.275330056332572"><ele>236.5</ele><time>2026-04-20T12:32:53.999Z</time></trkpt><trkpt lat="49.10800123323645" lon="6.275554504486387"><ele>237.0</ele><time>2026-04-20T12:32:54.999Z</time></trkpt><trkpt lat="49.10799430079878" lon="6.275781021438915"><ele>237.5</ele><time>2026-04-20T12:32:55.999Z</time></trkpt><trkpt lat="49.107988115974685" lon="6.275996079923791"><ele>238.0</ele><time>2026-04-20T12:32:56.999Z</time></trkpt><trkpt lat="49.10797943822374" lon="6.276198815662205"><ele>238.25</ele><time>2026-04-20T12:32:57.999Z</time></trkpt><trkpt lat="49.107971286230985" lon="6.2764085677172865"><ele>238.5</ele><time>2026-04-20T12:32:58.999Z</time></trkpt><trkpt lat="49.10796366346547" lon="6.276624086383254"><ele>238.75</ele><time>2026-04-20T12:32:59.999Z</time></trkpt><trkpt lat="49.10795176649292" lon="6.276828552251961"><ele>239.0</ele><time>2026-04-20T12:33:00.999Z</time></trkpt><trkpt lat="49.10793717966074" lon="6.277034256376208"><ele>239.25</ele><time>2026-04-20T12:33:01.999Z</time></trkpt><trkpt lat="49.10791998725913" lon="6.277243062761413"><ele>239.5</ele><time>2026-04-20T12:33:02.999Z</time></trkpt><trkpt lat="49.10790048447941" lon="6.277452786826174"><ele>239.75</ele><time>2026-04-20T12:33:03.999Z</time></trkpt><trkpt lat="49.10787913757259" lon="6.277665586518425"><ele>240.0</ele><time>2026-04-20T12:33:04.999Z</time></trkpt><trkpt lat="49.107856693413964" lon="6.2778719647292025"><ele>240.25</ele><time>2026-04-20T12:33:05.999Z</time></trkpt><trkpt lat="49.10783470771717" lon="6.278076310309946"><ele>240.5</ele><time>2026-04-20T12:33:06.999Z</time></trkpt><trkpt lat="49.10780601658955" lon="6.278280005212288"><ele>240.75</ele><time>2026-04-20T12:33:07.999Z</time></trkpt><trkpt lat="49.10777326253675" lon="6.27848608638759"><ele>241.0</ele><time>2026-04-20T12:33:08.999Z</time></trkpt><trkpt lat="49.107743716373136" lon="6.278683099922799"><ele>241.0</ele><time>2026-04-20T12:33:09.999Z</time></trkpt><trkpt lat="49.1077121734254" lon="6.2788849279817125"><ele>241.0</ele><time>2026-04-20T12:33:10.999Z</time></trkpt><trkpt lat="49.10768130636125" lon="6.2790874979572"><ele>241.0</ele><time>2026-04-20T12:33:11.999Z</time></trkpt><trkpt lat="49.107647630124234" lon="6.279292595601328"><ele>241.0</ele><time>2026-04-20T12:33:12.999Z</time></trkpt><trkpt lat="49.10761362273135" lon="6.279505130707089"><ele>241.0</ele><time>2026-04-20T12:33:13.999Z</time></trkpt><trkpt lat="49.107581451004584" lon="6.2797105572094045"><ele>241.0</ele><time>2026-04-20T12:33:14.999Z</time></trkpt><trkpt lat="49.10754734823129" lon="6.279916926825356"><ele>241.0</ele><time>2026-04-20T12:33:15.999Z</time></trkpt><trkpt lat="49.10751531578261" lon="6.280126536521814"><ele>241.0</ele><time>2026-04-20T12:33:16.999Z</time></trkpt><trkpt lat="49.10748237496184" lon="6.280319042674246"><ele>241.5</ele><time>2026-04-20T12:33:17.999Z</time></trkpt><trkpt lat="49.107444771640424" lon="6.280519869545945"><ele>242.0</ele><time>2026-04-20T12:33:18.999Z</time></trkpt><trkpt lat="49.10740597769931" lon="6.280730003406714"><ele>242.5</ele><time>2026-04-20T12:33:19.999Z</time></trkpt><trkpt lat="49.10736664800458" lon="6.280937811981884"><ele>243.0</ele><time>2026-04-20T12:33:20.999Z</time></trkpt><trkpt lat="49.10732723082175" lon="6.2811341302286845"><ele>243.25</ele><time>2026-04-20T12:33:21.999Z</time></trkpt><trkpt lat="49.10729099251878" lon="6.281334274618012"><ele>243.5</ele><time>2026-04-20T12:33:22.999Z</time></trkpt><trkpt lat="49.1072541209964" lon="6.281527155027234"><ele>243.75</ele><time>2026-04-20T12:33:23.999Z</time></trkpt><trkpt lat="49.107218110610404" lon="6.281728446024101"><ele>244.0</ele><time>2026-04-20T12:33:24.999Z</time></trkpt><trkpt lat="49.10718287699826" lon="6.281928609802134"><ele>244.0</ele><time>2026-04-20T12:33:25.999Z</time></trkpt><trkpt lat="49.10714689741123" lon="6.282127768059286"><ele>244.0</ele><time>2026-04-20T12:33:26.999Z</time></trkpt><trkpt lat="49.10711197929019" lon="6.282319613646743"><ele>244.0</ele><time>2026-04-20T12:33:27.999Z</time></trkpt><trkpt lat="49.10707915025061" lon="6.28251960933748"><ele>244.0</ele><time>2026-04-20T12:33:28.999Z</time></trkpt><trkpt lat="49.10704252063279" lon="6.282726887471734"><ele>244.0</ele><time>2026-04-20T12:33:29.999Z</time></trkpt><trkpt lat="49.1070042424704" lon="6.282934389163173"><ele>244.0</ele><time>2026-04-20T12:33:30.999Z</time></trkpt><trkpt lat="49.10696464623322" lon="6.283139424977291"><ele>244.0</ele><time>2026-04-20T12:33:31.999Z</time></trkpt><trkpt lat="49.106921583513454" lon="6.283341644977012"><ele>244.0</ele><time>2026-04-20T12:33:32.999Z</time></trkpt><trkpt lat="49.10687754801128" lon="6.28354766939807"><ele>244.0</ele><time>2026-04-20T12:33:33.999Z</time></trkpt><trkpt lat="49.106833552725455" lon="6.283758428585306"><ele>244.0</ele><time>2026-04-20T12:33:34.999Z</time></trkpt><trkpt lat="49.106791448589455" lon="6.283965223992453"><ele>244.0</ele><time>2026-04-20T12:33:35.999Z</time></trkpt><trkpt lat="49.106748577160786" lon="6.284170835548479"><ele>244.0</ele><time>2026-04-20T12:33:36.999Z</time></trkpt><trkpt lat="49.106703613421445" lon="6.284378932575923"><ele>244.75</ele><time>2026-04-20T12:33:37.999Z</time></trkpt><trkpt lat="49.1066561903734" lon="6.284589877703206"><ele>245.5</ele><time>2026-04-20T12:33:38.999Z</time></trkpt><trkpt lat="49.10660687789584" lon="6.284788618118373"><ele>246.25</ele><time>2026-04-20T12:33:40Z</time></trkpt><trkpt lat="49.10655914025564" lon="6.284977553655957"><ele>247.0</ele><time>2026-04-20T12:33:41Z</time></trkpt><trkpt lat="49.106509372230875" lon="6.285173311422885"><ele>247.25</ele><time>2026-04-20T12:33:42Z</time></trkpt><trkpt lat="49.10645869751504" lon="6.28537531939852"><ele>247.5</ele><time>2026-04-20T12:33:43Z</time></trkpt><trkpt lat="49.10640553784664" lon="6.285582226302969"><ele>247.75</ele><time>2026-04-20T12:33:44Z</time></trkpt><trkpt lat="49.10635435508197" lon="6.285781869919376"><ele>248.0</ele><time>2026-04-20T12:33:45Z</time></trkpt><trkpt lat="49.10630289725179" lon="6.285982200226996"><ele>248.0</ele><time>2026-04-20T12:33:46Z</time></trkpt><trkpt lat="49.10624914617551" lon="6.286189702193052"><ele>248.0</ele><time>2026-04-20T12:33:47Z</time></trkpt><trkpt lat="49.106196254765734" lon="6.286399722942488"><ele>248.0</ele><time>2026-04-20T12:33:48Z</time></trkpt><trkpt lat="49.106144097630036" lon="6.286608185917688"><ele>248.0</ele><time>2026-04-20T12:33:49Z</time></trkpt><trkpt lat="49.106092422085176" lon="6.286811945266868"><ele>248.0</ele><time>2026-04-20T12:33:50Z</time></trkpt><trkpt lat="49.106039909844945" lon="6.287016263202161"><ele>248.0</ele><time>2026-04-20T12:33:51Z</time></trkpt><trkpt lat="49.105987655651056" lon="6.287225597617985"><ele>248.0</ele><time>2026-04-20T12:33:52Z</time></trkpt><trkpt lat="49.10593646135636" lon="6.287435543151467"><ele>248.0</ele><time>2026-04-20T12:33:53Z</time></trkpt><trkpt lat="49.10588550687869" lon="6.287643485366297"><ele>248.0</ele><time>2026-04-20T12:33:54Z</time></trkpt><trkpt lat="49.105834171118204" lon="6.28784492716786"><ele>248.0</ele><time>2026-04-20T12:33:55Z</time></trkpt><trkpt lat="49.10578229925427" lon="6.288045902049802"><ele>248.0</ele><time>2026-04-20T12:33:56Z</time></trkpt><trkpt lat="49.105729529277525" lon="6.288251984198279"><ele>248.0</ele><time>2026-04-20T12:33:57Z</time></trkpt><trkpt lat="49.105679222564646" lon="6.288460402861423"><ele>248.5</ele><time>2026-04-20T12:33:58Z</time></trkpt><trkpt lat="49.10562858479881" lon="6.288665744754214"><ele>249.0</ele><time>2026-04-20T12:33:59Z</time></trkpt><trkpt lat="49.105576726513576" lon="6.2888745664847505"><ele>249.5</ele><time>2026-04-20T12:34:00Z</time></trkpt><trkpt lat="49.10552608657775" lon="6.289083715307022"><ele>250.0</ele><time>2026-04-20T12:34:01Z</time></trkpt><trkpt lat="49.10547746223018" lon="6.289285699737073"><ele>250.0</ele><time>2026-04-20T12:34:02Z</time></trkpt><trkpt lat="49.10542652864016" lon="6.289490838751085"><ele>250.0</ele><time>2026-04-20T12:34:03Z</time></trkpt><trkpt lat="49.105377928951164" lon="6.289687355265908"><ele>250.0</ele><time>2026-04-20T12:34:04Z</time></trkpt><trkpt lat="49.105329400349184" lon="6.289886210716726"><ele>250.0</ele><time>2026-04-20T12:34:05Z</time></trkpt><trkpt lat="49.10527964675596" lon="6.2900945804129735"><ele>250.25</ele><time>2026-04-20T12:34:06Z</time></trkpt><trkpt lat="49.10522987966122" lon="6.2903013885190155"><ele>250.5</ele><time>2026-04-20T12:34:07Z</time></trkpt><trkpt lat="49.10518270167845" lon="6.290504933132227"><ele>250.75</ele><time>2026-04-20T12:34:08Z</time></trkpt><trkpt lat="49.105136306332504" lon="6.290721465124519"><ele>251.0</ele><time>2026-04-20T12:34:09Z</time></trkpt><trkpt lat="49.10508803270776" lon="6.290924396822517"><ele>251.0</ele><time>2026-04-20T12:34:10Z</time></trkpt><trkpt lat="49.10503503736374" lon="6.291121441577814"><ele>251.0</ele><time>2026-04-20T12:34:11Z</time></trkpt><trkpt lat="49.104981167806365" lon="6.291322777553879"><ele>251.0</ele><time>2026-04-20T12:34:12Z</time></trkpt><trkpt lat="49.10493267457799" lon="6.291523210627518"><ele>251.0</ele><time>2026-04-20T12:34:13Z</time></trkpt><trkpt lat="49.10488372959382" lon="6.291726641734881"><ele>251.0</ele><time>2026-04-20T12:34:14Z</time></trkpt><trkpt lat="49.10483439439116" lon="6.291929931866168"><ele>251.0</ele><time>2026-04-20T12:34:15Z</time></trkpt><trkpt lat="49.10478244965293" lon="6.292140144770732"><ele>251.0</ele><time>2026-04-20T12:34:16Z</time></trkpt><trkpt lat="49.10473505090469" lon="6.292332600802195"><ele>251.0</ele><time>2026-04-20T12:34:17Z</time></trkpt><trkpt lat="49.10468554178595" lon="6.292526055445554"><ele>251.0</ele><time>2026-04-20T12:34:18Z</time></trkpt><trkpt lat="49.10463227406199" lon="6.292733453301028"><ele>251.0</ele><time>2026-04-20T12:34:19Z</time></trkpt><trkpt lat="49.1045827114209" lon="6.2929491560044495"><ele>251.0</ele><time>2026-04-20T12:34:20Z</time></trkpt><trkpt lat="49.104530265958594" lon="6.2931659136634295"><ele>251.0</ele><time>2026-04-20T12:34:21Z</time></trkpt><trkpt lat="49.104477590030896" lon="6.293366045001598"><ele>251.75</ele><time>2026-04-20T12:34:22Z</time></trkpt><trkpt lat="49.10442605546189" lon="6.2935613587956025"><ele>252.5</ele><time>2026-04-20T12:34:23Z</time></trkpt><trkpt lat="49.10437525321339" lon="6.293769159506614"><ele>253.25</ele><time>2026-04-20T12:34:24Z</time></trkpt><trkpt lat="49.10432491398247" lon="6.293978717651435"><ele>254.0</ele><time>2026-04-20T12:34:25Z</time></trkpt><trkpt lat="49.10427503812098" lon="6.2941849573339"><ele>254.25</ele><time>2026-04-20T12:34:26Z</time></trkpt><trkpt lat="49.104224606528746" lon="6.294388672854904"><ele>254.5</ele><time>2026-04-20T12:34:27Z</time></trkpt><trkpt lat="49.10417796388445" lon="6.294592354092339"><ele>254.75</ele><time>2026-04-20T12:34:28Z</time></trkpt><trkpt lat="49.10412489520752" lon="6.294795951150956"><ele>255.0</ele><time>2026-04-20T12:34:29Z</time></trkpt><trkpt lat="49.10407159405418" lon="6.295007907254985"><ele>254.25</ele><time>2026-04-20T12:34:30Z</time></trkpt><trkpt lat="49.10401781303725" lon="6.295214198741852"><ele>253.5</ele><time>2026-04-20T12:34:31Z</time></trkpt><trkpt lat="49.10397039211762" lon="6.29541500612256"><ele>252.75</ele><time>2026-04-20T12:34:32Z</time></trkpt><trkpt lat="49.103924653963" lon="6.295619514795316"><ele>252.0</ele><time>2026-04-20T12:34:33Z</time></trkpt><trkpt lat="49.10387408034153" lon="6.295830395702994"><ele>252.0</ele><time>2026-04-20T12:34:34Z</time></trkpt><trkpt lat="49.103820903753366" lon="6.296043437110057"><ele>252.0</ele><time>2026-04-20T12:34:35Z</time></trkpt><trkpt lat="49.10376894492017" lon="6.2962550245102955"><ele>252.0</ele><time>2026-04-20T12:34:35.999Z</time></trkpt><trkpt lat="49.1037171716609" lon="6.296469047662244"><ele>252.0</ele><time>2026-04-20T12:34:36.999Z</time></trkpt><trkpt lat="49.103664978909194" lon="6.296683180441004"><ele>252.0</ele><time>2026-04-20T12:34:37.999Z</time></trkpt><trkpt lat="49.103614146722805" lon="6.296883723958546"><ele>252.0</ele><time>2026-04-20T12:34:38.999Z</time></trkpt><trkpt lat="49.103562775875986" lon="6.297094858779061"><ele>252.0</ele><time>2026-04-20T12:34:39.999Z</time></trkpt><trkpt lat="49.10350961909103" lon="6.2973179311691725"><ele>252.0</ele><time>2026-04-20T12:34:40.999Z</time></trkpt><trkpt lat="49.103456875374754" lon="6.29754069150018"><ele>251.75</ele><time>2026-04-20T12:34:41.999Z</time></trkpt><trkpt lat="49.103404760408836" lon="6.297756831737644"><ele>251.5</ele><time>2026-04-20T12:34:42.999Z</time></trkpt><trkpt lat="49.10335348300691" lon="6.297970347034994"><ele>251.25</ele><time>2026-04-20T12:34:43.999Z</time></trkpt><trkpt lat="49.1033046532778" lon="6.298186229998973"><ele>251.0</ele><time>2026-04-20T12:34:44.999Z</time></trkpt><trkpt lat="49.10325785651294" lon="6.29840815145032"><ele>250.75</ele><time>2026-04-20T12:34:45.999Z</time></trkpt><trkpt lat="49.10321452348247" lon="6.298632964927051"><ele>250.5</ele><time>2026-04-20T12:34:46.999Z</time></trkpt><trkpt lat="49.103172485574234" lon="6.298849827799634"><ele>250.25</ele><time>2026-04-20T12:34:47.999Z</time></trkpt><trkpt lat="49.10313023676563" lon="6.299065634525234"><ele>250.0</ele><time>2026-04-20T12:34:48.999Z</time></trkpt><trkpt lat="49.103091064669684" lon="6.299286698025598"><ele>250.0</ele><time>2026-04-20T12:34:49.999Z</time></trkpt><trkpt lat="49.10305097960716" lon="6.299510460152378"><ele>250.0</ele><time>2026-04-20T12:34:50.999Z</time></trkpt><trkpt lat="49.10301161971621" lon="6.299731301364045"><ele>250.0</ele><time>2026-04-20T12:34:51.999Z</time></trkpt><trkpt lat="49.10297356045798" lon="6.299953273649524"><ele>250.25</ele><time>2026-04-20T12:34:52.999Z</time></trkpt><trkpt lat="49.10293421681992" lon="6.300171767138941"><ele>250.5</ele><time>2026-04-20T12:34:53.999Z</time></trkpt><trkpt lat="49.10289605671948" lon="6.300391848180618"><ele>250.75</ele><time>2026-04-20T12:34:54.999Z</time></trkpt><trkpt lat="49.10285832959473" lon="6.300614313634019"><ele>251.0</ele><time>2026-04-20T12:34:55.999Z</time></trkpt><trkpt lat="49.10281924922403" lon="6.300837353378619"><ele>251.0</ele><time>2026-04-20T12:34:56.999Z</time></trkpt><trkpt lat="49.10278428761079" lon="6.301058096626362"><ele>251.0</ele><time>2026-04-20T12:34:57.999Z</time></trkpt><trkpt lat="49.102747888977035" lon="6.301279222811611"><ele>251.0</ele><time>2026-04-20T12:34:58.999Z</time></trkpt><trkpt lat="49.102712706245356" lon="6.301498036805787"><ele>251.0</ele><time>2026-04-20T12:34:59.999Z</time></trkpt><trkpt lat="49.10268075825807" lon="6.301716207800812"><ele>251.25</ele><time>2026-04-20T12:35:00.999Z</time></trkpt><trkpt lat="49.102648494089586" lon="6.301928331842343"><ele>251.5</ele><time>2026-04-20T12:35:01.999Z</time></trkpt><trkpt lat="49.10261523914074" lon="6.302143892463767"><ele>251.75</ele><time>2026-04-20T12:35:02.999Z</time></trkpt><trkpt lat="49.102583002646455" lon="6.302361545562913"><ele>252.0</ele><time>2026-04-20T12:35:03.999Z</time></trkpt><trkpt lat="49.10255380459679" lon="6.3025820193916395"><ele>252.0</ele><time>2026-04-20T12:35:04.999Z</time></trkpt><trkpt lat="49.10252171733886" lon="6.302804435516796"><ele>252.0</ele><time>2026-04-20T12:35:05.999Z</time></trkpt><trkpt lat="49.1024907282996" lon="6.303025204017401"><ele>252.0</ele><time>2026-04-20T12:35:06.999Z</time></trkpt><trkpt lat="49.10245902932542" lon="6.303248724071121"><ele>252.0</ele><time>2026-04-20T12:35:07.999Z</time></trkpt><trkpt lat="49.10242927212064" lon="6.3034661393935405"><ele>251.75</ele><time>2026-04-20T12:35:08.999Z</time></trkpt><trkpt lat="49.102399730049015" lon="6.303686693811077"><ele>251.5</ele><time>2026-04-20T12:35:09.999Z</time></trkpt><trkpt lat="49.102371130512985" lon="6.303902778983346"><ele>251.25</ele><time>2026-04-20T12:35:10.999Z</time></trkpt><trkpt lat="49.102340310738256" lon="6.304123838972954"><ele>251.0</ele><time>2026-04-20T12:35:11.999Z</time></trkpt><trkpt lat="49.102311322002166" lon="6.3043421323649955"><ele>251.0</ele><time>2026-04-20T12:35:12.999Z</time></trkpt><trkpt lat="49.10228259659217" lon="6.304559042460397"><ele>251.0</ele><time>2026-04-20T12:35:13.999Z</time></trkpt><trkpt lat="49.10225206990037" lon="6.304778550908836"><ele>251.0</ele><time>2026-04-20T12:35:14.999Z</time></trkpt><trkpt lat="49.10221922005582" lon="6.304999147426497"><ele>251.0</ele><time>2026-04-20T12:35:15.999Z</time></trkpt><trkpt lat="49.10219116094847" lon="6.305214613254696"><ele>251.0</ele><time>2026-04-20T12:35:16.999Z</time></trkpt><trkpt lat="49.1021599387704" lon="6.305428795153"><ele>251.0</ele><time>2026-04-20T12:35:17.999Z</time></trkpt><trkpt lat="49.102129163929064" lon="6.305648161707456"><ele>251.0</ele><time>2026-04-20T12:35:18.999Z</time></trkpt><trkpt lat="49.102096509932245" lon="6.305866830862076"><ele>251.0</ele><time>2026-04-20T12:35:19.999Z</time></trkpt><trkpt lat="49.10206460814803" lon="6.306085320945055"><ele>251.0</ele><time>2026-04-20T12:35:20.999Z</time></trkpt><trkpt lat="49.102032112103345" lon="6.3063054464373245"><ele>251.0</ele><time>2026-04-20T12:35:21.999Z</time></trkpt><trkpt lat="49.10200434512848" lon="6.306524101280636"><ele>251.0</ele><time>2026-04-20T12:35:22.999Z</time></trkpt><trkpt lat="49.10197517737005" lon="6.3067431678299375"><ele>251.0</ele><time>2026-04-20T12:35:23.999Z</time></trkpt><trkpt lat="49.10194385089165" lon="6.306965975023763"><ele>251.25</ele><time>2026-04-20T12:35:24.999Z</time></trkpt><trkpt lat="49.101911410410075" lon="6.307186955725269"><ele>251.5</ele><time>2026-04-20T12:35:25.999Z</time></trkpt><trkpt lat="49.10188288435444" lon="6.307394085480545"><ele>251.75</ele><time>2026-04-20T12:35:26.999Z</time></trkpt><trkpt lat="49.10185731405305" lon="6.307598625235495"><ele>252.0</ele><time>2026-04-20T12:35:27.999Z</time></trkpt><trkpt lat="49.10183394967188" lon="6.307807885535331"><ele>252.25</ele><time>2026-04-20T12:35:28.999Z</time></trkpt><trkpt lat="49.101813036267714" lon="6.308016084442473"><ele>252.5</ele><time>2026-04-20T12:35:29.999Z</time></trkpt><trkpt lat="49.101789972824655" lon="6.308231084830407"><ele>252.75</ele><time>2026-04-20T12:35:30.999Z</time></trkpt><trkpt lat="49.10176791134775" lon="6.308450266893764"><ele>253.0</ele><time>2026-04-20T12:35:31.999Z</time></trkpt><trkpt lat="49.10174971783271" lon="6.3086706268292385"><ele>253.25</ele><time>2026-04-20T12:35:32.999Z</time></trkpt><trkpt lat="49.101735264858355" lon="6.308881975177142"><ele>253.5</ele><time>2026-04-20T12:35:33.999Z</time></trkpt><trkpt lat="49.101721870299535" lon="6.309096191822019"><ele>253.75</ele><time>2026-04-20T12:35:34.999Z</time></trkpt><trkpt lat="49.101709226221175" lon="6.3093129129480205"><ele>254.0</ele><time>2026-04-20T12:35:35.999Z</time></trkpt><trkpt lat="49.10169862924582" lon="6.309535787330499"><ele>254.5</ele><time>2026-04-20T12:35:36.999Z</time></trkpt><trkpt lat="49.10168929437512" lon="6.3097520662551565"><ele>255.0</ele><time>2026-04-20T12:35:37.999Z</time></trkpt><trkpt lat="49.10168057040458" lon="6.309964000058151"><ele>255.5</ele><time>2026-04-20T12:35:38.999Z</time></trkpt><trkpt lat="49.101677644269635" lon="6.310174913967945"><ele>256.0</ele><time>2026-04-20T12:35:39.999Z</time></trkpt><trkpt lat="49.101677567747494" lon="6.310394053414567"><ele>256.0</ele><time>2026-04-20T12:35:40.999Z</time></trkpt><trkpt lat="49.10167909942317" lon="6.310613376451128"><ele>256.0</ele><time>2026-04-20T12:35:41.999Z</time></trkpt><trkpt lat="49.101689353426664" lon="6.310830845597205"><ele>256.0</ele><time>2026-04-20T12:35:42.999Z</time></trkpt><trkpt lat="49.10170226294049" lon="6.31103645740493"><ele>256.0</ele><time>2026-04-20T12:35:43.999Z</time></trkpt><trkpt lat="49.10171741950904" lon="6.3112411912506525"><ele>256.5</ele><time>2026-04-20T12:35:44.999Z</time></trkpt><trkpt lat="49.101726414367576" lon="6.311443300554366"><ele>257.0</ele><time>2026-04-20T12:35:46Z</time></trkpt><trkpt lat="49.10173887278077" lon="6.311661729821976"><ele>257.5</ele><time>2026-04-20T12:35:47Z</time></trkpt><trkpt lat="49.10174865511635" lon="6.311864267133586"><ele>258.0</ele><time>2026-04-20T12:35:48Z</time></trkpt><trkpt lat="49.10176137709646" lon="6.312072157251008"><ele>258.0</ele><time>2026-04-20T12:35:49Z</time></trkpt><trkpt lat="49.10177601771982" lon="6.312281820558178"><ele>258.0</ele><time>2026-04-20T12:35:50Z</time></trkpt><trkpt lat="49.10178963826602" lon="6.312493476237997"><ele>258.0</ele><time>2026-04-20T12:35:51Z</time></trkpt><trkpt lat="49.10180628010068" lon="6.312711438535795"><ele>258.0</ele><time>2026-04-20T12:35:52Z</time></trkpt><trkpt lat="49.101825588321915" lon="6.3129236026298745"><ele>258.0</ele><time>2026-04-20T12:35:53Z</time></trkpt><trkpt lat="49.10184531886696" lon="6.313142355122787"><ele>258.0</ele><time>2026-04-20T12:35:54Z</time></trkpt><trkpt lat="49.101860786902286" lon="6.313349459264498"><ele>258.0</ele><time>2026-04-20T12:35:55Z</time></trkpt><trkpt lat="49.10188650484502" lon="6.313556285791133"><ele>258.0</ele><time>2026-04-20T12:35:56Z</time></trkpt><trkpt lat="49.101907277575435" lon="6.313768320118081"><ele>258.0</ele><time>2026-04-20T12:35:57Z</time></trkpt><trkpt lat="49.101931479775146" lon="6.313982629493024"><ele>258.0</ele><time>2026-04-20T12:35:58Z</time></trkpt><trkpt lat="49.101949953561814" lon="6.314199438902135"><ele>258.0</ele><time>2026-04-20T12:35:59Z</time></trkpt><trkpt lat="49.10196245603528" lon="6.314417703356518"><ele>258.0</ele><time>2026-04-20T12:36:00Z</time></trkpt><trkpt lat="49.10196493807478" lon="6.314626997673745"><ele>258.25</ele><time>2026-04-20T12:36:01Z</time></trkpt><trkpt lat="49.1019729983555" lon="6.3148352450098635"><ele>258.5</ele><time>2026-04-20T12:36:02Z</time></trkpt><trkpt lat="49.10197595419991" lon="6.315049445205174"><ele>258.75</ele><time>2026-04-20T12:36:03Z</time></trkpt><trkpt lat="49.101979603590244" lon="6.3152667147351"><ele>259.0</ele><time>2026-04-20T12:36:04Z</time></trkpt><trkpt lat="49.101984323531006" lon="6.315485565049372"><ele>259.0</ele><time>2026-04-20T12:36:05Z</time></trkpt><trkpt lat="49.10199014084948" lon="6.315693621748218"><ele>259.0</ele><time>2026-04-20T12:36:06Z</time></trkpt><trkpt lat="49.10200106749038" lon="6.31590428771031"><ele>259.0</ele><time>2026-04-20T12:36:07Z</time></trkpt><trkpt lat="49.10201741523238" lon="6.316118545518143"><ele>259.0</ele><time>2026-04-20T12:36:08Z</time></trkpt><trkpt lat="49.102035348434995" lon="6.316334758553844"><ele>259.0</ele><time>2026-04-20T12:36:09Z</time></trkpt><trkpt lat="49.10205283844841" lon="6.316553974586178"><ele>259.0</ele><time>2026-04-20T12:36:10Z</time></trkpt><trkpt lat="49.10207829268581" lon="6.316768978144355"><ele>259.0</ele><time>2026-04-20T12:36:11Z</time></trkpt><trkpt lat="49.102103818638405" lon="6.316974494614299"><ele>259.0</ele><time>2026-04-20T12:36:12Z</time></trkpt><trkpt lat="49.10213132844708" lon="6.31718080313245"><ele>259.25</ele><time>2026-04-20T12:36:13Z</time></trkpt><trkpt lat="49.10215986844633" lon="6.317392960712533"><ele>259.5</ele><time>2026-04-20T12:36:14Z</time></trkpt><trkpt lat="49.102188912134885" lon="6.317605721706306"><ele>259.75</ele><time>2026-04-20T12:36:15Z</time></trkpt><trkpt lat="49.10221450499409" lon="6.317821981976779"><ele>260.0</ele><time>2026-04-20T12:36:16Z</time></trkpt><trkpt lat="49.102246405533506" lon="6.318030232389321"><ele>260.0</ele><time>2026-04-20T12:36:17Z</time></trkpt><trkpt lat="49.102267520103645" lon="6.318230053409706"><ele>260.0</ele><time>2026-04-20T12:36:18Z</time></trkpt><trkpt lat="49.10228964778494" lon="6.318445033486404"><ele>260.0</ele><time>2026-04-20T12:36:19Z</time></trkpt><trkpt lat="49.10230023003582" lon="6.31865962269787"><ele>260.0</ele><time>2026-04-20T12:36:20Z</time></trkpt><trkpt lat="49.102304135611995" lon="6.318869780727126"><ele>260.25</ele><time>2026-04-20T12:36:21Z</time></trkpt><trkpt lat="49.10229929897491" lon="6.319088562730944"><ele>260.5</ele><time>2026-04-20T12:36:22Z</time></trkpt><trkpt lat="49.10228804103336" lon="6.319297648513381"><ele>260.75</ele><time>2026-04-20T12:36:23Z</time></trkpt><trkpt lat="49.10227256775959" lon="6.319506234086051"><ele>261.0</ele><time>2026-04-20T12:36:24Z</time></trkpt><trkpt lat="49.10224956934882" lon="6.319717353915426"><ele>261.5</ele><time>2026-04-20T12:36:25Z</time></trkpt><trkpt lat="49.10222207731093" lon="6.319920578724636"><ele>262.0</ele><time>2026-04-20T12:36:26Z</time></trkpt><trkpt lat="49.10218763929019" lon="6.320125539134602"><ele>262.5</ele><time>2026-04-20T12:36:27Z</time></trkpt><trkpt lat="49.10214503610184" lon="6.320332537279275"><ele>263.0</ele><time>2026-04-20T12:36:28Z</time></trkpt><trkpt lat="49.10208970263229" lon="6.320524851919147"><ele>263.25</ele><time>2026-04-20T12:36:29Z</time></trkpt><trkpt lat="49.102021608300596" lon="6.320716583804556"><ele>263.5</ele><time>2026-04-20T12:36:30Z</time></trkpt><trkpt lat="49.1019506394255" lon="6.320899095536787"><ele>263.75</ele><time>2026-04-20T12:36:31Z</time></trkpt><trkpt lat="49.10187486858697" lon="6.321067232106734"><ele>264.0</ele><time>2026-04-20T12:36:32Z</time></trkpt><trkpt lat="49.10179329501698" lon="6.321238417612976"><ele>264.5</ele><time>2026-04-20T12:36:33Z</time></trkpt><trkpt lat="49.10170386365217" lon="6.3214014115691315"><ele>265.0</ele><time>2026-04-20T12:36:34Z</time></trkpt><trkpt lat="49.101606715342434" lon="6.3215526414474885"><ele>265.5</ele><time>2026-04-20T12:36:35Z</time></trkpt><trkpt lat="49.10150421723266" lon="6.321694349677961"><ele>266.0</ele><time>2026-04-20T12:36:36Z</time></trkpt><trkpt lat="49.10139284502442" lon="6.321835480777881"><ele>266.0</ele><time>2026-04-20T12:36:37Z</time></trkpt><trkpt lat="49.101279167089395" lon="6.321976643871802"><ele>266.0</ele><time>2026-04-20T12:36:38Z</time></trkpt><trkpt lat="49.101166355422116" lon="6.322106267911479"><ele>266.0</ele><time>2026-04-20T12:36:39Z</time></trkpt><trkpt lat="49.10105274318" lon="6.322234762178561"><ele>266.0</ele><time>2026-04-20T12:36:40Z</time></trkpt><trkpt lat="49.10093830941037" lon="6.322360790902479"><ele>266.0</ele><time>2026-04-20T12:36:41Z</time></trkpt><trkpt lat="49.10082253891582" lon="6.322488119183878"><ele>266.0</ele><time>2026-04-20T12:36:42Z</time></trkpt><trkpt lat="49.10071255821246" lon="6.322614488797167"><ele>266.0</ele><time>2026-04-20T12:36:43Z</time></trkpt><trkpt lat="49.100604119252466" lon="6.322733383675617"><ele>266.0</ele><time>2026-04-20T12:36:43.999Z</time></trkpt><trkpt lat="49.10048918025529" lon="6.322853428769898"><ele>265.75</ele><time>2026-04-20T12:36:44.999Z</time></trkpt><trkpt lat="49.10037101238486" lon="6.32297818304404"><ele>265.5</ele><time>2026-04-20T12:36:45.999Z</time></trkpt><trkpt lat="49.10025016384741" lon="6.3231006347865115"><ele>265.25</ele><time>2026-04-20T12:36:46.999Z</time></trkpt><trkpt lat="49.100128880332534" lon="6.32321797148457"><ele>265.0</ele><time>2026-04-20T12:36:47.999Z</time></trkpt><trkpt lat="49.10001254155209" lon="6.323332318286492"><ele>265.0</ele><time>2026-04-20T12:36:48.999Z</time></trkpt><trkpt lat="49.09989637505667" lon="6.323454932700339"><ele>265.0</ele><time>2026-04-20T12:36:49.999Z</time></trkpt><trkpt lat="49.099779892681056" lon="6.323581093372383"><ele>265.0</ele><time>2026-04-20T12:36:50.999Z</time></trkpt><trkpt lat="49.099663280394054" lon="6.323713540227763"><ele>265.0</ele><time>2026-04-20T12:36:51.999Z</time></trkpt><trkpt lat="49.09954925737274" lon="6.323852633765201"><ele>265.25</ele><time>2026-04-20T12:36:52.999Z</time></trkpt><trkpt lat="49.09943187532579" lon="6.323978666823517"><ele>265.5</ele><time>2026-04-20T12:36:53.999Z</time></trkpt><trkpt lat="49.09931392225512" lon="6.324090473541495"><ele>265.75</ele><time>2026-04-20T12:36:54.999Z</time></trkpt><trkpt lat="49.09918883163818" lon="6.3241759811163485"><ele>266.0</ele><time>2026-04-20T12:36:55.999Z</time></trkpt><trkpt lat="49.0990591375444" lon="6.324252361776759"><ele>266.25</ele><time>2026-04-20T12:36:56.999Z</time></trkpt><trkpt lat="49.09892548524917" lon="6.324334669823165"><ele>266.5</ele><time>2026-04-20T12:36:57.999Z</time></trkpt><trkpt lat="49.098798142410324" lon="6.32442603465233"><ele>266.75</ele><time>2026-04-20T12:36:58.999Z</time></trkpt><trkpt lat="49.098675350400235" lon="6.3245296140452405"><ele>267.0</ele><time>2026-04-20T12:36:59.999Z</time></trkpt><trkpt lat="49.098558316276446" lon="6.324629483029746"><ele>267.5</ele><time>2026-04-20T12:37:00.999Z</time></trkpt><trkpt lat="49.09844273563911" lon="6.324730133697369"><ele>268.0</ele><time>2026-04-20T12:37:01.999Z</time></trkpt><trkpt lat="49.09832657698104" lon="6.324826289044572"><ele>268.5</ele><time>2026-04-20T12:37:02.999Z</time></trkpt><trkpt lat="49.098207440467405" lon="6.324938768401418"><ele>269.0</ele><time>2026-04-20T12:37:03.999Z</time></trkpt><trkpt lat="49.09809582378013" lon="6.32506904890934"><ele>269.0</ele><time>2026-04-20T12:37:04.999Z</time></trkpt><trkpt lat="49.09799150062814" lon="6.325215348799616"><ele>269.0</ele><time>2026-04-20T12:37:05.999Z</time></trkpt><trkpt lat="49.097890744388785" lon="6.32536550631349"><ele>269.0</ele><time>2026-04-20T12:37:06.999Z</time></trkpt><trkpt lat="49.09780181078799" lon="6.325510411948306"><ele>269.0</ele><time>2026-04-20T12:37:07.999Z</time></trkpt><trkpt lat="49.097714747464316" lon="6.32564684151554"><ele>269.0</ele><time>2026-04-20T12:37:08.999Z</time></trkpt><trkpt lat="49.097632633982194" lon="6.325781249912424"><ele>269.0</ele><time>2026-04-20T12:37:09.999Z</time></trkpt><trkpt lat="49.0975507401245" lon="6.325914078116701"><ele>269.0</ele><time>2026-04-20T12:37:10.999Z</time></trkpt><trkpt lat="49.097479000530136" lon="6.326068445360822"><ele>269.0</ele><time>2026-04-20T12:37:11.999Z</time></trkpt><trkpt lat="49.0974333646048" lon="6.326246690135867"><ele>267.75</ele><time>2026-04-20T12:37:12.999Z</time></trkpt><trkpt lat="49.09741575922181" lon="6.326437157716333"><ele>266.5</ele><time>2026-04-20T12:37:13.999Z</time></trkpt><trkpt lat="49.0974092801708" lon="6.32664135925918"><ele>265.25</ele><time>2026-04-20T12:37:14.999Z</time></trkpt><trkpt lat="49.097409066722705" lon="6.3268479699599744"><ele>264.0</ele><time>2026-04-20T12:37:15.999Z</time></trkpt><trkpt lat="49.09741474210994" lon="6.327051181686306"><ele>264.25</ele><time>2026-04-20T12:37:16.999Z</time></trkpt><trkpt lat="49.09742381136123" lon="6.327260878342719"><ele>264.5</ele><time>2026-04-20T12:37:17.999Z</time></trkpt><trkpt lat="49.09743966867965" lon="6.327464536596321"><ele>264.75</ele><time>2026-04-20T12:37:18.999Z</time></trkpt><trkpt lat="49.097452592366636" lon="6.327663638719931"><ele>265.0</ele><time>2026-04-20T12:37:19.999Z</time></trkpt><trkpt lat="49.097460361945956" lon="6.327869797645105"><ele>264.0</ele><time>2026-04-20T12:37:20.999Z</time></trkpt><trkpt lat="49.09746858381312" lon="6.328075951773645"><ele>263.0</ele><time>2026-04-20T12:37:21.999Z</time></trkpt><trkpt lat="49.09747674242849" lon="6.32828051942983"><ele>262.0</ele><time>2026-04-20T12:37:22.999Z</time></trkpt><trkpt lat="49.09748887786668" lon="6.328469796159975"><ele>261.0</ele><time>2026-04-20T12:37:23.999Z</time></trkpt><trkpt lat="49.09749746783874" lon="6.328651922514931"><ele>261.0</ele><time>2026-04-20T12:37:24.999Z</time></trkpt><trkpt lat="49.097514543807385" lon="6.3288516068891285"><ele>261.0</ele><time>2026-04-20T12:37:25.999Z</time></trkpt><trkpt lat="49.09753758929456" lon="6.3290557814096084"><ele>261.0</ele><time>2026-04-20T12:37:26.999Z</time></trkpt><trkpt lat="49.09755945087819" lon="6.329241632657676"><ele>261.0</ele><time>2026-04-20T12:37:27.999Z</time></trkpt><trkpt lat="49.09758084020514" lon="6.329444334657166"><ele>260.75</ele><time>2026-04-20T12:37:28.999Z</time></trkpt><trkpt lat="49.097602781020406" lon="6.329657888577884"><ele>260.5</ele><time>2026-04-20T12:37:29.999Z</time></trkpt><trkpt lat="49.09762232940817" lon="6.329868329629441"><ele>260.25</ele><time>2026-04-20T12:37:30.999Z</time></trkpt><trkpt lat="49.09762875803761" lon="6.330073701177667"><ele>260.0</ele><time>2026-04-20T12:37:31.999Z</time></trkpt><trkpt lat="49.0976119559345" lon="6.330271468555967"><ele>260.25</ele><time>2026-04-20T12:37:32.999Z</time></trkpt><trkpt lat="49.09758490264895" lon="6.330471996291082"><ele>260.5</ele><time>2026-04-20T12:37:33.999Z</time></trkpt><trkpt lat="49.09755538198884" lon="6.330676446321114"><ele>260.75</ele><time>2026-04-20T12:37:34.999Z</time></trkpt><trkpt lat="49.09751667726899" lon="6.3308841090821275"><ele>261.0</ele><time>2026-04-20T12:37:35.999Z</time></trkpt><trkpt lat="49.09747235495588" lon="6.3310937838592105"><ele>261.0</ele><time>2026-04-20T12:37:36.999Z</time></trkpt><trkpt lat="49.097430024116676" lon="6.331307915109742"><ele>261.0</ele><time>2026-04-20T12:37:37.999Z</time></trkpt><trkpt lat="49.09737720392729" lon="6.331520003965489"><ele>261.0</ele><time>2026-04-20T12:37:38.999Z</time></trkpt><trkpt lat="49.09731800178142" lon="6.331713074500125"><ele>261.0</ele><time>2026-04-20T12:37:39.999Z</time></trkpt><trkpt lat="49.09725000756627" lon="6.331902490142016"><ele>261.0</ele><time>2026-04-20T12:37:40.999Z</time></trkpt><trkpt lat="49.09716495171367" lon="6.33209161316545"><ele>261.0</ele><time>2026-04-20T12:37:41.999Z</time></trkpt><trkpt lat="49.09706405493679" lon="6.332270926381339"><ele>261.0</ele><time>2026-04-20T12:37:42.999Z</time></trkpt><trkpt lat="49.096966524042536" lon="6.332449570317136"><ele>261.0</ele><time>2026-04-20T12:37:43.999Z</time></trkpt><trkpt lat="49.0968720363826" lon="6.332618260227779"><ele>261.0</ele><time>2026-04-20T12:37:44.999Z</time></trkpt><trkpt lat="49.096779110736094" lon="6.332784158863256"><ele>261.0</ele><time>2026-04-20T12:37:45.999Z</time></trkpt><trkpt lat="49.09668268983309" lon="6.3329554864017545"><ele>261.0</ele><time>2026-04-20T12:37:46.999Z</time></trkpt><trkpt lat="49.09658419066272" lon="6.3331278953244245"><ele>261.5</ele><time>2026-04-20T12:37:47.999Z</time></trkpt><trkpt lat="49.09648703772532" lon="6.333306740589267"><ele>262.0</ele><time>2026-04-20T12:37:48.999Z</time></trkpt><trkpt lat="49.09639211912472" lon="6.333476181705358"><ele>262.5</ele><time>2026-04-20T12:37:49.999Z</time></trkpt><trkpt lat="49.09630148342814" lon="6.3336448600589765"><ele>263.0</ele><time>2026-04-20T12:37:50.999Z</time></trkpt><trkpt lat="49.09621079117987" lon="6.333823372827939"><ele>263.75</ele><time>2026-04-20T12:37:52Z</time></trkpt><trkpt lat="49.09612472534834" lon="6.334001418843961"><ele>264.5</ele><time>2026-04-20T12:37:53Z</time></trkpt><trkpt lat="49.09603986373334" lon="6.334170326348125"><ele>265.25</ele><time>2026-04-20T12:37:54Z</time></trkpt><trkpt lat="49.09595608070705" lon="6.334339379008572"><ele>266.0</ele><time>2026-04-20T12:37:55Z</time></trkpt><trkpt lat="49.09587039067243" lon="6.334509312737067"><ele>266.0</ele><time>2026-04-20T12:37:56Z</time></trkpt><trkpt lat="49.09578730171897" lon="6.334685320871757"><ele>266.0</ele><time>2026-04-20T12:37:57Z</time></trkpt><trkpt lat="49.09570448918065" lon="6.334857184733943"><ele>266.0</ele><time>2026-04-20T12:37:58Z</time></trkpt><trkpt lat="49.09562331984152" lon="6.335031254577165"><ele>266.0</ele><time>2026-04-20T12:37:59Z</time></trkpt><trkpt lat="49.095538654438826" lon="6.335208077045586"><ele>265.25</ele><time>2026-04-20T12:38:00Z</time></trkpt><trkpt lat="49.095457593471984" lon="6.335386118212224"><ele>264.5</ele><time>2026-04-20T12:38:01Z</time></trkpt><trkpt lat="49.09537897782556" lon="6.335564433217567"><ele>263.75</ele><time>2026-04-20T12:38:02Z</time></trkpt><trkpt lat="49.09530270673719" lon="6.335749318993068"><ele>263.0</ele><time>2026-04-20T12:38:03Z</time></trkpt><trkpt lat="49.0952296226116" lon="6.335931327735688"><ele>263.0</ele><time>2026-04-20T12:38:04Z</time></trkpt><trkpt lat="49.09516017276567" lon="6.336119747392923"><ele>263.0</ele><time>2026-04-20T12:38:05Z</time></trkpt><trkpt lat="49.095089188057855" lon="6.336309747433503"><ele>263.0</ele><time>2026-04-20T12:38:06Z</time></trkpt><trkpt lat="49.09501902518925" lon="6.336503830255059"><ele>263.0</ele><time>2026-04-20T12:38:07Z</time></trkpt><trkpt lat="49.09495489218578" lon="6.336694864126356"><ele>261.25</ele><time>2026-04-20T12:38:08Z</time></trkpt><trkpt lat="49.09489345050263" lon="6.336889437579052"><ele>259.5</ele><time>2026-04-20T12:38:09Z</time></trkpt><trkpt lat="49.09483179876705" lon="6.337085155763012"><ele>257.75</ele><time>2026-04-20T12:38:10Z</time></trkpt><trkpt lat="49.094771024687454" lon="6.337274161700083"><ele>256.0</ele><time>2026-04-20T12:38:11Z</time></trkpt><trkpt lat="49.094713657335504" lon="6.337460209412628"><ele>256.0</ele><time>2026-04-20T12:38:12Z</time></trkpt><trkpt lat="49.09465459316949" lon="6.337648240821715"><ele>256.0</ele><time>2026-04-20T12:38:13Z</time></trkpt><trkpt lat="49.09459205128579" lon="6.33783410422292"><ele>256.0</ele><time>2026-04-20T12:38:14Z</time></trkpt><trkpt lat="49.094526459007604" lon="6.338021135737699"><ele>256.0</ele><time>2026-04-20T12:38:15Z</time></trkpt><trkpt lat="49.094457684882386" lon="6.338201857102371"><ele>256.5</ele><time>2026-04-20T12:38:16Z</time></trkpt><trkpt lat="49.09438744077056" lon="6.338383299474068"><ele>257.0</ele><time>2026-04-20T12:38:17Z</time></trkpt><trkpt lat="49.09432013667996" lon="6.338555620076993"><ele>257.5</ele><time>2026-04-20T12:38:18Z</time></trkpt><trkpt lat="49.09425306546919" lon="6.338733719403289"><ele>258.0</ele><time>2026-04-20T12:38:19Z</time></trkpt><trkpt lat="49.09418592725364" lon="6.33890828997354"><ele>258.0</ele><time>2026-04-20T12:38:20Z</time></trkpt><trkpt lat="49.09412230569258" lon="6.33907825496986"><ele>258.0</ele><time>2026-04-20T12:38:21Z</time></trkpt><trkpt lat="49.094057743480114" lon="6.339249775605395"><ele>258.0</ele><time>2026-04-20T12:38:22Z</time></trkpt><trkpt lat="49.09399430175584" lon="6.3394234467683885"><ele>258.0</ele><time>2026-04-20T12:38:23Z</time></trkpt><trkpt lat="49.093929558120664" lon="6.339589718106178"><ele>256.0</ele><time>2026-04-20T12:38:24Z</time></trkpt><trkpt lat="49.09386631800376" lon="6.339761616700407"><ele>254.0</ele><time>2026-04-20T12:38:25Z</time></trkpt><trkpt lat="49.093806812013156" lon="6.339930055738463"><ele>252.0</ele><time>2026-04-20T12:38:26Z</time></trkpt><trkpt lat="49.093740409192286" lon="6.340106692934611"><ele>250.0</ele><time>2026-04-20T12:38:27Z</time></trkpt><trkpt lat="49.09367280967004" lon="6.340287309466905"><ele>250.0</ele><time>2026-04-20T12:38:28Z</time></trkpt><trkpt lat="49.0936014786437" lon="6.340469277302727"><ele>250.0</ele><time>2026-04-20T12:38:29Z</time></trkpt><trkpt lat="49.09353314432724" lon="6.340652958893227"><ele>250.0</ele><time>2026-04-20T12:38:30Z</time></trkpt><trkpt lat="49.09346226484633" lon="6.340830343325688"><ele>250.0</ele><time>2026-04-20T12:38:31Z</time></trkpt><trkpt lat="49.09339296297548" lon="6.341012691001527"><ele>249.25</ele><time>2026-04-20T12:38:32Z</time></trkpt><trkpt lat="49.093322997145954" lon="6.341194787181227"><ele>248.5</ele><time>2026-04-20T12:38:33Z</time></trkpt><trkpt lat="49.093254662545306" lon="6.341370354985594"><ele>247.75</ele><time>2026-04-20T12:38:34Z</time></trkpt><trkpt lat="49.09318587218587" lon="6.341553019121366"><ele>247.0</ele><time>2026-04-20T12:38:35Z</time></trkpt><trkpt lat="49.09311119710375" lon="6.34173110558266"><ele>245.25</ele><time>2026-04-20T12:38:36Z</time></trkpt><trkpt lat="49.093035464843986" lon="6.341907830016379"><ele>243.5</ele><time>2026-04-20T12:38:37Z</time></trkpt><trkpt lat="49.09296123321097" lon="6.342079737284758"><ele>241.75</ele><time>2026-04-20T12:38:38Z</time></trkpt><trkpt lat="49.09288332505193" lon="6.3422455048899256"><ele>240.0</ele><time>2026-04-20T12:38:39Z</time></trkpt><trkpt lat="49.09280187724683" lon="6.342412372080804"><ele>239.75</ele><time>2026-04-20T12:38:40Z</time></trkpt><trkpt lat="49.09271884261003" lon="6.3425809401532645"><ele>239.5</ele><time>2026-04-20T12:38:41Z</time></trkpt><trkpt lat="49.09263374321804" lon="6.3427459059699"><ele>239.25</ele><time>2026-04-20T12:38:42Z</time></trkpt><trkpt lat="49.09254426249459" lon="6.342908833215172"><ele>239.0</ele><time>2026-04-20T12:38:43Z</time></trkpt><trkpt lat="49.09245497213678" lon="6.3430718298204445"><ele>238.5</ele><time>2026-04-20T12:38:44Z</time></trkpt><trkpt lat="49.092361314970674" lon="6.343241070295693"><ele>238.0</ele><time>2026-04-20T12:38:45Z</time></trkpt><trkpt lat="49.092261785599824" lon="6.343406837333351"><ele>237.5</ele><time>2026-04-20T12:38:45.999Z</time></trkpt><trkpt lat="49.09215634220618" lon="6.3435739031150264"><ele>237.0</ele><time>2026-04-20T12:38:46.999Z</time></trkpt><trkpt lat="49.09205199992315" lon="6.343734959521876"><ele>236.66666666666669</ele><time>2026-04-20T12:38:47.999Z</time></trkpt><trkpt lat="49.091945560977976" lon="6.343893682918845"><ele>236.33333333333334</ele><time>2026-04-20T12:38:48.999Z</time></trkpt><trkpt lat="49.09183488455592" lon="6.344051806157893"><ele>236.0</ele><time>2026-04-20T12:38:49.999Z</time></trkpt><trkpt lat="49.09172130331744" lon="6.344206345934784"><ele>236.0</ele><time>2026-04-20T12:38:50.999Z</time></trkpt><trkpt lat="49.0916081910338" lon="6.344356869393978"><ele>236.0</ele><time>2026-04-20T12:38:51.999Z</time></trkpt><trkpt lat="49.09149585757486" lon="6.344508597527958"><ele>236.0</ele><time>2026-04-20T12:38:52.999Z</time></trkpt><trkpt lat="49.0913864252099" lon="6.344649629572723"><ele>236.0</ele><time>2026-04-20T12:38:53.999Z</time></trkpt><trkpt lat="49.091278144764374" lon="6.344789561017093"><ele>235.75</ele><time>2026-04-20T12:38:54.999Z</time></trkpt><trkpt lat="49.0911732865264" lon="6.344927530169367"><ele>235.5</ele><time>2026-04-20T12:38:55.999Z</time></trkpt><trkpt lat="49.09106888490885" lon="6.345063756195855"><ele>235.25</ele><time>2026-04-20T12:38:56.999Z</time></trkpt><trkpt lat="49.09095875252428" lon="6.345206226950925"><ele>235.0</ele><time>2026-04-20T12:38:57.999Z</time></trkpt><trkpt lat="49.090846996260225" lon="6.3453508825824985"><ele>235.0</ele><time>2026-04-20T12:38:58.999Z</time></trkpt><trkpt lat="49.09073561184487" lon="6.345493627390358"><ele>235.0</ele><time>2026-04-20T12:38:59.999Z</time></trkpt><trkpt lat="49.09061885673042" lon="6.345638328048382"><ele>235.0</ele><time>2026-04-20T12:39:00.999Z</time></trkpt><trkpt lat="49.09050497031108" lon="6.3457806552389595"><ele>235.0</ele><time>2026-04-20T12:39:01.999Z</time></trkpt><trkpt lat="49.090388141308416" lon="6.345928562257047"><ele>235.25</ele><time>2026-04-20T12:39:02.999Z</time></trkpt><trkpt lat="49.090274073948464" lon="6.346071927720361"><ele>235.5</ele><time>2026-04-20T12:39:03.999Z</time></trkpt><trkpt lat="49.09016090878336" lon="6.346212069912075"><ele>235.75</ele><time>2026-04-20T12:39:04.999Z</time></trkpt><trkpt lat="49.09004491275513" lon="6.346351341849576"><ele>236.0</ele><time>2026-04-20T12:39:05.999Z</time></trkpt><trkpt lat="49.089926796213554" lon="6.346492566338814"><ele>233.5</ele><time>2026-04-20T12:39:06.999Z</time></trkpt><trkpt lat="49.089810498413016" lon="6.346629444127275"><ele>231.0</ele><time>2026-04-20T12:39:07.999Z</time></trkpt><trkpt lat="49.08969312089499" lon="6.346766227143966"><ele>228.5</ele><time>2026-04-20T12:39:08.999Z</time></trkpt><trkpt lat="49.08958135615593" lon="6.346904629659964"><ele>226.0</ele><time>2026-04-20T12:39:09.999Z</time></trkpt><trkpt lat="49.08946802202938" lon="6.347041920936131"><ele>226.0</ele><time>2026-04-20T12:39:10.999Z</time></trkpt><trkpt lat="49.08935172278118" lon="6.347183864963773"><ele>226.0</ele><time>2026-04-20T12:39:11.999Z</time></trkpt><trkpt lat="49.0892336694101" lon="6.347328220747584"><ele>226.0</ele><time>2026-04-20T12:39:12.999Z</time></trkpt><trkpt lat="49.08911569832377" lon="6.347477278509268"><ele>224.33333333333331</ele><time>2026-04-20T12:39:13.999Z</time></trkpt><trkpt lat="49.088997880828764" lon="6.347625079949044"><ele>222.66666666666669</ele><time>2026-04-20T12:39:14.999Z</time></trkpt><trkpt lat="49.08887852219726" lon="6.347765795361938"><ele>221.0</ele><time>2026-04-20T12:39:15.999Z</time></trkpt><trkpt lat="49.08875875820638" lon="6.347906708536334"><ele>222.33333333333334</ele><time>2026-04-20T12:39:16.999Z</time></trkpt><trkpt lat="49.08864137658971" lon="6.348050328544731"><ele>223.66666666666669</ele><time>2026-04-20T12:39:17.999Z</time></trkpt><trkpt lat="49.08852451685685" lon="6.348197663303959"><ele>225.0</ele><time>2026-04-20T12:39:18.999Z</time></trkpt><trkpt lat="49.08841005432639" lon="6.348350410698754"><ele>225.0</ele><time>2026-04-20T12:39:19.999Z</time></trkpt><trkpt lat="49.08830260153287" lon="6.348508593623113"><ele>225.0</ele><time>2026-04-20T12:39:20.999Z</time></trkpt><trkpt lat="49.08819485484696" lon="6.348668389667463"><ele>225.0</ele><time>2026-04-20T12:39:21.999Z</time></trkpt><trkpt lat="49.08809345075755" lon="6.348820309373509"><ele>225.0</ele><time>2026-04-20T12:39:22.999Z</time></trkpt><trkpt lat="49.08797737730987" lon="6.348968930619414"><ele>226.0</ele><time>2026-04-20T12:39:23.999Z</time></trkpt><trkpt lat="49.08787080956107" lon="6.349126569401397"><ele>227.0</ele><time>2026-04-20T12:39:24.999Z</time></trkpt><trkpt lat="49.08776512945487" lon="6.3492791501511086"><ele>228.0</ele><time>2026-04-20T12:39:25.999Z</time></trkpt><trkpt lat="49.08766237060037" lon="6.349424962548506"><ele>229.0</ele><time>2026-04-20T12:39:26.999Z</time></trkpt><trkpt lat="49.087560419798024" lon="6.349570780174913"><ele>229.5</ele><time>2026-04-20T12:39:27.999Z</time></trkpt><trkpt lat="49.08746170600055" lon="6.3497187627664"><ele>230.0</ele><time>2026-04-20T12:39:28.999Z</time></trkpt><trkpt lat="49.08736404969459" lon="6.349863488395409"><ele>230.5</ele><time>2026-04-20T12:39:29.999Z</time></trkpt><trkpt lat="49.08726652497492" lon="6.350011515112991"><ele>231.0</ele><time>2026-04-20T12:39:30.999Z</time></trkpt><trkpt lat="49.08718078836403" lon="6.350162421082348"><ele>231.0</ele><time>2026-04-20T12:39:31.999Z</time></trkpt><trkpt lat="49.08709076574119" lon="6.350323891740253"><ele>231.0</ele><time>2026-04-20T12:39:32.999Z</time></trkpt><trkpt lat="49.087000451159696" lon="6.350480062902598"><ele>231.0</ele><time>2026-04-20T12:39:33.999Z</time></trkpt><trkpt lat="49.086915032256684" lon="6.350626282223036"><ele>231.0</ele><time>2026-04-20T12:39:34.999Z</time></trkpt><trkpt lat="49.08682668522023" lon="6.3507868004538155"><ele>231.0</ele><time>2026-04-20T12:39:35.999Z</time></trkpt><trkpt lat="49.08674117713136" lon="6.350949312237975"><ele>231.0</ele><time>2026-04-20T12:39:36.999Z</time></trkpt><trkpt lat="49.08665974786582" lon="6.351102224751066"><ele>231.0</ele><time>2026-04-20T12:39:37.999Z</time></trkpt><trkpt lat="49.0865758284995" lon="6.351267039513038"><ele>231.0</ele><time>2026-04-20T12:39:38.999Z</time></trkpt><trkpt lat="49.086498155448005" lon="6.3514290638849715"><ele>229.25</ele><time>2026-04-20T12:39:39.999Z</time></trkpt><trkpt lat="49.08642403803427" lon="6.351600479318767"><ele>227.5</ele><time>2026-04-20T12:39:40.999Z</time></trkpt><trkpt lat="49.08635008417558" lon="6.351768302543456"><ele>225.75</ele><time>2026-04-20T12:39:41.999Z</time></trkpt><trkpt lat="49.08627307937089" lon="6.351945628055387"><ele>224.0</ele><time>2026-04-20T12:39:42.999Z</time></trkpt><trkpt lat="49.086204657962185" lon="6.352124380384192"><ele>224.0</ele><time>2026-04-20T12:39:43.999Z</time></trkpt><trkpt lat="49.08613550278598" lon="6.352300019383483"><ele>224.0</ele><time>2026-04-20T12:39:44.999Z</time></trkpt><trkpt lat="49.08606482305054" lon="6.352469471696614"><ele>224.0</ele><time>2026-04-20T12:39:45.999Z</time></trkpt><trkpt lat="49.08600246146933" lon="6.352636135169504"><ele>224.0</ele><time>2026-04-20T12:39:46.999Z</time></trkpt><trkpt lat="49.085951038400836" lon="6.352784107221394"><ele>224.00000000000003</ele><time>2026-04-20T12:39:47.999Z</time></trkpt><trkpt lat="49.08590685697517" lon="6.352909141848365"><ele>224.0</ele><time>2026-04-20T12:39:48.999Z</time></trkpt><trkpt lat="49.0858655101701" lon="6.353014521029992"><ele>224.0</ele><time>2026-04-20T12:39:49.999Z</time></trkpt><trkpt lat="49.0858181142516" lon="6.353102042649883"><ele>224.0</ele><time>2026-04-20T12:39:50.999Z</time></trkpt><trkpt lat="49.085759698523596" lon="6.3531607038882525"><ele>224.00000000000003</ele><time>2026-04-20T12:39:51.999Z</time></trkpt><trkpt lat="49.08567903559687" lon="6.353178390792973"><ele>224.0</ele><time>2026-04-20T12:39:52.999Z</time></trkpt><trkpt lat="49.085603679686635" lon="6.353146660177129"><ele>222.79999999999998</ele><time>2026-04-20T12:39:53.999Z</time></trkpt><trkpt lat="49.08551451289136" lon="6.353138911555733"><ele>221.59999999999997</ele><time>2026-04-20T12:39:54.999Z</time></trkpt><trkpt lat="49.085425526337204" lon="6.353125446184356"><ele>220.4</ele><time>2026-04-20T12:39:55.999Z</time></trkpt><trkpt lat="49.08534594509589" lon="6.353056779119221"><ele>219.2</ele><time>2026-04-20T12:39:56.999Z</time></trkpt><trkpt lat="49.08528464224473" lon="6.352919790178724"><ele>218.0</ele><time>2026-04-20T12:39:58Z</time></trkpt><trkpt lat="49.08519592317724" lon="6.352792563396827"><ele>218.0</ele><time>2026-04-20T12:39:59Z</time></trkpt><trkpt lat="49.085110900090605" lon="6.352645098451386"><ele>218.0</ele><time>2026-04-20T12:40:00Z</time></trkpt><trkpt lat="49.085037109537154" lon="6.352489562619001"><ele>218.0</ele><time>2026-04-20T12:40:01Z</time></trkpt><trkpt lat="49.08494090244597" lon="6.35232223640735"><ele>218.0</ele><time>2026-04-20T12:40:02Z</time></trkpt><trkpt lat="49.08484397666558" lon="6.352151534005405"><ele>218.25</ele><time>2026-04-20T12:40:03Z</time></trkpt><trkpt lat="49.084741110740104" lon="6.3519904358895"><ele>218.5</ele><time>2026-04-20T12:40:04Z</time></trkpt><trkpt lat="49.0846411947394" lon="6.351834832684695"><ele>218.75</ele><time>2026-04-20T12:40:05Z</time></trkpt><trkpt lat="49.084528778226016" lon="6.351700724289637"><ele>219.0</ele><time>2026-04-20T12:40:06Z</time></trkpt><trkpt lat="49.084414108601905" lon="6.351563850048309"><ele>219.0</ele><time>2026-04-20T12:40:07Z</time></trkpt><trkpt lat="49.08431553029163" lon="6.351417534771002"><ele>219.0</ele><time>2026-04-20T12:40:08Z</time></trkpt><trkpt lat="49.08420206170861" lon="6.351287295307514"><ele>219.0</ele><time>2026-04-20T12:40:09Z</time></trkpt><trkpt lat="49.08408618613744" lon="6.351149841159069"><ele>219.0</ele><time>2026-04-20T12:40:10Z</time></trkpt><trkpt lat="49.08396231016838" lon="6.351012965242696"><ele>218.66666666666669</ele><time>2026-04-20T12:40:11Z</time></trkpt><trkpt lat="49.08384168831392" lon="6.350870179189109"><ele>218.33333333333334</ele><time>2026-04-20T12:40:12Z</time></trkpt><trkpt lat="49.08372780687516" lon="6.35072446667194"><ele>218.0</ele><time>2026-04-20T12:40:13Z</time></trkpt><trkpt lat="49.083609953614456" lon="6.350584291665421"><ele>218.75</ele><time>2026-04-20T12:40:14Z</time></trkpt><trkpt lat="49.08349637509771" lon="6.3504455635141674"><ele>219.5</ele><time>2026-04-20T12:40:15Z</time></trkpt><trkpt lat="49.083382266065115" lon="6.350303702156664"><ele>220.25</ele><time>2026-04-20T12:40:16Z</time></trkpt><trkpt lat="49.08327200177594" lon="6.3501613960107015"><ele>221.0</ele><time>2026-04-20T12:40:17Z</time></trkpt><trkpt lat="49.08316678326443" lon="6.350015221971388"><ele>221.25</ele><time>2026-04-20T12:40:18Z</time></trkpt><trkpt lat="49.083056527344084" lon="6.349875359355078"><ele>221.5</ele><time>2026-04-20T12:40:19Z</time></trkpt><trkpt lat="49.08294507113631" lon="6.349733727875252"><ele>221.75</ele><time>2026-04-20T12:40:20Z</time></trkpt><trkpt lat="49.08283168525893" lon="6.34959226642762"><ele>222.0</ele><time>2026-04-20T12:40:21Z</time></trkpt><trkpt lat="49.08271531708283" lon="6.349452326402345"><ele>222.0</ele><time>2026-04-20T12:40:22Z</time></trkpt><trkpt lat="49.08260983127961" lon="6.34931852063165"><ele>222.0</ele><time>2026-04-20T12:40:23Z</time></trkpt><trkpt lat="49.082500889411854" lon="6.349182479263123"><ele>222.0</ele><time>2026-04-20T12:40:24Z</time></trkpt><trkpt lat="49.08239020548957" lon="6.349042508605368"><ele>222.0</ele><time>2026-04-20T12:40:25Z</time></trkpt><trkpt lat="49.08227673242424" lon="6.348899525406943"><ele>224.0</ele><time>2026-04-20T12:40:26Z</time></trkpt><trkpt lat="49.0821601408517" lon="6.348759593089617"><ele>226.0</ele><time>2026-04-20T12:40:27Z</time></trkpt><trkpt lat="49.082045879350844" lon="6.348618278889529"><ele>228.0</ele><time>2026-04-20T12:40:28Z</time></trkpt><trkpt lat="49.08194025427814" lon="6.348489055303631"><ele>230.0</ele><time>2026-04-20T12:40:29Z</time></trkpt><trkpt lat="49.081836191972734" lon="6.3483594555609955"><ele>230.0</ele><time>2026-04-20T12:40:30Z</time></trkpt><trkpt lat="49.08173175603869" lon="6.348224756637596"><ele>230.0</ele><time>2026-04-20T12:40:31Z</time></trkpt><trkpt lat="49.08161846706042" lon="6.348089305437514"><ele>230.0</ele><time>2026-04-20T12:40:32Z</time></trkpt><trkpt lat="49.08150359651095" lon="6.347961926954413"><ele>230.0</ele><time>2026-04-20T12:40:33Z</time></trkpt><trkpt lat="49.08140836747743" lon="6.347816378091704"><ele>229.25</ele><time>2026-04-20T12:40:34Z</time></trkpt><trkpt lat="49.08128588430513" lon="6.347694796823605"><ele>228.5</ele><time>2026-04-20T12:40:35Z</time></trkpt><trkpt lat="49.08115501502594" lon="6.347604835616733"><ele>227.75</ele><time>2026-04-20T12:40:36Z</time></trkpt><trkpt lat="49.08102471292412" lon="6.347490300554346"><ele>227.0</ele><time>2026-04-20T12:40:37Z</time></trkpt><trkpt lat="49.080894015147514" lon="6.347388652501333"><ele>227.25</ele><time>2026-04-20T12:40:38Z</time></trkpt><trkpt lat="49.08076299126089" lon="6.347289853404835"><ele>227.5</ele><time>2026-04-20T12:40:39Z</time></trkpt><trkpt lat="49.08063394669281" lon="6.347193869302139"><ele>227.75</ele><time>2026-04-20T12:40:40Z</time></trkpt><trkpt lat="49.08050115611087" lon="6.347096409939387"><ele>228.0</ele><time>2026-04-20T12:40:41Z</time></trkpt><trkpt lat="49.08037333466722" lon="6.3469964857121"><ele>228.0</ele><time>2026-04-20T12:40:42Z</time></trkpt><trkpt lat="49.08024454544246" lon="6.346893726317291"><ele>228.0</ele><time>2026-04-20T12:40:43Z</time></trkpt><trkpt lat="49.08012287547451" lon="6.346778506742685"><ele>228.0</ele><time>2026-04-20T12:40:44Z</time></trkpt><trkpt lat="49.08000091521542" lon="6.346656910846733"><ele>228.0</ele><time>2026-04-20T12:40:45Z</time></trkpt><trkpt lat="49.079877614637454" lon="6.346532114003906"><ele>227.25</ele><time>2026-04-20T12:40:46Z</time></trkpt><trkpt lat="49.07975589467107" lon="6.346410560198275"><ele>226.5</ele><time>2026-04-20T12:40:47Z</time></trkpt><trkpt lat="49.07963848716484" lon="6.34628718830724"><ele>225.75</ele><time>2026-04-20T12:40:48Z</time></trkpt><trkpt lat="49.079519666421156" lon="6.346163504358239"><ele>225.0</ele><time>2026-04-20T12:40:48.999Z</time></trkpt><trkpt lat="49.079395333528176" lon="6.346041020031841"><ele>225.0</ele><time>2026-04-20T12:40:49.999Z</time></trkpt><trkpt lat="49.079272420741624" lon="6.345910263752211"><ele>225.0</ele><time>2026-04-20T12:40:50.999Z</time></trkpt><trkpt lat="49.07915335118289" lon="6.345783648645073"><ele>225.0</ele><time>2026-04-20T12:40:51.999Z</time></trkpt><trkpt lat="49.0790377248485" lon="6.345656287721669"><ele>225.0</ele><time>2026-04-20T12:40:52.999Z</time></trkpt><trkpt lat="49.07891585254291" lon="6.345526585669081"><ele>225.0</ele><time>2026-04-20T12:40:53.999Z</time></trkpt><trkpt lat="49.07879140502534" lon="6.345399853379117"><ele>225.0</ele><time>2026-04-20T12:40:54.999Z</time></trkpt><trkpt lat="49.07866660877276" lon="6.345274193552136"><ele>225.0</ele><time>2026-04-20T12:40:55.999Z</time></trkpt><trkpt lat="49.07855277691072" lon="6.345146878614204"><ele>225.0</ele><time>2026-04-20T12:40:56.999Z</time></trkpt><trkpt lat="49.07843340048988" lon="6.345040126784491"><ele>225.0</ele><time>2026-04-20T12:40:57.999Z</time></trkpt><trkpt lat="49.07831437454758" lon="6.344924866793685"><ele>225.0</ele><time>2026-04-20T12:40:58.999Z</time></trkpt><trkpt lat="49.07818627615465" lon="6.344818039056917"><ele>225.0</ele><time>2026-04-20T12:40:59.999Z</time></trkpt><trkpt lat="49.07806049561651" lon="6.344713761217504"><ele>225.0</ele><time>2026-04-20T12:41:00.999Z</time></trkpt><trkpt lat="49.07793554907405" lon="6.344615438667984"><ele>224.25</ele><time>2026-04-20T12:41:01.999Z</time></trkpt><trkpt lat="49.07781040462968" lon="6.3445131423258045"><ele>223.5</ele><time>2026-04-20T12:41:02.999Z</time></trkpt><trkpt lat="49.07768560384217" lon="6.344409234436074"><ele>222.75</ele><time>2026-04-20T12:41:03.999Z</time></trkpt><trkpt lat="49.07756309267583" lon="6.344299120418042"><ele>222.0</ele><time>2026-04-20T12:41:04.999Z</time></trkpt><trkpt lat="49.07743997847096" lon="6.344185046714752"><ele>221.5</ele><time>2026-04-20T12:41:05.999Z</time></trkpt><trkpt lat="49.07731745728918" lon="6.344065706336595"><ele>221.0</ele><time>2026-04-20T12:41:06.999Z</time></trkpt><trkpt lat="49.07719727476931" lon="6.343943400857273"><ele>220.5</ele><time>2026-04-20T12:41:07.999Z</time></trkpt><trkpt lat="49.07707434556281" lon="6.343817408821086"><ele>220.0</ele><time>2026-04-20T12:41:08.999Z</time></trkpt><trkpt lat="49.07695757614285" lon="6.343694941058281"><ele>220.0</ele><time>2026-04-20T12:41:09.999Z</time></trkpt><trkpt lat="49.07683995260975" lon="6.343571308636602"><ele>220.0</ele><time>2026-04-20T12:41:10.999Z</time></trkpt><trkpt lat="49.076721391507334" lon="6.3434403997963456"><ele>220.0</ele><time>2026-04-20T12:41:11.999Z</time></trkpt><trkpt lat="49.07660056528346" lon="6.343311280334559"><ele>220.0</ele><time>2026-04-20T12:41:12.999Z</time></trkpt><trkpt lat="49.07648170669245" lon="6.343182252462003"><ele>219.75</ele><time>2026-04-20T12:41:13.999Z</time></trkpt><trkpt lat="49.076364920758905" lon="6.343049565032125"><ele>219.5</ele><time>2026-04-20T12:41:14.999Z</time></trkpt><trkpt lat="49.07625283505713" lon="6.3429081647802565"><ele>219.25</ele><time>2026-04-20T12:41:15.999Z</time></trkpt><trkpt lat="49.07615089235988" lon="6.342766661437464"><ele>219.0</ele><time>2026-04-20T12:41:16.999Z</time></trkpt><trkpt lat="49.076052463807464" lon="6.342618606744704"><ele>219.0</ele><time>2026-04-20T12:41:17.999Z</time></trkpt><trkpt lat="49.07595721266703" lon="6.3424591068485"><ele>219.0</ele><time>2026-04-20T12:41:18.999Z</time></trkpt><trkpt lat="49.07586735889751" lon="6.342290691297563"><ele>219.0</ele><time>2026-04-20T12:41:19.999Z</time></trkpt><trkpt lat="49.07578281970903" lon="6.342118346021526"><ele>219.0</ele><time>2026-04-20T12:41:20.999Z</time></trkpt><trkpt lat="49.075702049823114" lon="6.34194273201394"><ele>218.75</ele><time>2026-04-20T12:41:21.999Z</time></trkpt><trkpt lat="49.07562921562132" lon="6.3417728856294415"><ele>218.5</ele><time>2026-04-20T12:41:22.999Z</time></trkpt><trkpt lat="49.07556593478302" lon="6.341611641851232"><ele>218.25</ele><time>2026-04-20T12:41:23.999Z</time></trkpt><trkpt lat="49.07551431816733" lon="6.341457711673038"><ele>218.0</ele><time>2026-04-20T12:41:24.999Z</time></trkpt><trkpt lat="49.07547115646682" lon="6.341311787383252"><ele>218.0</ele><time>2026-04-20T12:41:25.999Z</time></trkpt><trkpt lat="49.07543462758158" lon="6.341191916347093"><ele>218.0</ele><time>2026-04-20T12:41:26.999Z</time></trkpt><trkpt lat="49.07540571837406" lon="6.3410996452204484"><ele>218.0</ele><time>2026-04-20T12:41:27.999Z</time></trkpt><trkpt lat="49.07532365714595" lon="6.340969686588245"><ele>218.0</ele><time>2026-04-20T12:41:29.999Z</time></trkpt><trkpt lat="49.075186182899486" lon="6.34101514769165"><ele>218.0</ele><time>2026-04-20T12:41:31.999Z</time></trkpt><trkpt lat="49.07512445663898" lon="6.341112162885462"><ele>218.0</ele><time>2026-04-20T12:41:32.999Z</time></trkpt><trkpt lat="49.07507575781816" lon="6.341248991466003"><ele>218.0</ele><time>2026-04-20T12:41:33.999Z</time></trkpt><trkpt lat="49.07504565260427" lon="6.34140786166666"><ele>218.0</ele><time>2026-04-20T12:41:34.999Z</time></trkpt><trkpt lat="49.07501824404742" lon="6.3415828538867425"><ele>218.0</ele><time>2026-04-20T12:41:35.999Z</time></trkpt><trkpt lat="49.07498401022587" lon="6.341765400576752"><ele>217.5</ele><time>2026-04-20T12:41:36.999Z</time></trkpt><trkpt lat="49.07492932775743" lon="6.341941232593297"><ele>217.0</ele><time>2026-04-20T12:41:37.999Z</time></trkpt><trkpt lat="49.074867931301924" lon="6.342101938755743"><ele>216.5</ele><time>2026-04-20T12:41:38.999Z</time></trkpt><trkpt lat="49.07479464802853" lon="6.342266684900097"><ele>216.0</ele><time>2026-04-20T12:41:39.999Z</time></trkpt><trkpt lat="49.074715352511554" lon="6.342434155406611"><ele>216.0</ele><time>2026-04-20T12:41:40.999Z</time></trkpt><trkpt lat="49.074631363560435" lon="6.342597739261183"><ele>216.0</ele><time>2026-04-20T12:41:41.999Z</time></trkpt><trkpt lat="49.074540774796326" lon="6.342753327848395"><ele>216.0</ele><time>2026-04-20T12:41:42.999Z</time></trkpt><trkpt lat="49.07444539612073" lon="6.342899562444208"><ele>216.0</ele><time>2026-04-20T12:41:43.999Z</time></trkpt><trkpt lat="49.07434203895024" lon="6.343040910899251"><ele>216.0</ele><time>2026-04-20T12:41:44.999Z</time></trkpt><trkpt lat="49.07423832151116" lon="6.343178428272541"><ele>216.0</ele><time>2026-04-20T12:41:45.999Z</time></trkpt><trkpt lat="49.07412949529345" lon="6.343300250842902"><ele>216.0</ele><time>2026-04-20T12:41:46.999Z</time></trkpt><trkpt lat="49.074024202117144" lon="6.343414395797637"><ele>216.0</ele><time>2026-04-20T12:41:47.999Z</time></trkpt><trkpt lat="49.07391265387064" lon="6.343540526433893"><ele>217.5</ele><time>2026-04-20T12:41:48.999Z</time></trkpt><trkpt lat="49.07379692180854" lon="6.3436592218257655"><ele>219.0</ele><time>2026-04-20T12:41:49.999Z</time></trkpt><trkpt lat="49.0736728964165" lon="6.343754136189263"><ele>220.5</ele><time>2026-04-20T12:41:50.999Z</time></trkpt><trkpt lat="49.07353916734602" lon="6.343827504235998"><ele>222.0</ele><time>2026-04-20T12:41:51.999Z</time></trkpt><trkpt lat="49.07340150500186" lon="6.3438740151065875"><ele>223.0</ele><time>2026-04-20T12:41:52.999Z</time></trkpt><trkpt lat="49.07326239591095" lon="6.343901968814456"><ele>224.0</ele><time>2026-04-20T12:41:53.999Z</time></trkpt><trkpt lat="49.07312229140966" lon="6.343900719070871"><ele>225.0</ele><time>2026-04-20T12:41:54.999Z</time></trkpt><trkpt lat="49.07298644826951" lon="6.343870045022664"><ele>226.0</ele><time>2026-04-20T12:41:55.999Z</time></trkpt><trkpt lat="49.072849847497366" lon="6.343833788467234"><ele>226.0</ele><time>2026-04-20T12:41:56.999Z</time></trkpt><trkpt lat="49.07271064036211" lon="6.343804707026604"><ele>226.0</ele><time>2026-04-20T12:41:57.999Z</time></trkpt><trkpt lat="49.07257743227055" lon="6.3437769266127715"><ele>226.0</ele><time>2026-04-20T12:41:58.999Z</time></trkpt><trkpt lat="49.07244184951561" lon="6.343752174765697"><ele>226.0</ele><time>2026-04-20T12:41:59.999Z</time></trkpt><trkpt lat="49.07230411745139" lon="6.343739686699703"><ele>226.75</ele><time>2026-04-20T12:42:00.999Z</time></trkpt><trkpt lat="49.07216263375559" lon="6.343737543510841"><ele>227.5</ele><time>2026-04-20T12:42:01.999Z</time></trkpt><trkpt lat="49.07202136284339" lon="6.3437410524483315"><ele>228.25</ele><time>2026-04-20T12:42:02.999Z</time></trkpt><trkpt lat="49.071884790574394" lon="6.343738510321495"><ele>229.0</ele><time>2026-04-20T12:42:04Z</time></trkpt><trkpt lat="49.07174045335825" lon="6.343736388271861"><ele>230.0</ele><time>2026-04-20T12:42:05Z</time></trkpt><trkpt lat="49.07159823529325" lon="6.343732184223326"><ele>231.0</ele><time>2026-04-20T12:42:06Z</time></trkpt><trkpt lat="49.07145290837263" lon="6.343725730432237"><ele>232.0</ele><time>2026-04-20T12:42:07Z</time></trkpt><trkpt lat="49.071308603301304" lon="6.3437226229728"><ele>233.0</ele><time>2026-04-20T12:42:08Z</time></trkpt><trkpt lat="49.07117033713393" lon="6.343718827366566"><ele>233.0</ele><time>2026-04-20T12:42:09Z</time></trkpt><trkpt lat="49.07102611915325" lon="6.343712290248893"><ele>233.0</ele><time>2026-04-20T12:42:10Z</time></trkpt><trkpt lat="49.07087875498837" lon="6.343707296315513"><ele>233.0</ele><time>2026-04-20T12:42:11Z</time></trkpt><trkpt lat="49.07073245033026" lon="6.343704108345863"><ele>233.0</ele><time>2026-04-20T12:42:12Z</time></trkpt><trkpt lat="49.070592973211646" lon="6.343701341430604"><ele>233.75</ele><time>2026-04-20T12:42:13Z</time></trkpt><trkpt lat="49.070450210791655" lon="6.343697581435149"><ele>234.5</ele><time>2026-04-20T12:42:14Z</time></trkpt><trkpt lat="49.07030598594402" lon="6.343694397016447"><ele>235.25</ele><time>2026-04-20T12:42:15Z</time></trkpt><trkpt lat="49.07016683890133" lon="6.343696835783001"><ele>236.0</ele><time>2026-04-20T12:42:16Z</time></trkpt><trkpt lat="49.07002689200298" lon="6.3436982658043375"><ele>236.25</ele><time>2026-04-20T12:42:17Z</time></trkpt><trkpt lat="49.069881802535946" lon="6.343704332304126"><ele>236.5</ele><time>2026-04-20T12:42:18Z</time></trkpt><trkpt lat="49.06973443318218" lon="6.343717480403788"><ele>236.75</ele><time>2026-04-20T12:42:19Z</time></trkpt><trkpt lat="49.06958809374846" lon="6.343729063806367"><ele>237.0</ele><time>2026-04-20T12:42:20Z</time></trkpt><trkpt lat="49.06944233543983" lon="6.343740317607362"><ele>237.0</ele><time>2026-04-20T12:42:21Z</time></trkpt><trkpt lat="49.06929693018599" lon="6.343757413012695"><ele>237.0</ele><time>2026-04-20T12:42:22Z</time></trkpt><trkpt lat="49.069149371857144" lon="6.343772639097154"><ele>237.0</ele><time>2026-04-20T12:42:23Z</time></trkpt><trkpt lat="49.06900392842726" lon="6.343784958528943"><ele>237.0</ele><time>2026-04-20T12:42:24Z</time></trkpt><trkpt lat="49.06885742125546" lon="6.3437994312695425"><ele>237.25</ele><time>2026-04-20T12:42:25Z</time></trkpt><trkpt lat="49.06870910030846" lon="6.343812773568731"><ele>237.5</ele><time>2026-04-20T12:42:26Z</time></trkpt><trkpt lat="49.068560353446266" lon="6.34382588640595"><ele>237.75</ele><time>2026-04-20T12:42:27Z</time></trkpt><trkpt lat="49.06840895251893" lon="6.343837687429311"><ele>238.0</ele><time>2026-04-20T12:42:28Z</time></trkpt><trkpt lat="49.06825918961054" lon="6.343849158486811"><ele>237.75</ele><time>2026-04-20T12:42:29Z</time></trkpt><trkpt lat="49.06810960189015" lon="6.3438609480049895"><ele>237.5</ele><time>2026-04-20T12:42:30Z</time></trkpt><trkpt lat="49.06796776989716" lon="6.3438724880210815"><ele>237.25</ele><time>2026-04-20T12:42:31Z</time></trkpt><trkpt lat="49.06782602420864" lon="6.343882479019882"><ele>237.0</ele><time>2026-04-20T12:42:32Z</time></trkpt><trkpt lat="49.0676803122608" lon="6.343896733008609"><ele>237.0</ele><time>2026-04-20T12:42:33Z</time></trkpt><trkpt lat="49.06753495470668" lon="6.343910228442574"><ele>237.0</ele><time>2026-04-20T12:42:34Z</time></trkpt><trkpt lat="49.06739648949161" lon="6.343920693125471"><ele>237.0</ele><time>2026-04-20T12:42:35Z</time></trkpt><trkpt lat="49.06726176535987" lon="6.343932313076948"><ele>237.0</ele><time>2026-04-20T12:42:36Z</time></trkpt><trkpt lat="49.0671323171904" lon="6.343939359155436"><ele>236.5</ele><time>2026-04-20T12:42:37Z</time></trkpt><trkpt lat="49.067005498950394" lon="6.343953408868544"><ele>236.0</ele><time>2026-04-20T12:42:38Z</time></trkpt><trkpt lat="49.06688494006414" lon="6.343973970852103"><ele>235.5</ele><time>2026-04-20T12:42:39Z</time></trkpt><trkpt lat="49.06676515104723" lon="6.343999329229137"><ele>235.0</ele><time>2026-04-20T12:42:40Z</time></trkpt><trkpt lat="49.06664575118516" lon="6.344036505869426"><ele>234.5</ele><time>2026-04-20T12:42:41Z</time></trkpt><trkpt lat="49.066527613562755" lon="6.344086510646786"><ele>234.0</ele><time>2026-04-20T12:42:42Z</time></trkpt><trkpt lat="49.066418438959346" lon="6.34414845841619"><ele>233.5</ele><time>2026-04-20T12:42:43Z</time></trkpt><trkpt lat="49.0663166291506" lon="6.344216702249112"><ele>233.0</ele><time>2026-04-20T12:42:44Z</time></trkpt><trkpt lat="49.06621789165827" lon="6.344287420200615"><ele>233.00000000000003</ele><time>2026-04-20T12:42:45Z</time></trkpt><trkpt lat="49.06613685650893" lon="6.344356222822601"><ele>233.0</ele><time>2026-04-20T12:42:46Z</time></trkpt><trkpt lat="49.06607082802804" lon="6.3444243189896"><ele>233.0</ele><time>2026-04-20T12:42:47Z</time></trkpt><trkpt lat="49.066018111329214" lon="6.3444795246711525"><ele>233.0</ele><time>2026-04-20T12:42:48Z</time></trkpt><trkpt lat="49.065924166137165" lon="6.344502513605944"><ele>233.00000000000003</ele><time>2026-04-20T12:42:50Z</time></trkpt><trkpt lat="49.06586041299175" lon="6.344372044940505"><ele>233.0</ele><time>2026-04-20T12:42:50.999Z</time></trkpt><trkpt lat="49.06583654882996" lon="6.344243215710735"><ele>233.0</ele><time>2026-04-20T12:42:51.999Z</time></trkpt><trkpt lat="49.06582737822007" lon="6.344110480787858"><ele>233.0</ele><time>2026-04-20T12:42:52.999Z</time></trkpt><trkpt lat="49.06581557498986" lon="6.3439766132356095"><ele>233.0</ele><time>2026-04-20T12:42:53.999Z</time></trkpt><trkpt lat="49.065768200373675" lon="6.34383675460713"><ele>233.0</ele><time>2026-04-20T12:42:54.999Z</time></trkpt><trkpt lat="49.0656973406085" lon="6.343711945257271"><ele>233.0</ele><time>2026-04-20T12:42:55.999Z</time></trkpt><trkpt lat="49.065608896262944" lon="6.3436175103021135"><ele>233.0</ele><time>2026-04-20T12:42:56.999Z</time></trkpt><trkpt lat="49.06549987466078" lon="6.343543888441228"><ele>233.0</ele><time>2026-04-20T12:42:57.999Z</time></trkpt><trkpt lat="49.06537812708945" lon="6.343501133554771"><ele>233.0</ele><time>2026-04-20T12:42:58.999Z</time></trkpt><trkpt lat="49.0652464982476" lon="6.3434858016810844"><ele>233.0</ele><time>2026-04-20T12:42:59.999Z</time></trkpt><trkpt lat="49.06511359578007" lon="6.343469588772621"><ele>233.0</ele><time>2026-04-20T12:43:00.999Z</time></trkpt><trkpt lat="49.06497489389593" lon="6.343451998644369"><ele>233.0</ele><time>2026-04-20T12:43:01.999Z</time></trkpt><trkpt lat="49.06484134504767" lon="6.343435917643603"><ele>233.0</ele><time>2026-04-20T12:43:02.999Z</time></trkpt><trkpt lat="49.064700740920564" lon="6.343420815350864"><ele>233.0</ele><time>2026-04-20T12:43:03.999Z</time></trkpt><trkpt lat="49.06456003454" lon="6.343410113532462"><ele>233.75</ele><time>2026-04-20T12:43:04.999Z</time></trkpt><trkpt lat="49.06441946909547" lon="6.3434036744550975"><ele>234.5</ele><time>2026-04-20T12:43:05.999Z</time></trkpt><trkpt lat="49.06428348261505" lon="6.343398400647946"><ele>235.25</ele><time>2026-04-20T12:43:06.999Z</time></trkpt><trkpt lat="49.0641485885232" lon="6.343393428401527"><ele>236.0</ele><time>2026-04-20T12:43:07.999Z</time></trkpt><trkpt lat="49.064011629277765" lon="6.343386853051338"><ele>236.25</ele><time>2026-04-20T12:43:08.999Z</time></trkpt><trkpt lat="49.0638692549752" lon="6.343378870460388"><ele>236.5</ele><time>2026-04-20T12:43:09.999Z</time></trkpt><trkpt lat="49.06373208298116" lon="6.34336544525678"><ele>236.75</ele><time>2026-04-20T12:43:10.999Z</time></trkpt><trkpt lat="49.06360481588198" lon="6.343348403333781"><ele>237.0</ele><time>2026-04-20T12:43:11.999Z</time></trkpt><trkpt lat="49.06347095023637" lon="6.343321748216818"><ele>237.0</ele><time>2026-04-20T12:43:12.999Z</time></trkpt><trkpt lat="49.06333000910338" lon="6.343297084650903"><ele>237.0</ele><time>2026-04-20T12:43:13.999Z</time></trkpt><trkpt lat="49.06319878683977" lon="6.343276658776536"><ele>237.0</ele><time>2026-04-20T12:43:14.999Z</time></trkpt><trkpt lat="49.063061709258605" lon="6.3432503385531245"><ele>237.0</ele><time>2026-04-20T12:43:15.999Z</time></trkpt><trkpt lat="49.062920507955624" lon="6.343224067619223"><ele>236.75</ele><time>2026-04-20T12:43:16.999Z</time></trkpt><trkpt lat="49.06277688166146" lon="6.343197586353095"><ele>236.5</ele><time>2026-04-20T12:43:17.999Z</time></trkpt><trkpt lat="49.06263460370387" lon="6.343170994816809"><ele>236.25</ele><time>2026-04-20T12:43:18.999Z</time></trkpt><trkpt lat="49.06249178810047" lon="6.343146204101453"><ele>236.0</ele><time>2026-04-20T12:43:19.999Z</time></trkpt><trkpt lat="49.06235368898106" lon="6.343122573777007"><ele>235.5</ele><time>2026-04-20T12:43:20.999Z</time></trkpt><trkpt lat="49.06221468940974" lon="6.343096533159574"><ele>235.0</ele><time>2026-04-20T12:43:21.999Z</time></trkpt><trkpt lat="49.06207337674616" lon="6.343073154077885"><ele>234.5</ele><time>2026-04-20T12:43:22.999Z</time></trkpt><trkpt lat="49.06193004809574" lon="6.343050383531902"><ele>234.0</ele><time>2026-04-20T12:43:23.999Z</time></trkpt><trkpt lat="49.06178740440012" lon="6.343026336827159"><ele>234.0</ele><time>2026-04-20T12:43:24.999Z</time></trkpt><trkpt lat="49.06164712069802" lon="6.342998584696055"><ele>234.0</ele><time>2026-04-20T12:43:25.999Z</time></trkpt><trkpt lat="49.06150629450136" lon="6.342972121728942"><ele>234.0</ele><time>2026-04-20T12:43:26.999Z</time></trkpt><trkpt lat="49.06136615148774" lon="6.342949647389265"><ele>234.0</ele><time>2026-04-20T12:43:27.999Z</time></trkpt><trkpt lat="49.06122563364687" lon="6.342925428301227"><ele>233.5</ele><time>2026-04-20T12:43:28.999Z</time></trkpt><trkpt lat="49.06108461737486" lon="6.342902177404095"><ele>233.0</ele><time>2026-04-20T12:43:29.999Z</time></trkpt><trkpt lat="49.06093815699313" lon="6.342876556632742"><ele>232.5</ele><time>2026-04-20T12:43:30.999Z</time></trkpt><trkpt lat="49.06079613335684" lon="6.342851546299718"><ele>232.0</ele><time>2026-04-20T12:43:31.999Z</time></trkpt><trkpt lat="49.0606558086119" lon="6.342829335830766"><ele>231.75</ele><time>2026-04-20T12:43:32.999Z</time></trkpt><trkpt lat="49.060511234277605" lon="6.342804513383648"><ele>231.5</ele><time>2026-04-20T12:43:33.999Z</time></trkpt><trkpt lat="49.06036733321247" lon="6.3427781183812755"><ele>231.25</ele><time>2026-04-20T12:43:34.999Z</time></trkpt><trkpt lat="49.06022378030075" lon="6.342754351233579"><ele>231.0</ele><time>2026-04-20T12:43:35.999Z</time></trkpt><trkpt lat="49.06008171418081" lon="6.342728450485413"><ele>231.0</ele><time>2026-04-20T12:43:36.999Z</time></trkpt><trkpt lat="49.059940801692385" lon="6.342702625183347"><ele>231.0</ele><time>2026-04-20T12:43:37.999Z</time></trkpt><trkpt lat="49.05979936427228" lon="6.342677080463779"><ele>231.0</ele><time>2026-04-20T12:43:38.999Z</time></trkpt><trkpt lat="49.05965991155141" lon="6.342652606018481"><ele>231.0</ele><time>2026-04-20T12:43:39.999Z</time></trkpt><trkpt lat="49.059515631699824" lon="6.3426282160457"><ele>231.0</ele><time>2026-04-20T12:43:40.999Z</time></trkpt><trkpt lat="49.059378142062435" lon="6.342605538131947"><ele>231.0</ele><time>2026-04-20T12:43:41.999Z</time></trkpt><trkpt lat="49.05923880625372" lon="6.342579584991694"><ele>231.0</ele><time>2026-04-20T12:43:42.999Z</time></trkpt><trkpt lat="49.059099345415994" lon="6.342556125211347"><ele>231.0</ele><time>2026-04-20T12:43:43.999Z</time></trkpt><trkpt lat="49.05896539557141" lon="6.342540902840886"><ele>231.5</ele><time>2026-04-20T12:43:44.999Z</time></trkpt><trkpt lat="49.0588248353563" lon="6.34255275222479"><ele>232.0</ele><time>2026-04-20T12:43:45.999Z</time></trkpt><trkpt lat="49.05869275441372" lon="6.342614440865154"><ele>232.5</ele><time>2026-04-20T12:43:46.999Z</time></trkpt><trkpt lat="49.05856264454492" lon="6.342696659331759"><ele>233.0</ele><time>2026-04-20T12:43:47.999Z</time></trkpt><trkpt lat="49.05842842481165" lon="6.342778553775469"><ele>233.0</ele><time>2026-04-20T12:43:48.999Z</time></trkpt><trkpt lat="49.05829856601256" lon="6.342862157418295"><ele>233.0</ele><time>2026-04-20T12:43:49.999Z</time></trkpt><trkpt lat="49.05816703630705" lon="6.342941310661941"><ele>233.0</ele><time>2026-04-20T12:43:50.999Z</time></trkpt><trkpt lat="49.05804223960544" lon="6.343019146761017"><ele>233.0</ele><time>2026-04-20T12:43:51.999Z</time></trkpt><trkpt lat="49.05790961670802" lon="6.343102176826164"><ele>233.0</ele><time>2026-04-20T12:43:52.999Z</time></trkpt><trkpt lat="49.05778621726072" lon="6.343180544893763"><ele>233.0</ele><time>2026-04-20T12:43:53.999Z</time></trkpt><trkpt lat="49.05766567922004" lon="6.343253969278172"><ele>233.0</ele><time>2026-04-20T12:43:54.999Z</time></trkpt><trkpt lat="49.057541587024566" lon="6.343330439346018"><ele>233.0</ele><time>2026-04-20T12:43:55.999Z</time></trkpt><trkpt lat="49.057415885217246" lon="6.343406076174756"><ele>233.75</ele><time>2026-04-20T12:43:56.999Z</time></trkpt><trkpt lat="49.057294232429044" lon="6.343467006292536"><ele>234.5</ele><time>2026-04-20T12:43:57.999Z</time></trkpt><trkpt lat="49.0571639800644" lon="6.343510111328216"><ele>235.25</ele><time>2026-04-20T12:43:58.999Z</time></trkpt><trkpt lat="49.057025459523736" lon="6.343531212723689"><ele>236.0</ele><time>2026-04-20T12:43:59.999Z</time></trkpt><trkpt lat="49.056886303184704" lon="6.343534631411134"><ele>236.0</ele><time>2026-04-20T12:44:00.999Z</time></trkpt><trkpt lat="49.05674986010361" lon="6.343530400553342"><ele>236.0</ele><time>2026-04-20T12:44:01.999Z</time></trkpt><trkpt lat="49.056619361394645" lon="6.343524103471206"><ele>236.0</ele><time>2026-04-20T12:44:02.999Z</time></trkpt><trkpt lat="49.05648191016644" lon="6.343516012524775"><ele>236.0</ele><time>2026-04-20T12:44:03.999Z</time></trkpt><trkpt lat="49.056343692125175" lon="6.343512272450176"><ele>236.25</ele><time>2026-04-20T12:44:04.999Z</time></trkpt><trkpt lat="49.05620383382851" lon="6.343507574956737"><ele>236.5</ele><time>2026-04-20T12:44:05.999Z</time></trkpt><trkpt lat="49.05606851206506" lon="6.343503424339548"><ele>236.75</ele><time>2026-04-20T12:44:06.999Z</time></trkpt><trkpt lat="49.05593128555881" lon="6.3434983380598595"><ele>237.0</ele><time>2026-04-20T12:44:07.999Z</time></trkpt><trkpt lat="49.05579308853319" lon="6.343491293812468"><ele>237.5</ele><time>2026-04-20T12:44:08.998Z</time></trkpt><trkpt lat="49.05565805620682" lon="6.343485644318022"><ele>238.0</ele><time>2026-04-20T12:44:10Z</time></trkpt><trkpt lat="49.055529056324" lon="6.343478866170338"><ele>238.5</ele><time>2026-04-20T12:44:11Z</time></trkpt><trkpt lat="49.05539463687378" lon="6.343475689453833"><ele>239.0</ele><time>2026-04-20T12:44:12Z</time></trkpt><trkpt lat="49.055263312966666" lon="6.343472849606135"><ele>239.0</ele><time>2026-04-20T12:44:13Z</time></trkpt><trkpt lat="49.055138686915804" lon="6.343468931685482"><ele>239.0</ele><time>2026-04-20T12:44:14Z</time></trkpt><trkpt lat="49.0550086038689" lon="6.34346270855194"><ele>239.0</ele><time>2026-04-20T12:44:15Z</time></trkpt><trkpt lat="49.054881098547355" lon="6.3434708359088585"><ele>239.0</ele><time>2026-04-20T12:44:16Z</time></trkpt><trkpt lat="49.05476260982937" lon="6.343515296598319"><ele>239.0</ele><time>2026-04-20T12:44:17Z</time></trkpt><trkpt lat="49.05464732323653" lon="6.3436099102225105"><ele>239.0</ele><time>2026-04-20T12:44:18Z</time></trkpt><trkpt lat="49.05453891109954" lon="6.343716411005501"><ele>239.0</ele><time>2026-04-20T12:44:19Z</time></trkpt><trkpt lat="49.05444237545751" lon="6.343837301687257"><ele>239.0</ele><time>2026-04-20T12:44:20Z</time></trkpt><trkpt lat="49.05434350479345" lon="6.343961855993658"><ele>239.0</ele><time>2026-04-20T12:44:21Z</time></trkpt><trkpt lat="49.05424644683818" lon="6.34407929667237"><ele>239.0</ele><time>2026-04-20T12:44:22Z</time></trkpt><trkpt lat="49.054155011149554" lon="6.344185351654932"><ele>239.0</ele><time>2026-04-20T12:44:23Z</time></trkpt><trkpt lat="49.054066889933665" lon="6.344283903389757"><ele>239.0</ele><time>2026-04-20T12:44:24Z</time></trkpt><trkpt lat="49.05398054289311" lon="6.34437620966057"><ele>239.0</ele><time>2026-04-20T12:44:25Z</time></trkpt><trkpt lat="49.053889330550746" lon="6.344462641529877"><ele>238.99999999999997</ele><time>2026-04-20T12:44:26Z</time></trkpt><trkpt lat="49.053789434122656" lon="6.344485326359818"><ele>238.99999999999997</ele><time>2026-04-20T12:44:27Z</time></trkpt><trkpt lat="49.053681157138875" lon="6.344474057232271"><ele>239.0</ele><time>2026-04-20T12:44:28Z</time></trkpt><trkpt lat="49.05357399938509" lon="6.344419511857677"><ele>239.0</ele><time>2026-04-20T12:44:29Z</time></trkpt><trkpt lat="49.05348193346668" lon="6.344325621688639"><ele>239.0</ele><time>2026-04-20T12:44:30Z</time></trkpt><trkpt lat="49.05339652706731" lon="6.344203867003409"><ele>238.99999999999997</ele><time>2026-04-20T12:44:31Z</time></trkpt><trkpt lat="49.053317906567756" lon="6.344081341294612"><ele>238.99999999999997</ele><time>2026-04-20T12:44:32Z</time></trkpt><trkpt lat="49.05324320791368" lon="6.343973815345674"><ele>239.0</ele><time>2026-04-20T12:44:33Z</time></trkpt><trkpt lat="49.05316721120844" lon="6.343867674712943"><ele>239.0</ele><time>2026-04-20T12:44:34Z</time></trkpt><trkpt lat="49.053094084494724" lon="6.343769166993137"><ele>238.00000000000003</ele><time>2026-04-20T12:44:35Z</time></trkpt><trkpt lat="49.05302484172062" lon="6.343678621847191"><ele>237.0</ele><time>2026-04-20T12:44:36Z</time></trkpt><trkpt lat="49.05296912195632" lon="6.343597677914944"><ele>236.0</ele><time>2026-04-20T12:44:37Z</time></trkpt><trkpt lat="49.052912793137224" lon="6.343524662939082"><ele>235.0</ele><time>2026-04-20T12:44:38Z</time></trkpt><trkpt lat="49.052857578031684" lon="6.343458976057708"><ele>234.00000000000003</ele><time>2026-04-20T12:44:39Z</time></trkpt><trkpt lat="49.05277433102856" lon="6.343364848827942"><ele>233.0</ele><time>2026-04-20T12:44:41Z</time></trkpt><trkpt lat="49.052668602602246" lon="6.343265033179352"><ele>233.00000000000003</ele><time>2026-04-20T12:44:43Z</time></trkpt><trkpt lat="49.052562979290094" lon="6.343167390739684"><ele>233.0</ele><time>2026-04-20T12:44:45Z</time></trkpt><trkpt lat="49.052501892904615" lon="6.343109971481381"><ele>233.0</ele><time>2026-04-20T12:44:46Z</time></trkpt><trkpt lat="49.0524361576766" lon="6.343052888220539"><ele>233.0</ele><time>2026-04-20T12:44:47Z</time></trkpt><trkpt lat="49.052371322550016" lon="6.342990179603147"><ele>233.00000000000003</ele><time>2026-04-20T12:44:48Z</time></trkpt><trkpt lat="49.05230428296041" lon="6.342929840004625"><ele>233.0</ele><time>2026-04-20T12:44:49Z</time></trkpt><trkpt lat="49.052233829849264" lon="6.342868545509463"><ele>232.0</ele><time>2026-04-20T12:44:50Z</time></trkpt><trkpt lat="49.05214760241626" lon="6.34280678427904"><ele>231.0</ele><time>2026-04-20T12:44:51Z</time></trkpt><trkpt lat="49.05204228543533" lon="6.342778628101452"><ele>230.0</ele><time>2026-04-20T12:44:52Z</time></trkpt><trkpt lat="49.05193040396101" lon="6.342798960587995"><ele>229.0</ele><time>2026-04-20T12:44:53Z</time></trkpt><trkpt lat="49.051817761393885" lon="6.342863867270965"><ele>228.0</ele><time>2026-04-20T12:44:54Z</time></trkpt><trkpt lat="49.05170606235962" lon="6.342939463301855"><ele>227.0</ele><time>2026-04-20T12:44:55Z</time></trkpt><trkpt lat="49.051581161956584" lon="6.343017641456723"><ele>226.0</ele><time>2026-04-20T12:44:56Z</time></trkpt><trkpt lat="49.051443588043796" lon="6.343088205308854"><ele>225.0</ele><time>2026-04-20T12:44:57Z</time></trkpt><trkpt lat="49.05131129638194" lon="6.3431665842816845"><ele>224.0</ele><time>2026-04-20T12:44:58Z</time></trkpt><trkpt lat="49.05118241897273" lon="6.343267294761096"><ele>224.0</ele><time>2026-04-20T12:44:59Z</time></trkpt><trkpt lat="49.05105909300361" lon="6.34337276873899"><ele>224.0</ele><time>2026-04-20T12:45:00Z</time></trkpt><trkpt lat="49.050938644352755" lon="6.343473165044583"><ele>224.0</ele><time>2026-04-20T12:45:01Z</time></trkpt><trkpt lat="49.05081607463113" lon="6.343573165276872"><ele>224.0</ele><time>2026-04-20T12:45:02Z</time></trkpt><trkpt lat="49.05069344693842" lon="6.3436619695387595"><ele>223.75</ele><time>2026-04-20T12:45:02.999Z</time></trkpt><trkpt lat="49.05056684011674" lon="6.34374413196934"><ele>223.5</ele><time>2026-04-20T12:45:03.999Z</time></trkpt><trkpt lat="49.050437214356684" lon="6.343810744783812"><ele>223.25</ele><time>2026-04-20T12:45:04.999Z</time></trkpt><trkpt lat="49.050305995597206" lon="6.343858337478767"><ele>223.0</ele><time>2026-04-20T12:45:05.999Z</time></trkpt><trkpt lat="49.05017989303428" lon="6.343889351667044"><ele>223.0</ele><time>2026-04-20T12:45:06.999Z</time></trkpt><trkpt lat="49.050061247313124" lon="6.343906932090097"><ele>223.0</ele><time>2026-04-20T12:45:07.999Z</time></trkpt><trkpt lat="49.04993963064195" lon="6.343917986002643"><ele>223.0</ele><time>2026-04-20T12:45:08.999Z</time></trkpt><trkpt lat="49.04982406826098" lon="6.343928858351349"><ele>223.0</ele><time>2026-04-20T12:45:09.999Z</time></trkpt><trkpt lat="49.04969820332013" lon="6.343938599206281"><ele>222.75</ele><time>2026-04-20T12:45:10.999Z</time></trkpt><trkpt lat="49.0495651425436" lon="6.343942482369791"><ele>222.5</ele><time>2026-04-20T12:45:11.999Z</time></trkpt><trkpt lat="49.049432793955475" lon="6.343939460251177"><ele>222.25</ele><time>2026-04-20T12:45:12.999Z</time></trkpt><trkpt lat="49.04929222859566" lon="6.34392043029969"><ele>222.0</ele><time>2026-04-20T12:45:13.999Z</time></trkpt><trkpt lat="49.04915026268678" lon="6.343874976222334"><ele>220.75</ele><time>2026-04-20T12:45:14.999Z</time></trkpt><trkpt lat="49.04901480553884" lon="6.343822254615334"><ele>219.5</ele><time>2026-04-20T12:45:15.999Z</time></trkpt><trkpt lat="49.04888764074622" lon="6.343751409978822"><ele>218.25</ele><time>2026-04-20T12:45:16.999Z</time></trkpt><trkpt lat="49.04876941693959" lon="6.343662271830325"><ele>217.0</ele><time>2026-04-20T12:45:17.999Z</time></trkpt><trkpt lat="49.048658537755514" lon="6.343563360969007"><ele>217.0</ele><time>2026-04-20T12:45:18.999Z</time></trkpt><trkpt lat="49.048550184656946" lon="6.3434690038004895"><ele>217.0</ele><time>2026-04-20T12:45:19.999Z</time></trkpt><trkpt lat="49.04844459360571" lon="6.34337852568086"><ele>217.0</ele><time>2026-04-20T12:45:20.999Z</time></trkpt><trkpt lat="49.04834136522244" lon="6.343283839579117"><ele>217.0</ele><time>2026-04-20T12:45:21.999Z</time></trkpt><trkpt lat="49.048243305512344" lon="6.343192805318317"><ele>217.0</ele><time>2026-04-20T12:45:22.999Z</time></trkpt><trkpt lat="49.04814641335289" lon="6.343105636390031"><ele>217.0</ele><time>2026-04-20T12:45:23.999Z</time></trkpt><trkpt lat="49.04803690909812" lon="6.34301083528928"><ele>217.0</ele><time>2026-04-20T12:45:24.999Z</time></trkpt><trkpt lat="49.04792394748697" lon="6.342910329120432"><ele>217.0</ele><time>2026-04-20T12:45:25.999Z</time></trkpt><trkpt lat="49.04780799462162" lon="6.342801289884874"><ele>217.0</ele><time>2026-04-20T12:45:26.999Z</time></trkpt><trkpt lat="49.04769047249527" lon="6.342692587554191"><ele>217.0</ele><time>2026-04-20T12:45:27.999Z</time></trkpt><trkpt lat="49.04757277003211" lon="6.342582421566722"><ele>217.0</ele><time>2026-04-20T12:45:28.999Z</time></trkpt><trkpt lat="49.04745859768684" lon="6.342477903327238"><ele>217.0</ele><time>2026-04-20T12:45:29.999Z</time></trkpt><trkpt lat="49.04733999321476" lon="6.342376921225482"><ele>216.75</ele><time>2026-04-20T12:45:30.999Z</time></trkpt><trkpt lat="49.04722075499664" lon="6.342281580013847"><ele>216.5</ele><time>2026-04-20T12:45:31.999Z</time></trkpt><trkpt lat="49.047103902652466" lon="6.342200890359527"><ele>216.25</ele><time>2026-04-20T12:45:32.999Z</time></trkpt><trkpt lat="49.04697872826743" lon="6.342141888833486"><ele>216.0</ele><time>2026-04-20T12:45:33.999Z</time></trkpt><trkpt lat="49.04684971995442" lon="6.342110770751184"><ele>216.0</ele><time>2026-04-20T12:45:34.999Z</time></trkpt><trkpt lat="49.046717812839994" lon="6.3421014810551855"><ele>216.0</ele><time>2026-04-20T12:45:35.999Z</time></trkpt><trkpt lat="49.04657517907434" lon="6.342103470862586"><ele>216.0</ele><time>2026-04-20T12:45:36.999Z</time></trkpt><trkpt lat="49.04643463884158" lon="6.342112518994881"><ele>216.0</ele><time>2026-04-20T12:45:37.999Z</time></trkpt><trkpt lat="49.04630174854991" lon="6.342117377151718"><ele>215.25</ele><time>2026-04-20T12:45:38.999Z</time></trkpt><trkpt lat="49.04616901120881" lon="6.34212035878911"><ele>214.5</ele><time>2026-04-20T12:45:39.999Z</time></trkpt><trkpt lat="49.04603559604712" lon="6.342127512073283"><ele>213.75</ele><time>2026-04-20T12:45:40.999Z</time></trkpt><trkpt lat="49.04590501791708" lon="6.342139917708611"><ele>213.0</ele><time>2026-04-20T12:45:41.999Z</time></trkpt><trkpt lat="49.04577553744582" lon="6.3421441037781"><ele>213.0</ele><time>2026-04-20T12:45:42.999Z</time></trkpt><trkpt lat="49.04565018003379" lon="6.342149573131472"><ele>213.0</ele><time>2026-04-20T12:45:43.999Z</time></trkpt><trkpt lat="49.045527532520154" lon="6.342155342474544"><ele>213.0</ele><time>2026-04-20T12:45:44.999Z</time></trkpt><trkpt lat="49.04541215489171" lon="6.342159611047276"><ele>213.0</ele><time>2026-04-20T12:45:45.999Z</time></trkpt><trkpt lat="49.045300729523255" lon="6.342167254160402"><ele>213.0</ele><time>2026-04-20T12:45:46.999Z</time></trkpt><trkpt lat="49.04519768000393" lon="6.342149800810257"><ele>213.0</ele><time>2026-04-20T12:45:47.999Z</time></trkpt><trkpt lat="49.04510130658335" lon="6.342086622280141"><ele>213.0</ele><time>2026-04-20T12:45:48.999Z</time></trkpt><trkpt lat="49.04501184362462" lon="6.341972913847708"><ele>213.0</ele><time>2026-04-20T12:45:49.999Z</time></trkpt><trkpt lat="49.0449401368703" lon="6.341826747270359"><ele>213.0</ele><time>2026-04-20T12:45:50.999Z</time></trkpt><trkpt lat="49.044878901500766" lon="6.341658864971275"><ele>213.0</ele><time>2026-04-20T12:45:51.999Z</time></trkpt><trkpt lat="49.04482895943584" lon="6.341480396185645"><ele>213.0</ele><time>2026-04-20T12:45:52.999Z</time></trkpt><trkpt lat="49.04477776689369" lon="6.34129100319027"><ele>213.0</ele><time>2026-04-20T12:45:53.999Z</time></trkpt><trkpt lat="49.044728572558185" lon="6.341105735090371"><ele>213.0</ele><time>2026-04-20T12:45:54.999Z</time></trkpt><trkpt lat="49.04467736331262" lon="6.34092224627631"><ele>213.25</ele><time>2026-04-20T12:45:55.999Z</time></trkpt><trkpt lat="49.044621314651934" lon="6.340736456740287"><ele>213.5</ele><time>2026-04-20T12:45:56.999Z</time></trkpt><trkpt lat="49.0445711969762" lon="6.340547617739565"><ele>213.75</ele><time>2026-04-20T12:45:57.999Z</time></trkpt><trkpt lat="49.04451967809323" lon="6.340364821802223"><ele>214.0</ele><time>2026-04-20T12:45:58.999Z</time></trkpt><trkpt lat="49.044468322967944" lon="6.340187209529121"><ele>214.25</ele><time>2026-04-20T12:45:59.999Z</time></trkpt><trkpt lat="49.04441484968389" lon="6.340011782809331"><ele>214.5</ele><time>2026-04-20T12:46:00.999Z</time></trkpt><trkpt lat="49.044365612836884" lon="6.339836533621736"><ele>214.75</ele><time>2026-04-20T12:46:01.999Z</time></trkpt><trkpt lat="49.044314768898055" lon="6.339649671904302"><ele>215.0</ele><time>2026-04-20T12:46:02.999Z</time></trkpt><trkpt lat="49.04426973286526" lon="6.339462979103371"><ele>215.5</ele><time>2026-04-20T12:46:03.999Z</time></trkpt><trkpt lat="49.044225289221075" lon="6.339265744562601"><ele>216.0</ele><time>2026-04-20T12:46:04.999Z</time></trkpt><trkpt lat="49.0441787424913" lon="6.33906500932708"><ele>216.5</ele><time>2026-04-20T12:46:05.999Z</time></trkpt><trkpt lat="49.04413118369063" lon="6.33886923514846"><ele>217.0</ele><time>2026-04-20T12:46:06.999Z</time></trkpt><trkpt lat="49.04407987242211" lon="6.338683963039458"><ele>218.5</ele><time>2026-04-20T12:46:07.999Z</time></trkpt><trkpt lat="49.0440147858011" lon="6.33852170482771"><ele>220.0</ele><time>2026-04-20T12:46:08.999Z</time></trkpt><trkpt lat="49.04393694674259" lon="6.338375438775598"><ele>221.5</ele><time>2026-04-20T12:46:09.999Z</time></trkpt><trkpt lat="49.04384324978729" lon="6.338240785385471"><ele>223.0</ele><time>2026-04-20T12:46:10.999Z</time></trkpt><trkpt lat="49.0437471571307" lon="6.338142042429055"><ele>223.0</ele><time>2026-04-20T12:46:11.999Z</time></trkpt><trkpt lat="49.04366763672185" lon="6.338067162037534"><ele>223.0</ele><time>2026-04-20T12:46:12.999Z</time></trkpt><trkpt lat="49.04360350740587" lon="6.338013934054068"><ele>223.0</ele><time>2026-04-20T12:46:13.999Z</time></trkpt><trkpt lat="49.043526149888855" lon="6.337949088879934"><ele>223.0</ele><time>2026-04-20T12:46:16Z</time></trkpt><trkpt lat="49.043442434789775" lon="6.337956964334443"><ele>223.0</ele><time>2026-04-20T12:46:22Z</time></trkpt><trkpt lat="49.04335263675421" lon="6.338190413984668"><ele>223.0</ele><time>2026-04-20T12:46:24Z</time></trkpt><trkpt lat="49.04332509221073" lon="6.338326448706923"><ele>223.0</ele><time>2026-04-20T12:46:25Z</time></trkpt><trkpt lat="49.043290067816116" lon="6.33848133827096"><ele>223.0</ele><time>2026-04-20T12:46:26Z</time></trkpt><trkpt lat="49.04325023853549" lon="6.338643732344472"><ele>223.0</ele><time>2026-04-20T12:46:27Z</time></trkpt><trkpt lat="49.04320333132784" lon="6.3388231052158535"><ele>223.0</ele><time>2026-04-20T12:46:28Z</time></trkpt><trkpt lat="49.04315137725406" lon="6.339008846157979"><ele>223.75</ele><time>2026-04-20T12:46:29Z</time></trkpt><trkpt lat="49.043096751907214" lon="6.339211912370836"><ele>224.5</ele><time>2026-04-20T12:46:30Z</time></trkpt><trkpt lat="49.04304213661271" lon="6.339419933341177"><ele>225.25</ele><time>2026-04-20T12:46:31Z</time></trkpt><trkpt lat="49.042987518204015" lon="6.33962960243667"><ele>226.0</ele><time>2026-04-20T12:46:32Z</time></trkpt><trkpt lat="49.04292884566321" lon="6.339851293139143"><ele>224.5</ele><time>2026-04-20T12:46:33Z</time></trkpt><trkpt lat="49.0428773119187" lon="6.340065685090011"><ele>223.0</ele><time>2026-04-20T12:46:34Z</time></trkpt><trkpt lat="49.042821998356686" lon="6.340275312201905"><ele>221.5</ele><time>2026-04-20T12:46:35Z</time></trkpt><trkpt lat="49.04277023772841" lon="6.340484676993062"><ele>220.0</ele><time>2026-04-20T12:46:36Z</time></trkpt><trkpt lat="49.042718894393" lon="6.340687630811357"><ele>219.25</ele><time>2026-04-20T12:46:37Z</time></trkpt><trkpt lat="49.04266811294211" lon="6.340886985414645"><ele>218.5</ele><time>2026-04-20T12:46:38Z</time></trkpt><trkpt lat="49.04261342121261" lon="6.341090820183503"><ele>217.75</ele><time>2026-04-20T12:46:39Z</time></trkpt><trkpt lat="49.04255781066195" lon="6.34129229722114"><ele>217.0</ele><time>2026-04-20T12:46:40Z</time></trkpt><trkpt lat="49.04250396079587" lon="6.34149431736402"><ele>216.75</ele><time>2026-04-20T12:46:41Z</time></trkpt><trkpt lat="49.0424503899682" lon="6.3416781505655395"><ele>216.5</ele><time>2026-04-20T12:46:42Z</time></trkpt><trkpt lat="49.042400962071504" lon="6.341867429640707"><ele>216.25</ele><time>2026-04-20T12:46:43Z</time></trkpt><trkpt lat="49.04234907613893" lon="6.342065072919726"><ele>216.0</ele><time>2026-04-20T12:46:44Z</time></trkpt><trkpt lat="49.04229229686429" lon="6.34226448692309"><ele>216.0</ele><time>2026-04-20T12:46:45Z</time></trkpt><trkpt lat="49.042236845617225" lon="6.342466227381504"><ele>216.0</ele><time>2026-04-20T12:46:46Z</time></trkpt><trkpt lat="49.04218145811125" lon="6.342670025729244"><ele>216.0</ele><time>2026-04-20T12:46:47Z</time></trkpt><trkpt lat="49.04212597421791" lon="6.342875138195736"><ele>216.0</ele><time>2026-04-20T12:46:48Z</time></trkpt><trkpt lat="49.04207355791997" lon="6.343078044499302"><ele>216.0</ele><time>2026-04-20T12:46:49Z</time></trkpt><trkpt lat="49.04201923679002" lon="6.343276990145536"><ele>216.0</ele><time>2026-04-20T12:46:50Z</time></trkpt><trkpt lat="49.04196377081681" lon="6.343475258441556"><ele>216.0</ele><time>2026-04-20T12:46:51Z</time></trkpt><trkpt lat="49.041909727710035" lon="6.343674312343654"><ele>216.0</ele><time>2026-04-20T12:46:52Z</time></trkpt><trkpt lat="49.041856949577856" lon="6.343874756891125"><ele>216.0</ele><time>2026-04-20T12:46:53Z</time></trkpt><trkpt lat="49.04180402752119" lon="6.344065599694725"><ele>216.0</ele><time>2026-04-20T12:46:54Z</time></trkpt><trkpt lat="49.04175242337111" lon="6.3442584590238305"><ele>216.0</ele><time>2026-04-20T12:46:55Z</time></trkpt><trkpt lat="49.04170224159882" lon="6.344452448240972"><ele>216.0</ele><time>2026-04-20T12:46:56Z</time></trkpt><trkpt lat="49.041647986149336" lon="6.344647962117535"><ele>217.5</ele><time>2026-04-20T12:46:57Z</time></trkpt><trkpt lat="49.04159682832143" lon="6.3448454735988395"><ele>219.0</ele><time>2026-04-20T12:46:58Z</time></trkpt><trkpt lat="49.041544228482955" lon="6.345042286165252"><ele>220.5</ele><time>2026-04-20T12:46:59Z</time></trkpt><trkpt lat="49.04148890590465" lon="6.345242084065376"><ele>222.0</ele><time>2026-04-20T12:47:00Z</time></trkpt><trkpt lat="49.041434540198914" lon="6.345439115888148"><ele>221.5</ele><time>2026-04-20T12:47:01Z</time></trkpt><trkpt lat="49.04138036720013" lon="6.345639363180969"><ele>221.0</ele><time>2026-04-20T12:47:02Z</time></trkpt><trkpt lat="49.04132096765305" lon="6.34584386438147"><ele>220.5</ele><time>2026-04-20T12:47:03Z</time></trkpt><trkpt lat="49.041269330961896" lon="6.346049968508456"><ele>220.0</ele><time>2026-04-20T12:47:04Z</time></trkpt><trkpt lat="49.04121822100597" lon="6.346249848302881"><ele>219.5</ele><time>2026-04-20T12:47:05Z</time></trkpt><trkpt lat="49.04116488055216" lon="6.3464512839865"><ele>219.0</ele><time>2026-04-20T12:47:06Z</time></trkpt><trkpt lat="49.041114579021894" lon="6.346640426899586"><ele>218.5</ele><time>2026-04-20T12:47:07Z</time></trkpt><trkpt lat="49.04106230004015" lon="6.346826484074786"><ele>218.0</ele><time>2026-04-20T12:47:07.999Z</time></trkpt><trkpt lat="49.04100900587094" lon="6.347024143706965"><ele>218.0</ele><time>2026-04-20T12:47:08.999Z</time></trkpt><trkpt lat="49.04095443263607" lon="6.347219318765006"><ele>218.0</ele><time>2026-04-20T12:47:09.999Z</time></trkpt><trkpt lat="49.04090755783149" lon="6.347415698403404"><ele>218.0</ele><time>2026-04-20T12:47:10.999Z</time></trkpt><trkpt lat="49.0408520752087" lon="6.347613476853643"><ele>218.0</ele><time>2026-04-20T12:47:11.999Z</time></trkpt><trkpt lat="49.04079990023695" lon="6.3478099175136276"><ele>218.0</ele><time>2026-04-20T12:47:12.999Z</time></trkpt><trkpt lat="49.04075181541565" lon="6.348006089342601"><ele>218.0</ele><time>2026-04-20T12:47:13.999Z</time></trkpt><trkpt lat="49.04069955704674" lon="6.348197962174677"><ele>218.0</ele><time>2026-04-20T12:47:14.999Z</time></trkpt><trkpt lat="49.04064510686456" lon="6.348394732944859"><ele>218.0</ele><time>2026-04-20T12:47:15.999Z</time></trkpt><trkpt lat="49.0405902133891" lon="6.348595477152461"><ele>217.5</ele><time>2026-04-20T12:47:16.999Z</time></trkpt><trkpt lat="49.04053365292462" lon="6.348801763225041"><ele>217.0</ele><time>2026-04-20T12:47:17.999Z</time></trkpt><trkpt lat="49.040483515724475" lon="6.349003658470921"><ele>216.5</ele><time>2026-04-20T12:47:18.999Z</time></trkpt><trkpt lat="49.04042906804633" lon="6.349203136604594"><ele>216.0</ele><time>2026-04-20T12:47:19.999Z</time></trkpt><trkpt lat="49.04037084570185" lon="6.349414170878442"><ele>215.75</ele><time>2026-04-20T12:47:20.999Z</time></trkpt><trkpt lat="49.040316623336324" lon="6.349616516795931"><ele>215.5</ele><time>2026-04-20T12:47:21.999Z</time></trkpt><trkpt lat="49.04026087614066" lon="6.349816373840246"><ele>215.25</ele><time>2026-04-20T12:47:22.999Z</time></trkpt><trkpt lat="49.040205449126226" lon="6.350017048342215"><ele>215.0</ele><time>2026-04-20T12:47:23.999Z</time></trkpt><trkpt lat="49.04014668945253" lon="6.3502196444117756"><ele>215.5</ele><time>2026-04-20T12:47:24.999Z</time></trkpt><trkpt lat="49.04009109819448" lon="6.350422454875376"><ele>216.0</ele><time>2026-04-20T12:47:25.999Z</time></trkpt><trkpt lat="49.040037667850086" lon="6.350626492898891"><ele>216.5</ele><time>2026-04-20T12:47:26.999Z</time></trkpt><trkpt lat="49.03998521232821" lon="6.350829111733734"><ele>217.0</ele><time>2026-04-20T12:47:27.999Z</time></trkpt><trkpt lat="49.03993230658658" lon="6.351027339752962"><ele>218.0</ele><time>2026-04-20T12:47:28.999Z</time></trkpt><trkpt lat="49.03987659401794" lon="6.351230732458346"><ele>219.0</ele><time>2026-04-20T12:47:29.999Z</time></trkpt><trkpt lat="49.03982339941771" lon="6.351433260207912"><ele>220.0</ele><time>2026-04-20T12:47:30.999Z</time></trkpt><trkpt lat="49.039771143507544" lon="6.351623036869523"><ele>221.0</ele><time>2026-04-20T12:47:31.999Z</time></trkpt><trkpt lat="49.039720027419776" lon="6.351819339499591"><ele>221.25</ele><time>2026-04-20T12:47:32.999Z</time></trkpt><trkpt lat="49.039663417091404" lon="6.352020733920274"><ele>221.5</ele><time>2026-04-20T12:47:33.999Z</time></trkpt><trkpt lat="49.039606938260775" lon="6.352227859428058"><ele>221.75</ele><time>2026-04-20T12:47:34.999Z</time></trkpt><trkpt lat="49.03955159405579" lon="6.352426344707017"><ele>222.0</ele><time>2026-04-20T12:47:35.999Z</time></trkpt><trkpt lat="49.039495538540706" lon="6.352623641626523"><ele>222.0</ele><time>2026-04-20T12:47:36.999Z</time></trkpt><trkpt lat="49.03944200529859" lon="6.352821425330815"><ele>222.0</ele><time>2026-04-20T12:47:37.999Z</time></trkpt><trkpt lat="49.03938653971696" lon="6.353025447097276"><ele>222.0</ele><time>2026-04-20T12:47:38.999Z</time></trkpt><trkpt lat="49.0393311360862" lon="6.3532269697736306"><ele>222.0</ele><time>2026-04-20T12:47:39.999Z</time></trkpt><trkpt lat="49.03927494357537" lon="6.353431931007222"><ele>222.0</ele><time>2026-04-20T12:47:40.999Z</time></trkpt><trkpt lat="49.039220073893055" lon="6.353636371249321"><ele>222.0</ele><time>2026-04-20T12:47:41.999Z</time></trkpt><trkpt lat="49.039167271000274" lon="6.353835515151551"><ele>222.0</ele><time>2026-04-20T12:47:42.999Z</time></trkpt><trkpt lat="49.039112793594846" lon="6.3540320717570555"><ele>222.0</ele><time>2026-04-20T12:47:43.999Z</time></trkpt><trkpt lat="49.039058179616596" lon="6.354235155252644"><ele>222.0</ele><time>2026-04-20T12:47:44.999Z</time></trkpt><trkpt lat="49.03900360526449" lon="6.354438834917582"><ele>222.0</ele><time>2026-04-20T12:47:45.999Z</time></trkpt><trkpt lat="49.038947999355734" lon="6.354645157010142"><ele>222.0</ele><time>2026-04-20T12:47:46.999Z</time></trkpt><trkpt lat="49.03889108611191" lon="6.35485411123657"><ele>222.0</ele><time>2026-04-20T12:47:47.999Z</time></trkpt><trkpt lat="49.038833321262814" lon="6.355063115873966"><ele>221.75</ele><time>2026-04-20T12:47:48.999Z</time></trkpt><trkpt lat="49.03877487079345" lon="6.355273019498469"><ele>221.5</ele><time>2026-04-20T12:47:49.999Z</time></trkpt><trkpt lat="49.03871954781668" lon="6.355480372604761"><ele>221.25</ele><time>2026-04-20T12:47:50.999Z</time></trkpt><trkpt lat="49.038665612975834" lon="6.355680962070128"><ele>221.0</ele><time>2026-04-20T12:47:51.999Z</time></trkpt><trkpt lat="49.03861040458779" lon="6.355885814020269"><ele>220.75</ele><time>2026-04-20T12:47:52.999Z</time></trkpt><trkpt lat="49.03855698109866" lon="6.356088539454925"><ele>220.5</ele><time>2026-04-20T12:47:53.999Z</time></trkpt><trkpt lat="49.038503872507924" lon="6.356290184545991"><ele>220.25</ele><time>2026-04-20T12:47:54.999Z</time></trkpt><trkpt lat="49.03844692311374" lon="6.356489052490151"><ele>220.0</ele><time>2026-04-20T12:47:55.999Z</time></trkpt><trkpt lat="49.03839424440726" lon="6.356684120565928"><ele>219.5</ele><time>2026-04-20T12:47:56.999Z</time></trkpt><trkpt lat="49.038341489973355" lon="6.356882418349841"><ele>219.0</ele><time>2026-04-20T12:47:57.999Z</time></trkpt><trkpt lat="49.038296719469884" lon="6.357080912808801"><ele>218.5</ele><time>2026-04-20T12:47:58.999Z</time></trkpt><trkpt lat="49.03825364854382" lon="6.357289602518885"><ele>218.0</ele><time>2026-04-20T12:47:59.999Z</time></trkpt><trkpt lat="49.038217196665904" lon="6.357498521493482"><ele>217.75</ele><time>2026-04-20T12:48:00.999Z</time></trkpt><trkpt lat="49.03818794032285" lon="6.357709713180203"><ele>217.5</ele><time>2026-04-20T12:48:01.999Z</time></trkpt><trkpt lat="49.03816580993602" lon="6.357930955214555"><ele>217.25</ele><time>2026-04-20T12:48:02.999Z</time></trkpt><trkpt lat="49.03815389464477" lon="6.35814685851732"><ele>217.0</ele><time>2026-04-20T12:48:03.999Z</time></trkpt><trkpt lat="49.03814653577112" lon="6.358364380894412"><ele>217.5</ele><time>2026-04-20T12:48:04.999Z</time></trkpt><trkpt lat="49.0381414278373" lon="6.3585871414357165"><ele>218.0</ele><time>2026-04-20T12:48:05.999Z</time></trkpt><trkpt lat="49.03814022372042" lon="6.358812579302607"><ele>218.5</ele><time>2026-04-20T12:48:06.999Z</time></trkpt><trkpt lat="49.038140193289436" lon="6.359034125953287"><ele>219.0</ele><time>2026-04-20T12:48:07.999Z</time></trkpt><trkpt lat="49.03813754449523" lon="6.359251294888645"><ele>219.25</ele><time>2026-04-20T12:48:08.999Z</time></trkpt><trkpt lat="49.03813219052538" lon="6.359467867524044"><ele>219.5</ele><time>2026-04-20T12:48:09.999Z</time></trkpt><trkpt lat="49.03812858989044" lon="6.359687166884792"><ele>219.75</ele><time>2026-04-20T12:48:10.999Z</time></trkpt><trkpt lat="49.03812698825625" lon="6.359908840165489"><ele>220.0</ele><time>2026-04-20T12:48:11.999Z</time></trkpt><trkpt lat="49.038126017249795" lon="6.360131032795023"><ele>220.0</ele><time>2026-04-20T12:48:12.999Z</time></trkpt><trkpt lat="49.03812183831005" lon="6.360347695350344"><ele>220.0</ele><time>2026-04-20T12:48:13.999Z</time></trkpt><trkpt lat="49.03811902901857" lon="6.360553141443908"><ele>220.0</ele><time>2026-04-20T12:48:14.999Z</time></trkpt><trkpt lat="49.03811678100547" lon="6.360770417777661"><ele>220.0</ele><time>2026-04-20T12:48:15.999Z</time></trkpt><trkpt lat="49.03811686448271" lon="6.360979380309689"><ele>220.5</ele><time>2026-04-20T12:48:16.999Z</time></trkpt><trkpt lat="49.038116573101725" lon="6.361182770209819"><ele>221.0</ele><time>2026-04-20T12:48:17.999Z</time></trkpt><trkpt lat="49.03811546715921" lon="6.361386960264917"><ele>221.5</ele><time>2026-04-20T12:48:18.999Z</time></trkpt><trkpt lat="49.038116448921755" lon="6.361592276478667"><ele>222.0</ele><time>2026-04-20T12:48:19.999Z</time></trkpt><trkpt lat="49.03811572687498" lon="6.3617964004065986"><ele>222.25</ele><time>2026-04-20T12:48:20.999Z</time></trkpt><trkpt lat="49.0381097909398" lon="6.36199002180143"><ele>222.5</ele><time>2026-04-20T12:48:22Z</time></trkpt><trkpt lat="49.03810851753253" lon="6.362194915682596"><ele>222.75</ele><time>2026-04-20T12:48:23Z</time></trkpt><trkpt lat="49.03810814472058" lon="6.3623994038371885"><ele>223.0</ele><time>2026-04-20T12:48:24Z</time></trkpt><trkpt lat="49.038105456493504" lon="6.36259679397923"><ele>223.0</ele><time>2026-04-20T12:48:25Z</time></trkpt><trkpt lat="49.038105470021875" lon="6.362794229104134"><ele>223.0</ele><time>2026-04-20T12:48:26Z</time></trkpt><trkpt lat="49.038101175244826" lon="6.362985228979164"><ele>223.0</ele><time>2026-04-20T12:48:27Z</time></trkpt><trkpt lat="49.03809751867375" lon="6.363180489780381"><ele>223.0</ele><time>2026-04-20T12:48:28Z</time></trkpt><trkpt lat="49.038096321879216" lon="6.363360537343367"><ele>223.0</ele><time>2026-04-20T12:48:29Z</time></trkpt><trkpt lat="49.038097791234385" lon="6.363534258701576"><ele>223.0</ele><time>2026-04-20T12:48:30Z</time></trkpt><trkpt lat="49.03809724640615" lon="6.36369572791563"><ele>223.0</ele><time>2026-04-20T12:48:31Z</time></trkpt><trkpt lat="49.038097750101336" lon="6.363841469697742"><ele>223.0</ele><time>2026-04-20T12:48:32Z</time></trkpt><trkpt lat="49.03808117966252" lon="6.363967708704351"><ele>223.0</ele><time>2026-04-20T12:48:33Z</time></trkpt><trkpt lat="49.03807999113332" lon="6.364094407152381"><ele>222.60000000000002</ele><time>2026-04-20T12:48:34Z</time></trkpt><trkpt lat="49.03807982148312" lon="6.364221835622312"><ele>222.20000000000002</ele><time>2026-04-20T12:48:35Z</time></trkpt><trkpt lat="49.03807707992474" lon="6.364358880262157"><ele>221.8</ele><time>2026-04-20T12:48:36Z</time></trkpt><trkpt lat="49.038077913124845" lon="6.364493923097877"><ele>221.4</ele><time>2026-04-20T12:48:37Z</time></trkpt><trkpt lat="49.03807427624443" lon="6.364644368459727"><ele>221.0</ele><time>2026-04-20T12:48:38Z</time></trkpt><trkpt lat="49.038071747686715" lon="6.364794839703169"><ele>220.8</ele><time>2026-04-20T12:48:39Z</time></trkpt><trkpt lat="49.038074451221945" lon="6.364947269917401"><ele>220.60000000000002</ele><time>2026-04-20T12:48:40Z</time></trkpt><trkpt lat="49.03806959232789" lon="6.365097422941447"><ele>220.4</ele><time>2026-04-20T12:48:41Z</time></trkpt><trkpt lat="49.03806392829256" lon="6.3652605208474204"><ele>220.2</ele><time>2026-04-20T12:48:42Z</time></trkpt><trkpt lat="49.03805574691141" lon="6.365414477757917"><ele>220.0</ele><time>2026-04-20T12:48:43Z</time></trkpt><trkpt lat="49.038045111178846" lon="6.365566921451418"><ele>219.8</ele><time>2026-04-20T12:48:44Z</time></trkpt><trkpt lat="49.03801110156229" lon="6.365722665244855"><ele>219.6</ele><time>2026-04-20T12:48:45Z</time></trkpt><trkpt lat="49.037964710600505" lon="6.365852049783903"><ele>219.39999999999998</ele><time>2026-04-20T12:48:46Z</time></trkpt><trkpt lat="49.03789923710464" lon="6.365977266538043"><ele>219.2</ele><time>2026-04-20T12:48:47Z</time></trkpt><trkpt lat="49.037825639923824" lon="6.3660975221751315"><ele>219.0</ele><time>2026-04-20T12:48:48Z</time></trkpt><trkpt lat="49.03774977078632" lon="6.36621370293711"><ele>219.0</ele><time>2026-04-20T12:48:49Z</time></trkpt><trkpt lat="49.03767792876067" lon="6.36632958094865"><ele>218.99999999999997</ele><time>2026-04-20T12:48:50Z</time></trkpt><trkpt lat="49.03761688713656" lon="6.366427379450935"><ele>218.99999999999997</ele><time>2026-04-20T12:48:51Z</time></trkpt><trkpt lat="49.03753373406464" lon="6.366547011135778"><ele>219.0</ele><time>2026-04-20T12:48:52Z</time></trkpt><trkpt lat="49.03746897547093" lon="6.3666575869204225"><ele>219.0</ele><time>2026-04-20T12:48:53Z</time></trkpt><trkpt lat="49.037405713231735" lon="6.36678613054749"><ele>219.5</ele><time>2026-04-20T12:48:54Z</time></trkpt><trkpt lat="49.03732826723673" lon="6.366910611908984"><ele>220.0</ele><time>2026-04-20T12:48:55Z</time></trkpt><trkpt lat="49.037242535341974" lon="6.3670420330343624"><ele>220.5</ele><time>2026-04-20T12:48:56Z</time></trkpt><trkpt lat="49.0371514643885" lon="6.367175633302624"><ele>221.0</ele><time>2026-04-20T12:48:57Z</time></trkpt><trkpt lat="49.03705801373681" lon="6.367309966287746"><ele>221.0</ele><time>2026-04-20T12:48:58Z</time></trkpt><trkpt lat="49.03696400663912" lon="6.367455681242581"><ele>221.0</ele><time>2026-04-20T12:48:59Z</time></trkpt><trkpt lat="49.03687774820289" lon="6.36759086872778"><ele>221.0</ele><time>2026-04-20T12:49:00Z</time></trkpt><trkpt lat="49.036783355228756" lon="6.367726985013262"><ele>221.0</ele><time>2026-04-20T12:49:01Z</time></trkpt><trkpt lat="49.0366817891782" lon="6.367872741358891"><ele>221.5</ele><time>2026-04-20T12:49:02Z</time></trkpt><trkpt lat="49.03657990714029" lon="6.368020517217599"><ele>222.0</ele><time>2026-04-20T12:49:03Z</time></trkpt><trkpt lat="49.03648912406189" lon="6.368180334119429"><ele>222.5</ele><time>2026-04-20T12:49:04Z</time></trkpt><trkpt lat="49.0363957695248" lon="6.368326421875909"><ele>223.0</ele><time>2026-04-20T12:49:05Z</time></trkpt><trkpt lat="49.036297303970905" lon="6.368468694272416"><ele>223.5</ele><time>2026-04-20T12:49:06Z</time></trkpt><trkpt lat="49.03619763307905" lon="6.3686160279939426"><ele>224.0</ele><time>2026-04-20T12:49:07Z</time></trkpt><trkpt lat="49.03609718088577" lon="6.3687683853486465"><ele>224.5</ele><time>2026-04-20T12:49:08Z</time></trkpt><trkpt lat="49.03599790695689" lon="6.368913491712961"><ele>225.0</ele><time>2026-04-20T12:49:09Z</time></trkpt><trkpt lat="49.03590315569393" lon="6.369047561806958"><ele>225.0</ele><time>2026-04-20T12:49:10Z</time></trkpt><trkpt lat="49.03580370480174" lon="6.369190205812196"><ele>225.0</ele><time>2026-04-20T12:49:11Z</time></trkpt><trkpt lat="49.03569781646194" lon="6.36932754651665"><ele>225.0</ele><time>2026-04-20T12:49:12Z</time></trkpt><trkpt lat="49.035587446217036" lon="6.369449722202877"><ele>225.0</ele><time>2026-04-20T12:49:13Z</time></trkpt><trkpt lat="49.035474716185625" lon="6.369559445426745"><ele>224.75</ele><time>2026-04-20T12:49:14Z</time></trkpt><trkpt lat="49.035354825631046" lon="6.369660202183778"><ele>224.5</ele><time>2026-04-20T12:49:15Z</time></trkpt><trkpt lat="49.03523231110092" lon="6.369754873833036"><ele>224.25</ele><time>2026-04-20T12:49:16Z</time></trkpt><trkpt lat="49.03510529743591" lon="6.369854488040798"><ele>224.0</ele><time>2026-04-20T12:49:16.999Z</time></trkpt><trkpt lat="49.03498633184118" lon="6.369948639182237"><ele>224.0</ele><time>2026-04-20T12:49:17.999Z</time></trkpt><trkpt lat="49.03486132383819" lon="6.3700466056632985"><ele>224.0</ele><time>2026-04-20T12:49:18.999Z</time></trkpt><trkpt lat="49.03473409472848" lon="6.370150064255229"><ele>224.0</ele><time>2026-04-20T12:49:19.999Z</time></trkpt><trkpt lat="49.03460840173052" lon="6.370249584865883"><ele>224.0</ele><time>2026-04-20T12:49:20.999Z</time></trkpt><trkpt lat="49.03448561947628" lon="6.370349668662589"><ele>224.0</ele><time>2026-04-20T12:49:21.999Z</time></trkpt><trkpt lat="49.034359050391025" lon="6.370452831189717"><ele>224.0</ele><time>2026-04-20T12:49:22.999Z</time></trkpt><trkpt lat="49.03423109323475" lon="6.370558896177165"><ele>224.0</ele><time>2026-04-20T12:49:23.999Z</time></trkpt><trkpt lat="49.03410674834181" lon="6.370654568808649"><ele>224.0</ele><time>2026-04-20T12:49:24.999Z</time></trkpt><trkpt lat="49.03398085144823" lon="6.370751485576983"><ele>223.25</ele><time>2026-04-20T12:49:25.999Z</time></trkpt><trkpt lat="49.03385496533247" lon="6.37084870973023"><ele>222.5</ele><time>2026-04-20T12:49:26.999Z</time></trkpt><trkpt lat="49.03373169537239" lon="6.370944591768608"><ele>221.75</ele><time>2026-04-20T12:49:27.999Z</time></trkpt><trkpt lat="49.03360794267529" lon="6.37104328269778"><ele>221.0</ele><time>2026-04-20T12:49:28.999Z</time></trkpt><trkpt lat="49.03348549347751" lon="6.371144856453292"><ele>221.0</ele><time>2026-04-20T12:49:29.999Z</time></trkpt><trkpt lat="49.03336483070134" lon="6.371239024800732"><ele>221.0</ele><time>2026-04-20T12:49:30.999Z</time></trkpt><trkpt lat="49.0332433356733" lon="6.371337566266673"><ele>221.0</ele><time>2026-04-20T12:49:31.999Z</time></trkpt><trkpt lat="49.03312291800999" lon="6.371434648376305"><ele>221.0</ele><time>2026-04-20T12:49:32.999Z</time></trkpt><trkpt lat="49.033003194858935" lon="6.371528283408072"><ele>220.25</ele><time>2026-04-20T12:49:33.999Z</time></trkpt><trkpt lat="49.0328824805128" lon="6.371625780153163"><ele>219.5</ele><time>2026-04-20T12:49:34.999Z</time></trkpt><trkpt lat="49.03276174229697" lon="6.3717182437450814"><ele>218.75</ele><time>2026-04-20T12:49:35.999Z</time></trkpt><trkpt lat="49.03264692501074" lon="6.371808247239653"><ele>218.0</ele><time>2026-04-20T12:49:36.999Z</time></trkpt><trkpt lat="49.03253167187699" lon="6.37190592302373"><ele>218.0</ele><time>2026-04-20T12:49:37.999Z</time></trkpt><trkpt lat="49.032411278710775" lon="6.372000161430492"><ele>218.0</ele><time>2026-04-20T12:49:38.999Z</time></trkpt><trkpt lat="49.03229254446665" lon="6.372092066247416"><ele>218.0</ele><time>2026-04-20T12:49:39.999Z</time></trkpt><trkpt lat="49.032174480893744" lon="6.372184205217009"><ele>218.0</ele><time>2026-04-20T12:49:40.999Z</time></trkpt><trkpt lat="49.03205329294432" lon="6.3722814050754515"><ele>218.0</ele><time>2026-04-20T12:49:41.999Z</time></trkpt><trkpt lat="49.03192918836786" lon="6.372379414154762"><ele>218.0</ele><time>2026-04-20T12:49:42.999Z</time></trkpt><trkpt lat="49.03180649266814" lon="6.372476430520001"><ele>218.0</ele><time>2026-04-20T12:49:43.999Z</time></trkpt><trkpt lat="49.031684422154804" lon="6.372572601656893"><ele>218.0</ele><time>2026-04-20T12:49:44.999Z</time></trkpt><trkpt lat="49.03156336506635" lon="6.37267182200614"><ele>218.0</ele><time>2026-04-20T12:49:45.999Z</time></trkpt><trkpt lat="49.03144129275758" lon="6.3727705889031885"><ele>218.0</ele><time>2026-04-20T12:49:46.999Z</time></trkpt><trkpt lat="49.03131829227683" lon="6.3728689395007265"><ele>218.0</ele><time>2026-04-20T12:49:47.999Z</time></trkpt><trkpt lat="49.03119626914978" lon="6.3729700726662735"><ele>218.0</ele><time>2026-04-20T12:49:48.999Z</time></trkpt><trkpt lat="49.03107587106509" lon="6.373067642946897"><ele>218.0</ele><time>2026-04-20T12:49:49.999Z</time></trkpt><trkpt lat="49.0309526376592" lon="6.373166688885485"><ele>218.0</ele><time>2026-04-20T12:49:50.999Z</time></trkpt><trkpt lat="49.03082708813277" lon="6.373268953256927"><ele>218.0</ele><time>2026-04-20T12:49:51.999Z</time></trkpt><trkpt lat="49.03070047387393" lon="6.373366554795302"><ele>218.0</ele><time>2026-04-20T12:49:52.999Z</time></trkpt><trkpt lat="49.030574204521706" lon="6.373465956648634"><ele>218.0</ele><time>2026-04-20T12:49:53.999Z</time></trkpt><trkpt lat="49.03044673183629" lon="6.373567894814509"><ele>218.0</ele><time>2026-04-20T12:49:54.999Z</time></trkpt><trkpt lat="49.030321176215054" lon="6.373670534030754"><ele>218.0</ele><time>2026-04-20T12:49:55.999Z</time></trkpt><trkpt lat="49.03019430372119" lon="6.373774048570875"><ele>218.0</ele><time>2026-04-20T12:49:56.999Z</time></trkpt><trkpt lat="49.03006554955985" lon="6.373879067828188"><ele>218.25</ele><time>2026-04-20T12:49:57.999Z</time></trkpt><trkpt lat="49.02993669274544" lon="6.373983237138895"><ele>218.5</ele><time>2026-04-20T12:49:58.999Z</time></trkpt><trkpt lat="49.02980818469741" lon="6.374088075850132"><ele>218.75</ele><time>2026-04-20T12:49:59.999Z</time></trkpt><trkpt lat="49.02968496271354" lon="6.374185636205896"><ele>219.0</ele><time>2026-04-20T12:50:00.999Z</time></trkpt><trkpt lat="49.02955902638931" lon="6.3742832025746665"><ele>219.0</ele><time>2026-04-20T12:50:01.999Z</time></trkpt><trkpt lat="49.029430781603125" lon="6.374381807992338"><ele>219.0</ele><time>2026-04-20T12:50:02.999Z</time></trkpt><trkpt lat="49.02930009593586" lon="6.374488391883762"><ele>219.0</ele><time>2026-04-20T12:50:03.999Z</time></trkpt><trkpt lat="49.02917542957886" lon="6.374588961235692"><ele>219.0</ele><time>2026-04-20T12:50:04.999Z</time></trkpt><trkpt lat="49.02904820389766" lon="6.374688726761539"><ele>219.5</ele><time>2026-04-20T12:50:05.999Z</time></trkpt><trkpt lat="49.02891906887421" lon="6.3747892415331995"><ele>220.0</ele><time>2026-04-20T12:50:06.999Z</time></trkpt><trkpt lat="49.02879081511684" lon="6.374892037193299"><ele>220.5</ele><time>2026-04-20T12:50:07.999Z</time></trkpt><trkpt lat="49.028667712713016" lon="6.374993254451315"><ele>221.0</ele><time>2026-04-20T12:50:08.999Z</time></trkpt><trkpt lat="49.028544034867345" lon="6.3750939504828645"><ele>221.0</ele><time>2026-04-20T12:50:09.999Z</time></trkpt><trkpt lat="49.02841680903115" lon="6.375193177592129"><ele>221.0</ele><time>2026-04-20T12:50:10.999Z</time></trkpt><trkpt lat="49.02829482105193" lon="6.375293989827095"><ele>221.0</ele><time>2026-04-20T12:50:11.999Z</time></trkpt><trkpt lat="49.02817176304893" lon="6.375391975298988"><ele>221.0</ele><time>2026-04-20T12:50:12.999Z</time></trkpt><trkpt lat="49.02804602980359" lon="6.3754922040639155"><ele>220.75</ele><time>2026-04-20T12:50:13.999Z</time></trkpt><trkpt lat="49.02792137560872" lon="6.375593730946681"><ele>220.5</ele><time>2026-04-20T12:50:14.999Z</time></trkpt><trkpt lat="49.02779729751866" lon="6.375692484581521"><ele>220.25</ele><time>2026-04-20T12:50:15.999Z</time></trkpt><trkpt lat="49.02766911449921" lon="6.3757877079998675"><ele>220.0</ele><time>2026-04-20T12:50:16.999Z</time></trkpt><trkpt lat="49.02754169646674" lon="6.375893081462203"><ele>220.75</ele><time>2026-04-20T12:50:17.999Z</time></trkpt><trkpt lat="49.027424221993904" lon="6.375997410607086"><ele>221.5</ele><time>2026-04-20T12:50:18.999Z</time></trkpt><trkpt lat="49.027308776647814" lon="6.376094006599951"><ele>222.25</ele><time>2026-04-20T12:50:19.999Z</time></trkpt><trkpt lat="49.02719816685609" lon="6.376185548025715"><ele>223.0</ele><time>2026-04-20T12:50:20.999Z</time></trkpt><trkpt lat="49.02709740885053" lon="6.3762764515116315"><ele>222.33333333333331</ele><time>2026-04-20T12:50:21.999Z</time></trkpt><trkpt lat="49.02701105869878" lon="6.376369871994265"><ele>221.66666666666666</ele><time>2026-04-20T12:50:22.999Z</time></trkpt><trkpt lat="49.02693134787394" lon="6.376451914777979"><ele>221.0</ele><time>2026-04-20T12:50:23.999Z</time></trkpt><trkpt lat="49.026853445928715" lon="6.376507861879352"><ele>220.33333333333331</ele><time>2026-04-20T12:50:24.999Z</time></trkpt><trkpt lat="49.02678497565792" lon="6.3765585556659605"><ele>219.66666666666666</ele><time>2026-04-20T12:50:25.999Z</time></trkpt><trkpt lat="49.02672746507704" lon="6.376601948028752"><ele>219.0</ele><time>2026-04-20T12:50:26.999Z</time></trkpt><trkpt lat="49.026650445202165" lon="6.376666068902723"><ele>219.0</ele><time>2026-04-20T12:50:29Z</time></trkpt><trkpt lat="49.026563775621106" lon="6.376718013899414"><ele>219.0</ele><time>2026-04-20T12:50:32Z</time></trkpt><trkpt lat="49.02665528012331" lon="6.376988913714022"><ele>219.0</ele><time>2026-04-20T12:50:34Z</time></trkpt><trkpt lat="49.02670916562376" lon="6.3770753804729114"><ele>219.0</ele><time>2026-04-20T12:50:35Z</time></trkpt><trkpt lat="49.02676120064978" lon="6.377190632359772"><ele>218.79999999999998</ele><time>2026-04-20T12:50:36Z</time></trkpt><trkpt lat="49.02681400309817" lon="6.377313854926534"><ele>218.59999999999997</ele><time>2026-04-20T12:50:37Z</time></trkpt><trkpt lat="49.026874682135876" lon="6.377452029180648"><ele>218.4</ele><time>2026-04-20T12:50:38Z</time></trkpt><trkpt lat="49.026932201649444" lon="6.377601795314223"><ele>218.2</ele><time>2026-04-20T12:50:39Z</time></trkpt><trkpt lat="49.026997005253115" lon="6.377752249096202"><ele>218.0</ele><time>2026-04-20T12:50:40Z</time></trkpt><trkpt lat="49.02706803198624" lon="6.377915716435628"><ele>218.0</ele><time>2026-04-20T12:50:41Z</time></trkpt><trkpt lat="49.027141570634036" lon="6.378088039146794"><ele>218.0</ele><time>2026-04-20T12:50:42Z</time></trkpt><trkpt lat="49.02721355557289" lon="6.3782571762620766"><ele>218.0</ele><time>2026-04-20T12:50:43Z</time></trkpt><trkpt lat="49.02728814859278" lon="6.378431576524907"><ele>218.0</ele><time>2026-04-20T12:50:44Z</time></trkpt><trkpt lat="49.02736444647445" lon="6.378613443060915"><ele>218.0</ele><time>2026-04-20T12:50:45Z</time></trkpt><trkpt lat="49.02744048994004" lon="6.378796152231043"><ele>218.0</ele><time>2026-04-20T12:50:46Z</time></trkpt><trkpt lat="49.02751704777707" lon="6.378975483664862"><ele>218.0</ele><time>2026-04-20T12:50:47Z</time></trkpt><trkpt lat="49.027588363489556" lon="6.379152819267653"><ele>218.0</ele><time>2026-04-20T12:50:48Z</time></trkpt><trkpt lat="49.02766353670826" lon="6.379336207011349"><ele>217.75</ele><time>2026-04-20T12:50:49Z</time></trkpt><trkpt lat="49.02773963823835" lon="6.379519735168897"><ele>217.5</ele><time>2026-04-20T12:50:50Z</time></trkpt><trkpt lat="49.027812270578416" lon="6.379688070095666"><ele>217.25</ele><time>2026-04-20T12:50:51Z</time></trkpt><trkpt lat="49.027881229856504" lon="6.379849257949867"><ele>217.0</ele><time>2026-04-20T12:50:52Z</time></trkpt><trkpt lat="49.02795475693337" lon="6.380018201472126"><ele>217.0</ele><time>2026-04-20T12:50:53Z</time></trkpt><trkpt lat="49.02802655134381" lon="6.380199769764721"><ele>217.0</ele><time>2026-04-20T12:50:54Z</time></trkpt><trkpt lat="49.02810353198122" lon="6.380379366618614"><ele>217.0</ele><time>2026-04-20T12:50:55Z</time></trkpt><trkpt lat="49.02817816355183" lon="6.380560434121485"><ele>217.0</ele><time>2026-04-20T12:50:56Z</time></trkpt><trkpt lat="49.02824656790689" lon="6.380754465685767"><ele>217.0</ele><time>2026-04-20T12:50:57Z</time></trkpt><trkpt lat="49.02830537573465" lon="6.38095992526658"><ele>217.0</ele><time>2026-04-20T12:50:58Z</time></trkpt><trkpt lat="49.028348861650265" lon="6.3811639569392"><ele>217.0</ele><time>2026-04-20T12:50:59Z</time></trkpt><trkpt lat="49.028381936360034" lon="6.381376938375718"><ele>217.0</ele><time>2026-04-20T12:51:00Z</time></trkpt><trkpt lat="49.028396340275286" lon="6.381605072259843"><ele>217.0</ele><time>2026-04-20T12:51:01Z</time></trkpt><trkpt lat="49.02842399286381" lon="6.381828794673905"><ele>217.0</ele><time>2026-04-20T12:51:02Z</time></trkpt><trkpt lat="49.02844976791555" lon="6.38203731004182"><ele>217.0</ele><time>2026-04-20T12:51:03Z</time></trkpt><trkpt lat="49.02848889509113" lon="6.382244449211978"><ele>217.0</ele><time>2026-04-20T12:51:04Z</time></trkpt><trkpt lat="49.028513307483394" lon="6.382458832382724"><ele>217.0</ele><time>2026-04-20T12:51:05Z</time></trkpt><trkpt lat="49.02851857212295" lon="6.382679832422683"><ele>217.0</ele><time>2026-04-20T12:51:06Z</time></trkpt><trkpt lat="49.028545296494684" lon="6.38289167536293"><ele>217.0</ele><time>2026-04-20T12:51:07Z</time></trkpt><trkpt lat="49.02859743481451" lon="6.383089020788922"><ele>217.0</ele><time>2026-04-20T12:51:08Z</time></trkpt><trkpt lat="49.02862101519072" lon="6.383304489738668"><ele>216.75</ele><time>2026-04-20T12:51:09Z</time></trkpt><trkpt lat="49.02867407958833" lon="6.383504219504563"><ele>216.5</ele><time>2026-04-20T12:51:10Z</time></trkpt><trkpt lat="49.028701167297555" lon="6.383711521515902"><ele>216.25</ele><time>2026-04-20T12:51:11Z</time></trkpt><trkpt lat="49.028713738953684" lon="6.383930032946399"><ele>216.0</ele><time>2026-04-20T12:51:12Z</time></trkpt><trkpt lat="49.028721508695675" lon="6.38414433590906"><ele>216.0</ele><time>2026-04-20T12:51:13Z</time></trkpt><trkpt lat="49.028715702899234" lon="6.384366501582509"><ele>216.0</ele><time>2026-04-20T12:51:14Z</time></trkpt><trkpt lat="49.02871377661274" lon="6.384587997605361"><ele>216.0</ele><time>2026-04-20T12:51:15Z</time></trkpt><trkpt lat="49.02870909465989" lon="6.384804518347786"><ele>216.0</ele><time>2026-04-20T12:51:16Z</time></trkpt><trkpt lat="49.028703634609734" lon="6.38501282885017"><ele>216.0</ele><time>2026-04-20T12:51:17Z</time></trkpt><trkpt lat="49.028701272870556" lon="6.385226875775527"><ele>216.0</ele><time>2026-04-20T12:51:18Z</time></trkpt><trkpt lat="49.02870239919147" lon="6.385440343927709"><ele>216.0</ele><time>2026-04-20T12:51:18.999Z</time></trkpt><trkpt lat="49.02870875384746" lon="6.385635232281674"><ele>216.0</ele><time>2026-04-20T12:51:19.999Z</time></trkpt><trkpt lat="49.028723952984635" lon="6.385812923949732"><ele>216.20000000000002</ele><time>2026-04-20T12:51:20.999Z</time></trkpt><trkpt lat="49.0287555715136" lon="6.385975326144699"><ele>216.40000000000003</ele><time>2026-04-20T12:51:21.999Z</time></trkpt><trkpt lat="49.028809254812025" lon="6.386123418710118"><ele>216.6</ele><time>2026-04-20T12:51:22.999Z</time></trkpt><trkpt lat="49.02888167374618" lon="6.386243818808506"><ele>216.8</ele><time>2026-04-20T12:51:23.999Z</time></trkpt><trkpt lat="49.02898334939659" lon="6.386312990772482"><ele>217.0</ele><time>2026-04-20T12:51:24.999Z</time></trkpt><trkpt lat="49.029101343297434" lon="6.386356795911663"><ele>217.75</ele><time>2026-04-20T12:51:25.999Z</time></trkpt><trkpt lat="49.029223311896786" lon="6.386365722960959"><ele>218.5</ele><time>2026-04-20T12:51:26.999Z</time></trkpt><trkpt lat="49.02935198103766" lon="6.3863669060321575"><ele>219.25</ele><time>2026-04-20T12:51:27.999Z</time></trkpt><trkpt lat="49.02948545344758" lon="6.386379116178176"><ele>220.0</ele><time>2026-04-20T12:51:28.999Z</time></trkpt><trkpt lat="49.02961152338627" lon="6.386397239941738"><ele>220.0</ele><time>2026-04-20T12:51:29.999Z</time></trkpt><trkpt lat="49.02972807187288" lon="6.386413835143733"><ele>220.0</ele><time>2026-04-20T12:51:30.999Z</time></trkpt><trkpt lat="49.029852550858145" lon="6.386428253949289"><ele>220.0</ele><time>2026-04-20T12:51:31.999Z</time></trkpt><trkpt lat="49.02997993698676" lon="6.386444071292836"><ele>220.0</ele><time>2026-04-20T12:51:32.999Z</time></trkpt><trkpt lat="49.030100803962945" lon="6.386457852329175"><ele>220.8</ele><time>2026-04-20T12:51:33.999Z</time></trkpt><trkpt lat="49.03020723967781" lon="6.386471904785111"><ele>221.6</ele><time>2026-04-20T12:51:34.999Z</time></trkpt><trkpt lat="49.03031325465397" lon="6.3865097801252535"><ele>222.39999999999998</ele><time>2026-04-20T12:51:35.999Z</time></trkpt><trkpt lat="49.03040678948704" lon="6.386576753223476"><ele>223.2</ele><time>2026-04-20T12:51:36.999Z</time></trkpt><trkpt lat="49.0304701948565" lon="6.386677660643745"><ele>224.0</ele><time>2026-04-20T12:51:37.999Z</time></trkpt><trkpt lat="49.03047191424933" lon="6.386819282739446"><ele>224.0</ele><time>2026-04-20T12:51:38.999Z</time></trkpt><trkpt lat="49.0304975857339" lon="6.38695861020408"><ele>223.99999999999997</ele><time>2026-04-20T12:51:39.999Z</time></trkpt><trkpt lat="49.030499269515246" lon="6.387123361479329"><ele>223.99999999999997</ele><time>2026-04-20T12:51:40.999Z</time></trkpt><trkpt lat="49.03050769224989" lon="6.387310200974455"><ele>224.0</ele><time>2026-04-20T12:51:41.999Z</time></trkpt><trkpt lat="49.03051835124896" lon="6.387493579498011"><ele>224.0</ele><time>2026-04-20T12:51:42.999Z</time></trkpt><trkpt lat="49.030533015201115" lon="6.387681216849219"><ele>224.0</ele><time>2026-04-20T12:51:43.999Z</time></trkpt><trkpt lat="49.03054667390267" lon="6.387879096060318"><ele>224.0</ele><time>2026-04-20T12:51:44.999Z</time></trkpt><trkpt lat="49.03056175977266" lon="6.388082411431564"><ele>224.0</ele><time>2026-04-20T12:51:45.999Z</time></trkpt><trkpt lat="49.030575718693704" lon="6.38828457478498"><ele>224.0</ele><time>2026-04-20T12:51:46.999Z</time></trkpt><trkpt lat="49.03058845940243" lon="6.388490647047187"><ele>224.25</ele><time>2026-04-20T12:51:47.999Z</time></trkpt><trkpt lat="49.03060470812813" lon="6.388696229029119"><ele>224.5</ele><time>2026-04-20T12:51:48.999Z</time></trkpt><trkpt lat="49.03062328247662" lon="6.388900012062388"><ele>224.75</ele><time>2026-04-20T12:51:49.999Z</time></trkpt><trkpt lat="49.03064575725321" lon="6.389107242584889"><ele>225.0</ele><time>2026-04-20T12:51:50.999Z</time></trkpt><trkpt lat="49.03068608688913" lon="6.389309117324158"><ele>225.25</ele><time>2026-04-20T12:51:51.999Z</time></trkpt><trkpt lat="49.030726493134644" lon="6.389508767474585"><ele>225.5</ele><time>2026-04-20T12:51:52.999Z</time></trkpt><trkpt lat="49.03076814209857" lon="6.389694498445945"><ele>225.75</ele><time>2026-04-20T12:51:53.999Z</time></trkpt><trkpt lat="49.0308123226481" lon="6.389879620868208"><ele>226.0</ele><time>2026-04-20T12:51:54.999Z</time></trkpt><trkpt lat="49.03085660918048" lon="6.39006944344618"><ele>226.4</ele><time>2026-04-20T12:51:55.999Z</time></trkpt><trkpt lat="49.03089973791542" lon="6.390252511412042"><ele>226.8</ele><time>2026-04-20T12:51:56.999Z</time></trkpt><trkpt lat="49.03092686571888" lon="6.390418503584518"><ele>227.20000000000002</ele><time>2026-04-20T12:51:57.999Z</time></trkpt><trkpt lat="49.030960890210594" lon="6.390550775799233"><ele>227.60000000000002</ele><time>2026-04-20T12:51:58.999Z</time></trkpt><trkpt lat="49.030994547306754" lon="6.390654990471558"><ele>228.0</ele><time>2026-04-20T12:51:59.999Z</time></trkpt><trkpt lat="49.031031827083254" lon="6.390755231734318"><ele>228.60000000000002</ele><time>2026-04-20T12:52:00.999Z</time></trkpt><trkpt lat="49.03108035234225" lon="6.390871226079066"><ele>229.20000000000002</ele><time>2026-04-20T12:52:01.999Z</time></trkpt><trkpt lat="49.03112441021699" lon="6.391012425641826"><ele>229.8</ele><time>2026-04-20T12:52:02.999Z</time></trkpt><trkpt lat="49.03117547321502" lon="6.391119960690771"><ele>230.4</ele><time>2026-04-20T12:52:03.999Z</time></trkpt><trkpt lat="49.03124521587219" lon="6.391220480115524"><ele>231.0</ele><time>2026-04-20T12:52:04.999Z</time></trkpt><trkpt lat="49.0313135325358" lon="6.391344614393777"><ele>232.0</ele><time>2026-04-20T12:52:05.999Z</time></trkpt><trkpt lat="49.03138955359716" lon="6.391474482634677"><ele>233.0</ele><time>2026-04-20T12:52:06.999Z</time></trkpt><trkpt lat="49.03147466691233" lon="6.391590696775756"><ele>234.0</ele><time>2026-04-20T12:52:07.999Z</time></trkpt><trkpt lat="49.03157042828049" lon="6.391712393049728"><ele>235.0</ele><time>2026-04-20T12:52:08.999Z</time></trkpt><trkpt lat="49.03165705890933" lon="6.3918197809602155"><ele>235.0</ele><time>2026-04-20T12:52:09.999Z</time></trkpt><trkpt lat="49.03175826985134" lon="6.391932640434277"><ele>235.0</ele><time>2026-04-20T12:52:10.999Z</time></trkpt><trkpt lat="49.03186814856013" lon="6.392041261437511"><ele>235.0</ele><time>2026-04-20T12:52:11.999Z</time></trkpt><trkpt lat="49.031966047510686" lon="6.392163094976785"><ele>235.0</ele><time>2026-04-20T12:52:12.999Z</time></trkpt><trkpt lat="49.032093828620994" lon="6.392243639458924"><ele>235.5</ele><time>2026-04-20T12:52:13.999Z</time></trkpt><trkpt lat="49.03220611043421" lon="6.392356001763451"><ele>236.0</ele><time>2026-04-20T12:52:14.999Z</time></trkpt><trkpt lat="49.03231119466945" lon="6.392450955219218"><ele>236.5</ele><time>2026-04-20T12:52:15.999Z</time></trkpt><trkpt lat="49.032422039219874" lon="6.39254263077927"><ele>237.0</ele><time>2026-04-20T12:52:16.999Z</time></trkpt><trkpt lat="49.032531577327745" lon="6.392637248422648"><ele>237.0</ele><time>2026-04-20T12:52:17.999Z</time></trkpt><trkpt lat="49.03263556557679" lon="6.392737182889676"><ele>237.0</ele><time>2026-04-20T12:52:18.999Z</time></trkpt><trkpt lat="49.032742757704014" lon="6.3928481371295005"><ele>237.0</ele><time>2026-04-20T12:52:19.999Z</time></trkpt><trkpt lat="49.03284745234669" lon="6.392965000496911"><ele>237.0</ele><time>2026-04-20T12:52:20.999Z</time></trkpt><trkpt lat="49.03294546317968" lon="6.39307662191331"><ele>237.0</ele><time>2026-04-20T12:52:21.999Z</time></trkpt><trkpt lat="49.033044587994624" lon="6.393197841295142"><ele>237.0</ele><time>2026-04-20T12:52:22.999Z</time></trkpt><trkpt lat="49.03314990162908" lon="6.393324724338807"><ele>237.0</ele><time>2026-04-20T12:52:23.999Z</time></trkpt><trkpt lat="49.033255261764815" lon="6.393447066108946"><ele>237.0</ele><time>2026-04-20T12:52:24.999Z</time></trkpt><trkpt lat="49.033352896604974" lon="6.393560294825294"><ele>237.0</ele><time>2026-04-20T12:52:25.999Z</time></trkpt><trkpt lat="49.033453408443656" lon="6.3936783582764205"><ele>237.0</ele><time>2026-04-20T12:52:26.999Z</time></trkpt><trkpt lat="49.033559990137455" lon="6.3938021955735715"><ele>237.0</ele><time>2026-04-20T12:52:27.999Z</time></trkpt><trkpt lat="49.03367216612714" lon="6.393927769600439"><ele>237.0</ele><time>2026-04-20T12:52:28.999Z</time></trkpt><trkpt lat="49.0337845329103" lon="6.394056992453459"><ele>236.5</ele><time>2026-04-20T12:52:29.999Z</time></trkpt><trkpt lat="49.03389964129654" lon="6.394188461780897"><ele>236.0</ele><time>2026-04-20T12:52:30.999Z</time></trkpt><trkpt lat="49.034016428282186" lon="6.394323832060563"><ele>235.5</ele><time>2026-04-20T12:52:31.999Z</time></trkpt><trkpt lat="49.03413089568101" lon="6.3944568728616815"><ele>235.0</ele><time>2026-04-20T12:52:32.999Z</time></trkpt><trkpt lat="49.03424238345404" lon="6.394585359299684"><ele>236.25</ele><time>2026-04-20T12:52:34Z</time></trkpt><trkpt lat="49.03435826619102" lon="6.394715360018943"><ele>237.5</ele><time>2026-04-20T12:52:35Z</time></trkpt><trkpt lat="49.034475436192466" lon="6.394849163611975"><ele>238.75</ele><time>2026-04-20T12:52:36Z</time></trkpt><trkpt lat="49.03458677574712" lon="6.3949771674073395"><ele>240.0</ele><time>2026-04-20T12:52:37Z</time></trkpt><trkpt lat="49.03469557950881" lon="6.395105557728892"><ele>240.0</ele><time>2026-04-20T12:52:38Z</time></trkpt><trkpt lat="49.034810542276375" lon="6.3952429395201"><ele>240.0</ele><time>2026-04-20T12:52:39Z</time></trkpt><trkpt lat="49.03492435434101" lon="6.39537209811668"><ele>240.0</ele><time>2026-04-20T12:52:40Z</time></trkpt><trkpt lat="49.03503435608803" lon="6.395497838395219"><ele>240.0</ele><time>2026-04-20T12:52:41Z</time></trkpt><trkpt lat="49.03514579602999" lon="6.395631602279463"><ele>239.75</ele><time>2026-04-20T12:52:42Z</time></trkpt><trkpt lat="49.03526008992111" lon="6.39576313932903"><ele>239.5</ele><time>2026-04-20T12:52:43Z</time></trkpt><trkpt lat="49.03537576933984" lon="6.395898263863196"><ele>239.25</ele><time>2026-04-20T12:52:44Z</time></trkpt><trkpt lat="49.03548486398557" lon="6.396025464620866"><ele>239.0</ele><time>2026-04-20T12:52:45Z</time></trkpt><trkpt lat="49.0355999377382" lon="6.396151655640535"><ele>239.0</ele><time>2026-04-20T12:52:46Z</time></trkpt><trkpt lat="49.035712396261026" lon="6.396278649232358"><ele>239.0</ele><time>2026-04-20T12:52:47Z</time></trkpt><trkpt lat="49.03582326991796" lon="6.3964089183522015"><ele>239.0</ele><time>2026-04-20T12:52:48Z</time></trkpt><trkpt lat="49.03593233713309" lon="6.396535733081039"><ele>239.0</ele><time>2026-04-20T12:52:49Z</time></trkpt><trkpt lat="49.03604563528674" lon="6.396663093271763"><ele>239.0</ele><time>2026-04-20T12:52:50Z</time></trkpt><trkpt lat="49.03615286102029" lon="6.3967819062888305"><ele>239.0</ele><time>2026-04-20T12:52:51Z</time></trkpt><trkpt lat="49.03626583915456" lon="6.3969109760199645"><ele>239.0</ele><time>2026-04-20T12:52:52Z</time></trkpt><trkpt lat="49.0363800506033" lon="6.397045879990214"><ele>239.0</ele><time>2026-04-20T12:52:53Z</time></trkpt><trkpt lat="49.03649392996561" lon="6.397187675026365"><ele>239.0</ele><time>2026-04-20T12:52:54Z</time></trkpt><trkpt lat="49.0365974176755" lon="6.397341311005108"><ele>239.0</ele><time>2026-04-20T12:52:55Z</time></trkpt><trkpt lat="49.03669251907602" lon="6.397506172107113"><ele>239.0</ele><time>2026-04-20T12:52:56Z</time></trkpt><trkpt lat="49.03677853598723" lon="6.397688397660195"><ele>239.0</ele><time>2026-04-20T12:52:57Z</time></trkpt><trkpt lat="49.036860029091564" lon="6.397876756834694"><ele>238.5</ele><time>2026-04-20T12:52:58Z</time></trkpt><trkpt lat="49.03693838105898" lon="6.3980617736044305"><ele>238.0</ele><time>2026-04-20T12:52:59Z</time></trkpt><trkpt lat="49.03701518455859" lon="6.398249870207955"><ele>237.5</ele><time>2026-04-20T12:53:00Z</time></trkpt><trkpt lat="49.037095338522406" lon="6.398436662920235"><ele>237.0</ele><time>2026-04-20T12:53:01Z</time></trkpt><trkpt lat="49.03717572691778" lon="6.398621341094626"><ele>237.0</ele><time>2026-04-20T12:53:02Z</time></trkpt><trkpt lat="49.03724960327381" lon="6.398803736238661"><ele>237.0</ele><time>2026-04-20T12:53:03Z</time></trkpt><trkpt lat="49.0373271453005" lon="6.398985975408962"><ele>237.0</ele><time>2026-04-20T12:53:04Z</time></trkpt><trkpt lat="49.03740710199209" lon="6.3991722897710375"><ele>237.0</ele><time>2026-04-20T12:53:05Z</time></trkpt><trkpt lat="49.03748949646506" lon="6.3993603289046845"><ele>236.5</ele><time>2026-04-20T12:53:06Z</time></trkpt><trkpt lat="49.03756760000562" lon="6.3995435154000715"><ele>236.0</ele><time>2026-04-20T12:53:07Z</time></trkpt><trkpt lat="49.037646029809785" lon="6.399727129737088"><ele>235.5</ele><time>2026-04-20T12:53:08Z</time></trkpt><trkpt lat="49.037727066941464" lon="6.399913703113449"><ele>235.0</ele><time>2026-04-20T12:53:09Z</time></trkpt><trkpt lat="49.03780883999464" lon="6.400102102259451"><ele>235.0</ele><time>2026-04-20T12:53:10Z</time></trkpt><trkpt lat="49.03788970517878" lon="6.400292487799907"><ele>235.0</ele><time>2026-04-20T12:53:11Z</time></trkpt><trkpt lat="49.03797029810962" lon="6.400481882295005"><ele>235.0</ele><time>2026-04-20T12:53:12Z</time></trkpt><trkpt lat="49.03805276124697" lon="6.400667671178754"><ele>235.0</ele><time>2026-04-20T12:53:13Z</time></trkpt><trkpt lat="49.038133120642804" lon="6.400857945399293"><ele>235.5</ele><time>2026-04-20T12:53:14Z</time></trkpt><trkpt lat="49.03821222641642" lon="6.401045525594422"><ele>236.0</ele><time>2026-04-20T12:53:15Z</time></trkpt><trkpt lat="49.03829021510987" lon="6.401231402552737"><ele>236.5</ele><time>2026-04-20T12:53:16Z</time></trkpt><trkpt lat="49.038369400927024" lon="6.401415581721618"><ele>237.0</ele><time>2026-04-20T12:53:17Z</time></trkpt><trkpt lat="49.03844988980448" lon="6.401600037019218"><ele>238.5</ele><time>2026-04-20T12:53:18Z</time></trkpt><trkpt lat="49.03853041362052" lon="6.401785689979888"><ele>240.0</ele><time>2026-04-20T12:53:19Z</time></trkpt><trkpt lat="49.03861065899315" lon="6.401972363310025"><ele>241.5</ele><time>2026-04-20T12:53:20Z</time></trkpt><trkpt lat="49.038688269981904" lon="6.402159241664284"><ele>243.0</ele><time>2026-04-20T12:53:21Z</time></trkpt><trkpt lat="49.03876443156685" lon="6.402337997383748"><ele>243.5</ele><time>2026-04-20T12:53:22Z</time></trkpt><trkpt lat="49.03884381899261" lon="6.4025267478605"><ele>244.0</ele><time>2026-04-20T12:53:23Z</time></trkpt><trkpt lat="49.03892638148992" lon="6.402719308113432"><ele>244.5</ele><time>2026-04-20T12:53:24Z</time></trkpt><trkpt lat="49.039006310507666" lon="6.402908754627032"><ele>245.0</ele><time>2026-04-20T12:53:25Z</time></trkpt><trkpt lat="49.03908673653836" lon="6.4031004316322235"><ele>244.25</ele><time>2026-04-20T12:53:26Z</time></trkpt><trkpt lat="49.03916801062864" lon="6.403289702814119"><ele>243.5</ele><time>2026-04-20T12:53:26.999Z</time></trkpt><trkpt lat="49.03925200889917" lon="6.4034805126186995"><ele>242.75</ele><time>2026-04-20T12:53:27.999Z</time></trkpt><trkpt lat="49.039332537132545" lon="6.403667556715116"><ele>242.0</ele><time>2026-04-20T12:53:28.999Z</time></trkpt><trkpt lat="49.03941182959025" lon="6.403852117697074"><ele>242.0</ele><time>2026-04-20T12:53:29.999Z</time></trkpt><trkpt lat="49.0394918533708" lon="6.404035054017967"><ele>242.0</ele><time>2026-04-20T12:53:30.999Z</time></trkpt><trkpt lat="49.039569733622734" lon="6.404214932766997"><ele>242.0</ele><time>2026-04-20T12:53:31.999Z</time></trkpt><trkpt lat="49.03965008859992" lon="6.4043988158676886"><ele>242.0</ele><time>2026-04-20T12:53:32.999Z</time></trkpt><trkpt lat="49.039733247824934" lon="6.4045834505293495"><ele>242.25</ele><time>2026-04-20T12:53:33.999Z</time></trkpt><trkpt lat="49.03981344552934" lon="6.404775015529517"><ele>242.5</ele><time>2026-04-20T12:53:34.999Z</time></trkpt><trkpt lat="49.03989389885803" lon="6.4049667206629906"><ele>242.75</ele><time>2026-04-20T12:53:35.999Z</time></trkpt><trkpt lat="49.03997381083442" lon="6.4051580793110325"><ele>243.0</ele><time>2026-04-20T12:53:36.999Z</time></trkpt><trkpt lat="49.04005375325957" lon="6.4053509000805455"><ele>243.75</ele><time>2026-04-20T12:53:37.999Z</time></trkpt><trkpt lat="49.040135405638516" lon="6.405540033366731"><ele>244.5</ele><time>2026-04-20T12:53:38.999Z</time></trkpt><trkpt lat="49.040218694314646" lon="6.405727567039308"><ele>245.25</ele><time>2026-04-20T12:53:39.999Z</time></trkpt><trkpt lat="49.04029441448696" lon="6.405908040256911"><ele>246.0</ele><time>2026-04-20T12:53:40.999Z</time></trkpt><trkpt lat="49.0403710873463" lon="6.406094342524509"><ele>246.0</ele><time>2026-04-20T12:53:41.999Z</time></trkpt><trkpt lat="49.040453526756245" lon="6.406284329567163"><ele>246.0</ele><time>2026-04-20T12:53:42.999Z</time></trkpt><trkpt lat="49.0405354525521" lon="6.406475257219053"><ele>246.0</ele><time>2026-04-20T12:53:43.999Z</time></trkpt><trkpt lat="49.040615869265956" lon="6.406662606584298"><ele>246.0</ele><time>2026-04-20T12:53:44.999Z</time></trkpt><trkpt lat="49.04069841368378" lon="6.406854651194753"><ele>246.33333333333331</ele><time>2026-04-20T12:53:45.999Z</time></trkpt><trkpt lat="49.040768400862305" lon="6.407058028222427"><ele>246.66666666666666</ele><time>2026-04-20T12:53:46.999Z</time></trkpt><trkpt lat="49.04086566375643" lon="6.407240154313932"><ele>247.0</ele><time>2026-04-20T12:53:47.999Z</time></trkpt><trkpt lat="49.04094994232231" lon="6.407439743482538"><ele>245.0</ele><time>2026-04-20T12:53:48.999Z</time></trkpt><trkpt lat="49.041028995765636" lon="6.407631860402441"><ele>243.0</ele><time>2026-04-20T12:53:49.999Z</time></trkpt><trkpt lat="49.04111056363608" lon="6.4078325011168475"><ele>241.0</ele><time>2026-04-20T12:53:50.999Z</time></trkpt><trkpt lat="49.04119543092615" lon="6.408028569474768"><ele>241.0</ele><time>2026-04-20T12:53:51.999Z</time></trkpt><trkpt lat="49.04128043595866" lon="6.4082279822766814"><ele>241.0</ele><time>2026-04-20T12:53:52.999Z</time></trkpt><trkpt lat="49.04136638501242" lon="6.408422184121136"><ele>241.0</ele><time>2026-04-20T12:53:53.999Z</time></trkpt><trkpt lat="49.0414480019728" lon="6.408621490177073"><ele>241.0</ele><time>2026-04-20T12:53:54.999Z</time></trkpt><trkpt lat="49.04153258594926" lon="6.40882077470754"><ele>241.0</ele><time>2026-04-20T12:53:55.999Z</time></trkpt><trkpt lat="49.04161698839541" lon="6.409023216567544"><ele>241.0</ele><time>2026-04-20T12:53:56.999Z</time></trkpt><trkpt lat="49.041703187048945" lon="6.409221468074393"><ele>239.75</ele><time>2026-04-20T12:53:57.999Z</time></trkpt><trkpt lat="49.041780627806126" lon="6.409408932684589"><ele>238.5</ele><time>2026-04-20T12:53:58.999Z</time></trkpt><trkpt lat="49.041862128349514" lon="6.409592382075048"><ele>237.25</ele><time>2026-04-20T12:53:59.999Z</time></trkpt><trkpt lat="49.0419412651466" lon="6.409775844658893"><ele>236.0</ele><time>2026-04-20T12:54:00.999Z</time></trkpt><trkpt lat="49.04200638658271" lon="6.409973326332184"><ele>235.75</ele><time>2026-04-20T12:54:01.999Z</time></trkpt><trkpt lat="49.04209969793538" lon="6.410152067561891"><ele>235.5</ele><time>2026-04-20T12:54:02.999Z</time></trkpt><trkpt lat="49.042180321138574" lon="6.410344627714252"><ele>235.25</ele><time>2026-04-20T12:54:03.999Z</time></trkpt><trkpt lat="49.042255263527295" lon="6.410534995195725"><ele>235.0</ele><time>2026-04-20T12:54:04.999Z</time></trkpt><trkpt lat="49.04233284427242" lon="6.410721152743904"><ele>235.0</ele><time>2026-04-20T12:54:05.999Z</time></trkpt><trkpt lat="49.042414810909285" lon="6.410913173577462"><ele>235.0</ele><time>2026-04-20T12:54:06.999Z</time></trkpt><trkpt lat="49.0424959880435" lon="6.411110240260323"><ele>235.0</ele><time>2026-04-20T12:54:07.999Z</time></trkpt><trkpt lat="49.04257700206838" lon="6.411303024019377"><ele>234.66666666666666</ele><time>2026-04-20T12:54:08.999Z</time></trkpt><trkpt lat="49.04266036489397" lon="6.411496161242959"><ele>234.33333333333331</ele><time>2026-04-20T12:54:09.999Z</time></trkpt><trkpt lat="49.04274440003365" lon="6.411692257018304"><ele>234.0</ele><time>2026-04-20T12:54:10.999Z</time></trkpt><trkpt lat="49.04282431113052" lon="6.411882168169652"><ele>234.0</ele><time>2026-04-20T12:54:11.999Z</time></trkpt><trkpt lat="49.042900062743996" lon="6.4120616852189025"><ele>234.0</ele><time>2026-04-20T12:54:12.999Z</time></trkpt><trkpt lat="49.04298037723053" lon="6.412242523801059"><ele>234.0</ele><time>2026-04-20T12:54:13.999Z</time></trkpt><trkpt lat="49.043061053402525" lon="6.412426792465871"><ele>234.0</ele><time>2026-04-20T12:54:14.999Z</time></trkpt><trkpt lat="49.04314329551287" lon="6.41261098368906"><ele>234.25</ele><time>2026-04-20T12:54:15.999Z</time></trkpt><trkpt lat="49.043212902319894" lon="6.412810842523307"><ele>234.5</ele><time>2026-04-20T12:54:16.999Z</time></trkpt><trkpt lat="49.04329293787945" lon="6.412996948731445"><ele>234.75</ele><time>2026-04-20T12:54:17.999Z</time></trkpt><trkpt lat="49.04338641719325" lon="6.413170655902685"><ele>235.0</ele><time>2026-04-20T12:54:18.999Z</time></trkpt><trkpt lat="49.043465762120604" lon="6.4133603978109095"><ele>235.25</ele><time>2026-04-20T12:54:19.999Z</time></trkpt><trkpt lat="49.0435439410863" lon="6.413538134468835"><ele>235.5</ele><time>2026-04-20T12:54:20.999Z</time></trkpt><trkpt lat="49.043603969960195" lon="6.413727964741824"><ele>235.75</ele><time>2026-04-20T12:54:21.999Z</time></trkpt><trkpt lat="49.04367980753258" lon="6.41390935862929"><ele>236.0</ele><time>2026-04-20T12:54:22.999Z</time></trkpt><trkpt lat="49.04376718330829" lon="6.414069381543313"><ele>236.4</ele><time>2026-04-20T12:54:23.999Z</time></trkpt><trkpt lat="49.04383207453618" lon="6.414226727443014"><ele>236.8</ele><time>2026-04-20T12:54:24.999Z</time></trkpt><trkpt lat="49.043890214847124" lon="6.414358284204504"><ele>237.20000000000002</ele><time>2026-04-20T12:54:25.999Z</time></trkpt><trkpt lat="49.04393799209822" lon="6.41445005512288"><ele>237.60000000000002</ele><time>2026-04-20T12:54:26.999Z</time></trkpt><trkpt lat="49.04401536033948" lon="6.414550204364188"><ele>238.0</ele><time>2026-04-20T12:54:28.999Z</time></trkpt><trkpt lat="49.044111563326275" lon="6.414487632272303"><ele>237.99999999999997</ele><time>2026-04-20T12:54:30.999Z</time></trkpt><trkpt lat="49.044146992891314" lon="6.414386537470018"><ele>238.0</ele><time>2026-04-20T12:54:31.999Z</time></trkpt><trkpt lat="49.04417553226875" lon="6.414268020378135"><ele>238.0</ele><time>2026-04-20T12:54:32.999Z</time></trkpt><trkpt lat="49.04421554308997" lon="6.41414350739938"><ele>238.0</ele><time>2026-04-20T12:54:33.999Z</time></trkpt><trkpt lat="49.044261283926595" lon="6.414019777378472"><ele>237.99999999999997</ele><time>2026-04-20T12:54:34.999Z</time></trkpt><trkpt lat="49.04431378563549" lon="6.413879047452273"><ele>238.0</ele><time>2026-04-20T12:54:35.999Z</time></trkpt><trkpt lat="49.044369262807415" lon="6.413726907611942"><ele>238.0</ele><time>2026-04-20T12:54:36.999Z</time></trkpt><trkpt lat="49.04442760709122" lon="6.413570725798089"><ele>238.0</ele><time>2026-04-20T12:54:37.999Z</time></trkpt><trkpt lat="49.044490810182594" lon="6.413403226035622"><ele>238.0</ele><time>2026-04-20T12:54:38.999Z</time></trkpt><trkpt lat="49.04455417645071" lon="6.413230276543002"><ele>238.0</ele><time>2026-04-20T12:54:40Z</time></trkpt><trkpt lat="49.04461208610504" lon="6.413065639075498"><ele>237.25</ele><time>2026-04-20T12:54:41Z</time></trkpt><trkpt lat="49.04467581354886" lon="6.412892701384097"><ele>236.5</ele><time>2026-04-20T12:54:42Z</time></trkpt><trkpt lat="49.04474531414264" lon="6.412706981502252"><ele>235.75</ele><time>2026-04-20T12:54:43Z</time></trkpt><trkpt lat="49.044814955774505" lon="6.41251286933218"><ele>235.0</ele><time>2026-04-20T12:54:44Z</time></trkpt><trkpt lat="49.04488775624571" lon="6.41231248539991"><ele>234.75</ele><time>2026-04-20T12:54:45Z</time></trkpt><trkpt lat="49.04495766844156" lon="6.412121130213102"><ele>234.5</ele><time>2026-04-20T12:54:46Z</time></trkpt><trkpt lat="49.045028727394715" lon="6.411925916843189"><ele>234.25</ele><time>2026-04-20T12:54:47Z</time></trkpt><trkpt lat="49.045101577931014" lon="6.411725108387343"><ele>234.0</ele><time>2026-04-20T12:54:48Z</time></trkpt><trkpt lat="49.04517415608686" lon="6.411530882089376"><ele>234.0</ele><time>2026-04-20T12:54:49Z</time></trkpt><trkpt lat="49.04524583492072" lon="6.411336131105339"><ele>234.0</ele><time>2026-04-20T12:54:50Z</time></trkpt><trkpt lat="49.045317839785724" lon="6.4111431914965"><ele>234.0</ele><time>2026-04-20T12:54:51Z</time></trkpt><trkpt lat="49.04538735463473" lon="6.410944830690051"><ele>234.0</ele><time>2026-04-20T12:54:52Z</time></trkpt><trkpt lat="49.04545909016566" lon="6.410746369968483"><ele>233.5</ele><time>2026-04-20T12:54:53Z</time></trkpt><trkpt lat="49.04553300485565" lon="6.4105470217896725"><ele>233.0</ele><time>2026-04-20T12:54:54Z</time></trkpt><trkpt lat="49.04560550095076" lon="6.410348579796774"><ele>232.5</ele><time>2026-04-20T12:54:55Z</time></trkpt><trkpt lat="49.04566998437485" lon="6.410164876254148"><ele>232.0</ele><time>2026-04-20T12:54:56Z</time></trkpt><trkpt lat="49.04574107020481" lon="6.409972678160315"><ele>231.33333333333331</ele><time>2026-04-20T12:54:57Z</time></trkpt><trkpt lat="49.04581630298554" lon="6.409768642496098"><ele>230.66666666666669</ele><time>2026-04-20T12:54:58Z</time></trkpt><trkpt lat="49.0458890121878" lon="6.409560048755616"><ele>230.0</ele><time>2026-04-20T12:54:59Z</time></trkpt><trkpt lat="49.045965333068814" lon="6.409352702434501"><ele>230.0</ele><time>2026-04-20T12:55:00Z</time></trkpt><trkpt lat="49.04604004085288" lon="6.409150286548162"><ele>230.0</ele><time>2026-04-20T12:55:01Z</time></trkpt><trkpt lat="49.04611670955463" lon="6.4089491360291495"><ele>230.0</ele><time>2026-04-20T12:55:02Z</time></trkpt><trkpt lat="49.046186726113596" lon="6.408750847589846"><ele>229.66666666666669</ele><time>2026-04-20T12:55:03Z</time></trkpt><trkpt lat="49.04625812236384" lon="6.408551648585672"><ele>229.33333333333331</ele><time>2026-04-20T12:55:04Z</time></trkpt><trkpt lat="49.0463364533362" lon="6.4083494947504"><ele>229.0</ele><time>2026-04-20T12:55:05Z</time></trkpt><trkpt lat="49.046419595215184" lon="6.408150083131323"><ele>228.66666666666666</ele><time>2026-04-20T12:55:06Z</time></trkpt><trkpt lat="49.046497881392504" lon="6.407961667366702"><ele>228.33333333333331</ele><time>2026-04-20T12:55:07Z</time></trkpt><trkpt lat="49.0465811793414" lon="6.407770634040242"><ele>228.0</ele><time>2026-04-20T12:55:08Z</time></trkpt><trkpt lat="49.04666790594582" lon="6.407577599448108"><ele>228.0</ele><time>2026-04-20T12:55:09Z</time></trkpt><trkpt lat="49.04675682524413" lon="6.407381537521315"><ele>228.0</ele><time>2026-04-20T12:55:10Z</time></trkpt><trkpt lat="49.04684617536663" lon="6.407184950645091"><ele>228.0</ele><time>2026-04-20T12:55:11Z</time></trkpt><trkpt lat="49.04693853847982" lon="6.4069922246302555"><ele>228.5</ele><time>2026-04-20T12:55:12Z</time></trkpt><trkpt lat="49.04702549399166" lon="6.406800828952008"><ele>229.0</ele><time>2026-04-20T12:55:13Z</time></trkpt><trkpt lat="49.0471094403545" lon="6.406617324584498"><ele>229.5</ele><time>2026-04-20T12:55:14Z</time></trkpt><trkpt lat="49.0471970777983" lon="6.406431578096005"><ele>230.0</ele><time>2026-04-20T12:55:15Z</time></trkpt><trkpt lat="49.04728665728362" lon="6.406244252316217"><ele>230.0</ele><time>2026-04-20T12:55:16Z</time></trkpt><trkpt lat="49.04737798137914" lon="6.406057990668585"><ele>230.0</ele><time>2026-04-20T12:55:17Z</time></trkpt><trkpt lat="49.04746958683031" lon="6.4058703808425985"><ele>230.0</ele><time>2026-04-20T12:55:18Z</time></trkpt><trkpt lat="49.04755855906265" lon="6.405681501514243"><ele>232.0</ele><time>2026-04-20T12:55:19Z</time></trkpt><trkpt lat="49.04764657187204" lon="6.405492696624046"><ele>234.0</ele><time>2026-04-20T12:55:20Z</time></trkpt><trkpt lat="49.04773563082701" lon="6.405305235820399"><ele>236.0</ele><time>2026-04-20T12:55:21Z</time></trkpt><trkpt lat="49.04782318269238" lon="6.405115183513841"><ele>236.0</ele><time>2026-04-20T12:55:22Z</time></trkpt><trkpt lat="49.04790983719046" lon="6.404925398412697"><ele>236.0</ele><time>2026-04-20T12:55:23Z</time></trkpt><trkpt lat="49.04799632632575" lon="6.404740033862865"><ele>236.0</ele><time>2026-04-20T12:55:24Z</time></trkpt><trkpt lat="49.04808278669799" lon="6.404551184380314"><ele>236.5</ele><time>2026-04-20T12:55:25Z</time></trkpt><trkpt lat="49.04816389478446" lon="6.404375154841441"><ele>237.0</ele><time>2026-04-20T12:55:26Z</time></trkpt><trkpt lat="49.04824337966606" lon="6.4042053590824235"><ele>237.5</ele><time>2026-04-20T12:55:27Z</time></trkpt><trkpt lat="49.04831333886906" lon="6.40405712899055"><ele>238.0</ele><time>2026-04-20T12:55:28Z</time></trkpt><trkpt lat="49.04837994888239" lon="6.403916633810251"><ele>238.60000000000002</ele><time>2026-04-20T12:55:29Z</time></trkpt><trkpt lat="49.048444046539004" lon="6.403783085780897"><ele>239.20000000000002</ele><time>2026-04-20T12:55:30Z</time></trkpt><trkpt lat="49.04850529856179" lon="6.403655161667467"><ele>239.8</ele><time>2026-04-20T12:55:31Z</time></trkpt><trkpt lat="49.04857024963625" lon="6.403519880396672"><ele>240.4</ele><time>2026-04-20T12:55:31.999Z</time></trkpt><trkpt lat="49.04863683471988" lon="6.403376538574271"><ele>241.0</ele><time>2026-04-20T12:55:32.999Z</time></trkpt><trkpt lat="49.04870804167131" lon="6.403225343913737"><ele>241.0</ele><time>2026-04-20T12:55:33.999Z</time></trkpt><trkpt lat="49.04878129807176" lon="6.4030721354314"><ele>241.0</ele><time>2026-04-20T12:55:34.999Z</time></trkpt><trkpt lat="49.048856842933496" lon="6.402914304095772"><ele>241.0</ele><time>2026-04-20T12:55:35.999Z</time></trkpt><trkpt lat="49.048934991349476" lon="6.402748368445889"><ele>241.0</ele><time>2026-04-20T12:55:36.999Z</time></trkpt><trkpt lat="49.04901847606176" lon="6.402576724791082"><ele>241.0</ele><time>2026-04-20T12:55:37.999Z</time></trkpt><trkpt lat="49.04910015570785" lon="6.402399555609491"><ele>241.0</ele><time>2026-04-20T12:55:38.999Z</time></trkpt><trkpt lat="49.04917606581435" lon="6.402228963126802"><ele>241.0</ele><time>2026-04-20T12:55:39.999Z</time></trkpt><trkpt lat="49.04925011449967" lon="6.402057789031326"><ele>241.0</ele><time>2026-04-20T12:55:40.999Z</time></trkpt><trkpt lat="49.0493234483904" lon="6.4018696968258935"><ele>241.0</ele><time>2026-04-20T12:55:41.999Z</time></trkpt><trkpt lat="49.04938575318902" lon="6.40166857966482"><ele>241.0</ele><time>2026-04-20T12:55:42.999Z</time></trkpt><trkpt lat="49.04943181206895" lon="6.401444214997513"><ele>241.0</ele><time>2026-04-20T12:55:43.999Z</time></trkpt><trkpt lat="49.049469128474016" lon="6.401214878979832"><ele>241.0</ele><time>2026-04-20T12:55:44.999Z</time></trkpt><trkpt lat="49.04949260918279" lon="6.400980974339243"><ele>241.0</ele><time>2026-04-20T12:55:45.999Z</time></trkpt><trkpt lat="49.04951397137695" lon="6.400749394372965"><ele>241.0</ele><time>2026-04-20T12:55:46.999Z</time></trkpt><trkpt lat="49.04953184811154" lon="6.4005273806166745"><ele>241.66666666666666</ele><time>2026-04-20T12:55:47.999Z</time></trkpt><trkpt lat="49.049551589242434" lon="6.400296361251167"><ele>242.33333333333331</ele><time>2026-04-20T12:55:48.999Z</time></trkpt><trkpt lat="49.04957170275541" lon="6.400071017366817"><ele>243.0</ele><time>2026-04-20T12:55:49.999Z</time></trkpt><trkpt lat="49.04959015737891" lon="6.399843227916741"><ele>244.0</ele><time>2026-04-20T12:55:50.999Z</time></trkpt><trkpt lat="49.04960659276524" lon="6.399614442638012"><ele>245.0</ele><time>2026-04-20T12:55:51.999Z</time></trkpt><trkpt lat="49.04962148986515" lon="6.399384531095001"><ele>246.0</ele><time>2026-04-20T12:55:52.999Z</time></trkpt><trkpt lat="49.04963694209221" lon="6.399160027753664"><ele>246.0</ele><time>2026-04-20T12:55:53.999Z</time></trkpt><trkpt lat="49.04964679480177" lon="6.398944657492684"><ele>246.0</ele><time>2026-04-20T12:55:54.999Z</time></trkpt><trkpt lat="49.04966081982216" lon="6.398713459958929"><ele>246.0</ele><time>2026-04-20T12:55:55.999Z</time></trkpt><trkpt lat="49.0496762195403" lon="6.3984857982081165"><ele>246.0</ele><time>2026-04-20T12:55:56.999Z</time></trkpt><trkpt lat="49.04969199285533" lon="6.398257887937176"><ele>246.0</ele><time>2026-04-20T12:55:57.999Z</time></trkpt><trkpt lat="49.04970778321046" lon="6.398026166991369"><ele>246.0</ele><time>2026-04-20T12:55:58.999Z</time></trkpt><trkpt lat="49.0497242915753" lon="6.397794328511989"><ele>246.0</ele><time>2026-04-20T12:55:59.999Z</time></trkpt><trkpt lat="49.04974293163194" lon="6.397568477445855"><ele>246.25</ele><time>2026-04-20T12:56:00.999Z</time></trkpt><trkpt lat="49.04975863857039" lon="6.397347781603205"><ele>246.5</ele><time>2026-04-20T12:56:01.999Z</time></trkpt><trkpt lat="49.04977343075842" lon="6.397118309193204"><ele>246.75</ele><time>2026-04-20T12:56:02.999Z</time></trkpt><trkpt lat="49.0497909511492" lon="6.3968922510236705"><ele>247.0</ele><time>2026-04-20T12:56:03.999Z</time></trkpt><trkpt lat="49.04981228999701" lon="6.396667123568793"><ele>247.0</ele><time>2026-04-20T12:56:04.999Z</time></trkpt><trkpt lat="49.04982542932615" lon="6.396440601813461"><ele>247.0</ele><time>2026-04-20T12:56:05.999Z</time></trkpt><trkpt lat="49.049838977370655" lon="6.3962153400788795"><ele>247.0</ele><time>2026-04-20T12:56:06.999Z</time></trkpt><trkpt lat="49.04985402220547" lon="6.395987257152289"><ele>247.0</ele><time>2026-04-20T12:56:07.999Z</time></trkpt><trkpt lat="49.049868721739855" lon="6.395758361596309"><ele>247.25</ele><time>2026-04-20T12:56:08.999Z</time></trkpt><trkpt lat="49.04988614536178" lon="6.395528657197321"><ele>247.5</ele><time>2026-04-20T12:56:09.999Z</time></trkpt><trkpt lat="49.04990168267777" lon="6.395307319127004"><ele>247.75</ele><time>2026-04-20T12:56:10.999Z</time></trkpt><trkpt lat="49.04992021720137" lon="6.39509793124727"><ele>248.0</ele><time>2026-04-20T12:56:11.999Z</time></trkpt><trkpt lat="49.04995696467771" lon="6.394880329926034"><ele>250.5</ele><time>2026-04-20T12:56:12.999Z</time></trkpt><trkpt lat="49.05002142476742" lon="6.394678431267256"><ele>253.0</ele><time>2026-04-20T12:56:13.999Z</time></trkpt><trkpt lat="49.050112592671056" lon="6.394505292623367"><ele>255.5</ele><time>2026-04-20T12:56:14.999Z</time></trkpt><trkpt lat="49.05022185505217" lon="6.3943633896754335"><ele>258.0</ele><time>2026-04-20T12:56:15.999Z</time></trkpt><trkpt lat="49.05034403533152" lon="6.394289197165257"><ele>258.0</ele><time>2026-04-20T12:56:16.999Z</time></trkpt><trkpt lat="49.05047974680136" lon="6.394258253939162"><ele>258.0</ele><time>2026-04-20T12:56:17.999Z</time></trkpt><trkpt lat="49.050618120204014" lon="6.394257494915635"><ele>258.0</ele><time>2026-04-20T12:56:18.999Z</time></trkpt><trkpt lat="49.050745199971594" lon="6.394272275948147"><ele>258.0</ele><time>2026-04-20T12:56:19.999Z</time></trkpt><trkpt lat="49.05087805330035" lon="6.394288655516277"><ele>259.25</ele><time>2026-04-20T12:56:20.999Z</time></trkpt><trkpt lat="49.05101240474062" lon="6.3943074474135475"><ele>260.5</ele><time>2026-04-20T12:56:21.999Z</time></trkpt><trkpt lat="49.05114582978447" lon="6.394325194969173"><ele>261.75</ele><time>2026-04-20T12:56:22.999Z</time></trkpt><trkpt lat="49.05127860774589" lon="6.394344043419038"><ele>263.0</ele><time>2026-04-20T12:56:23.999Z</time></trkpt><trkpt lat="49.051409230576816" lon="6.3943616650122275"><ele>263.0</ele><time>2026-04-20T12:56:24.999Z</time></trkpt><trkpt lat="49.05153548895643" lon="6.394375926893872"><ele>263.0</ele><time>2026-04-20T12:56:25.999Z</time></trkpt><trkpt lat="49.05165734373066" lon="6.394390583481324"><ele>263.0</ele><time>2026-04-20T12:56:26.999Z</time></trkpt><trkpt lat="49.05178768254855" lon="6.394409404087877"><ele>263.0</ele><time>2026-04-20T12:56:27.999Z</time></trkpt><trkpt lat="49.05192213129075" lon="6.394427164043186"><ele>263.5</ele><time>2026-04-20T12:56:28.999Z</time></trkpt><trkpt lat="49.05204926681317" lon="6.394436071709849"><ele>264.0</ele><time>2026-04-20T12:56:29.999Z</time></trkpt><trkpt lat="49.05218351402432" lon="6.394420117896085"><ele>264.5</ele><time>2026-04-20T12:56:30.999Z</time></trkpt><trkpt lat="49.05231195720967" lon="6.394366226890163"><ele>265.0</ele><time>2026-04-20T12:56:31.999Z</time></trkpt><trkpt lat="49.052433033214825" lon="6.394267899567919"><ele>265.5</ele><time>2026-04-20T12:56:32.999Z</time></trkpt><trkpt lat="49.05254021162711" lon="6.394136742078676"><ele>266.0</ele><time>2026-04-20T12:56:33.999Z</time></trkpt><trkpt lat="49.05263259670647" lon="6.393976033489838"><ele>266.5</ele><time>2026-04-20T12:56:34.999Z</time></trkpt><trkpt lat="49.05270873623454" lon="6.393794937384867"><ele>267.0</ele><time>2026-04-20T12:56:35.999Z</time></trkpt><trkpt lat="49.05278244708037" lon="6.393605719856428"><ele>267.0</ele><time>2026-04-20T12:56:36.999Z</time></trkpt><trkpt lat="49.05286171229761" lon="6.393408594390365"><ele>267.0</ele><time>2026-04-20T12:56:37.999Z</time></trkpt><trkpt lat="49.052943436588244" lon="6.393205388231831"><ele>267.0</ele><time>2026-04-20T12:56:38.999Z</time></trkpt><trkpt lat="49.05302474289909" lon="6.393003202010005"><ele>266.3333333333333</ele><time>2026-04-20T12:56:39.999Z</time></trkpt><trkpt lat="49.0531075421626" lon="6.3928016555793645"><ele>265.66666666666663</ele><time>2026-04-20T12:56:40.999Z</time></trkpt><trkpt lat="49.05319081203411" lon="6.392591878536769"><ele>265.0</ele><time>2026-04-20T12:56:41.999Z</time></trkpt><trkpt lat="49.05327617987741" lon="6.392380569843201"><ele>264.3333333333333</ele><time>2026-04-20T12:56:42.999Z</time></trkpt><trkpt lat="49.05336140870629" lon="6.392167492079871"><ele>263.6666666666667</ele><time>2026-04-20T12:56:43.999Z</time></trkpt><trkpt lat="49.05344828675184" lon="6.391953062239149"><ele>263.0</ele><time>2026-04-20T12:56:44.999Z</time></trkpt><trkpt lat="49.05353414467825" lon="6.391746607553159"><ele>263.0</ele><time>2026-04-20T12:56:46Z</time></trkpt><trkpt lat="49.053615733335846" lon="6.391545441103094"><ele>263.0</ele><time>2026-04-20T12:56:47Z</time></trkpt><trkpt lat="49.05370094699943" lon="6.391333150396148"><ele>263.0</ele><time>2026-04-20T12:56:48Z</time></trkpt><trkpt lat="49.05378456145813" lon="6.391119048341802"><ele>262.6666666666667</ele><time>2026-04-20T12:56:49Z</time></trkpt><trkpt lat="49.05387353780704" lon="6.3909085635512835"><ele>262.3333333333333</ele><time>2026-04-20T12:56:50Z</time></trkpt><trkpt lat="49.053956162059706" lon="6.390695561363516"><ele>262.0</ele><time>2026-04-20T12:56:51Z</time></trkpt><trkpt lat="49.05403897612854" lon="6.390485222588743"><ele>262.66666666666663</ele><time>2026-04-20T12:56:52Z</time></trkpt><trkpt lat="49.05412900841041" lon="6.390280422821403"><ele>263.3333333333333</ele><time>2026-04-20T12:56:53Z</time></trkpt><trkpt lat="49.054214734642954" lon="6.390070832523885"><ele>264.0</ele><time>2026-04-20T12:56:54Z</time></trkpt><trkpt lat="49.05429877980643" lon="6.389860144258091"><ele>263.3333333333333</ele><time>2026-04-20T12:56:55Z</time></trkpt><trkpt lat="49.05438225780601" lon="6.389648796452896"><ele>262.66666666666663</ele><time>2026-04-20T12:56:56Z</time></trkpt><trkpt lat="49.0544715062554" lon="6.389440255423234"><ele>262.0</ele><time>2026-04-20T12:56:57Z</time></trkpt><trkpt lat="49.05456634092592" lon="6.389241915289596"><ele>262.0</ele><time>2026-04-20T12:56:58Z</time></trkpt><trkpt lat="49.05465366599118" lon="6.389060401820717"><ele>262.0</ele><time>2026-04-20T12:56:59Z</time></trkpt><trkpt lat="49.054748161850334" lon="6.388876558230434"><ele>262.0</ele><time>2026-04-20T12:57:00Z</time></trkpt><trkpt lat="49.0548468309661" lon="6.3886875890266595"><ele>261.66666666666663</ele><time>2026-04-20T12:57:01Z</time></trkpt><trkpt lat="49.05494961456698" lon="6.388495319747874"><ele>261.3333333333333</ele><time>2026-04-20T12:57:02Z</time></trkpt><trkpt lat="49.055056396933615" lon="6.388308287266632"><ele>261.0</ele><time>2026-04-20T12:57:03Z</time></trkpt><trkpt lat="49.0551649088492" lon="6.388118088589319"><ele>260.3333333333333</ele><time>2026-04-20T12:57:04Z</time></trkpt><trkpt lat="49.055268516638684" lon="6.387925377038215"><ele>259.66666666666663</ele><time>2026-04-20T12:57:05Z</time></trkpt><trkpt lat="49.05537636505869" lon="6.387738320447384"><ele>259.0</ele><time>2026-04-20T12:57:06Z</time></trkpt><trkpt lat="49.05548244381432" lon="6.387550306332956"><ele>259.0</ele><time>2026-04-20T12:57:07Z</time></trkpt><trkpt lat="49.05558502581733" lon="6.38736630388901"><ele>259.0</ele><time>2026-04-20T12:57:08Z</time></trkpt><trkpt lat="49.05568637147452" lon="6.387179918661085"><ele>259.0</ele><time>2026-04-20T12:57:09Z</time></trkpt><trkpt lat="49.055788255195225" lon="6.386992103038084"><ele>258.3333333333333</ele><time>2026-04-20T12:57:10Z</time></trkpt><trkpt lat="49.05588257485623" lon="6.386792490798657"><ele>257.6666666666667</ele><time>2026-04-20T12:57:11Z</time></trkpt><trkpt lat="49.05596877687774" lon="6.386585998492073"><ele>257.0</ele><time>2026-04-20T12:57:12Z</time></trkpt><trkpt lat="49.056047744697565" lon="6.38637476266833"><ele>257.0</ele><time>2026-04-20T12:57:13Z</time></trkpt><trkpt lat="49.05611821900378" lon="6.386155005960489"><ele>257.0</ele><time>2026-04-20T12:57:14Z</time></trkpt><trkpt lat="49.0561838387041" lon="6.385935642328138"><ele>257.0</ele><time>2026-04-20T12:57:15Z</time></trkpt><trkpt lat="49.05625342147526" lon="6.385712959341668"><ele>257.0</ele><time>2026-04-20T12:57:16Z</time></trkpt><trkpt lat="49.056320803792595" lon="6.38549865885628"><ele>257.0</ele><time>2026-04-20T12:57:17Z</time></trkpt><trkpt lat="49.056389788631435" lon="6.3852784630085875"><ele>257.0</ele><time>2026-04-20T12:57:18Z</time></trkpt><trkpt lat="49.05645829811543" lon="6.3850619185400195"><ele>257.0</ele><time>2026-04-20T12:57:19Z</time></trkpt><trkpt lat="49.05652723190592" lon="6.38484268209572"><ele>257.0</ele><time>2026-04-20T12:57:20Z</time></trkpt><trkpt lat="49.05659826181744" lon="6.384616219107394"><ele>257.0</ele><time>2026-04-20T12:57:21Z</time></trkpt><trkpt lat="49.05667112602692" lon="6.38438710401206"><ele>257.6666666666667</ele><time>2026-04-20T12:57:22Z</time></trkpt><trkpt lat="49.05674378890829" lon="6.384160849632613"><ele>258.3333333333333</ele><time>2026-04-20T12:57:23Z</time></trkpt><trkpt lat="49.05681478805474" lon="6.383938121791734"><ele>259.0</ele><time>2026-04-20T12:57:24Z</time></trkpt><trkpt lat="49.05688171343026" lon="6.383727020389757"><ele>260.0</ele><time>2026-04-20T12:57:25Z</time></trkpt><trkpt lat="49.056946070372724" lon="6.383514040039055"><ele>261.0</ele><time>2026-04-20T12:57:26Z</time></trkpt><trkpt lat="49.05701348687916" lon="6.3833087287433985"><ele>262.0</ele><time>2026-04-20T12:57:27Z</time></trkpt><trkpt lat="49.05708076099009" lon="6.383104542768512"><ele>263.5</ele><time>2026-04-20T12:57:28Z</time></trkpt><trkpt lat="49.05714717516664" lon="6.38289627280661"><ele>265.0</ele><time>2026-04-20T12:57:29Z</time></trkpt><trkpt lat="49.05721316063607" lon="6.382691799724582"><ele>266.5</ele><time>2026-04-20T12:57:30Z</time></trkpt><trkpt lat="49.05727566489477" lon="6.382490184611096"><ele>268.0</ele><time>2026-04-20T12:57:31Z</time></trkpt><trkpt lat="49.05734402322808" lon="6.382287648255627"><ele>268.5</ele><time>2026-04-20T12:57:32Z</time></trkpt><trkpt lat="49.057412048179316" lon="6.382087605260641"><ele>269.0</ele><time>2026-04-20T12:57:33Z</time></trkpt><trkpt lat="49.05748103837538" lon="6.381887646361878"><ele>269.5</ele><time>2026-04-20T12:57:34Z</time></trkpt><trkpt lat="49.057555221777584" lon="6.381684942871535"><ele>270.0</ele><time>2026-04-20T12:57:35Z</time></trkpt><trkpt lat="49.0576317213498" lon="6.381484890860658"><ele>270.5</ele><time>2026-04-20T12:57:36Z</time></trkpt><trkpt lat="49.05770695622885" lon="6.381284518868496"><ele>271.0</ele><time>2026-04-20T12:57:37Z</time></trkpt><trkpt lat="49.05778157324859" lon="6.381079901529937"><ele>271.5</ele><time>2026-04-20T12:57:38Z</time></trkpt><trkpt lat="49.057850983337175" lon="6.380888858131588"><ele>272.0</ele><time>2026-04-20T12:57:39Z</time></trkpt><trkpt lat="49.05792409821525" lon="6.380692729362455"><ele>271.6666666666667</ele><time>2026-04-20T12:57:40Z</time></trkpt><trkpt lat="49.057998501075744" lon="6.3804933021380545"><ele>271.3333333333333</ele><time>2026-04-20T12:57:40.999Z</time></trkpt><trkpt lat="49.05808281184724" lon="6.380292702971243"><ele>271.0</ele><time>2026-04-20T12:57:41.999Z</time></trkpt><trkpt lat="49.05816158317099" lon="6.380085595263776"><ele>271.0</ele><time>2026-04-20T12:57:42.999Z</time></trkpt><trkpt lat="49.05824121723363" lon="6.3798784765498695"><ele>271.0</ele><time>2026-04-20T12:57:43.999Z</time></trkpt><trkpt lat="49.05832058764378" lon="6.3796716641450475"><ele>271.0</ele><time>2026-04-20T12:57:44.999Z</time></trkpt><trkpt lat="49.058403026005806" lon="6.379459776016918"><ele>270.66666666666663</ele><time>2026-04-20T12:57:45.999Z</time></trkpt><trkpt lat="49.05848677129776" lon="6.379244770052139"><ele>270.3333333333333</ele><time>2026-04-20T12:57:46.999Z</time></trkpt><trkpt lat="49.0585697535774" lon="6.379031927216983"><ele>270.0</ele><time>2026-04-20T12:57:47.999Z</time></trkpt><trkpt lat="49.05864890088443" lon="6.378822865944139"><ele>271.3333333333333</ele><time>2026-04-20T12:57:48.999Z</time></trkpt><trkpt lat="49.05872914248972" lon="6.378609156701655"><ele>272.66666666666663</ele><time>2026-04-20T12:57:49.999Z</time></trkpt><trkpt lat="49.0588111852687" lon="6.378391410784826"><ele>274.0</ele><time>2026-04-20T12:57:50.999Z</time></trkpt><trkpt lat="49.05890253062207" lon="6.378179232759524"><ele>274.0</ele><time>2026-04-20T12:57:51.999Z</time></trkpt><trkpt lat="49.058990666787174" lon="6.377956027493661"><ele>274.0</ele><time>2026-04-20T12:57:52.999Z</time></trkpt><trkpt lat="49.05907334544268" lon="6.377737856951009"><ele>274.0</ele><time>2026-04-20T12:57:53.999Z</time></trkpt><trkpt lat="49.05914772491843" lon="6.377530909741148"><ele>274.3333333333333</ele><time>2026-04-20T12:57:54.999Z</time></trkpt><trkpt lat="49.0592237240065" lon="6.3773254143589355"><ele>274.6666666666667</ele><time>2026-04-20T12:57:55.999Z</time></trkpt><trkpt lat="49.05929997383546" lon="6.377119480570282"><ele>275.0</ele><time>2026-04-20T12:57:56.999Z</time></trkpt><trkpt lat="49.05937813009512" lon="6.3769126471610775"><ele>275.0</ele><time>2026-04-20T12:57:57.999Z</time></trkpt><trkpt lat="49.05945288472829" lon="6.376710928972525"><ele>275.0</ele><time>2026-04-20T12:57:58.999Z</time></trkpt><trkpt lat="49.05953146669569" lon="6.376507450065255"><ele>275.0</ele><time>2026-04-20T12:57:59.999Z</time></trkpt><trkpt lat="49.05961105658245" lon="6.37630212581661"><ele>275.33333333333337</ele><time>2026-04-20T12:58:00.999Z</time></trkpt><trkpt lat="49.05968483767545" lon="6.376098920829088"><ele>275.6666666666667</ele><time>2026-04-20T12:58:01.999Z</time></trkpt><trkpt lat="49.05976371997871" lon="6.375900922968629"><ele>276.0</ele><time>2026-04-20T12:58:02.999Z</time></trkpt><trkpt lat="49.05983932394297" lon="6.375699228481635"><ele>277.0</ele><time>2026-04-20T12:58:03.999Z</time></trkpt><trkpt lat="49.0599153903493" lon="6.3754969149249385"><ele>278.0</ele><time>2026-04-20T12:58:04.999Z</time></trkpt><trkpt lat="49.05999153487919" lon="6.375296245955359"><ele>279.0</ele><time>2026-04-20T12:58:05.999Z</time></trkpt><trkpt lat="49.06006925595281" lon="6.375098209387224"><ele>280.5</ele><time>2026-04-20T12:58:06.999Z</time></trkpt><trkpt lat="49.06014469959301" lon="6.374902629870186"><ele>282.0</ele><time>2026-04-20T12:58:07.999Z</time></trkpt><trkpt lat="49.06021739079555" lon="6.374703855467766"><ele>283.5</ele><time>2026-04-20T12:58:08.999Z</time></trkpt><trkpt lat="49.06030317323742" lon="6.374517686604511"><ele>285.0</ele><time>2026-04-20T12:58:09.999Z</time></trkpt><trkpt lat="49.060371890857766" lon="6.37431896751148"><ele>285.5</ele><time>2026-04-20T12:58:10.999Z</time></trkpt><trkpt lat="49.06041925448685" lon="6.3741089368451425"><ele>286.0</ele><time>2026-04-20T12:58:11.999Z</time></trkpt><trkpt lat="49.060472777536106" lon="6.373897512250314"><ele>286.5</ele><time>2026-04-20T12:58:12.999Z</time></trkpt><trkpt lat="49.06053523418183" lon="6.373686757130765"><ele>287.0</ele><time>2026-04-20T12:58:13.999Z</time></trkpt><trkpt lat="49.060577824427256" lon="6.373472720027244"><ele>287.6666666666667</ele><time>2026-04-20T12:58:14.999Z</time></trkpt><trkpt lat="49.06061752873165" lon="6.373252987961017"><ele>288.3333333333333</ele><time>2026-04-20T12:58:15.999Z</time></trkpt><trkpt lat="49.06065368420821" lon="6.373024682355522"><ele>289.0</ele><time>2026-04-20T12:58:16.999Z</time></trkpt><trkpt lat="49.060673135186356" lon="6.372786382399479"><ele>289.3333333333333</ele><time>2026-04-20T12:58:17.999Z</time></trkpt><trkpt lat="49.060723595504314" lon="6.372560305445374"><ele>289.6666666666667</ele><time>2026-04-20T12:58:18.999Z</time></trkpt><trkpt lat="49.06075897803827" lon="6.372325281681463"><ele>290.0</ele><time>2026-04-20T12:58:19.999Z</time></trkpt><trkpt lat="49.060794168181076" lon="6.372091535656508"><ele>289.33333333333337</ele><time>2026-04-20T12:58:20.999Z</time></trkpt><trkpt lat="49.060829098420456" lon="6.371857959661734"><ele>288.6666666666667</ele><time>2026-04-20T12:58:21.999Z</time></trkpt><trkpt lat="49.06086410697749" lon="6.371623747450467"><ele>288.0</ele><time>2026-04-20T12:58:22.999Z</time></trkpt><trkpt lat="49.06089873526108" lon="6.37138653615477"><ele>289.0</ele><time>2026-04-20T12:58:23.999Z</time></trkpt><trkpt lat="49.060915977205575" lon="6.371149469648588"><ele>290.0</ele><time>2026-04-20T12:58:24.999Z</time></trkpt><trkpt lat="49.0609413433733" lon="6.370918036192939"><ele>291.0</ele><time>2026-04-20T12:58:25.999Z</time></trkpt><trkpt lat="49.06095102502569" lon="6.370682856327304"><ele>291.3333333333333</ele><time>2026-04-20T12:58:26.999Z</time></trkpt><trkpt lat="49.0609523156298" lon="6.370451063962656"><ele>291.66666666666663</ele><time>2026-04-20T12:58:27.999Z</time></trkpt><trkpt lat="49.060940066009714" lon="6.370221663302243"><ele>292.0</ele><time>2026-04-20T12:58:28.999Z</time></trkpt><trkpt lat="49.06091359341543" lon="6.3699874418487425"><ele>292.0</ele><time>2026-04-20T12:58:29.999Z</time></trkpt><trkpt lat="49.060877167523934" lon="6.369755380319974"><ele>292.0</ele><time>2026-04-20T12:58:30.999Z</time></trkpt><trkpt lat="49.060842771099125" lon="6.369524113654268"><ele>292.0</ele><time>2026-04-20T12:58:31.999Z</time></trkpt><trkpt lat="49.060806383727275" lon="6.369291226517044"><ele>291.0</ele><time>2026-04-20T12:58:32.999Z</time></trkpt><trkpt lat="49.060765393794135" lon="6.369067078448825"><ele>290.0</ele><time>2026-04-20T12:58:33.999Z</time></trkpt><trkpt lat="49.06072084600252" lon="6.368851408054432"><ele>289.0</ele><time>2026-04-20T12:58:34.999Z</time></trkpt><trkpt lat="49.060680988250326" lon="6.368633260058898"><ele>288.0</ele><time>2026-04-20T12:58:35.999Z</time></trkpt><trkpt lat="49.06065146984769" lon="6.36841319075343"><ele>288.0</ele><time>2026-04-20T12:58:36.999Z</time></trkpt><trkpt lat="49.06062930342736" lon="6.368184116735422"><ele>288.0</ele><time>2026-04-20T12:58:37.999Z</time></trkpt><trkpt lat="49.06062286439286" lon="6.367950332072182"><ele>288.0</ele><time>2026-04-20T12:58:38.999Z</time></trkpt><trkpt lat="49.06061372730477" lon="6.36772000452116"><ele>288.25</ele><time>2026-04-20T12:58:39.999Z</time></trkpt><trkpt lat="49.06061037609037" lon="6.367489482472166"><ele>288.5</ele><time>2026-04-20T12:58:40.999Z</time></trkpt><trkpt lat="49.060606104593255" lon="6.367267412584649"><ele>288.75</ele><time>2026-04-20T12:58:41.999Z</time></trkpt><trkpt lat="49.060600402760095" lon="6.367048055858725"><ele>289.0</ele><time>2026-04-20T12:58:42.999Z</time></trkpt><trkpt lat="49.06059524195187" lon="6.366823327916288"><ele>289.25</ele><time>2026-04-20T12:58:43.999Z</time></trkpt><trkpt lat="49.060592567467395" lon="6.366600270800628"><ele>289.5</ele><time>2026-04-20T12:58:44.999Z</time></trkpt><trkpt lat="49.0605940924027" lon="6.366378798220498"><ele>289.75</ele><time>2026-04-20T12:58:45.999Z</time></trkpt><trkpt lat="49.06059104507697" lon="6.3661621654916045"><ele>290.0</ele><time>2026-04-20T12:58:46.999Z</time></trkpt><trkpt lat="49.060589040826656" lon="6.365954546667373"><ele>289.75</ele><time>2026-04-20T12:58:47.999Z</time></trkpt><trkpt lat="49.06058819252477" lon="6.3657255762068505"><ele>289.5</ele><time>2026-04-20T12:58:48.999Z</time></trkpt><trkpt lat="49.06058445357574" lon="6.365499032405578"><ele>289.25</ele><time>2026-04-20T12:58:49.999Z</time></trkpt><trkpt lat="49.06057971070675" lon="6.36526901804175"><ele>289.0</ele><time>2026-04-20T12:58:50.999Z</time></trkpt><trkpt lat="49.060574412779246" lon="6.365034405720306"><ele>289.0</ele><time>2026-04-20T12:58:52Z</time></trkpt><trkpt lat="49.06057193867746" lon="6.364796436076173"><ele>289.0</ele><time>2026-04-20T12:58:53Z</time></trkpt><trkpt lat="49.06056495649531" lon="6.3645627236041475"><ele>289.0</ele><time>2026-04-20T12:58:54Z</time></trkpt><trkpt lat="49.06056267845688" lon="6.364328477663425"><ele>289.25</ele><time>2026-04-20T12:58:55Z</time></trkpt><trkpt lat="49.06055925288356" lon="6.364098759356987"><ele>289.5</ele><time>2026-04-20T12:58:56Z</time></trkpt><trkpt lat="49.06056057946531" lon="6.363883249010676"><ele>289.75</ele><time>2026-04-20T12:58:57Z</time></trkpt><trkpt lat="49.06055422887948" lon="6.363651600512293"><ele>290.0</ele><time>2026-04-20T12:58:58Z</time></trkpt><trkpt lat="49.060548316050465" lon="6.363417631161271"><ele>290.0</ele><time>2026-04-20T12:58:59Z</time></trkpt><trkpt lat="49.06054295669143" lon="6.363183483280706"><ele>290.0</ele><time>2026-04-20T12:59:00Z</time></trkpt><trkpt lat="49.06053667350812" lon="6.362943783009156"><ele>290.0</ele><time>2026-04-20T12:59:01Z</time></trkpt><trkpt lat="49.06053002703444" lon="6.362700052897466"><ele>289.5</ele><time>2026-04-20T12:59:02Z</time></trkpt><trkpt lat="49.060529693858115" lon="6.362471656831986"><ele>289.0</ele><time>2026-04-20T12:59:03Z</time></trkpt><trkpt lat="49.06053598162807" lon="6.362249931680958"><ele>288.5</ele><time>2026-04-20T12:59:04Z</time></trkpt><trkpt lat="49.06054359383294" lon="6.362025544887443"><ele>288.0</ele><time>2026-04-20T12:59:05Z</time></trkpt><trkpt lat="49.06055615006828" lon="6.361792581206154"><ele>286.6666666666667</ele><time>2026-04-20T12:59:06Z</time></trkpt><trkpt lat="49.06058526423773" lon="6.361568462585637"><ele>285.33333333333337</ele><time>2026-04-20T12:59:07Z</time></trkpt><trkpt lat="49.06062745866989" lon="6.361340958125504"><ele>284.0</ele><time>2026-04-20T12:59:08Z</time></trkpt><trkpt lat="49.06067652522132" lon="6.361123440984177"><ele>283.6666666666667</ele><time>2026-04-20T12:59:09Z</time></trkpt><trkpt lat="49.06075063255084" lon="6.360917499713075"><ele>283.3333333333333</ele><time>2026-04-20T12:59:10Z</time></trkpt><trkpt lat="49.06081929434032" lon="6.360718346293824"><ele>283.0</ele><time>2026-04-20T12:59:11Z</time></trkpt><trkpt lat="49.0608895026819" lon="6.36051023610299"><ele>281.66666666666663</ele><time>2026-04-20T12:59:12Z</time></trkpt><trkpt lat="49.0609575903741" lon="6.360306452519678"><ele>280.3333333333333</ele><time>2026-04-20T12:59:13Z</time></trkpt><trkpt lat="49.061031107340334" lon="6.3601024812782425"><ele>279.0</ele><time>2026-04-20T12:59:14Z</time></trkpt><trkpt lat="49.06110316940621" lon="6.35989377922701"><ele>278.25</ele><time>2026-04-20T12:59:15Z</time></trkpt><trkpt lat="49.06116876617109" lon="6.359686386400077"><ele>277.5</ele><time>2026-04-20T12:59:16Z</time></trkpt><trkpt lat="49.06123681998133" lon="6.359481778758362"><ele>276.75</ele><time>2026-04-20T12:59:17Z</time></trkpt><trkpt lat="49.061301883112534" lon="6.359280384638034"><ele>276.0</ele><time>2026-04-20T12:59:18Z</time></trkpt><trkpt lat="49.06137233488198" lon="6.359072367923349"><ele>276.0</ele><time>2026-04-20T12:59:19Z</time></trkpt><trkpt lat="49.06144078382886" lon="6.3588679162746375"><ele>276.0</ele><time>2026-04-20T12:59:20Z</time></trkpt><trkpt lat="49.06151102551141" lon="6.3586641173994565"><ele>276.0</ele><time>2026-04-20T12:59:21Z</time></trkpt><trkpt lat="49.061583280750625" lon="6.358465135000889"><ele>275.5</ele><time>2026-04-20T12:59:22Z</time></trkpt><trkpt lat="49.061648163222934" lon="6.358262342521285"><ele>275.0</ele><time>2026-04-20T12:59:23Z</time></trkpt><trkpt lat="49.06170641707618" lon="6.358060651250009"><ele>274.5</ele><time>2026-04-20T12:59:24Z</time></trkpt><trkpt lat="49.061774780691856" lon="6.357860412472409"><ele>274.0</ele><time>2026-04-20T12:59:25Z</time></trkpt><trkpt lat="49.06184125880941" lon="6.357664911008613"><ele>273.5</ele><time>2026-04-20T12:59:26Z</time></trkpt><trkpt lat="49.06190985695155" lon="6.357461637663366"><ele>273.0</ele><time>2026-04-20T12:59:27Z</time></trkpt><trkpt lat="49.061982073559" lon="6.357261309027701"><ele>272.5</ele><time>2026-04-20T12:59:28Z</time></trkpt><trkpt lat="49.062051208028166" lon="6.3570591110789705"><ele>272.0</ele><time>2026-04-20T12:59:29Z</time></trkpt><trkpt lat="49.062120235574554" lon="6.356858350619481"><ele>271.0</ele><time>2026-04-20T12:59:30Z</time></trkpt><trkpt lat="49.06218797826871" lon="6.356657135865697"><ele>270.0</ele><time>2026-04-20T12:59:31Z</time></trkpt><trkpt lat="49.06225429221828" lon="6.356453233708684"><ele>269.0</ele><time>2026-04-20T12:59:32Z</time></trkpt><trkpt lat="49.06232418875614" lon="6.356246522581752"><ele>269.0</ele><time>2026-04-20T12:59:33Z</time></trkpt><trkpt lat="49.06239154096552" lon="6.3560375354735275"><ele>269.0</ele><time>2026-04-20T12:59:34Z</time></trkpt><trkpt lat="49.06245844209033" lon="6.355837836311299"><ele>269.0</ele><time>2026-04-20T12:59:35Z</time></trkpt><trkpt lat="49.06253034768438" lon="6.355638197083993"><ele>269.0</ele><time>2026-04-20T12:59:36Z</time></trkpt><trkpt lat="49.06259674909503" lon="6.35543544632375"><ele>268.0</ele><time>2026-04-20T12:59:37Z</time></trkpt><trkpt lat="49.06266394893598" lon="6.355232682867304"><ele>267.0</ele><time>2026-04-20T12:59:38Z</time></trkpt><trkpt lat="49.06272776396032" lon="6.355031009575783"><ele>266.0</ele><time>2026-04-20T12:59:39Z</time></trkpt><trkpt lat="49.06279822228124" lon="6.3548334303938905"><ele>265.0</ele><time>2026-04-20T12:59:40Z</time></trkpt><trkpt lat="49.06286550423025" lon="6.354626479838359"><ele>263.66666666666663</ele><time>2026-04-20T12:59:41Z</time></trkpt><trkpt lat="49.062934080661535" lon="6.3544242279207435"><ele>262.3333333333333</ele><time>2026-04-20T12:59:42Z</time></trkpt><trkpt lat="49.063005603163184" lon="6.354215591257379"><ele>261.0</ele><time>2026-04-20T12:59:43Z</time></trkpt><trkpt lat="49.063074399913226" lon="6.354009625011904"><ele>260.3333333333333</ele><time>2026-04-20T12:59:44Z</time></trkpt><trkpt lat="49.063142666817974" lon="6.353802870968038"><ele>259.66666666666663</ele><time>2026-04-20T12:59:44.999Z</time></trkpt><trkpt lat="49.06321146527275" lon="6.353592563629076"><ele>259.0</ele><time>2026-04-20T12:59:45.999Z</time></trkpt><trkpt lat="49.063279184497496" lon="6.353386239690595"><ele>258.75</ele><time>2026-04-20T12:59:46.999Z</time></trkpt><trkpt lat="49.063345004790094" lon="6.353187837894058"><ele>258.5</ele><time>2026-04-20T12:59:47.999Z</time></trkpt><trkpt lat="49.063414072064916" lon="6.352987330857911"><ele>258.25</ele><time>2026-04-20T12:59:48.999Z</time></trkpt><trkpt lat="49.063483520960105" lon="6.352780109667286"><ele>258.0</ele><time>2026-04-20T12:59:49.999Z</time></trkpt><trkpt lat="49.06354994659379" lon="6.352574139968553"><ele>258.0</ele><time>2026-04-20T12:59:50.999Z</time></trkpt><trkpt lat="49.063619739217" lon="6.352375528012707"><ele>258.0</ele><time>2026-04-20T12:59:51.999Z</time></trkpt><trkpt lat="49.06369144567252" lon="6.352165497264493"><ele>258.0</ele><time>2026-04-20T12:59:52.999Z</time></trkpt><trkpt lat="49.06375881613221" lon="6.351967730128733"><ele>258.0</ele><time>2026-04-20T12:59:53.999Z</time></trkpt><trkpt lat="49.06382296847021" lon="6.351767184944106"><ele>256.5</ele><time>2026-04-20T12:59:54.999Z</time></trkpt><trkpt lat="49.0638888384917" lon="6.351569352438292"><ele>255.0</ele><time>2026-04-20T12:59:55.999Z</time></trkpt><trkpt lat="49.06395620362015" lon="6.351371530526555"><ele>253.5</ele><time>2026-04-20T12:59:56.999Z</time></trkpt><trkpt lat="49.064019307689556" lon="6.3511753500729995"><ele>252.0</ele><time>2026-04-20T12:59:57.999Z</time></trkpt><trkpt lat="49.06408780797291" lon="6.350977547305116"><ele>251.25</ele><time>2026-04-20T12:59:58.999Z</time></trkpt><trkpt lat="49.064153813828845" lon="6.350783545039363"><ele>250.5</ele><time>2026-04-20T12:59:59.999Z</time></trkpt><trkpt lat="49.06421879719727" lon="6.350587690484077"><ele>249.75</ele><time>2026-04-20T13:00:00.999Z</time></trkpt><trkpt lat="49.064283363903904" lon="6.350389497051217"><ele>249.0</ele><time>2026-04-20T13:00:01.999Z</time></trkpt><trkpt lat="49.064348253185905" lon="6.350192520195579"><ele>248.5</ele><time>2026-04-20T13:00:02.999Z</time></trkpt><trkpt lat="49.06441235832878" lon="6.349994933747673"><ele>248.0</ele><time>2026-04-20T13:00:03.999Z</time></trkpt><trkpt lat="49.064478490022914" lon="6.349796238425475"><ele>247.5</ele><time>2026-04-20T13:00:04.999Z</time></trkpt><trkpt lat="49.064548057889986" lon="6.349594690662241"><ele>247.0</ele><time>2026-04-20T13:00:05.999Z</time></trkpt><trkpt lat="49.06461320780718" lon="6.349395928155359"><ele>246.25</ele><time>2026-04-20T13:00:06.999Z</time></trkpt><trkpt lat="49.06467792816844" lon="6.349198791285473"><ele>245.5</ele><time>2026-04-20T13:00:07.999Z</time></trkpt><trkpt lat="49.06474130835824" lon="6.348997395787145"><ele>244.75</ele><time>2026-04-20T13:00:08.999Z</time></trkpt><trkpt lat="49.064818117132305" lon="6.348797436542906"><ele>244.0</ele><time>2026-04-20T13:00:09.999Z</time></trkpt><trkpt lat="49.06486059341797" lon="6.348571143137125"><ele>243.25</ele><time>2026-04-20T13:00:10.999Z</time></trkpt><trkpt lat="49.06491260088985" lon="6.34835645356915"><ele>242.5</ele><time>2026-04-20T13:00:11.999Z</time></trkpt><trkpt lat="49.0649619162097" lon="6.348145460653285"><ele>241.75</ele><time>2026-04-20T13:00:12.999Z</time></trkpt><trkpt lat="49.06501192771059" lon="6.347929460394204"><ele>241.0</ele><time>2026-04-20T13:00:13.999Z</time></trkpt><trkpt lat="49.06505795694211" lon="6.347713495952307"><ele>240.5</ele><time>2026-04-20T13:00:14.999Z</time></trkpt><trkpt lat="49.065105941688586" lon="6.347496316453485"><ele>240.0</ele><time>2026-04-20T13:00:15.999Z</time></trkpt><trkpt lat="49.065171751559504" lon="6.347293361340034"><ele>239.5</ele><time>2026-04-20T13:00:16.999Z</time></trkpt><trkpt lat="49.06520734343656" lon="6.347070454697875"><ele>239.0</ele><time>2026-04-20T13:00:17.999Z</time></trkpt><trkpt lat="49.065261566372854" lon="6.346850206616937"><ele>239.0</ele><time>2026-04-20T13:00:18.999Z</time></trkpt><trkpt lat="49.06530879752958" lon="6.346630847676185"><ele>239.0</ele><time>2026-04-20T13:00:19.999Z</time></trkpt><trkpt lat="49.06535628467985" lon="6.346413486723624"><ele>239.0</ele><time>2026-04-20T13:00:20.999Z</time></trkpt><trkpt lat="49.065406353860894" lon="6.346191632007038"><ele>238.33333333333334</ele><time>2026-04-20T13:00:21.999Z</time></trkpt><trkpt lat="49.065456981452414" lon="6.345970252025136"><ele>237.66666666666669</ele><time>2026-04-20T13:00:22.999Z</time></trkpt><trkpt lat="49.065507091824244" lon="6.345749690015548"><ele>237.0</ele><time>2026-04-20T13:00:23.999Z</time></trkpt><trkpt lat="49.06555622621785" lon="6.3455400455415925"><ele>236.75</ele><time>2026-04-20T13:00:24.999Z</time></trkpt><trkpt lat="49.065605412425896" lon="6.345333425845594"><ele>236.5</ele><time>2026-04-20T13:00:25.999Z</time></trkpt><trkpt lat="49.06565824052773" lon="6.345126649724626"><ele>236.25</ele><time>2026-04-20T13:00:26.999Z</time></trkpt><trkpt lat="49.065728976880585" lon="6.344946375784819"><ele>236.0</ele><time>2026-04-20T13:00:27.999Z</time></trkpt><trkpt lat="49.06582887570922" lon="6.344763097208953"><ele>235.0</ele><time>2026-04-20T13:00:28.999Z</time></trkpt><trkpt lat="49.065938770345845" lon="6.344611224373207"><ele>234.0</ele><time>2026-04-20T13:00:29.999Z</time></trkpt><trkpt lat="49.06606038913237" lon="6.344473594753904"><ele>233.0</ele><time>2026-04-20T13:00:30.999Z</time></trkpt><trkpt lat="49.06619167316168" lon="6.344351208414136"><ele>233.0</ele><time>2026-04-20T13:00:31.999Z</time></trkpt><trkpt lat="49.066326132454556" lon="6.344243712994462"><ele>233.0</ele><time>2026-04-20T13:00:32.999Z</time></trkpt><trkpt lat="49.06646948963028" lon="6.34415334957198"><ele>233.0</ele><time>2026-04-20T13:00:33.999Z</time></trkpt><trkpt lat="49.06661835919688" lon="6.34408857231744"><ele>233.5</ele><time>2026-04-20T13:00:34.999Z</time></trkpt><trkpt lat="49.06676303442782" lon="6.344036431690144"><ele>234.0</ele><time>2026-04-20T13:00:35.999Z</time></trkpt><trkpt lat="49.066903030395366" lon="6.344003000050989"><ele>234.5</ele><time>2026-04-20T13:00:36.999Z</time></trkpt><trkpt lat="49.067047537774485" lon="6.343988105284554"><ele>235.0</ele><time>2026-04-20T13:00:37.999Z</time></trkpt><trkpt lat="49.06719583700653" lon="6.343974677248789"><ele>235.0</ele><time>2026-04-20T13:00:38.999Z</time></trkpt><trkpt lat="49.067343381497835" lon="6.343960682114743"><ele>235.0</ele><time>2026-04-20T13:00:39.999Z</time></trkpt><trkpt lat="49.06749168575076" lon="6.343949218272436"><ele>235.0</ele><time>2026-04-20T13:00:40.999Z</time></trkpt><trkpt lat="49.06763862107729" lon="6.34393615442248"><ele>235.0</ele><time>2026-04-20T13:00:41.999Z</time></trkpt><trkpt lat="49.067784707373946" lon="6.343922008482989"><ele>235.5</ele><time>2026-04-20T13:00:42.999Z</time></trkpt><trkpt lat="49.06793165463556" lon="6.343908498427036"><ele>236.0</ele><time>2026-04-20T13:00:43.999Z</time></trkpt><trkpt lat="49.0680769671058" lon="6.34389921838973"><ele>236.5</ele><time>2026-04-20T13:00:44.999Z</time></trkpt><trkpt lat="49.068226176712386" lon="6.343886794699473"><ele>237.0</ele><time>2026-04-20T13:00:45.999Z</time></trkpt><trkpt lat="49.068369150014775" lon="6.343876565871202"><ele>237.25</ele><time>2026-04-20T13:00:46.999Z</time></trkpt><trkpt lat="49.06851350496181" lon="6.343863780105551"><ele>237.5</ele><time>2026-04-20T13:00:47.999Z</time></trkpt><trkpt lat="49.068657141696974" lon="6.343851929076771"><ele>237.75</ele><time>2026-04-20T13:00:48.999Z</time></trkpt><trkpt lat="49.06879665376744" lon="6.343839468768235"><ele>238.0</ele><time>2026-04-20T13:00:49.999Z</time></trkpt><trkpt lat="49.06893413754876" lon="6.34382621346883"><ele>238.0</ele><time>2026-04-20T13:00:50.999Z</time></trkpt><trkpt lat="49.069072010559346" lon="6.343814285902357"><ele>238.0</ele><time>2026-04-20T13:00:51.999Z</time></trkpt><trkpt lat="49.069207284278065" lon="6.343801850456936"><ele>238.0</ele><time>2026-04-20T13:00:52.999Z</time></trkpt><trkpt lat="49.06934857077239" lon="6.343786691588543"><ele>238.0</ele><time>2026-04-20T13:00:53.999Z</time></trkpt><trkpt lat="49.06948694718789" lon="6.343773800447289"><ele>237.75</ele><time>2026-04-20T13:00:54.999Z</time></trkpt><trkpt lat="49.06963159711882" lon="6.343762357636579"><ele>237.5</ele><time>2026-04-20T13:00:55.999Z</time></trkpt><trkpt lat="49.06978102728462" lon="6.343752398894667"><ele>237.25</ele><time>2026-04-20T13:00:56.999Z</time></trkpt><trkpt lat="49.06993070522396" lon="6.343742947851125"><ele>237.0</ele><time>2026-04-20T13:00:58Z</time></trkpt><trkpt lat="49.07007258835361" lon="6.3437342470645985"><ele>236.75</ele><time>2026-04-20T13:00:59Z</time></trkpt><trkpt lat="49.070219327290786" lon="6.3437308542373385"><ele>236.5</ele><time>2026-04-20T13:01:00Z</time></trkpt><trkpt lat="49.07036686007057" lon="6.343734838366701"><ele>236.25</ele><time>2026-04-20T13:01:01Z</time></trkpt><trkpt lat="49.070516437386495" lon="6.343739392854087"><ele>236.0</ele><time>2026-04-20T13:01:02Z</time></trkpt><trkpt lat="49.07066213916744" lon="6.3437427836908915"><ele>235.25</ele><time>2026-04-20T13:01:03Z</time></trkpt><trkpt lat="49.07081073203058" lon="6.343747983076808"><ele>234.5</ele><time>2026-04-20T13:01:04Z</time></trkpt><trkpt lat="49.070958455396756" lon="6.34375475889269"><ele>233.75</ele><time>2026-04-20T13:01:05Z</time></trkpt><trkpt lat="49.0711066740344" lon="6.343758540165739"><ele>233.0</ele><time>2026-04-20T13:01:06Z</time></trkpt><trkpt lat="49.07125182982353" lon="6.343764703815711"><ele>233.0</ele><time>2026-04-20T13:01:07Z</time></trkpt><trkpt lat="49.071398640234776" lon="6.343769177335892"><ele>233.0</ele><time>2026-04-20T13:01:08Z</time></trkpt><trkpt lat="49.07154798177749" lon="6.343773183046061"><ele>233.0</ele><time>2026-04-20T13:01:09Z</time></trkpt><trkpt lat="49.07169800895989" lon="6.34377750813317"><ele>233.0</ele><time>2026-04-20T13:01:10Z</time></trkpt><trkpt lat="49.0718493564454" lon="6.343781576700946"><ele>232.0</ele><time>2026-04-20T13:01:11Z</time></trkpt><trkpt lat="49.071999346979" lon="6.343784980864838"><ele>231.0</ele><time>2026-04-20T13:01:12Z</time></trkpt><trkpt lat="49.07214755374394" lon="6.343789306625694"><ele>230.0</ele><time>2026-04-20T13:01:13Z</time></trkpt><trkpt lat="49.07229703134954" lon="6.343795435347577"><ele>229.0</ele><time>2026-04-20T13:01:14Z</time></trkpt><trkpt lat="49.07244334467391" lon="6.343806602232659"><ele>228.0</ele><time>2026-04-20T13:01:15Z</time></trkpt><trkpt lat="49.072590776093676" lon="6.34382936658144"><ele>227.0</ele><time>2026-04-20T13:01:16Z</time></trkpt><trkpt lat="49.07273622988092" lon="6.343885738052379"><ele>226.0</ele><time>2026-04-20T13:01:17Z</time></trkpt><trkpt lat="49.0728879903559" lon="6.343892544072227"><ele>226.0</ele><time>2026-04-20T13:01:18Z</time></trkpt><trkpt lat="49.073032296931544" lon="6.343943815973889"><ele>226.0</ele><time>2026-04-20T13:01:19Z</time></trkpt><trkpt lat="49.073178634269375" lon="6.343930408921654"><ele>226.0</ele><time>2026-04-20T13:01:20Z</time></trkpt><trkpt lat="49.07332420400952" lon="6.343921175821032"><ele>226.0</ele><time>2026-04-20T13:01:21Z</time></trkpt><trkpt lat="49.07346858026175" lon="6.343888048050736"><ele>225.0</ele><time>2026-04-20T13:01:22Z</time></trkpt><trkpt lat="49.073602837163875" lon="6.343827384898966"><ele>224.0</ele><time>2026-04-20T13:01:23Z</time></trkpt><trkpt lat="49.073741820842706" lon="6.343767247573675"><ele>223.0</ele><time>2026-04-20T13:01:24Z</time></trkpt><trkpt lat="49.07385720053325" lon="6.343633844655989"><ele>222.0</ele><time>2026-04-20T13:01:25Z</time></trkpt><trkpt lat="49.0739731305906" lon="6.34351083239466"><ele>222.0</ele><time>2026-04-20T13:01:26Z</time></trkpt><trkpt lat="49.07409007914097" lon="6.343381524386646"><ele>222.0</ele><time>2026-04-20T13:01:27Z</time></trkpt><trkpt lat="49.07421706510212" lon="6.343265595446026"><ele>222.0</ele><time>2026-04-20T13:01:28Z</time></trkpt><trkpt lat="49.0743253380045" lon="6.343110198588518"><ele>222.0</ele><time>2026-04-20T13:01:29Z</time></trkpt><trkpt lat="49.07443950522367" lon="6.342961964649178"><ele>220.0</ele><time>2026-04-20T13:01:30Z</time></trkpt><trkpt lat="49.07454696899576" lon="6.342788082286266"><ele>218.0</ele><time>2026-04-20T13:01:31Z</time></trkpt><trkpt lat="49.074648766896665" lon="6.342606776183221"><ele>216.0</ele><time>2026-04-20T13:01:32Z</time></trkpt><trkpt lat="49.074754492242974" lon="6.3424320244829495"><ele>216.0</ele><time>2026-04-20T13:01:33Z</time></trkpt><trkpt lat="49.07484159739885" lon="6.342248832869806"><ele>216.0</ele><time>2026-04-20T13:01:34Z</time></trkpt><trkpt lat="49.074919258964975" lon="6.34205531641581"><ele>216.0</ele><time>2026-04-20T13:01:35Z</time></trkpt><trkpt lat="49.07498999640666" lon="6.341850866066659"><ele>216.0</ele><time>2026-04-20T13:01:36Z</time></trkpt><trkpt lat="49.07503891258337" lon="6.341654269586223"><ele>216.33333333333334</ele><time>2026-04-20T13:01:37Z</time></trkpt><trkpt lat="49.075073828680324" lon="6.341480278776915"><ele>216.66666666666669</ele><time>2026-04-20T13:01:38Z</time></trkpt><trkpt lat="49.07509955871571" lon="6.341336689070239"><ele>217.0</ele><time>2026-04-20T13:01:39Z</time></trkpt><trkpt lat="49.07512943415447" lon="6.341217375003167"><ele>217.33333333333334</ele><time>2026-04-20T13:01:40Z</time></trkpt><trkpt lat="49.075182531913775" lon="6.34113026883703"><ele>217.66666666666669</ele><time>2026-04-20T13:01:41Z</time></trkpt><trkpt lat="49.075240650811175" lon="6.341077846095553"><ele>218.0</ele><time>2026-04-20T13:01:42Z</time></trkpt><trkpt lat="49.07531584053974" lon="6.341039178008332"><ele>218.00000000000003</ele><time>2026-04-20T13:01:44Z</time></trkpt><trkpt lat="49.07537468928295" lon="6.341002344951368"><ele>218.0</ele><time>2026-04-20T13:01:46Z</time></trkpt><trkpt lat="49.07536456251324" lon="6.340857528948778"><ele>218.0</ele><time>2026-04-20T13:01:47Z</time></trkpt><trkpt lat="49.07534007377344" lon="6.3407479679704615"><ele>218.0</ele><time>2026-04-20T13:01:48Z</time></trkpt><trkpt lat="49.07532157890731" lon="6.34064140119869"><ele>218.00000000000003</ele><time>2026-04-20T13:01:48.999Z</time></trkpt><trkpt lat="49.07530913390295" lon="6.3405044584359835"><ele>218.0</ele><time>2026-04-20T13:01:49.999Z</time></trkpt><trkpt lat="49.07530172872247" lon="6.340353596632663"><ele>217.75</ele><time>2026-04-20T13:01:50.999Z</time></trkpt><trkpt lat="49.07530577757218" lon="6.340192985797201"><ele>217.5</ele><time>2026-04-20T13:01:51.999Z</time></trkpt><trkpt lat="49.07532811605332" lon="6.340014609360927"><ele>217.25</ele><time>2026-04-20T13:01:52.999Z</time></trkpt><trkpt lat="49.07535979262636" lon="6.339822920149723"><ele>217.0</ele><time>2026-04-20T13:01:53.999Z</time></trkpt><trkpt lat="49.07539657744531" lon="6.339633232783869"><ele>216.75</ele><time>2026-04-20T13:01:54.999Z</time></trkpt><trkpt lat="49.075432414911326" lon="6.339428243436273"><ele>216.5</ele><time>2026-04-20T13:01:55.999Z</time></trkpt><trkpt lat="49.07546984206469" lon="6.339215906980315"><ele>216.25</ele><time>2026-04-20T13:01:56.999Z</time></trkpt><trkpt lat="49.07550969627627" lon="6.338999829012473"><ele>216.0</ele><time>2026-04-20T13:01:57.999Z</time></trkpt><trkpt lat="49.07555222379684" lon="6.338789222846317"><ele>215.66666666666669</ele><time>2026-04-20T13:01:58.999Z</time></trkpt><trkpt lat="49.07559532483375" lon="6.338567351225764"><ele>215.33333333333334</ele><time>2026-04-20T13:01:59.999Z</time></trkpt><trkpt lat="49.075641334147676" lon="6.338345018727684"><ele>215.0</ele><time>2026-04-20T13:02:00.999Z</time></trkpt><trkpt lat="49.07568596724943" lon="6.338117825229962"><ele>214.66666666666669</ele><time>2026-04-20T13:02:01.999Z</time></trkpt><trkpt lat="49.07573107060765" lon="6.337890571082769"><ele>214.33333333333331</ele><time>2026-04-20T13:02:02.999Z</time></trkpt><trkpt lat="49.07577542141526" lon="6.337665439945229"><ele>214.0</ele><time>2026-04-20T13:02:03.999Z</time></trkpt><trkpt lat="49.07581951624018" lon="6.337437925639032"><ele>214.66666666666666</ele><time>2026-04-20T13:02:04.999Z</time></trkpt><trkpt lat="49.0758613374821" lon="6.337219679416855"><ele>215.33333333333331</ele><time>2026-04-20T13:02:05.999Z</time></trkpt><trkpt lat="49.075904231837896" lon="6.336997142350365"><ele>216.0</ele><time>2026-04-20T13:02:06.999Z</time></trkpt><trkpt lat="49.07594748615109" lon="6.336771106138466"><ele>216.33333333333331</ele><time>2026-04-20T13:02:07.999Z</time></trkpt><trkpt lat="49.07598999932934" lon="6.336544437806594"><ele>216.66666666666666</ele><time>2026-04-20T13:02:08.999Z</time></trkpt><trkpt lat="49.076033887686116" lon="6.33631267435299"><ele>217.0</ele><time>2026-04-20T13:02:09.999Z</time></trkpt><trkpt lat="49.07607478372756" lon="6.336078871418649"><ele>217.33333333333331</ele><time>2026-04-20T13:02:10.999Z</time></trkpt><trkpt lat="49.07611192793226" lon="6.335851345374818"><ele>217.66666666666669</ele><time>2026-04-20T13:02:11.999Z</time></trkpt><trkpt lat="49.07614763783708" lon="6.335620079076931"><ele>218.0</ele><time>2026-04-20T13:02:12.999Z</time></trkpt><trkpt lat="49.076179815161254" lon="6.335392004159844"><ele>218.66666666666669</ele><time>2026-04-20T13:02:13.999Z</time></trkpt><trkpt lat="49.07621099997743" lon="6.335164245407436"><ele>219.33333333333331</ele><time>2026-04-20T13:02:14.999Z</time></trkpt><trkpt lat="49.076234118634" lon="6.334937422218603"><ele>220.0</ele><time>2026-04-20T13:02:15.999Z</time></trkpt><trkpt lat="49.07625766824994" lon="6.334708955710177"><ele>220.75</ele><time>2026-04-20T13:02:16.999Z</time></trkpt><trkpt lat="49.07628178326008" lon="6.334483487059464"><ele>221.5</ele><time>2026-04-20T13:02:17.999Z</time></trkpt><trkpt lat="49.07630428410138" lon="6.3342584355773806"><ele>222.25</ele><time>2026-04-20T13:02:18.999Z</time></trkpt><trkpt lat="49.07631845983621" lon="6.334035523048885"><ele>223.0</ele><time>2026-04-20T13:02:19.999Z</time></trkpt><trkpt lat="49.07634155308134" lon="6.333811216643014"><ele>223.5</ele><time>2026-04-20T13:02:20.999Z</time></trkpt><trkpt lat="49.076362624234996" lon="6.333588610492478"><ele>224.0</ele><time>2026-04-20T13:02:21.999Z</time></trkpt><trkpt lat="49.07638468899475" lon="6.333365054760499"><ele>224.5</ele><time>2026-04-20T13:02:22.999Z</time></trkpt><trkpt lat="49.07640981151152" lon="6.333142593631749"><ele>225.0</ele><time>2026-04-20T13:02:23.999Z</time></trkpt><trkpt lat="49.07643335599982" lon="6.332914028863005"><ele>226.33333333333331</ele><time>2026-04-20T13:02:24.999Z</time></trkpt><trkpt lat="49.07645691851414" lon="6.3326830931156906"><ele>227.66666666666666</ele><time>2026-04-20T13:02:25.999Z</time></trkpt><trkpt lat="49.07648201355259" lon="6.332452224738355"><ele>229.0</ele><time>2026-04-20T13:02:26.999Z</time></trkpt><trkpt lat="49.07650553425294" lon="6.332221083645302"><ele>229.66666666666666</ele><time>2026-04-20T13:02:27.999Z</time></trkpt><trkpt lat="49.07652857813516" lon="6.331988575467056"><ele>230.33333333333331</ele><time>2026-04-20T13:02:28.999Z</time></trkpt><trkpt lat="49.07655223169404" lon="6.3317546155213345"><ele>231.0</ele><time>2026-04-20T13:02:29.999Z</time></trkpt><trkpt lat="49.076575554482154" lon="6.33153791536097"><ele>231.0</ele><time>2026-04-20T13:02:30.999Z</time></trkpt><trkpt lat="49.07659549587216" lon="6.331310612468497"><ele>231.0</ele><time>2026-04-20T13:02:31.999Z</time></trkpt><trkpt lat="49.07661703016369" lon="6.331079178349002"><ele>231.0</ele><time>2026-04-20T13:02:32.999Z</time></trkpt><trkpt lat="49.076641030010585" lon="6.3308433574095"><ele>230.66666666666669</ele><time>2026-04-20T13:02:33.999Z</time></trkpt><trkpt lat="49.07666609815287" lon="6.330603915796621"><ele>230.33333333333334</ele><time>2026-04-20T13:02:34.999Z</time></trkpt><trkpt lat="49.076690572487294" lon="6.33036416450096"><ele>230.0</ele><time>2026-04-20T13:02:35.999Z</time></trkpt><trkpt lat="49.07671476822852" lon="6.330129214129416"><ele>230.0</ele><time>2026-04-20T13:02:36.999Z</time></trkpt><trkpt lat="49.07673545519082" lon="6.329893330623014"><ele>230.0</ele><time>2026-04-20T13:02:37.999Z</time></trkpt><trkpt lat="49.07675975310926" lon="6.329656906195515"><ele>230.0</ele><time>2026-04-20T13:02:38.999Z</time></trkpt><trkpt lat="49.0767856131807" lon="6.3294195831769695"><ele>232.0</ele><time>2026-04-20T13:02:39.999Z</time></trkpt><trkpt lat="49.07681053282079" lon="6.329181949530286"><ele>234.0</ele><time>2026-04-20T13:02:40.999Z</time></trkpt><trkpt lat="49.07683420641915" lon="6.328952290253869"><ele>236.0</ele><time>2026-04-20T13:02:41.999Z</time></trkpt><trkpt lat="49.076854195248515" lon="6.328731283242006"><ele>237.0</ele><time>2026-04-20T13:02:42.999Z</time></trkpt><trkpt lat="49.07687093060464" lon="6.328504153850451"><ele>238.0</ele><time>2026-04-20T13:02:43.999Z</time></trkpt><trkpt lat="49.07688933690949" lon="6.32827685307295"><ele>239.0</ele><time>2026-04-20T13:02:44.999Z</time></trkpt><trkpt lat="49.0769092429392" lon="6.328047229799267"><ele>239.25</ele><time>2026-04-20T13:02:45.999Z</time></trkpt><trkpt lat="49.076927756093106" lon="6.327814360155385"><ele>239.5</ele><time>2026-04-20T13:02:46.999Z</time></trkpt><trkpt lat="49.076945047130295" lon="6.327592919251699"><ele>239.75</ele><time>2026-04-20T13:02:47.999Z</time></trkpt><trkpt lat="49.0769623496892" lon="6.327391065914794"><ele>240.0</ele><time>2026-04-20T13:02:48.999Z</time></trkpt><trkpt lat="49.0769777417246" lon="6.327202138996564"><ele>240.6</ele><time>2026-04-20T13:02:49.999Z</time></trkpt><trkpt lat="49.07699472829083" lon="6.32703095156325"><ele>241.2</ele><time>2026-04-20T13:02:50.999Z</time></trkpt><trkpt lat="49.07700578030444" lon="6.326878523544793"><ele>241.8</ele><time>2026-04-20T13:02:51.999Z</time></trkpt><trkpt lat="49.07701902194865" lon="6.326737021547361"><ele>242.4</ele><time>2026-04-20T13:02:52.999Z</time></trkpt><trkpt lat="49.077032651903295" lon="6.326598921006732"><ele>243.0</ele><time>2026-04-20T13:02:53.999Z</time></trkpt><trkpt lat="49.07704489430138" lon="6.326467296364805"><ele>243.0</ele><time>2026-04-20T13:02:54.999Z</time></trkpt><trkpt lat="49.07705605860941" lon="6.326350295803868"><ele>243.0</ele><time>2026-04-20T13:02:55.999Z</time></trkpt><trkpt lat="49.07707374368117" lon="6.326220739036861"><ele>243.0</ele><time>2026-04-20T13:02:56.999Z</time></trkpt><trkpt lat="49.07709168083555" lon="6.32607259208003"><ele>243.0</ele><time>2026-04-20T13:02:57.999Z</time></trkpt><trkpt lat="49.07710726178645" lon="6.325913412507255"><ele>243.0</ele><time>2026-04-20T13:02:58.999Z</time></trkpt><trkpt lat="49.07712284249638" lon="6.325749507263578"><ele>243.0</ele><time>2026-04-20T13:02:59.999Z</time></trkpt><trkpt lat="49.077131510758726" lon="6.325575373437069"><ele>243.0</ele><time>2026-04-20T13:03:00.999Z</time></trkpt><trkpt lat="49.07714605549538" lon="6.325396888998544"><ele>243.0</ele><time>2026-04-20T13:03:01.999Z</time></trkpt><trkpt lat="49.07716098681467" lon="6.325216763023758"><ele>243.0</ele><time>2026-04-20T13:03:02.999Z</time></trkpt><trkpt lat="49.077180427940036" lon="6.325015337082847"><ele>243.25</ele><time>2026-04-20T13:03:04Z</time></trkpt><trkpt lat="49.07719965144853" lon="6.324808448017906"><ele>243.5</ele><time>2026-04-20T13:03:05Z</time></trkpt><trkpt lat="49.077217842621366" lon="6.3245991289923795"><ele>243.75</ele><time>2026-04-20T13:03:06Z</time></trkpt><trkpt lat="49.07723490503926" lon="6.324385789960969"><ele>244.0</ele><time>2026-04-20T13:03:07Z</time></trkpt><trkpt lat="49.07725542018227" lon="6.324175317514169"><ele>244.0</ele><time>2026-04-20T13:03:08Z</time></trkpt><trkpt lat="49.07727580458203" lon="6.323948422336299"><ele>244.0</ele><time>2026-04-20T13:03:09Z</time></trkpt><trkpt lat="49.077295595809865" lon="6.323716714474959"><ele>244.0</ele><time>2026-04-20T13:03:10Z</time></trkpt><trkpt lat="49.07731809031131" lon="6.323488434733772"><ele>243.5</ele><time>2026-04-20T13:03:11Z</time></trkpt><trkpt lat="49.077336468998375" lon="6.323267733207539"><ele>243.0</ele><time>2026-04-20T13:03:12Z</time></trkpt><trkpt lat="49.077356858214074" lon="6.323038140793929"><ele>242.5</ele><time>2026-04-20T13:03:13Z</time></trkpt><trkpt lat="49.077375566428" lon="6.32280923277311"><ele>242.0</ele><time>2026-04-20T13:03:14Z</time></trkpt><trkpt lat="49.07739448898136" lon="6.3225779883522915"><ele>241.75</ele><time>2026-04-20T13:03:15Z</time></trkpt><trkpt lat="49.07741475820649" lon="6.322355174460506"><ele>241.5</ele><time>2026-04-20T13:03:16Z</time></trkpt><trkpt lat="49.077434882384935" lon="6.322139047555826"><ele>241.25</ele><time>2026-04-20T13:03:17Z</time></trkpt><trkpt lat="49.07745578578049" lon="6.321916769049401"><ele>241.0</ele><time>2026-04-20T13:03:18Z</time></trkpt><trkpt lat="49.077479375105504" lon="6.321686551229294"><ele>242.0</ele><time>2026-04-20T13:03:19Z</time></trkpt><trkpt lat="49.07749863599617" lon="6.321460449743465"><ele>243.0</ele><time>2026-04-20T13:03:20Z</time></trkpt><trkpt lat="49.07752205381037" lon="6.321238804814499"><ele>244.0</ele><time>2026-04-20T13:03:21Z</time></trkpt><trkpt lat="49.07753930854532" lon="6.321019659636851"><ele>245.0</ele><time>2026-04-20T13:03:22Z</time></trkpt><trkpt lat="49.07755879376653" lon="6.320803097524444"><ele>245.0</ele><time>2026-04-20T13:03:23Z</time></trkpt><trkpt lat="49.07758142596204" lon="6.320586310999995"><ele>245.0</ele><time>2026-04-20T13:03:24Z</time></trkpt><trkpt lat="49.077602702869406" lon="6.32036426771348"><ele>245.0</ele><time>2026-04-20T13:03:25Z</time></trkpt><trkpt lat="49.07762534934416" lon="6.320140166144506"><ele>245.0</ele><time>2026-04-20T13:03:26Z</time></trkpt><trkpt lat="49.07764724769205" lon="6.3199180580082785"><ele>244.75</ele><time>2026-04-20T13:03:27Z</time></trkpt><trkpt lat="49.07767052252467" lon="6.319694103208079"><ele>244.5</ele><time>2026-04-20T13:03:28Z</time></trkpt><trkpt lat="49.077687680383896" lon="6.319474861819214"><ele>244.25</ele><time>2026-04-20T13:03:29Z</time></trkpt><trkpt lat="49.07770617663378" lon="6.319266007982154"><ele>244.0</ele><time>2026-04-20T13:03:30Z</time></trkpt><trkpt lat="49.0777238876681" lon="6.3190496200783155"><ele>244.25</ele><time>2026-04-20T13:03:31Z</time></trkpt><trkpt lat="49.07774408054977" lon="6.3188250105949235"><ele>244.5</ele><time>2026-04-20T13:03:32Z</time></trkpt><trkpt lat="49.07776486824123" lon="6.318599875843778"><ele>244.75</ele><time>2026-04-20T13:03:33Z</time></trkpt><trkpt lat="49.077785542175135" lon="6.318374028976589"><ele>245.0</ele><time>2026-04-20T13:03:34Z</time></trkpt><trkpt lat="49.07781150060179" lon="6.318158501079203"><ele>245.25</ele><time>2026-04-20T13:03:35Z</time></trkpt><trkpt lat="49.077832468244225" lon="6.317950079924069"><ele>245.5</ele><time>2026-04-20T13:03:36Z</time></trkpt><trkpt lat="49.07785506760314" lon="6.317735484530388"><ele>245.75</ele><time>2026-04-20T13:03:37Z</time></trkpt><trkpt lat="49.07788542777625" lon="6.317515410860957"><ele>246.0</ele><time>2026-04-20T13:03:38Z</time></trkpt><trkpt lat="49.0779146379123" lon="6.317303214263601"><ele>246.0</ele><time>2026-04-20T13:03:39Z</time></trkpt><trkpt lat="49.07794963510156" lon="6.31709067575966"><ele>246.0</ele><time>2026-04-20T13:03:40Z</time></trkpt><trkpt lat="49.07797955286208" lon="6.316880501168165"><ele>246.0</ele><time>2026-04-20T13:03:41Z</time></trkpt><trkpt lat="49.07802057798013" lon="6.316663950181112"><ele>246.0</ele><time>2026-04-20T13:03:42Z</time></trkpt><trkpt lat="49.07806656668357" lon="6.3164639643650515"><ele>246.20000000000002</ele><time>2026-04-20T13:03:43Z</time></trkpt><trkpt lat="49.07812529205239" lon="6.31628443936115"><ele>246.40000000000003</ele><time>2026-04-20T13:03:44Z</time></trkpt><trkpt lat="49.078181561958964" lon="6.316125839665032"><ele>246.6</ele><time>2026-04-20T13:03:45Z</time></trkpt><trkpt lat="49.07823721135113" lon="6.315993398152939"><ele>246.8</ele><time>2026-04-20T13:03:46Z</time></trkpt><trkpt lat="49.07829080137534" lon="6.315881766822127"><ele>247.0</ele><time>2026-04-20T13:03:47Z</time></trkpt><trkpt lat="49.078351091360474" lon="6.315764558255081"><ele>247.2</ele><time>2026-04-20T13:03:48Z</time></trkpt><trkpt lat="49.07840883471767" lon="6.315652134180254"><ele>247.39999999999998</ele><time>2026-04-20T13:03:49Z</time></trkpt><trkpt lat="49.07846912539977" lon="6.315535748055969"><ele>247.60000000000002</ele><time>2026-04-20T13:03:50Z</time></trkpt><trkpt lat="49.078536208164564" lon="6.315406604502182"><ele>247.8</ele><time>2026-04-20T13:03:51Z</time></trkpt><trkpt lat="49.078608415717085" lon="6.315269003536615"><ele>248.0</ele><time>2026-04-20T13:03:52Z</time></trkpt><trkpt lat="49.078679729992345" lon="6.315129699801325"><ele>248.0</ele><time>2026-04-20T13:03:53Z</time></trkpt><trkpt lat="49.07875950082832" lon="6.314975717289418"><ele>248.0</ele><time>2026-04-20T13:03:54Z</time></trkpt><trkpt lat="49.07884289472928" lon="6.314816306304309"><ele>248.0</ele><time>2026-04-20T13:03:54.999Z</time></trkpt><trkpt lat="49.078925631025065" lon="6.314660137745582"><ele>248.0</ele><time>2026-04-20T13:03:55.999Z</time></trkpt><trkpt lat="49.07901383056879" lon="6.3145018547448934"><ele>248.25</ele><time>2026-04-20T13:03:56.999Z</time></trkpt><trkpt lat="49.079100548064964" lon="6.314335331310482"><ele>248.5</ele><time>2026-04-20T13:03:57.999Z</time></trkpt><trkpt lat="49.07919101347118" lon="6.31416337766803"><ele>248.75</ele><time>2026-04-20T13:03:58.999Z</time></trkpt><trkpt lat="49.07927648581872" lon="6.313993188984133"><ele>249.0</ele><time>2026-04-20T13:03:59.999Z</time></trkpt><trkpt lat="49.079358969667204" lon="6.313824503369701"><ele>248.0</ele><time>2026-04-20T13:04:00.999Z</time></trkpt><trkpt lat="49.0794384065101" lon="6.313656246931306"><ele>247.0</ele><time>2026-04-20T13:04:01.999Z</time></trkpt><trkpt lat="49.07952345437914" lon="6.3134801201178625"><ele>246.0</ele><time>2026-04-20T13:04:02.999Z</time></trkpt><trkpt lat="49.07960478801345" lon="6.313303469165139"><ele>245.0</ele><time>2026-04-20T13:04:03.999Z</time></trkpt><trkpt lat="49.079693654289954" lon="6.313130624331306"><ele>245.25</ele><time>2026-04-20T13:04:04.999Z</time></trkpt><trkpt lat="49.07977592788265" lon="6.312949368365108"><ele>245.5</ele><time>2026-04-20T13:04:05.999Z</time></trkpt><trkpt lat="49.079863711805004" lon="6.312768211762851"><ele>245.75</ele><time>2026-04-20T13:04:06.999Z</time></trkpt><trkpt lat="49.07994956828608" lon="6.3125886739034005"><ele>246.0</ele><time>2026-04-20T13:04:07.999Z</time></trkpt><trkpt lat="49.08003768258324" lon="6.31240999275368"><ele>246.5</ele><time>2026-04-20T13:04:08.999Z</time></trkpt><trkpt lat="49.08012460872518" lon="6.312227720321138"><ele>247.0</ele><time>2026-04-20T13:04:09.999Z</time></trkpt><trkpt lat="49.080209883719334" lon="6.312045120063613"><ele>247.5</ele><time>2026-04-20T13:04:10.999Z</time></trkpt><trkpt lat="49.08029726125278" lon="6.311862741213427"><ele>248.0</ele><time>2026-04-20T13:04:11.999Z</time></trkpt><trkpt lat="49.08038686164923" lon="6.311679885083254"><ele>248.0</ele><time>2026-04-20T13:04:12.999Z</time></trkpt><trkpt lat="49.080477793128765" lon="6.311496467059655"><ele>248.0</ele><time>2026-04-20T13:04:13.999Z</time></trkpt><trkpt lat="49.080563856050546" lon="6.311315239263795"><ele>248.0</ele><time>2026-04-20T13:04:14.999Z</time></trkpt><trkpt lat="49.08064680979068" lon="6.311146904623114"><ele>248.0</ele><time>2026-04-20T13:04:15.999Z</time></trkpt><trkpt lat="49.080731605870454" lon="6.310967770468616"><ele>248.75</ele><time>2026-04-20T13:04:16.999Z</time></trkpt><trkpt lat="49.08081909765352" lon="6.310786722241441"><ele>249.5</ele><time>2026-04-20T13:04:17.999Z</time></trkpt><trkpt lat="49.08089965568129" lon="6.3105981831249425"><ele>250.25</ele><time>2026-04-20T13:04:18.999Z</time></trkpt><trkpt lat="49.08096726492498" lon="6.310391283750695"><ele>251.0</ele><time>2026-04-20T13:04:19.999Z</time></trkpt><trkpt lat="49.0810186089501" lon="6.310182094938644"><ele>251.0</ele><time>2026-04-20T13:04:20.999Z</time></trkpt><trkpt lat="49.08104668113973" lon="6.309958505008125"><ele>251.0</ele><time>2026-04-20T13:04:21.999Z</time></trkpt><trkpt lat="49.08106540329732" lon="6.309725361001287"><ele>251.0</ele><time>2026-04-20T13:04:22.999Z</time></trkpt><trkpt lat="49.08108364500662" lon="6.309489042395253"><ele>251.33333333333334</ele><time>2026-04-20T13:04:23.999Z</time></trkpt><trkpt lat="49.0810951268278" lon="6.309248750546746"><ele>251.66666666666669</ele><time>2026-04-20T13:04:24.999Z</time></trkpt><trkpt lat="49.081108402138796" lon="6.309019460198089"><ele>252.0</ele><time>2026-04-20T13:04:25.999Z</time></trkpt><trkpt lat="49.08112186107472" lon="6.308792058212905"><ele>252.0</ele><time>2026-04-20T13:04:26.999Z</time></trkpt><trkpt lat="49.081139396004815" lon="6.308559133129541"><ele>252.0</ele><time>2026-04-20T13:04:27.999Z</time></trkpt><trkpt lat="49.08115359161255" lon="6.308320649411005"><ele>252.0</ele><time>2026-04-20T13:04:28.999Z</time></trkpt><trkpt lat="49.0811839109211" lon="6.308089932080812"><ele>252.33333333333331</ele><time>2026-04-20T13:04:29.999Z</time></trkpt><trkpt lat="49.081198954109816" lon="6.3078623035302925"><ele>252.66666666666666</ele><time>2026-04-20T13:04:30.999Z</time></trkpt><trkpt lat="49.08121492112837" lon="6.307634372470479"><ele>253.0</ele><time>2026-04-20T13:04:31.999Z</time></trkpt><trkpt lat="49.08123027968015" lon="6.307406330027579"><ele>253.0</ele><time>2026-04-20T13:04:32.999Z</time></trkpt><trkpt lat="49.081228443836864" lon="6.307180915922251"><ele>253.0</ele><time>2026-04-20T13:04:33.999Z</time></trkpt><trkpt lat="49.08124477587033" lon="6.306961348226056"><ele>253.0</ele><time>2026-04-20T13:04:34.999Z</time></trkpt><trkpt lat="49.081264066911935" lon="6.306733878068629"><ele>253.0</ele><time>2026-04-20T13:04:35.999Z</time></trkpt><trkpt lat="49.08128296217884" lon="6.3065048384409454"><ele>252.66666666666666</ele><time>2026-04-20T13:04:36.999Z</time></trkpt><trkpt lat="49.08129897175473" lon="6.306276588049015"><ele>252.33333333333331</ele><time>2026-04-20T13:04:37.999Z</time></trkpt><trkpt lat="49.0813313384998" lon="6.306052280216983"><ele>252.0</ele><time>2026-04-20T13:04:38.999Z</time></trkpt><trkpt lat="49.08133428237922" lon="6.305818876707683"><ele>252.0</ele><time>2026-04-20T13:04:39.999Z</time></trkpt><trkpt lat="49.08136475442415" lon="6.305589161685962"><ele>252.0</ele><time>2026-04-20T13:04:40.999Z</time></trkpt><trkpt lat="49.08138102084586" lon="6.305360816692128"><ele>252.0</ele><time>2026-04-20T13:04:41.999Z</time></trkpt><trkpt lat="49.0813976150013" lon="6.305128274597727"><ele>251.75</ele><time>2026-04-20T13:04:42.999Z</time></trkpt><trkpt lat="49.08141802532144" lon="6.30490225245833"><ele>251.5</ele><time>2026-04-20T13:04:43.999Z</time></trkpt><trkpt lat="49.08143665011264" lon="6.304678137517208"><ele>251.25</ele><time>2026-04-20T13:04:44.999Z</time></trkpt><trkpt lat="49.08146128844618" lon="6.304453705499592"><ele>251.0</ele><time>2026-04-20T13:04:45.999Z</time></trkpt><trkpt lat="49.08149795729932" lon="6.304226715203995"><ele>251.0</ele><time>2026-04-20T13:04:46.999Z</time></trkpt><trkpt lat="49.08153962259858" lon="6.3040108806160795"><ele>251.0</ele><time>2026-04-20T13:04:47.999Z</time></trkpt><trkpt lat="49.081594478450455" lon="6.303799234942089"><ele>251.0</ele><time>2026-04-20T13:04:48.999Z</time></trkpt><trkpt lat="49.08165604200088" lon="6.303584514345171"><ele>251.0</ele><time>2026-04-20T13:04:49.999Z</time></trkpt><trkpt lat="49.0817207846627" lon="6.303370581871143"><ele>251.0</ele><time>2026-04-20T13:04:50.999Z</time></trkpt><trkpt lat="49.08178415964546" lon="6.303157408976876"><ele>251.0</ele><time>2026-04-20T13:04:51.999Z</time></trkpt><trkpt lat="49.081844918786864" lon="6.3029427140666945"><ele>251.0</ele><time>2026-04-20T13:04:52.999Z</time></trkpt><trkpt lat="49.081907436715525" lon="6.302735207446981"><ele>251.0</ele><time>2026-04-20T13:04:53.999Z</time></trkpt><trkpt lat="49.08196826912017" lon="6.302527396277601"><ele>251.0</ele><time>2026-04-20T13:04:54.999Z</time></trkpt><trkpt lat="49.08202921117958" lon="6.302316849740052"><ele>251.0</ele><time>2026-04-20T13:04:55.999Z</time></trkpt><trkpt lat="49.082090535756805" lon="6.302105554617482"><ele>250.75</ele><time>2026-04-20T13:04:56.999Z</time></trkpt><trkpt lat="49.082147467538945" lon="6.301895364485357"><ele>250.5</ele><time>2026-04-20T13:04:57.999Z</time></trkpt><trkpt lat="49.08219712434935" lon="6.301684091485599"><ele>250.25</ele><time>2026-04-20T13:04:58.999Z</time></trkpt><trkpt lat="49.08224201893526" lon="6.301464761379442"><ele>250.0</ele><time>2026-04-20T13:04:59.999Z</time></trkpt><trkpt lat="49.08227866823007" lon="6.301238501137981"><ele>250.0</ele><time>2026-04-20T13:05:00.999Z</time></trkpt><trkpt lat="49.08231139259441" lon="6.30100993175329"><ele>250.0</ele><time>2026-04-20T13:05:01.999Z</time></trkpt><trkpt lat="49.082343337773025" lon="6.300785674605893"><ele>250.0</ele><time>2026-04-20T13:05:02.999Z</time></trkpt><trkpt lat="49.08237145927188" lon="6.300571214982383"><ele>250.0</ele><time>2026-04-20T13:05:03.999Z</time></trkpt><trkpt lat="49.08240015494198" lon="6.300360982891331"><ele>250.0</ele><time>2026-04-20T13:05:04.999Z</time></trkpt><trkpt lat="49.08242238966012" lon="6.3001602889284145"><ele>250.0</ele><time>2026-04-20T13:05:05.999Z</time></trkpt><trkpt lat="49.082436954062" lon="6.299966521303913"><ele>250.0</ele><time>2026-04-20T13:05:06.999Z</time></trkpt><trkpt lat="49.08243630024169" lon="6.299779109413193"><ele>250.0</ele><time>2026-04-20T13:05:07.999Z</time></trkpt><trkpt lat="49.08243113615362" lon="6.299604229644692"><ele>249.8</ele><time>2026-04-20T13:05:08.999Z</time></trkpt><trkpt lat="49.08242105895298" lon="6.29944445912346"><ele>249.6</ele><time>2026-04-20T13:05:10Z</time></trkpt><trkpt lat="49.08240760593538" lon="6.299304634757372"><ele>249.39999999999998</ele><time>2026-04-20T13:05:11Z</time></trkpt><trkpt lat="49.08239520217804" lon="6.299198582449704"><ele>249.2</ele><time>2026-04-20T13:05:12Z</time></trkpt><trkpt lat="49.08239638104721" lon="6.299085231366804"><ele>249.0</ele><time>2026-04-20T13:05:14Z</time></trkpt><trkpt lat="49.08246749257563" lon="6.298954940797025"><ele>248.0</ele><time>2026-04-20T13:05:16Z</time></trkpt><trkpt lat="49.08253850103835" lon="6.298902998350879"><ele>246.99999999999997</ele><time>2026-04-20T13:05:17Z</time></trkpt><trkpt lat="49.0826196422052" lon="6.298839934186052"><ele>245.99999999999997</ele><time>2026-04-20T13:05:18Z</time></trkpt><trkpt lat="49.08271372520372" lon="6.298757833257214"><ele>245.0</ele><time>2026-04-20T13:05:19Z</time></trkpt><trkpt lat="49.08280570180427" lon="6.298665916986457"><ele>244.0</ele><time>2026-04-20T13:05:20Z</time></trkpt><trkpt lat="49.08290572079055" lon="6.2985557127504235"><ele>244.0</ele><time>2026-04-20T13:05:21Z</time></trkpt><trkpt lat="49.083009258476565" lon="6.298439407981935"><ele>244.0</ele><time>2026-04-20T13:05:22Z</time></trkpt><trkpt lat="49.083117135326894" lon="6.29831250589503"><ele>244.0</ele><time>2026-04-20T13:05:23Z</time></trkpt><trkpt lat="49.08322727143357" lon="6.298170666459893"><ele>244.0</ele><time>2026-04-20T13:05:24Z</time></trkpt><trkpt lat="49.08333229535381" lon="6.298025186342891"><ele>243.5</ele><time>2026-04-20T13:05:25Z</time></trkpt><trkpt lat="49.08343737082017" lon="6.297869643890501"><ele>243.0</ele><time>2026-04-20T13:05:26Z</time></trkpt><trkpt lat="49.08354579074523" lon="6.2977119320638275"><ele>242.5</ele><time>2026-04-20T13:05:27Z</time></trkpt><trkpt lat="49.083649744307706" lon="6.29756280291671"><ele>242.0</ele><time>2026-04-20T13:05:28Z</time></trkpt><trkpt lat="49.083755052038015" lon="6.297409939727586"><ele>242.0</ele><time>2026-04-20T13:05:29Z</time></trkpt><trkpt lat="49.083860498399744" lon="6.297253803161914"><ele>242.0</ele><time>2026-04-20T13:05:30Z</time></trkpt><trkpt lat="49.08396627751621" lon="6.297094829535021"><ele>242.0</ele><time>2026-04-20T13:05:31Z</time></trkpt><trkpt lat="49.08407028087144" lon="6.296935464461915"><ele>242.0</ele><time>2026-04-20T13:05:32Z</time></trkpt><trkpt lat="49.08417216895844" lon="6.296777685645681"><ele>242.0</ele><time>2026-04-20T13:05:33Z</time></trkpt><trkpt lat="49.08427295979801" lon="6.296625641662374"><ele>242.0</ele><time>2026-04-20T13:05:34Z</time></trkpt><trkpt lat="49.08437764738634" lon="6.296463513056733"><ele>242.0</ele><time>2026-04-20T13:05:35Z</time></trkpt><trkpt lat="49.084482830988506" lon="6.2963029667831725"><ele>242.0</ele><time>2026-04-20T13:05:36Z</time></trkpt><trkpt lat="49.08458685322279" lon="6.296142244568294"><ele>242.0</ele><time>2026-04-20T13:05:37Z</time></trkpt><trkpt lat="49.08469020811687" lon="6.2959802666531015"><ele>242.0</ele><time>2026-04-20T13:05:38Z</time></trkpt><trkpt lat="49.084797880207724" lon="6.295814495527492"><ele>242.0</ele><time>2026-04-20T13:05:39Z</time></trkpt><trkpt lat="49.08490736000516" lon="6.29564763681402"><ele>241.66666666666669</ele><time>2026-04-20T13:05:40Z</time></trkpt><trkpt lat="49.08501499200538" lon="6.295482612784138"><ele>241.33333333333331</ele><time>2026-04-20T13:05:41Z</time></trkpt><trkpt lat="49.0851227100889" lon="6.295320506322724"><ele>241.0</ele><time>2026-04-20T13:05:42Z</time></trkpt><trkpt lat="49.08523195307316" lon="6.295156274221619"><ele>241.0</ele><time>2026-04-20T13:05:43Z</time></trkpt><trkpt lat="49.08533979744882" lon="6.294986757791408"><ele>241.0</ele><time>2026-04-20T13:05:44Z</time></trkpt><trkpt lat="49.085447465256124" lon="6.2948173046148925"><ele>241.0</ele><time>2026-04-20T13:05:45Z</time></trkpt><trkpt lat="49.085559007298336" lon="6.294647305764796"><ele>241.33333333333331</ele><time>2026-04-20T13:05:46Z</time></trkpt><trkpt lat="49.085668795892246" lon="6.29447508613735"><ele>241.66666666666669</ele><time>2026-04-20T13:05:47Z</time></trkpt><trkpt lat="49.08577747533731" lon="6.294308383545452"><ele>242.0</ele><time>2026-04-20T13:05:48Z</time></trkpt><trkpt lat="49.085883913039055" lon="6.294142368243202"><ele>240.33333333333334</ele><time>2026-04-20T13:05:49Z</time></trkpt><trkpt lat="49.08599480502165" lon="6.293971690789417"><ele>238.66666666666669</ele><time>2026-04-20T13:05:50Z</time></trkpt><trkpt lat="49.0861065692457" lon="6.293802904875236"><ele>237.0</ele><time>2026-04-20T13:05:51Z</time></trkpt><trkpt lat="49.08622131394089" lon="6.29362965410117"><ele>237.0</ele><time>2026-04-20T13:05:52Z</time></trkpt><trkpt lat="49.08632869142917" lon="6.293459317140931"><ele>237.0</ele><time>2026-04-20T13:05:53Z</time></trkpt><trkpt lat="49.08643338773279" lon="6.293289781225088"><ele>237.0</ele><time>2026-04-20T13:05:54Z</time></trkpt><trkpt lat="49.0865416400368" lon="6.293113335559091"><ele>236.0</ele><time>2026-04-20T13:05:55Z</time></trkpt><trkpt lat="49.086641343083805" lon="6.292929863347865"><ele>235.0</ele><time>2026-04-20T13:05:56Z</time></trkpt><trkpt lat="49.086737642059866" lon="6.292744967312364"><ele>234.0</ele><time>2026-04-20T13:05:57Z</time></trkpt><trkpt lat="49.08682479650024" lon="6.29255349389378"><ele>234.0</ele><time>2026-04-20T13:05:58Z</time></trkpt><trkpt lat="49.08690930417357" lon="6.292355409801541"><ele>234.0</ele><time>2026-04-20T13:05:59Z</time></trkpt><trkpt lat="49.08699110323594" lon="6.292156217349744"><ele>234.0</ele><time>2026-04-20T13:06:00Z</time></trkpt><trkpt lat="49.08707126844404" lon="6.291958610396567"><ele>234.0</ele><time>2026-04-20T13:06:01Z</time></trkpt><trkpt lat="49.087150027860545" lon="6.291760930471017"><ele>234.0</ele><time>2026-04-20T13:06:02Z</time></trkpt><trkpt lat="49.08722729599757" lon="6.291566708034301"><ele>234.0</ele><time>2026-04-20T13:06:03Z</time></trkpt><trkpt lat="49.087306657050306" lon="6.291381096985059"><ele>234.0</ele><time>2026-04-20T13:06:04Z</time></trkpt><trkpt lat="49.08738096692168" lon="6.291197195094315"><ele>234.0</ele><time>2026-04-20T13:06:05Z</time></trkpt><trkpt lat="49.08745567230301" lon="6.291012760249411"><ele>234.0</ele><time>2026-04-20T13:06:05.999Z</time></trkpt><trkpt lat="49.08753692802783" lon="6.290833376919674"><ele>234.0</ele><time>2026-04-20T13:06:06.999Z</time></trkpt><trkpt lat="49.0876173758301" lon="6.290677360404835"><ele>234.0</ele><time>2026-04-20T13:06:07.999Z</time></trkpt><trkpt lat="49.087722412217396" lon="6.290558077030331"><ele>234.0</ele><time>2026-04-20T13:06:08.999Z</time></trkpt><trkpt lat="49.08783944101599" lon="6.290447884515695"><ele>234.0</ele><time>2026-04-20T13:06:09.999Z</time></trkpt><trkpt lat="49.08794367224687" lon="6.2902905985595465"><ele>234.0</ele><time>2026-04-20T13:06:10.999Z</time></trkpt><trkpt lat="49.088054729766654" lon="6.290129913867043"><ele>234.0</ele><time>2026-04-20T13:06:11.999Z</time></trkpt><trkpt lat="49.08817628625671" lon="6.290023433998944"><ele>234.25</ele><time>2026-04-20T13:06:12.999Z</time></trkpt><trkpt lat="49.08830388378981" lon="6.289918407976869"><ele>234.5</ele><time>2026-04-20T13:06:13.999Z</time></trkpt><trkpt lat="49.08841302347976" lon="6.2897763428516535"><ele>234.75</ele><time>2026-04-20T13:06:14.999Z</time></trkpt><trkpt lat="49.08851560506691" lon="6.289618248923592"><ele>235.0</ele><time>2026-04-20T13:06:15.999Z</time></trkpt><trkpt lat="49.08860178142421" lon="6.28943569235843"><ele>235.0</ele><time>2026-04-20T13:06:16.999Z</time></trkpt><trkpt lat="49.088672545234026" lon="6.289234103452814"><ele>235.0</ele><time>2026-04-20T13:06:17.999Z</time></trkpt><trkpt lat="49.08873830132843" lon="6.2890271879788795"><ele>235.0</ele><time>2026-04-20T13:06:18.999Z</time></trkpt><trkpt lat="49.088803644992765" lon="6.28883421335608"><ele>235.0</ele><time>2026-04-20T13:06:19.999Z</time></trkpt><trkpt lat="49.08887386323419" lon="6.288639997193782"><ele>235.0</ele><time>2026-04-20T13:06:20.999Z</time></trkpt><trkpt lat="49.088942821442544" lon="6.288441537817296"><ele>235.0</ele><time>2026-04-20T13:06:21.999Z</time></trkpt><trkpt lat="49.08901642386352" lon="6.288239652016049"><ele>235.0</ele><time>2026-04-20T13:06:22.999Z</time></trkpt><trkpt lat="49.08908275575824" lon="6.288044065162487"><ele>235.0</ele><time>2026-04-20T13:06:23.999Z</time></trkpt><trkpt lat="49.08915121380291" lon="6.287843602291317"><ele>235.5</ele><time>2026-04-20T13:06:24.999Z</time></trkpt><trkpt lat="49.08922129406604" lon="6.287642129480324"><ele>236.0</ele><time>2026-04-20T13:06:25.999Z</time></trkpt><trkpt lat="49.08928779026114" lon="6.2874431495448935"><ele>236.5</ele><time>2026-04-20T13:06:26.999Z</time></trkpt><trkpt lat="49.089355698909394" lon="6.2872493582812865"><ele>237.0</ele><time>2026-04-20T13:06:27.999Z</time></trkpt><trkpt lat="49.08942655378587" lon="6.28704785179524"><ele>237.0</ele><time>2026-04-20T13:06:28.999Z</time></trkpt><trkpt lat="49.08949569133536" lon="6.286848486071833"><ele>237.0</ele><time>2026-04-20T13:06:29.999Z</time></trkpt><trkpt lat="49.089557761509916" lon="6.286653636430097"><ele>237.0</ele><time>2026-04-20T13:06:30.999Z</time></trkpt><trkpt lat="49.08962964254129" lon="6.286453657585661"><ele>237.0</ele><time>2026-04-20T13:06:31.999Z</time></trkpt><trkpt lat="49.08970359970072" lon="6.2862514056007885"><ele>237.0</ele><time>2026-04-20T13:06:32.999Z</time></trkpt><trkpt lat="49.08977237032291" lon="6.2860489899462255"><ele>237.0</ele><time>2026-04-20T13:06:33.999Z</time></trkpt><trkpt lat="49.089848006642406" lon="6.285840367988978"><ele>237.0</ele><time>2026-04-20T13:06:34.999Z</time></trkpt><trkpt lat="49.08992200049173" lon="6.285633536608148"><ele>236.33333333333331</ele><time>2026-04-20T13:06:35.999Z</time></trkpt><trkpt lat="49.08999437518958" lon="6.285426648761757"><ele>235.66666666666666</ele><time>2026-04-20T13:06:36.999Z</time></trkpt><trkpt lat="49.090067154058126" lon="6.285219461584428"><ele>235.0</ele><time>2026-04-20T13:06:37.999Z</time></trkpt><trkpt lat="49.09014090735933" lon="6.285015317672102"><ele>235.0</ele><time>2026-04-20T13:06:38.999Z</time></trkpt><trkpt lat="49.09021609753267" lon="6.284803126102198"><ele>235.0</ele><time>2026-04-20T13:06:39.999Z</time></trkpt><trkpt lat="49.090292393823674" lon="6.284587881016184"><ele>235.0</ele><time>2026-04-20T13:06:40.999Z</time></trkpt><trkpt lat="49.09036916368047" lon="6.284368864705871"><ele>234.66666666666666</ele><time>2026-04-20T13:06:41.999Z</time></trkpt><trkpt lat="49.09044486427806" lon="6.284141065425235"><ele>234.33333333333331</ele><time>2026-04-20T13:06:42.999Z</time></trkpt><trkpt lat="49.09052304415722" lon="6.2839117270859"><ele>234.0</ele><time>2026-04-20T13:06:43.999Z</time></trkpt><trkpt lat="49.09059642161604" lon="6.283696610875252"><ele>234.0</ele><time>2026-04-20T13:06:44.999Z</time></trkpt><trkpt lat="49.09067033071525" lon="6.28348507570307"><ele>234.0</ele><time>2026-04-20T13:06:45.999Z</time></trkpt><trkpt lat="49.09074324749136" lon="6.283272416356548"><ele>234.0</ele><time>2026-04-20T13:06:46.999Z</time></trkpt><trkpt lat="49.09081750738852" lon="6.283062781903557"><ele>234.0</ele><time>2026-04-20T13:06:47.999Z</time></trkpt><trkpt lat="49.09089071237764" lon="6.282851489118271"><ele>234.0</ele><time>2026-04-20T13:06:48.999Z</time></trkpt><trkpt lat="49.09096596720725" lon="6.2826378400188485"><ele>234.0</ele><time>2026-04-20T13:06:49.999Z</time></trkpt><trkpt lat="49.09104171984253" lon="6.282422939793384"><ele>233.66666666666669</ele><time>2026-04-20T13:06:50.999Z</time></trkpt><trkpt lat="49.091117016112186" lon="6.28221036565307"><ele>233.33333333333334</ele><time>2026-04-20T13:06:51.999Z</time></trkpt><trkpt lat="49.0911869270904" lon="6.282001483471691"><ele>233.0</ele><time>2026-04-20T13:06:52.999Z</time></trkpt><trkpt lat="49.09125800396493" lon="6.281796167162446"><ele>233.0</ele><time>2026-04-20T13:06:53.999Z</time></trkpt><trkpt lat="49.091333789823345" lon="6.281587876235265"><ele>233.0</ele><time>2026-04-20T13:06:54.999Z</time></trkpt><trkpt lat="49.09140754474193" lon="6.2813740518040415"><ele>233.0</ele><time>2026-04-20T13:06:55.999Z</time></trkpt><trkpt lat="49.091481782890384" lon="6.281157423221097"><ele>233.0</ele><time>2026-04-20T13:06:56.999Z</time></trkpt><trkpt lat="49.091557875919314" lon="6.280939419249354"><ele>233.0</ele><time>2026-04-20T13:06:57.999Z</time></trkpt><trkpt lat="49.091635283733105" lon="6.28071941371704"><ele>233.0</ele><time>2026-04-20T13:06:58.999Z</time></trkpt><trkpt lat="49.09170892950985" lon="6.280509210582925"><ele>234.0</ele><time>2026-04-20T13:06:59.999Z</time></trkpt><trkpt lat="49.091781639236544" lon="6.280300585131766"><ele>235.0</ele><time>2026-04-20T13:07:00.999Z</time></trkpt><trkpt lat="49.09185447693574" lon="6.280085417237269"><ele>236.0</ele><time>2026-04-20T13:07:01.999Z</time></trkpt><trkpt lat="49.0919320044436" lon="6.279870735672339"><ele>235.33333333333334</ele><time>2026-04-20T13:07:02.999Z</time></trkpt><trkpt lat="49.09201109560592" lon="6.279654275309247"><ele>234.66666666666669</ele><time>2026-04-20T13:07:03.999Z</time></trkpt><trkpt lat="49.09209068035116" lon="6.27943524131447"><ele>234.0</ele><time>2026-04-20T13:07:04.999Z</time></trkpt><trkpt lat="49.092163388515424" lon="6.279231703137884"><ele>234.0</ele><time>2026-04-20T13:07:05.999Z</time></trkpt><trkpt lat="49.09223546242424" lon="6.27902378010811"><ele>234.0</ele><time>2026-04-20T13:07:06.999Z</time></trkpt><trkpt lat="49.09230927021877" lon="6.278818465694804"><ele>234.0</ele><time>2026-04-20T13:07:07.999Z</time></trkpt><trkpt lat="49.092383077037546" lon="6.278610342754495"><ele>234.0</ele><time>2026-04-20T13:07:08.999Z</time></trkpt><trkpt lat="49.0924575802555" lon="6.278393022653008"><ele>234.0</ele><time>2026-04-20T13:07:09.999Z</time></trkpt><trkpt lat="49.09252253878022" lon="6.278169244643907"><ele>234.0</ele><time>2026-04-20T13:07:10.999Z</time></trkpt><trkpt lat="49.09256750257575" lon="6.277947246348815"><ele>234.0</ele><time>2026-04-20T13:07:11.999Z</time></trkpt><trkpt lat="49.09259641604216" lon="6.277723997646615"><ele>234.0</ele><time>2026-04-20T13:07:12.999Z</time></trkpt><trkpt lat="49.092613558549324" lon="6.277487031984536"><ele>234.0</ele><time>2026-04-20T13:07:13.999Z</time></trkpt><trkpt lat="49.092616290083704" lon="6.277238357473343"><ele>234.33333333333331</ele><time>2026-04-20T13:07:14.999Z</time></trkpt><trkpt lat="49.09261521819102" lon="6.276987127892289"><ele>234.66666666666666</ele><time>2026-04-20T13:07:16Z</time></trkpt><trkpt lat="49.092616117460814" lon="6.2767518903005195"><ele>235.0</ele><time>2026-04-20T13:07:17Z</time></trkpt><trkpt lat="49.092621195871" lon="6.2765308792434364"><ele>234.5</ele><time>2026-04-20T13:07:18Z</time></trkpt><trkpt lat="49.09262382635803" lon="6.2763345093531715"><ele>234.0</ele><time>2026-04-20T13:07:19Z</time></trkpt><trkpt lat="49.09262324506785" lon="6.276148490129543"><ele>233.5</ele><time>2026-04-20T13:07:20Z</time></trkpt><trkpt lat="49.09262444527682" lon="6.275964389035046"><ele>233.0</ele><time>2026-04-20T13:07:21Z</time></trkpt><trkpt lat="49.09262502036986" lon="6.2757939953259445"><ele>233.0</ele><time>2026-04-20T13:07:22Z</time></trkpt><trkpt lat="49.09263119888654" lon="6.275618824048974"><ele>233.0</ele><time>2026-04-20T13:07:23Z</time></trkpt><trkpt lat="49.09263865953129" lon="6.275439046419392"><ele>233.0</ele><time>2026-04-20T13:07:24Z</time></trkpt><trkpt lat="49.0926433290996" lon="6.275281842487711"><ele>233.0</ele><time>2026-04-20T13:07:25Z</time></trkpt><trkpt lat="49.0926489450992" lon="6.275150633260017"><ele>233.0</ele><time>2026-04-20T13:07:26Z</time></trkpt><trkpt lat="49.09265600905365" lon="6.275044772068275"><ele>232.8</ele><time>2026-04-20T13:07:27Z</time></trkpt><trkpt lat="49.09268262415998" lon="6.274864150416132"><ele>232.60000000000002</ele><time>2026-04-20T13:07:29Z</time></trkpt><trkpt lat="49.09282584288886" lon="6.274861517131001"><ele>232.39999999999998</ele><time>2026-04-20T13:07:31Z</time></trkpt><trkpt lat="49.09291205957788" lon="6.274899501164648"><ele>232.2</ele><time>2026-04-20T13:07:32Z</time></trkpt><trkpt lat="49.092998791816434" lon="6.274925443665652"><ele>232.0</ele><time>2026-04-20T13:07:33Z</time></trkpt><trkpt lat="49.09308914019065" lon="6.274972329558157"><ele>232.0</ele><time>2026-04-20T13:07:34Z</time></trkpt><trkpt lat="49.093181731422874" lon="6.275012251650351"><ele>232.0</ele><time>2026-04-20T13:07:35Z</time></trkpt><trkpt lat="49.09328307972883" lon="6.275056112082735"><ele>232.0</ele><time>2026-04-20T13:07:36Z</time></trkpt><trkpt lat="49.09338433473183" lon="6.275118568875126"><ele>232.0</ele><time>2026-04-20T13:07:37Z</time></trkpt><trkpt lat="49.09347232104524" lon="6.275208690733934"><ele>232.0</ele><time>2026-04-20T13:07:38Z</time></trkpt><trkpt lat="49.09354592831746" lon="6.275326915293197"><ele>232.0</ele><time>2026-04-20T13:07:39Z</time></trkpt><trkpt lat="49.093591531466515" lon="6.275470370053295"><ele>232.0</ele><time>2026-04-20T13:07:40Z</time></trkpt><trkpt lat="49.093613425984124" lon="6.275620085020352"><ele>232.0</ele><time>2026-04-20T13:07:41Z</time></trkpt><trkpt lat="49.093628500198285" lon="6.275777055424737"><ele>232.0</ele><time>2026-04-20T13:07:42Z</time></trkpt><trkpt lat="49.09364531081101" lon="6.2759381874330575"><ele>232.0</ele><time>2026-04-20T13:07:43Z</time></trkpt><trkpt lat="49.093666300515544" lon="6.276109482113082"><ele>232.5</ele><time>2026-04-20T13:07:44Z</time></trkpt><trkpt lat="49.093688554648566" lon="6.276292142501393"><ele>233.0</ele><time>2026-04-20T13:07:45Z</time></trkpt><trkpt lat="49.093711229577885" lon="6.276488019023627"><ele>233.5</ele><time>2026-04-20T13:07:46Z</time></trkpt><trkpt lat="49.09373467430326" lon="6.276687800937394"><ele>234.0</ele><time>2026-04-20T13:07:47Z</time></trkpt><trkpt lat="49.09376035981376" lon="6.276886645176269"><ele>234.0</ele><time>2026-04-20T13:07:48Z</time></trkpt><trkpt lat="49.09378587451047" lon="6.277098116060436"><ele>234.0</ele><time>2026-04-20T13:07:49Z</time></trkpt><trkpt lat="49.09381079928052" lon="6.277313310900058"><ele>234.0</ele><time>2026-04-20T13:07:50Z</time></trkpt><trkpt lat="49.09382133504746" lon="6.277536078015038"><ele>234.0</ele><time>2026-04-20T13:07:51Z</time></trkpt><trkpt lat="49.09385588800881" lon="6.277762299468504"><ele>234.33333333333331</ele><time>2026-04-20T13:07:52Z</time></trkpt><trkpt lat="49.09388350075726" lon="6.27799039375333"><ele>234.66666666666666</ele><time>2026-04-20T13:07:53Z</time></trkpt><trkpt lat="49.093910986814734" lon="6.278217268952637"><ele>235.0</ele><time>2026-04-20T13:07:54Z</time></trkpt><trkpt lat="49.09394135952954" lon="6.278441832730616"><ele>235.0</ele><time>2026-04-20T13:07:55Z</time></trkpt><trkpt lat="49.09397741644732" lon="6.2786736715353335"><ele>235.0</ele><time>2026-04-20T13:07:56Z</time></trkpt><trkpt lat="49.094022032724915" lon="6.278901573443563"><ele>235.0</ele><time>2026-04-20T13:07:57Z</time></trkpt><trkpt lat="49.09407390164373" lon="6.279124205166261"><ele>235.66666666666666</ele><time>2026-04-20T13:07:58Z</time></trkpt><trkpt lat="49.094124506491134" lon="6.279344671480968"><ele>236.33333333333331</ele><time>2026-04-20T13:07:59Z</time></trkpt><trkpt lat="49.09417615384445" lon="6.2795730775223255"><ele>237.0</ele><time>2026-04-20T13:08:00Z</time></trkpt><trkpt lat="49.0942265582142" lon="6.279806105509829"><ele>237.0</ele><time>2026-04-20T13:08:01Z</time></trkpt><trkpt lat="49.09428418269526" lon="6.280023882958515"><ele>237.0</ele><time>2026-04-20T13:08:02Z</time></trkpt><trkpt lat="49.09434447442768" lon="6.28022938108256"><ele>237.0</ele><time>2026-04-20T13:08:03Z</time></trkpt><trkpt lat="49.09442291317414" lon="6.2804248760320585"><ele>237.0</ele><time>2026-04-20T13:08:04Z</time></trkpt><trkpt lat="49.09451995261827" lon="6.280605663469647"><ele>237.0</ele><time>2026-04-20T13:08:05Z</time></trkpt><trkpt lat="49.094621168478895" lon="6.280783797429593"><ele>237.0</ele><time>2026-04-20T13:08:06Z</time></trkpt><trkpt lat="49.0947037260691" lon="6.280988764411747"><ele>237.0</ele><time>2026-04-20T13:08:06.999Z</time></trkpt><trkpt lat="49.09474153472898" lon="6.281222384829692"><ele>237.0</ele><time>2026-04-20T13:08:07.999Z</time></trkpt><trkpt lat="49.09477273478033" lon="6.281448163228393"><ele>237.0</ele><time>2026-04-20T13:08:08.999Z</time></trkpt><trkpt lat="49.094813977271656" lon="6.281683772979891"><ele>237.33333333333331</ele><time>2026-04-20T13:08:09.999Z</time></trkpt><trkpt lat="49.09484073655215" lon="6.281926676919626"><ele>237.66666666666666</ele><time>2026-04-20T13:08:10.999Z</time></trkpt><trkpt lat="49.09486695586083" lon="6.282161345814714"><ele>238.0</ele><time>2026-04-20T13:08:11.999Z</time></trkpt><trkpt lat="49.09489322889029" lon="6.2823868643813"><ele>237.66666666666666</ele><time>2026-04-20T13:08:12.999Z</time></trkpt><trkpt lat="49.09492128653401" lon="6.282614132449905"><ele>237.33333333333331</ele><time>2026-04-20T13:08:13.999Z</time></trkpt><trkpt lat="49.09495155995103" lon="6.282852359916686"><ele>237.0</ele><time>2026-04-20T13:08:14.999Z</time></trkpt><trkpt lat="49.09498773033168" lon="6.283087542337751"><ele>237.0</ele><time>2026-04-20T13:08:15.999Z</time></trkpt><trkpt lat="49.09504278360458" lon="6.283321718255008"><ele>237.0</ele><time>2026-04-20T13:08:16.999Z</time></trkpt><trkpt lat="49.09511223318198" lon="6.28353832351063"><ele>237.0</ele><time>2026-04-20T13:08:17.999Z</time></trkpt><trkpt lat="49.09519420017332" lon="6.283747731682648"><ele>236.66666666666669</ele><time>2026-04-20T13:08:18.999Z</time></trkpt><trkpt lat="49.09527720069464" lon="6.283952447933794"><ele>236.33333333333334</ele><time>2026-04-20T13:08:19.999Z</time></trkpt><trkpt lat="49.09535143781777" lon="6.284163413213382"><ele>236.0</ele><time>2026-04-20T13:08:20.999Z</time></trkpt><trkpt lat="49.09543095548746" lon="6.284374728378965"><ele>236.0</ele><time>2026-04-20T13:08:21.999Z</time></trkpt><trkpt lat="49.09551109104346" lon="6.284577545957938"><ele>236.0</ele><time>2026-04-20T13:08:22.999Z</time></trkpt><trkpt lat="49.09559095334451" lon="6.284783504378581"><ele>236.0</ele><time>2026-04-20T13:08:23.999Z</time></trkpt><trkpt lat="49.095667126955" lon="6.284998407505259"><ele>236.0</ele><time>2026-04-20T13:08:24.999Z</time></trkpt><trkpt lat="49.095742893990405" lon="6.285211374878813"><ele>236.0</ele><time>2026-04-20T13:08:25.999Z</time></trkpt><trkpt lat="49.09581968013689" lon="6.285419625428445"><ele>236.0</ele><time>2026-04-20T13:08:26.999Z</time></trkpt><trkpt lat="49.09589538868102" lon="6.285631955269788"><ele>234.66666666666669</ele><time>2026-04-20T13:08:27.999Z</time></trkpt><trkpt lat="49.095967470574436" lon="6.2858462998701325"><ele>233.33333333333331</ele><time>2026-04-20T13:08:28.999Z</time></trkpt><trkpt lat="49.09603059385485" lon="6.286066029237985"><ele>232.0</ele><time>2026-04-20T13:08:29.999Z</time></trkpt><trkpt lat="49.09608844749207" lon="6.286292880949155"><ele>232.0</ele><time>2026-04-20T13:08:30.999Z</time></trkpt><trkpt lat="49.09613809679399" lon="6.286511605952767"><ele>232.0</ele><time>2026-04-20T13:08:31.999Z</time></trkpt><trkpt lat="49.09619114734272" lon="6.28672877186693"><ele>232.0</ele><time>2026-04-20T13:08:32.999Z</time></trkpt><trkpt lat="49.09624528506436" lon="6.286947316980444"><ele>232.0</ele><time>2026-04-20T13:08:33.999Z</time></trkpt><trkpt lat="49.09629585608205" lon="6.287171847395002"><ele>232.0</ele><time>2026-04-20T13:08:34.999Z</time></trkpt><trkpt lat="49.096342631166394" lon="6.287392936640135"><ele>232.0</ele><time>2026-04-20T13:08:35.999Z</time></trkpt><trkpt lat="49.09638687743299" lon="6.287607853953517"><ele>232.25</ele><time>2026-04-20T13:08:36.999Z</time></trkpt><trkpt lat="49.09644161218199" lon="6.287826156046366"><ele>232.5</ele><time>2026-04-20T13:08:37.999Z</time></trkpt><trkpt lat="49.09650103843881" lon="6.288035906552174"><ele>232.75</ele><time>2026-04-20T13:08:38.999Z</time></trkpt><trkpt lat="49.09656678789086" lon="6.288227208130626"><ele>233.0</ele><time>2026-04-20T13:08:39.999Z</time></trkpt><trkpt lat="49.096652769532724" lon="6.288415658486276"><ele>233.33333333333334</ele><time>2026-04-20T13:08:40.999Z</time></trkpt><trkpt lat="49.09675910630024" lon="6.288588774772467"><ele>233.66666666666669</ele><time>2026-04-20T13:08:41.999Z</time></trkpt><trkpt lat="49.09687443229691" lon="6.288763593759912"><ele>234.0</ele><time>2026-04-20T13:08:42.999Z</time></trkpt><trkpt lat="49.09698118873843" lon="6.288944475009576"><ele>234.0</ele><time>2026-04-20T13:08:43.999Z</time></trkpt><trkpt lat="49.09708159800179" lon="6.289126763384041"><ele>234.0</ele><time>2026-04-20T13:08:44.999Z</time></trkpt><trkpt lat="49.09717650833756" lon="6.289319208205984"><ele>234.0</ele><time>2026-04-20T13:08:45.999Z</time></trkpt><trkpt lat="49.097266834307405" lon="6.289517345545962"><ele>234.0</ele><time>2026-04-20T13:08:46.999Z</time></trkpt><trkpt lat="49.09735557901772" lon="6.289720247691582"><ele>234.0</ele><time>2026-04-20T13:08:47.999Z</time></trkpt><trkpt lat="49.09744017985975" lon="6.2899315777719975"><ele>234.0</ele><time>2026-04-20T13:08:48.999Z</time></trkpt><trkpt lat="49.09751832799254" lon="6.290146899629473"><ele>235.0</ele><time>2026-04-20T13:08:49.999Z</time></trkpt><trkpt lat="49.09757849905166" lon="6.290371735310205"><ele>236.0</ele><time>2026-04-20T13:08:50.999Z</time></trkpt><trkpt lat="49.09764993246785" lon="6.290582408016392"><ele>237.0</ele><time>2026-04-20T13:08:51.999Z</time></trkpt><trkpt lat="49.097732031533674" lon="6.290784019396621"><ele>237.33333333333331</ele><time>2026-04-20T13:08:52.999Z</time></trkpt><trkpt lat="49.097803817400155" lon="6.2909946705467386"><ele>237.66666666666666</ele><time>2026-04-20T13:08:53.999Z</time></trkpt><trkpt lat="49.09787991484024" lon="6.291208784742624"><ele>238.0</ele><time>2026-04-20T13:08:54.999Z</time></trkpt><trkpt lat="49.09795824036594" lon="6.29141952997015"><ele>238.66666666666666</ele><time>2026-04-20T13:08:55.999Z</time></trkpt><trkpt lat="49.0980316996409" lon="6.291628675993163"><ele>239.33333333333331</ele><time>2026-04-20T13:08:56.999Z</time></trkpt><trkpt lat="49.09810164763496" lon="6.2918308820130635"><ele>240.0</ele><time>2026-04-20T13:08:57.999Z</time></trkpt><trkpt lat="49.09816789984102" lon="6.292028079227085"><ele>240.0</ele><time>2026-04-20T13:08:58.999Z</time></trkpt><trkpt lat="49.098239072528116" lon="6.2922320964994185"><ele>240.0</ele><time>2026-04-20T13:08:59.999Z</time></trkpt><trkpt lat="49.0983066792787" lon="6.2924345310527645"><ele>240.0</ele><time>2026-04-20T13:09:00.999Z</time></trkpt><trkpt lat="49.09836700032183" lon="6.2926253794276255"><ele>240.0</ele><time>2026-04-20T13:09:01.999Z</time></trkpt><trkpt lat="49.098418571436405" lon="6.292806483370241"><ele>240.6</ele><time>2026-04-20T13:09:02.999Z</time></trkpt><trkpt lat="49.098460135046906" lon="6.292961470984912"><ele>241.2</ele><time>2026-04-20T13:09:03.999Z</time></trkpt><trkpt lat="49.098493513675834" lon="6.293098453264768"><ele>241.8</ele><time>2026-04-20T13:09:04.999Z</time></trkpt><trkpt lat="49.09852119738334" lon="6.2932213015069305"><ele>242.4</ele><time>2026-04-20T13:09:05.999Z</time></trkpt><trkpt lat="49.098547780850225" lon="6.293362508482176"><ele>243.0</ele><time>2026-04-20T13:09:06.999Z</time></trkpt><trkpt lat="49.098555726362875" lon="6.293525542922693"><ele>243.2</ele><time>2026-04-20T13:09:07.999Z</time></trkpt><trkpt lat="49.09858993131993" lon="6.293675956250112"><ele>243.4</ele><time>2026-04-20T13:09:08.999Z</time></trkpt><trkpt lat="49.09860381944991" lon="6.293834919800143"><ele>243.59999999999997</ele><time>2026-04-20T13:09:09.999Z</time></trkpt><trkpt lat="49.098608693165446" lon="6.293987307830565"><ele>243.79999999999998</ele><time>2026-04-20T13:09:10.999Z</time></trkpt><trkpt lat="49.09860696083142" lon="6.294121971481313"><ele>244.0</ele><time>2026-04-20T13:09:11.999Z</time></trkpt><trkpt lat="49.098602925128596" lon="6.294233070492975"><ele>243.99999999999997</ele><time>2026-04-20T13:09:12.999Z</time></trkpt><trkpt lat="49.09860478218011" lon="6.2943429626225935"><ele>244.0</ele><time>2026-04-20T13:09:13.999Z</time></trkpt><trkpt lat="49.098605668701666" lon="6.294458635689073"><ele>243.99999999999997</ele><time>2026-04-20T13:09:14.999Z</time></trkpt><trkpt lat="49.09860848193955" lon="6.294570442321637"><ele>243.99999999999997</ele><time>2026-04-20T13:09:15.999Z</time></trkpt><trkpt lat="49.098615525899966" lon="6.294670741893002"><ele>244.0</ele><time>2026-04-20T13:09:16.999Z</time></trkpt><trkpt lat="49.098628441684255" lon="6.294772479029035"><ele>243.99999999999997</ele><time>2026-04-20T13:09:17.999Z</time></trkpt><trkpt lat="49.09864356555917" lon="6.294877174110052"><ele>243.99999999999997</ele><time>2026-04-20T13:09:18.999Z</time></trkpt><trkpt lat="49.098656150887" lon="6.294984884018049"><ele>243.99999999999997</ele><time>2026-04-20T13:09:19.999Z</time></trkpt><trkpt lat="49.098676036674924" lon="6.2950834744258435"><ele>244.0</ele><time>2026-04-20T13:09:20.999Z</time></trkpt><trkpt lat="49.09870148747474" lon="6.295186071246993"><ele>244.0</ele><time>2026-04-20T13:09:22Z</time></trkpt><trkpt lat="49.09872619784823" lon="6.295292265868085"><ele>244.0</ele><time>2026-04-20T13:09:23Z</time></trkpt><trkpt lat="49.09874243673793" lon="6.295402018168978"><ele>243.99999999999997</ele><time>2026-04-20T13:09:24Z</time></trkpt><trkpt lat="49.098765501071775" lon="6.295532677650093"><ele>244.0</ele><time>2026-04-20T13:09:25Z</time></trkpt><trkpt lat="49.09878941457657" lon="6.295666847644642"><ele>244.0</ele><time>2026-04-20T13:09:26Z</time></trkpt><trkpt lat="49.09881386995188" lon="6.295799153933507"><ele>243.99999999999997</ele><time>2026-04-20T13:09:27Z</time></trkpt><trkpt lat="49.09883983022809" lon="6.295945779925035"><ele>243.99999999999997</ele><time>2026-04-20T13:09:28Z</time></trkpt><trkpt lat="49.09887254991331" lon="6.296091958326404"><ele>244.0</ele><time>2026-04-20T13:09:29Z</time></trkpt><trkpt lat="49.0989053859257" lon="6.296232990075633"><ele>244.0</ele><time>2026-04-20T13:09:30Z</time></trkpt><trkpt lat="49.09893171699805" lon="6.296357584770885"><ele>244.16666666666666</ele><time>2026-04-20T13:09:31Z</time></trkpt><trkpt lat="49.098951441656624" lon="6.296484722458805"><ele>244.33333333333331</ele><time>2026-04-20T13:09:32Z</time></trkpt><trkpt lat="49.09897237509421" lon="6.296601319807765"><ele>244.5</ele><time>2026-04-20T13:09:33Z</time></trkpt><trkpt lat="49.099002244941325" lon="6.296723313216443"><ele>244.66666666666669</ele><time>2026-04-20T13:09:34Z</time></trkpt><trkpt lat="49.09902202616342" lon="6.296843546668193"><ele>244.83333333333334</ele><time>2026-04-20T13:09:35Z</time></trkpt><trkpt lat="49.099045797820516" lon="6.296943644313583"><ele>245.0</ele><time>2026-04-20T13:09:36Z</time></trkpt><trkpt lat="49.09908607901964" lon="6.297117310233331"><ele>245.33333333333334</ele><time>2026-04-20T13:09:38Z</time></trkpt><trkpt lat="49.09910250319418" lon="6.297244456867657"><ele>245.66666666666669</ele><time>2026-04-20T13:09:40Z</time></trkpt><trkpt lat="49.09911469281095" lon="6.2973739465323035"><ele>246.0</ele><time>2026-04-20T13:09:43Z</time></trkpt><trkpt lat="49.0991572841051" lon="6.297471302715531"><ele>246.33333333333331</ele><time>2026-04-20T13:09:48Z</time></trkpt><trkpt lat="49.09926663855951" lon="6.297417110143224"><ele>246.66666666666666</ele><time>2026-04-20T13:09:49Z</time></trkpt><trkpt lat="49.099324282207505" lon="6.297365472084151"><ele>247.0</ele><time>2026-04-20T13:09:50Z</time></trkpt><trkpt lat="49.099391054295964" lon="6.297331486889006"><ele>246.99999999999997</ele><time>2026-04-20T13:09:51Z</time></trkpt><trkpt lat="49.09946886679167" lon="6.297297191198919"><ele>247.0</ele><time>2026-04-20T13:09:52Z</time></trkpt><trkpt lat="49.09954312984373" lon="6.297245970282217"><ele>247.0</ele><time>2026-04-20T13:09:53Z</time></trkpt><trkpt lat="49.09962138876355" lon="6.29719432515254"><ele>247.0</ele><time>2026-04-20T13:09:54Z</time></trkpt><trkpt lat="49.09969063516582" lon="6.297145378035273"><ele>246.99999999999997</ele><time>2026-04-20T13:09:55Z</time></trkpt><trkpt lat="49.09975614950089" lon="6.297097230090746"><ele>247.0</ele><time>2026-04-20T13:09:56Z</time></trkpt><trkpt lat="49.099823376115886" lon="6.297049753929676"><ele>246.99999999999997</ele><time>2026-04-20T13:09:57Z</time></trkpt><trkpt lat="49.099895028270865" lon="6.2969994308264345"><ele>247.0</ele><time>2026-04-20T13:09:58Z</time></trkpt><trkpt lat="49.09996837177215" lon="6.29694477168386"><ele>247.0</ele><time>2026-04-20T13:09:59Z</time></trkpt><trkpt lat="49.100034974581035" lon="6.296891462429373"><ele>247.0</ele><time>2026-04-20T13:10:00Z</time></trkpt><trkpt lat="49.10009847885979" lon="6.296845270344723"><ele>246.99999999999997</ele><time>2026-04-20T13:10:01Z</time></trkpt><trkpt lat="49.10016944011862" lon="6.296793740387569"><ele>247.0</ele><time>2026-04-20T13:10:02Z</time></trkpt><trkpt lat="49.10023986554258" lon="6.29674551483544"><ele>246.99999999999997</ele><time>2026-04-20T13:10:03Z</time></trkpt><trkpt lat="49.100312972755795" lon="6.296686478751304"><ele>247.0</ele><time>2026-04-20T13:10:04Z</time></trkpt><trkpt lat="49.10038276999765" lon="6.296646322119791"><ele>247.0</ele><time>2026-04-20T13:10:05Z</time></trkpt><trkpt lat="49.10046666088971" lon="6.296632439753017"><ele>247.0</ele><time>2026-04-20T13:10:06Z</time></trkpt><trkpt lat="49.10054570881182" lon="6.296662079612944"><ele>246.99999999999997</ele><time>2026-04-20T13:10:07Z</time></trkpt><trkpt lat="49.10061222019545" lon="6.296744367057327"><ele>247.0</ele><time>2026-04-20T13:10:08Z</time></trkpt><trkpt lat="49.10065816084758" lon="6.296860210821244"><ele>247.0</ele><time>2026-04-20T13:10:09Z</time></trkpt><trkpt lat="49.10068656542203" lon="6.296988350691107"><ele>247.0</ele><time>2026-04-20T13:10:10Z</time></trkpt><trkpt lat="49.1007119010592" lon="6.297116839389455"><ele>247.0</ele><time>2026-04-20T13:10:11Z</time></trkpt><trkpt lat="49.10074327512293" lon="6.297254284649455"><ele>247.0</ele><time>2026-04-20T13:10:12Z</time></trkpt><trkpt lat="49.10078298945375" lon="6.297399921423521"><ele>247.0</ele><time>2026-04-20T13:10:13Z</time></trkpt><trkpt lat="49.10081866189481" lon="6.2975324258898695"><ele>246.8</ele><time>2026-04-20T13:10:14Z</time></trkpt><trkpt lat="49.10086081496177" lon="6.297656343435661"><ele>246.6</ele><time>2026-04-20T13:10:14.999Z</time></trkpt><trkpt lat="49.10093001031947" lon="6.297757908044058"><ele>246.40000000000003</ele><time>2026-04-20T13:10:15.999Z</time></trkpt><trkpt lat="49.10101772973514" lon="6.297830174904406"><ele>246.20000000000002</ele><time>2026-04-20T13:10:16.999Z</time></trkpt><trkpt lat="49.10111921347008" lon="6.29786651753099"><ele>246.0</ele><time>2026-04-20T13:10:17.999Z</time></trkpt><trkpt lat="49.101230128099026" lon="6.29789341143934"><ele>246.0</ele><time>2026-04-20T13:10:18.999Z</time></trkpt><trkpt lat="49.1013384908231" lon="6.297920948033928"><ele>246.0</ele><time>2026-04-20T13:10:19.999Z</time></trkpt><trkpt lat="49.10145148918518" lon="6.297946513627037"><ele>246.0</ele><time>2026-04-20T13:10:20.999Z</time></trkpt><trkpt lat="49.10156819387046" lon="6.297968760374704"><ele>246.0</ele><time>2026-04-20T13:10:21.999Z</time></trkpt><trkpt lat="49.101686248670525" lon="6.297991738424568"><ele>246.0</ele><time>2026-04-20T13:10:22.999Z</time></trkpt><trkpt lat="49.101803506776704" lon="6.298012085849179"><ele>246.0</ele><time>2026-04-20T13:10:23.999Z</time></trkpt><trkpt lat="49.10192084855157" lon="6.298034565275673"><ele>246.0</ele><time>2026-04-20T13:10:24.999Z</time></trkpt><trkpt lat="49.102047455759376" lon="6.298060098543565"><ele>246.0</ele><time>2026-04-20T13:10:25.999Z</time></trkpt><trkpt lat="49.1021773907009" lon="6.298085409523256"><ele>246.25</ele><time>2026-04-20T13:10:26.999Z</time></trkpt><trkpt lat="49.102310084317196" lon="6.298108598260453"><ele>246.5</ele><time>2026-04-20T13:10:27.999Z</time></trkpt><trkpt lat="49.10244672960756" lon="6.298131432977612"><ele>246.75</ele><time>2026-04-20T13:10:28.999Z</time></trkpt><trkpt lat="49.1025833462377" lon="6.298157725860386"><ele>247.0</ele><time>2026-04-20T13:10:29.999Z</time></trkpt><trkpt lat="49.102711036843075" lon="6.298180793363917"><ele>247.6</ele><time>2026-04-20T13:10:30.999Z</time></trkpt><trkpt lat="49.10283693937095" lon="6.298200971601033"><ele>248.2</ele><time>2026-04-20T13:10:31.999Z</time></trkpt><trkpt lat="49.102954119300094" lon="6.298223860855069"><ele>248.8</ele><time>2026-04-20T13:10:32.999Z</time></trkpt><trkpt lat="49.10305645745806" lon="6.298246337862618"><ele>249.4</ele><time>2026-04-20T13:10:33.999Z</time></trkpt><trkpt lat="49.103138214130006" lon="6.2982788737308"><ele>250.0</ele><time>2026-04-20T13:10:34.999Z</time></trkpt><trkpt lat="49.10319611743348" lon="6.298327923500614"><ele>250.0</ele><time>2026-04-20T13:10:35.999Z</time></trkpt><trkpt lat="49.10327147833361" lon="6.298374308025616"><ele>250.0</ele><time>2026-04-20T13:10:46.999Z</time></trkpt><trkpt lat="49.10323132846592" lon="6.298611381865926"><ele>250.0</ele><time>2026-04-20T13:10:47.999Z</time></trkpt><trkpt lat="49.10320635933396" lon="6.298728167842945"><ele>250.0</ele><time>2026-04-20T13:10:48.999Z</time></trkpt><trkpt lat="49.10317993527753" lon="6.298867925160149"><ele>250.0</ele><time>2026-04-20T13:10:49.999Z</time></trkpt><trkpt lat="49.10315507166838" lon="6.299022919062004"><ele>250.0</ele><time>2026-04-20T13:10:50.999Z</time></trkpt><trkpt lat="49.10312667540092" lon="6.299194610433323"><ele>250.0</ele><time>2026-04-20T13:10:51.999Z</time></trkpt><trkpt lat="49.1030942349586" lon="6.299379017151093"><ele>250.0</ele><time>2026-04-20T13:10:52.999Z</time></trkpt><trkpt lat="49.10306421653163" lon="6.299569960316271"><ele>250.0</ele><time>2026-04-20T13:10:53.999Z</time></trkpt><trkpt lat="49.103032069223" lon="6.299774266961692"><ele>250.25</ele><time>2026-04-20T13:10:54.999Z</time></trkpt><trkpt lat="49.102999909023694" lon="6.2999822107187615"><ele>250.5</ele><time>2026-04-20T13:10:55.999Z</time></trkpt><trkpt lat="49.10296403899999" lon="6.3001971992063375"><ele>250.75</ele><time>2026-04-20T13:10:56.999Z</time></trkpt><trkpt lat="49.10292759397876" lon="6.30042017693683"><ele>251.0</ele><time>2026-04-20T13:10:57.999Z</time></trkpt><trkpt lat="49.1028899294275" lon="6.300642059051334"><ele>251.0</ele><time>2026-04-20T13:10:58.999Z</time></trkpt><trkpt lat="49.10285293216595" lon="6.3008590158625575"><ele>251.0</ele><time>2026-04-20T13:10:59.999Z</time></trkpt><trkpt lat="49.10281532489494" lon="6.301078014216738"><ele>251.0</ele><time>2026-04-20T13:11:00.999Z</time></trkpt><trkpt lat="49.10277683370512" lon="6.301298559226497"><ele>251.0</ele><time>2026-04-20T13:11:01.999Z</time></trkpt><trkpt lat="49.102739454766294" lon="6.301520338651846"><ele>251.33333333333334</ele><time>2026-04-20T13:11:02.999Z</time></trkpt><trkpt lat="49.102700972081074" lon="6.3017470450045066"><ele>251.66666666666669</ele><time>2026-04-20T13:11:03.999Z</time></trkpt><trkpt lat="49.10266432323451" lon="6.30197920587301"><ele>252.0</ele><time>2026-04-20T13:11:04.999Z</time></trkpt><trkpt lat="49.10263141403227" lon="6.302201114694988"><ele>252.0</ele><time>2026-04-20T13:11:05.999Z</time></trkpt><trkpt lat="49.10259693182942" lon="6.302432337617381"><ele>252.0</ele><time>2026-04-20T13:11:06.999Z</time></trkpt><trkpt lat="49.10256706300163" lon="6.3026653756953195"><ele>252.0</ele><time>2026-04-20T13:11:07.999Z</time></trkpt><trkpt lat="49.10253639211296" lon="6.302887810356256"><ele>252.33333333333331</ele><time>2026-04-20T13:11:08.999Z</time></trkpt><trkpt lat="49.10250352152004" lon="6.303114224378621"><ele>252.66666666666666</ele><time>2026-04-20T13:11:09.999Z</time></trkpt><trkpt lat="49.10246996249916" lon="6.303346835715672"><ele>253.0</ele><time>2026-04-20T13:11:10.999Z</time></trkpt><trkpt lat="49.10243823752712" lon="6.3035849324373086"><ele>252.33333333333331</ele><time>2026-04-20T13:11:11.999Z</time></trkpt><trkpt lat="49.102406481235455" lon="6.303813208284808"><ele>251.66666666666669</ele><time>2026-04-20T13:11:12.999Z</time></trkpt><trkpt lat="49.102374295202445" lon="6.304037118295275"><ele>251.0</ele><time>2026-04-20T13:11:13.999Z</time></trkpt><trkpt lat="49.102345069331456" lon="6.304272858284465"><ele>251.0</ele><time>2026-04-20T13:11:14.999Z</time></trkpt><trkpt lat="49.10231393289373" lon="6.304510241934631"><ele>251.0</ele><time>2026-04-20T13:11:15.999Z</time></trkpt><trkpt lat="49.10228356801512" lon="6.304736674671473"><ele>251.0</ele><time>2026-04-20T13:11:16.999Z</time></trkpt><trkpt lat="49.10225103708767" lon="6.304968848126874"><ele>251.0</ele><time>2026-04-20T13:11:17.999Z</time></trkpt><trkpt lat="49.102215986747815" lon="6.3052028191758"><ele>251.0</ele><time>2026-04-20T13:11:18.999Z</time></trkpt><trkpt lat="49.102181710401524" lon="6.305444336559149"><ele>251.0</ele><time>2026-04-20T13:11:19.999Z</time></trkpt><trkpt lat="49.10214721331748" lon="6.305674897321749"><ele>251.0</ele><time>2026-04-20T13:11:20.999Z</time></trkpt><trkpt lat="49.10211628654659" lon="6.30590923847957"><ele>251.0</ele><time>2026-04-20T13:11:21.999Z</time></trkpt><trkpt lat="49.10207996542887" lon="6.306148403411509"><ele>251.0</ele><time>2026-04-20T13:11:22.999Z</time></trkpt><trkpt lat="49.10204837176926" lon="6.306378954681092"><ele>251.33333333333334</ele><time>2026-04-20T13:11:23.999Z</time></trkpt><trkpt lat="49.10201792929476" lon="6.306612243462191"><ele>251.66666666666669</ele><time>2026-04-20T13:11:24.999Z</time></trkpt><trkpt lat="49.10198539767046" lon="6.306843730277434"><ele>252.0</ele><time>2026-04-20T13:11:25.999Z</time></trkpt><trkpt lat="49.101950816399224" lon="6.307072042343291"><ele>252.33333333333331</ele><time>2026-04-20T13:11:26.999Z</time></trkpt><trkpt lat="49.101915201117414" lon="6.307301126221715"><ele>252.66666666666666</ele><time>2026-04-20T13:11:28Z</time></trkpt><trkpt lat="49.10187818453065" lon="6.30753935484067"><ele>253.0</ele><time>2026-04-20T13:11:29Z</time></trkpt><trkpt lat="49.101849857741726" lon="6.307777975262609"><ele>253.0</ele><time>2026-04-20T13:11:30Z</time></trkpt><trkpt lat="49.10182609797385" lon="6.308014134335262"><ele>253.0</ele><time>2026-04-20T13:11:31Z</time></trkpt><trkpt lat="49.10179890872747" lon="6.308258204975673"><ele>253.0</ele><time>2026-04-20T13:11:32Z</time></trkpt><trkpt lat="49.10177529950479" lon="6.308503841806053"><ele>253.33333333333331</ele><time>2026-04-20T13:11:33Z</time></trkpt><trkpt lat="49.10175592073063" lon="6.308745089747178"><ele>253.66666666666669</ele><time>2026-04-20T13:11:34Z</time></trkpt><trkpt lat="49.10173639295252" lon="6.308993686606238"><ele>254.0</ele><time>2026-04-20T13:11:35Z</time></trkpt><trkpt lat="49.10172045211471" lon="6.3092471920782405"><ele>254.33333333333334</ele><time>2026-04-20T13:11:36Z</time></trkpt><trkpt lat="49.101709364752395" lon="6.309487853447989"><ele>254.66666666666669</ele><time>2026-04-20T13:11:37Z</time></trkpt><trkpt lat="49.10169801655734" lon="6.309729311313159"><ele>255.0</ele><time>2026-04-20T13:11:38Z</time></trkpt><trkpt lat="49.10168812269832" lon="6.30996640964523"><ele>255.33333333333331</ele><time>2026-04-20T13:11:39Z</time></trkpt><trkpt lat="49.101679718423654" lon="6.310208955124711"><ele>255.66666666666666</ele><time>2026-04-20T13:11:40Z</time></trkpt><trkpt lat="49.101679192893684" lon="6.310448090385612"><ele>256.0</ele><time>2026-04-20T13:11:41Z</time></trkpt><trkpt lat="49.10167914371565" lon="6.3106744608772605"><ele>256.0</ele><time>2026-04-20T13:11:42Z</time></trkpt><trkpt lat="49.10168926745956" lon="6.310908600752284"><ele>256.0</ele><time>2026-04-20T13:11:43Z</time></trkpt><trkpt lat="49.10170142969318" lon="6.311141841333363"><ele>256.0</ele><time>2026-04-20T13:11:44Z</time></trkpt><trkpt lat="49.10171250481122" lon="6.311358455605733"><ele>256.0</ele><time>2026-04-20T13:11:45Z</time></trkpt><trkpt lat="49.10173174448333" lon="6.311573508928613"><ele>256.66666666666663</ele><time>2026-04-20T13:11:46Z</time></trkpt><trkpt lat="49.101751663128" lon="6.311800014537427"><ele>257.3333333333333</ele><time>2026-04-20T13:11:47Z</time></trkpt><trkpt lat="49.10176640223706" lon="6.312032303826213"><ele>258.0</ele><time>2026-04-20T13:11:48Z</time></trkpt><trkpt lat="49.10177952389554" lon="6.312267038896992"><ele>258.0</ele><time>2026-04-20T13:11:49Z</time></trkpt><trkpt lat="49.101794507349695" lon="6.312510912792683"><ele>258.0</ele><time>2026-04-20T13:11:50Z</time></trkpt><trkpt lat="49.10180741093266" lon="6.3127415216414855"><ele>258.0</ele><time>2026-04-20T13:11:51Z</time></trkpt><trkpt lat="49.10182671867891" lon="6.312976882598633"><ele>258.0</ele><time>2026-04-20T13:11:52Z</time></trkpt><trkpt lat="49.10184728352468" lon="6.313209675701935"><ele>258.0</ele><time>2026-04-20T13:11:53Z</time></trkpt><trkpt lat="49.10187240314046" lon="6.313445111432728"><ele>258.0</ele><time>2026-04-20T13:11:54Z</time></trkpt><trkpt lat="49.10189846331493" lon="6.31369624058387"><ele>258.0</ele><time>2026-04-20T13:11:55Z</time></trkpt><trkpt lat="49.101922606849726" lon="6.313936326949388"><ele>258.0</ele><time>2026-04-20T13:11:56Z</time></trkpt><trkpt lat="49.101940807651474" lon="6.31416695091369"><ele>258.0</ele><time>2026-04-20T13:11:57Z</time></trkpt><trkpt lat="49.10195752719183" lon="6.314405943163894"><ele>258.0</ele><time>2026-04-20T13:11:58Z</time></trkpt><trkpt lat="49.10196875809483" lon="6.314647904335348"><ele>258.0</ele><time>2026-04-20T13:11:59Z</time></trkpt><trkpt lat="49.10197758568642" lon="6.314887433484897"><ele>258.0</ele><time>2026-04-20T13:12:00Z</time></trkpt><trkpt lat="49.101981915697465" lon="6.315126096186606"><ele>258.3333333333333</ele><time>2026-04-20T13:12:01Z</time></trkpt><trkpt lat="49.1019907103753" lon="6.3153629715647766"><ele>258.66666666666663</ele><time>2026-04-20T13:12:02Z</time></trkpt><trkpt lat="49.10200136330801" lon="6.315605681252582"><ele>259.0</ele><time>2026-04-20T13:12:03Z</time></trkpt><trkpt lat="49.10201233467457" lon="6.315847633793776"><ele>259.0</ele><time>2026-04-20T13:12:04Z</time></trkpt><trkpt lat="49.10201930586347" lon="6.316090764027632"><ele>259.0</ele><time>2026-04-20T13:12:05Z</time></trkpt><trkpt lat="49.102043473847786" lon="6.316333681113529"><ele>259.0</ele><time>2026-04-20T13:12:06Z</time></trkpt><trkpt lat="49.10206516674715" lon="6.316587493507205"><ele>259.0</ele><time>2026-04-20T13:12:07Z</time></trkpt><trkpt lat="49.102089448438576" lon="6.316830910324678"><ele>259.0</ele><time>2026-04-20T13:12:08Z</time></trkpt><trkpt lat="49.102118606396566" lon="6.317068402004223"><ele>259.0</ele><time>2026-04-20T13:12:09Z</time></trkpt><trkpt lat="49.102151769505305" lon="6.317305118612437"><ele>259.3333333333333</ele><time>2026-04-20T13:12:10Z</time></trkpt><trkpt lat="49.10218767489971" lon="6.317543660217579"><ele>259.6666666666667</ele><time>2026-04-20T13:12:11Z</time></trkpt><trkpt lat="49.10222268129794" lon="6.317779928742916"><ele>260.0</ele><time>2026-04-20T13:12:12Z</time></trkpt><trkpt lat="49.10225993748851" lon="6.3180220589128115"><ele>260.0</ele><time>2026-04-20T13:12:13Z</time></trkpt><trkpt lat="49.10229454178018" lon="6.318262578541561"><ele>260.0</ele><time>2026-04-20T13:12:14Z</time></trkpt><trkpt lat="49.10231462243316" lon="6.318492426145145"><ele>260.0</ele><time>2026-04-20T13:12:15Z</time></trkpt><trkpt lat="49.102330408414325" lon="6.318724529107669"><ele>260.33333333333337</ele><time>2026-04-20T13:12:16Z</time></trkpt><trkpt lat="49.1023316826749" lon="6.318963423026599"><ele>260.6666666666667</ele><time>2026-04-20T13:12:16.999Z</time></trkpt><trkpt lat="49.102323112213064" lon="6.319201930097697"><ele>261.0</ele><time>2026-04-20T13:12:17.999Z</time></trkpt><trkpt lat="49.10231511513462" lon="6.319426010049345"><ele>261.0</ele><time>2026-04-20T13:12:18.999Z</time></trkpt><trkpt lat="49.10227728026625" lon="6.319626839938719"><ele>261.0</ele><time>2026-04-20T13:12:19.999Z</time></trkpt><trkpt lat="49.10225086136834" lon="6.319828857624862"><ele>261.0</ele><time>2026-04-20T13:12:20.999Z</time></trkpt><trkpt lat="49.1022142372168" lon="6.32003326820479"><ele>261.0</ele><time>2026-04-20T13:12:21.999Z</time></trkpt><trkpt lat="49.102173934593836" lon="6.320224574537562"><ele>261.40000000000003</ele><time>2026-04-20T13:12:22.999Z</time></trkpt><trkpt lat="49.102134553924586" lon="6.320374424429192"><ele>261.8</ele><time>2026-04-20T13:12:23.999Z</time></trkpt><trkpt lat="49.10210002027182" lon="6.320493688962131"><ele>262.20000000000005</ele><time>2026-04-20T13:12:24.999Z</time></trkpt><trkpt lat="49.10206887098295" lon="6.320590407317454"><ele>262.6</ele><time>2026-04-20T13:12:25.999Z</time></trkpt><trkpt lat="49.10202952751071" lon="6.32071425775241"><ele>263.0</ele><time>2026-04-20T13:12:27.999Z</time></trkpt><trkpt lat="49.102136297812535" lon="6.320893369558836"><ele>263.2</ele><time>2026-04-20T13:12:29.999Z</time></trkpt><trkpt lat="49.102209976458646" lon="6.32094480266898"><ele>263.4</ele><time>2026-04-20T13:12:30.999Z</time></trkpt><trkpt lat="49.10228748830467" lon="6.321006851551567"><ele>263.59999999999997</ele><time>2026-04-20T13:12:31.999Z</time></trkpt><trkpt lat="49.10236374313178" lon="6.321092666497624"><ele>263.8</ele><time>2026-04-20T13:12:32.999Z</time></trkpt><trkpt lat="49.102437721596665" lon="6.321196991188363"><ele>264.0</ele><time>2026-04-20T13:12:33.999Z</time></trkpt><trkpt lat="49.102522793118936" lon="6.321300130631092"><ele>264.5</ele><time>2026-04-20T13:12:34.999Z</time></trkpt><trkpt lat="49.102629098217854" lon="6.321372307071398"><ele>265.0</ele><time>2026-04-20T13:12:35.999Z</time></trkpt><trkpt lat="49.102751699864946" lon="6.321403444431938"><ele>265.5</ele><time>2026-04-20T13:12:36.999Z</time></trkpt><trkpt lat="49.102874091323976" lon="6.321402662801617"><ele>266.0</ele><time>2026-04-20T13:12:37.999Z</time></trkpt><trkpt lat="49.10300166262881" lon="6.321381115830001"><ele>266.0</ele><time>2026-04-20T13:12:38.999Z</time></trkpt><trkpt lat="49.10313686486101" lon="6.321367519874056"><ele>266.0</ele><time>2026-04-20T13:12:39.999Z</time></trkpt><trkpt lat="49.10327674090627" lon="6.32136731534602"><ele>266.0</ele><time>2026-04-20T13:12:40.999Z</time></trkpt><trkpt lat="49.103417617783535" lon="6.321383919984988"><ele>266.0</ele><time>2026-04-20T13:12:41.999Z</time></trkpt><trkpt lat="49.10355505555806" lon="6.321422942347678"><ele>265.33333333333337</ele><time>2026-04-20T13:12:42.999Z</time></trkpt><trkpt lat="49.103697521076455" lon="6.32147795310234"><ele>264.6666666666667</ele><time>2026-04-20T13:12:43.999Z</time></trkpt><trkpt lat="49.1038432373839" lon="6.321532509666423"><ele>264.0</ele><time>2026-04-20T13:12:44.999Z</time></trkpt><trkpt lat="49.10399425716995" lon="6.3215666441087865"><ele>264.3333333333333</ele><time>2026-04-20T13:12:45.999Z</time></trkpt><trkpt lat="49.10415047686025" lon="6.32157985090744"><ele>264.66666666666663</ele><time>2026-04-20T13:12:46.999Z</time></trkpt><trkpt lat="49.10430317500984" lon="6.321582105176459"><ele>265.0</ele><time>2026-04-20T13:12:47.999Z</time></trkpt><trkpt lat="49.10445748224205" lon="6.321581016343869"><ele>265.0</ele><time>2026-04-20T13:12:48.999Z</time></trkpt><trkpt lat="49.10461418116961" lon="6.321584909002668"><ele>265.0</ele><time>2026-04-20T13:12:49.999Z</time></trkpt><trkpt lat="49.104770229275914" lon="6.321593846559283"><ele>265.0</ele><time>2026-04-20T13:12:50.999Z</time></trkpt><trkpt lat="49.10491945500732" lon="6.321618482570318"><ele>264.66666666666663</ele><time>2026-04-20T13:12:51.999Z</time></trkpt><trkpt lat="49.105069438358946" lon="6.321661494237966"><ele>264.3333333333333</ele><time>2026-04-20T13:12:52.999Z</time></trkpt><trkpt lat="49.1052185237767" lon="6.321726094675027"><ele>264.0</ele><time>2026-04-20T13:12:53.999Z</time></trkpt><trkpt lat="49.105361063027274" lon="6.321811866257416"><ele>264.0</ele><time>2026-04-20T13:12:54.999Z</time></trkpt><trkpt lat="49.10549115438224" lon="6.321909013696683"><ele>264.0</ele><time>2026-04-20T13:12:55.999Z</time></trkpt><trkpt lat="49.10562855961478" lon="6.321998103008902"><ele>264.0</ele><time>2026-04-20T13:12:56.999Z</time></trkpt><trkpt lat="49.10577493377221" lon="6.322074149725363"><ele>264.0</ele><time>2026-04-20T13:12:57.999Z</time></trkpt><trkpt lat="49.105924708109654" lon="6.322142509649686"><ele>264.0</ele><time>2026-04-20T13:12:58.999Z</time></trkpt><trkpt lat="49.10607404183197" lon="6.322202561694854"><ele>264.0</ele><time>2026-04-20T13:12:59.999Z</time></trkpt><trkpt lat="49.1062217791227" lon="6.322256372211877"><ele>264.0</ele><time>2026-04-20T13:13:00.999Z</time></trkpt><trkpt lat="49.10637174310105" lon="6.322310229134017"><ele>264.3333333333333</ele><time>2026-04-20T13:13:01.999Z</time></trkpt><trkpt lat="49.10652362131367" lon="6.322315021504711"><ele>264.66666666666663</ele><time>2026-04-20T13:13:02.999Z</time></trkpt><trkpt lat="49.10667503675929" lon="6.322256216292681"><ele>265.0</ele><time>2026-04-20T13:13:03.999Z</time></trkpt><trkpt lat="49.106828951184376" lon="6.322198229404241"><ele>265.0</ele><time>2026-04-20T13:13:04.999Z</time></trkpt><trkpt lat="49.10697204053926" lon="6.322120415384173"><ele>265.0</ele><time>2026-04-20T13:13:05.999Z</time></trkpt><trkpt lat="49.10711169997023" lon="6.322035616460292"><ele>265.0</ele><time>2026-04-20T13:13:06.999Z</time></trkpt><trkpt lat="49.107249468708275" lon="6.321958225967003"><ele>265.0</ele><time>2026-04-20T13:13:07.999Z</time></trkpt><trkpt lat="49.107392212808506" lon="6.321881511677692"><ele>265.0</ele><time>2026-04-20T13:13:08.999Z</time></trkpt><trkpt lat="49.10754171343624" lon="6.321807672001952"><ele>265.0</ele><time>2026-04-20T13:13:09.999Z</time></trkpt><trkpt lat="49.107694903498405" lon="6.32174875218752"><ele>265.0</ele><time>2026-04-20T13:13:10.999Z</time></trkpt><trkpt lat="49.10785554981227" lon="6.321708037108931"><ele>265.0</ele><time>2026-04-20T13:13:11.999Z</time></trkpt><trkpt lat="49.1080132421909" lon="6.32168440558509"><ele>265.0</ele><time>2026-04-20T13:13:12.999Z</time></trkpt><trkpt lat="49.10817538877858" lon="6.321696482102919"><ele>265.0</ele><time>2026-04-20T13:13:13.999Z</time></trkpt><trkpt lat="49.10833722616845" lon="6.3216951253393505"><ele>265.3333333333333</ele><time>2026-04-20T13:13:14.999Z</time></trkpt><trkpt lat="49.10849294794678" lon="6.321674580076718"><ele>265.6666666666667</ele><time>2026-04-20T13:13:15.999Z</time></trkpt><trkpt lat="49.108643923129925" lon="6.321598214003724"><ele>266.0</ele><time>2026-04-20T13:13:16.999Z</time></trkpt><trkpt lat="49.108799051356684" lon="6.321524736667127"><ele>266.0</ele><time>2026-04-20T13:13:17.999Z</time></trkpt><trkpt lat="49.10894621166299" lon="6.321432544855674"><ele>266.0</ele><time>2026-04-20T13:13:18.999Z</time></trkpt><trkpt lat="49.10909166247102" lon="6.321340072937294"><ele>266.0</ele><time>2026-04-20T13:13:19.999Z</time></trkpt><trkpt lat="49.109238343601504" lon="6.321251896999232"><ele>266.6666666666667</ele><time>2026-04-20T13:13:20.999Z</time></trkpt><trkpt lat="49.1093892354584" lon="6.321164985239687"><ele>267.3333333333333</ele><time>2026-04-20T13:13:21.999Z</time></trkpt><trkpt lat="49.10953967341192" lon="6.321078003239992"><ele>268.0</ele><time>2026-04-20T13:13:22.999Z</time></trkpt><trkpt lat="49.109683754476094" lon="6.3209901574452285"><ele>268.0</ele><time>2026-04-20T13:13:23.999Z</time></trkpt><trkpt lat="49.10982549648625" lon="6.320907637540528"><ele>268.0</ele><time>2026-04-20T13:13:24.999Z</time></trkpt><trkpt lat="49.109971082881415" lon="6.320822321685525"><ele>268.0</ele><time>2026-04-20T13:13:25.999Z</time></trkpt><trkpt lat="49.11011611252545" lon="6.320733364893762"><ele>268.3333333333333</ele><time>2026-04-20T13:13:26.999Z</time></trkpt><trkpt lat="49.11026215748639" lon="6.320645649246951"><ele>268.6666666666667</ele><time>2026-04-20T13:13:27.999Z</time></trkpt><trkpt lat="49.110407367137974" lon="6.320557109919039"><ele>269.0</ele><time>2026-04-20T13:13:28.999Z</time></trkpt><trkpt lat="49.1105465737361" lon="6.320471488429118"><ele>269.33333333333337</ele><time>2026-04-20T13:13:29.999Z</time></trkpt><trkpt lat="49.11068365682106" lon="6.320390396006107"><ele>269.6666666666667</ele><time>2026-04-20T13:13:30.999Z</time></trkpt><trkpt lat="49.11082880215045" lon="6.320305290015747"><ele>270.0</ele><time>2026-04-20T13:13:31.999Z</time></trkpt><trkpt lat="49.11097572752822" lon="6.320215914278395"><ele>270.0</ele><time>2026-04-20T13:13:32.998Z</time></trkpt><trkpt lat="49.111122491928924" lon="6.320123621158465"><ele>270.0</ele><time>2026-04-20T13:13:34Z</time></trkpt><trkpt lat="49.11126344314387" lon="6.320041220097756"><ele>270.0</ele><time>2026-04-20T13:13:35Z</time></trkpt><trkpt lat="49.111413678218426" lon="6.319980036733966"><ele>270.0</ele><time>2026-04-20T13:13:36Z</time></trkpt><trkpt lat="49.11157120492414" lon="6.319953119594597"><ele>270.0</ele><time>2026-04-20T13:13:37Z</time></trkpt><trkpt lat="49.11172835683273" lon="6.3199610945547215"><ele>270.0</ele><time>2026-04-20T13:13:38Z</time></trkpt><trkpt lat="49.11188208201176" lon="6.319983502638307"><ele>270.0</ele><time>2026-04-20T13:13:39Z</time></trkpt><trkpt lat="49.11203055847968" lon="6.32001067403574"><ele>270.0</ele><time>2026-04-20T13:13:40Z</time></trkpt><trkpt lat="49.11218094868258" lon="6.320034635338813"><ele>270.0</ele><time>2026-04-20T13:13:41Z</time></trkpt><trkpt lat="49.1123378950624" lon="6.320040169942442"><ele>270.0</ele><time>2026-04-20T13:13:42Z</time></trkpt><trkpt lat="49.11249615598945" lon="6.3200286322779"><ele>270.0</ele><time>2026-04-20T13:13:43Z</time></trkpt><trkpt lat="49.112642666617745" lon="6.320009874339902"><ele>270.0</ele><time>2026-04-20T13:13:44Z</time></trkpt><trkpt lat="49.11278620986097" lon="6.319982649890073"><ele>270.0</ele><time>2026-04-20T13:13:45Z</time></trkpt><trkpt lat="49.11293421017321" lon="6.319944336357828"><ele>270.0</ele><time>2026-04-20T13:13:46Z</time></trkpt><trkpt lat="49.1130834498906" lon="6.3198920516955575"><ele>270.0</ele><time>2026-04-20T13:13:47Z</time></trkpt><trkpt lat="49.11322177896641" lon="6.319822243547985"><ele>270.0</ele><time>2026-04-20T13:13:48Z</time></trkpt><trkpt lat="49.113356308088875" lon="6.319751428889071"><ele>270.0</ele><time>2026-04-20T13:13:49Z</time></trkpt><trkpt lat="49.113497402683755" lon="6.31968681942709"><ele>270.0</ele><time>2026-04-20T13:13:50Z</time></trkpt><trkpt lat="49.11364896888174" lon="6.319680546832743"><ele>270.0</ele><time>2026-04-20T13:13:51Z</time></trkpt><trkpt lat="49.11380258408735" lon="6.31965282430632"><ele>270.0</ele><time>2026-04-20T13:13:52Z</time></trkpt><trkpt lat="49.11395796888924" lon="6.3196763118131365"><ele>270.0</ele><time>2026-04-20T13:13:53Z</time></trkpt><trkpt lat="49.11410469444954" lon="6.319715061256034"><ele>270.0</ele><time>2026-04-20T13:13:54Z</time></trkpt><trkpt lat="49.11425298268846" lon="6.31976594533925"><ele>269.3333333333333</ele><time>2026-04-20T13:13:55Z</time></trkpt><trkpt lat="49.11440086199584" lon="6.319829864454129"><ele>268.66666666666663</ele><time>2026-04-20T13:13:56Z</time></trkpt><trkpt lat="49.11454458814924" lon="6.319901348663073"><ele>268.0</ele><time>2026-04-20T13:13:57Z</time></trkpt><trkpt lat="49.11469050558592" lon="6.319970170923178"><ele>268.0</ele><time>2026-04-20T13:13:58Z</time></trkpt><trkpt lat="49.11483890677872" lon="6.320035504549954"><ele>268.0</ele><time>2026-04-20T13:13:59Z</time></trkpt><trkpt lat="49.11498435387376" lon="6.32009899917068"><ele>268.0</ele><time>2026-04-20T13:14:00Z</time></trkpt><trkpt lat="49.1151267254033" lon="6.320156040578815"><ele>267.66666666666663</ele><time>2026-04-20T13:14:01Z</time></trkpt><trkpt lat="49.11526851081072" lon="6.320208885633847"><ele>267.3333333333333</ele><time>2026-04-20T13:14:02Z</time></trkpt><trkpt lat="49.115415021271055" lon="6.320236702763906"><ele>267.0</ele><time>2026-04-20T13:14:03Z</time></trkpt><trkpt lat="49.11557115935997" lon="6.320236292895034"><ele>267.0</ele><time>2026-04-20T13:14:04Z</time></trkpt><trkpt lat="49.11572826803257" lon="6.320206361600518"><ele>267.0</ele><time>2026-04-20T13:14:05Z</time></trkpt><trkpt lat="49.11587810819664" lon="6.320151734685307"><ele>267.0</ele><time>2026-04-20T13:14:06Z</time></trkpt><trkpt lat="49.11602402798582" lon="6.320084589980401"><ele>266.0</ele><time>2026-04-20T13:14:07Z</time></trkpt><trkpt lat="49.11617063885617" lon="6.320013532480877"><ele>265.0</ele><time>2026-04-20T13:14:08Z</time></trkpt><trkpt lat="49.11631723459326" lon="6.3199436032151635"><ele>264.0</ele><time>2026-04-20T13:14:09Z</time></trkpt><trkpt lat="49.116462227726075" lon="6.319879248105331"><ele>264.5</ele><time>2026-04-20T13:14:10Z</time></trkpt><trkpt lat="49.11660275852671" lon="6.319811774245456"><ele>265.0</ele><time>2026-04-20T13:14:11Z</time></trkpt><trkpt lat="49.116743950723084" lon="6.319744608516325"><ele>265.5</ele><time>2026-04-20T13:14:12Z</time></trkpt><trkpt lat="49.11689141057002" lon="6.3196809163240575"><ele>266.0</ele><time>2026-04-20T13:14:13Z</time></trkpt><trkpt lat="49.11703287012386" lon="6.319618707848722"><ele>266.0</ele><time>2026-04-20T13:14:14Z</time></trkpt><trkpt lat="49.117165867389474" lon="6.319556195282151"><ele>266.0</ele><time>2026-04-20T13:14:15Z</time></trkpt><trkpt lat="49.11729010777336" lon="6.319502739568736"><ele>266.0</ele><time>2026-04-20T13:14:16Z</time></trkpt><trkpt lat="49.117404252733074" lon="6.319455686714258"><ele>266.0</ele><time>2026-04-20T13:14:17Z</time></trkpt><trkpt lat="49.117501111402504" lon="6.319431417696093"><ele>266.6</ele><time>2026-04-20T13:14:18Z</time></trkpt><trkpt lat="49.11759194850375" lon="6.319448359972952"><ele>267.20000000000005</ele><time>2026-04-20T13:14:19Z</time></trkpt><trkpt lat="49.11768069544003" lon="6.319510141402504"><ele>267.79999999999995</ele><time>2026-04-20T13:14:20Z</time></trkpt><trkpt lat="49.117768273740246" lon="6.319606889363809"><ele>268.4</ele><time>2026-04-20T13:14:21Z</time></trkpt><trkpt lat="49.11783322815954" lon="6.319736261348744"><ele>269.0</ele><time>2026-04-20T13:14:22Z</time></trkpt><trkpt lat="49.11788198233164" lon="6.319890820418584"><ele>269.0</ele><time>2026-04-20T13:14:23Z</time></trkpt><trkpt lat="49.11791748886534" lon="6.320064509775362"><ele>269.0</ele><time>2026-04-20T13:14:24Z</time></trkpt><trkpt lat="49.11796371379365" lon="6.320243500116925"><ele>269.0</ele><time>2026-04-20T13:14:25Z</time></trkpt><trkpt lat="49.1180130329991" lon="6.320422259944547"><ele>269.0</ele><time>2026-04-20T13:14:26Z</time></trkpt><trkpt lat="49.118063989710286" lon="6.320609740766067"><ele>268.75</ele><time>2026-04-20T13:14:27Z</time></trkpt><trkpt lat="49.11811462083682" lon="6.32080240432549"><ele>268.5</ele><time>2026-04-20T13:14:27.999Z</time></trkpt><trkpt lat="49.11816603121358" lon="6.321003633077712"><ele>268.25</ele><time>2026-04-20T13:14:28.999Z</time></trkpt><trkpt lat="49.11821580121596" lon="6.32121021347899"><ele>268.0</ele><time>2026-04-20T13:14:29.999Z</time></trkpt><trkpt lat="49.11826269103325" lon="6.321404167373437"><ele>268.5</ele><time>2026-04-20T13:14:30.999Z</time></trkpt><trkpt lat="49.11830727047195" lon="6.321590599474448"><ele>269.0</ele><time>2026-04-20T13:14:31.999Z</time></trkpt><trkpt lat="49.11835532401821" lon="6.321792646723148"><ele>269.5</ele><time>2026-04-20T13:14:32.999Z</time></trkpt><trkpt lat="49.11840518343443" lon="6.321998892051696"><ele>270.0</ele><time>2026-04-20T13:14:33.999Z</time></trkpt><trkpt lat="49.11845667340571" lon="6.322213516262973"><ele>270.0</ele><time>2026-04-20T13:14:34.999Z</time></trkpt><trkpt lat="49.118509750701854" lon="6.322433486448266"><ele>270.0</ele><time>2026-04-20T13:14:35.999Z</time></trkpt><trkpt lat="49.11856085313862" lon="6.322641773636503"><ele>270.0</ele><time>2026-04-20T13:14:36.999Z</time></trkpt><trkpt lat="49.11861029524703" lon="6.322851953079491"><ele>270.0</ele><time>2026-04-20T13:14:37.999Z</time></trkpt><trkpt lat="49.11866210052148" lon="6.323071119145926"><ele>269.6666666666667</ele><time>2026-04-20T13:14:38.999Z</time></trkpt><trkpt lat="49.11871496787851" lon="6.32329246931433"><ele>269.33333333333337</ele><time>2026-04-20T13:14:39.999Z</time></trkpt><trkpt lat="49.118770308941215" lon="6.323514799293809"><ele>269.0</ele><time>2026-04-20T13:14:40.999Z</time></trkpt><trkpt lat="49.118822169858866" lon="6.323727307615196"><ele>269.0</ele><time>2026-04-20T13:14:41.999Z</time></trkpt><trkpt lat="49.11887319062704" lon="6.323943100708806"><ele>269.0</ele><time>2026-04-20T13:14:42.999Z</time></trkpt><trkpt lat="49.118928718071345" lon="6.324161852500928"><ele>269.0</ele><time>2026-04-20T13:14:43.999Z</time></trkpt><trkpt lat="49.11898092624494" lon="6.324383473846807"><ele>269.0</ele><time>2026-04-20T13:14:44.999Z</time></trkpt><trkpt lat="49.11903694453448" lon="6.324604546265435"><ele>269.0</ele><time>2026-04-20T13:14:45.999Z</time></trkpt><trkpt lat="49.11909152053561" lon="6.324825732379554"><ele>269.0</ele><time>2026-04-20T13:14:46.999Z</time></trkpt><trkpt lat="49.1191431649908" lon="6.325048729931121"><ele>269.0</ele><time>2026-04-20T13:14:47.999Z</time></trkpt><trkpt lat="49.11918712719637" lon="6.3252629555593884"><ele>269.0</ele><time>2026-04-20T13:14:48.999Z</time></trkpt><trkpt lat="49.119225921897616" lon="6.325490345899228"><ele>269.0</ele><time>2026-04-20T13:14:49.999Z</time></trkpt><trkpt lat="49.11925432156545" lon="6.32572624499755"><ele>269.33333333333337</ele><time>2026-04-20T13:14:50.999Z</time></trkpt><trkpt lat="49.1192777969837" lon="6.325963483449598"><ele>269.6666666666667</ele><time>2026-04-20T13:14:51.999Z</time></trkpt><trkpt lat="49.11929003993599" lon="6.326205680332618"><ele>270.0</ele><time>2026-04-20T13:14:52.999Z</time></trkpt><trkpt lat="49.11928986501804" lon="6.326439909810069"><ele>270.25</ele><time>2026-04-20T13:14:53.999Z</time></trkpt><trkpt lat="49.11928376617755" lon="6.326661710676609"><ele>270.5</ele><time>2026-04-20T13:14:54.999Z</time></trkpt><trkpt lat="49.119271361282884" lon="6.326890510917069"><ele>270.75</ele><time>2026-04-20T13:14:55.999Z</time></trkpt><trkpt lat="49.119252498573964" lon="6.327120573739563"><ele>271.0</ele><time>2026-04-20T13:14:56.999Z</time></trkpt><trkpt lat="49.119224376829294" lon="6.327354700140364"><ele>271.66666666666663</ele><time>2026-04-20T13:14:57.999Z</time></trkpt><trkpt lat="49.119186290968905" lon="6.327584577587144"><ele>272.3333333333333</ele><time>2026-04-20T13:14:58.999Z</time></trkpt><trkpt lat="49.1191401831739" lon="6.32780527560949"><ele>273.0</ele><time>2026-04-20T13:14:59.999Z</time></trkpt><trkpt lat="49.11909037529423" lon="6.328028604880514"><ele>273.0</ele><time>2026-04-20T13:15:00.999Z</time></trkpt><trkpt lat="49.119042819368964" lon="6.328256087253309"><ele>273.0</ele><time>2026-04-20T13:15:01.999Z</time></trkpt><trkpt lat="49.11898989594629" lon="6.328478351711718"><ele>273.0</ele><time>2026-04-20T13:15:02.999Z</time></trkpt><trkpt lat="49.118938089559606" lon="6.3287010229075396"><ele>273.0</ele><time>2026-04-20T13:15:03.999Z</time></trkpt><trkpt lat="49.11888746262113" lon="6.328926047738328"><ele>273.0</ele><time>2026-04-20T13:15:04.999Z</time></trkpt><trkpt lat="49.1188366783967" lon="6.329144807659"><ele>273.0</ele><time>2026-04-20T13:15:05.999Z</time></trkpt><trkpt lat="49.118787547532584" lon="6.32936165406184"><ele>273.0</ele><time>2026-04-20T13:15:06.999Z</time></trkpt><trkpt lat="49.11873400659177" lon="6.329583951180826"><ele>273.0</ele><time>2026-04-20T13:15:07.999Z</time></trkpt><trkpt lat="49.118680086674985" lon="6.329810978695712"><ele>273.0</ele><time>2026-04-20T13:15:08.999Z</time></trkpt><trkpt lat="49.118628674203975" lon="6.330035714126467"><ele>273.6666666666667</ele><time>2026-04-20T13:15:09.999Z</time></trkpt><trkpt lat="49.11857894086305" lon="6.330253370734914"><ele>274.33333333333337</ele><time>2026-04-20T13:15:10.999Z</time></trkpt><trkpt lat="49.11853082364724" lon="6.33047963791209"><ele>275.0</ele><time>2026-04-20T13:15:11.999Z</time></trkpt><trkpt lat="49.11847863123015" lon="6.33070948813258"><ele>275.33333333333337</ele><time>2026-04-20T13:15:12.999Z</time></trkpt><trkpt lat="49.118430353381115" lon="6.330934911582019"><ele>275.6666666666667</ele><time>2026-04-20T13:15:13.999Z</time></trkpt><trkpt lat="49.118381193868714" lon="6.331153314255911"><ele>276.0</ele><time>2026-04-20T13:15:14.999Z</time></trkpt><trkpt lat="49.11833262399346" lon="6.331370249081432"><ele>276.0</ele><time>2026-04-20T13:15:15.999Z</time></trkpt><trkpt lat="49.118283031803585" lon="6.331586300504474"><ele>276.0</ele><time>2026-04-20T13:15:16.999Z</time></trkpt><trkpt lat="49.11823055140682" lon="6.331808931526466"><ele>276.0</ele><time>2026-04-20T13:15:17.999Z</time></trkpt><trkpt lat="49.11818063538504" lon="6.332024467738489"><ele>277.0</ele><time>2026-04-20T13:15:18.999Z</time></trkpt><trkpt lat="49.11813255932694" lon="6.332239294120574"><ele>278.0</ele><time>2026-04-20T13:15:19.999Z</time></trkpt><trkpt lat="49.118080983300295" lon="6.332459250071754"><ele>279.0</ele><time>2026-04-20T13:15:20.999Z</time></trkpt><trkpt lat="49.118026135224575" lon="6.332682609872974"><ele>279.0</ele><time>2026-04-20T13:15:21.999Z</time></trkpt><trkpt lat="49.1179751341622" lon="6.332902969453839"><ele>279.0</ele><time>2026-04-20T13:15:22.999Z</time></trkpt><trkpt lat="49.11792705005589" lon="6.3331206782947405"><ele>279.0</ele><time>2026-04-20T13:15:23.999Z</time></trkpt><trkpt lat="49.117877733674376" lon="6.333345347527618"><ele>279.0</ele><time>2026-04-20T13:15:24.999Z</time></trkpt><trkpt lat="49.11782792467829" lon="6.333568706533627"><ele>279.0</ele><time>2026-04-20T13:15:25.999Z</time></trkpt><trkpt lat="49.11777878900863" lon="6.333785452545319"><ele>279.0</ele><time>2026-04-20T13:15:26.999Z</time></trkpt><trkpt lat="49.11772884659068" lon="6.334003997741241"><ele>278.6666666666667</ele><time>2026-04-20T13:15:27.999Z</time></trkpt><trkpt lat="49.11767369277949" lon="6.334229373760149"><ele>278.33333333333337</ele><time>2026-04-20T13:15:28.999Z</time></trkpt><trkpt lat="49.11762051439419" lon="6.334458754643744"><ele>278.0</ele><time>2026-04-20T13:15:29.999Z</time></trkpt><trkpt lat="49.117568759493366" lon="6.334682203700483"><ele>278.0</ele><time>2026-04-20T13:15:30.999Z</time></trkpt><trkpt lat="49.11751973586564" lon="6.334905602824402"><ele>278.0</ele><time>2026-04-20T13:15:31.999Z</time></trkpt><trkpt lat="49.117467798374584" lon="6.335136017946254"><ele>278.0</ele><time>2026-04-20T13:15:32.999Z</time></trkpt><trkpt lat="49.11741458080637" lon="6.335372109408494"><ele>277.6666666666667</ele><time>2026-04-20T13:15:33.999Z</time></trkpt><trkpt lat="49.11736501953648" lon="6.335599109316937"><ele>277.3333333333333</ele><time>2026-04-20T13:15:34.999Z</time></trkpt><trkpt lat="49.117315278422424" lon="6.335814263709047"><ele>277.0</ele><time>2026-04-20T13:15:35.999Z</time></trkpt><trkpt lat="49.117267581993" lon="6.336030047952526"><ele>277.0</ele><time>2026-04-20T13:15:36.999Z</time></trkpt><trkpt lat="49.117221002344365" lon="6.3362425998026914"><ele>277.0</ele><time>2026-04-20T13:15:37.999Z</time></trkpt><trkpt lat="49.11717273912732" lon="6.3364500596768725"><ele>277.0</ele><time>2026-04-20T13:15:38.999Z</time></trkpt><trkpt lat="49.11712255789795" lon="6.336667032294736"><ele>277.0</ele><time>2026-04-20T13:15:40Z</time></trkpt><trkpt lat="49.11707086992543" lon="6.336884159298141"><ele>277.3333333333333</ele><time>2026-04-20T13:15:41Z</time></trkpt><trkpt lat="49.11702406869397" lon="6.337110810500086"><ele>277.6666666666667</ele><time>2026-04-20T13:15:42Z</time></trkpt><trkpt lat="49.11697552408676" lon="6.337331250418288"><ele>278.0</ele><time>2026-04-20T13:15:43Z</time></trkpt><trkpt lat="49.11693037793982" lon="6.337541437133862"><ele>278.33333333333337</ele><time>2026-04-20T13:15:44Z</time></trkpt><trkpt lat="49.116883845159755" lon="6.337755396414645"><ele>278.6666666666667</ele><time>2026-04-20T13:15:45Z</time></trkpt><trkpt lat="49.11683341604848" lon="6.337974390889058"><ele>279.0</ele><time>2026-04-20T13:15:46Z</time></trkpt><trkpt lat="49.11678128955657" lon="6.338191102215175"><ele>279.0</ele><time>2026-04-20T13:15:47Z</time></trkpt><trkpt lat="49.11673303235327" lon="6.338396793846334"><ele>279.0</ele><time>2026-04-20T13:15:48Z</time></trkpt><trkpt lat="49.116685251462506" lon="6.338606845504955"><ele>279.0</ele><time>2026-04-20T13:15:49Z</time></trkpt><trkpt lat="49.116637751573506" lon="6.33882423542471"><ele>279.0</ele><time>2026-04-20T13:15:50Z</time></trkpt><trkpt lat="49.116593191297085" lon="6.33902764371512"><ele>279.25</ele><time>2026-04-20T13:15:51Z</time></trkpt><trkpt lat="49.11654252462188" lon="6.339237101851732"><ele>279.5</ele><time>2026-04-20T13:15:52Z</time></trkpt><trkpt lat="49.11649156137719" lon="6.339454099880302"><ele>279.75</ele><time>2026-04-20T13:15:53Z</time></trkpt><trkpt lat="49.11644241089636" lon="6.33967056435884"><ele>280.0</ele><time>2026-04-20T13:15:54Z</time></trkpt><trkpt lat="49.116396240338624" lon="6.339880716750647"><ele>280.0</ele><time>2026-04-20T13:15:55Z</time></trkpt><trkpt lat="49.11635059299433" lon="6.34008772217348"><ele>280.0</ele><time>2026-04-20T13:15:56Z</time></trkpt><trkpt lat="49.11630211674261" lon="6.340300404182324"><ele>280.0</ele><time>2026-04-20T13:15:57Z</time></trkpt><trkpt lat="49.11625301761894" lon="6.340521013992936"><ele>280.0</ele><time>2026-04-20T13:15:58Z</time></trkpt><trkpt lat="49.11620641630012" lon="6.34074012900977"><ele>280.0</ele><time>2026-04-20T13:15:59Z</time></trkpt><trkpt lat="49.11616088381362" lon="6.3409587876305284"><ele>280.0</ele><time>2026-04-20T13:16:00Z</time></trkpt><trkpt lat="49.116112238889414" lon="6.341171840990322"><ele>280.0</ele><time>2026-04-20T13:16:01Z</time></trkpt><trkpt lat="49.11606073076683" lon="6.341379767284718"><ele>280.0</ele><time>2026-04-20T13:16:02Z</time></trkpt><trkpt lat="49.116013915466915" lon="6.34159634075091"><ele>280.3333333333333</ele><time>2026-04-20T13:16:03Z</time></trkpt><trkpt lat="49.115963944122704" lon="6.341812794099023"><ele>280.6666666666667</ele><time>2026-04-20T13:16:04Z</time></trkpt><trkpt lat="49.1159139354499" lon="6.342026532057843"><ele>281.0</ele><time>2026-04-20T13:16:05Z</time></trkpt><trkpt lat="49.11586197026521" lon="6.342245568041944"><ele>281.0</ele><time>2026-04-20T13:16:06Z</time></trkpt><trkpt lat="49.11581279231285" lon="6.3424571826317635"><ele>281.0</ele><time>2026-04-20T13:16:07Z</time></trkpt><trkpt lat="49.11576442215201" lon="6.342662787386359"><ele>281.0</ele><time>2026-04-20T13:16:08Z</time></trkpt><trkpt lat="49.11571729059467" lon="6.342872942710639"><ele>281.0</ele><time>2026-04-20T13:16:09Z</time></trkpt><trkpt lat="49.115665134691255" lon="6.343088101172284"><ele>281.0</ele><time>2026-04-20T13:16:10Z</time></trkpt><trkpt lat="49.11561514100015" lon="6.343303194567856"><ele>281.0</ele><time>2026-04-20T13:16:11Z</time></trkpt><trkpt lat="49.11556639011373" lon="6.34352300408352"><ele>281.0</ele><time>2026-04-20T13:16:12Z</time></trkpt><trkpt lat="49.115519607760945" lon="6.34374117123989"><ele>280.75</ele><time>2026-04-20T13:16:13Z</time></trkpt><trkpt lat="49.11547320340061" lon="6.343948171163235"><ele>280.5</ele><time>2026-04-20T13:16:14Z</time></trkpt><trkpt lat="49.1154236735662" lon="6.344158953907834"><ele>280.25</ele><time>2026-04-20T13:16:15Z</time></trkpt><trkpt lat="49.11537027618518" lon="6.344376761918714"><ele>280.0</ele><time>2026-04-20T13:16:16Z</time></trkpt><trkpt lat="49.1153202651621" lon="6.344592654393011"><ele>280.0</ele><time>2026-04-20T13:16:17Z</time></trkpt><trkpt lat="49.1152697292641" lon="6.344815093034329"><ele>280.0</ele><time>2026-04-20T13:16:18Z</time></trkpt><trkpt lat="49.11522244151335" lon="6.345029273490123"><ele>280.0</ele><time>2026-04-20T13:16:19Z</time></trkpt><trkpt lat="49.115175778864376" lon="6.345239086257497"><ele>280.0</ele><time>2026-04-20T13:16:20Z</time></trkpt><trkpt lat="49.115130448802866" lon="6.345457673519783"><ele>280.5</ele><time>2026-04-20T13:16:21Z</time></trkpt><trkpt lat="49.115081898630606" lon="6.345677324536452"><ele>281.0</ele><time>2026-04-20T13:16:22Z</time></trkpt><trkpt lat="49.11503421925614" lon="6.345885320421336"><ele>281.5</ele><time>2026-04-20T13:16:23Z</time></trkpt><trkpt lat="49.11498577027084" lon="6.346096758313148"><ele>282.0</ele><time>2026-04-20T13:16:24Z</time></trkpt><trkpt lat="49.1149338815997" lon="6.346316451836638"><ele>282.6666666666667</ele><time>2026-04-20T13:16:25Z</time></trkpt><trkpt lat="49.11488192832358" lon="6.3465391693118125"><ele>283.33333333333337</ele><time>2026-04-20T13:16:26Z</time></trkpt><trkpt lat="49.114831905016175" lon="6.34675706945922"><ele>284.0</ele><time>2026-04-20T13:16:27Z</time></trkpt><trkpt lat="49.114786346018505" lon="6.346965366976266"><ele>284.0</ele><time>2026-04-20T13:16:28Z</time></trkpt><trkpt lat="49.114734980175" lon="6.347181063305652"><ele>284.0</ele><time>2026-04-20T13:16:29Z</time></trkpt><trkpt lat="49.11468499423167" lon="6.3473986156224536"><ele>284.0</ele><time>2026-04-20T13:16:30Z</time></trkpt><trkpt lat="49.114634568033196" lon="6.34761672141879"><ele>284.0</ele><time>2026-04-20T13:16:31Z</time></trkpt><trkpt lat="49.11458524435536" lon="6.3478397972884295"><ele>284.0</ele><time>2026-04-20T13:16:32Z</time></trkpt><trkpt lat="49.11453760328927" lon="6.348052947262922"><ele>284.0</ele><time>2026-04-20T13:16:33Z</time></trkpt><trkpt lat="49.11449083062978" lon="6.348263791769237"><ele>284.0</ele><time>2026-04-20T13:16:34Z</time></trkpt><trkpt lat="49.11444419477396" lon="6.348479352822039"><ele>283.6666666666667</ele><time>2026-04-20T13:16:34.999Z</time></trkpt><trkpt lat="49.114397098467826" lon="6.348699206627977"><ele>283.3333333333333</ele><time>2026-04-20T13:16:35.999Z</time></trkpt><trkpt lat="49.11434837601507" lon="6.348916831625959"><ele>283.0</ele><time>2026-04-20T13:16:36.999Z</time></trkpt><trkpt lat="49.11430167711492" lon="6.3491314473568545"><ele>282.75</ele><time>2026-04-20T13:16:37.999Z</time></trkpt><trkpt lat="49.11425279210819" lon="6.349342032753272"><ele>282.5</ele><time>2026-04-20T13:16:38.999Z</time></trkpt><trkpt lat="49.11420261716681" lon="6.349551646637821"><ele>282.25</ele><time>2026-04-20T13:16:39.999Z</time></trkpt><trkpt lat="49.11415598358413" lon="6.349767418062028"><ele>282.0</ele><time>2026-04-20T13:16:40.999Z</time></trkpt><trkpt lat="49.11410677319768" lon="6.349984332194553"><ele>282.5</ele><time>2026-04-20T13:16:41.999Z</time></trkpt><trkpt lat="49.114057259882344" lon="6.350193835662672"><ele>283.0</ele><time>2026-04-20T13:16:42.999Z</time></trkpt><trkpt lat="49.11400855827212" lon="6.350403113539213"><ele>283.5</ele><time>2026-04-20T13:16:43.999Z</time></trkpt><trkpt lat="49.113958951947794" lon="6.350619891494242"><ele>284.0</ele><time>2026-04-20T13:16:44.999Z</time></trkpt><trkpt lat="49.11391652898174" lon="6.350833674090173"><ele>284.5</ele><time>2026-04-20T13:16:45.999Z</time></trkpt><trkpt lat="49.11387675874688" lon="6.3510497751183825"><ele>285.0</ele><time>2026-04-20T13:16:46.999Z</time></trkpt><trkpt lat="49.11384716456447" lon="6.351263031132957"><ele>285.5</ele><time>2026-04-20T13:16:47.999Z</time></trkpt><trkpt lat="49.11382542523396" lon="6.351477615766689"><ele>286.0</ele><time>2026-04-20T13:16:48.999Z</time></trkpt><trkpt lat="49.1138171706829" lon="6.351693351737403"><ele>286.25</ele><time>2026-04-20T13:16:49.999Z</time></trkpt><trkpt lat="49.113818595700536" lon="6.351910541823685"><ele>286.5</ele><time>2026-04-20T13:16:50.999Z</time></trkpt><trkpt lat="49.11383314748142" lon="6.352120898826243"><ele>286.75</ele><time>2026-04-20T13:16:51.999Z</time></trkpt><trkpt lat="49.11385667953101" lon="6.3523337728014555"><ele>287.0</ele><time>2026-04-20T13:16:52.999Z</time></trkpt><trkpt lat="49.11388643615424" lon="6.352546047240622"><ele>287.25</ele><time>2026-04-20T13:16:53.999Z</time></trkpt><trkpt lat="49.11392264020684" lon="6.352761785581582"><ele>287.5</ele><time>2026-04-20T13:16:54.999Z</time></trkpt><trkpt lat="49.113964830562495" lon="6.352962394508039"><ele>287.75</ele><time>2026-04-20T13:16:55.999Z</time></trkpt><trkpt lat="49.11401245976244" lon="6.35316790494317"><ele>288.0</ele><time>2026-04-20T13:16:56.999Z</time></trkpt><trkpt lat="49.11405744504017" lon="6.3533650437132065"><ele>286.25</ele><time>2026-04-20T13:16:57.999Z</time></trkpt><trkpt lat="49.114094364489524" lon="6.353572150131145"><ele>284.5</ele><time>2026-04-20T13:16:58.999Z</time></trkpt><trkpt lat="49.1141295527972" lon="6.353769950088624"><ele>282.75</ele><time>2026-04-20T13:16:59.999Z</time></trkpt><trkpt lat="49.11417189931251" lon="6.353967361360906"><ele>281.0</ele><time>2026-04-20T13:17:00.999Z</time></trkpt><trkpt lat="49.114217775019426" lon="6.3541645044802175"><ele>280.75</ele><time>2026-04-20T13:17:01.999Z</time></trkpt><trkpt lat="49.114257082024665" lon="6.354355121891869"><ele>280.5</ele><time>2026-04-20T13:17:02.999Z</time></trkpt><trkpt lat="49.11429934212921" lon="6.3545521625454"><ele>280.25</ele><time>2026-04-20T13:17:03.999Z</time></trkpt><trkpt lat="49.11434225885051" lon="6.354752999342519"><ele>280.0</ele><time>2026-04-20T13:17:04.999Z</time></trkpt><trkpt lat="49.11438649686396" lon="6.354951928716709"><ele>279.75</ele><time>2026-04-20T13:17:05.999Z</time></trkpt><trkpt lat="49.11442865910833" lon="6.3551440496401534"><ele>279.5</ele><time>2026-04-20T13:17:06.999Z</time></trkpt><trkpt lat="49.11447172644392" lon="6.355340793754928"><ele>279.25</ele><time>2026-04-20T13:17:07.999Z</time></trkpt><trkpt lat="49.114517642498186" lon="6.355540587816374"><ele>279.0</ele><time>2026-04-20T13:17:08.999Z</time></trkpt><trkpt lat="49.114557869963605" lon="6.355740154322351"><ele>279.5</ele><time>2026-04-20T13:17:09.999Z</time></trkpt><trkpt lat="49.11459622020731" lon="6.355936062373972"><ele>280.0</ele><time>2026-04-20T13:17:10.999Z</time></trkpt><trkpt lat="49.11463624258838" lon="6.356134853397127"><ele>280.5</ele><time>2026-04-20T13:17:11.999Z</time></trkpt><trkpt lat="49.11467974267519" lon="6.356332521770353"><ele>281.0</ele><time>2026-04-20T13:17:12.999Z</time></trkpt><trkpt lat="49.114721777424016" lon="6.356524496285396"><ele>281.0</ele><time>2026-04-20T13:17:13.999Z</time></trkpt><trkpt lat="49.11476138149847" lon="6.356709288026929"><ele>281.0</ele><time>2026-04-20T13:17:14.999Z</time></trkpt><trkpt lat="49.11480165973711" lon="6.356897880549889"><ele>281.0</ele><time>2026-04-20T13:17:15.999Z</time></trkpt><trkpt lat="49.114841958255354" lon="6.357087873451324"><ele>281.0</ele><time>2026-04-20T13:17:16.999Z</time></trkpt><trkpt lat="49.11488301195699" lon="6.357278456159761"><ele>278.25</ele><time>2026-04-20T13:17:17.999Z</time></trkpt><trkpt lat="49.114923478316165" lon="6.357463509462868"><ele>275.5</ele><time>2026-04-20T13:17:18.999Z</time></trkpt><trkpt lat="49.11496498503895" lon="6.357655202161123"><ele>272.75</ele><time>2026-04-20T13:17:19.999Z</time></trkpt><trkpt lat="49.11500462106918" lon="6.357846934367147"><ele>270.0</ele><time>2026-04-20T13:17:20.999Z</time></trkpt><trkpt lat="49.115045554663716" lon="6.358043611356759"><ele>269.75</ele><time>2026-04-20T13:17:21.999Z</time></trkpt><trkpt lat="49.11508935233408" lon="6.358239508715174"><ele>269.5</ele><time>2026-04-20T13:17:22.999Z</time></trkpt><trkpt lat="49.115129583032825" lon="6.358429100167583"><ele>269.25</ele><time>2026-04-20T13:17:23.999Z</time></trkpt><trkpt lat="49.11516991950021" lon="6.3586202534475085"><ele>269.0</ele><time>2026-04-20T13:17:24.999Z</time></trkpt><trkpt lat="49.115209649518995" lon="6.358809726763375"><ele>268.0</ele><time>2026-04-20T13:17:25.999Z</time></trkpt><trkpt lat="49.115250402133476" lon="6.359002623352768"><ele>267.0</ele><time>2026-04-20T13:17:26.999Z</time></trkpt><trkpt lat="49.11528916883592" lon="6.3591898377702245"><ele>266.0</ele><time>2026-04-20T13:17:27.999Z</time></trkpt><trkpt lat="49.11533074170853" lon="6.359384858266053"><ele>265.0</ele><time>2026-04-20T13:17:28.999Z</time></trkpt><trkpt lat="49.11537286988863" lon="6.359576243543153"><ele>263.5</ele><time>2026-04-20T13:17:29.999Z</time></trkpt><trkpt lat="49.11541293600474" lon="6.359766640918511"><ele>262.0</ele><time>2026-04-20T13:17:30.999Z</time></trkpt><trkpt lat="49.11545410469727" lon="6.359957771207955"><ele>260.5</ele><time>2026-04-20T13:17:31.999Z</time></trkpt><trkpt lat="49.11549654350692" lon="6.360150392248811"><ele>259.0</ele><time>2026-04-20T13:17:32.999Z</time></trkpt><trkpt lat="49.11554032036205" lon="6.360343060995243"><ele>257.0</ele><time>2026-04-20T13:17:33.999Z</time></trkpt><trkpt lat="49.1155813388093" lon="6.3605407101055995"><ele>255.0</ele><time>2026-04-20T13:17:34.999Z</time></trkpt><trkpt lat="49.11562150269545" lon="6.360742565197249"><ele>253.0</ele><time>2026-04-20T13:17:35.999Z</time></trkpt><trkpt lat="49.115659282695916" lon="6.3609401015151645"><ele>251.0</ele><time>2026-04-20T13:17:36.999Z</time></trkpt><trkpt lat="49.11569475437" lon="6.361143784873017"><ele>251.0</ele><time>2026-04-20T13:17:37.999Z</time></trkpt><trkpt lat="49.11573322348005" lon="6.361345673400265"><ele>251.0</ele><time>2026-04-20T13:17:38.999Z</time></trkpt><trkpt lat="49.11577212289296" lon="6.361544832841605"><ele>251.0</ele><time>2026-04-20T13:17:39.999Z</time></trkpt><trkpt lat="49.11581534471165" lon="6.3617421091359825"><ele>251.0</ele><time>2026-04-20T13:17:40.999Z</time></trkpt><trkpt lat="49.115854334500774" lon="6.361949659018048"><ele>251.5</ele><time>2026-04-20T13:17:41.999Z</time></trkpt><trkpt lat="49.11588881450963" lon="6.362152440234085"><ele>252.0</ele><time>2026-04-20T13:17:42.999Z</time></trkpt><trkpt lat="49.1159164781668" lon="6.362353565868783"><ele>252.5</ele><time>2026-04-20T13:17:43.999Z</time></trkpt><trkpt lat="49.11593406732129" lon="6.36256527474441"><ele>253.0</ele><time>2026-04-20T13:17:44.999Z</time></trkpt><trkpt lat="49.115947247506696" lon="6.362781484784816"><ele>251.75</ele><time>2026-04-20T13:17:46Z</time></trkpt><trkpt lat="49.11594932591437" lon="6.362999785140523"><ele>250.5</ele><time>2026-04-20T13:17:47Z</time></trkpt><trkpt lat="49.115945743121166" lon="6.363224672954261"><ele>249.25</ele><time>2026-04-20T13:17:48Z</time></trkpt><trkpt lat="49.115932540470844" lon="6.363447092317742"><ele>248.0</ele><time>2026-04-20T13:17:49Z</time></trkpt><trkpt lat="49.11590831573406" lon="6.363658886138599"><ele>246.75</ele><time>2026-04-20T13:17:50Z</time></trkpt><trkpt lat="49.11586132663937" lon="6.363870353977862"><ele>245.5</ele><time>2026-04-20T13:17:51Z</time></trkpt><trkpt lat="49.115810204685324" lon="6.364073250896553"><ele>244.25</ele><time>2026-04-20T13:17:52Z</time></trkpt><trkpt lat="49.11574892384638" lon="6.364266408762404"><ele>243.0</ele><time>2026-04-20T13:17:53Z</time></trkpt><trkpt lat="49.11568071687194" lon="6.3644602548679075"><ele>242.0</ele><time>2026-04-20T13:17:54Z</time></trkpt><trkpt lat="49.11560821717024" lon="6.364654745563926"><ele>241.0</ele><time>2026-04-20T13:17:55Z</time></trkpt><trkpt lat="49.11553054499091" lon="6.364851649266764"><ele>240.0</ele><time>2026-04-20T13:17:56Z</time></trkpt><trkpt lat="49.11545226371336" lon="6.365045330718367"><ele>239.0</ele><time>2026-04-20T13:17:57Z</time></trkpt><trkpt lat="49.11537122272853" lon="6.365236726796588"><ele>239.0</ele><time>2026-04-20T13:17:58Z</time></trkpt><trkpt lat="49.115293360030314" lon="6.365424863571572"><ele>239.0</ele><time>2026-04-20T13:17:59Z</time></trkpt><trkpt lat="49.115213937715744" lon="6.365614115285034"><ele>239.0</ele><time>2026-04-20T13:18:00Z</time></trkpt><trkpt lat="49.115136891193366" lon="6.365801413876116"><ele>239.0</ele><time>2026-04-20T13:18:01Z</time></trkpt><trkpt lat="49.11505914041889" lon="6.365986705553794"><ele>238.5</ele><time>2026-04-20T13:18:02Z</time></trkpt><trkpt lat="49.11498278787654" lon="6.366171462272664"><ele>238.0</ele><time>2026-04-20T13:18:03Z</time></trkpt><trkpt lat="49.11490442333272" lon="6.366359352792432"><ele>237.5</ele><time>2026-04-20T13:18:04Z</time></trkpt><trkpt lat="49.11482579165002" lon="6.366548022262272"><ele>237.0</ele><time>2026-04-20T13:18:05Z</time></trkpt><trkpt lat="49.11474825953499" lon="6.366734501816174"><ele>235.0</ele><time>2026-04-20T13:18:06Z</time></trkpt><trkpt lat="49.11467077678629" lon="6.366922467326879"><ele>233.0</ele><time>2026-04-20T13:18:07Z</time></trkpt><trkpt lat="49.114591378569216" lon="6.3671127404488"><ele>231.0</ele><time>2026-04-20T13:18:08Z</time></trkpt><trkpt lat="49.114514170488334" lon="6.367300330538256"><ele>229.0</ele><time>2026-04-20T13:18:09Z</time></trkpt><trkpt lat="49.114433281719016" lon="6.3674900067290325"><ele>229.0</ele><time>2026-04-20T13:18:10Z</time></trkpt><trkpt lat="49.11435476163238" lon="6.3676795638161545"><ele>229.0</ele><time>2026-04-20T13:18:11Z</time></trkpt><trkpt lat="49.114278526551765" lon="6.367863263459374"><ele>229.0</ele><time>2026-04-20T13:18:12Z</time></trkpt><trkpt lat="49.11420329552422" lon="6.368048053765133"><ele>229.0</ele><time>2026-04-20T13:18:13Z</time></trkpt><trkpt lat="49.11412806991047" lon="6.368231988156193"><ele>228.25</ele><time>2026-04-20T13:18:14Z</time></trkpt><trkpt lat="49.114052028008885" lon="6.3684203129413515"><ele>227.5</ele><time>2026-04-20T13:18:15Z</time></trkpt><trkpt lat="49.11397855184307" lon="6.368603138374639"><ele>226.75</ele><time>2026-04-20T13:18:16Z</time></trkpt><trkpt lat="49.11390663135107" lon="6.368778510911302"><ele>226.0</ele><time>2026-04-20T13:18:17Z</time></trkpt><trkpt lat="49.11383345545734" lon="6.368951992096413"><ele>225.5</ele><time>2026-04-20T13:18:18Z</time></trkpt><trkpt lat="49.11376369790174" lon="6.3691265874762735"><ele>225.0</ele><time>2026-04-20T13:18:19Z</time></trkpt><trkpt lat="49.113696667449084" lon="6.369303874494133"><ele>224.5</ele><time>2026-04-20T13:18:20Z</time></trkpt><trkpt lat="49.1136291610024" lon="6.369481514134617"><ele>224.0</ele><time>2026-04-20T13:18:21Z</time></trkpt><trkpt lat="49.11355806194532" lon="6.36965667525866"><ele>224.0</ele><time>2026-04-20T13:18:22Z</time></trkpt><trkpt lat="49.11348285474001" lon="6.369830299079849"><ele>224.0</ele><time>2026-04-20T13:18:23Z</time></trkpt><trkpt lat="49.11340684451143" lon="6.370008366881894"><ele>224.0</ele><time>2026-04-20T13:18:24Z</time></trkpt><trkpt lat="49.11333144076204" lon="6.370188166895258"><ele>224.0</ele><time>2026-04-20T13:18:25Z</time></trkpt><trkpt lat="49.11325605042775" lon="6.370369841721673"><ele>223.5</ele><time>2026-04-20T13:18:26Z</time></trkpt><trkpt lat="49.113178531967634" lon="6.370552954019507"><ele>223.0</ele><time>2026-04-20T13:18:27Z</time></trkpt><trkpt lat="49.11310102464435" lon="6.370726451554395"><ele>222.5</ele><time>2026-04-20T13:18:28Z</time></trkpt><trkpt lat="49.11302384239485" lon="6.370909246588307"><ele>222.0</ele><time>2026-04-20T13:18:29Z</time></trkpt><trkpt lat="49.11294863091155" lon="6.371093731302802"><ele>222.0</ele><time>2026-04-20T13:18:30Z</time></trkpt><trkpt lat="49.11287569390835" lon="6.371276518365143"><ele>222.0</ele><time>2026-04-20T13:18:31Z</time></trkpt><trkpt lat="49.11280008080786" lon="6.371459954452611"><ele>222.0</ele><time>2026-04-20T13:18:32Z</time></trkpt><trkpt lat="49.11272368343277" lon="6.371642915433233"><ele>222.0</ele><time>2026-04-20T13:18:33Z</time></trkpt><trkpt lat="49.11265319576911" lon="6.371823326760159"><ele>222.0</ele><time>2026-04-20T13:18:34Z</time></trkpt><trkpt lat="49.112576301440285" lon="6.372007427988621"><ele>222.0</ele><time>2026-04-20T13:18:35Z</time></trkpt><trkpt lat="49.112498507344625" lon="6.372194232925317"><ele>222.0</ele><time>2026-04-20T13:18:36Z</time></trkpt><trkpt lat="49.112421324266876" lon="6.372380826972789"><ele>222.0</ele><time>2026-04-20T13:18:37Z</time></trkpt><trkpt lat="49.11234412776272" lon="6.372563915794539"><ele>223.75</ele><time>2026-04-20T13:18:38Z</time></trkpt><trkpt lat="49.11226796099654" lon="6.372751867095451"><ele>225.5</ele><time>2026-04-20T13:18:38.999Z</time></trkpt><trkpt lat="49.11219435935398" lon="6.372942175262377"><ele>227.25</ele><time>2026-04-20T13:18:39.999Z</time></trkpt><trkpt lat="49.11211590801044" lon="6.373126342418113"><ele>229.0</ele><time>2026-04-20T13:18:40.999Z</time></trkpt><trkpt lat="49.112037378231925" lon="6.373315460687996"><ele>229.5</ele><time>2026-04-20T13:18:41.999Z</time></trkpt><trkpt lat="49.11196078292256" lon="6.3735058775480296"><ele>230.0</ele><time>2026-04-20T13:18:42.999Z</time></trkpt><trkpt lat="49.111882391162304" lon="6.373688583717826"><ele>230.5</ele><time>2026-04-20T13:18:43.999Z</time></trkpt><trkpt lat="49.11180356691572" lon="6.3738710259691125"><ele>231.0</ele><time>2026-04-20T13:18:44.999Z</time></trkpt><trkpt lat="49.11172370057774" lon="6.374063094513322"><ele>231.25</ele><time>2026-04-20T13:18:45.999Z</time></trkpt><trkpt lat="49.111643495250085" lon="6.374249773923352"><ele>231.5</ele><time>2026-04-20T13:18:46.999Z</time></trkpt><trkpt lat="49.11156540263311" lon="6.374428677983421"><ele>231.75</ele><time>2026-04-20T13:18:47.999Z</time></trkpt><trkpt lat="49.11149046116103" lon="6.374605816602043"><ele>232.0</ele><time>2026-04-20T13:18:48.999Z</time></trkpt><trkpt lat="49.11141450649685" lon="6.374785714931162"><ele>231.5</ele><time>2026-04-20T13:18:49.999Z</time></trkpt><trkpt lat="49.11134247154476" lon="6.3749611419637295"><ele>231.0</ele><time>2026-04-20T13:18:50.999Z</time></trkpt><trkpt lat="49.1112696632342" lon="6.3751451126309915"><ele>230.5</ele><time>2026-04-20T13:18:51.999Z</time></trkpt><trkpt lat="49.11119617521468" lon="6.375328700434176"><ele>230.0</ele><time>2026-04-20T13:18:52.999Z</time></trkpt><trkpt lat="49.111123501038406" lon="6.37550836630638"><ele>230.0</ele><time>2026-04-20T13:18:53.999Z</time></trkpt><trkpt lat="49.11104769633164" lon="6.375687683453987"><ele>230.0</ele><time>2026-04-20T13:18:54.999Z</time></trkpt><trkpt lat="49.11097019906628" lon="6.375866940007851"><ele>230.0</ele><time>2026-04-20T13:18:55.999Z</time></trkpt><trkpt lat="49.11089628796929" lon="6.376046091186306"><ele>230.0</ele><time>2026-04-20T13:18:56.999Z</time></trkpt><trkpt lat="49.1108231003237" lon="6.37622937350728"><ele>230.0</ele><time>2026-04-20T13:18:57.999Z</time></trkpt><trkpt lat="49.110748945467265" lon="6.376405971100848"><ele>230.0</ele><time>2026-04-20T13:18:58.999Z</time></trkpt><trkpt lat="49.110676694918524" lon="6.376581743767205"><ele>230.0</ele><time>2026-04-20T13:18:59.999Z</time></trkpt><trkpt lat="49.11060344061508" lon="6.3767564990874135"><ele>230.0</ele><time>2026-04-20T13:19:00.999Z</time></trkpt><trkpt lat="49.11052929278527" lon="6.376932700397843"><ele>229.5</ele><time>2026-04-20T13:19:01.999Z</time></trkpt><trkpt lat="49.110455525076155" lon="6.377111729212847"><ele>229.0</ele><time>2026-04-20T13:19:02.999Z</time></trkpt><trkpt lat="49.11037962565112" lon="6.3772857556544205"><ele>228.5</ele><time>2026-04-20T13:19:03.999Z</time></trkpt><trkpt lat="49.11030455760242" lon="6.377462159851119"><ele>228.0</ele><time>2026-04-20T13:19:04.999Z</time></trkpt><trkpt lat="49.110229437759635" lon="6.377635531787546"><ele>227.5</ele><time>2026-04-20T13:19:05.999Z</time></trkpt><trkpt lat="49.11015942540521" lon="6.377807960277644"><ele>227.0</ele><time>2026-04-20T13:19:06.999Z</time></trkpt><trkpt lat="49.11008943018464" lon="6.377973390518632"><ele>226.5</ele><time>2026-04-20T13:19:07.999Z</time></trkpt><trkpt lat="49.110019497594955" lon="6.378144104733779"><ele>226.0</ele><time>2026-04-20T13:19:08.999Z</time></trkpt><trkpt lat="49.109950319351306" lon="6.3783220194927965"><ele>225.5</ele><time>2026-04-20T13:19:09.999Z</time></trkpt><trkpt lat="49.10988006575346" lon="6.37849886090407"><ele>225.0</ele><time>2026-04-20T13:19:10.999Z</time></trkpt><trkpt lat="49.1098063013554" lon="6.378668350783492"><ele>224.5</ele><time>2026-04-20T13:19:11.999Z</time></trkpt><trkpt lat="49.10973243677676" lon="6.378841521963333"><ele>224.0</ele><time>2026-04-20T13:19:12.999Z</time></trkpt><trkpt lat="49.10966195613324" lon="6.379013599358399"><ele>223.5</ele><time>2026-04-20T13:19:13.999Z</time></trkpt><trkpt lat="49.10958932801567" lon="6.379183746858081"><ele>223.0</ele><time>2026-04-20T13:19:14.999Z</time></trkpt><trkpt lat="49.10951726775622" lon="6.379349276912709"><ele>222.5</ele><time>2026-04-20T13:19:15.999Z</time></trkpt><trkpt lat="49.109446634523806" lon="6.379513422100897"><ele>222.0</ele><time>2026-04-20T13:19:16.999Z</time></trkpt><trkpt lat="49.109381335870566" lon="6.379672195807044"><ele>221.5</ele><time>2026-04-20T13:19:17.999Z</time></trkpt><trkpt lat="49.10931613726092" lon="6.379824647203418"><ele>221.0</ele><time>2026-04-20T13:19:18.999Z</time></trkpt><trkpt lat="49.109254184510995" lon="6.379972836557063"><ele>220.5</ele><time>2026-04-20T13:19:19.999Z</time></trkpt><trkpt lat="49.1091922129191" lon="6.380120410978549"><ele>220.0</ele><time>2026-04-20T13:19:20.999Z</time></trkpt><trkpt lat="49.109127959608735" lon="6.380273090722022"><ele>219.75</ele><time>2026-04-20T13:19:21.999Z</time></trkpt><trkpt lat="49.10906386175865" lon="6.380427344477578"><ele>219.5</ele><time>2026-04-20T13:19:22.999Z</time></trkpt><trkpt lat="49.109000231978186" lon="6.380586605437707"><ele>219.25</ele><time>2026-04-20T13:19:23.999Z</time></trkpt><trkpt lat="49.10892965188251" lon="6.380757606926575"><ele>219.0</ele><time>2026-04-20T13:19:24.999Z</time></trkpt><trkpt lat="49.10885725088887" lon="6.380931865630265"><ele>218.75</ele><time>2026-04-20T13:19:25.999Z</time></trkpt><trkpt lat="49.108781817773846" lon="6.381114152052116"><ele>218.5</ele><time>2026-04-20T13:19:26.999Z</time></trkpt><trkpt lat="49.108708280712115" lon="6.381297129105362"><ele>218.25</ele><time>2026-04-20T13:19:27.999Z</time></trkpt><trkpt lat="49.108648731904076" lon="6.381477653965566"><ele>218.0</ele><time>2026-04-20T13:19:28.999Z</time></trkpt><trkpt lat="49.108600299927325" lon="6.381671955743504"><ele>218.0</ele><time>2026-04-20T13:19:29.999Z</time></trkpt><trkpt lat="49.108569084834166" lon="6.381869034621906"><ele>218.0</ele><time>2026-04-20T13:19:30.999Z</time></trkpt><trkpt lat="49.108554637555976" lon="6.382068673117979"><ele>218.0</ele><time>2026-04-20T13:19:31.999Z</time></trkpt><trkpt lat="49.10855466789249" lon="6.382269351767932"><ele>218.0</ele><time>2026-04-20T13:19:32.999Z</time></trkpt><trkpt lat="49.10856003839326" lon="6.382474551149084"><ele>217.75</ele><time>2026-04-20T13:19:33.999Z</time></trkpt><trkpt lat="49.10856352539559" lon="6.382671033314936"><ele>217.5</ele><time>2026-04-20T13:19:34.999Z</time></trkpt><trkpt lat="49.10856067422811" lon="6.382848863797149"><ele>217.25</ele><time>2026-04-20T13:19:35.999Z</time></trkpt><trkpt lat="49.108560256382525" lon="6.383018311731131"><ele>217.0</ele><time>2026-04-20T13:19:36.999Z</time></trkpt><trkpt lat="49.10857417656371" lon="6.38319872450156"><ele>216.5</ele><time>2026-04-20T13:19:37.999Z</time></trkpt><trkpt lat="49.10858715585746" lon="6.383384243267647"><ele>216.0</ele><time>2026-04-20T13:19:38.999Z</time></trkpt><trkpt lat="49.10859730386729" lon="6.38357380546738"><ele>215.5</ele><time>2026-04-20T13:19:39.999Z</time></trkpt><trkpt lat="49.10860807411301" lon="6.383762545900866"><ele>215.0</ele><time>2026-04-20T13:19:40.999Z</time></trkpt><trkpt lat="49.1086167642747" lon="6.383951192519276"><ele>214.75</ele><time>2026-04-20T13:19:41.999Z</time></trkpt><trkpt lat="49.108622029486874" lon="6.384143967830905"><ele>214.5</ele><time>2026-04-20T13:19:42.999Z</time></trkpt><trkpt lat="49.10862339414846" lon="6.3843377976656415"><ele>214.25</ele><time>2026-04-20T13:19:43.999Z</time></trkpt><trkpt lat="49.10862666981856" lon="6.384533438904179"><ele>214.0</ele><time>2026-04-20T13:19:44.999Z</time></trkpt><trkpt lat="49.10863437307636" lon="6.384724617972088"><ele>214.0</ele><time>2026-04-20T13:19:45.999Z</time></trkpt><trkpt lat="49.108638861118884" lon="6.384923052927424"><ele>214.0</ele><time>2026-04-20T13:19:46.999Z</time></trkpt><trkpt lat="49.10864574210419" lon="6.38512136326329"><ele>214.0</ele><time>2026-04-20T13:19:47.999Z</time></trkpt><trkpt lat="49.108652287934305" lon="6.385308555441615"><ele>214.0</ele><time>2026-04-20T13:19:48.999Z</time></trkpt><trkpt lat="49.10865573689897" lon="6.385502828260668"><ele>214.25</ele><time>2026-04-20T13:19:49.999Z</time></trkpt><trkpt lat="49.10866303793846" lon="6.385700197106876"><ele>214.5</ele><time>2026-04-20T13:19:50.999Z</time></trkpt><trkpt lat="49.10866689947088" lon="6.385903226895525"><ele>214.75</ele><time>2026-04-20T13:19:52Z</time></trkpt><trkpt lat="49.10868184016311" lon="6.386112510107012"><ele>215.0</ele><time>2026-04-20T13:19:53Z</time></trkpt><trkpt lat="49.10868478234142" lon="6.386317000034452"><ele>214.0</ele><time>2026-04-20T13:19:54Z</time></trkpt><trkpt lat="49.10868490437218" lon="6.386525525374415"><ele>213.0</ele><time>2026-04-20T13:19:55Z</time></trkpt><trkpt lat="49.10868662236809" lon="6.386738820450182"><ele>212.0</ele><time>2026-04-20T13:19:56Z</time></trkpt><trkpt lat="49.10869034260804" lon="6.386944329409712"><ele>211.0</ele><time>2026-04-20T13:19:57Z</time></trkpt><trkpt lat="49.108693740662396" lon="6.387140871828627"><ele>210.5</ele><time>2026-04-20T13:19:58Z</time></trkpt><trkpt lat="49.10869886916071" lon="6.387347723328726"><ele>210.0</ele><time>2026-04-20T13:19:59Z</time></trkpt><trkpt lat="49.10870659318042" lon="6.387557466891177"><ele>209.5</ele><time>2026-04-20T13:20:00Z</time></trkpt><trkpt lat="49.10871234339985" lon="6.387765772435111"><ele>209.0</ele><time>2026-04-20T13:20:01Z</time></trkpt><trkpt lat="49.10871752034178" lon="6.38799147656018"><ele>209.0</ele><time>2026-04-20T13:20:02Z</time></trkpt><trkpt lat="49.10872405528681" lon="6.388212993500655"><ele>209.0</ele><time>2026-04-20T13:20:03Z</time></trkpt><trkpt lat="49.108728539662316" lon="6.388423431950347"><ele>209.0</ele><time>2026-04-20T13:20:04Z</time></trkpt><trkpt lat="49.10873184623576" lon="6.388638185434258"><ele>209.0</ele><time>2026-04-20T13:20:05Z</time></trkpt><trkpt lat="49.108736826129764" lon="6.388854123984257"><ele>209.0</ele><time>2026-04-20T13:20:06Z</time></trkpt><trkpt lat="49.10874083426357" lon="6.389068333780877"><ele>209.0</ele><time>2026-04-20T13:20:07Z</time></trkpt><trkpt lat="49.10874655679052" lon="6.389280472214264"><ele>209.0</ele><time>2026-04-20T13:20:08Z</time></trkpt><trkpt lat="49.10875536705976" lon="6.389484286563496"><ele>209.0</ele><time>2026-04-20T13:20:09Z</time></trkpt><trkpt lat="49.10876207949036" lon="6.389688870811682"><ele>209.0</ele><time>2026-04-20T13:20:10Z</time></trkpt><trkpt lat="49.10876841642651" lon="6.389885184074841"><ele>209.0</ele><time>2026-04-20T13:20:11Z</time></trkpt><trkpt lat="49.10877366259961" lon="6.390087784462438"><ele>209.0</ele><time>2026-04-20T13:20:12Z</time></trkpt><trkpt lat="49.1087748783327" lon="6.390287630892923"><ele>209.0</ele><time>2026-04-20T13:20:13Z</time></trkpt><trkpt lat="49.10878204935784" lon="6.390475261032027"><ele>209.25</ele><time>2026-04-20T13:20:14Z</time></trkpt><trkpt lat="49.10878684779478" lon="6.390666681786967"><ele>209.5</ele><time>2026-04-20T13:20:15Z</time></trkpt><trkpt lat="49.108791053759575" lon="6.390850454861366"><ele>209.75</ele><time>2026-04-20T13:20:16Z</time></trkpt><trkpt lat="49.10879417562361" lon="6.3910395505157105"><ele>210.0</ele><time>2026-04-20T13:20:17Z</time></trkpt><trkpt lat="49.10879765184319" lon="6.391224443296205"><ele>210.2</ele><time>2026-04-20T13:20:18Z</time></trkpt><trkpt lat="49.10880145774781" lon="6.391399477174005"><ele>210.4</ele><time>2026-04-20T13:20:19Z</time></trkpt><trkpt lat="49.1088084387682" lon="6.39155815329612"><ele>210.60000000000002</ele><time>2026-04-20T13:20:20Z</time></trkpt><trkpt lat="49.10881170022731" lon="6.391685789779029"><ele>210.8</ele><time>2026-04-20T13:20:21Z</time></trkpt><trkpt lat="49.108814827647166" lon="6.391786744009"><ele>211.0</ele><time>2026-04-20T13:20:22Z</time></trkpt><trkpt lat="49.10881518079636" lon="6.391960798045762"><ele>211.0</ele><time>2026-04-20T13:20:24Z</time></trkpt><trkpt lat="49.10878369687092" lon="6.392157370247377"><ele>211.0</ele><time>2026-04-20T13:20:26Z</time></trkpt><trkpt lat="49.10874954526382" lon="6.392267675362626"><ele>211.0</ele><time>2026-04-20T13:20:27Z</time></trkpt><trkpt lat="49.10874626515643" lon="6.392404561696334"><ele>211.0</ele><time>2026-04-20T13:20:28Z</time></trkpt><trkpt lat="49.10877329665583" lon="6.392538146210161"><ele>211.0</ele><time>2026-04-20T13:20:29Z</time></trkpt><trkpt lat="49.10881297149067" lon="6.392666210064654"><ele>211.60000000000002</ele><time>2026-04-20T13:20:30Z</time></trkpt><trkpt lat="49.108832987577316" lon="6.392795656078935"><ele>212.2</ele><time>2026-04-20T13:20:31Z</time></trkpt><trkpt lat="49.10883958200246" lon="6.3929237683971065"><ele>212.79999999999998</ele><time>2026-04-20T13:20:32Z</time></trkpt><trkpt lat="49.10883791144947" lon="6.393064570580653"><ele>213.39999999999998</ele><time>2026-04-20T13:20:33Z</time></trkpt><trkpt lat="49.108837714454545" lon="6.39321131228138"><ele>214.0</ele><time>2026-04-20T13:20:34Z</time></trkpt><trkpt lat="49.108845366430444" lon="6.393361477680332"><ele>214.39999999999998</ele><time>2026-04-20T13:20:35Z</time></trkpt><trkpt lat="49.10884884010749" lon="6.393519123857094"><ele>214.79999999999998</ele><time>2026-04-20T13:20:36Z</time></trkpt><trkpt lat="49.10885002843483" lon="6.393679917945098"><ele>215.20000000000002</ele><time>2026-04-20T13:20:37Z</time></trkpt><trkpt lat="49.1088521213594" lon="6.393845720251022"><ele>215.60000000000002</ele><time>2026-04-20T13:20:38Z</time></trkpt><trkpt lat="49.1088552242214" lon="6.393978143935797"><ele>216.0</ele><time>2026-04-20T13:20:39Z</time></trkpt><trkpt lat="49.108853706823346" lon="6.394083224126021"><ele>216.5</ele><time>2026-04-20T13:20:40Z</time></trkpt><trkpt lat="49.10885620212832" lon="6.39418436604799"><ele>217.0</ele><time>2026-04-20T13:20:40.999Z</time></trkpt><trkpt lat="49.10885845137236" lon="6.394298125385705"><ele>217.5</ele><time>2026-04-20T13:20:41.999Z</time></trkpt><trkpt lat="49.108862272145075" lon="6.394429317011269"><ele>218.0</ele><time>2026-04-20T13:20:42.999Z</time></trkpt><trkpt lat="49.108872147749814" lon="6.394571615500018"><ele>218.5</ele><time>2026-04-20T13:20:43.999Z</time></trkpt><trkpt lat="49.10887530911226" lon="6.394732044161223"><ele>219.0</ele><time>2026-04-20T13:20:44.999Z</time></trkpt><trkpt lat="49.10887926148289" lon="6.394907121389505"><ele>219.5</ele><time>2026-04-20T13:20:45.999Z</time></trkpt><trkpt lat="49.10888589585987" lon="6.395090111019903"><ele>220.0</ele><time>2026-04-20T13:20:46.999Z</time></trkpt><trkpt lat="49.10889231635152" lon="6.395285037535664"><ele>220.5</ele><time>2026-04-20T13:20:47.999Z</time></trkpt><trkpt lat="49.10889930282602" lon="6.395470455588389"><ele>221.0</ele><time>2026-04-20T13:20:48.999Z</time></trkpt><trkpt lat="49.10890156783599" lon="6.395663192415211"><ele>221.0</ele><time>2026-04-20T13:20:49.999Z</time></trkpt><trkpt lat="49.10890588112696" lon="6.395867889658154"><ele>221.0</ele><time>2026-04-20T13:20:50.999Z</time></trkpt><trkpt lat="49.10891206051091" lon="6.396057864471135"><ele>221.0</ele><time>2026-04-20T13:20:51.999Z</time></trkpt><trkpt lat="49.10891343939542" lon="6.3962495195766635"><ele>221.0</ele><time>2026-04-20T13:20:52.999Z</time></trkpt><trkpt lat="49.108918446402285" lon="6.396446393182914"><ele>221.75</ele><time>2026-04-20T13:20:53.999Z</time></trkpt><trkpt lat="49.10892416929133" lon="6.3966332970619355"><ele>222.5</ele><time>2026-04-20T13:20:54.999Z</time></trkpt><trkpt lat="49.108927830143294" lon="6.396830755210028"><ele>223.25</ele><time>2026-04-20T13:20:55.999Z</time></trkpt><trkpt lat="49.108934006493186" lon="6.397025766439725"><ele>224.0</ele><time>2026-04-20T13:20:56.999Z</time></trkpt><trkpt lat="49.108940212707964" lon="6.39722390368019"><ele>224.75</ele><time>2026-04-20T13:20:57.999Z</time></trkpt><trkpt lat="49.10894168388628" lon="6.39742697312722"><ele>225.5</ele><time>2026-04-20T13:20:58.999Z</time></trkpt><trkpt lat="49.10894703611987" lon="6.397616919707423"><ele>226.25</ele><time>2026-04-20T13:20:59.999Z</time></trkpt><trkpt lat="49.10895225632583" lon="6.397803823900242"><ele>227.0</ele><time>2026-04-20T13:21:00.999Z</time></trkpt><trkpt lat="49.10895869382025" lon="6.398001413229183"><ele>226.75</ele><time>2026-04-20T13:21:01.999Z</time></trkpt><trkpt lat="49.1089628454364" lon="6.398191134866351"><ele>226.5</ele><time>2026-04-20T13:21:02.999Z</time></trkpt><trkpt lat="49.10896451038181" lon="6.398378994614567"><ele>226.25</ele><time>2026-04-20T13:21:03.999Z</time></trkpt><trkpt lat="49.10897110130839" lon="6.39857334090294"><ele>226.0</ele><time>2026-04-20T13:21:04.999Z</time></trkpt><trkpt lat="49.108976304021496" lon="6.398761035337755"><ele>226.75</ele><time>2026-04-20T13:21:05.999Z</time></trkpt><trkpt lat="49.10898013229088" lon="6.39895167452613"><ele>227.5</ele><time>2026-04-20T13:21:06.999Z</time></trkpt><trkpt lat="49.108984262273715" lon="6.399143976287308"><ele>228.25</ele><time>2026-04-20T13:21:07.999Z</time></trkpt><trkpt lat="49.10898846614498" lon="6.399325762335599"><ele>229.0</ele><time>2026-04-20T13:21:08.999Z</time></trkpt><trkpt lat="49.10899201336729" lon="6.399513712971731"><ele>229.5</ele><time>2026-04-20T13:21:09.999Z</time></trkpt><trkpt lat="49.10899699717479" lon="6.399699920728796"><ele>230.0</ele><time>2026-04-20T13:21:10.999Z</time></trkpt><trkpt lat="49.10900349545309" lon="6.3998763126656435"><ele>230.5</ele><time>2026-04-20T13:21:11.999Z</time></trkpt><trkpt lat="49.10900753571617" lon="6.400060599884702"><ele>231.0</ele><time>2026-04-20T13:21:12.999Z</time></trkpt><trkpt lat="49.10901054156007" lon="6.400241018301936"><ele>231.0</ele><time>2026-04-20T13:21:13.999Z</time></trkpt><trkpt lat="49.10901640335998" lon="6.400420608914204"><ele>231.0</ele><time>2026-04-20T13:21:14.999Z</time></trkpt><trkpt lat="49.109019206126035" lon="6.400602464674865"><ele>231.0</ele><time>2026-04-20T13:21:15.999Z</time></trkpt><trkpt lat="49.109024497086104" lon="6.400773096169623"><ele>231.0</ele><time>2026-04-20T13:21:16.999Z</time></trkpt><trkpt lat="49.109024997632204" lon="6.400935937689792"><ele>231.20000000000002</ele><time>2026-04-20T13:21:17.999Z</time></trkpt><trkpt lat="49.10903019591592" lon="6.401089704556704"><ele>231.40000000000003</ele><time>2026-04-20T13:21:18.999Z</time></trkpt><trkpt lat="49.10903166179932" lon="6.401243750270051"><ele>231.6</ele><time>2026-04-20T13:21:19.999Z</time></trkpt><trkpt lat="49.10903413141288" lon="6.401398351502134"><ele>231.8</ele><time>2026-04-20T13:21:20.999Z</time></trkpt><trkpt lat="49.10902950479774" lon="6.401565151704814"><ele>232.0</ele><time>2026-04-20T13:21:21.999Z</time></trkpt><trkpt lat="49.10902602559923" lon="6.401740200658179"><ele>232.0</ele><time>2026-04-20T13:21:22.999Z</time></trkpt><trkpt lat="49.10902195137845" lon="6.401905350492101"><ele>232.0</ele><time>2026-04-20T13:21:23.999Z</time></trkpt><trkpt lat="49.10901494200101" lon="6.402080050446473"><ele>232.0</ele><time>2026-04-20T13:21:24.999Z</time></trkpt><trkpt lat="49.10900752230489" lon="6.402247299610952"><ele>232.0</ele><time>2026-04-20T13:21:25.999Z</time></trkpt><trkpt lat="49.10899889623154" lon="6.402418114641546"><ele>232.0</ele><time>2026-04-20T13:21:26.999Z</time></trkpt><trkpt lat="49.10899368170973" lon="6.402580106010111"><ele>231.8</ele><time>2026-04-20T13:21:27.999Z</time></trkpt><trkpt lat="49.10898808582993" lon="6.402732102223169"><ele>231.6</ele><time>2026-04-20T13:21:28.999Z</time></trkpt><trkpt lat="49.10898311909789" lon="6.402889152639658"><ele>231.40000000000003</ele><time>2026-04-20T13:21:29.999Z</time></trkpt><trkpt lat="49.10897970676347" lon="6.40304108644341"><ele>231.20000000000002</ele><time>2026-04-20T13:21:30.999Z</time></trkpt><trkpt lat="49.108974350075854" lon="6.40318756892039"><ele>231.0</ele><time>2026-04-20T13:21:31.999Z</time></trkpt><trkpt lat="49.10896726397585" lon="6.403326452931083"><ele>230.83333333333334</ele><time>2026-04-20T13:21:32.999Z</time></trkpt><trkpt lat="49.1089610806415" lon="6.403450465269713"><ele>230.66666666666669</ele><time>2026-04-20T13:21:33.999Z</time></trkpt><trkpt lat="49.10895298193488" lon="6.403570697797733"><ele>230.5</ele><time>2026-04-20T13:21:34.999Z</time></trkpt><trkpt lat="49.10894263626363" lon="6.403689136979134"><ele>230.33333333333334</ele><time>2026-04-20T13:21:35.999Z</time></trkpt><trkpt lat="49.10893659880335" lon="6.403805570728256"><ele>230.16666666666669</ele><time>2026-04-20T13:21:36.999Z</time></trkpt><trkpt lat="49.108927261190104" lon="6.403928231447182"><ele>230.0</ele><time>2026-04-20T13:21:37.999Z</time></trkpt><trkpt lat="49.10891975609622" lon="6.404051789606443"><ele>229.33333333333334</ele><time>2026-04-20T13:21:38.999Z</time></trkpt><trkpt lat="49.10891446200172" lon="6.404178118378773"><ele>228.66666666666669</ele><time>2026-04-20T13:21:39.999Z</time></trkpt><trkpt lat="49.10891199070324" lon="6.404301264473559"><ele>228.0</ele><time>2026-04-20T13:21:40.999Z</time></trkpt><trkpt lat="49.10890902776199" lon="6.4044176378897415"><ele>227.33333333333331</ele><time>2026-04-20T13:21:41.999Z</time></trkpt><trkpt lat="49.10890421775147" lon="6.404524955271352"><ele>226.66666666666666</ele><time>2026-04-20T13:21:42.999Z</time></trkpt><trkpt lat="49.10889847605516" lon="6.404726141828935"><ele>226.0</ele><time>2026-04-20T13:21:44.999Z</time></trkpt><trkpt lat="49.10889644818641" lon="6.4048382865054005"><ele>225.83333333333331</ele><time>2026-04-20T13:21:45.999Z</time></trkpt><trkpt lat="49.10889377276225" lon="6.404944628206413"><ele>225.66666666666666</ele><time>2026-04-20T13:21:46.999Z</time></trkpt><trkpt lat="49.10888840983763" lon="6.405051967660558"><ele>225.5</ele><time>2026-04-20T13:21:47.999Z</time></trkpt><trkpt lat="49.10888234549395" lon="6.405169084028028"><ele>225.33333333333331</ele><time>2026-04-20T13:21:48.999Z</time></trkpt><trkpt lat="49.10887675375294" lon="6.405297570146331"><ele>225.16666666666666</ele><time>2026-04-20T13:21:49.999Z</time></trkpt><trkpt lat="49.108870094135476" lon="6.405432890362601"><ele>225.0</ele><time>2026-04-20T13:21:50.999Z</time></trkpt><trkpt lat="49.10886678098104" lon="6.40557450416321"><ele>224.4</ele><time>2026-04-20T13:21:51.999Z</time></trkpt><trkpt lat="49.108861061439" lon="6.405713930326774"><ele>223.8</ele><time>2026-04-20T13:21:52.999Z</time></trkpt><trkpt lat="49.108855423496145" lon="6.405851727638536"><ele>223.2</ele><time>2026-04-20T13:21:53.999Z</time></trkpt><trkpt lat="49.10885078663614" lon="6.405988955664999"><ele>222.6</ele><time>2026-04-20T13:21:54.999Z</time></trkpt><trkpt lat="49.10884572288741" lon="6.406132570421852"><ele>222.0</ele><time>2026-04-20T13:21:55.999Z</time></trkpt><trkpt lat="49.10884290929933" lon="6.406275685582158"><ele>222.0</ele><time>2026-04-20T13:21:56.998Z</time></trkpt><trkpt lat="49.10883779550277" lon="6.406415758036648"><ele>223.0</ele><time>2026-04-20T13:21:58Z</time></trkpt><trkpt lat="49.10882603661009" lon="6.40654793804957"><ele>223.0</ele><time>2026-04-20T13:21:59Z</time></trkpt><trkpt lat="49.108818310034195" lon="6.406666725641453"><ele>223.0</ele><time>2026-04-20T13:22:00Z</time></trkpt><trkpt lat="49.10880837965167" lon="6.4068114768784445"><ele>223.0</ele><time>2026-04-20T13:22:02Z</time></trkpt></trkseg><trkseg><trkpt lat="49.10881118619086" lon="6.407044753507081"><ele>222.99999999999997</ele><time>2026-04-20T13:40:05Z</time></trkpt><trkpt lat="49.10874728981265" lon="6.407057139366586"><ele>223.0</ele><time>2026-04-20T13:40:08Z</time></trkpt><trkpt lat="49.1086622877233" lon="6.407044020737545"><ele>223.0</ele><time>2026-04-20T13:40:10Z</time></trkpt><trkpt lat="49.10859471772519" lon="6.40705222532919"><ele>223.0</ele><time>2026-04-20T13:40:12Z</time></trkpt><trkpt lat="49.10852605218761" lon="6.407121005653612"><ele>222.99999999999997</ele><time>2026-04-20T13:40:17Z</time></trkpt><trkpt lat="49.10858945171348" lon="6.407114486549237"><ele>223.0</ele><time>2026-04-20T13:40:20Z</time></trkpt><trkpt lat="49.108759956073335" lon="6.407108740362133"><ele>223.4</ele><time>2026-04-20T13:40:23Z</time></trkpt><trkpt lat="49.10881376981859" lon="6.407362607067011"><ele>223.8</ele><time>2026-04-20T13:40:31Z</time></trkpt><trkpt lat="49.10880502153507" lon="6.407466695846862"><ele>224.2</ele><time>2026-04-20T13:40:32Z</time></trkpt><trkpt lat="49.108802314608695" lon="6.407588713209607"><ele>224.6</ele><time>2026-04-20T13:40:33Z</time></trkpt><trkpt lat="49.10880070432891" lon="6.4077272605915825"><ele>225.0</ele><time>2026-04-20T13:40:34Z</time></trkpt><trkpt lat="49.10879013528024" lon="6.407862694277891"><ele>225.0</ele><time>2026-04-20T13:40:35Z</time></trkpt><trkpt lat="49.1087796826907" lon="6.408017032144914"><ele>225.0</ele><time>2026-04-20T13:40:36Z</time></trkpt><trkpt lat="49.1087741371443" lon="6.408184092049525"><ele>225.0</ele><time>2026-04-20T13:40:37Z</time></trkpt><trkpt lat="49.10876507455437" lon="6.408360263739192"><ele>225.0</ele><time>2026-04-20T13:40:38Z</time></trkpt><trkpt lat="49.10875773487764" lon="6.408544053294395"><ele>225.0</ele><time>2026-04-20T13:40:39Z</time></trkpt><trkpt lat="49.10874734614511" lon="6.408747134139442"><ele>225.25</ele><time>2026-04-20T13:40:40Z</time></trkpt><trkpt lat="49.10874073043564" lon="6.408937805837259"><ele>225.5</ele><time>2026-04-20T13:40:41Z</time></trkpt><trkpt lat="49.10873634402692" lon="6.40915005342905"><ele>225.75</ele><time>2026-04-20T13:40:42Z</time></trkpt><trkpt lat="49.10872494998247" lon="6.409362308022433"><ele>226.0</ele><time>2026-04-20T13:40:43Z</time></trkpt><trkpt lat="49.10871956352534" lon="6.409578513912636"><ele>225.75</ele><time>2026-04-20T13:40:44Z</time></trkpt><trkpt lat="49.108711722052405" lon="6.4097804608237805"><ele>225.5</ele><time>2026-04-20T13:40:45Z</time></trkpt><trkpt lat="49.10870216521231" lon="6.409987787600877"><ele>225.25</ele><time>2026-04-20T13:40:46Z</time></trkpt><trkpt lat="49.10868057012682" lon="6.4101758574769745"><ele>225.0</ele><time>2026-04-20T13:40:47Z</time></trkpt><trkpt lat="49.108672265462495" lon="6.410365065383414"><ele>225.0</ele><time>2026-04-20T13:40:48Z</time></trkpt><trkpt lat="49.1086741200779" lon="6.410559823656512"><ele>225.0</ele><time>2026-04-20T13:40:49Z</time></trkpt><trkpt lat="49.10866076549941" lon="6.4107506187639896"><ele>225.0</ele><time>2026-04-20T13:40:50Z</time></trkpt><trkpt lat="49.10864955018831" lon="6.410946513671983"><ele>225.0</ele><time>2026-04-20T13:40:51Z</time></trkpt><trkpt lat="49.108635831582845" lon="6.411143544568741"><ele>225.75</ele><time>2026-04-20T13:40:52Z</time></trkpt><trkpt lat="49.108624451138745" lon="6.4113479327669625"><ele>226.5</ele><time>2026-04-20T13:40:53Z</time></trkpt><trkpt lat="49.10862228689615" lon="6.411547625321857"><ele>227.25</ele><time>2026-04-20T13:40:54Z</time></trkpt><trkpt lat="49.10861441623541" lon="6.411748507446516"><ele>228.0</ele><time>2026-04-20T13:40:55Z</time></trkpt><trkpt lat="49.108610526745984" lon="6.411956615908964"><ele>228.0</ele><time>2026-04-20T13:40:56Z</time></trkpt><trkpt lat="49.108602633897874" lon="6.41215543141313"><ele>228.0</ele><time>2026-04-20T13:40:57Z</time></trkpt><trkpt lat="49.10859161579765" lon="6.4123535174138055"><ele>228.0</ele><time>2026-04-20T13:40:58Z</time></trkpt><trkpt lat="49.10859246385537" lon="6.412534108567267"><ele>228.0</ele><time>2026-04-20T13:40:59Z</time></trkpt><trkpt lat="49.10860351933527" lon="6.412727336128593"><ele>229.0</ele><time>2026-04-20T13:41:00Z</time></trkpt><trkpt lat="49.108618395843315" lon="6.412914370147169"><ele>230.0</ele><time>2026-04-20T13:41:01Z</time></trkpt><trkpt lat="49.108635994765514" lon="6.413100588558256"><ele>231.0</ele><time>2026-04-20T13:41:02Z</time></trkpt><trkpt lat="49.10866033272108" lon="6.413289956693412"><ele>232.0</ele><time>2026-04-20T13:41:03Z</time></trkpt><trkpt lat="49.108688295462734" lon="6.4134871359139005"><ele>233.0</ele><time>2026-04-20T13:41:04Z</time></trkpt><trkpt lat="49.1087176211115" lon="6.413678489963102"><ele>234.0</ele><time>2026-04-20T13:41:05Z</time></trkpt><trkpt lat="49.10874696688628" lon="6.41385977219728"><ele>235.0</ele><time>2026-04-20T13:41:06Z</time></trkpt><trkpt lat="49.10878654985329" lon="6.414034185203425"><ele>236.0</ele><time>2026-04-20T13:41:07Z</time></trkpt><trkpt lat="49.10882657037137" lon="6.4142398053952085"><ele>237.25</ele><time>2026-04-20T13:41:08Z</time></trkpt><trkpt lat="49.10885765023629" lon="6.414426274606585"><ele>238.5</ele><time>2026-04-20T13:41:09Z</time></trkpt><trkpt lat="49.10888870130393" lon="6.4146051812809946"><ele>239.75</ele><time>2026-04-20T13:41:10Z</time></trkpt><trkpt lat="49.10892602907557" lon="6.414787552389985"><ele>241.0</ele><time>2026-04-20T13:41:11Z</time></trkpt><trkpt lat="49.10896616915872" lon="6.414970525457816"><ele>241.4</ele><time>2026-04-20T13:41:12Z</time></trkpt><trkpt lat="49.10900242428387" lon="6.415139335859759"><ele>241.8</ele><time>2026-04-20T13:41:13Z</time></trkpt><trkpt lat="49.10902648067266" lon="6.415304325963074"><ele>242.20000000000002</ele><time>2026-04-20T13:41:14Z</time></trkpt><trkpt lat="49.10905913215877" lon="6.415455325020913"><ele>242.60000000000002</ele><time>2026-04-20T13:41:15Z</time></trkpt><trkpt lat="49.10908731846648" lon="6.415625109527399"><ele>243.0</ele><time>2026-04-20T13:41:16Z</time></trkpt><trkpt lat="49.109115588428445" lon="6.415785995464223"><ele>243.0</ele><time>2026-04-20T13:41:17Z</time></trkpt><trkpt lat="49.10927291113484" lon="6.415892570814092"><ele>243.0</ele><time>2026-04-20T13:41:18Z</time></trkpt><trkpt lat="49.109356690583" lon="6.416041928869945"><ele>243.0</ele><time>2026-04-20T13:41:19Z</time></trkpt><trkpt lat="49.10943834082309" lon="6.416204905576768"><ele>243.0</ele><time>2026-04-20T13:41:20Z</time></trkpt><trkpt lat="49.10952016389025" lon="6.416373896078629"><ele>244.0</ele><time>2026-04-20T13:41:21Z</time></trkpt><trkpt lat="49.109600281183724" lon="6.416539062845393"><ele>245.0</ele><time>2026-04-20T13:41:22Z</time></trkpt><trkpt lat="49.10968162880074" lon="6.416704723712737"><ele>246.0</ele><time>2026-04-20T13:41:23Z</time></trkpt><trkpt lat="49.109762972856345" lon="6.416869807758125"><ele>247.0</ele><time>2026-04-20T13:41:24Z</time></trkpt><trkpt lat="49.10984182709397" lon="6.417035690236769"><ele>246.25</ele><time>2026-04-20T13:41:25Z</time></trkpt><trkpt lat="49.10991543717739" lon="6.417198391352701"><ele>245.5</ele><time>2026-04-20T13:41:26Z</time></trkpt><trkpt lat="49.109986462228775" lon="6.417356273762746"><ele>244.75</ele><time>2026-04-20T13:41:27Z</time></trkpt><trkpt lat="49.11006295731614" lon="6.41751829026485"><ele>244.0</ele><time>2026-04-20T13:41:28Z</time></trkpt><trkpt lat="49.11013658253317" lon="6.417693637307085"><ele>244.0</ele><time>2026-04-20T13:41:29Z</time></trkpt><trkpt lat="49.11020923612751" lon="6.417869055357505"><ele>244.0</ele><time>2026-04-20T13:41:30Z</time></trkpt><trkpt lat="49.11028494410885" lon="6.418044068649867"><ele>244.0</ele><time>2026-04-20T13:41:31Z</time></trkpt><trkpt lat="49.110352365779875" lon="6.418216088738736"><ele>244.0</ele><time>2026-04-20T13:41:32Z</time></trkpt><trkpt lat="49.110424150301284" lon="6.4183913872272775"><ele>244.75</ele><time>2026-04-20T13:41:33Z</time></trkpt><trkpt lat="49.110500514601846" lon="6.418563373385131"><ele>245.5</ele><time>2026-04-20T13:41:34Z</time></trkpt><trkpt lat="49.11057663691018" lon="6.41873489644616"><ele>246.25</ele><time>2026-04-20T13:41:35Z</time></trkpt><trkpt lat="49.1106528810318" lon="6.418913825625504"><ele>247.0</ele><time>2026-04-20T13:41:36Z</time></trkpt><trkpt lat="49.110729952372715" lon="6.41908196686376"><ele>246.5</ele><time>2026-04-20T13:41:37Z</time></trkpt><trkpt lat="49.110799487054194" lon="6.419253613415531"><ele>246.0</ele><time>2026-04-20T13:41:38Z</time></trkpt><trkpt lat="49.11087175866651" lon="6.419430858131994"><ele>245.5</ele><time>2026-04-20T13:41:39Z</time></trkpt><trkpt lat="49.11094395994767" lon="6.419606496644024"><ele>245.0</ele><time>2026-04-20T13:41:40Z</time></trkpt><trkpt lat="49.111018684645565" lon="6.4197816535555035"><ele>245.0</ele><time>2026-04-20T13:41:41Z</time></trkpt><trkpt lat="49.11109317238319" lon="6.4199489214819625"><ele>245.0</ele><time>2026-04-20T13:41:42Z</time></trkpt><trkpt lat="49.1111634703024" lon="6.420111304785747"><ele>245.0</ele><time>2026-04-20T13:41:43Z</time></trkpt><trkpt lat="49.111238038508176" lon="6.42028456010597"><ele>245.0</ele><time>2026-04-20T13:41:44Z</time></trkpt><trkpt lat="49.1113120897624" lon="6.420464691651778"><ele>244.75</ele><time>2026-04-20T13:41:45Z</time></trkpt><trkpt lat="49.11139099787803" lon="6.420649378841114"><ele>244.5</ele><time>2026-04-20T13:41:46Z</time></trkpt><trkpt lat="49.1114695068993" lon="6.420832398068823"><ele>244.25</ele><time>2026-04-20T13:41:47Z</time></trkpt><trkpt lat="49.11154556248948" lon="6.421007667915767"><ele>244.0</ele><time>2026-04-20T13:41:48Z</time></trkpt><trkpt lat="49.111624461025166" lon="6.421189465670967"><ele>244.75</ele><time>2026-04-20T13:41:49Z</time></trkpt><trkpt lat="49.111702253043084" lon="6.421363521349994"><ele>245.5</ele><time>2026-04-20T13:41:50Z</time></trkpt><trkpt lat="49.111783484900805" lon="6.421529111454341"><ele>246.25</ele><time>2026-04-20T13:41:51Z</time></trkpt><trkpt lat="49.11187694567877" lon="6.4216901514686295"><ele>247.0</ele><time>2026-04-20T13:41:52Z</time></trkpt><trkpt lat="49.111980307359424" lon="6.421839236967866"><ele>247.0</ele><time>2026-04-20T13:41:53Z</time></trkpt><trkpt lat="49.112087864808785" lon="6.421961595310211"><ele>247.0</ele><time>2026-04-20T13:41:54Z</time></trkpt><trkpt lat="49.11220627041095" lon="6.422062022691186"><ele>247.0</ele><time>2026-04-20T13:41:55Z</time></trkpt><trkpt lat="49.112327595029406" lon="6.422160768275377"><ele>247.0</ele><time>2026-04-20T13:41:56Z</time></trkpt><trkpt lat="49.112447389415685" lon="6.422254760091964"><ele>247.75</ele><time>2026-04-20T13:41:57Z</time></trkpt><trkpt lat="49.112559811666934" lon="6.422376939027289"><ele>248.5</ele><time>2026-04-20T13:41:58Z</time></trkpt><trkpt lat="49.112656205736904" lon="6.422515289811454"><ele>249.25</ele><time>2026-04-20T13:41:59Z</time></trkpt><trkpt lat="49.11273829559979" lon="6.4226792556030885"><ele>250.0</ele><time>2026-04-20T13:42:00Z</time></trkpt><trkpt lat="49.11281388216098" lon="6.422843117297029"><ele>251.75</ele><time>2026-04-20T13:42:01Z</time></trkpt><trkpt lat="49.112891485021684" lon="6.423002969434066"><ele>253.5</ele><time>2026-04-20T13:42:02Z</time></trkpt><trkpt lat="49.112968433567566" lon="6.423163259547555"><ele>255.25</ele><time>2026-04-20T13:42:03Z</time></trkpt><trkpt lat="49.11305064139931" lon="6.423327699043435"><ele>257.0</ele><time>2026-04-20T13:42:04Z</time></trkpt><trkpt lat="49.113129404920464" lon="6.423490364712921"><ele>257.0</ele><time>2026-04-20T13:42:05Z</time></trkpt><trkpt lat="49.11320997895033" lon="6.423655973302596"><ele>257.0</ele><time>2026-04-20T13:42:06Z</time></trkpt><trkpt lat="49.11329489277339" lon="6.423823878347832"><ele>257.0</ele><time>2026-04-20T13:42:07Z</time></trkpt><trkpt lat="49.1133802550232" lon="6.423996292767269"><ele>257.0</ele><time>2026-04-20T13:42:08Z</time></trkpt><trkpt lat="49.11346158560353" lon="6.424163530323974"><ele>257.5</ele><time>2026-04-20T13:42:09Z</time></trkpt><trkpt lat="49.11354618665337" lon="6.424334111531648"><ele>258.0</ele><time>2026-04-20T13:42:10Z</time></trkpt><trkpt lat="49.11363691032194" lon="6.424503535312716"><ele>258.5</ele><time>2026-04-20T13:42:11Z</time></trkpt><trkpt lat="49.11372212905847" lon="6.424667477301589"><ele>259.0</ele><time>2026-04-20T13:42:12Z</time></trkpt><trkpt lat="49.1138111700756" lon="6.424837370951837"><ele>258.75</ele><time>2026-04-20T13:42:13Z</time></trkpt><trkpt lat="49.11390430868136" lon="6.425011888997799"><ele>258.5</ele><time>2026-04-20T13:42:14Z</time></trkpt><trkpt lat="49.113995720755554" lon="6.425188298361206"><ele>258.25</ele><time>2026-04-20T13:42:15Z</time></trkpt><trkpt lat="49.114078890873344" lon="6.425358906591052"><ele>258.0</ele><time>2026-04-20T13:42:16Z</time></trkpt><trkpt lat="49.114150664935195" lon="6.425534780792358"><ele>258.75</ele><time>2026-04-20T13:42:17Z</time></trkpt><trkpt lat="49.11420873704557" lon="6.425736220784546"><ele>259.5</ele><time>2026-04-20T13:42:18Z</time></trkpt><trkpt lat="49.11425270632741" lon="6.425950707849651"><ele>260.25</ele><time>2026-04-20T13:42:19Z</time></trkpt><trkpt lat="49.114283741572144" lon="6.426164058166416"><ele>261.0</ele><time>2026-04-20T13:42:20Z</time></trkpt><trkpt lat="49.11431486062538" lon="6.426375939532548"><ele>262.25</ele><time>2026-04-20T13:42:21Z</time></trkpt><trkpt lat="49.11434269907029" lon="6.426596594003395"><ele>263.5</ele><time>2026-04-20T13:42:22Z</time></trkpt><trkpt lat="49.114379267464926" lon="6.426802537684356"><ele>264.75</ele><time>2026-04-20T13:42:23Z</time></trkpt><trkpt lat="49.11441320446419" lon="6.427001806087654"><ele>266.0</ele><time>2026-04-20T13:42:24Z</time></trkpt><trkpt lat="49.11444603563439" lon="6.427204746957162"><ele>267.0</ele><time>2026-04-20T13:42:25Z</time></trkpt><trkpt lat="49.11448311272164" lon="6.427414851683721"><ele>268.0</ele><time>2026-04-20T13:42:26Z</time></trkpt><trkpt lat="49.11452082753341" lon="6.4276303011492315"><ele>269.0</ele><time>2026-04-20T13:42:27Z</time></trkpt><trkpt lat="49.11455483080822" lon="6.427843894284858"><ele>270.0</ele><time>2026-04-20T13:42:28Z</time></trkpt><trkpt lat="49.114590834039284" lon="6.428060275707723"><ele>270.0</ele><time>2026-04-20T13:42:29Z</time></trkpt><trkpt lat="49.11462523747609" lon="6.428275348078005"><ele>270.0</ele><time>2026-04-20T13:42:30Z</time></trkpt><trkpt lat="49.114659641588084" lon="6.4284751098508925"><ele>270.0</ele><time>2026-04-20T13:42:31Z</time></trkpt><trkpt lat="49.114686801010535" lon="6.428677813646055"><ele>270.0</ele><time>2026-04-20T13:42:32Z</time></trkpt><trkpt lat="49.11472323132345" lon="6.428880488753789"><ele>271.0</ele><time>2026-04-20T13:42:33Z</time></trkpt><trkpt lat="49.11474932422355" lon="6.429092910096805"><ele>272.0</ele><time>2026-04-20T13:42:34Z</time></trkpt><trkpt lat="49.11478547397891" lon="6.429304008315183"><ele>273.0</ele><time>2026-04-20T13:42:35Z</time></trkpt><trkpt lat="49.11482527706412" lon="6.429515321232729"><ele>274.0</ele><time>2026-04-20T13:42:36Z</time></trkpt><trkpt lat="49.11486103714062" lon="6.429731889763703"><ele>274.5</ele><time>2026-04-20T13:42:37Z</time></trkpt><trkpt lat="49.114894640365705" lon="6.429937082638809"><ele>275.0</ele><time>2026-04-20T13:42:38Z</time></trkpt><trkpt lat="49.11493134593254" lon="6.430146904432768"><ele>275.5</ele><time>2026-04-20T13:42:39Z</time></trkpt><trkpt lat="49.11496158855136" lon="6.430364181425045"><ele>276.0</ele><time>2026-04-20T13:42:40Z</time></trkpt><trkpt lat="49.11499960191295" lon="6.430576667696042"><ele>276.5</ele><time>2026-04-20T13:42:41Z</time></trkpt><trkpt lat="49.11503488259584" lon="6.430796176894089"><ele>277.0</ele><time>2026-04-20T13:42:42Z</time></trkpt><trkpt lat="49.11507277680544" lon="6.431014321969345"><ele>277.5</ele><time>2026-04-20T13:42:43Z</time></trkpt><trkpt lat="49.11510824460155" lon="6.431230346114415"><ele>278.0</ele><time>2026-04-20T13:42:44Z</time></trkpt><trkpt lat="49.115141682688936" lon="6.43144293567099"><ele>278.5</ele><time>2026-04-20T13:42:45Z</time></trkpt><trkpt lat="49.11517505078922" lon="6.431657224968808"><ele>279.0</ele><time>2026-04-20T13:42:46Z</time></trkpt><trkpt lat="49.11520981979062" lon="6.431875534324681"><ele>279.5</ele><time>2026-04-20T13:42:47Z</time></trkpt><trkpt lat="49.11524972366517" lon="6.4320937113904515"><ele>280.0</ele><time>2026-04-20T13:42:48Z</time></trkpt><trkpt lat="49.11528534877954" lon="6.432313521178654"><ele>281.0</ele><time>2026-04-20T13:42:49Z</time></trkpt><trkpt lat="49.11531652321402" lon="6.432534247180783"><ele>282.0</ele><time>2026-04-20T13:42:50Z</time></trkpt><trkpt lat="49.11535251446714" lon="6.432744227691828"><ele>283.0</ele><time>2026-04-20T13:42:51Z</time></trkpt><trkpt lat="49.11538299246101" lon="6.432963366588492"><ele>284.0</ele><time>2026-04-20T13:42:52Z</time></trkpt><trkpt lat="49.115422606835786" lon="6.433172721648977"><ele>284.0</ele><time>2026-04-20T13:42:53Z</time></trkpt><trkpt lat="49.11545588165012" lon="6.433395054597301"><ele>284.0</ele><time>2026-04-20T13:42:54Z</time></trkpt><trkpt lat="49.115491410684506" lon="6.433618082505646"><ele>284.0</ele><time>2026-04-20T13:42:55Z</time></trkpt><trkpt lat="49.11552091270496" lon="6.433846171846094"><ele>284.0</ele><time>2026-04-20T13:42:56Z</time></trkpt><trkpt lat="49.115550595534266" lon="6.434060256941486"><ele>284.0</ele><time>2026-04-20T13:42:57Z</time></trkpt><trkpt lat="49.11557510567045" lon="6.434286721778352"><ele>284.0</ele><time>2026-04-20T13:42:58Z</time></trkpt><trkpt lat="49.11559186750768" lon="6.434520492594575"><ele>284.0</ele><time>2026-04-20T13:42:59Z</time></trkpt><trkpt lat="49.115613945955104" lon="6.4347433834647"><ele>284.0</ele><time>2026-04-20T13:43:00Z</time></trkpt><trkpt lat="49.11563123121152" lon="6.434975913780879"><ele>284.0</ele><time>2026-04-20T13:43:01Z</time></trkpt><trkpt lat="49.115650439003524" lon="6.435187767580724"><ele>284.0</ele><time>2026-04-20T13:43:02Z</time></trkpt><trkpt lat="49.115672732275414" lon="6.4354130201645425"><ele>284.0</ele><time>2026-04-20T13:43:03Z</time></trkpt><trkpt lat="49.115705758550405" lon="6.43563541903602"><ele>284.0</ele><time>2026-04-20T13:43:04Z</time></trkpt><trkpt lat="49.11574403847144" lon="6.435860786673804"><ele>284.0</ele><time>2026-04-20T13:43:05Z</time></trkpt><trkpt lat="49.11579398251893" lon="6.4360743644103025"><ele>284.0</ele><time>2026-04-20T13:43:06Z</time></trkpt><trkpt lat="49.115855506182136" lon="6.436291893569593"><ele>283.6666666666667</ele><time>2026-04-20T13:43:07Z</time></trkpt><trkpt lat="49.11592456333162" lon="6.436505081138864"><ele>283.3333333333333</ele><time>2026-04-20T13:43:08Z</time></trkpt><trkpt lat="49.11600519758959" lon="6.436706241464423"><ele>283.0</ele><time>2026-04-20T13:43:09Z</time></trkpt><trkpt lat="49.11609115726262" lon="6.436905367522039"><ele>283.0</ele><time>2026-04-20T13:43:10Z</time></trkpt><trkpt lat="49.11617996730906" lon="6.4370904749169755"><ele>283.0</ele><time>2026-04-20T13:43:11Z</time></trkpt><trkpt lat="49.11627398790882" lon="6.43727763775919"><ele>283.0</ele><time>2026-04-20T13:43:12Z</time></trkpt><trkpt lat="49.11636224107057" lon="6.437450645933546"><ele>283.0</ele><time>2026-04-20T13:43:13Z</time></trkpt><trkpt lat="49.116451422247614" lon="6.437607142190391"><ele>282.6</ele><time>2026-04-20T13:43:14Z</time></trkpt><trkpt lat="49.11652940518112" lon="6.437756045163346"><ele>282.20000000000005</ele><time>2026-04-20T13:43:15Z</time></trkpt><trkpt lat="49.11660343688203" lon="6.437892865922019"><ele>281.8</ele><time>2026-04-20T13:43:16Z</time></trkpt><trkpt lat="49.11667041795428" lon="6.4380188946637515"><ele>281.40000000000003</ele><time>2026-04-20T13:43:17Z</time></trkpt><trkpt lat="49.116729649003354" lon="6.438134671550584"><ele>281.0</ele><time>2026-04-20T13:43:18Z</time></trkpt><trkpt lat="49.11678608535888" lon="6.438248959021522"><ele>280.8</ele><time>2026-04-20T13:43:19Z</time></trkpt><trkpt lat="49.1168462967998" lon="6.438364337847275"><ele>280.6</ele><time>2026-04-20T13:43:20Z</time></trkpt><trkpt lat="49.11691303785733" lon="6.438491505472212"><ele>280.4</ele><time>2026-04-20T13:43:21Z</time></trkpt><trkpt lat="49.11698069237463" lon="6.4386257095077575"><ele>280.2</ele><time>2026-04-20T13:43:22Z</time></trkpt><trkpt lat="49.117049619896214" lon="6.438760822739618"><ele>280.0</ele><time>2026-04-20T13:43:22.999Z</time></trkpt><trkpt lat="49.11712134116753" lon="6.438905113246335"><ele>279.75</ele><time>2026-04-20T13:43:23.999Z</time></trkpt><trkpt lat="49.11719412663062" lon="6.439041622711864"><ele>279.5</ele><time>2026-04-20T13:43:24.999Z</time></trkpt><trkpt lat="49.11727276970392" lon="6.439186352644404"><ele>279.25</ele><time>2026-04-20T13:43:25.999Z</time></trkpt><trkpt lat="49.11734923592591" lon="6.439338247638271"><ele>279.0</ele><time>2026-04-20T13:43:26.999Z</time></trkpt><trkpt lat="49.11741614388997" lon="6.439478440095954"><ele>278.8333333333333</ele><time>2026-04-20T13:43:27.999Z</time></trkpt><trkpt lat="49.1174799108982" lon="6.4396116122890446"><ele>278.6666666666667</ele><time>2026-04-20T13:43:28.999Z</time></trkpt><trkpt lat="49.1175276328961" lon="6.439711553395176"><ele>278.5</ele><time>2026-04-20T13:43:29.999Z</time></trkpt><trkpt lat="49.117564655637345" lon="6.4397938353738"><ele>278.33333333333337</ele><time>2026-04-20T13:43:30.999Z</time></trkpt><trkpt lat="49.11759463575743" lon="6.43987895668656"><ele>278.1666666666667</ele><time>2026-04-20T13:43:33.999Z</time></trkpt><trkpt lat="49.11763217413804" lon="6.439958366519753"><ele>278.0</ele><time>2026-04-20T13:43:39.001Z</time></trkpt><trkpt lat="49.11768782996019" lon="6.440069780808692"><ele>277.83333333333337</ele><time>2026-04-20T13:53:08.999Z</time></trkpt><trkpt lat="49.11772978946871" lon="6.4401676977740685"><ele>277.6666666666667</ele><time>2026-04-20T13:53:10.999Z</time></trkpt><trkpt lat="49.11778319521847" lon="6.440274475835415"><ele>277.5</ele><time>2026-04-20T13:53:13.999Z</time></trkpt><trkpt lat="49.11785277677492" lon="6.440409633593599"><ele>277.3333333333333</ele><time>2026-04-20T13:53:15.999Z</time></trkpt><trkpt lat="49.117897938984825" lon="6.440496478394949"><ele>277.16666666666663</ele><time>2026-04-20T13:53:16.999Z</time></trkpt><trkpt lat="49.1179609299527" lon="6.4405909635678"><ele>277.0</ele><time>2026-04-20T13:53:17.999Z</time></trkpt><trkpt lat="49.118036103255854" lon="6.440695735604588"><ele>277.0</ele><time>2026-04-20T13:53:18.999Z</time></trkpt><trkpt lat="49.11812046327514" lon="6.440807141103796"><ele>277.0</ele><time>2026-04-20T13:53:19.999Z</time></trkpt><trkpt lat="49.118210934751446" lon="6.440917811710376"><ele>277.0</ele><time>2026-04-20T13:53:20.999Z</time></trkpt><trkpt lat="49.11830470211405" lon="6.441027927491105"><ele>277.0</ele><time>2026-04-20T13:53:21.999Z</time></trkpt><trkpt lat="49.118404322584325" lon="6.441145022748287"><ele>276.5</ele><time>2026-04-20T13:53:22.999Z</time></trkpt><trkpt lat="49.11851390566938" lon="6.441267609620115"><ele>276.0</ele><time>2026-04-20T13:53:23.999Z</time></trkpt><trkpt lat="49.11861595141362" lon="6.44138507214598"><ele>275.5</ele><time>2026-04-20T13:53:24.999Z</time></trkpt><trkpt lat="49.118715313588964" lon="6.441501820429602"><ele>275.0</ele><time>2026-04-20T13:53:25.999Z</time></trkpt><trkpt lat="49.11882193985711" lon="6.441627133746294"><ele>274.75</ele><time>2026-04-20T13:53:26.999Z</time></trkpt><trkpt lat="49.11893363834203" lon="6.441753180577496"><ele>274.5</ele><time>2026-04-20T13:53:27.999Z</time></trkpt><trkpt lat="49.11904747630346" lon="6.441882023874014"><ele>274.25</ele><time>2026-04-20T13:53:28.999Z</time></trkpt><trkpt lat="49.119159038700786" lon="6.4420097016496"><ele>274.0</ele><time>2026-04-20T13:53:29.999Z</time></trkpt><trkpt lat="49.119273920136" lon="6.442140408796601"><ele>273.25</ele><time>2026-04-20T13:53:30.999Z</time></trkpt><trkpt lat="49.11938796331378" lon="6.442271787108128"><ele>272.5</ele><time>2026-04-20T13:53:31.999Z</time></trkpt><trkpt lat="49.11950447424904" lon="6.442402674952124"><ele>271.75</ele><time>2026-04-20T13:53:32.999Z</time></trkpt><trkpt lat="49.119618152924595" lon="6.4425343925927265"><ele>271.0</ele><time>2026-04-20T13:53:33.999Z</time></trkpt><trkpt lat="49.11972754023617" lon="6.442662957460732"><ele>271.0</ele><time>2026-04-20T13:53:34.999Z</time></trkpt><trkpt lat="49.11984319460224" lon="6.442800747516956"><ele>271.0</ele><time>2026-04-20T13:53:35.999Z</time></trkpt><trkpt lat="49.11996165263828" lon="6.442938732247562"><ele>271.0</ele><time>2026-04-20T13:53:36.999Z</time></trkpt><trkpt lat="49.120080660584875" lon="6.443073814108267"><ele>271.0</ele><time>2026-04-20T13:53:37.999Z</time></trkpt><trkpt lat="49.120191716071396" lon="6.443202737293421"><ele>271.5</ele><time>2026-04-20T13:53:38.999Z</time></trkpt><trkpt lat="49.12030703459471" lon="6.443335428674008"><ele>272.0</ele><time>2026-04-20T13:53:39.999Z</time></trkpt><trkpt lat="49.120423994448494" lon="6.443469990447668"><ele>272.5</ele><time>2026-04-20T13:53:40.999Z</time></trkpt><trkpt lat="49.120541420679274" lon="6.443606668554398"><ele>273.0</ele><time>2026-04-20T13:53:41.999Z</time></trkpt><trkpt lat="49.12065749937975" lon="6.443741597127778"><ele>272.75</ele><time>2026-04-20T13:53:42.999Z</time></trkpt><trkpt lat="49.12077091630807" lon="6.443878662328611"><ele>272.5</ele><time>2026-04-20T13:53:43.999Z</time></trkpt><trkpt lat="49.12088434847735" lon="6.444014357137732"><ele>272.25</ele><time>2026-04-20T13:53:44.999Z</time></trkpt><trkpt lat="49.12100236279705" lon="6.444149798338673"><ele>272.0</ele><time>2026-04-20T13:53:45.999Z</time></trkpt><trkpt lat="49.12111772818849" lon="6.444282777067152"><ele>272.0</ele><time>2026-04-20T13:53:46.999Z</time></trkpt><trkpt lat="49.12123121634006" lon="6.444412858131535"><ele>272.0</ele><time>2026-04-20T13:53:47.999Z</time></trkpt><trkpt lat="49.12134237039694" lon="6.444537972116977"><ele>272.0</ele><time>2026-04-20T13:53:48.999Z</time></trkpt><trkpt lat="49.121453062428714" lon="6.444663424021612"><ele>272.0</ele><time>2026-04-20T13:53:49.999Z</time></trkpt><trkpt lat="49.12156607648298" lon="6.444791706612681"><ele>272.0</ele><time>2026-04-20T13:53:50.999Z</time></trkpt><trkpt lat="49.12168106700209" lon="6.444924830468796"><ele>272.0</ele><time>2026-04-20T13:53:51.999Z</time></trkpt><trkpt lat="49.121799275867644" lon="6.445058707331616"><ele>272.0</ele><time>2026-04-20T13:53:52.999Z</time></trkpt><trkpt lat="49.12191935957847" lon="6.445188041159463"><ele>272.0</ele><time>2026-04-20T13:53:53.999Z</time></trkpt><trkpt lat="49.122040768697794" lon="6.445303599880315"><ele>272.0</ele><time>2026-04-20T13:53:54.999Z</time></trkpt><trkpt lat="49.12216672063559" lon="6.445408847948316"><ele>272.0</ele><time>2026-04-20T13:53:55.999Z</time></trkpt><trkpt lat="49.122297425115896" lon="6.445512470127388"><ele>272.0</ele><time>2026-04-20T13:53:56.999Z</time></trkpt><trkpt lat="49.12243145472986" lon="6.445617127750921"><ele>272.0</ele><time>2026-04-20T13:53:57.999Z</time></trkpt><trkpt lat="49.12256080964771" lon="6.445725743112896"><ele>271.75</ele><time>2026-04-20T13:53:58.999Z</time></trkpt><trkpt lat="49.122686023498744" lon="6.445831856380367"><ele>271.5</ele><time>2026-04-20T13:53:59.999Z</time></trkpt><trkpt lat="49.12281056278232" lon="6.445935599121381"><ele>271.25</ele><time>2026-04-20T13:54:00.999Z</time></trkpt><trkpt lat="49.12293697743175" lon="6.446039803813975"><ele>271.0</ele><time>2026-04-20T13:54:01.999Z</time></trkpt><trkpt lat="49.123061567099576" lon="6.446150011521997"><ele>271.0</ele><time>2026-04-20T13:54:02.999Z</time></trkpt><trkpt lat="49.12318252979772" lon="6.446260009134853"><ele>271.0</ele><time>2026-04-20T13:54:03.999Z</time></trkpt><trkpt lat="49.12329978586806" lon="6.446375984466963"><ele>271.0</ele><time>2026-04-20T13:54:04.999Z</time></trkpt><trkpt lat="49.123418014885885" lon="6.446498890391778"><ele>271.0</ele><time>2026-04-20T13:54:05.999Z</time></trkpt><trkpt lat="49.123537710113446" lon="6.446626846170166"><ele>270.5</ele><time>2026-04-20T13:54:07Z</time></trkpt><trkpt lat="49.123658630090105" lon="6.446753267789418"><ele>270.0</ele><time>2026-04-20T13:54:08Z</time></trkpt><trkpt lat="49.12377785110687" lon="6.446881403227278"><ele>269.5</ele><time>2026-04-20T13:54:09Z</time></trkpt><trkpt lat="49.123891903284495" lon="6.44700899459548"><ele>269.0</ele><time>2026-04-20T13:54:10Z</time></trkpt><trkpt lat="49.12400731643779" lon="6.4471398630875765"><ele>267.25</ele><time>2026-04-20T13:54:11Z</time></trkpt><trkpt lat="49.124123841930924" lon="6.447265458939886"><ele>265.5</ele><time>2026-04-20T13:54:12Z</time></trkpt><trkpt lat="49.12423893083007" lon="6.447391730211437"><ele>263.75</ele><time>2026-04-20T13:54:13Z</time></trkpt><trkpt lat="49.12434973096254" lon="6.447524595915556"><ele>262.0</ele><time>2026-04-20T13:54:14Z</time></trkpt><trkpt lat="49.12445256969741" lon="6.447670073043152"><ele>262.0</ele><time>2026-04-20T13:54:15Z</time></trkpt><trkpt lat="49.124548813700095" lon="6.447825499506899"><ele>262.0</ele><time>2026-04-20T13:54:16Z</time></trkpt><trkpt lat="49.12463793031272" lon="6.447997997541816"><ele>262.0</ele><time>2026-04-20T13:54:17Z</time></trkpt><trkpt lat="49.124721257148806" lon="6.448174923356959"><ele>262.0</ele><time>2026-04-20T13:54:18Z</time></trkpt><trkpt lat="49.12480218740115" lon="6.448356062296547"><ele>262.0</ele><time>2026-04-20T13:54:19Z</time></trkpt><trkpt lat="49.12488266945654" lon="6.448540144603784"><ele>262.0</ele><time>2026-04-20T13:54:20Z</time></trkpt><trkpt lat="49.12495729528621" lon="6.44872162827456"><ele>262.0</ele><time>2026-04-20T13:54:21Z</time></trkpt><trkpt lat="49.125035090672306" lon="6.448889963284427"><ele>262.0</ele><time>2026-04-20T13:54:22Z</time></trkpt><trkpt lat="49.12512966327874" lon="6.449045263552546"><ele>260.75</ele><time>2026-04-20T13:54:23Z</time></trkpt><trkpt lat="49.12523793536712" lon="6.44918639184016"><ele>259.5</ele><time>2026-04-20T13:54:24Z</time></trkpt><trkpt lat="49.1253561521588" lon="6.449315404518948"><ele>258.25</ele><time>2026-04-20T13:54:25Z</time></trkpt><trkpt lat="49.12548105906032" lon="6.449432367006051"><ele>257.0</ele><time>2026-04-20T13:54:26Z</time></trkpt><trkpt lat="49.12560808258527" lon="6.4495356979856195"><ele>255.25</ele><time>2026-04-20T13:54:27Z</time></trkpt><trkpt lat="49.125730038999116" lon="6.449634987134163"><ele>253.5</ele><time>2026-04-20T13:54:28Z</time></trkpt><trkpt lat="49.125848242268944" lon="6.4497385363022035"><ele>251.75</ele><time>2026-04-20T13:54:29Z</time></trkpt><trkpt lat="49.125963671636384" lon="6.44984965451936"><ele>250.0</ele><time>2026-04-20T13:54:30Z</time></trkpt><trkpt lat="49.1260732779189" lon="6.4499765223876215"><ele>250.0</ele><time>2026-04-20T13:54:31Z</time></trkpt><trkpt lat="49.12617723466569" lon="6.450118604703581"><ele>250.0</ele><time>2026-04-20T13:54:32Z</time></trkpt><trkpt lat="49.12627691091091" lon="6.450273950979671"><ele>250.0</ele><time>2026-04-20T13:54:33Z</time></trkpt><trkpt lat="49.126368843215545" lon="6.450431094473605"><ele>250.0</ele><time>2026-04-20T13:54:34Z</time></trkpt><trkpt lat="49.12646335822327" lon="6.450587366422822"><ele>249.5</ele><time>2026-04-20T13:54:35Z</time></trkpt><trkpt lat="49.1265589269542" lon="6.450736320719355"><ele>249.0</ele><time>2026-04-20T13:54:36Z</time></trkpt><trkpt lat="49.12666113812574" lon="6.4508791599840105"><ele>248.5</ele><time>2026-04-20T13:54:37Z</time></trkpt><trkpt lat="49.126772004074134" lon="6.451004757943777"><ele>248.0</ele><time>2026-04-20T13:54:38Z</time></trkpt><trkpt lat="49.126888760785874" lon="6.451118573739521"><ele>246.5</ele><time>2026-04-20T13:54:39Z</time></trkpt><trkpt lat="49.12701320747101" lon="6.451219093604483"><ele>245.0</ele><time>2026-04-20T13:54:40Z</time></trkpt><trkpt lat="49.127138522770494" lon="6.451313044696478"><ele>243.5</ele><time>2026-04-20T13:54:41Z</time></trkpt><trkpt lat="49.12726344257054" lon="6.451411551619221"><ele>242.0</ele><time>2026-04-20T13:54:42Z</time></trkpt><trkpt lat="49.127382628458044" lon="6.451516992555888"><ele>239.25</ele><time>2026-04-20T13:54:43Z</time></trkpt><trkpt lat="49.12749479639453" lon="6.451642297526295"><ele>236.5</ele><time>2026-04-20T13:54:44Z</time></trkpt><trkpt lat="49.12759147983969" lon="6.451788835034448"><ele>233.75</ele><time>2026-04-20T13:54:45Z</time></trkpt><trkpt lat="49.127670022055845" lon="6.451957152979614"><ele>231.0</ele><time>2026-04-20T13:54:46Z</time></trkpt><trkpt lat="49.12773150753265" lon="6.452138797551352"><ele>230.75</ele><time>2026-04-20T13:54:47Z</time></trkpt><trkpt lat="49.12777245383862" lon="6.452337734199865"><ele>230.5</ele><time>2026-04-20T13:54:48Z</time></trkpt><trkpt lat="49.127808123489125" lon="6.452547491729246"><ele>230.25</ele><time>2026-04-20T13:54:49Z</time></trkpt><trkpt lat="49.12783994304981" lon="6.452762885927675"><ele>230.0</ele><time>2026-04-20T13:54:50Z</time></trkpt><trkpt lat="49.12786854149177" lon="6.452979513092011"><ele>229.5</ele><time>2026-04-20T13:54:51Z</time></trkpt><trkpt lat="49.1278974893168" lon="6.453184056840924"><ele>229.0</ele><time>2026-04-20T13:54:52Z</time></trkpt><trkpt lat="49.127934644850534" lon="6.453382779589789"><ele>228.5</ele><time>2026-04-20T13:54:53Z</time></trkpt><trkpt lat="49.127991834383536" lon="6.453572884182354"><ele>228.0</ele><time>2026-04-20T13:54:54Z</time></trkpt><trkpt lat="49.12806710999209" lon="6.453749364305349"><ele>227.75</ele><time>2026-04-20T13:54:55Z</time></trkpt><trkpt lat="49.12816058271363" lon="6.453916945368322"><ele>227.5</ele><time>2026-04-20T13:54:56Z</time></trkpt><trkpt lat="49.12827103214443" lon="6.454060420306505"><ele>227.25</ele><time>2026-04-20T13:54:57Z</time></trkpt><trkpt lat="49.12839868934496" lon="6.454176446277131"><ele>227.0</ele><time>2026-04-20T13:54:58Z</time></trkpt><trkpt lat="49.128535795910885" lon="6.454263579272814"><ele>227.0</ele><time>2026-04-20T13:54:58.999Z</time></trkpt><trkpt lat="49.12867892702103" lon="6.454315487849425"><ele>227.0</ele><time>2026-04-20T13:54:59.999Z</time></trkpt><trkpt lat="49.128819802182235" lon="6.454358751951511"><ele>227.0</ele><time>2026-04-20T13:55:00.999Z</time></trkpt><trkpt lat="49.12895707021608" lon="6.454398870161408"><ele>227.0</ele><time>2026-04-20T13:55:01.999Z</time></trkpt><trkpt lat="49.129084326548494" lon="6.454438033399565"><ele>226.5</ele><time>2026-04-20T13:55:02.999Z</time></trkpt><trkpt lat="49.12920213070364" lon="6.454475779346754"><ele>226.0</ele><time>2026-04-20T13:55:03.999Z</time></trkpt><trkpt lat="49.129306094793726" lon="6.454514307682121"><ele>225.5</ele><time>2026-04-20T13:55:04.999Z</time></trkpt><trkpt lat="49.12941841407061" lon="6.4545511664309"><ele>225.0</ele><time>2026-04-20T13:55:05.999Z</time></trkpt><trkpt lat="49.12953011408736" lon="6.454589943171427"><ele>224.6</ele><time>2026-04-20T13:55:06.999Z</time></trkpt><trkpt lat="49.12964408414662" lon="6.454629154844086"><ele>224.2</ele><time>2026-04-20T13:55:07.999Z</time></trkpt><trkpt lat="49.129758824563496" lon="6.454666207704085"><ele>223.8</ele><time>2026-04-20T13:55:08.999Z</time></trkpt><trkpt lat="49.12985943436576" lon="6.454701604977648"><ele>223.4</ele><time>2026-04-20T13:55:09.999Z</time></trkpt><trkpt lat="49.1299433798049" lon="6.454728465100674"><ele>223.0</ele><time>2026-04-20T13:55:10.999Z</time></trkpt><trkpt lat="49.130008696624444" lon="6.454748702288189"><ele>222.4</ele><time>2026-04-20T13:55:11.999Z</time></trkpt><trkpt lat="49.130084412737375" lon="6.454769013447141"><ele>221.8</ele><time>2026-04-20T13:55:13.999Z</time></trkpt><trkpt lat="49.130200125776945" lon="6.454796908180574"><ele>221.2</ele><time>2026-04-20T13:55:15.999Z</time></trkpt><trkpt lat="49.13027960631815" lon="6.454814090448462"><ele>220.6</ele><time>2026-04-20T13:55:16.999Z</time></trkpt><trkpt lat="49.13036806051164" lon="6.454833703619495"><ele>220.0</ele><time>2026-04-20T13:55:17.999Z</time></trkpt><trkpt lat="49.130471173452754" lon="6.454858904618893"><ele>220.0</ele><time>2026-04-20T13:55:18.999Z</time></trkpt><trkpt lat="49.13058569175923" lon="6.454874649531719"><ele>220.0</ele><time>2026-04-20T13:55:19.999Z</time></trkpt><trkpt lat="49.130700862440904" lon="6.454889139697122"><ele>220.0</ele><time>2026-04-20T13:55:20.999Z</time></trkpt><trkpt lat="49.13082920497005" lon="6.454893123161042"><ele>220.0</ele><time>2026-04-20T13:55:21.999Z</time></trkpt><trkpt lat="49.1309617867894" lon="6.454891774453156"><ele>219.0</ele><time>2026-04-20T13:55:22.999Z</time></trkpt><trkpt lat="49.131090204210416" lon="6.454883463083755"><ele>218.0</ele><time>2026-04-20T13:55:23.999Z</time></trkpt><trkpt lat="49.13122283242301" lon="6.454865793294509"><ele>217.0</ele><time>2026-04-20T13:55:24.999Z</time></trkpt><trkpt lat="49.131357146333706" lon="6.454840647733735"><ele>216.0</ele><time>2026-04-20T13:55:25.999Z</time></trkpt><trkpt lat="49.131489512578646" lon="6.454805718315301"><ele>215.0</ele><time>2026-04-20T13:55:26.999Z</time></trkpt><trkpt lat="49.13162294153312" lon="6.454759723995395"><ele>214.0</ele><time>2026-04-20T13:55:27.999Z</time></trkpt><trkpt lat="49.131757314765835" lon="6.454698664100461"><ele>213.0</ele><time>2026-04-20T13:55:28.999Z</time></trkpt><trkpt lat="49.13189094685773" lon="6.45462798770155"><ele>212.0</ele><time>2026-04-20T13:55:29.999Z</time></trkpt><trkpt lat="49.13201552712431" lon="6.454544202022033"><ele>212.5</ele><time>2026-04-20T13:55:30.999Z</time></trkpt><trkpt lat="49.13215066721432" lon="6.454469102230109"><ele>213.0</ele><time>2026-04-20T13:55:31.999Z</time></trkpt><trkpt lat="49.13228287695407" lon="6.454396473223585"><ele>213.5</ele><time>2026-04-20T13:55:32.999Z</time></trkpt><trkpt lat="49.13242310234882" lon="6.454312404107781"><ele>214.0</ele><time>2026-04-20T13:55:33.999Z</time></trkpt><trkpt lat="49.13254926108777" lon="6.4542377335974015"><ele>214.0</ele><time>2026-04-20T13:55:34.999Z</time></trkpt><trkpt lat="49.13267826109831" lon="6.454159540898881"><ele>214.0</ele><time>2026-04-20T13:55:35.999Z</time></trkpt><trkpt lat="49.132801758498104" lon="6.454086562725355"><ele>214.0</ele><time>2026-04-20T13:55:36.999Z</time></trkpt><trkpt lat="49.132927349775564" lon="6.454018393519282"><ele>214.0</ele><time>2026-04-20T13:55:37.999Z</time></trkpt><trkpt lat="49.13305550555084" lon="6.453943666017628"><ele>214.0</ele><time>2026-04-20T13:55:38.999Z</time></trkpt><trkpt lat="49.13317935839589" lon="6.453869963631705"><ele>214.0</ele><time>2026-04-20T13:55:39.999Z</time></trkpt><trkpt lat="49.13330730765096" lon="6.453795987147202"><ele>214.0</ele><time>2026-04-20T13:55:40.999Z</time></trkpt><trkpt lat="49.13343103359399" lon="6.453720676440195"><ele>214.0</ele><time>2026-04-20T13:55:41.999Z</time></trkpt><trkpt lat="49.13354870159642" lon="6.453655040740804"><ele>216.25</ele><time>2026-04-20T13:55:42.999Z</time></trkpt><trkpt lat="49.133666143023525" lon="6.453578396136578"><ele>218.5</ele><time>2026-04-20T13:55:43.999Z</time></trkpt><trkpt lat="49.13378946327052" lon="6.453506570310874"><ele>220.75</ele><time>2026-04-20T13:55:44.999Z</time></trkpt><trkpt lat="49.13390717416331" lon="6.453438331929201"><ele>223.0</ele><time>2026-04-20T13:55:45.999Z</time></trkpt><trkpt lat="49.13401667076744" lon="6.453375430129518"><ele>222.4</ele><time>2026-04-20T13:55:46.999Z</time></trkpt><trkpt lat="49.134109015412626" lon="6.453322233320341"><ele>221.8</ele><time>2026-04-20T13:55:47.999Z</time></trkpt><trkpt lat="49.13418655998864" lon="6.4532833436605"><ele>221.2</ele><time>2026-04-20T13:55:48.999Z</time></trkpt><trkpt lat="49.13425050070949" lon="6.453279761063089"><ele>220.6</ele><time>2026-04-20T13:55:49.999Z</time></trkpt><trkpt lat="49.134352727249556" lon="6.453403286190943"><ele>220.0</ele><time>2026-04-20T13:55:51.999Z</time></trkpt><trkpt lat="49.134389035584746" lon="6.453525147388817"><ele>220.0</ele><time>2026-04-20T13:55:52.999Z</time></trkpt><trkpt lat="49.134420138972665" lon="6.453663494028324"><ele>220.0</ele><time>2026-04-20T13:55:53.999Z</time></trkpt><trkpt lat="49.13445400977825" lon="6.453808289621255"><ele>220.0</ele><time>2026-04-20T13:55:54.999Z</time></trkpt><trkpt lat="49.13448211180726" lon="6.453944881329666"><ele>220.0</ele><time>2026-04-20T13:55:55.999Z</time></trkpt><trkpt lat="49.134506518499116" lon="6.454066944947723"><ele>220.0</ele><time>2026-04-20T13:55:56.999Z</time></trkpt><trkpt lat="49.13453191893082" lon="6.454184161150373"><ele>220.49999999999997</ele><time>2026-04-20T13:55:57.999Z</time></trkpt><trkpt lat="49.134545529149904" lon="6.454279548526802"><ele>221.0</ele><time>2026-04-20T13:55:58.999Z</time></trkpt><trkpt lat="49.13455927500477" lon="6.454381575352976"><ele>221.5</ele><time>2026-04-20T13:56:00.999Z</time></trkpt><trkpt lat="49.13466572871775" lon="6.45441146194302"><ele>222.0</ele><time>2026-04-20T13:56:02.999Z</time></trkpt><trkpt lat="49.13473291245664" lon="6.45436596628272"><ele>222.49999999999997</ele><time>2026-04-20T13:56:03.999Z</time></trkpt><trkpt lat="49.13480844071701" lon="6.454323164963614"><ele>223.0</ele><time>2026-04-20T13:56:04.999Z</time></trkpt><trkpt lat="49.13488297486567" lon="6.454252027710622"><ele>222.8</ele><time>2026-04-20T13:56:05.999Z</time></trkpt><trkpt lat="49.13497524105613" lon="6.4541934113979655"><ele>222.60000000000002</ele><time>2026-04-20T13:56:06.999Z</time></trkpt><trkpt lat="49.135059756882974" lon="6.454128797054786"><ele>222.39999999999998</ele><time>2026-04-20T13:56:07.999Z</time></trkpt><trkpt lat="49.13516518771416" lon="6.45406096754393"><ele>222.2</ele><time>2026-04-20T13:56:08.999Z</time></trkpt><trkpt lat="49.13525772340452" lon="6.453986779716026"><ele>222.0</ele><time>2026-04-20T13:56:09.999Z</time></trkpt><trkpt lat="49.13534842827043" lon="6.453917327035613"><ele>221.6</ele><time>2026-04-20T13:56:10.999Z</time></trkpt><trkpt lat="49.135402235987776" lon="6.453772771836234"><ele>221.2</ele><time>2026-04-20T13:56:11.999Z</time></trkpt><trkpt lat="49.135443321607404" lon="6.453605989961091"><ele>220.8</ele><time>2026-04-20T13:56:13Z</time></trkpt><trkpt lat="49.13546979487287" lon="6.453432547904553"><ele>220.4</ele><time>2026-04-20T13:56:14Z</time></trkpt><trkpt lat="49.13552578050373" lon="6.453295315079857"><ele>220.0</ele><time>2026-04-20T13:56:15Z</time></trkpt><trkpt lat="49.13563453415526" lon="6.4532143405075555"><ele>220.0</ele><time>2026-04-20T13:56:16Z</time></trkpt><trkpt lat="49.135740312676035" lon="6.453153481383599"><ele>220.0</ele><time>2026-04-20T13:56:17Z</time></trkpt><trkpt lat="49.135845732841226" lon="6.453066256524713"><ele>220.0</ele><time>2026-04-20T13:56:18Z</time></trkpt><trkpt lat="49.13595688960417" lon="6.453004430965924"><ele>220.0</ele><time>2026-04-20T13:56:19Z</time></trkpt><trkpt lat="49.13607483221403" lon="6.452914364192025"><ele>220.0</ele><time>2026-04-20T13:56:20Z</time></trkpt><trkpt lat="49.136189494440075" lon="6.452828711440852"><ele>220.0</ele><time>2026-04-20T13:56:21Z</time></trkpt><trkpt lat="49.1363037645744" lon="6.452737028608051"><ele>220.0</ele><time>2026-04-20T13:56:22Z</time></trkpt><trkpt lat="49.136409220921784" lon="6.452647206216592"><ele>220.0</ele><time>2026-04-20T13:56:23Z</time></trkpt><trkpt lat="49.1365219077195" lon="6.452551896473471"><ele>220.25</ele><time>2026-04-20T13:56:24Z</time></trkpt><trkpt lat="49.13664216119967" lon="6.452448243632553"><ele>220.5</ele><time>2026-04-20T13:56:25Z</time></trkpt><trkpt lat="49.136768908463" lon="6.452347293947613"><ele>220.75</ele><time>2026-04-20T13:56:26Z</time></trkpt><trkpt lat="49.136896140937225" lon="6.452250041129017"><ele>221.0</ele><time>2026-04-20T13:56:27Z</time></trkpt><trkpt lat="49.137027556758646" lon="6.452164164386645"><ele>220.5</ele><time>2026-04-20T13:56:28Z</time></trkpt><trkpt lat="49.137158638100395" lon="6.452086581802323"><ele>220.0</ele><time>2026-04-20T13:56:29Z</time></trkpt><trkpt lat="49.137292556665216" lon="6.452017948849747"><ele>219.5</ele><time>2026-04-20T13:56:30Z</time></trkpt><trkpt lat="49.137425764695436" lon="6.451950902558587"><ele>219.0</ele><time>2026-04-20T13:56:31Z</time></trkpt><trkpt lat="49.137554531872986" lon="6.451890131358236"><ele>218.0</ele><time>2026-04-20T13:56:32Z</time></trkpt><trkpt lat="49.13768614791152" lon="6.451830113780054"><ele>217.0</ele><time>2026-04-20T13:56:33Z</time></trkpt><trkpt lat="49.13782013896276" lon="6.451766097154614"><ele>216.0</ele><time>2026-04-20T13:56:34Z</time></trkpt><trkpt lat="49.1379495620148" lon="6.451706228639383"><ele>215.0</ele><time>2026-04-20T13:56:35Z</time></trkpt><trkpt lat="49.13808287321108" lon="6.451636437088515"><ele>215.0</ele><time>2026-04-20T13:56:36Z</time></trkpt><trkpt lat="49.138209389960856" lon="6.451573641107829"><ele>215.0</ele><time>2026-04-20T13:56:37Z</time></trkpt><trkpt lat="49.13833776079547" lon="6.451508919904056"><ele>215.0</ele><time>2026-04-20T13:56:38Z</time></trkpt><trkpt lat="49.13846857039078" lon="6.451449760555289"><ele>215.0</ele><time>2026-04-20T13:56:39Z</time></trkpt><trkpt lat="49.138604653481615" lon="6.451384027491257"><ele>214.75</ele><time>2026-04-20T13:56:40Z</time></trkpt><trkpt lat="49.138738317552956" lon="6.451315069697186"><ele>214.5</ele><time>2026-04-20T13:56:41Z</time></trkpt><trkpt lat="49.13887208200439" lon="6.451253244228433"><ele>214.25</ele><time>2026-04-20T13:56:42Z</time></trkpt><trkpt lat="49.139008014780494" lon="6.4511904995941025"><ele>214.0</ele><time>2026-04-20T13:56:43Z</time></trkpt><trkpt lat="49.139141705045155" lon="6.451131944014704"><ele>213.5</ele><time>2026-04-20T13:56:44Z</time></trkpt><trkpt lat="49.13926520857983" lon="6.451070062850172"><ele>213.0</ele><time>2026-04-20T13:56:45Z</time></trkpt><trkpt lat="49.139397043270236" lon="6.451020812317074"><ele>212.5</ele><time>2026-04-20T13:56:46Z</time></trkpt><trkpt lat="49.139530898557155" lon="6.450982788224245"><ele>212.0</ele><time>2026-04-20T13:56:47Z</time></trkpt><trkpt lat="49.13967201119704" lon="6.45096323212682"><ele>212.0</ele><time>2026-04-20T13:56:48Z</time></trkpt><trkpt lat="49.13981932087751" lon="6.4509538065849625"><ele>212.0</ele><time>2026-04-20T13:56:49Z</time></trkpt><trkpt lat="49.13996298855684" lon="6.450953455448162"><ele>212.0</ele><time>2026-04-20T13:56:50Z</time></trkpt><trkpt lat="49.140110167225046" lon="6.450947819470083"><ele>212.0</ele><time>2026-04-20T13:56:51Z</time></trkpt><trkpt lat="49.14025441198475" lon="6.450943565448875"><ele>212.25</ele><time>2026-04-20T13:56:52Z</time></trkpt><trkpt lat="49.140400811180875" lon="6.4509393342786865"><ele>212.5</ele><time>2026-04-20T13:56:53Z</time></trkpt><trkpt lat="49.14054869759712" lon="6.450941354846528"><ele>212.75</ele><time>2026-04-20T13:56:54Z</time></trkpt><trkpt lat="49.140694133546035" lon="6.450937395415594"><ele>213.0</ele><time>2026-04-20T13:56:55Z</time></trkpt><trkpt lat="49.14083303091157" lon="6.4509329092565695"><ele>213.75</ele><time>2026-04-20T13:56:56Z</time></trkpt><trkpt lat="49.14097323179642" lon="6.4509282484559956"><ele>214.5</ele><time>2026-04-20T13:56:57Z</time></trkpt><trkpt lat="49.14111775039757" lon="6.450913175558893"><ele>215.25</ele><time>2026-04-20T13:56:58Z</time></trkpt><trkpt lat="49.141264110269" lon="6.450881194767757"><ele>216.0</ele><time>2026-04-20T13:56:59Z</time></trkpt><trkpt lat="49.14139633524497" lon="6.450819285037862"><ele>216.0</ele><time>2026-04-20T13:57:00Z</time></trkpt><trkpt lat="49.14152295696457" lon="6.4507248800468675"><ele>216.0</ele><time>2026-04-20T13:57:01Z</time></trkpt><trkpt lat="49.14163901392807" lon="6.450609564541299"><ele>216.0</ele><time>2026-04-20T13:57:02Z</time></trkpt><trkpt lat="49.1417531986217" lon="6.450474406515685"><ele>216.0</ele><time>2026-04-20T13:57:03Z</time></trkpt><trkpt lat="49.14184792143827" lon="6.45030808193658"><ele>215.25</ele><time>2026-04-20T13:57:04Z</time></trkpt><trkpt lat="49.141921450478215" lon="6.450128269268587"><ele>214.5</ele><time>2026-04-20T13:57:05Z</time></trkpt><trkpt lat="49.14198255320583" lon="6.449930590568748"><ele>213.75</ele><time>2026-04-20T13:57:06Z</time></trkpt><trkpt lat="49.14204393138744" lon="6.449728366918798"><ele>213.0</ele><time>2026-04-20T13:57:06.999Z</time></trkpt><trkpt lat="49.14206069863438" lon="6.449497321819696"><ele>213.0</ele><time>2026-04-20T13:57:07.999Z</time></trkpt><trkpt lat="49.142077351682616" lon="6.449274775525807"><ele>213.0</ele><time>2026-04-20T13:57:08.999Z</time></trkpt><trkpt lat="49.14209006437101" lon="6.449057995776891"><ele>213.0</ele><time>2026-04-20T13:57:09.999Z</time></trkpt><trkpt lat="49.142106777280276" lon="6.44883656417147"><ele>213.0</ele><time>2026-04-20T13:57:10.999Z</time></trkpt><trkpt lat="49.14212190416608" lon="6.448617524445801"><ele>212.25</ele><time>2026-04-20T13:57:11.999Z</time></trkpt><trkpt lat="49.1421390052443" lon="6.448393054137192"><ele>211.5</ele><time>2026-04-20T13:57:12.999Z</time></trkpt><trkpt lat="49.14215624169838" lon="6.4481748533348355"><ele>210.75</ele><time>2026-04-20T13:57:13.999Z</time></trkpt><trkpt lat="49.14217139843812" lon="6.447956019876846"><ele>210.0</ele><time>2026-04-20T13:57:14.999Z</time></trkpt><trkpt lat="49.14218879575655" lon="6.447739519145192"><ele>209.25</ele><time>2026-04-20T13:57:15.999Z</time></trkpt><trkpt lat="49.14220660962424" lon="6.447519662684942"><ele>208.5</ele><time>2026-04-20T13:57:16.999Z</time></trkpt><trkpt lat="49.14223751074574" lon="6.447304751039371"><ele>207.75</ele><time>2026-04-20T13:57:17.999Z</time></trkpt><trkpt lat="49.14227043594417" lon="6.4470896054995"><ele>207.0</ele><time>2026-04-20T13:57:18.999Z</time></trkpt><trkpt lat="49.14230947737832" lon="6.446878709097649"><ele>207.0</ele><time>2026-04-20T13:57:19.999Z</time></trkpt><trkpt lat="49.14235956866501" lon="6.446677105816209"><ele>207.0</ele><time>2026-04-20T13:57:20.999Z</time></trkpt><trkpt lat="49.142416683536204" lon="6.44647364729321"><ele>207.0</ele><time>2026-04-20T13:57:21.999Z</time></trkpt><trkpt lat="49.14247689880438" lon="6.446275680558864"><ele>207.0</ele><time>2026-04-20T13:57:22.999Z</time></trkpt><trkpt lat="49.1425352968551" lon="6.446090962688297"><ele>207.0</ele><time>2026-04-20T13:57:23.999Z</time></trkpt><trkpt lat="49.14259891571042" lon="6.445909986300982"><ele>207.0</ele><time>2026-04-20T13:57:24.999Z</time></trkpt><trkpt lat="49.142663603216086" lon="6.445720862060289"><ele>207.0</ele><time>2026-04-20T13:57:25.999Z</time></trkpt><trkpt lat="49.14272039834416" lon="6.445521296556031"><ele>207.0</ele><time>2026-04-20T13:57:26.999Z</time></trkpt><trkpt lat="49.14276201947088" lon="6.445315894979686"><ele>207.25</ele><time>2026-04-20T13:57:27.999Z</time></trkpt><trkpt lat="49.14277997531544" lon="6.44511257072396"><ele>207.5</ele><time>2026-04-20T13:57:28.999Z</time></trkpt><trkpt lat="49.14278522238769" lon="6.444908169288616"><ele>207.75</ele><time>2026-04-20T13:57:29.999Z</time></trkpt><trkpt lat="49.14278609455014" lon="6.444701338577805"><ele>208.0</ele><time>2026-04-20T13:57:30.999Z</time></trkpt><trkpt lat="49.14277334047539" lon="6.444494906934558"><ele>208.25</ele><time>2026-04-20T13:57:31.999Z</time></trkpt><trkpt lat="49.14275185117131" lon="6.444293014905442"><ele>208.5</ele><time>2026-04-20T13:57:32.999Z</time></trkpt><trkpt lat="49.14273223360594" lon="6.444092514855462"><ele>208.75</ele><time>2026-04-20T13:57:33.999Z</time></trkpt><trkpt lat="49.14271414251886" lon="6.443888924001127"><ele>209.0</ele><time>2026-04-20T13:57:34.999Z</time></trkpt><trkpt lat="49.14270099405362" lon="6.443687281839934"><ele>209.0</ele><time>2026-04-20T13:57:35.999Z</time></trkpt><trkpt lat="49.14269848357103" lon="6.443477956598333"><ele>209.0</ele><time>2026-04-20T13:57:36.999Z</time></trkpt><trkpt lat="49.14270939495059" lon="6.443263920810678"><ele>209.0</ele><time>2026-04-20T13:57:37.999Z</time></trkpt><trkpt lat="49.14272290880124" lon="6.443054924279928"><ele>209.0</ele><time>2026-04-20T13:57:38.999Z</time></trkpt><trkpt lat="49.1427441079683" lon="6.4428410427482445"><ele>209.0</ele><time>2026-04-20T13:57:39.999Z</time></trkpt><trkpt lat="49.142766616891336" lon="6.442631422772274"><ele>209.0</ele><time>2026-04-20T13:57:40.999Z</time></trkpt><trkpt lat="49.142792743990334" lon="6.442419511519269"><ele>209.0</ele><time>2026-04-20T13:57:41.999Z</time></trkpt><trkpt lat="49.14281386365469" lon="6.442206305943594"><ele>209.0</ele><time>2026-04-20T13:57:42.999Z</time></trkpt><trkpt lat="49.14283819166745" lon="6.441990972869221"><ele>209.25</ele><time>2026-04-20T13:57:43.999Z</time></trkpt><trkpt lat="49.14285707561803" lon="6.441771245188038"><ele>209.5</ele><time>2026-04-20T13:57:44.999Z</time></trkpt><trkpt lat="49.142899922983844" lon="6.441563027026992"><ele>209.75</ele><time>2026-04-20T13:57:45.999Z</time></trkpt><trkpt lat="49.14292239563459" lon="6.441342293805231"><ele>210.0</ele><time>2026-04-20T13:57:46.999Z</time></trkpt><trkpt lat="49.14294520136607" lon="6.441119402898886"><ele>211.25</ele><time>2026-04-20T13:57:47.999Z</time></trkpt><trkpt lat="49.14296954693324" lon="6.440895313420663"><ele>212.5</ele><time>2026-04-20T13:57:48.999Z</time></trkpt><trkpt lat="49.14299295237941" lon="6.440668419409633"><ele>213.75</ele><time>2026-04-20T13:57:49.999Z</time></trkpt><trkpt lat="49.14301758758372" lon="6.440455178727568"><ele>215.0</ele><time>2026-04-20T13:57:50.999Z</time></trkpt><trkpt lat="49.14304435171762" lon="6.440239706491519"><ele>215.5</ele><time>2026-04-20T13:57:51.999Z</time></trkpt><trkpt lat="49.143068413845135" lon="6.440019044580396"><ele>216.0</ele><time>2026-04-20T13:57:52.999Z</time></trkpt><trkpt lat="49.14309270933493" lon="6.439799209948752"><ele>216.5</ele><time>2026-04-20T13:57:53.999Z</time></trkpt><trkpt lat="49.143119661310216" lon="6.439580214149749"><ele>217.0</ele><time>2026-04-20T13:57:54.999Z</time></trkpt><trkpt lat="49.14314763051426" lon="6.439362618531074"><ele>217.75</ele><time>2026-04-20T13:57:55.999Z</time></trkpt><trkpt lat="49.14317217771424" lon="6.439142026326188"><ele>218.5</ele><time>2026-04-20T13:57:56.999Z</time></trkpt><trkpt lat="49.14319537068746" lon="6.4389331723975705"><ele>219.25</ele><time>2026-04-20T13:57:57.999Z</time></trkpt><trkpt lat="49.143220295092014" lon="6.438722056455311"><ele>220.0</ele><time>2026-04-20T13:57:58.999Z</time></trkpt><trkpt lat="49.14324609931234" lon="6.438508945534548"><ele>220.25</ele><time>2026-04-20T13:57:59.999Z</time></trkpt><trkpt lat="49.143272711039124" lon="6.4382951916153734"><ele>220.5</ele><time>2026-04-20T13:58:00.999Z</time></trkpt><trkpt lat="49.143298526969005" lon="6.438073342546258"><ele>220.75</ele><time>2026-04-20T13:58:01.999Z</time></trkpt><trkpt lat="49.14332872080754" lon="6.437854592767287"><ele>221.0</ele><time>2026-04-20T13:58:02.999Z</time></trkpt><trkpt lat="49.1433563611811" lon="6.437626889537678"><ele>222.25</ele><time>2026-04-20T13:58:03.999Z</time></trkpt><trkpt lat="49.143388823655684" lon="6.437403991677868"><ele>223.5</ele><time>2026-04-20T13:58:04.999Z</time></trkpt><trkpt lat="49.14342213218305" lon="6.437185269425766"><ele>224.75</ele><time>2026-04-20T13:58:05.999Z</time></trkpt><trkpt lat="49.143457273508204" lon="6.436965784774178"><ele>226.0</ele><time>2026-04-20T13:58:06.999Z</time></trkpt><trkpt lat="49.14349182559787" lon="6.436744920530439"><ele>226.5</ele><time>2026-04-20T13:58:07.999Z</time></trkpt><trkpt lat="49.14352928112451" lon="6.436527081046167"><ele>227.0</ele><time>2026-04-20T13:58:08.999Z</time></trkpt><trkpt lat="49.14356899957549" lon="6.436307226128227"><ele>227.5</ele><time>2026-04-20T13:58:09.999Z</time></trkpt><trkpt lat="49.14361238590247" lon="6.436093728376124"><ele>228.0</ele><time>2026-04-20T13:58:10.999Z</time></trkpt><trkpt lat="49.143652240400925" lon="6.435883467968227"><ele>229.0</ele><time>2026-04-20T13:58:11.999Z</time></trkpt><trkpt lat="49.143693935717806" lon="6.4356720137950125"><ele>230.0</ele><time>2026-04-20T13:58:12.999Z</time></trkpt><trkpt lat="49.14373641988346" lon="6.435459907864937"><ele>231.0</ele><time>2026-04-20T13:58:13.999Z</time></trkpt><trkpt lat="49.143782968186905" lon="6.435238754326238"><ele>232.0</ele><time>2026-04-20T13:58:14.999Z</time></trkpt><trkpt lat="49.14383212470009" lon="6.435015874144771"><ele>232.25</ele><time>2026-04-20T13:58:15.999Z</time></trkpt><trkpt lat="49.143879127636154" lon="6.434803370936385"><ele>232.5</ele><time>2026-04-20T13:58:16.999Z</time></trkpt><trkpt lat="49.14392782798148" lon="6.434592572645547"><ele>232.75</ele><time>2026-04-20T13:58:17.999Z</time></trkpt><trkpt lat="49.14397740761637" lon="6.434377189178561"><ele>233.0</ele><time>2026-04-20T13:58:19Z</time></trkpt><trkpt lat="49.14402735856233" lon="6.434161240278668"><ele>232.5</ele><time>2026-04-20T13:58:20Z</time></trkpt><trkpt lat="49.144077407621346" lon="6.43393821581694"><ele>232.0</ele><time>2026-04-20T13:58:21Z</time></trkpt><trkpt lat="49.144126355704636" lon="6.433727938243645"><ele>231.5</ele><time>2026-04-20T13:58:22Z</time></trkpt><trkpt lat="49.14417462936708" lon="6.433513929753777"><ele>231.0</ele><time>2026-04-20T13:58:23Z</time></trkpt><trkpt lat="49.14422201587174" lon="6.4332996244679705"><ele>231.0</ele><time>2026-04-20T13:58:24Z</time></trkpt><trkpt lat="49.144288067155664" lon="6.433090344988795"><ele>231.0</ele><time>2026-04-20T13:58:25Z</time></trkpt><trkpt lat="49.14432369075593" lon="6.4328608593302565"><ele>231.0</ele><time>2026-04-20T13:58:26Z</time></trkpt><trkpt lat="49.14437774535617" lon="6.432643946420789"><ele>230.5</ele><time>2026-04-20T13:58:27Z</time></trkpt><trkpt lat="49.144425591626764" lon="6.432432990006156"><ele>230.0</ele><time>2026-04-20T13:58:28Z</time></trkpt><trkpt lat="49.14447631456783" lon="6.432221637681092"><ele>229.5</ele><time>2026-04-20T13:58:29Z</time></trkpt><trkpt lat="49.14452667409528" lon="6.432008058605068"><ele>229.0</ele><time>2026-04-20T13:58:30Z</time></trkpt><trkpt lat="49.144574759941456" lon="6.431794902487431"><ele>228.66666666666666</ele><time>2026-04-20T13:58:31Z</time></trkpt><trkpt lat="49.144623397313445" lon="6.431577759377701"><ele>228.33333333333331</ele><time>2026-04-20T13:58:32Z</time></trkpt><trkpt lat="49.14467430864668" lon="6.431362785268173"><ele>228.0</ele><time>2026-04-20T13:58:33Z</time></trkpt><trkpt lat="49.14472628375109" lon="6.431143723142986"><ele>227.5</ele><time>2026-04-20T13:58:34Z</time></trkpt><trkpt lat="49.144778458988284" lon="6.430929932301848"><ele>227.0</ele><time>2026-04-20T13:58:35Z</time></trkpt><trkpt lat="49.144829063126885" lon="6.430721540718278"><ele>226.5</ele><time>2026-04-20T13:58:36Z</time></trkpt><trkpt lat="49.14488243891636" lon="6.430512872631762"><ele>226.0</ele><time>2026-04-20T13:58:37Z</time></trkpt><trkpt lat="49.14494003920959" lon="6.4303076640866195"><ele>225.66666666666666</ele><time>2026-04-20T13:58:38Z</time></trkpt><trkpt lat="49.14499686452022" lon="6.430096737462571"><ele>225.33333333333331</ele><time>2026-04-20T13:58:39Z</time></trkpt><trkpt lat="49.14505783261083" lon="6.429884213755978"><ele>225.0</ele><time>2026-04-20T13:58:40Z</time></trkpt><trkpt lat="49.14511873019754" lon="6.429674074871527"><ele>225.0</ele><time>2026-04-20T13:58:41Z</time></trkpt><trkpt lat="49.14517787790533" lon="6.429468761787863"><ele>225.0</ele><time>2026-04-20T13:58:42Z</time></trkpt><trkpt lat="49.14523705294408" lon="6.429259977379489"><ele>225.0</ele><time>2026-04-20T13:58:43Z</time></trkpt><trkpt lat="49.145296707617426" lon="6.429054986455566"><ele>225.0</ele><time>2026-04-20T13:58:44Z</time></trkpt><trkpt lat="49.14535801816782" lon="6.428845681129981"><ele>224.75</ele><time>2026-04-20T13:58:45Z</time></trkpt><trkpt lat="49.14541637696686" lon="6.428636176592025"><ele>224.5</ele><time>2026-04-20T13:58:46Z</time></trkpt><trkpt lat="49.14547958549683" lon="6.4284275403464095"><ele>224.25</ele><time>2026-04-20T13:58:47Z</time></trkpt><trkpt lat="49.14554274204515" lon="6.42822659280718"><ele>224.0</ele><time>2026-04-20T13:58:48Z</time></trkpt><trkpt lat="49.145611467058906" lon="6.42804234842572"><ele>223.0</ele><time>2026-04-20T13:58:49Z</time></trkpt><trkpt lat="49.145701691001236" lon="6.427878516133887"><ele>222.0</ele><time>2026-04-20T13:58:50Z</time></trkpt><trkpt lat="49.1457834761218" lon="6.427702016642909"><ele>221.0</ele><time>2026-04-20T13:58:51Z</time></trkpt><trkpt lat="49.14586742969055" lon="6.427526420217556"><ele>220.0</ele><time>2026-04-20T13:58:52Z</time></trkpt><trkpt lat="49.145954555855354" lon="6.427345310541152"><ele>220.0</ele><time>2026-04-20T13:58:53Z</time></trkpt><trkpt lat="49.14604179766884" lon="6.427166084312016"><ele>220.0</ele><time>2026-04-20T13:58:54Z</time></trkpt><trkpt lat="49.14612813959219" lon="6.42699110519172"><ele>220.0</ele><time>2026-04-20T13:58:55Z</time></trkpt><trkpt lat="49.1462154805238" lon="6.426812008120033"><ele>220.0</ele><time>2026-04-20T13:58:56Z</time></trkpt><trkpt lat="49.14629740433353" lon="6.426644019165773"><ele>219.5</ele><time>2026-04-20T13:58:57Z</time></trkpt><trkpt lat="49.1463809759172" lon="6.426472651328621"><ele>219.0</ele><time>2026-04-20T13:58:58Z</time></trkpt><trkpt lat="49.14646385291322" lon="6.426303291082352"><ele>218.5</ele><time>2026-04-20T13:58:59Z</time></trkpt><trkpt lat="49.146544543863804" lon="6.426132111174096"><ele>218.0</ele><time>2026-04-20T13:59:00Z</time></trkpt><trkpt lat="49.14661761474067" lon="6.425958803319297"><ele>218.0</ele><time>2026-04-20T13:59:01Z</time></trkpt><trkpt lat="49.14667246788743" lon="6.4257591003316765"><ele>218.0</ele><time>2026-04-20T13:59:02Z</time></trkpt><trkpt lat="49.14669469788314" lon="6.425549779707553"><ele>218.0</ele><time>2026-04-20T13:59:03Z</time></trkpt><trkpt lat="49.14672310347196" lon="6.425347856361922"><ele>218.0</ele><time>2026-04-20T13:59:04Z</time></trkpt><trkpt lat="49.14674633037922" lon="6.425134467561827"><ele>217.5</ele><time>2026-04-20T13:59:05Z</time></trkpt><trkpt lat="49.14676674630167" lon="6.424923429633121"><ele>217.0</ele><time>2026-04-20T13:59:06Z</time></trkpt><trkpt lat="49.1467592208722" lon="6.424709400226027"><ele>216.5</ele><time>2026-04-20T13:59:07Z</time></trkpt><trkpt lat="49.146709339768925" lon="6.424517837413493"><ele>216.0</ele><time>2026-04-20T13:59:08Z</time></trkpt><trkpt lat="49.14667436874723" lon="6.424339995795444"><ele>215.8</ele><time>2026-04-20T13:59:09Z</time></trkpt><trkpt lat="49.14665610702253" lon="6.424160216469395"><ele>215.60000000000002</ele><time>2026-04-20T13:59:10Z</time></trkpt><trkpt lat="49.14665808743973" lon="6.423999180429183"><ele>215.4</ele><time>2026-04-20T13:59:11Z</time></trkpt><trkpt lat="49.14667713274708" lon="6.423864151090066"><ele>215.2</ele><time>2026-04-20T13:59:11.999Z</time></trkpt><trkpt lat="49.14671190136954" lon="6.423765982261871"><ele>215.0</ele><time>2026-04-20T13:59:12.999Z</time></trkpt><trkpt lat="49.146760089093604" lon="6.4236863462629765"><ele>214.4</ele><time>2026-04-20T13:59:13.999Z</time></trkpt><trkpt lat="49.14686251141561" lon="6.423601621005233"><ele>213.8</ele><time>2026-04-20T13:59:15.999Z</time></trkpt><trkpt lat="49.14693735238917" lon="6.423496492909731"><ele>213.2</ele><time>2026-04-20T13:59:17.999Z</time></trkpt><trkpt lat="49.146934077051284" lon="6.423285257396617"><ele>212.6</ele><time>2026-04-20T13:59:19.999Z</time></trkpt><trkpt lat="49.146890034074424" lon="6.423167263394947"><ele>212.0</ele><time>2026-04-20T13:59:20.999Z</time></trkpt><trkpt lat="49.14683768639856" lon="6.423048141161046"><ele>211.0</ele><time>2026-04-20T13:59:21.999Z</time></trkpt><trkpt lat="49.14678393301594" lon="6.422908266329526"><ele>210.0</ele><time>2026-04-20T13:59:22.999Z</time></trkpt><trkpt lat="49.146739114224765" lon="6.4227539730805985"><ele>209.0</ele><time>2026-04-20T13:59:23.999Z</time></trkpt><trkpt lat="49.14669764605058" lon="6.422584763912694"><ele>208.0</ele><time>2026-04-20T13:59:24.999Z</time></trkpt><trkpt lat="49.14666627084425" lon="6.422393412351723"><ele>208.0</ele><time>2026-04-20T13:59:25.999Z</time></trkpt><trkpt lat="49.14665106527187" lon="6.422195702601228"><ele>208.0</ele><time>2026-04-20T13:59:26.999Z</time></trkpt><trkpt lat="49.146657233016434" lon="6.4219969050795855"><ele>208.0</ele><time>2026-04-20T13:59:27.999Z</time></trkpt><trkpt lat="49.146680568987236" lon="6.421787395288798"><ele>208.0</ele><time>2026-04-20T13:59:28.999Z</time></trkpt><trkpt lat="49.14670598837432" lon="6.4215719671529"><ele>207.25</ele><time>2026-04-20T13:59:29.999Z</time></trkpt><trkpt lat="49.146739478599024" lon="6.421363070635412"><ele>206.5</ele><time>2026-04-20T13:59:30.999Z</time></trkpt><trkpt lat="49.14677173184464" lon="6.4211603021823125"><ele>205.75</ele><time>2026-04-20T13:59:31.999Z</time></trkpt><trkpt lat="49.14680401960037" lon="6.420953370546836"><ele>205.0</ele><time>2026-04-20T13:59:32.999Z</time></trkpt><trkpt lat="49.146837877862424" lon="6.420739265926665"><ele>205.0</ele><time>2026-04-20T13:59:33.999Z</time></trkpt><trkpt lat="49.14687502975775" lon="6.420531763290458"><ele>205.0</ele><time>2026-04-20T13:59:34.999Z</time></trkpt><trkpt lat="49.14691011478503" lon="6.42033298612759"><ele>205.0</ele><time>2026-04-20T13:59:35.999Z</time></trkpt><trkpt lat="49.146943095594395" lon="6.420129810640579"><ele>205.0</ele><time>2026-04-20T13:59:36.999Z</time></trkpt><trkpt lat="49.146982666965954" lon="6.419918686160004"><ele>205.0</ele><time>2026-04-20T13:59:37.999Z</time></trkpt><trkpt lat="49.147011976377264" lon="6.419707121809801"><ele>205.0</ele><time>2026-04-20T13:59:38.999Z</time></trkpt><trkpt lat="49.14703621915515" lon="6.4194908511841025"><ele>205.0</ele><time>2026-04-20T13:59:39.999Z</time></trkpt><trkpt lat="49.147050877086215" lon="6.419278016987321"><ele>205.0</ele><time>2026-04-20T13:59:40.999Z</time></trkpt><trkpt lat="49.14704878886803" lon="6.419063493454092"><ele>205.5</ele><time>2026-04-20T13:59:41.999Z</time></trkpt><trkpt lat="49.14703788233673" lon="6.418844229570035"><ele>206.0</ele><time>2026-04-20T13:59:42.999Z</time></trkpt><trkpt lat="49.14702183485028" lon="6.418632400498396"><ele>206.5</ele><time>2026-04-20T13:59:43.999Z</time></trkpt><trkpt lat="49.14700297702983" lon="6.4184253271037095"><ele>207.0</ele><time>2026-04-20T13:59:44.999Z</time></trkpt><trkpt lat="49.14698258012489" lon="6.418217814697023"><ele>207.5</ele><time>2026-04-20T13:59:45.999Z</time></trkpt><trkpt lat="49.14696487076967" lon="6.418012137413892"><ele>208.0</ele><time>2026-04-20T13:59:46.999Z</time></trkpt><trkpt lat="49.146952023966236" lon="6.417807484781548"><ele>208.5</ele><time>2026-04-20T13:59:47.999Z</time></trkpt><trkpt lat="49.14693791837887" lon="6.417601441286616"><ele>209.0</ele><time>2026-04-20T13:59:48.999Z</time></trkpt><trkpt lat="49.14692445596985" lon="6.417395642931531"><ele>209.0</ele><time>2026-04-20T13:59:49.999Z</time></trkpt><trkpt lat="49.146905672301635" lon="6.4171835877554555"><ele>209.0</ele><time>2026-04-20T13:59:50.999Z</time></trkpt><trkpt lat="49.146892975090914" lon="6.416984445309497"><ele>209.0</ele><time>2026-04-20T13:59:51.999Z</time></trkpt><trkpt lat="49.14688292334316" lon="6.416782335048116"><ele>209.0</ele><time>2026-04-20T13:59:52.999Z</time></trkpt><trkpt lat="49.14686941971291" lon="6.416571496993269"><ele>209.5</ele><time>2026-04-20T13:59:53.999Z</time></trkpt><trkpt lat="49.146850921907564" lon="6.41636644678061"><ele>210.0</ele><time>2026-04-20T13:59:54.999Z</time></trkpt><trkpt lat="49.14683412798194" lon="6.416151811590659"><ele>210.5</ele><time>2026-04-20T13:59:55.999Z</time></trkpt><trkpt lat="49.14681819927744" lon="6.415936325574085"><ele>211.0</ele><time>2026-04-20T13:59:56.999Z</time></trkpt><trkpt lat="49.146804310095085" lon="6.415726953640343"><ele>211.25</ele><time>2026-04-20T13:59:57.999Z</time></trkpt><trkpt lat="49.146785028582066" lon="6.415518911082965"><ele>211.5</ele><time>2026-04-20T13:59:58.999Z</time></trkpt><trkpt lat="49.14676807481717" lon="6.415303848565095"><ele>211.75</ele><time>2026-04-20T13:59:59.999Z</time></trkpt><trkpt lat="49.14675190032061" lon="6.415088047825591"><ele>212.0</ele><time>2026-04-20T14:00:00.999Z</time></trkpt><trkpt lat="49.1467356756492" lon="6.4148717573713245"><ele>212.0</ele><time>2026-04-20T14:00:01.999Z</time></trkpt><trkpt lat="49.14672145760145" lon="6.414657592315502"><ele>212.0</ele><time>2026-04-20T14:00:02.999Z</time></trkpt><trkpt lat="49.14670176086272" lon="6.414436185647119"><ele>212.0</ele><time>2026-04-20T14:00:03.999Z</time></trkpt><trkpt lat="49.146685738034435" lon="6.414227207531907"><ele>212.0</ele><time>2026-04-20T14:00:04.999Z</time></trkpt><trkpt lat="49.14666960052031" lon="6.414011348355519"><ele>211.75</ele><time>2026-04-20T14:00:05.999Z</time></trkpt><trkpt lat="49.14665458781685" lon="6.4137994784520895"><ele>211.5</ele><time>2026-04-20T14:00:06.999Z</time></trkpt><trkpt lat="49.146639164024904" lon="6.41358155364946"><ele>211.25</ele><time>2026-04-20T14:00:07.999Z</time></trkpt><trkpt lat="49.146618813048214" lon="6.413365678991696"><ele>211.0</ele><time>2026-04-20T14:00:08.999Z</time></trkpt><trkpt lat="49.14660507936593" lon="6.4131532825199535"><ele>210.25</ele><time>2026-04-20T14:00:09.999Z</time></trkpt><trkpt lat="49.14658472198378" lon="6.41293522101398"><ele>209.5</ele><time>2026-04-20T14:00:10.999Z</time></trkpt><trkpt lat="49.14656796081997" lon="6.4127241042694045"><ele>208.75</ele><time>2026-04-20T14:00:11.999Z</time></trkpt><trkpt lat="49.14655604635977" lon="6.412501209417114"><ele>208.0</ele><time>2026-04-20T14:00:12.999Z</time></trkpt><trkpt lat="49.14654055248759" lon="6.412274958769818"><ele>208.0</ele><time>2026-04-20T14:00:13.999Z</time></trkpt><trkpt lat="49.146530853854266" lon="6.412044676130262"><ele>208.0</ele><time>2026-04-20T14:00:14.999Z</time></trkpt><trkpt lat="49.14651590572694" lon="6.411819918554772"><ele>208.0</ele><time>2026-04-20T14:00:15.999Z</time></trkpt><trkpt lat="49.14650353678143" lon="6.411597568847575"><ele>208.0</ele><time>2026-04-20T14:00:16.999Z</time></trkpt><trkpt lat="49.14649448973698" lon="6.411382845277625"><ele>208.0</ele><time>2026-04-20T14:00:17.999Z</time></trkpt><trkpt lat="49.1464749653115" lon="6.4111619802297755"><ele>208.0</ele><time>2026-04-20T14:00:18.999Z</time></trkpt><trkpt lat="49.14645535419089" lon="6.410943927982038"><ele>208.0</ele><time>2026-04-20T14:00:19.999Z</time></trkpt><trkpt lat="49.146432073762135" lon="6.410721570583009"><ele>208.0</ele><time>2026-04-20T14:00:20.999Z</time></trkpt><trkpt lat="49.14641070974452" lon="6.4105020017319125"><ele>208.5</ele><time>2026-04-20T14:00:21.999Z</time></trkpt><trkpt lat="49.14638921112564" lon="6.410289377362593"><ele>209.0</ele><time>2026-04-20T14:00:22.999Z</time></trkpt><trkpt lat="49.146369140449785" lon="6.410087228478529"><ele>209.5</ele><time>2026-04-20T14:00:23.999Z</time></trkpt><trkpt lat="49.14634987890529" lon="6.409874961722872"><ele>210.0</ele><time>2026-04-20T14:00:25Z</time></trkpt><trkpt lat="49.1463307103611" lon="6.409653917640083"><ele>210.75</ele><time>2026-04-20T14:00:26Z</time></trkpt><trkpt lat="49.1463123433569" lon="6.409431050023393"><ele>211.5</ele><time>2026-04-20T14:00:27Z</time></trkpt><trkpt lat="49.146301839315804" lon="6.409211365866445"><ele>212.25</ele><time>2026-04-20T14:00:28Z</time></trkpt><trkpt lat="49.146290597120114" lon="6.408986819491231"><ele>213.0</ele><time>2026-04-20T14:00:29Z</time></trkpt><trkpt lat="49.14627932455455" lon="6.40876556108662"><ele>213.5</ele><time>2026-04-20T14:00:30Z</time></trkpt><trkpt lat="49.14626733919499" lon="6.408549868303811"><ele>214.0</ele><time>2026-04-20T14:00:31Z</time></trkpt><trkpt lat="49.14625631281719" lon="6.408343289419878"><ele>214.5</ele><time>2026-04-20T14:00:32Z</time></trkpt><trkpt lat="49.1462338293421" lon="6.408123147773548"><ele>215.0</ele><time>2026-04-20T14:00:33Z</time></trkpt><trkpt lat="49.146208926194966" lon="6.407905040662127"><ele>215.0</ele><time>2026-04-20T14:00:34Z</time></trkpt><trkpt lat="49.146184154273186" lon="6.407697250300294"><ele>215.0</ele><time>2026-04-20T14:00:35Z</time></trkpt><trkpt lat="49.14615845571979" lon="6.407486617929884"><ele>215.0</ele><time>2026-04-20T14:00:36Z</time></trkpt><trkpt lat="49.1461268584139" lon="6.407266869772938"><ele>215.0</ele><time>2026-04-20T14:00:37Z</time></trkpt><trkpt lat="49.14609173904959" lon="6.407044328524961"><ele>214.75</ele><time>2026-04-20T14:00:38Z</time></trkpt><trkpt lat="49.14605806518465" lon="6.406827091847146"><ele>214.5</ele><time>2026-04-20T14:00:39Z</time></trkpt><trkpt lat="49.14602414717067" lon="6.406613879050339"><ele>214.25</ele><time>2026-04-20T14:00:40Z</time></trkpt><trkpt lat="49.145991607847144" lon="6.4063994297813265"><ele>214.0</ele><time>2026-04-20T14:00:41Z</time></trkpt><trkpt lat="49.145959879800785" lon="6.406187392736956"><ele>213.75</ele><time>2026-04-20T14:00:42Z</time></trkpt><trkpt lat="49.145922079720236" lon="6.405969810158781"><ele>213.5</ele><time>2026-04-20T14:00:43Z</time></trkpt><trkpt lat="49.14588922123366" lon="6.405752462826353"><ele>213.25</ele><time>2026-04-20T14:00:44Z</time></trkpt><trkpt lat="49.145856237040945" lon="6.405533971284382"><ele>213.0</ele><time>2026-04-20T14:00:45Z</time></trkpt><trkpt lat="49.145826876197326" lon="6.40532241758097"><ele>212.5</ele><time>2026-04-20T14:00:46Z</time></trkpt><trkpt lat="49.14580240293424" lon="6.40510556522348"><ele>212.0</ele><time>2026-04-20T14:00:47Z</time></trkpt><trkpt lat="49.1457792336338" lon="6.404893900936374"><ele>211.5</ele><time>2026-04-20T14:00:48Z</time></trkpt><trkpt lat="49.145757376703116" lon="6.404676929475025"><ele>211.0</ele><time>2026-04-20T14:00:49Z</time></trkpt><trkpt lat="49.14573800173983" lon="6.40446051439072"><ele>210.5</ele><time>2026-04-20T14:00:50Z</time></trkpt><trkpt lat="49.145719170251525" lon="6.404245563571322"><ele>210.0</ele><time>2026-04-20T14:00:51Z</time></trkpt><trkpt lat="49.14569962496725" lon="6.40401840699581"><ele>209.5</ele><time>2026-04-20T14:00:52Z</time></trkpt><trkpt lat="49.145678944550376" lon="6.403798982727734"><ele>209.0</ele><time>2026-04-20T14:00:53Z</time></trkpt><trkpt lat="49.14565729717702" lon="6.403576460975465"><ele>208.25</ele><time>2026-04-20T14:00:54Z</time></trkpt><trkpt lat="49.14563568714456" lon="6.403354245427954"><ele>207.5</ele><time>2026-04-20T14:00:55Z</time></trkpt><trkpt lat="49.14561395037008" lon="6.403145478619971"><ele>206.75</ele><time>2026-04-20T14:00:56Z</time></trkpt><trkpt lat="49.145591576141776" lon="6.402927468278894"><ele>206.0</ele><time>2026-04-20T14:00:57Z</time></trkpt><trkpt lat="49.145568102248674" lon="6.402714918874965"><ele>206.0</ele><time>2026-04-20T14:00:58Z</time></trkpt><trkpt lat="49.14555025303967" lon="6.402496095883396"><ele>206.0</ele><time>2026-04-20T14:00:59Z</time></trkpt><trkpt lat="49.14553163029153" lon="6.4022775915599395"><ele>206.0</ele><time>2026-04-20T14:01:00Z</time></trkpt><trkpt lat="49.145509845927826" lon="6.402048131686261"><ele>206.0</ele><time>2026-04-20T14:01:01Z</time></trkpt><trkpt lat="49.14548463591569" lon="6.401828960922094"><ele>206.5</ele><time>2026-04-20T14:01:02Z</time></trkpt><trkpt lat="49.14546481211525" lon="6.401605939736496"><ele>207.0</ele><time>2026-04-20T14:01:03Z</time></trkpt><trkpt lat="49.14545135668338" lon="6.4013795385784285"><ele>207.5</ele><time>2026-04-20T14:01:04Z</time></trkpt><trkpt lat="49.14543299726531" lon="6.401153864539842"><ele>208.0</ele><time>2026-04-20T14:01:05Z</time></trkpt><trkpt lat="49.14541170314234" lon="6.40092494451241"><ele>208.5</ele><time>2026-04-20T14:01:06Z</time></trkpt><trkpt lat="49.14539293298301" lon="6.4007097169298035"><ele>209.0</ele><time>2026-04-20T14:01:07Z</time></trkpt><trkpt lat="49.14537386842147" lon="6.400493355775224"><ele>209.5</ele><time>2026-04-20T14:01:08Z</time></trkpt><trkpt lat="49.145351501885195" lon="6.400264847149711"><ele>210.0</ele><time>2026-04-20T14:01:09Z</time></trkpt><trkpt lat="49.145330409343316" lon="6.4000378551341"><ele>210.25</ele><time>2026-04-20T14:01:10Z</time></trkpt><trkpt lat="49.14531118366596" lon="6.399813339902667"><ele>210.5</ele><time>2026-04-20T14:01:11Z</time></trkpt><trkpt lat="49.14529444861186" lon="6.399584814103976"><ele>210.75</ele><time>2026-04-20T14:01:12Z</time></trkpt><trkpt lat="49.14527806042998" lon="6.39936424187316"><ele>211.0</ele><time>2026-04-20T14:01:13Z</time></trkpt><trkpt lat="49.145262685799" lon="6.399146150451622"><ele>211.0</ele><time>2026-04-20T14:01:14Z</time></trkpt><trkpt lat="49.145245691797385" lon="6.398911373470693"><ele>211.0</ele><time>2026-04-20T14:01:15Z</time></trkpt><trkpt lat="49.14523122153185" lon="6.398680639751008"><ele>211.0</ele><time>2026-04-20T14:01:16Z</time></trkpt><trkpt lat="49.1452186710094" lon="6.398454492961152"><ele>211.0</ele><time>2026-04-20T14:01:16.999Z</time></trkpt><trkpt lat="49.14521022463063" lon="6.398230133826566"><ele>211.0</ele><time>2026-04-20T14:01:17.999Z</time></trkpt><trkpt lat="49.14520537182603" lon="6.398013581216467"><ele>211.0</ele><time>2026-04-20T14:01:18.999Z</time></trkpt><trkpt lat="49.1452073329629" lon="6.397793015887341"><ele>211.0</ele><time>2026-04-20T14:01:19.999Z</time></trkpt><trkpt lat="49.14521390354728" lon="6.397567729924875"><ele>210.75</ele><time>2026-04-20T14:01:20.999Z</time></trkpt><trkpt lat="49.14522325925895" lon="6.397342764191334"><ele>210.5</ele><time>2026-04-20T14:01:21.999Z</time></trkpt><trkpt lat="49.14523691042256" lon="6.39711573323475"><ele>210.25</ele><time>2026-04-20T14:01:22.999Z</time></trkpt><trkpt lat="49.14525502032319" lon="6.396888357528807"><ele>210.0</ele><time>2026-04-20T14:01:23.999Z</time></trkpt><trkpt lat="49.145271870856064" lon="6.396665968453943"><ele>210.0</ele><time>2026-04-20T14:01:24.999Z</time></trkpt><trkpt lat="49.1452908601362" lon="6.396445237031197"><ele>210.0</ele><time>2026-04-20T14:01:25.999Z</time></trkpt><trkpt lat="49.14530807115498" lon="6.396224555961595"><ele>210.0</ele><time>2026-04-20T14:01:26.999Z</time></trkpt><trkpt lat="49.145324715989304" lon="6.396001763901239"><ele>210.0</ele><time>2026-04-20T14:01:27.999Z</time></trkpt><trkpt lat="49.1453546042316" lon="6.395775765021895"><ele>209.5</ele><time>2026-04-20T14:01:28.999Z</time></trkpt><trkpt lat="49.145351905118616" lon="6.395553869978249"><ele>209.0</ele><time>2026-04-20T14:01:29.999Z</time></trkpt><trkpt lat="49.14536024224507" lon="6.39532704428584"><ele>208.5</ele><time>2026-04-20T14:01:30.999Z</time></trkpt><trkpt lat="49.14536393359008" lon="6.395104810218652"><ele>208.0</ele><time>2026-04-20T14:01:31.999Z</time></trkpt><trkpt lat="49.14536390471992" lon="6.394878458952346"><ele>208.0</ele><time>2026-04-20T14:01:32.999Z</time></trkpt><trkpt lat="49.145376827807816" lon="6.394646896273168"><ele>208.0</ele><time>2026-04-20T14:01:33.999Z</time></trkpt><trkpt lat="49.145349779031235" lon="6.394416854451894"><ele>208.0</ele><time>2026-04-20T14:01:34.999Z</time></trkpt><trkpt lat="49.14533467264547" lon="6.394186800021394"><ele>208.0</ele><time>2026-04-20T14:01:35.999Z</time></trkpt><trkpt lat="49.145316138036826" lon="6.393956750951731"><ele>208.0</ele><time>2026-04-20T14:01:36.999Z</time></trkpt><trkpt lat="49.14528993357028" lon="6.393735268634958"><ele>208.0</ele><time>2026-04-20T14:01:37.999Z</time></trkpt><trkpt lat="49.145263159091876" lon="6.393515879838944"><ele>208.0</ele><time>2026-04-20T14:01:38.999Z</time></trkpt><trkpt lat="49.14523230798629" lon="6.39329491551074"><ele>208.25</ele><time>2026-04-20T14:01:39.999Z</time></trkpt><trkpt lat="49.14520122592735" lon="6.39308493341611"><ele>208.5</ele><time>2026-04-20T14:01:40.999Z</time></trkpt><trkpt lat="49.145165049150656" lon="6.392861423100162"><ele>208.75</ele><time>2026-04-20T14:01:41.999Z</time></trkpt><trkpt lat="49.14512223013254" lon="6.392635211227144"><ele>209.0</ele><time>2026-04-20T14:01:42.999Z</time></trkpt><trkpt lat="49.14508068212706" lon="6.392408288732522"><ele>210.0</ele><time>2026-04-20T14:01:43.999Z</time></trkpt><trkpt lat="49.14504726472847" lon="6.392202783766399"><ele>211.0</ele><time>2026-04-20T14:01:44.999Z</time></trkpt><trkpt lat="49.14501198250277" lon="6.391990646758284"><ele>212.0</ele><time>2026-04-20T14:01:45.999Z</time></trkpt><trkpt lat="49.1449743726828" lon="6.3917717790132444"><ele>213.0</ele><time>2026-04-20T14:01:46.999Z</time></trkpt><trkpt lat="49.14493735748367" lon="6.391550525307396"><ele>212.5</ele><time>2026-04-20T14:01:47.999Z</time></trkpt><trkpt lat="49.14490044049503" lon="6.391329260084104"><ele>212.0</ele><time>2026-04-20T14:01:48.999Z</time></trkpt><trkpt lat="49.14486393852274" lon="6.391118878863018"><ele>211.5</ele><time>2026-04-20T14:01:49.999Z</time></trkpt><trkpt lat="49.14484795222651" lon="6.3908933849041984"><ele>211.0</ele><time>2026-04-20T14:01:50.999Z</time></trkpt><trkpt lat="49.14479734946161" lon="6.390664662552413"><ele>210.5</ele><time>2026-04-20T14:01:51.999Z</time></trkpt><trkpt lat="49.14476293013772" lon="6.39044208891778"><ele>210.0</ele><time>2026-04-20T14:01:52.999Z</time></trkpt><trkpt lat="49.14472661000806" lon="6.390229523217407"><ele>209.5</ele><time>2026-04-20T14:01:53.999Z</time></trkpt><trkpt lat="49.14468277236635" lon="6.390012042153206"><ele>209.0</ele><time>2026-04-20T14:01:54.999Z</time></trkpt><trkpt lat="49.14463779225342" lon="6.3897904205218525"><ele>209.0</ele><time>2026-04-20T14:01:55.999Z</time></trkpt><trkpt lat="49.14458842232242" lon="6.389572840975614"><ele>209.0</ele><time>2026-04-20T14:01:56.999Z</time></trkpt><trkpt lat="49.144537795754786" lon="6.389356777877323"><ele>209.0</ele><time>2026-04-20T14:01:57.999Z</time></trkpt><trkpt lat="49.14448506474471" lon="6.389137858763094"><ele>209.0</ele><time>2026-04-20T14:01:58.999Z</time></trkpt><trkpt lat="49.14443275384277" lon="6.3889273405313505"><ele>209.0</ele><time>2026-04-20T14:01:59.999Z</time></trkpt><trkpt lat="49.14437457439913" lon="6.388716012488459"><ele>209.0</ele><time>2026-04-20T14:02:00.999Z</time></trkpt><trkpt lat="49.144320141886524" lon="6.388515345911205"><ele>209.0</ele><time>2026-04-20T14:02:01.999Z</time></trkpt><trkpt lat="49.14426456939561" lon="6.388300720754761"><ele>209.25</ele><time>2026-04-20T14:02:02.999Z</time></trkpt><trkpt lat="49.14421047343617" lon="6.3880819210644715"><ele>209.5</ele><time>2026-04-20T14:02:03.999Z</time></trkpt><trkpt lat="49.14416364214667" lon="6.3878724860424745"><ele>209.75</ele><time>2026-04-20T14:02:04.999Z</time></trkpt><trkpt lat="49.144120992115774" lon="6.387661513247128"><ele>210.0</ele><time>2026-04-20T14:02:05.999Z</time></trkpt><trkpt lat="49.14407877443334" lon="6.3874407580762975"><ele>209.75</ele><time>2026-04-20T14:02:06.999Z</time></trkpt><trkpt lat="49.14403782956939" lon="6.387220209559749"><ele>209.5</ele><time>2026-04-20T14:02:07.999Z</time></trkpt><trkpt lat="49.144003285653824" lon="6.387002864650356"><ele>209.25</ele><time>2026-04-20T14:02:08.999Z</time></trkpt><trkpt lat="49.143968459127365" lon="6.386784662505335"><ele>209.0</ele><time>2026-04-20T14:02:09.999Z</time></trkpt><trkpt lat="49.14393384842579" lon="6.386569156533223"><ele>209.5</ele><time>2026-04-20T14:02:10.999Z</time></trkpt><trkpt lat="49.143898394684655" lon="6.386353865868705"><ele>210.0</ele><time>2026-04-20T14:02:11.999Z</time></trkpt><trkpt lat="49.14386601676329" lon="6.386147409992806"><ele>210.5</ele><time>2026-04-20T14:02:12.999Z</time></trkpt><trkpt lat="49.14383291792061" lon="6.385939709014834"><ele>211.0</ele><time>2026-04-20T14:02:13.999Z</time></trkpt><trkpt lat="49.143801330175435" lon="6.385737764550962"><ele>211.0</ele><time>2026-04-20T14:02:14.999Z</time></trkpt><trkpt lat="49.14376737760843" lon="6.385523070874293"><ele>211.0</ele><time>2026-04-20T14:02:15.999Z</time></trkpt><trkpt lat="49.14372952101041" lon="6.385314699054012"><ele>211.0</ele><time>2026-04-20T14:02:16.999Z</time></trkpt><trkpt lat="49.143685331161976" lon="6.385097790805726"><ele>211.0</ele><time>2026-04-20T14:02:17.999Z</time></trkpt><trkpt lat="49.14363646095859" lon="6.384899673878872"><ele>211.5</ele><time>2026-04-20T14:02:18.999Z</time></trkpt><trkpt lat="49.14359433435533" lon="6.3847081312935465"><ele>212.0</ele><time>2026-04-20T14:02:19.999Z</time></trkpt><trkpt lat="49.143557080031904" lon="6.384504731112551"><ele>212.5</ele><time>2026-04-20T14:02:20.999Z</time></trkpt><trkpt lat="49.14351994857918" lon="6.384295749465479"><ele>213.0</ele><time>2026-04-20T14:02:21.999Z</time></trkpt><trkpt lat="49.143492079081376" lon="6.384109465513021"><ele>213.75</ele><time>2026-04-20T14:02:22.999Z</time></trkpt><trkpt lat="49.14345903456751" lon="6.383931622041305"><ele>214.5</ele><time>2026-04-20T14:02:23.999Z</time></trkpt><trkpt lat="49.14342721789214" lon="6.383754190175768"><ele>215.25</ele><time>2026-04-20T14:02:24.999Z</time></trkpt><trkpt lat="49.143399622903615" lon="6.3835871591734765"><ele>216.0</ele><time>2026-04-20T14:02:25.999Z</time></trkpt><trkpt lat="49.14337210659435" lon="6.383432203129081"><ele>216.4</ele><time>2026-04-20T14:02:26.999Z</time></trkpt><trkpt lat="49.143348248748744" lon="6.383280073100724"><ele>216.8</ele><time>2026-04-20T14:02:27.999Z</time></trkpt><trkpt lat="49.14332670146679" lon="6.3831342849167845"><ele>217.20000000000002</ele><time>2026-04-20T14:02:28.999Z</time></trkpt><trkpt lat="49.143309787722636" lon="6.382990431340901"><ele>217.60000000000002</ele><time>2026-04-20T14:02:29.999Z</time></trkpt><trkpt lat="49.143287395965984" lon="6.382824336169184"><ele>218.0</ele><time>2026-04-20T14:02:31Z</time></trkpt><trkpt lat="49.14326567656675" lon="6.382659775445957"><ele>218.25</ele><time>2026-04-20T14:02:32Z</time></trkpt><trkpt lat="49.143240322467186" lon="6.382485824703653"><ele>218.5</ele><time>2026-04-20T14:02:33Z</time></trkpt><trkpt lat="49.14321775345111" lon="6.382302316386965"><ele>218.75</ele><time>2026-04-20T14:02:34Z</time></trkpt><trkpt lat="49.14319788260179" lon="6.382117892084231"><ele>219.0</ele><time>2026-04-20T14:02:35Z</time></trkpt><trkpt lat="49.14317300988013" lon="6.3819274941156445"><ele>218.5</ele><time>2026-04-20T14:02:36Z</time></trkpt><trkpt lat="49.143145899469616" lon="6.381737890831777"><ele>218.0</ele><time>2026-04-20T14:02:37Z</time></trkpt><trkpt lat="49.143115144595896" lon="6.381559579930849"><ele>217.5</ele><time>2026-04-20T14:02:38Z</time></trkpt><trkpt lat="49.14308543451202" lon="6.381371998941315"><ele>217.0</ele><time>2026-04-20T14:02:39Z</time></trkpt><trkpt lat="49.143065476329376" lon="6.381180390534571"><ele>217.0</ele><time>2026-04-20T14:02:40Z</time></trkpt><trkpt lat="49.143045149495464" lon="6.380981843031264"><ele>217.0</ele><time>2026-04-20T14:02:41Z</time></trkpt><trkpt lat="49.14302871872954" lon="6.380775706566934"><ele>217.0</ele><time>2026-04-20T14:02:42Z</time></trkpt><trkpt lat="49.14302061590908" lon="6.380584968455931"><ele>217.0</ele><time>2026-04-20T14:02:43Z</time></trkpt><trkpt lat="49.143020298604874" lon="6.380408123539002"><ele>217.25</ele><time>2026-04-20T14:02:44Z</time></trkpt><trkpt lat="49.14301907758626" lon="6.380230432233289"><ele>217.5</ele><time>2026-04-20T14:02:45Z</time></trkpt><trkpt lat="49.143019915773074" lon="6.380041995123516"><ele>217.75</ele><time>2026-04-20T14:02:46Z</time></trkpt><trkpt lat="49.14301933552077" lon="6.379848935450897"><ele>218.0</ele><time>2026-04-20T14:02:47Z</time></trkpt><trkpt lat="49.143021597051515" lon="6.37967134643989"><ele>218.2</ele><time>2026-04-20T14:02:48Z</time></trkpt><trkpt lat="49.14302578054496" lon="6.379503467354071"><ele>218.4</ele><time>2026-04-20T14:02:49Z</time></trkpt><trkpt lat="49.14302049712962" lon="6.379333280665"><ele>218.59999999999997</ele><time>2026-04-20T14:02:50Z</time></trkpt><trkpt lat="49.143007544743575" lon="6.379168993470156"><ele>218.79999999999998</ele><time>2026-04-20T14:02:51Z</time></trkpt><trkpt lat="49.14296482520117" lon="6.379001926700129"><ele>219.0</ele><time>2026-04-20T14:02:52Z</time></trkpt><trkpt lat="49.1428963370115" lon="6.378839177107358"><ele>219.25</ele><time>2026-04-20T14:02:53Z</time></trkpt><trkpt lat="49.14280649637881" lon="6.378704783940339"><ele>219.5</ele><time>2026-04-20T14:02:54Z</time></trkpt><trkpt lat="49.14269614320463" lon="6.378593776619452"><ele>219.75</ele><time>2026-04-20T14:02:55Z</time></trkpt><trkpt lat="49.142592363267255" lon="6.3784718185010885"><ele>220.0</ele><time>2026-04-20T14:02:56Z</time></trkpt><trkpt lat="49.14248859198337" lon="6.378346700836963"><ele>220.0</ele><time>2026-04-20T14:02:57Z</time></trkpt><trkpt lat="49.14239209735727" lon="6.378228212273403"><ele>220.0</ele><time>2026-04-20T14:02:58Z</time></trkpt><trkpt lat="49.14228933949078" lon="6.378103084378218"><ele>220.0</ele><time>2026-04-20T14:02:59Z</time></trkpt><trkpt lat="49.14219458332808" lon="6.377986566395635"><ele>220.0</ele><time>2026-04-20T14:03:00Z</time></trkpt><trkpt lat="49.14210579818414" lon="6.37787615692543"><ele>220.16666666666666</ele><time>2026-04-20T14:03:01Z</time></trkpt><trkpt lat="49.14202900636333" lon="6.37777875897974"><ele>220.33333333333331</ele><time>2026-04-20T14:03:02Z</time></trkpt><trkpt lat="49.1419678612537" lon="6.377696546629581"><ele>220.5</ele><time>2026-04-20T14:03:03Z</time></trkpt><trkpt lat="49.141908610833255" lon="6.377617818956095"><ele>220.66666666666669</ele><time>2026-04-20T14:03:04Z</time></trkpt><trkpt lat="49.14187308964067" lon="6.37753444631044"><ele>220.83333333333334</ele><time>2026-04-20T14:03:05Z</time></trkpt><trkpt lat="49.14180731868674" lon="6.377430752002906"><ele>221.0</ele><time>2026-04-20T14:03:07Z</time></trkpt><trkpt lat="49.14167846122961" lon="6.377485280598119"><ele>221.00000000000003</ele><time>2026-04-20T14:03:09Z</time></trkpt><trkpt lat="49.141619423930194" lon="6.377558956223561"><ele>221.0</ele><time>2026-04-20T14:03:10Z</time></trkpt><trkpt lat="49.14154999746935" lon="6.377618267106293"><ele>221.0</ele><time>2026-04-20T14:03:11Z</time></trkpt><trkpt lat="49.14146593099192" lon="6.377655658918779"><ele>221.0</ele><time>2026-04-20T14:03:12Z</time></trkpt><trkpt lat="49.141371063907386" lon="6.377688286282967"><ele>221.00000000000003</ele><time>2026-04-20T14:03:13Z</time></trkpt><trkpt lat="49.14127164345717" lon="6.377710608617664"><ele>221.0</ele><time>2026-04-20T14:03:14Z</time></trkpt><trkpt lat="49.14116591771477" lon="6.377729266537009"><ele>219.75</ele><time>2026-04-20T14:03:15Z</time></trkpt><trkpt lat="49.14105803313927" lon="6.37775477643131"><ele>218.5</ele><time>2026-04-20T14:03:16Z</time></trkpt><trkpt lat="49.140939565892246" lon="6.37778479467562"><ele>217.25</ele><time>2026-04-20T14:03:17Z</time></trkpt><trkpt lat="49.14082102359772" lon="6.377813778915382"><ele>216.0</ele><time>2026-04-20T14:03:18Z</time></trkpt><trkpt lat="49.14070034783236" lon="6.37783890748442"><ele>215.75</ele><time>2026-04-20T14:03:19Z</time></trkpt><trkpt lat="49.14057753591316" lon="6.377876523765315"><ele>215.5</ele><time>2026-04-20T14:03:20Z</time></trkpt><trkpt lat="49.14046530889388" lon="6.3779196549428905"><ele>215.25</ele><time>2026-04-20T14:03:21Z</time></trkpt><trkpt lat="49.140346985491824" lon="6.377968306392571"><ele>215.0</ele><time>2026-04-20T14:03:21.999Z</time></trkpt><trkpt lat="49.14022834965874" lon="6.378018649135296"><ele>215.25</ele><time>2026-04-20T14:03:22.999Z</time></trkpt><trkpt lat="49.14010948464545" lon="6.378069372504281"><ele>215.5</ele><time>2026-04-20T14:03:23.999Z</time></trkpt><trkpt lat="49.139992418000745" lon="6.378114494409327"><ele>215.75</ele><time>2026-04-20T14:03:24.999Z</time></trkpt><trkpt lat="49.139869836671885" lon="6.378160271925646"><ele>216.0</ele><time>2026-04-20T14:03:25.999Z</time></trkpt><trkpt lat="49.139737890612416" lon="6.378198587296292"><ele>216.0</ele><time>2026-04-20T14:03:26.999Z</time></trkpt><trkpt lat="49.1396031334455" lon="6.378228189578857"><ele>216.0</ele><time>2026-04-20T14:03:27.999Z</time></trkpt><trkpt lat="49.139465253437905" lon="6.378231256862022"><ele>216.0</ele><time>2026-04-20T14:03:28.999Z</time></trkpt><trkpt lat="49.139326142498426" lon="6.378233878393851"><ele>216.0</ele><time>2026-04-20T14:03:29.999Z</time></trkpt><trkpt lat="49.13917966348004" lon="6.378247239624667"><ele>217.25</ele><time>2026-04-20T14:03:30.999Z</time></trkpt><trkpt lat="49.13903404282739" lon="6.378255445783497"><ele>218.5</ele><time>2026-04-20T14:03:31.999Z</time></trkpt><trkpt lat="49.138897408772344" lon="6.378314022679278"><ele>219.75</ele><time>2026-04-20T14:03:32.999Z</time></trkpt><trkpt lat="49.13875794210711" lon="6.378365641943078"><ele>221.0</ele><time>2026-04-20T14:03:33.999Z</time></trkpt><trkpt lat="49.13861457735367" lon="6.378420716001592"><ele>221.0</ele><time>2026-04-20T14:03:34.999Z</time></trkpt><trkpt lat="49.13847205194895" lon="6.378485185363536"><ele>221.0</ele><time>2026-04-20T14:03:35.999Z</time></trkpt><trkpt lat="49.138333596125086" lon="6.378553839335025"><ele>221.0</ele><time>2026-04-20T14:03:36.999Z</time></trkpt><trkpt lat="49.138199320654415" lon="6.378618946105076"><ele>221.0</ele><time>2026-04-20T14:03:37.999Z</time></trkpt><trkpt lat="49.138066232059025" lon="6.378697201051301"><ele>221.75</ele><time>2026-04-20T14:03:38.999Z</time></trkpt><trkpt lat="49.13793401492739" lon="6.378763959705524"><ele>222.5</ele><time>2026-04-20T14:03:39.999Z</time></trkpt><trkpt lat="49.137806226514215" lon="6.378832362810246"><ele>223.25</ele><time>2026-04-20T14:03:40.999Z</time></trkpt><trkpt lat="49.137676808546935" lon="6.378904507939217"><ele>224.0</ele><time>2026-04-20T14:03:41.999Z</time></trkpt><trkpt lat="49.13754624323508" lon="6.3789782958602395"><ele>222.25</ele><time>2026-04-20T14:03:42.999Z</time></trkpt><trkpt lat="49.13742514935883" lon="6.3790609458723475"><ele>220.5</ele><time>2026-04-20T14:03:43.999Z</time></trkpt><trkpt lat="49.13729232869753" lon="6.379143530117426"><ele>218.75</ele><time>2026-04-20T14:03:44.999Z</time></trkpt><trkpt lat="49.1371673130367" lon="6.379237098354056"><ele>217.0</ele><time>2026-04-20T14:03:45.999Z</time></trkpt><trkpt lat="49.13704100745915" lon="6.37933698841614"><ele>217.0</ele><time>2026-04-20T14:03:46.999Z</time></trkpt><trkpt lat="49.13691822771141" lon="6.379421713101286"><ele>217.0</ele><time>2026-04-20T14:03:47.999Z</time></trkpt><trkpt lat="49.13679348750979" lon="6.379500889586098"><ele>217.0</ele><time>2026-04-20T14:03:48.999Z</time></trkpt><trkpt lat="49.13666741801651" lon="6.379570134163758"><ele>217.0</ele><time>2026-04-20T14:03:49.999Z</time></trkpt><trkpt lat="49.13655262723481" lon="6.379640653585959"><ele>216.66666666666666</ele><time>2026-04-20T14:03:50.999Z</time></trkpt><trkpt lat="49.13646989107326" lon="6.379700149608155"><ele>216.33333333333331</ele><time>2026-04-20T14:03:51.999Z</time></trkpt><trkpt lat="49.13641066171556" lon="6.3797467041613976"><ele>216.0</ele><time>2026-04-20T14:03:52.999Z</time></trkpt><trkpt lat="49.13633401599926" lon="6.379892287654726"><ele>215.66666666666669</ele><time>2026-04-20T14:03:54.999Z</time></trkpt><trkpt lat="49.13630692776762" lon="6.380005264939819"><ele>215.33333333333334</ele><time>2026-04-20T14:03:55.999Z</time></trkpt><trkpt lat="49.13629482072642" lon="6.380132828292493"><ele>215.0</ele><time>2026-04-20T14:03:56.999Z</time></trkpt><trkpt lat="49.136292791655194" lon="6.380281843742128"><ele>215.0</ele><time>2026-04-20T14:03:57.999Z</time></trkpt><trkpt lat="49.13631394623731" lon="6.3804457737863105"><ele>215.0</ele><time>2026-04-20T14:03:58.999Z</time></trkpt><trkpt lat="49.13634799316954" lon="6.380602521520392"><ele>215.0</ele><time>2026-04-20T14:03:59.999Z</time></trkpt><trkpt lat="49.13638431441089" lon="6.3807659308408295"><ele>215.0</ele><time>2026-04-20T14:04:00.999Z</time></trkpt><trkpt lat="49.136429613172815" lon="6.380942458808689"><ele>213.75</ele><time>2026-04-20T14:04:01.999Z</time></trkpt><trkpt lat="49.136473488825835" lon="6.381131332803638"><ele>212.5</ele><time>2026-04-20T14:04:02.999Z</time></trkpt><trkpt lat="49.13651754839572" lon="6.381322596682102"><ele>211.25</ele><time>2026-04-20T14:04:03.999Z</time></trkpt><trkpt lat="49.13656022344713" lon="6.381510513350851"><ele>210.0</ele><time>2026-04-20T14:04:04.999Z</time></trkpt><trkpt lat="49.13660355270179" lon="6.38171549630649"><ele>209.75</ele><time>2026-04-20T14:04:05.999Z</time></trkpt><trkpt lat="49.13665304058817" lon="6.381917523351961"><ele>209.5</ele><time>2026-04-20T14:04:06.999Z</time></trkpt><trkpt lat="49.13670500549035" lon="6.382127995340959"><ele>209.25</ele><time>2026-04-20T14:04:07.999Z</time></trkpt><trkpt lat="49.13675049824458" lon="6.382332319677104"><ele>209.0</ele><time>2026-04-20T14:04:08.999Z</time></trkpt><trkpt lat="49.13679284285026" lon="6.382530629081025"><ele>208.5</ele><time>2026-04-20T14:04:09.999Z</time></trkpt><trkpt lat="49.13683213348358" lon="6.3827266366336355"><ele>208.0</ele><time>2026-04-20T14:04:10.999Z</time></trkpt><trkpt lat="49.136863107965546" lon="6.382942938348524"><ele>207.5</ele><time>2026-04-20T14:04:11.999Z</time></trkpt><trkpt lat="49.13687137479719" lon="6.383154396951619"><ele>207.0</ele><time>2026-04-20T14:04:12.999Z</time></trkpt><trkpt lat="49.136857563819035" lon="6.383362011908233"><ele>207.0</ele><time>2026-04-20T14:04:13.999Z</time></trkpt><trkpt lat="49.13681141887962" lon="6.383574257321306"><ele>207.0</ele><time>2026-04-20T14:04:14.999Z</time></trkpt><trkpt lat="49.1367287404338" lon="6.383768818547071"><ele>207.0</ele><time>2026-04-20T14:04:15.999Z</time></trkpt><trkpt lat="49.13665085254091" lon="6.383961674359106"><ele>207.0</ele><time>2026-04-20T14:04:16.999Z</time></trkpt><trkpt lat="49.13656909480151" lon="6.384155087426818"><ele>207.0</ele><time>2026-04-20T14:04:17.999Z</time></trkpt><trkpt lat="49.13649736401206" lon="6.384347557761075"><ele>207.0</ele><time>2026-04-20T14:04:18.999Z</time></trkpt><trkpt lat="49.13642062756783" lon="6.384542930771577"><ele>207.0</ele><time>2026-04-20T14:04:19.999Z</time></trkpt><trkpt lat="49.136352136497386" lon="6.3847357747121025"><ele>207.0</ele><time>2026-04-20T14:04:20.999Z</time></trkpt><trkpt lat="49.13627541340667" lon="6.3849205284213175"><ele>207.25</ele><time>2026-04-20T14:04:21.999Z</time></trkpt><trkpt lat="49.13620339636946" lon="6.385111850493195"><ele>207.5</ele><time>2026-04-20T14:04:22.999Z</time></trkpt><trkpt lat="49.136136847807876" lon="6.385293763619173"><ele>207.75</ele><time>2026-04-20T14:04:23.999Z</time></trkpt><trkpt lat="49.13606900346199" lon="6.385478691508945"><ele>208.0</ele><time>2026-04-20T14:04:24.999Z</time></trkpt><trkpt lat="49.1359967021135" lon="6.385676001790866"><ele>208.25</ele><time>2026-04-20T14:04:25.999Z</time></trkpt><trkpt lat="49.13592490617715" lon="6.385866556728815"><ele>208.5</ele><time>2026-04-20T14:04:26.999Z</time></trkpt><trkpt lat="49.13585119685922" lon="6.386060549105328"><ele>208.75</ele><time>2026-04-20T14:04:27.999Z</time></trkpt><trkpt lat="49.13577818681973" lon="6.386249302067524"><ele>209.0</ele><time>2026-04-20T14:04:28.999Z</time></trkpt><trkpt lat="49.13570550105586" lon="6.386436659547628"><ele>209.0</ele><time>2026-04-20T14:04:29.999Z</time></trkpt><trkpt lat="49.135630996938126" lon="6.38662761949136"><ele>209.0</ele><time>2026-04-20T14:04:30.999Z</time></trkpt><trkpt lat="49.13556034104355" lon="6.386814439404797"><ele>209.0</ele><time>2026-04-20T14:04:31.999Z</time></trkpt><trkpt lat="49.13548670200379" lon="6.387011195986293"><ele>209.0</ele><time>2026-04-20T14:04:32.999Z</time></trkpt><trkpt lat="49.13541387739612" lon="6.3872172116430495"><ele>209.25</ele><time>2026-04-20T14:04:33.999Z</time></trkpt><trkpt lat="49.13534054648856" lon="6.387414331260502"><ele>209.5</ele><time>2026-04-20T14:04:34.999Z</time></trkpt><trkpt lat="49.13526836041755" lon="6.387610091575565"><ele>209.75</ele><time>2026-04-20T14:04:36Z</time></trkpt><trkpt lat="49.13520217076065" lon="6.387798962956966"><ele>210.0</ele><time>2026-04-20T14:04:37Z</time></trkpt><trkpt lat="49.13514025712434" lon="6.387997266586013"><ele>210.25</ele><time>2026-04-20T14:04:38Z</time></trkpt><trkpt lat="49.13508656392478" lon="6.388168467183123"><ele>210.5</ele><time>2026-04-20T14:04:39Z</time></trkpt><trkpt lat="49.13504170010752" lon="6.38832355431225"><ele>210.75</ele><time>2026-04-20T14:04:40Z</time></trkpt><trkpt lat="49.13500529749076" lon="6.388469627443123"><ele>211.0</ele><time>2026-04-20T14:04:41Z</time></trkpt><trkpt lat="49.13496143567091" lon="6.388640714541688"><ele>211.0</ele><time>2026-04-20T14:04:42Z</time></trkpt><trkpt lat="49.13491973647814" lon="6.388811434403731"><ele>211.0</ele><time>2026-04-20T14:04:43Z</time></trkpt><trkpt lat="49.13487355510089" lon="6.388987878879945"><ele>211.0</ele><time>2026-04-20T14:04:44Z</time></trkpt><trkpt lat="49.134830890903764" lon="6.389172975797444"><ele>211.0</ele><time>2026-04-20T14:04:45Z</time></trkpt><trkpt lat="49.13479169716115" lon="6.389358652866753"><ele>211.5</ele><time>2026-04-20T14:04:46Z</time></trkpt><trkpt lat="49.13475037538734" lon="6.38954876321241"><ele>212.0</ele><time>2026-04-20T14:04:47Z</time></trkpt><trkpt lat="49.13470218578651" lon="6.389747035695917"><ele>212.5</ele><time>2026-04-20T14:04:48Z</time></trkpt><trkpt lat="49.13465491577919" lon="6.389951979386727"><ele>213.0</ele><time>2026-04-20T14:04:49Z</time></trkpt><trkpt lat="49.134612262582195" lon="6.390151182838618"><ele>213.5</ele><time>2026-04-20T14:04:50Z</time></trkpt><trkpt lat="49.13457377504229" lon="6.390343553525006"><ele>214.0</ele><time>2026-04-20T14:04:51Z</time></trkpt><trkpt lat="49.13454174644789" lon="6.390544491870813"><ele>214.5</ele><time>2026-04-20T14:04:52Z</time></trkpt><trkpt lat="49.13450964991897" lon="6.390756814281206"><ele>215.0</ele><time>2026-04-20T14:04:53Z</time></trkpt><trkpt lat="49.13448014277912" lon="6.390973189921452"><ele>215.5</ele><time>2026-04-20T14:04:54Z</time></trkpt><trkpt lat="49.134453301413615" lon="6.391189183390617"><ele>216.0</ele><time>2026-04-20T14:04:55Z</time></trkpt><trkpt lat="49.13442753228434" lon="6.391392004462964"><ele>216.5</ele><time>2026-04-20T14:04:56Z</time></trkpt><trkpt lat="49.13440722842327" lon="6.391582344317663"><ele>217.0</ele><time>2026-04-20T14:04:57Z</time></trkpt><trkpt lat="49.13438805238528" lon="6.391763088578392"><ele>217.6</ele><time>2026-04-20T14:04:58Z</time></trkpt><trkpt lat="49.134372876292296" lon="6.391907317077258"><ele>218.2</ele><time>2026-04-20T14:04:59Z</time></trkpt><trkpt lat="49.13434898977188" lon="6.392027815040035"><ele>218.8</ele><time>2026-04-20T14:05:00Z</time></trkpt><trkpt lat="49.134304221846975" lon="6.392134720078413"><ele>219.4</ele><time>2026-04-20T14:05:01Z</time></trkpt><trkpt lat="49.13421082894978" lon="6.392171443981904"><ele>220.0</ele><time>2026-04-20T14:05:02Z</time></trkpt><trkpt lat="49.134108664308926" lon="6.3921804991635"><ele>220.0</ele><time>2026-04-20T14:05:03Z</time></trkpt><trkpt lat="49.133991944122414" lon="6.392191735027377"><ele>220.0</ele><time>2026-04-20T14:05:04Z</time></trkpt><trkpt lat="49.1338635506254" lon="6.392221172596136"><ele>220.0</ele><time>2026-04-20T14:05:05Z</time></trkpt><trkpt lat="49.13373993905794" lon="6.392224869765862"><ele>220.0</ele><time>2026-04-20T14:05:06Z</time></trkpt><trkpt lat="49.13361230433014" lon="6.3922324438256215"><ele>220.0</ele><time>2026-04-20T14:05:07Z</time></trkpt><trkpt lat="49.13348085954799" lon="6.392243837361511"><ele>220.0</ele><time>2026-04-20T14:05:08Z</time></trkpt><trkpt lat="49.13334177317149" lon="6.392259531512627"><ele>220.0</ele><time>2026-04-20T14:05:09Z</time></trkpt><trkpt lat="49.1332020676418" lon="6.392271000639908"><ele>220.0</ele><time>2026-04-20T14:05:10Z</time></trkpt><trkpt lat="49.133064896927" lon="6.3922785562944195"><ele>221.0</ele><time>2026-04-20T14:05:11Z</time></trkpt><trkpt lat="49.13292243267703" lon="6.392289384141787"><ele>222.0</ele><time>2026-04-20T14:05:12Z</time></trkpt><trkpt lat="49.132778678639674" lon="6.392299172597239"><ele>223.0</ele><time>2026-04-20T14:05:13Z</time></trkpt><trkpt lat="49.13263377866322" lon="6.392305880252929"><ele>224.0</ele><time>2026-04-20T14:05:14Z</time></trkpt><trkpt lat="49.132494238600685" lon="6.39232033178949"><ele>224.5</ele><time>2026-04-20T14:05:15Z</time></trkpt><trkpt lat="49.13235265068696" lon="6.392329921982658"><ele>225.0</ele><time>2026-04-20T14:05:16Z</time></trkpt><trkpt lat="49.13220703561129" lon="6.392340927694067"><ele>225.5</ele><time>2026-04-20T14:05:17Z</time></trkpt><trkpt lat="49.13206414928945" lon="6.392351880887334"><ele>226.0</ele><time>2026-04-20T14:05:18Z</time></trkpt><trkpt lat="49.13192381841534" lon="6.392364074326303"><ele>226.0</ele><time>2026-04-20T14:05:19Z</time></trkpt><trkpt lat="49.131780962488705" lon="6.392369491539521"><ele>226.0</ele><time>2026-04-20T14:05:20Z</time></trkpt><trkpt lat="49.13163589306051" lon="6.39238749809551"><ele>226.0</ele><time>2026-04-20T14:05:21Z</time></trkpt><trkpt lat="49.13149208069396" lon="6.3923978045121475"><ele>226.0</ele><time>2026-04-20T14:05:22Z</time></trkpt><trkpt lat="49.13134638014593" lon="6.392407948948773"><ele>225.75</ele><time>2026-04-20T14:05:23Z</time></trkpt><trkpt lat="49.13119837824683" lon="6.392417086705151"><ele>225.5</ele><time>2026-04-20T14:05:24Z</time></trkpt><trkpt lat="49.13104945582335" lon="6.392425367242894"><ele>225.25</ele><time>2026-04-20T14:05:25Z</time></trkpt><trkpt lat="49.13090607647422" lon="6.392435077416456"><ele>225.0</ele><time>2026-04-20T14:05:26Z</time></trkpt><trkpt lat="49.130760137438855" lon="6.392447112336606"><ele>224.25</ele><time>2026-04-20T14:05:27Z</time></trkpt><trkpt lat="49.13061442135693" lon="6.3924583122048055"><ele>223.5</ele><time>2026-04-20T14:05:28Z</time></trkpt><trkpt lat="49.13046449577822" lon="6.392468622985086"><ele>222.75</ele><time>2026-04-20T14:05:29Z</time></trkpt><trkpt lat="49.13032346607666" lon="6.392478587707236"><ele>222.0</ele><time>2026-04-20T14:05:30Z</time></trkpt><trkpt lat="49.13017942790921" lon="6.392489110232103"><ele>222.0</ele><time>2026-04-20T14:05:30.999Z</time></trkpt><trkpt lat="49.13003408670772" lon="6.392501935277762"><ele>222.0</ele><time>2026-04-20T14:05:31.999Z</time></trkpt><trkpt lat="49.12988449879228" lon="6.392514293146014"><ele>222.0</ele><time>2026-04-20T14:05:32.999Z</time></trkpt><trkpt lat="49.129735557069765" lon="6.3925280536697615"><ele>222.0</ele><time>2026-04-20T14:05:33.999Z</time></trkpt><trkpt lat="49.129587516785925" lon="6.392542828201303"><ele>223.33333333333331</ele><time>2026-04-20T14:05:34.999Z</time></trkpt><trkpt lat="49.12943757133579" lon="6.392555274755248"><ele>224.66666666666666</ele><time>2026-04-20T14:05:35.999Z</time></trkpt><trkpt lat="49.12928946099658" lon="6.392567082041299"><ele>226.0</ele><time>2026-04-20T14:05:36.999Z</time></trkpt><trkpt lat="49.129138447943056" lon="6.392578237372605"><ele>227.25</ele><time>2026-04-20T14:05:37.999Z</time></trkpt><trkpt lat="49.12899005528942" lon="6.392589305958162"><ele>228.5</ele><time>2026-04-20T14:05:38.999Z</time></trkpt><trkpt lat="49.12884096911356" lon="6.39259820484306"><ele>229.75</ele><time>2026-04-20T14:05:39.999Z</time></trkpt><trkpt lat="49.12869692662443" lon="6.3926085348932356"><ele>231.0</ele><time>2026-04-20T14:05:40.999Z</time></trkpt><trkpt lat="49.12855167228715" lon="6.392617131189063"><ele>231.0</ele><time>2026-04-20T14:05:41.999Z</time></trkpt><trkpt lat="49.128407305609244" lon="6.392627766158565"><ele>231.0</ele><time>2026-04-20T14:05:42.999Z</time></trkpt><trkpt lat="49.12826239171824" lon="6.392637114579845"><ele>231.0</ele><time>2026-04-20T14:05:43.999Z</time></trkpt><trkpt lat="49.12811921720256" lon="6.392647587235311"><ele>231.0</ele><time>2026-04-20T14:05:44.999Z</time></trkpt><trkpt lat="49.12797470796605" lon="6.392658793314441"><ele>232.75</ele><time>2026-04-20T14:05:45.999Z</time></trkpt><trkpt lat="49.12782983111652" lon="6.392670855788525"><ele>234.5</ele><time>2026-04-20T14:05:46.999Z</time></trkpt><trkpt lat="49.12768695624458" lon="6.392684093384277"><ele>236.25</ele><time>2026-04-20T14:05:47.999Z</time></trkpt><trkpt lat="49.12754506199193" lon="6.392702253967691"><ele>238.0</ele><time>2026-04-20T14:05:48.999Z</time></trkpt><trkpt lat="49.127401351783995" lon="6.392726130750104"><ele>238.0</ele><time>2026-04-20T14:05:49.999Z</time></trkpt><trkpt lat="49.127262817768475" lon="6.3927640157809815"><ele>238.0</ele><time>2026-04-20T14:05:50.999Z</time></trkpt><trkpt lat="49.1271244282847" lon="6.392808979674029"><ele>238.0</ele><time>2026-04-20T14:05:51.999Z</time></trkpt><trkpt lat="49.12698277118025" lon="6.392859175699964"><ele>238.0</ele><time>2026-04-20T14:05:52.999Z</time></trkpt><trkpt lat="49.1268375750491" lon="6.39290724206516"><ele>238.0</ele><time>2026-04-20T14:05:53.999Z</time></trkpt><trkpt lat="49.12669824957397" lon="6.392958953384043"><ele>238.0</ele><time>2026-04-20T14:05:54.999Z</time></trkpt><trkpt lat="49.12655485889077" lon="6.393008553022581"><ele>238.0</ele><time>2026-04-20T14:05:55.999Z</time></trkpt><trkpt lat="49.1264074200446" lon="6.393059505934136"><ele>238.0</ele><time>2026-04-20T14:05:56.999Z</time></trkpt><trkpt lat="49.12625754802515" lon="6.393107495402647"><ele>238.0</ele><time>2026-04-20T14:05:57.999Z</time></trkpt><trkpt lat="49.12610998139471" lon="6.393156943207574"><ele>238.0</ele><time>2026-04-20T14:05:58.999Z</time></trkpt><trkpt lat="49.12596198668674" lon="6.393207420646523"><ele>238.0</ele><time>2026-04-20T14:05:59.999Z</time></trkpt><trkpt lat="49.125821073326335" lon="6.393251448788707"><ele>238.0</ele><time>2026-04-20T14:06:00.999Z</time></trkpt><trkpt lat="49.1256755526582" lon="6.393298338914218"><ele>235.5</ele><time>2026-04-20T14:06:01.999Z</time></trkpt><trkpt lat="49.125531469845534" lon="6.393345112687332"><ele>233.0</ele><time>2026-04-20T14:06:02.999Z</time></trkpt><trkpt lat="49.12539160359219" lon="6.393399839061024"><ele>230.5</ele><time>2026-04-20T14:06:03.999Z</time></trkpt><trkpt lat="49.12525484701241" lon="6.39345815325015"><ele>228.0</ele><time>2026-04-20T14:06:04.999Z</time></trkpt><trkpt lat="49.12511835445633" lon="6.393502812443614"><ele>228.0</ele><time>2026-04-20T14:06:05.999Z</time></trkpt><trkpt lat="49.12497726463292" lon="6.39354902747322"><ele>228.0</ele><time>2026-04-20T14:06:06.999Z</time></trkpt><trkpt lat="49.124835167941185" lon="6.393598096048012"><ele>228.0</ele><time>2026-04-20T14:06:07.999Z</time></trkpt><trkpt lat="49.12469631593183" lon="6.3936563671961775"><ele>228.0</ele><time>2026-04-20T14:06:08.999Z</time></trkpt><trkpt lat="49.12455569841202" lon="6.39371521513235"><ele>228.66666666666669</ele><time>2026-04-20T14:06:09.999Z</time></trkpt><trkpt lat="49.12441375374406" lon="6.393780674902783"><ele>229.33333333333334</ele><time>2026-04-20T14:06:10.999Z</time></trkpt><trkpt lat="49.124275683724754" lon="6.393874571630595"><ele>230.0</ele><time>2026-04-20T14:06:11.999Z</time></trkpt><trkpt lat="49.12414542166652" lon="6.393989253145824"><ele>229.66666666666669</ele><time>2026-04-20T14:06:12.999Z</time></trkpt><trkpt lat="49.124019293726036" lon="6.394120056731045"><ele>229.33333333333331</ele><time>2026-04-20T14:06:13.999Z</time></trkpt><trkpt lat="49.12390042823798" lon="6.3942618583313795"><ele>229.0</ele><time>2026-04-20T14:06:14.999Z</time></trkpt><trkpt lat="49.12377739670479" lon="6.3943935178713645"><ele>229.0</ele><time>2026-04-20T14:06:15.999Z</time></trkpt><trkpt lat="49.123651877572044" lon="6.3945283569291"><ele>229.0</ele><time>2026-04-20T14:06:16.999Z</time></trkpt><trkpt lat="49.123530692783035" lon="6.394664478234268"><ele>229.0</ele><time>2026-04-20T14:06:17.999Z</time></trkpt><trkpt lat="49.12340988234356" lon="6.394801265749368"><ele>229.25</ele><time>2026-04-20T14:06:18.999Z</time></trkpt><trkpt lat="49.12329015866678" lon="6.394942105293578"><ele>229.5</ele><time>2026-04-20T14:06:19.999Z</time></trkpt><trkpt lat="49.123169167165436" lon="6.395075329671409"><ele>229.75</ele><time>2026-04-20T14:06:20.999Z</time></trkpt><trkpt lat="49.12305025779437" lon="6.395212896054687"><ele>230.0</ele><time>2026-04-20T14:06:21.999Z</time></trkpt><trkpt lat="49.122932740859895" lon="6.395346305302859"><ele>230.0</ele><time>2026-04-20T14:06:22.999Z</time></trkpt><trkpt lat="49.12281606182391" lon="6.395479137937514"><ele>230.0</ele><time>2026-04-20T14:06:23.999Z</time></trkpt><trkpt lat="49.12269792981603" lon="6.395609677010462"><ele>230.0</ele><time>2026-04-20T14:06:24.999Z</time></trkpt><trkpt lat="49.122579276124384" lon="6.39573530107066"><ele>230.0</ele><time>2026-04-20T14:06:25.999Z</time></trkpt><trkpt lat="49.12246405099805" lon="6.3958608742083465"><ele>233.5</ele><time>2026-04-20T14:06:26.999Z</time></trkpt><trkpt lat="49.122353033891784" lon="6.39599016356653"><ele>237.0</ele><time>2026-04-20T14:06:27.999Z</time></trkpt><trkpt lat="49.12224043910683" lon="6.396115971028599"><ele>240.5</ele><time>2026-04-20T14:06:28.999Z</time></trkpt><trkpt lat="49.12213106539206" lon="6.396241022245957"><ele>244.0</ele><time>2026-04-20T14:06:29.999Z</time></trkpt><trkpt lat="49.12201856178228" lon="6.396367250063906"><ele>245.0</ele><time>2026-04-20T14:06:30.999Z</time></trkpt><trkpt lat="49.12190925035727" lon="6.396495914202794"><ele>246.0</ele><time>2026-04-20T14:06:31.999Z</time></trkpt><trkpt lat="49.121794814590785" lon="6.396627504796073"><ele>247.0</ele><time>2026-04-20T14:06:32.999Z</time></trkpt><trkpt lat="49.121681453074544" lon="6.396755428333006"><ele>248.0</ele><time>2026-04-20T14:06:33.999Z</time></trkpt><trkpt lat="49.121571928255015" lon="6.3968810089955"><ele>248.5</ele><time>2026-04-20T14:06:34.999Z</time></trkpt><trkpt lat="49.12146391751821" lon="6.39700401929354"><ele>249.0</ele><time>2026-04-20T14:06:35.999Z</time></trkpt><trkpt lat="49.121357643504695" lon="6.397124181110294"><ele>249.5</ele><time>2026-04-20T14:06:36.999Z</time></trkpt><trkpt lat="49.121263851672005" lon="6.397248587844179"><ele>250.0</ele><time>2026-04-20T14:06:37.999Z</time></trkpt><trkpt lat="49.12117551152618" lon="6.3973959878443925"><ele>250.0</ele><time>2026-04-20T14:06:38.999Z</time></trkpt><trkpt lat="49.1211041903755" lon="6.3975585386435485"><ele>250.0</ele><time>2026-04-20T14:06:39.999Z</time></trkpt><trkpt lat="49.121057481569316" lon="6.397768780700618"><ele>250.0</ele><time>2026-04-20T14:06:40.999Z</time></trkpt><trkpt lat="49.12102056297292" lon="6.397946382963446"><ele>250.0</ele><time>2026-04-20T14:06:42Z</time></trkpt><trkpt lat="49.12099054119903" lon="6.3981569610722016"><ele>251.0</ele><time>2026-04-20T14:06:43Z</time></trkpt><trkpt lat="49.12096524276932" lon="6.398350467986128"><ele>252.0</ele><time>2026-04-20T14:06:44Z</time></trkpt><trkpt lat="49.12093437588609" lon="6.398526621445074"><ele>253.0</ele><time>2026-04-20T14:06:45Z</time></trkpt><trkpt lat="49.12091041883869" lon="6.398717794122909"><ele>254.0</ele><time>2026-04-20T14:06:46Z</time></trkpt><trkpt lat="49.12088480812064" lon="6.39891729933605"><ele>254.0</ele><time>2026-04-20T14:06:47Z</time></trkpt><trkpt lat="49.12084274349116" lon="6.399122982773444"><ele>254.0</ele><time>2026-04-20T14:06:48Z</time></trkpt><trkpt lat="49.120788649585286" lon="6.399315060968315"><ele>254.0</ele><time>2026-04-20T14:06:49Z</time></trkpt><trkpt lat="49.12072284357098" lon="6.399478909569636"><ele>254.0</ele><time>2026-04-20T14:06:50Z</time></trkpt><trkpt lat="49.120651604112496" lon="6.399637409017498"><ele>254.75</ele><time>2026-04-20T14:06:51Z</time></trkpt><trkpt lat="49.120568093434805" lon="6.399793896342616"><ele>255.5</ele><time>2026-04-20T14:06:52Z</time></trkpt><trkpt lat="49.12047579951766" lon="6.399936552811823"><ele>256.25</ele><time>2026-04-20T14:06:53Z</time></trkpt><trkpt lat="49.120389425915704" lon="6.4000822048918735"><ele>257.0</ele><time>2026-04-20T14:06:54Z</time></trkpt><trkpt lat="49.12029788818596" lon="6.400239885966469"><ele>257.0</ele><time>2026-04-20T14:06:55Z</time></trkpt><trkpt lat="49.12020819701605" lon="6.400395940790133"><ele>257.0</ele><time>2026-04-20T14:06:56Z</time></trkpt><trkpt lat="49.120121602301346" lon="6.400565630330909"><ele>257.0</ele><time>2026-04-20T14:06:57Z</time></trkpt><trkpt lat="49.12002354759344" lon="6.400721078716173"><ele>257.0</ele><time>2026-04-20T14:06:58Z</time></trkpt><trkpt lat="49.11993217725306" lon="6.40088548400376"><ele>258.75</ele><time>2026-04-20T14:06:59Z</time></trkpt><trkpt lat="49.11983025504735" lon="6.401039137919289"><ele>260.5</ele><time>2026-04-20T14:07:00Z</time></trkpt><trkpt lat="49.119731844256364" lon="6.4011966583125695"><ele>262.25</ele><time>2026-04-20T14:07:01Z</time></trkpt><trkpt lat="49.11963856709143" lon="6.401360510475541"><ele>264.0</ele><time>2026-04-20T14:07:02Z</time></trkpt><trkpt lat="49.119543405901524" lon="6.401530390739644"><ele>265.75</ele><time>2026-04-20T14:07:03Z</time></trkpt><trkpt lat="49.119451690235216" lon="6.401693230110412"><ele>267.5</ele><time>2026-04-20T14:07:04Z</time></trkpt><trkpt lat="49.11936018698207" lon="6.401845904260063"><ele>269.25</ele><time>2026-04-20T14:07:05Z</time></trkpt><trkpt lat="49.11927191411096" lon="6.402004113822497"><ele>271.0</ele><time>2026-04-20T14:07:06Z</time></trkpt><trkpt lat="49.11917678847906" lon="6.402158977145481"><ele>271.75</ele><time>2026-04-20T14:07:07Z</time></trkpt><trkpt lat="49.11907688673852" lon="6.402308516553159"><ele>272.5</ele><time>2026-04-20T14:07:08Z</time></trkpt><trkpt lat="49.118974214078705" lon="6.402458250675803"><ele>273.25</ele><time>2026-04-20T14:07:09Z</time></trkpt><trkpt lat="49.11886864938606" lon="6.402594491103597"><ele>274.0</ele><time>2026-04-20T14:07:10Z</time></trkpt><trkpt lat="49.11875678573725" lon="6.402724044845284"><ele>274.0</ele><time>2026-04-20T14:07:11Z</time></trkpt><trkpt lat="49.11863786179" lon="6.402846337892076"><ele>274.0</ele><time>2026-04-20T14:07:12Z</time></trkpt><trkpt lat="49.118513123578545" lon="6.40296564246819"><ele>274.0</ele><time>2026-04-20T14:07:13Z</time></trkpt><trkpt lat="49.11838273140965" lon="6.403081965564962"><ele>274.0</ele><time>2026-04-20T14:07:14Z</time></trkpt><trkpt lat="49.1182540024064" lon="6.403192617214683"><ele>274.0</ele><time>2026-04-20T14:07:15Z</time></trkpt><trkpt lat="49.1181207157111" lon="6.403305082312509"><ele>274.0</ele><time>2026-04-20T14:07:16Z</time></trkpt><trkpt lat="49.11798121806138" lon="6.403424765354807"><ele>274.0</ele><time>2026-04-20T14:07:17Z</time></trkpt><trkpt lat="49.1178451418392" lon="6.403541292292643"><ele>274.0</ele><time>2026-04-20T14:07:18Z</time></trkpt><trkpt lat="49.117704864409184" lon="6.403661088150086"><ele>274.0</ele><time>2026-04-20T14:07:19Z</time></trkpt><trkpt lat="49.11756206728286" lon="6.40378545345629"><ele>274.0</ele><time>2026-04-20T14:07:20Z</time></trkpt><trkpt lat="49.11742606270619" lon="6.4039171721724495"><ele>272.0</ele><time>2026-04-20T14:07:21Z</time></trkpt><trkpt lat="49.1172856967816" lon="6.40403558158118"><ele>270.0</ele><time>2026-04-20T14:07:22Z</time></trkpt><trkpt lat="49.117138876017556" lon="6.404134611813753"><ele>268.0</ele><time>2026-04-20T14:07:23Z</time></trkpt><trkpt lat="49.11699325558182" lon="6.404213265092173"><ele>268.0</ele><time>2026-04-20T14:07:24Z</time></trkpt><trkpt lat="49.116834089379914" lon="6.4042574593785115"><ele>268.0</ele><time>2026-04-20T14:07:25Z</time></trkpt><trkpt lat="49.11668231702414" lon="6.404296416350336"><ele>268.0</ele><time>2026-04-20T14:07:26Z</time></trkpt><trkpt lat="49.11653554655224" lon="6.4043249851416935"><ele>265.0</ele><time>2026-04-20T14:07:27Z</time></trkpt><trkpt lat="49.11638455440907" lon="6.404365413254103"><ele>262.0</ele><time>2026-04-20T14:07:28Z</time></trkpt><trkpt lat="49.116236960740636" lon="6.404404546797136"><ele>259.0</ele><time>2026-04-20T14:07:29Z</time></trkpt><trkpt lat="49.116090344370065" lon="6.404436300125846"><ele>259.0</ele><time>2026-04-20T14:07:29.999Z</time></trkpt><trkpt lat="49.115947839883" lon="6.4044801542670795"><ele>259.0</ele><time>2026-04-20T14:07:30.999Z</time></trkpt><trkpt lat="49.115816913565524" lon="6.404533957034582"><ele>259.0</ele><time>2026-04-20T14:07:31.999Z</time></trkpt><trkpt lat="49.1156954629052" lon="6.404610477403708"><ele>259.0</ele><time>2026-04-20T14:07:32.999Z</time></trkpt><trkpt lat="49.11558713235176" lon="6.404701992983264"><ele>255.5</ele><time>2026-04-20T14:07:33.999Z</time></trkpt><trkpt lat="49.11548245996609" lon="6.404798940613658"><ele>252.0</ele><time>2026-04-20T14:07:34.999Z</time></trkpt><trkpt lat="49.11537859057434" lon="6.404908583678384"><ele>248.5</ele><time>2026-04-20T14:07:35.999Z</time></trkpt><trkpt lat="49.11526425040502" lon="6.405028628546254"><ele>245.0</ele><time>2026-04-20T14:07:36.999Z</time></trkpt><trkpt lat="49.11514632158413" lon="6.405144082759922"><ele>245.0</ele><time>2026-04-20T14:07:37.999Z</time></trkpt><trkpt lat="49.11503279279941" lon="6.405255917577705"><ele>245.0</ele><time>2026-04-20T14:07:38.999Z</time></trkpt><trkpt lat="49.114923329650296" lon="6.4053547243399995"><ele>245.0</ele><time>2026-04-20T14:07:39.999Z</time></trkpt><trkpt lat="49.11480966484842" lon="6.405433075458582"><ele>245.0</ele><time>2026-04-20T14:07:40.999Z</time></trkpt><trkpt lat="49.11468179813766" lon="6.405471860198643"><ele>243.75</ele><time>2026-04-20T14:07:41.999Z</time></trkpt><trkpt lat="49.11454568829322" lon="6.405478983873654"><ele>242.5</ele><time>2026-04-20T14:07:42.999Z</time></trkpt><trkpt lat="49.11441228569054" lon="6.405483082061305"><ele>241.25</ele><time>2026-04-20T14:07:43.999Z</time></trkpt><trkpt lat="49.11428395047658" lon="6.4055305105414595"><ele>240.0</ele><time>2026-04-20T14:07:44.999Z</time></trkpt><trkpt lat="49.11415625021288" lon="6.40561469653191"><ele>239.0</ele><time>2026-04-20T14:07:45.999Z</time></trkpt><trkpt lat="49.114033481344656" lon="6.405730016452751"><ele>238.0</ele><time>2026-04-20T14:07:46.999Z</time></trkpt><trkpt lat="49.11391560434702" lon="6.405846294051768"><ele>237.0</ele><time>2026-04-20T14:07:47.999Z</time></trkpt><trkpt lat="49.11380068499988" lon="6.405956302823001"><ele>236.0</ele><time>2026-04-20T14:07:48.999Z</time></trkpt><trkpt lat="49.1136850807307" lon="6.406067293312751"><ele>236.0</ele><time>2026-04-20T14:07:49.999Z</time></trkpt><trkpt lat="49.11356758084048" lon="6.40617127007248"><ele>236.0</ele><time>2026-04-20T14:07:50.999Z</time></trkpt><trkpt lat="49.11344966397566" lon="6.4062745096636045"><ele>236.0</ele><time>2026-04-20T14:07:51.999Z</time></trkpt><trkpt lat="49.11332367230762" lon="6.406352278125453"><ele>236.0</ele><time>2026-04-20T14:07:52.999Z</time></trkpt><trkpt lat="49.11319013126872" lon="6.406405853511113"><ele>235.25</ele><time>2026-04-20T14:07:53.999Z</time></trkpt><trkpt lat="49.11305974512652" lon="6.40644070128915"><ele>234.5</ele><time>2026-04-20T14:07:54.999Z</time></trkpt><trkpt lat="49.11292777187912" lon="6.406465720596392"><ele>233.75</ele><time>2026-04-20T14:07:55.999Z</time></trkpt><trkpt lat="49.1127948815215" lon="6.406489741312579"><ele>233.0</ele><time>2026-04-20T14:07:56.999Z</time></trkpt><trkpt lat="49.11265669161313" lon="6.406517015484159"><ele>233.0</ele><time>2026-04-20T14:07:57.999Z</time></trkpt><trkpt lat="49.11252500502357" lon="6.406537373612702"><ele>233.0</ele><time>2026-04-20T14:07:58.999Z</time></trkpt><trkpt lat="49.11239182100836" lon="6.406560360597663"><ele>233.0</ele><time>2026-04-20T14:07:59.999Z</time></trkpt><trkpt lat="49.11225555758928" lon="6.406582775718778"><ele>233.0</ele><time>2026-04-20T14:08:00.999Z</time></trkpt><trkpt lat="49.11212243418113" lon="6.406604510491317"><ele>231.5</ele><time>2026-04-20T14:08:01.999Z</time></trkpt><trkpt lat="49.1119934904574" lon="6.40662718542845"><ele>230.0</ele><time>2026-04-20T14:08:02.999Z</time></trkpt><trkpt lat="49.11186485339145" lon="6.406651020430303"><ele>228.5</ele><time>2026-04-20T14:08:03.999Z</time></trkpt><trkpt lat="49.111734270489684" lon="6.406676542623556"><ele>227.0</ele><time>2026-04-20T14:08:04.999Z</time></trkpt><trkpt lat="49.111601885698086" lon="6.406704596911528"><ele>226.0</ele><time>2026-04-20T14:08:05.999Z</time></trkpt><trkpt lat="49.11146989673557" lon="6.4067380132765015"><ele>225.0</ele><time>2026-04-20T14:08:06.999Z</time></trkpt><trkpt lat="49.11133898166666" lon="6.406781844785634"><ele>224.0</ele><time>2026-04-20T14:08:07.999Z</time></trkpt><trkpt lat="49.11120757935233" lon="6.406828482849422"><ele>223.0</ele><time>2026-04-20T14:08:08.999Z</time></trkpt><trkpt lat="49.11107767048633" lon="6.406874016155083"><ele>223.0</ele><time>2026-04-20T14:08:09.999Z</time></trkpt><trkpt lat="49.11095172678451" lon="6.406924499584777"><ele>223.0</ele><time>2026-04-20T14:08:10.999Z</time></trkpt><trkpt lat="49.11082407257495" lon="6.40697468778312"><ele>223.0</ele><time>2026-04-20T14:08:11.999Z</time></trkpt><trkpt lat="49.11069306463165" lon="6.407018211088889"><ele>223.0</ele><time>2026-04-20T14:08:12.999Z</time></trkpt><trkpt lat="49.11056268844312" lon="6.407047462041669"><ele>222.75</ele><time>2026-04-20T14:08:13.999Z</time></trkpt><trkpt lat="49.11043074525649" lon="6.407056188980228"><ele>222.5</ele><time>2026-04-20T14:08:14.999Z</time></trkpt><trkpt lat="49.11029241987748" lon="6.407041472097409"><ele>222.25</ele><time>2026-04-20T14:08:15.999Z</time></trkpt><trkpt lat="49.110154340733814" lon="6.407022865098933"><ele>222.0</ele><time>2026-04-20T14:08:16.999Z</time></trkpt><trkpt lat="49.11001902862559" lon="6.407009314915882"><ele>223.0</ele><time>2026-04-20T14:08:17.999Z</time></trkpt><trkpt lat="49.109884205160434" lon="6.406994677067914"><ele>224.0</ele><time>2026-04-20T14:08:18.999Z</time></trkpt><trkpt lat="49.109753485117004" lon="6.40699085082921"><ele>225.0</ele><time>2026-04-20T14:08:19.999Z</time></trkpt><trkpt lat="49.10961797852638" lon="6.406998972023744"><ele>226.0</ele><time>2026-04-20T14:08:20.999Z</time></trkpt><trkpt lat="49.10948850960126" lon="6.407007525302396"><ele>226.0</ele><time>2026-04-20T14:08:21.999Z</time></trkpt><trkpt lat="49.10936269280841" lon="6.407016129281408"><ele>226.00000000000003</ele><time>2026-04-20T14:08:22.999Z</time></trkpt><trkpt lat="49.109244854537515" lon="6.407020026671384"><ele>226.00000000000003</ele><time>2026-04-20T14:08:23.999Z</time></trkpt><trkpt lat="49.1091453648068" lon="6.407021360013261"><ele>226.0</ele><time>2026-04-20T14:08:24.999Z</time></trkpt><trkpt lat="49.109060548051964" lon="6.407023621952943"><ele>226.0</ele><time>2026-04-20T14:08:25.999Z</time></trkpt><trkpt lat="49.10899178060591" lon="6.407022144974826"><ele>225.4</ele><time>2026-04-20T14:08:26.999Z</time></trkpt><trkpt lat="49.108886681629954" lon="6.407005107942788"><ele>224.8</ele><time>2026-04-20T14:08:28.999Z</time></trkpt><trkpt lat="49.10882013404436" lon="6.406960992395434"><ele>224.20000000000002</ele><time>2026-04-20T14:08:31.999Z</time></trkpt><trkpt lat="49.108859432522664" lon="6.406772998782508"><ele>223.60000000000002</ele><time>2026-04-20T14:08:32.999Z</time></trkpt><trkpt lat="49.10886294682648" lon="6.406664099896132"><ele>223.0</ele><time>2026-04-20T14:08:33.999Z</time></trkpt><trkpt lat="49.108852432277345" lon="6.40653994093113"><ele>222.99999999999997</ele><time>2026-04-20T14:08:34.999Z</time></trkpt><trkpt lat="49.10887290486662" lon="6.406402850097505"><ele>223.0</ele><time>2026-04-20T14:08:35.999Z</time></trkpt><trkpt lat="49.10887664311074" lon="6.406255281550489"><ele>223.0</ele><time>2026-04-20T14:08:36.999Z</time></trkpt><trkpt lat="49.10888183729956" lon="6.406116806826241"><ele>223.0</ele><time>2026-04-20T14:08:37.999Z</time></trkpt><trkpt lat="49.10888412890846" lon="6.405989429079915"><ele>222.99999999999997</ele><time>2026-04-20T14:08:38.999Z</time></trkpt><trkpt lat="49.10888939671749" lon="6.405882479605126"><ele>223.0</ele><time>2026-04-20T14:08:39.999Z</time></trkpt><trkpt lat="49.108898170229764" lon="6.40574346943549"><ele>222.83333333333331</ele><time>2026-04-20T14:08:41.999Z</time></trkpt><trkpt lat="49.10891091512245" lon="6.405612019125378"><ele>222.66666666666666</ele><time>2026-04-20T14:08:44.999Z</time></trkpt><trkpt lat="49.108919676136765" lon="6.405496054267164"><ele>222.5</ele><time>2026-04-20T14:08:49Z</time></trkpt><trkpt lat="49.108929963100124" lon="6.4053654385737655"><ele>222.33333333333331</ele><time>2026-04-20T14:09:08Z</time></trkpt><trkpt lat="49.10892867113959" lon="6.405250870860409"><ele>222.16666666666666</ele><time>2026-04-20T14:09:09Z</time></trkpt><trkpt lat="49.10893068299023" lon="6.405138718853932"><ele>222.0</ele><time>2026-04-20T14:09:10Z</time></trkpt><trkpt lat="49.108936321040055" lon="6.405011857552342"><ele>222.6</ele><time>2026-04-20T14:09:11Z</time></trkpt><trkpt lat="49.10894011755997" lon="6.404863938139511"><ele>223.2</ele><time>2026-04-20T14:09:12Z</time></trkpt><trkpt lat="49.108939183236664" lon="6.404703592045776"><ele>223.8</ele><time>2026-04-20T14:09:13Z</time></trkpt><trkpt lat="49.10894980014319" lon="6.404533749258642"><ele>224.4</ele><time>2026-04-20T14:09:14Z</time></trkpt><trkpt lat="49.1089535075808" lon="6.404350656752334"><ele>225.0</ele><time>2026-04-20T14:09:15Z</time></trkpt><trkpt lat="49.10896524661882" lon="6.404155530127898"><ele>225.25</ele><time>2026-04-20T14:09:16Z</time></trkpt><trkpt lat="49.10897037798943" lon="6.403941012002721"><ele>225.5</ele><time>2026-04-20T14:09:17Z</time></trkpt><trkpt lat="49.10897397031219" lon="6.403735575218096"><ele>225.75</ele><time>2026-04-20T14:09:18Z</time></trkpt><trkpt lat="49.10898616496672" lon="6.403532858926641"><ele>226.0</ele><time>2026-04-20T14:09:19Z</time></trkpt><trkpt lat="49.10899495579748" lon="6.403317555737169"><ele>227.0</ele><time>2026-04-20T14:09:20Z</time></trkpt><trkpt lat="49.10900260866267" lon="6.403095392476942"><ele>228.0</ele><time>2026-04-20T14:09:21Z</time></trkpt><trkpt lat="49.10901490240662" lon="6.402885932867312"><ele>229.0</ele><time>2026-04-20T14:09:22Z</time></trkpt><trkpt lat="49.109024701950865" lon="6.402670175889267"><ele>230.0</ele><time>2026-04-20T14:09:23Z</time></trkpt><trkpt lat="49.10903231294747" lon="6.402439516125914"><ele>230.25</ele><time>2026-04-20T14:09:24Z</time></trkpt><trkpt lat="49.10904073263063" lon="6.402216348237522"><ele>230.5</ele><time>2026-04-20T14:09:25Z</time></trkpt><trkpt lat="49.10904821216866" lon="6.401995683877349"><ele>230.75</ele><time>2026-04-20T14:09:26Z</time></trkpt><trkpt lat="49.109057427794724" lon="6.40177548824799"><ele>231.0</ele><time>2026-04-20T14:09:27Z</time></trkpt><trkpt lat="49.10906409852735" lon="6.401544745375755"><ele>231.33333333333331</ele><time>2026-04-20T14:09:28Z</time></trkpt><trkpt lat="49.10906062979754" lon="6.401296914823551"><ele>231.66666666666666</ele><time>2026-04-20T14:09:29Z</time></trkpt><trkpt lat="49.10905654436101" lon="6.401070944668403"><ele>232.0</ele><time>2026-04-20T14:09:30Z</time></trkpt><trkpt lat="49.10905501672151" lon="6.400846648315096"><ele>232.0</ele><time>2026-04-20T14:09:31Z</time></trkpt><trkpt lat="49.109053215293976" lon="6.4006186647592"><ele>232.0</ele><time>2026-04-20T14:09:32Z</time></trkpt><trkpt lat="49.10904599746451" lon="6.400389143258869"><ele>232.0</ele><time>2026-04-20T14:09:33Z</time></trkpt><trkpt lat="49.10903725924852" lon="6.4001562363310045"><ele>231.75</ele><time>2026-04-20T14:09:34Z</time></trkpt><trkpt lat="49.1090315689605" lon="6.399934372727431"><ele>231.5</ele><time>2026-04-20T14:09:35Z</time></trkpt><trkpt lat="49.10902470282312" lon="6.3997034808930735"><ele>231.25</ele><time>2026-04-20T14:09:36Z</time></trkpt><trkpt lat="49.10901896279109" lon="6.3994859101394805"><ele>231.0</ele><time>2026-04-20T14:09:37Z</time></trkpt><trkpt lat="49.109013255988756" lon="6.399254236453389"><ele>230.5</ele><time>2026-04-20T14:09:38Z</time></trkpt><trkpt lat="49.10901098440232" lon="6.399033152190106"><ele>230.0</ele><time>2026-04-20T14:09:38.999Z</time></trkpt><trkpt lat="49.109002577115476" lon="6.398820057511634"><ele>229.5</ele><time>2026-04-20T14:09:39.999Z</time></trkpt><trkpt lat="49.10899839084897" lon="6.398600362173437"><ele>229.0</ele><time>2026-04-20T14:09:40.999Z</time></trkpt><trkpt lat="49.108992161191736" lon="6.398386356873343"><ele>228.5</ele><time>2026-04-20T14:09:41.999Z</time></trkpt><trkpt lat="49.108986403503025" lon="6.398160259554786"><ele>228.0</ele><time>2026-04-20T14:09:42.999Z</time></trkpt><trkpt lat="49.10898324956428" lon="6.397940114972961"><ele>227.5</ele><time>2026-04-20T14:09:43.999Z</time></trkpt><trkpt lat="49.1089761616552" lon="6.397704880680361"><ele>227.0</ele><time>2026-04-20T14:09:44.999Z</time></trkpt><trkpt lat="49.10896927119073" lon="6.397479654891851"><ele>227.0</ele><time>2026-04-20T14:09:45.999Z</time></trkpt><trkpt lat="49.10896587583368" lon="6.3972636848670135"><ele>227.0</ele><time>2026-04-20T14:09:46.999Z</time></trkpt><trkpt lat="49.108961970178875" lon="6.397037292496694"><ele>227.0</ele><time>2026-04-20T14:09:47.999Z</time></trkpt><trkpt lat="49.108956436715935" lon="6.396818750909767"><ele>227.0</ele><time>2026-04-20T14:09:48.999Z</time></trkpt><trkpt lat="49.10895027831052" lon="6.396591868890914"><ele>226.25</ele><time>2026-04-20T14:09:49.999Z</time></trkpt><trkpt lat="49.10894337384464" lon="6.39636741095055"><ele>225.5</ele><time>2026-04-20T14:09:50.999Z</time></trkpt><trkpt lat="49.1089383444829" lon="6.3961478316872435"><ele>224.75</ele><time>2026-04-20T14:09:51.999Z</time></trkpt><trkpt lat="49.10893331696706" lon="6.3959284315491844"><ele>224.0</ele><time>2026-04-20T14:09:52.999Z</time></trkpt><trkpt lat="49.10892932527342" lon="6.395709420180323"><ele>223.25</ele><time>2026-04-20T14:09:53.999Z</time></trkpt><trkpt lat="49.1089252932019" lon="6.395490836009181"><ele>222.5</ele><time>2026-04-20T14:09:54.999Z</time></trkpt><trkpt lat="49.10891792932071" lon="6.3952713431380435"><ele>221.75</ele><time>2026-04-20T14:09:55.999Z</time></trkpt><trkpt lat="49.108912441298216" lon="6.395058704931904"><ele>221.0</ele><time>2026-04-20T14:09:56.999Z</time></trkpt><trkpt lat="49.108908542487924" lon="6.394845739110856"><ele>220.5</ele><time>2026-04-20T14:09:57.999Z</time></trkpt><trkpt lat="49.10890525529996" lon="6.3946289997067325"><ele>220.0</ele><time>2026-04-20T14:09:58.999Z</time></trkpt><trkpt lat="49.10890050750612" lon="6.394411771144235"><ele>219.5</ele><time>2026-04-20T14:09:59.999Z</time></trkpt><trkpt lat="49.10889605020851" lon="6.39419816633805"><ele>219.0</ele><time>2026-04-20T14:10:00.999Z</time></trkpt><trkpt lat="49.108892008744945" lon="6.393993142258217"><ele>218.25</ele><time>2026-04-20T14:10:01.999Z</time></trkpt><trkpt lat="49.10888710632838" lon="6.393790035379085"><ele>217.5</ele><time>2026-04-20T14:10:02.999Z</time></trkpt><trkpt lat="49.1088819290142" lon="6.393592463319243"><ele>216.75</ele><time>2026-04-20T14:10:03.999Z</time></trkpt><trkpt lat="49.10887719649067" lon="6.39340897129494"><ele>216.0</ele><time>2026-04-20T14:10:04.999Z</time></trkpt><trkpt lat="49.1088768413913" lon="6.39323630546626"><ele>216.0</ele><time>2026-04-20T14:10:05.999Z</time></trkpt><trkpt lat="49.108875281922984" lon="6.3930763339273255"><ele>216.00000000000003</ele><time>2026-04-20T14:10:06.999Z</time></trkpt><trkpt lat="49.108876291885316" lon="6.392930344428094"><ele>216.00000000000003</ele><time>2026-04-20T14:10:07.999Z</time></trkpt><trkpt lat="49.10889015434672" lon="6.392803916112736"><ele>216.0</ele><time>2026-04-20T14:10:08.999Z</time></trkpt><trkpt lat="49.10892594774759" lon="6.392680899586416"><ele>216.0</ele><time>2026-04-20T14:10:09.999Z</time></trkpt><trkpt lat="49.108985114546925" lon="6.392566512661332"><ele>215.60000000000002</ele><time>2026-04-20T14:10:10.999Z</time></trkpt><trkpt lat="49.109072358872744" lon="6.392469434252639"><ele>215.20000000000002</ele><time>2026-04-20T14:10:11.999Z</time></trkpt><trkpt lat="49.1091562025509" lon="6.392391297698291"><ele>214.79999999999998</ele><time>2026-04-20T14:10:12.999Z</time></trkpt><trkpt lat="49.10926209579551" lon="6.392350777660079"><ele>214.39999999999998</ele><time>2026-04-20T14:10:13.999Z</time></trkpt><trkpt lat="49.109373222302914" lon="6.392327989662132"><ele>214.0</ele><time>2026-04-20T14:10:14.999Z</time></trkpt><trkpt lat="49.10948763749356" lon="6.392292692015158"><ele>214.0</ele><time>2026-04-20T14:10:15.999Z</time></trkpt><trkpt lat="49.1095913832598" lon="6.392246032186688"><ele>213.99999999999997</ele><time>2026-04-20T14:10:16.999Z</time></trkpt><trkpt lat="49.109688588610304" lon="6.392199286694557"><ele>213.99999999999997</ele><time>2026-04-20T14:10:17.999Z</time></trkpt><trkpt lat="49.109775065656365" lon="6.392156625786735"><ele>214.0</ele><time>2026-04-20T14:10:18.999Z</time></trkpt><trkpt lat="49.10984992537379" lon="6.39211461890569"><ele>214.0</ele><time>2026-04-20T14:10:19.999Z</time></trkpt><trkpt lat="49.109926257592" lon="6.392072748983503"><ele>213.83333333333331</ele><time>2026-04-20T14:10:20.999Z</time></trkpt><trkpt lat="49.11000757983749" lon="6.392033056982084"><ele>213.66666666666666</ele><time>2026-04-20T14:10:21.999Z</time></trkpt><trkpt lat="49.11008159165069" lon="6.391997051678994"><ele>213.5</ele><time>2026-04-20T14:10:22.999Z</time></trkpt><trkpt lat="49.110159003030994" lon="6.39195328891832"><ele>213.33333333333331</ele><time>2026-04-20T14:10:23.999Z</time></trkpt><trkpt lat="49.110230600205455" lon="6.391918878267487"><ele>213.16666666666666</ele><time>2026-04-20T14:10:24.999Z</time></trkpt><trkpt lat="49.11032543147886" lon="6.391870683799892"><ele>213.0</ele><time>2026-04-20T14:10:26.999Z</time></trkpt><trkpt lat="49.110390134465916" lon="6.3918401327174115"><ele>213.0</ele><time>2026-04-20T14:10:28.999Z</time></trkpt><trkpt lat="49.110380597909405" lon="6.391548397785946"><ele>213.0</ele><time>2026-04-20T14:10:31.999Z</time></trkpt><trkpt lat="49.11026674643297" lon="6.391497718193689"><ele>213.0</ele><time>2026-04-20T14:10:34.999Z</time></trkpt><trkpt lat="49.11017296426798" lon="6.391503813649315"><ele>213.0</ele><time>2026-04-20T14:10:36.999Z</time></trkpt><trkpt lat="49.11012669163659" lon="6.391596455240233"><ele>213.0</ele><time>2026-04-20T14:10:38.999Z</time></trkpt><trkpt lat="49.11005723263945" lon="6.391632800288173"><ele>213.0</ele><time>2026-04-20T14:10:39.999Z</time></trkpt><trkpt lat="49.11016812703519" lon="6.391683992018419"><ele>213.0</ele><time>2026-04-20T14:11:05Z</time></trkpt><trkpt lat="49.110233218265726" lon="6.391648975124077"><ele>213.0</ele><time>2026-04-20T14:14:33.999Z</time></trkpt></trkseg><trkseg><trkpt lat="49.110362541147985" lon="6.391578330452586"><ele>213.0</ele><time>2026-04-20T14:24:35Z</time></trkpt><trkpt lat="49.11029722546175" lon="6.391571313148729"><ele>213.0</ele><time>2026-04-20T14:24:53Z</time></trkpt><trkpt lat="49.11032081306821" lon="6.391417063410814"><ele>213.0</ele><time>2026-04-20T14:25:43.999Z</time></trkpt><trkpt lat="49.11032967029462" lon="6.391317861433778"><ele>213.0</ele><time>2026-04-20T14:25:45.999Z</time></trkpt><trkpt lat="49.11033646348628" lon="6.39121046587084"><ele>213.0</ele><time>2026-04-20T14:25:47.999Z</time></trkpt><trkpt lat="49.11037764791621" lon="6.391287515062304"><ele>213.0</ele><time>2026-04-20T14:25:53.999Z</time></trkpt><trkpt lat="49.11034605403585" lon="6.39140269157774"><ele>213.0</ele><time>2026-04-20T14:25:55.999Z</time></trkpt><trkpt lat="49.11031588479514" lon="6.391555225018118"><ele>213.0</ele><time>2026-04-20T14:25:57.999Z</time></trkpt><trkpt lat="49.11032341019908" lon="6.3917089024328995"><ele>213.0</ele><time>2026-04-20T14:25:59.999Z</time></trkpt><trkpt lat="49.11034195252846" lon="6.391820050427838"><ele>213.0</ele><time>2026-04-20T14:26:02.999Z</time></trkpt><trkpt lat="49.110218867817" lon="6.391875882871351"><ele>213.0</ele><time>2026-04-20T14:26:04.999Z</time></trkpt><trkpt lat="49.11010748029763" lon="6.391936299938808"><ele>213.0</ele><time>2026-04-20T14:26:06.999Z</time></trkpt><trkpt lat="49.11003933738562" lon="6.39197454459713"><ele>213.0</ele><time>2026-04-20T14:26:07.999Z</time></trkpt><trkpt lat="49.1099598722365" lon="6.392012527915368"><ele>213.0</ele><time>2026-04-20T14:26:08.999Z</time></trkpt><trkpt lat="49.109866102101414" lon="6.39206331021818"><ele>213.0</ele><time>2026-04-20T14:26:09.999Z</time></trkpt><trkpt lat="49.109769704630324" lon="6.392109698494684"><ele>213.0</ele><time>2026-04-20T14:26:10.999Z</time></trkpt><trkpt lat="49.10967602112031" lon="6.392159288935007"><ele>213.2</ele><time>2026-04-20T14:26:11.999Z</time></trkpt><trkpt lat="49.109590504190884" lon="6.392209077557061"><ele>213.4</ele><time>2026-04-20T14:26:12.999Z</time></trkpt><trkpt lat="49.10947967984238" lon="6.392261408746894"><ele>213.59999999999997</ele><time>2026-04-20T14:26:13.999Z</time></trkpt><trkpt lat="49.109366400663475" lon="6.392297070766563"><ele>213.79999999999998</ele><time>2026-04-20T14:26:14.999Z</time></trkpt><trkpt lat="49.1092581628034" lon="6.392326203110709"><ele>214.0</ele><time>2026-04-20T14:26:15.999Z</time></trkpt><trkpt lat="49.10916892952764" lon="6.39234025757114"><ele>214.0</ele><time>2026-04-20T14:26:16.999Z</time></trkpt><trkpt lat="49.10907593307398" lon="6.392311284758382"><ele>213.99999999999997</ele><time>2026-04-20T14:26:17.999Z</time></trkpt><trkpt lat="49.108983976470746" lon="6.3922265604822766"><ele>213.99999999999997</ele><time>2026-04-20T14:26:18.999Z</time></trkpt><trkpt lat="49.10890382009592" lon="6.392106354247353"><ele>214.0</ele><time>2026-04-20T14:26:19.999Z</time></trkpt><trkpt lat="49.10885161787375" lon="6.391975198399441"><ele>214.0</ele><time>2026-04-20T14:26:20.999Z</time></trkpt><trkpt lat="49.10881894763618" lon="6.391839899633064"><ele>213.25</ele><time>2026-04-20T14:26:21.999Z</time></trkpt><trkpt lat="49.10880441260855" lon="6.3916768840947995"><ele>212.5</ele><time>2026-04-20T14:26:22.999Z</time></trkpt><trkpt lat="49.108839614759" lon="6.391497155931806"><ele>211.75</ele><time>2026-04-20T14:26:23.999Z</time></trkpt><trkpt lat="49.1088178375585" lon="6.391313019955264"><ele>211.0</ele><time>2026-04-20T14:26:24.999Z</time></trkpt><trkpt lat="49.10881858404574" lon="6.391120742491344"><ele>210.75</ele><time>2026-04-20T14:26:25.999Z</time></trkpt><trkpt lat="49.108816358756535" lon="6.39092235937389"><ele>210.5</ele><time>2026-04-20T14:26:26.999Z</time></trkpt><trkpt lat="49.108814129887826" lon="6.390713993254094"><ele>210.25</ele><time>2026-04-20T14:26:27.999Z</time></trkpt><trkpt lat="49.108808281065436" lon="6.3905073699003285"><ele>210.0</ele><time>2026-04-20T14:26:28.999Z</time></trkpt><trkpt lat="49.10880370339062" lon="6.3902975805250835"><ele>209.75</ele><time>2026-04-20T14:26:29.999Z</time></trkpt><trkpt lat="49.10880393308867" lon="6.390089756003238"><ele>209.5</ele><time>2026-04-20T14:26:30.999Z</time></trkpt><trkpt lat="49.108796866867124" lon="6.389874497995054"><ele>209.25</ele><time>2026-04-20T14:26:31.999Z</time></trkpt><trkpt lat="49.108793507153386" lon="6.389655790094853"><ele>209.0</ele><time>2026-04-20T14:26:32.999Z</time></trkpt><trkpt lat="49.108788816045156" lon="6.3894377767598955"><ele>209.0</ele><time>2026-04-20T14:26:33.999Z</time></trkpt><trkpt lat="49.108781869435234" lon="6.389213320523234"><ele>209.0</ele><time>2026-04-20T14:26:34.999Z</time></trkpt><trkpt lat="49.10877541940057" lon="6.389004160057154"><ele>209.0</ele><time>2026-04-20T14:26:35.999Z</time></trkpt><trkpt lat="49.10876735651809" lon="6.388790731027234"><ele>209.0</ele><time>2026-04-20T14:26:36.999Z</time></trkpt><trkpt lat="49.108762441482746" lon="6.388582004318042"><ele>209.0</ele><time>2026-04-20T14:26:38Z</time></trkpt><trkpt lat="49.10875649908506" lon="6.388365868947929"><ele>209.0</ele><time>2026-04-20T14:26:39Z</time></trkpt><trkpt lat="49.10875051685327" lon="6.388148004257169"><ele>209.0</ele><time>2026-04-20T14:26:40Z</time></trkpt><trkpt lat="49.10874553642868" lon="6.387921232440757"><ele>209.0</ele><time>2026-04-20T14:26:41Z</time></trkpt><trkpt lat="49.108741245860514" lon="6.387690065566167"><ele>209.0</ele><time>2026-04-20T14:26:42Z</time></trkpt><trkpt lat="49.108736918524706" lon="6.3874853264485605"><ele>209.0</ele><time>2026-04-20T14:26:43Z</time></trkpt><trkpt lat="49.10872807635861" lon="6.387295868876449"><ele>209.0</ele><time>2026-04-20T14:26:44Z</time></trkpt><trkpt lat="49.10872052693518" lon="6.3870896991541795"><ele>209.0</ele><time>2026-04-20T14:26:45Z</time></trkpt><trkpt lat="49.10871286200088" lon="6.38688500846523"><ele>209.5</ele><time>2026-04-20T14:26:46Z</time></trkpt><trkpt lat="49.10871530767022" lon="6.3867006270014235"><ele>210.0</ele><time>2026-04-20T14:26:47Z</time></trkpt><trkpt lat="49.108713898677834" lon="6.386523874706639"><ele>210.5</ele><time>2026-04-20T14:26:48Z</time></trkpt><trkpt lat="49.108716353001675" lon="6.3863107733241815"><ele>211.0</ele><time>2026-04-20T14:26:49Z</time></trkpt><trkpt lat="49.10871228891018" lon="6.386117206193586"><ele>211.75</ele><time>2026-04-20T14:26:50Z</time></trkpt><trkpt lat="49.10870137378462" lon="6.385935844294875"><ele>212.5</ele><time>2026-04-20T14:26:51Z</time></trkpt><trkpt lat="49.10868997351966" lon="6.38576190669858"><ele>213.25</ele><time>2026-04-20T14:26:52Z</time></trkpt><trkpt lat="49.10868847916633" lon="6.385580951257206"><ele>214.0</ele><time>2026-04-20T14:26:53Z</time></trkpt><trkpt lat="49.10869061356724" lon="6.3854010598347895"><ele>214.0</ele><time>2026-04-20T14:26:54Z</time></trkpt><trkpt lat="49.10868995005403" lon="6.3852280977048945"><ele>214.0</ele><time>2026-04-20T14:26:55Z</time></trkpt><trkpt lat="49.10868593340353" lon="6.3850506426603335"><ele>214.0</ele><time>2026-04-20T14:26:56Z</time></trkpt><trkpt lat="49.10868247581335" lon="6.384876536855737"><ele>214.0</ele><time>2026-04-20T14:26:57Z</time></trkpt><trkpt lat="49.108678537897184" lon="6.384703010661806"><ele>213.79999999999998</ele><time>2026-04-20T14:26:58Z</time></trkpt><trkpt lat="49.10867459025961" lon="6.384535076254515"><ele>213.59999999999997</ele><time>2026-04-20T14:26:59Z</time></trkpt><trkpt lat="49.108672413239184" lon="6.3843709420642245"><ele>213.4</ele><time>2026-04-20T14:27:00Z</time></trkpt><trkpt lat="49.1086620398525" lon="6.384212438730446"><ele>213.2</ele><time>2026-04-20T14:27:01Z</time></trkpt><trkpt lat="49.108656958111716" lon="6.384036498069434"><ele>213.0</ele><time>2026-04-20T14:27:02Z</time></trkpt><trkpt lat="49.10865257178827" lon="6.3838422967197275"><ele>213.5</ele><time>2026-04-20T14:27:03Z</time></trkpt><trkpt lat="49.10864986616657" lon="6.383659027609143"><ele>214.0</ele><time>2026-04-20T14:27:04Z</time></trkpt><trkpt lat="49.108651443844515" lon="6.383475524811558"><ele>214.5</ele><time>2026-04-20T14:27:05Z</time></trkpt><trkpt lat="49.10865271924528" lon="6.383288849251602"><ele>215.0</ele><time>2026-04-20T14:27:06Z</time></trkpt><trkpt lat="49.10864100459194" lon="6.38310324686154"><ele>215.5</ele><time>2026-04-20T14:27:07Z</time></trkpt><trkpt lat="49.108632385079986" lon="6.3829115407330885"><ele>216.0</ele><time>2026-04-20T14:27:08Z</time></trkpt><trkpt lat="49.108640656316744" lon="6.382731904712501"><ele>216.5</ele><time>2026-04-20T14:27:09Z</time></trkpt><trkpt lat="49.10863616209592" lon="6.3825507170446745"><ele>217.0</ele><time>2026-04-20T14:27:10Z</time></trkpt><trkpt lat="49.10863366995571" lon="6.3823719723361565"><ele>217.0</ele><time>2026-04-20T14:27:11Z</time></trkpt><trkpt lat="49.10863116623653" lon="6.3821850478515225"><ele>217.0</ele><time>2026-04-20T14:27:12Z</time></trkpt><trkpt lat="49.1086354170036" lon="6.382007908313702"><ele>217.0</ele><time>2026-04-20T14:27:13Z</time></trkpt><trkpt lat="49.108644162948394" lon="6.381834302045458"><ele>217.0</ele><time>2026-04-20T14:27:14Z</time></trkpt><trkpt lat="49.10866003543116" lon="6.381669319874069"><ele>217.25</ele><time>2026-04-20T14:27:15Z</time></trkpt><trkpt lat="49.108699744126405" lon="6.381499541658038"><ele>217.5</ele><time>2026-04-20T14:27:16Z</time></trkpt><trkpt lat="49.10874473501442" lon="6.38134019201406"><ele>217.75</ele><time>2026-04-20T14:27:17Z</time></trkpt><trkpt lat="49.10879866372441" lon="6.381195747822809"><ele>218.0</ele><time>2026-04-20T14:27:18Z</time></trkpt><trkpt lat="49.108862613629974" lon="6.381042608181026"><ele>218.5</ele><time>2026-04-20T14:27:19Z</time></trkpt><trkpt lat="49.108926793288134" lon="6.380890872399243"><ele>219.0</ele><time>2026-04-20T14:27:20Z</time></trkpt><trkpt lat="49.10900070644813" lon="6.3807374400297485"><ele>219.5</ele><time>2026-04-20T14:27:21Z</time></trkpt><trkpt lat="49.109068374639506" lon="6.380587667306885"><ele>220.0</ele><time>2026-04-20T14:27:22Z</time></trkpt><trkpt lat="49.10913030545129" lon="6.380433020129088"><ele>220.0</ele><time>2026-04-20T14:27:23Z</time></trkpt><trkpt lat="49.10919488491933" lon="6.380263916807232"><ele>220.0</ele><time>2026-04-20T14:27:24Z</time></trkpt><trkpt lat="49.10927228853979" lon="6.380097292070118"><ele>220.0</ele><time>2026-04-20T14:27:25Z</time></trkpt><trkpt lat="49.109335515587524" lon="6.379927702845129"><ele>220.0</ele><time>2026-04-20T14:27:26Z</time></trkpt><trkpt lat="49.10940012425166" lon="6.37975404903636"><ele>220.5</ele><time>2026-04-20T14:27:27Z</time></trkpt><trkpt lat="49.10946119556023" lon="6.379596032251382"><ele>221.0</ele><time>2026-04-20T14:27:28Z</time></trkpt><trkpt lat="49.10953170858466" lon="6.3794157066839245"><ele>221.5</ele><time>2026-04-20T14:27:29Z</time></trkpt><trkpt lat="49.109621170498414" lon="6.3792258583837755"><ele>222.0</ele><time>2026-04-20T14:27:30Z</time></trkpt><trkpt lat="49.10970039970903" lon="6.379042661609395"><ele>222.0</ele><time>2026-04-20T14:27:31Z</time></trkpt><trkpt lat="49.109784248422024" lon="6.378862563677744"><ele>222.0</ele><time>2026-04-20T14:27:32Z</time></trkpt><trkpt lat="49.10985399614148" lon="6.378681825543573"><ele>222.0</ele><time>2026-04-20T14:27:33Z</time></trkpt><trkpt lat="49.109935175309985" lon="6.378491473550984"><ele>222.0</ele><time>2026-04-20T14:27:34Z</time></trkpt><trkpt lat="49.11001250384651" lon="6.378307234916136"><ele>222.75</ele><time>2026-04-20T14:27:35Z</time></trkpt><trkpt lat="49.110092692634694" lon="6.378123858432383"><ele>223.5</ele><time>2026-04-20T14:27:36Z</time></trkpt><trkpt lat="49.11017829185276" lon="6.377937130511889"><ele>224.25</ele><time>2026-04-20T14:27:37Z</time></trkpt><trkpt lat="49.110240043325334" lon="6.377751798807795"><ele>225.0</ele><time>2026-04-20T14:27:38Z</time></trkpt><trkpt lat="49.1103139239622" lon="6.377580702521862"><ele>225.25</ele><time>2026-04-20T14:27:39Z</time></trkpt><trkpt lat="49.11038931974088" lon="6.3773946056661925"><ele>225.5</ele><time>2026-04-20T14:27:40Z</time></trkpt><trkpt lat="49.11046676725025" lon="6.377200114356082"><ele>225.75</ele><time>2026-04-20T14:27:40.999Z</time></trkpt><trkpt lat="49.11054584574069" lon="6.377015726247549"><ele>226.0</ele><time>2026-04-20T14:27:41.999Z</time></trkpt><trkpt lat="49.110625794019555" lon="6.3768246395849655"><ele>226.5</ele><time>2026-04-20T14:27:42.999Z</time></trkpt><trkpt lat="49.11070221618667" lon="6.3766504109231725"><ele>227.0</ele><time>2026-04-20T14:27:43.999Z</time></trkpt><trkpt lat="49.110779838784985" lon="6.376462799723879"><ele>227.5</ele><time>2026-04-20T14:27:44.999Z</time></trkpt><trkpt lat="49.11086214152552" lon="6.376278550596073"><ele>228.0</ele><time>2026-04-20T14:27:45.999Z</time></trkpt><trkpt lat="49.1109351321176" lon="6.376089963426247"><ele>228.5</ele><time>2026-04-20T14:27:46.999Z</time></trkpt><trkpt lat="49.11100987633507" lon="6.375898787322038"><ele>229.0</ele><time>2026-04-20T14:27:47.999Z</time></trkpt><trkpt lat="49.111086166946095" lon="6.375714207504138"><ele>229.5</ele><time>2026-04-20T14:27:48.999Z</time></trkpt><trkpt lat="49.11116077035767" lon="6.3755371159945415"><ele>230.0</ele><time>2026-04-20T14:27:49.999Z</time></trkpt><trkpt lat="49.11123517296077" lon="6.375351920533804"><ele>230.0</ele><time>2026-04-20T14:27:50.999Z</time></trkpt><trkpt lat="49.111312265547035" lon="6.375173980001834"><ele>230.0</ele><time>2026-04-20T14:27:51.999Z</time></trkpt><trkpt lat="49.11138756859821" lon="6.374979119092749"><ele>230.0</ele><time>2026-04-20T14:27:52.999Z</time></trkpt><trkpt lat="49.111462222636945" lon="6.374796558118706"><ele>230.0</ele><time>2026-04-20T14:27:53.999Z</time></trkpt><trkpt lat="49.11153400584143" lon="6.3746194082575185"><ele>230.5</ele><time>2026-04-20T14:27:54.999Z</time></trkpt><trkpt lat="49.111605860859115" lon="6.374443920425904"><ele>231.0</ele><time>2026-04-20T14:27:55.999Z</time></trkpt><trkpt lat="49.11167790002085" lon="6.374272828540459"><ele>231.5</ele><time>2026-04-20T14:27:56.999Z</time></trkpt><trkpt lat="49.11174881162844" lon="6.374103864149514"><ele>232.0</ele><time>2026-04-20T14:27:57.999Z</time></trkpt><trkpt lat="49.11181514602587" lon="6.373935839159066"><ele>231.75</ele><time>2026-04-20T14:27:58.999Z</time></trkpt><trkpt lat="49.11188948862635" lon="6.373779560769224"><ele>231.5</ele><time>2026-04-20T14:27:59.999Z</time></trkpt><trkpt lat="49.11195354821376" lon="6.373603722063272"><ele>231.25</ele><time>2026-04-20T14:28:00.999Z</time></trkpt><trkpt lat="49.11202561731719" lon="6.3734325373286635"><ele>231.0</ele><time>2026-04-20T14:28:01.999Z</time></trkpt><trkpt lat="49.11209177208501" lon="6.373269809295644"><ele>231.0</ele><time>2026-04-20T14:28:02.999Z</time></trkpt><trkpt lat="49.11215760376204" lon="6.373106663126284"><ele>231.0</ele><time>2026-04-20T14:28:03.999Z</time></trkpt><trkpt lat="49.1122230564188" lon="6.372950111192223"><ele>231.0</ele><time>2026-04-20T14:28:04.999Z</time></trkpt><trkpt lat="49.11229036776629" lon="6.372793540245784"><ele>231.0</ele><time>2026-04-20T14:28:05.999Z</time></trkpt><trkpt lat="49.112354324319796" lon="6.37263823840885"><ele>229.25</ele><time>2026-04-20T14:28:06.999Z</time></trkpt><trkpt lat="49.11241769410667" lon="6.372489133782212"><ele>227.5</ele><time>2026-04-20T14:28:07.999Z</time></trkpt><trkpt lat="49.11247902996601" lon="6.372332443525466"><ele>225.75</ele><time>2026-04-20T14:28:08.999Z</time></trkpt><trkpt lat="49.11254392999634" lon="6.372179668052299"><ele>224.0</ele><time>2026-04-20T14:28:09.999Z</time></trkpt><trkpt lat="49.11260659805817" lon="6.372031390145525"><ele>223.6</ele><time>2026-04-20T14:28:10.999Z</time></trkpt><trkpt lat="49.11266806848394" lon="6.3718949052784435"><ele>223.2</ele><time>2026-04-20T14:28:11.999Z</time></trkpt><trkpt lat="49.112731116524905" lon="6.371751136387154"><ele>222.79999999999998</ele><time>2026-04-20T14:28:12.999Z</time></trkpt><trkpt lat="49.112781436113764" lon="6.371605414140845"><ele>222.39999999999998</ele><time>2026-04-20T14:28:13.999Z</time></trkpt><trkpt lat="49.11283739381019" lon="6.371473739667036"><ele>222.0</ele><time>2026-04-20T14:28:14.999Z</time></trkpt><trkpt lat="49.11289309636613" lon="6.371340319440408"><ele>222.0</ele><time>2026-04-20T14:28:15.999Z</time></trkpt><trkpt lat="49.11294815984173" lon="6.371207634191231"><ele>222.0</ele><time>2026-04-20T14:28:16.999Z</time></trkpt><trkpt lat="49.11300393613846" lon="6.37107442099442"><ele>222.0</ele><time>2026-04-20T14:28:17.999Z</time></trkpt><trkpt lat="49.11305563419189" lon="6.3709545014270486"><ele>222.0</ele><time>2026-04-20T14:28:18.999Z</time></trkpt><trkpt lat="49.11309767734846" lon="6.370854240827008"><ele>222.0</ele><time>2026-04-20T14:28:19.999Z</time></trkpt><trkpt lat="49.113134482366185" lon="6.370763075740312"><ele>222.0</ele><time>2026-04-20T14:28:20.999Z</time></trkpt><trkpt lat="49.113169548931936" lon="6.3706796939328365"><ele>222.0</ele><time>2026-04-20T14:28:21.999Z</time></trkpt><trkpt lat="49.11322424654643" lon="6.370543461639501"><ele>222.0</ele><time>2026-04-20T14:28:23.999Z</time></trkpt><trkpt lat="49.11326317826248" lon="6.370446558582332"><ele>222.0</ele><time>2026-04-20T14:28:25.999Z</time></trkpt><trkpt lat="49.11332231511522" lon="6.370315802326058"><ele>222.0</ele><time>2026-04-20T14:28:27.999Z</time></trkpt><trkpt lat="49.1133550903791" lon="6.370227882017762"><ele>222.0</ele><time>2026-04-20T14:28:28.999Z</time></trkpt><trkpt lat="49.11338973895772" lon="6.370132031233888"><ele>222.0</ele><time>2026-04-20T14:28:29.999Z</time></trkpt><trkpt lat="49.11342645992713" lon="6.370043717665863"><ele>222.33333333333334</ele><time>2026-04-20T14:28:30.999Z</time></trkpt><trkpt lat="49.113458522460604" lon="6.369950591848882"><ele>222.66666666666669</ele><time>2026-04-20T14:28:31.999Z</time></trkpt><trkpt lat="49.113498960516104" lon="6.369848051033689"><ele>223.0</ele><time>2026-04-20T14:28:32.999Z</time></trkpt><trkpt lat="49.113545075192945" lon="6.369740619496527"><ele>223.33333333333334</ele><time>2026-04-20T14:28:33.999Z</time></trkpt><trkpt lat="49.11359079299658" lon="6.369637493842703"><ele>223.66666666666669</ele><time>2026-04-20T14:28:34.999Z</time></trkpt><trkpt lat="49.11363474549073" lon="6.3695291389162625"><ele>224.0</ele><time>2026-04-20T14:28:35.999Z</time></trkpt><trkpt lat="49.113679732447714" lon="6.369415244303779"><ele>224.0</ele><time>2026-04-20T14:28:36.999Z</time></trkpt><trkpt lat="49.113730525795866" lon="6.3692987531145375"><ele>223.99999999999997</ele><time>2026-04-20T14:28:37.999Z</time></trkpt><trkpt lat="49.11378427873028" lon="6.369178799036648"><ele>223.99999999999997</ele><time>2026-04-20T14:28:38.999Z</time></trkpt><trkpt lat="49.11383642667129" lon="6.3690554702716184"><ele>224.0</ele><time>2026-04-20T14:28:39.999Z</time></trkpt><trkpt lat="49.11389142127773" lon="6.368934305948599"><ele>224.0</ele><time>2026-04-20T14:28:40.999Z</time></trkpt><trkpt lat="49.1139437524214" lon="6.368800927254111"><ele>224.39999999999998</ele><time>2026-04-20T14:28:41.999Z</time></trkpt><trkpt lat="49.11399977281826" lon="6.368666480703008"><ele>224.79999999999998</ele><time>2026-04-20T14:28:42.999Z</time></trkpt><trkpt lat="49.11405631235271" lon="6.368522648409885"><ele>225.20000000000002</ele><time>2026-04-20T14:28:44Z</time></trkpt><trkpt lat="49.114117788692496" lon="6.36837498432898"><ele>225.60000000000002</ele><time>2026-04-20T14:28:45Z</time></trkpt><trkpt lat="49.11418175345199" lon="6.368220428551938"><ele>226.0</ele><time>2026-04-20T14:28:46Z</time></trkpt><trkpt lat="49.114243155958334" lon="6.3680728149779915"><ele>226.75</ele><time>2026-04-20T14:28:47Z</time></trkpt><trkpt lat="49.11430799588562" lon="6.367915930583065"><ele>227.5</ele><time>2026-04-20T14:28:48Z</time></trkpt><trkpt lat="49.11437222893106" lon="6.367760914397044"><ele>228.25</ele><time>2026-04-20T14:28:49Z</time></trkpt><trkpt lat="49.114435682861895" lon="6.367611216957123"><ele>229.0</ele><time>2026-04-20T14:28:50Z</time></trkpt><trkpt lat="49.11449852363151" lon="6.367464768691512"><ele>229.0</ele><time>2026-04-20T14:28:51Z</time></trkpt><trkpt lat="49.1145618189706" lon="6.367310652937941"><ele>229.0</ele><time>2026-04-20T14:28:52Z</time></trkpt><trkpt lat="49.11462601822889" lon="6.367153666673518"><ele>229.0</ele><time>2026-04-20T14:28:53Z</time></trkpt><trkpt lat="49.114689807389986" lon="6.366993147191501"><ele>229.0</ele><time>2026-04-20T14:28:54Z</time></trkpt><trkpt lat="49.114755832171745" lon="6.366838165183318"><ele>229.0</ele><time>2026-04-20T14:28:55Z</time></trkpt><trkpt lat="49.1148268481639" lon="6.366665068919175"><ele>229.0</ele><time>2026-04-20T14:28:56Z</time></trkpt><trkpt lat="49.114897467534014" lon="6.3664912342981905"><ele>229.0</ele><time>2026-04-20T14:28:57Z</time></trkpt><trkpt lat="49.11496740154707" lon="6.366326703734816"><ele>229.0</ele><time>2026-04-20T14:28:58Z</time></trkpt><trkpt lat="49.11504156885336" lon="6.366164365398606"><ele>231.0</ele><time>2026-04-20T14:28:59Z</time></trkpt><trkpt lat="49.115117374447294" lon="6.365996319985198"><ele>233.0</ele><time>2026-04-20T14:29:00Z</time></trkpt><trkpt lat="49.11519458811404" lon="6.365823453170975"><ele>235.0</ele><time>2026-04-20T14:29:01Z</time></trkpt><trkpt lat="49.11527036075352" lon="6.3656492243187985"><ele>237.0</ele><time>2026-04-20T14:29:02Z</time></trkpt><trkpt lat="49.115345949907386" lon="6.365477268779281"><ele>237.5</ele><time>2026-04-20T14:29:03Z</time></trkpt><trkpt lat="49.11542171970235" lon="6.365302636557098"><ele>238.0</ele><time>2026-04-20T14:29:04Z</time></trkpt><trkpt lat="49.11549497078113" lon="6.365129087112779"><ele>238.5</ele><time>2026-04-20T14:29:05Z</time></trkpt><trkpt lat="49.115572774614215" lon="6.36494493683826"><ele>239.0</ele><time>2026-04-20T14:29:06Z</time></trkpt><trkpt lat="49.11564654832539" lon="6.364766608618378"><ele>239.0</ele><time>2026-04-20T14:29:07Z</time></trkpt><trkpt lat="49.11571763203297" lon="6.364585505425703"><ele>239.0</ele><time>2026-04-20T14:29:08Z</time></trkpt><trkpt lat="49.11578654065178" lon="6.364396194578136"><ele>239.0</ele><time>2026-04-20T14:29:09Z</time></trkpt><trkpt lat="49.11585066649671" lon="6.364204001179664"><ele>239.0</ele><time>2026-04-20T14:29:10Z</time></trkpt><trkpt lat="49.11590683071727" lon="6.364009206009816"><ele>241.0</ele><time>2026-04-20T14:29:11Z</time></trkpt><trkpt lat="49.11595106488333" lon="6.363799610981263"><ele>243.0</ele><time>2026-04-20T14:29:12Z</time></trkpt><trkpt lat="49.11598582188781" lon="6.363593330798377"><ele>245.0</ele><time>2026-04-20T14:29:13Z</time></trkpt><trkpt lat="49.11601078382801" lon="6.363382748989207"><ele>247.0</ele><time>2026-04-20T14:29:14Z</time></trkpt><trkpt lat="49.1160204215273" lon="6.363163840791839"><ele>247.25</ele><time>2026-04-20T14:29:15Z</time></trkpt><trkpt lat="49.116022351662004" lon="6.362947619278357"><ele>247.5</ele><time>2026-04-20T14:29:16Z</time></trkpt><trkpt lat="49.11601963545344" lon="6.362728338607758"><ele>247.75</ele><time>2026-04-20T14:29:17Z</time></trkpt><trkpt lat="49.11601005024085" lon="6.362509097723923"><ele>248.0</ele><time>2026-04-20T14:29:18Z</time></trkpt><trkpt lat="49.11598996567512" lon="6.362287565086391"><ele>249.25</ele><time>2026-04-20T14:29:19Z</time></trkpt><trkpt lat="49.115959033674294" lon="6.362070675395175"><ele>250.5</ele><time>2026-04-20T14:29:20Z</time></trkpt><trkpt lat="49.115921841908204" lon="6.361858281258513"><ele>251.75</ele><time>2026-04-20T14:29:21Z</time></trkpt><trkpt lat="49.1158806709738" lon="6.3616482404134285"><ele>253.0</ele><time>2026-04-20T14:29:22Z</time></trkpt><trkpt lat="49.11583751560652" lon="6.361441654150361"><ele>252.5</ele><time>2026-04-20T14:29:23Z</time></trkpt><trkpt lat="49.11579893702888" lon="6.361227297992718"><ele>252.0</ele><time>2026-04-20T14:29:24Z</time></trkpt><trkpt lat="49.115755066991376" lon="6.361014690327903"><ele>251.5</ele><time>2026-04-20T14:29:25Z</time></trkpt><trkpt lat="49.11571366070703" lon="6.360813067803702"><ele>251.0</ele><time>2026-04-20T14:29:26Z</time></trkpt><trkpt lat="49.11567212173842" lon="6.360607378216299"><ele>253.0</ele><time>2026-04-20T14:29:27Z</time></trkpt><trkpt lat="49.115629407000334" lon="6.360399485411314"><ele>255.0</ele><time>2026-04-20T14:29:28Z</time></trkpt><trkpt lat="49.11558556435842" lon="6.36020282273419"><ele>257.0</ele><time>2026-04-20T14:29:29Z</time></trkpt><trkpt lat="49.11554034019388" lon="6.359994622201744"><ele>259.0</ele><time>2026-04-20T14:29:30Z</time></trkpt><trkpt lat="49.11549471429007" lon="6.359786959466865"><ele>260.5</ele><time>2026-04-20T14:29:31Z</time></trkpt><trkpt lat="49.11545357020729" lon="6.359589445628235"><ele>262.0</ele><time>2026-04-20T14:29:32Z</time></trkpt><trkpt lat="49.11540962626582" lon="6.359386609290018"><ele>263.5</ele><time>2026-04-20T14:29:33Z</time></trkpt><trkpt lat="49.11536898351642" lon="6.359187467656955"><ele>265.0</ele><time>2026-04-20T14:29:34Z</time></trkpt><trkpt lat="49.11533031296679" lon="6.358985041249266"><ele>266.0</ele><time>2026-04-20T14:29:35Z</time></trkpt><trkpt lat="49.1152884696959" lon="6.358787870709203"><ele>267.0</ele><time>2026-04-20T14:29:36Z</time></trkpt><trkpt lat="49.11524586903878" lon="6.3585868886868635"><ele>268.0</ele><time>2026-04-20T14:29:37Z</time></trkpt><trkpt lat="49.11520299308305" lon="6.358383255857497"><ele>269.0</ele><time>2026-04-20T14:29:38Z</time></trkpt><trkpt lat="49.115155836862286" lon="6.358164065056679"><ele>269.25</ele><time>2026-04-20T14:29:39Z</time></trkpt><trkpt lat="49.115112569405845" lon="6.357965693446392"><ele>269.5</ele><time>2026-04-20T14:29:40Z</time></trkpt><trkpt lat="49.115068200880245" lon="6.357766180192136"><ele>269.75</ele><time>2026-04-20T14:29:41Z</time></trkpt><trkpt lat="49.11502335287033" lon="6.357561551576396"><ele>270.0</ele><time>2026-04-20T14:29:42Z</time></trkpt><trkpt lat="49.11497684930946" lon="6.357355803386344"><ele>270.5</ele><time>2026-04-20T14:29:43Z</time></trkpt><trkpt lat="49.11493096747834" lon="6.357151109875357"><ele>271.0</ele><time>2026-04-20T14:29:44Z</time></trkpt><trkpt lat="49.114886532681965" lon="6.356949206807512"><ele>271.5</ele><time>2026-04-20T14:29:45Z</time></trkpt><trkpt lat="49.11484355727784" lon="6.356746249937703"><ele>272.0</ele><time>2026-04-20T14:29:46Z</time></trkpt><trkpt lat="49.11479857970861" lon="6.356535909920113"><ele>274.25</ele><time>2026-04-20T14:29:47Z</time></trkpt><trkpt lat="49.11475202628437" lon="6.356325515397705"><ele>276.5</ele><time>2026-04-20T14:29:48Z</time></trkpt><trkpt lat="49.114706029012034" lon="6.356115447590031"><ele>278.75</ele><time>2026-04-20T14:29:48.999Z</time></trkpt><trkpt lat="49.114657778887704" lon="6.35590286965235"><ele>281.0</ele><time>2026-04-20T14:29:49.999Z</time></trkpt><trkpt lat="49.11461312682649" lon="6.355700127101511"><ele>280.5</ele><time>2026-04-20T14:29:50.999Z</time></trkpt><trkpt lat="49.11457053508324" lon="6.355502741455479"><ele>280.0</ele><time>2026-04-20T14:29:51.999Z</time></trkpt><trkpt lat="49.114527552727466" lon="6.355296903495988"><ele>279.5</ele><time>2026-04-20T14:29:52.999Z</time></trkpt><trkpt lat="49.11448439179508" lon="6.355089675262714"><ele>279.0</ele><time>2026-04-20T14:29:53.999Z</time></trkpt><trkpt lat="49.11444054008286" lon="6.354877493018427"><ele>279.25</ele><time>2026-04-20T14:29:54.999Z</time></trkpt><trkpt lat="49.114395364033854" lon="6.35466716920199"><ele>279.5</ele><time>2026-04-20T14:29:55.999Z</time></trkpt><trkpt lat="49.11434863094754" lon="6.354456245782007"><ele>279.75</ele><time>2026-04-20T14:29:56.999Z</time></trkpt><trkpt lat="49.114304970798955" lon="6.354255605654922"><ele>280.0</ele><time>2026-04-20T14:29:57.999Z</time></trkpt><trkpt lat="49.11426117714533" lon="6.354050304678351"><ele>280.25</ele><time>2026-04-20T14:29:58.999Z</time></trkpt><trkpt lat="49.114218294828035" lon="6.3538428419196515"><ele>280.5</ele><time>2026-04-20T14:29:59.999Z</time></trkpt><trkpt lat="49.11417606419257" lon="6.3536292042040925"><ele>280.75</ele><time>2026-04-20T14:30:00.999Z</time></trkpt><trkpt lat="49.11413008842119" lon="6.353418924972277"><ele>281.0</ele><time>2026-04-20T14:30:01.999Z</time></trkpt><trkpt lat="49.11408677086757" lon="6.35321737935894"><ele>282.75</ele><time>2026-04-20T14:30:02.999Z</time></trkpt><trkpt lat="49.11404335261187" lon="6.353009189662558"><ele>284.5</ele><time>2026-04-20T14:30:03.999Z</time></trkpt><trkpt lat="49.1139985218539" lon="6.352797686022383"><ele>286.25</ele><time>2026-04-20T14:30:04.999Z</time></trkpt><trkpt lat="49.1139568570737" lon="6.3525848540881125"><ele>288.0</ele><time>2026-04-20T14:30:05.999Z</time></trkpt><trkpt lat="49.1139209285622" lon="6.352365987840413"><ele>287.75</ele><time>2026-04-20T14:30:06.999Z</time></trkpt><trkpt lat="49.11389767198645" lon="6.352144506340565"><ele>287.5</ele><time>2026-04-20T14:30:07.999Z</time></trkpt><trkpt lat="49.11388406596218" lon="6.351916299389295"><ele>287.25</ele><time>2026-04-20T14:30:08.999Z</time></trkpt><trkpt lat="49.11388042979649" lon="6.3516919986703995"><ele>287.0</ele><time>2026-04-20T14:30:09.999Z</time></trkpt><trkpt lat="49.113888360896055" lon="6.351475433069214"><ele>286.6666666666667</ele><time>2026-04-20T14:30:10.999Z</time></trkpt><trkpt lat="49.11391036516343" lon="6.351249522553193"><ele>286.3333333333333</ele><time>2026-04-20T14:30:11.999Z</time></trkpt><trkpt lat="49.11393793747092" lon="6.351017825434398"><ele>286.0</ele><time>2026-04-20T14:30:12.999Z</time></trkpt><trkpt lat="49.11397752239729" lon="6.350788645320445"><ele>286.0</ele><time>2026-04-20T14:30:13.999Z</time></trkpt><trkpt lat="49.114023699207664" lon="6.350572677081189"><ele>286.0</ele><time>2026-04-20T14:30:14.999Z</time></trkpt><trkpt lat="49.114071041288625" lon="6.350357240334497"><ele>286.0</ele><time>2026-04-20T14:30:15.999Z</time></trkpt><trkpt lat="49.114119262568536" lon="6.350138270848675"><ele>286.0</ele><time>2026-04-20T14:30:16.999Z</time></trkpt><trkpt lat="49.11416536064414" lon="6.349911996513015"><ele>284.66666666666663</ele><time>2026-04-20T14:30:17.999Z</time></trkpt><trkpt lat="49.11421147352234" lon="6.3496914076555315"><ele>283.3333333333333</ele><time>2026-04-20T14:30:18.999Z</time></trkpt><trkpt lat="49.1142598300906" lon="6.349468982361556"><ele>282.0</ele><time>2026-04-20T14:30:19.999Z</time></trkpt><trkpt lat="49.11430871020424" lon="6.349240108230363"><ele>282.0</ele><time>2026-04-20T14:30:20.999Z</time></trkpt><trkpt lat="49.11436011895127" lon="6.349009505723369"><ele>282.0</ele><time>2026-04-20T14:30:21.999Z</time></trkpt><trkpt lat="49.11440798965207" lon="6.3487777958996405"><ele>282.0</ele><time>2026-04-20T14:30:22.999Z</time></trkpt><trkpt lat="49.11445874757961" lon="6.3485586346260865"><ele>282.3333333333333</ele><time>2026-04-20T14:30:23.999Z</time></trkpt><trkpt lat="49.11450873703717" lon="6.348340513591808"><ele>282.66666666666663</ele><time>2026-04-20T14:30:24.999Z</time></trkpt><trkpt lat="49.11455783332309" lon="6.348116433450102"><ele>283.0</ele><time>2026-04-20T14:30:25.999Z</time></trkpt><trkpt lat="49.11461292176886" lon="6.347884805457125"><ele>283.3333333333333</ele><time>2026-04-20T14:30:26.999Z</time></trkpt><trkpt lat="49.1146665587818" lon="6.347658401011207"><ele>283.6666666666667</ele><time>2026-04-20T14:30:27.999Z</time></trkpt><trkpt lat="49.1147180627327" lon="6.347424731926875"><ele>284.0</ele><time>2026-04-20T14:30:28.999Z</time></trkpt><trkpt lat="49.114765006578466" lon="6.347207531464646"><ele>284.0</ele><time>2026-04-20T14:30:29.999Z</time></trkpt><trkpt lat="49.114816408489304" lon="6.346991969220625"><ele>284.0</ele><time>2026-04-20T14:30:30.999Z</time></trkpt><trkpt lat="49.11486700749999" lon="6.346767787496652"><ele>284.0</ele><time>2026-04-20T14:30:31.999Z</time></trkpt><trkpt lat="49.114917487688416" lon="6.346537528459551"><ele>283.33333333333337</ele><time>2026-04-20T14:30:32.999Z</time></trkpt><trkpt lat="49.114970695811" lon="6.346304554454524"><ele>282.6666666666667</ele><time>2026-04-20T14:30:33.999Z</time></trkpt><trkpt lat="49.115019941789186" lon="6.34608764034853"><ele>282.0</ele><time>2026-04-20T14:30:34.999Z</time></trkpt><trkpt lat="49.11506874353029" lon="6.345868740747578"><ele>282.0</ele><time>2026-04-20T14:30:35.999Z</time></trkpt><trkpt lat="49.11511738788687" lon="6.345645903784015"><ele>282.0</ele><time>2026-04-20T14:30:36.999Z</time></trkpt><trkpt lat="49.11516558391912" lon="6.345419289710675"><ele>282.0</ele><time>2026-04-20T14:30:37.999Z</time></trkpt><trkpt lat="49.115217405184055" lon="6.345199391546446"><ele>281.3333333333333</ele><time>2026-04-20T14:30:38.999Z</time></trkpt><trkpt lat="49.11526644547373" lon="6.344977849281698"><ele>280.66666666666663</ele><time>2026-04-20T14:30:39.999Z</time></trkpt><trkpt lat="49.11531868841541" lon="6.34475372590772"><ele>280.0</ele><time>2026-04-20T14:30:40.999Z</time></trkpt><trkpt lat="49.115368777225456" lon="6.344531989170214"><ele>280.0</ele><time>2026-04-20T14:30:41.999Z</time></trkpt><trkpt lat="49.11541859165278" lon="6.34431786485525"><ele>280.0</ele><time>2026-04-20T14:30:42.999Z</time></trkpt><trkpt lat="49.11546925905441" lon="6.344100528403063"><ele>280.0</ele><time>2026-04-20T14:30:43.999Z</time></trkpt><trkpt lat="49.11552292083582" lon="6.343878415815961"><ele>280.25</ele><time>2026-04-20T14:30:44.999Z</time></trkpt><trkpt lat="49.11557190923952" lon="6.34366142367613"><ele>280.5</ele><time>2026-04-20T14:30:45.999Z</time></trkpt><trkpt lat="49.115620489108196" lon="6.343451890089964"><ele>280.75</ele><time>2026-04-20T14:30:46.999Z</time></trkpt><trkpt lat="49.11567110229083" lon="6.343233786060589"><ele>281.0</ele><time>2026-04-20T14:30:47.999Z</time></trkpt><trkpt lat="49.11571842812779" lon="6.343010484308876"><ele>281.33333333333337</ele><time>2026-04-20T14:30:48.999Z</time></trkpt><trkpt lat="49.1157671242011" lon="6.342790794566536"><ele>281.6666666666667</ele><time>2026-04-20T14:30:50Z</time></trkpt><trkpt lat="49.11581581918691" lon="6.342577356846339"><ele>282.0</ele><time>2026-04-20T14:30:51Z</time></trkpt><trkpt lat="49.11586722472999" lon="6.342352623320134"><ele>281.6666666666667</ele><time>2026-04-20T14:30:52Z</time></trkpt><trkpt lat="49.11591603950801" lon="6.3421299783689165"><ele>281.33333333333337</ele><time>2026-04-20T14:30:53Z</time></trkpt><trkpt lat="49.11596578858951" lon="6.341906286739777"><ele>281.0</ele><time>2026-04-20T14:30:54Z</time></trkpt><trkpt lat="49.11601969901263" lon="6.341683205030006"><ele>281.0</ele><time>2026-04-20T14:30:55Z</time></trkpt><trkpt lat="49.11607179132129" lon="6.3414581207474825"><ele>281.0</ele><time>2026-04-20T14:30:56Z</time></trkpt><trkpt lat="49.11612328700607" lon="6.341243880432106"><ele>281.0</ele><time>2026-04-20T14:30:57Z</time></trkpt><trkpt lat="49.116171180336934" lon="6.3410275746989315"><ele>280.6666666666667</ele><time>2026-04-20T14:30:58Z</time></trkpt><trkpt lat="49.1162206773635" lon="6.340806645533495"><ele>280.3333333333333</ele><time>2026-04-20T14:30:59Z</time></trkpt><trkpt lat="49.11627125000526" lon="6.3405801946168046"><ele>280.0</ele><time>2026-04-20T14:31:00Z</time></trkpt><trkpt lat="49.116323393282286" lon="6.340350367859153"><ele>280.0</ele><time>2026-04-20T14:31:01Z</time></trkpt><trkpt lat="49.11637473746711" lon="6.340126124933073"><ele>280.0</ele><time>2026-04-20T14:31:02Z</time></trkpt><trkpt lat="49.11642710874228" lon="6.339902342499721"><ele>280.0</ele><time>2026-04-20T14:31:03Z</time></trkpt><trkpt lat="49.11647834449026" lon="6.339683232601676"><ele>280.3333333333333</ele><time>2026-04-20T14:31:04Z</time></trkpt><trkpt lat="49.11652941623214" lon="6.339458240572976"><ele>280.6666666666667</ele><time>2026-04-20T14:31:05Z</time></trkpt><trkpt lat="49.11658119388045" lon="6.3392258898896445"><ele>281.0</ele><time>2026-04-20T14:31:06Z</time></trkpt><trkpt lat="49.11663327998506" lon="6.33899327932572"><ele>280.33333333333337</ele><time>2026-04-20T14:31:07Z</time></trkpt><trkpt lat="49.116684269626276" lon="6.3387638088845355"><ele>279.6666666666667</ele><time>2026-04-20T14:31:08Z</time></trkpt><trkpt lat="49.11673606381368" lon="6.338539608527809"><ele>279.0</ele><time>2026-04-20T14:31:09Z</time></trkpt><trkpt lat="49.11678849784496" lon="6.338306415653845"><ele>279.0</ele><time>2026-04-20T14:31:10Z</time></trkpt><trkpt lat="49.11683995114699" lon="6.338072478336208"><ele>279.0</ele><time>2026-04-20T14:31:11Z</time></trkpt><trkpt lat="49.116895258235544" lon="6.337840364704549"><ele>279.0</ele><time>2026-04-20T14:31:12Z</time></trkpt><trkpt lat="49.11694825755538" lon="6.337616028633432"><ele>279.0</ele><time>2026-04-20T14:31:13Z</time></trkpt><trkpt lat="49.117000181838115" lon="6.33739409115767"><ele>279.0</ele><time>2026-04-20T14:31:14Z</time></trkpt><trkpt lat="49.11705205905625" lon="6.337173948971355"><ele>279.0</ele><time>2026-04-20T14:31:15Z</time></trkpt><trkpt lat="49.11710263755843" lon="6.336946805714649"><ele>278.6666666666667</ele><time>2026-04-20T14:31:16Z</time></trkpt><trkpt lat="49.1171522430004" lon="6.33672405234956"><ele>278.33333333333337</ele><time>2026-04-20T14:31:17Z</time></trkpt><trkpt lat="49.117204123081684" lon="6.33650097098963"><ele>278.0</ele><time>2026-04-20T14:31:18Z</time></trkpt><trkpt lat="49.11725339719099" lon="6.336288110951037"><ele>277.6666666666667</ele><time>2026-04-20T14:31:19Z</time></trkpt><trkpt lat="49.117300240163964" lon="6.336072105930456"><ele>277.3333333333333</ele><time>2026-04-20T14:31:20Z</time></trkpt><trkpt lat="49.117347577205344" lon="6.335851478152074"><ele>277.0</ele><time>2026-04-20T14:31:21Z</time></trkpt><trkpt lat="49.117393437157155" lon="6.335630891902198"><ele>277.25</ele><time>2026-04-20T14:31:22Z</time></trkpt><trkpt lat="49.117444622316015" lon="6.335414019943848"><ele>277.5</ele><time>2026-04-20T14:31:23Z</time></trkpt><trkpt lat="49.117494745759544" lon="6.335198179926921"><ele>277.75</ele><time>2026-04-20T14:31:24Z</time></trkpt><trkpt lat="49.11754188859861" lon="6.33498594374371"><ele>278.0</ele><time>2026-04-20T14:31:25Z</time></trkpt><trkpt lat="49.11759004560275" lon="6.3347707589145985"><ele>278.0</ele><time>2026-04-20T14:31:26Z</time></trkpt><trkpt lat="49.11763808728359" lon="6.33454619810453"><ele>278.0</ele><time>2026-04-20T14:31:27Z</time></trkpt><trkpt lat="49.11768407604442" lon="6.33433043134936"><ele>278.0</ele><time>2026-04-20T14:31:28Z</time></trkpt><trkpt lat="49.11773377881763" lon="6.334115235266708"><ele>278.0</ele><time>2026-04-20T14:31:29Z</time></trkpt><trkpt lat="49.117780599586105" lon="6.33390598406952"><ele>278.0</ele><time>2026-04-20T14:31:30Z</time></trkpt><trkpt lat="49.117826296060684" lon="6.333691652411321"><ele>278.0</ele><time>2026-04-20T14:31:31Z</time></trkpt><trkpt lat="49.117874183377424" lon="6.333477583969356"><ele>278.0</ele><time>2026-04-20T14:31:32Z</time></trkpt><trkpt lat="49.11792048417242" lon="6.333261892412203"><ele>278.25</ele><time>2026-04-20T14:31:33Z</time></trkpt><trkpt lat="49.11798450082866" lon="6.33305567357364"><ele>278.5</ele><time>2026-04-20T14:31:34Z</time></trkpt><trkpt lat="49.11803287947685" lon="6.332842308624546"><ele>278.75</ele><time>2026-04-20T14:31:35Z</time></trkpt><trkpt lat="49.11808147336276" lon="6.332627994456737"><ele>279.0</ele><time>2026-04-20T14:31:36Z</time></trkpt><trkpt lat="49.11813214342014" lon="6.332404523708889"><ele>278.0</ele><time>2026-04-20T14:31:37Z</time></trkpt><trkpt lat="49.11818268412663" lon="6.332181623484195"><ele>277.0</ele><time>2026-04-20T14:31:38Z</time></trkpt><trkpt lat="49.11823282755976" lon="6.331960475281248"><ele>276.0</ele><time>2026-04-20T14:31:39Z</time></trkpt><trkpt lat="49.11828329427232" lon="6.331739343721195"><ele>276.0</ele><time>2026-04-20T14:31:40Z</time></trkpt><trkpt lat="49.118318648937844" lon="6.3315160460798365"><ele>276.0</ele><time>2026-04-20T14:31:41Z</time></trkpt><trkpt lat="49.11836797618921" lon="6.331292515103454"><ele>276.0</ele><time>2026-04-20T14:31:42Z</time></trkpt><trkpt lat="49.118434663122095" lon="6.3310774316796214"><ele>276.0</ele><time>2026-04-20T14:31:43Z</time></trkpt><trkpt lat="49.11848604466424" lon="6.330852748263876"><ele>276.0</ele><time>2026-04-20T14:31:44Z</time></trkpt><trkpt lat="49.11852734371581" lon="6.330626883726949"><ele>276.0</ele><time>2026-04-20T14:31:45Z</time></trkpt><trkpt lat="49.11857516874368" lon="6.33040964763175"><ele>275.75</ele><time>2026-04-20T14:31:46Z</time></trkpt><trkpt lat="49.11862470920815" lon="6.330196017671576"><ele>275.5</ele><time>2026-04-20T14:31:47Z</time></trkpt><trkpt lat="49.118674571960746" lon="6.329979387564291"><ele>275.25</ele><time>2026-04-20T14:31:48Z</time></trkpt><trkpt lat="49.1187234484338" lon="6.329768543569749"><ele>275.0</ele><time>2026-04-20T14:31:49Z</time></trkpt><trkpt lat="49.11877194005367" lon="6.329552595344762"><ele>274.5</ele><time>2026-04-20T14:31:50Z</time></trkpt><trkpt lat="49.1188195535986" lon="6.329336650237611"><ele>274.0</ele><time>2026-04-20T14:31:51Z</time></trkpt><trkpt lat="49.11886670026732" lon="6.329124582595099"><ele>273.5</ele><time>2026-04-20T14:31:52Z</time></trkpt><trkpt lat="49.11891295069456" lon="6.328915066223791"><ele>273.0</ele><time>2026-04-20T14:31:53Z</time></trkpt><trkpt lat="49.1189607141411" lon="6.328706527282034"><ele>273.0</ele><time>2026-04-20T14:31:54Z</time></trkpt><trkpt lat="49.11900671965981" lon="6.328500859718766"><ele>273.0</ele><time>2026-04-20T14:31:55Z</time></trkpt><trkpt lat="49.11905446111187" lon="6.328290513491875"><ele>273.0</ele><time>2026-04-20T14:31:56Z</time></trkpt><trkpt lat="49.11910030295609" lon="6.328081115359725"><ele>273.0</ele><time>2026-04-20T14:31:57Z</time></trkpt><trkpt lat="49.119148074639114" lon="6.327862292276301"><ele>273.0</ele><time>2026-04-20T14:31:58Z</time></trkpt><trkpt lat="49.11919050147011" lon="6.327644044741177"><ele>273.0</ele><time>2026-04-20T14:31:58.999Z</time></trkpt><trkpt lat="49.11923499159693" lon="6.327423266231583"><ele>273.0</ele><time>2026-04-20T14:31:59.999Z</time></trkpt><trkpt lat="49.11927072491379" lon="6.327194212565596"><ele>272.3333333333333</ele><time>2026-04-20T14:32:00.999Z</time></trkpt><trkpt lat="49.11929150172052" lon="6.32696270363459"><ele>271.66666666666663</ele><time>2026-04-20T14:32:01.999Z</time></trkpt><trkpt lat="49.11930764898455" lon="6.326732040271488"><ele>271.0</ele><time>2026-04-20T14:32:02.999Z</time></trkpt><trkpt lat="49.11931502442384" lon="6.32649465039453"><ele>270.66666666666663</ele><time>2026-04-20T14:32:03.999Z</time></trkpt><trkpt lat="49.11931467345709" lon="6.326262570929566"><ele>270.3333333333333</ele><time>2026-04-20T14:32:04.999Z</time></trkpt><trkpt lat="49.119306755159116" lon="6.326040713580844"><ele>270.0</ele><time>2026-04-20T14:32:05.999Z</time></trkpt><trkpt lat="49.11928838886071" lon="6.325808095840276"><ele>270.0</ele><time>2026-04-20T14:32:06.999Z</time></trkpt><trkpt lat="49.11926426978704" lon="6.325576237745537"><ele>270.0</ele><time>2026-04-20T14:32:07.999Z</time></trkpt><trkpt lat="49.119233133509695" lon="6.325348254106048"><ele>270.0</ele><time>2026-04-20T14:32:08.999Z</time></trkpt><trkpt lat="49.11919150265275" lon="6.325127305477496"><ele>269.6666666666667</ele><time>2026-04-20T14:32:09.999Z</time></trkpt><trkpt lat="49.119142990669246" lon="6.32490445286509"><ele>269.33333333333337</ele><time>2026-04-20T14:32:10.999Z</time></trkpt><trkpt lat="49.11909151200812" lon="6.324679835668653"><ele>269.0</ele><time>2026-04-20T14:32:11.999Z</time></trkpt><trkpt lat="49.11903537641777" lon="6.324454298937536"><ele>269.0</ele><time>2026-04-20T14:32:12.999Z</time></trkpt><trkpt lat="49.11898286901631" lon="6.324235276397668"><ele>269.0</ele><time>2026-04-20T14:32:13.999Z</time></trkpt><trkpt lat="49.118931721700626" lon="6.324017851380686"><ele>269.0</ele><time>2026-04-20T14:32:14.999Z</time></trkpt><trkpt lat="49.118877933477506" lon="6.323795195555418"><ele>269.0</ele><time>2026-04-20T14:32:15.999Z</time></trkpt><trkpt lat="49.11882526130473" lon="6.3235755362615"><ele>269.0</ele><time>2026-04-20T14:32:16.999Z</time></trkpt><trkpt lat="49.11877327087493" lon="6.323359205627107"><ele>269.0</ele><time>2026-04-20T14:32:17.999Z</time></trkpt><trkpt lat="49.118723230381306" lon="6.3231523469909865"><ele>269.0</ele><time>2026-04-20T14:32:18.999Z</time></trkpt><trkpt lat="49.1186702291507" lon="6.322935808012861"><ele>269.33333333333337</ele><time>2026-04-20T14:32:19.999Z</time></trkpt><trkpt lat="49.1186148946169" lon="6.32270870082344"><ele>269.6666666666667</ele><time>2026-04-20T14:32:20.999Z</time></trkpt><trkpt lat="49.11856200751763" lon="6.322491775614148"><ele>270.0</ele><time>2026-04-20T14:32:21.999Z</time></trkpt><trkpt lat="49.11850808564742" lon="6.322268019585745"><ele>270.0</ele><time>2026-04-20T14:32:22.999Z</time></trkpt><trkpt lat="49.11845739024197" lon="6.322055928560689"><ele>270.0</ele><time>2026-04-20T14:32:23.999Z</time></trkpt><trkpt lat="49.1184042173879" lon="6.321839959523903"><ele>270.0</ele><time>2026-04-20T14:32:24.999Z</time></trkpt><trkpt lat="49.11835093519571" lon="6.321620678111805"><ele>270.0</ele><time>2026-04-20T14:32:25.999Z</time></trkpt><trkpt lat="49.11829850099855" lon="6.321402605681544"><ele>270.0</ele><time>2026-04-20T14:32:26.999Z</time></trkpt><trkpt lat="49.11824855157048" lon="6.321181992370048"><ele>270.0</ele><time>2026-04-20T14:32:27.999Z</time></trkpt><trkpt lat="49.118198890824885" lon="6.320971515812559"><ele>269.75</ele><time>2026-04-20T14:32:28.999Z</time></trkpt><trkpt lat="49.118148955582534" lon="6.3207621204578635"><ele>269.5</ele><time>2026-04-20T14:32:29.999Z</time></trkpt><trkpt lat="49.118101210704666" lon="6.320562254633285"><ele>269.25</ele><time>2026-04-20T14:32:30.999Z</time></trkpt><trkpt lat="49.11805727811812" lon="6.320376255929313"><ele>269.0</ele><time>2026-04-20T14:32:31.999Z</time></trkpt><trkpt lat="49.11801762310818" lon="6.320203029596662"><ele>269.0</ele><time>2026-04-20T14:32:32.999Z</time></trkpt><trkpt lat="49.11798331941741" lon="6.320040962881858"><ele>269.0</ele><time>2026-04-20T14:32:33.999Z</time></trkpt><trkpt lat="49.11794770227671" lon="6.319895757150887"><ele>269.0</ele><time>2026-04-20T14:32:34.999Z</time></trkpt><trkpt lat="49.11791917264342" lon="6.31977240152771"><ele>269.0</ele><time>2026-04-20T14:32:35.999Z</time></trkpt><trkpt lat="49.11789611696666" lon="6.319662720449935"><ele>269.0</ele><time>2026-04-20T14:32:36.999Z</time></trkpt><trkpt lat="49.1178896006856" lon="6.319543499291177"><ele>269.2</ele><time>2026-04-20T14:32:37.999Z</time></trkpt><trkpt lat="49.117906313263944" lon="6.319414952588936"><ele>269.4</ele><time>2026-04-20T14:32:38.999Z</time></trkpt><trkpt lat="49.11795160170089" lon="6.3192972133621295"><ele>269.6</ele><time>2026-04-20T14:32:39.999Z</time></trkpt><trkpt lat="49.118020961101486" lon="6.319187339350047"><ele>269.8</ele><time>2026-04-20T14:32:40.999Z</time></trkpt><trkpt lat="49.11811458484067" lon="6.319112745118329"><ele>270.0</ele><time>2026-04-20T14:32:41.999Z</time></trkpt><trkpt lat="49.11822230695139" lon="6.3190596035579185"><ele>270.0</ele><time>2026-04-20T14:32:42.999Z</time></trkpt><trkpt lat="49.118337557807955" lon="6.319012603089888"><ele>270.0</ele><time>2026-04-20T14:32:43.999Z</time></trkpt><trkpt lat="49.11846516340202" lon="6.318969546972947"><ele>270.0</ele><time>2026-04-20T14:32:44.999Z</time></trkpt><trkpt lat="49.118596041590564" lon="6.318932206177605"><ele>270.0</ele><time>2026-04-20T14:32:45.999Z</time></trkpt><trkpt lat="49.118723369641714" lon="6.31889895360885"><ele>270.0</ele><time>2026-04-20T14:32:46.999Z</time></trkpt><trkpt lat="49.11885882286717" lon="6.3188606730326775"><ele>270.0</ele><time>2026-04-20T14:32:47.999Z</time></trkpt><trkpt lat="49.118996586503506" lon="6.318821513360249"><ele>270.0</ele><time>2026-04-20T14:32:48.999Z</time></trkpt><trkpt lat="49.11913778107598" lon="6.31878103654279"><ele>270.0</ele><time>2026-04-20T14:32:49.999Z</time></trkpt><trkpt lat="49.11928208172241" lon="6.31873749844277"><ele>270.0</ele><time>2026-04-20T14:32:50.999Z</time></trkpt><trkpt lat="49.11942871444493" lon="6.318692129979281"><ele>270.0</ele><time>2026-04-20T14:32:51.999Z</time></trkpt><trkpt lat="49.11957427830904" lon="6.31865078266821"><ele>270.0</ele><time>2026-04-20T14:32:52.999Z</time></trkpt><trkpt lat="49.119720341298205" lon="6.318608362268855"><ele>270.0</ele><time>2026-04-20T14:32:53.999Z</time></trkpt><trkpt lat="49.11987018723216" lon="6.318565922237895"><ele>269.6666666666667</ele><time>2026-04-20T14:32:54.999Z</time></trkpt><trkpt lat="49.120023119214416" lon="6.318520572490423"><ele>269.33333333333337</ele><time>2026-04-20T14:32:56Z</time></trkpt><trkpt lat="49.120182533056756" lon="6.318472072338496"><ele>269.0</ele><time>2026-04-20T14:32:57Z</time></trkpt><trkpt lat="49.120337417840865" lon="6.318427456543709"><ele>269.0</ele><time>2026-04-20T14:32:58Z</time></trkpt><trkpt lat="49.12049279715167" lon="6.318380591655141"><ele>269.0</ele><time>2026-04-20T14:32:59Z</time></trkpt><trkpt lat="49.12064512847705" lon="6.3183356548171945"><ele>269.0</ele><time>2026-04-20T14:33:00Z</time></trkpt><trkpt lat="49.120791708329286" lon="6.318290667029243"><ele>269.0</ele><time>2026-04-20T14:33:01Z</time></trkpt><trkpt lat="49.120940690437685" lon="6.318247028611896"><ele>269.0</ele><time>2026-04-20T14:33:02Z</time></trkpt><trkpt lat="49.12108984388207" lon="6.318199968104506"><ele>269.0</ele><time>2026-04-20T14:33:03Z</time></trkpt><trkpt lat="49.12124029951741" lon="6.318151840666581"><ele>269.0</ele><time>2026-04-20T14:33:04Z</time></trkpt><trkpt lat="49.121392023761565" lon="6.318106940513272"><ele>269.0</ele><time>2026-04-20T14:33:05Z</time></trkpt><trkpt lat="49.121547188402936" lon="6.318060118820045"><ele>269.0</ele><time>2026-04-20T14:33:06Z</time></trkpt><trkpt lat="49.1217022694778" lon="6.318016112618926"><ele>268.6666666666667</ele><time>2026-04-20T14:33:07Z</time></trkpt><trkpt lat="49.12185594171118" lon="6.317972106248179"><ele>268.3333333333333</ele><time>2026-04-20T14:33:08Z</time></trkpt><trkpt lat="49.12200556182562" lon="6.317925372715925"><ele>268.0</ele><time>2026-04-20T14:33:09Z</time></trkpt><trkpt lat="49.122157863554655" lon="6.317879443204948"><ele>268.0</ele><time>2026-04-20T14:33:10Z</time></trkpt><trkpt lat="49.122304131304176" lon="6.3178355090288125"><ele>268.0</ele><time>2026-04-20T14:33:11Z</time></trkpt><trkpt lat="49.122445396004345" lon="6.317791980678937"><ele>268.0</ele><time>2026-04-20T14:33:12Z</time></trkpt><trkpt lat="49.122592133964964" lon="6.317746953328381"><ele>268.0</ele><time>2026-04-20T14:33:13Z</time></trkpt><trkpt lat="49.122743755488536" lon="6.3177008732707485"><ele>269.0</ele><time>2026-04-20T14:33:14Z</time></trkpt><trkpt lat="49.1228923427307" lon="6.317656571346329"><ele>270.0</ele><time>2026-04-20T14:33:15Z</time></trkpt><trkpt lat="49.12304116704244" lon="6.317613669834748"><ele>271.0</ele><time>2026-04-20T14:33:16Z</time></trkpt><trkpt lat="49.12319034359699" lon="6.317570034413097"><ele>271.5</ele><time>2026-04-20T14:33:17Z</time></trkpt><trkpt lat="49.123340231712085" lon="6.317530550568001"><ele>272.0</ele><time>2026-04-20T14:33:18Z</time></trkpt><trkpt lat="49.12348933269359" lon="6.317499861268034"><ele>272.5</ele><time>2026-04-20T14:33:19Z</time></trkpt><trkpt lat="49.123633133033735" lon="6.317476018783018"><ele>273.0</ele><time>2026-04-20T14:33:20Z</time></trkpt><trkpt lat="49.123780206399566" lon="6.317459216646361"><ele>273.0</ele><time>2026-04-20T14:33:21Z</time></trkpt><trkpt lat="49.123931152144394" lon="6.317453528381382"><ele>273.0</ele><time>2026-04-20T14:33:22Z</time></trkpt><trkpt lat="49.12408258321504" lon="6.317455235646195"><ele>273.0</ele><time>2026-04-20T14:33:23Z</time></trkpt><trkpt lat="49.12422858940766" lon="6.317455311772877"><ele>273.0</ele><time>2026-04-20T14:33:24Z</time></trkpt><trkpt lat="49.12437042102753" lon="6.317456539318862"><ele>273.25</ele><time>2026-04-20T14:33:25Z</time></trkpt><trkpt lat="49.12451718492068" lon="6.317458730602792"><ele>273.5</ele><time>2026-04-20T14:33:26Z</time></trkpt><trkpt lat="49.12466718061566" lon="6.3174591400774665"><ele>273.75</ele><time>2026-04-20T14:33:27Z</time></trkpt><trkpt lat="49.12481671302369" lon="6.317461795429344"><ele>274.0</ele><time>2026-04-20T14:33:28Z</time></trkpt><trkpt lat="49.124968278163635" lon="6.317464210515881"><ele>274.0</ele><time>2026-04-20T14:33:29Z</time></trkpt><trkpt lat="49.125121587795306" lon="6.317469728050176"><ele>274.0</ele><time>2026-04-20T14:33:30Z</time></trkpt><trkpt lat="49.12526830779977" lon="6.317470236134705"><ele>274.0</ele><time>2026-04-20T14:33:31Z</time></trkpt><trkpt lat="49.125414476746315" lon="6.317473043895977"><ele>274.0</ele><time>2026-04-20T14:33:32Z</time></trkpt><trkpt lat="49.12556077650586" lon="6.317476615072681"><ele>274.0</ele><time>2026-04-20T14:33:33Z</time></trkpt><trkpt lat="49.1257100402743" lon="6.317480214492909"><ele>274.0</ele><time>2026-04-20T14:33:34Z</time></trkpt><trkpt lat="49.125862691668466" lon="6.31747810542525"><ele>274.0</ele><time>2026-04-20T14:33:35Z</time></trkpt><trkpt lat="49.126016436232334" lon="6.31747803536599"><ele>273.66666666666663</ele><time>2026-04-20T14:33:36Z</time></trkpt><trkpt lat="49.12617042127368" lon="6.317474513736689"><ele>273.3333333333333</ele><time>2026-04-20T14:33:37Z</time></trkpt><trkpt lat="49.126327819940784" lon="6.317473805870393"><ele>273.0</ele><time>2026-04-20T14:33:38Z</time></trkpt><trkpt lat="49.12648344627253" lon="6.3174752937998"><ele>273.0</ele><time>2026-04-20T14:33:39Z</time></trkpt><trkpt lat="49.12663366582098" lon="6.3174782961916875"><ele>273.0</ele><time>2026-04-20T14:33:40Z</time></trkpt><trkpt lat="49.126784595603624" lon="6.317481146944493"><ele>273.0</ele><time>2026-04-20T14:33:41Z</time></trkpt><trkpt lat="49.12693794306114" lon="6.317483935244916"><ele>273.0</ele><time>2026-04-20T14:33:42Z</time></trkpt><trkpt lat="49.12709160936566" lon="6.317489324099069"><ele>273.0</ele><time>2026-04-20T14:33:43Z</time></trkpt><trkpt lat="49.127243785293196" lon="6.317491395957097"><ele>273.0</ele><time>2026-04-20T14:33:44Z</time></trkpt><trkpt lat="49.12739037727908" lon="6.317495339012199"><ele>273.0</ele><time>2026-04-20T14:33:45Z</time></trkpt><trkpt lat="49.12753942974464" lon="6.317495661742477"><ele>273.0</ele><time>2026-04-20T14:33:46Z</time></trkpt><trkpt lat="49.127692546663724" lon="6.3175003149348825"><ele>273.0</ele><time>2026-04-20T14:33:47Z</time></trkpt><trkpt lat="49.12784552712956" lon="6.31750656159725"><ele>273.0</ele><time>2026-04-20T14:33:48Z</time></trkpt><trkpt lat="49.12799697135808" lon="6.317524315799929"><ele>273.0</ele><time>2026-04-20T14:33:49Z</time></trkpt><trkpt lat="49.12814424017916" lon="6.317558825297593"><ele>273.0</ele><time>2026-04-20T14:33:50Z</time></trkpt><trkpt lat="49.12829142971743" lon="6.317609348378865"><ele>273.3333333333333</ele><time>2026-04-20T14:33:51Z</time></trkpt><trkpt lat="49.12843816444599" lon="6.317676794724697"><ele>273.66666666666663</ele><time>2026-04-20T14:33:52Z</time></trkpt><trkpt lat="49.128582049358975" lon="6.317755525908029"><ele>274.0</ele><time>2026-04-20T14:33:53Z</time></trkpt><trkpt lat="49.12872116840131" lon="6.317845602392663"><ele>274.0</ele><time>2026-04-20T14:33:54Z</time></trkpt><trkpt lat="49.1288554734856" lon="6.317948187370148"><ele>274.0</ele><time>2026-04-20T14:33:55Z</time></trkpt><trkpt lat="49.12899218844165" lon="6.318055516201935"><ele>274.0</ele><time>2026-04-20T14:33:56Z</time></trkpt><trkpt lat="49.129130900738744" lon="6.318165309446055"><ele>273.3333333333333</ele><time>2026-04-20T14:33:56.999Z</time></trkpt><trkpt lat="49.12926991527862" lon="6.318274913631437"><ele>272.6666666666667</ele><time>2026-04-20T14:33:57.999Z</time></trkpt><trkpt lat="49.12941015811175" lon="6.318386666236009"><ele>272.0</ele><time>2026-04-20T14:33:58.999Z</time></trkpt><trkpt lat="49.12954782062857" lon="6.318486021248507"><ele>272.0</ele><time>2026-04-20T14:33:59.999Z</time></trkpt><trkpt lat="49.12968815958082" lon="6.318569000211531"><ele>272.0</ele><time>2026-04-20T14:34:00.999Z</time></trkpt><trkpt lat="49.12983481695421" lon="6.318639502605662"><ele>272.0</ele><time>2026-04-20T14:34:01.999Z</time></trkpt><trkpt lat="49.129985252347396" lon="6.318695088444924"><ele>271.0</ele><time>2026-04-20T14:34:02.999Z</time></trkpt><trkpt lat="49.13013583491687" lon="6.318739371304181"><ele>270.0</ele><time>2026-04-20T14:34:03.999Z</time></trkpt><trkpt lat="49.130284971672395" lon="6.318763349906897"><ele>269.0</ele><time>2026-04-20T14:34:04.999Z</time></trkpt><trkpt lat="49.1304414619048" lon="6.318778430832806"><ele>269.0</ele><time>2026-04-20T14:34:05.999Z</time></trkpt><trkpt lat="49.13059539030585" lon="6.318773277250027"><ele>269.0</ele><time>2026-04-20T14:34:06.999Z</time></trkpt><trkpt lat="49.13075417963509" lon="6.3187485672561055"><ele>269.0</ele><time>2026-04-20T14:34:07.999Z</time></trkpt><trkpt lat="49.13090215299319" lon="6.318714322700308"><ele>269.0</ele><time>2026-04-20T14:34:08.999Z</time></trkpt><trkpt lat="49.131047497037436" lon="6.318665171209388"><ele>269.0</ele><time>2026-04-20T14:34:09.999Z</time></trkpt><trkpt lat="49.13119192067144" lon="6.318621919550277"><ele>269.0</ele><time>2026-04-20T14:34:10.999Z</time></trkpt><trkpt lat="49.131335592562785" lon="6.318577372884401"><ele>269.0</ele><time>2026-04-20T14:34:11.999Z</time></trkpt><trkpt lat="49.13148212271087" lon="6.3185346297261695"><ele>268.0</ele><time>2026-04-20T14:34:12.999Z</time></trkpt><trkpt lat="49.131623850056585" lon="6.3184917246987595"><ele>267.0</ele><time>2026-04-20T14:34:13.999Z</time></trkpt><trkpt lat="49.13177485019465" lon="6.318448620363974"><ele>266.0</ele><time>2026-04-20T14:34:14.999Z</time></trkpt><trkpt lat="49.1319254268878" lon="6.318403030331296"><ele>266.0</ele><time>2026-04-20T14:34:15.999Z</time></trkpt><trkpt lat="49.13207213459139" lon="6.31835846845009"><ele>266.0</ele><time>2026-04-20T14:34:16.999Z</time></trkpt><trkpt lat="49.13222386127179" lon="6.318317500266529"><ele>266.0</ele><time>2026-04-20T14:34:17.999Z</time></trkpt><trkpt lat="49.13237015461311" lon="6.31827742096372"><ele>265.5</ele><time>2026-04-20T14:34:18.999Z</time></trkpt><trkpt lat="49.13251321280886" lon="6.318239652973367"><ele>265.0</ele><time>2026-04-20T14:34:19.999Z</time></trkpt><trkpt lat="49.13266381091911" lon="6.318205874876372"><ele>264.5</ele><time>2026-04-20T14:34:20.999Z</time></trkpt><trkpt lat="49.13281353155892" lon="6.31817629143117"><ele>264.0</ele><time>2026-04-20T14:34:21.999Z</time></trkpt><trkpt lat="49.132963852657205" lon="6.318154042343944"><ele>264.0</ele><time>2026-04-20T14:34:22.999Z</time></trkpt><trkpt lat="49.1331159007765" lon="6.318137061870534"><ele>264.0</ele><time>2026-04-20T14:34:23.999Z</time></trkpt><trkpt lat="49.13326033705357" lon="6.318123953407067"><ele>264.0</ele><time>2026-04-20T14:34:24.999Z</time></trkpt><trkpt lat="49.133396509804044" lon="6.3181136501615445"><ele>264.0</ele><time>2026-04-20T14:34:25.999Z</time></trkpt><trkpt lat="49.13352392112505" lon="6.318103678957397"><ele>263.75</ele><time>2026-04-20T14:34:26.999Z</time></trkpt><trkpt lat="49.13365856428563" lon="6.318105307223406"><ele>263.5</ele><time>2026-04-20T14:34:27.999Z</time></trkpt><trkpt lat="49.13379680748483" lon="6.318096886525574"><ele>263.25</ele><time>2026-04-20T14:34:28.999Z</time></trkpt><trkpt lat="49.13393643848971" lon="6.318088719503342"><ele>263.0</ele><time>2026-04-20T14:34:29.999Z</time></trkpt><trkpt lat="49.134067701644504" lon="6.318082092924256"><ele>263.4</ele><time>2026-04-20T14:34:30.999Z</time></trkpt><trkpt lat="49.13418652194875" lon="6.318081457823034"><ele>263.8</ele><time>2026-04-20T14:34:31.999Z</time></trkpt><trkpt lat="49.13428983950836" lon="6.318077598437541"><ele>264.2</ele><time>2026-04-20T14:34:32.999Z</time></trkpt><trkpt lat="49.13438383574109" lon="6.318075329495351"><ele>264.6</ele><time>2026-04-20T14:34:33.999Z</time></trkpt><trkpt lat="49.134471609267" lon="6.318075615319415"><ele>265.0</ele><time>2026-04-20T14:34:34.999Z</time></trkpt><trkpt lat="49.13455379053666" lon="6.318073760176794"><ele>265.0</ele><time>2026-04-20T14:34:35.999Z</time></trkpt><trkpt lat="49.13463740749243" lon="6.3180692762232455"><ele>265.0</ele><time>2026-04-20T14:34:36.999Z</time></trkpt><trkpt lat="49.13472648432941" lon="6.31806607548035"><ele>265.0</ele><time>2026-04-20T14:34:37.999Z</time></trkpt><trkpt lat="49.13482863175817" lon="6.318059568039075"><ele>265.0</ele><time>2026-04-20T14:34:38.999Z</time></trkpt><trkpt lat="49.13493362382184" lon="6.31805571449356"><ele>265.0</ele><time>2026-04-20T14:34:39.999Z</time></trkpt><trkpt lat="49.135045010706975" lon="6.3180506719128156"><ele>264.0</ele><time>2026-04-20T14:34:40.999Z</time></trkpt><trkpt lat="49.135163612855465" lon="6.3180457416047275"><ele>263.0</ele><time>2026-04-20T14:34:41.999Z</time></trkpt><trkpt lat="49.13528721159667" lon="6.318039578828697"><ele>262.0</ele><time>2026-04-20T14:34:42.999Z</time></trkpt><trkpt lat="49.13542280168588" lon="6.3180368351236496"><ele>261.0</ele><time>2026-04-20T14:34:43.999Z</time></trkpt><trkpt lat="49.135563665343895" lon="6.318027990485257"><ele>261.0</ele><time>2026-04-20T14:34:44.999Z</time></trkpt><trkpt lat="49.135705253339424" lon="6.31802128036822"><ele>261.0</ele><time>2026-04-20T14:34:45.999Z</time></trkpt><trkpt lat="49.135849748682034" lon="6.318014395329161"><ele>261.0</ele><time>2026-04-20T14:34:46.999Z</time></trkpt><trkpt lat="49.13599719980831" lon="6.318005348135955"><ele>261.0</ele><time>2026-04-20T14:34:47.999Z</time></trkpt><trkpt lat="49.13615037056307" lon="6.3179956970717095"><ele>260.0</ele><time>2026-04-20T14:34:48.999Z</time></trkpt><trkpt lat="49.136298926648934" lon="6.3179859647818795"><ele>259.0</ele><time>2026-04-20T14:34:49.999Z</time></trkpt><trkpt lat="49.136444077181196" lon="6.317980365392234"><ele>258.0</ele><time>2026-04-20T14:34:50.999Z</time></trkpt><trkpt lat="49.136588603615124" lon="6.317975847990794"><ele>257.0</ele><time>2026-04-20T14:34:51.999Z</time></trkpt><trkpt lat="49.13673852438834" lon="6.317967682880199"><ele>256.6666666666667</ele><time>2026-04-20T14:34:52.999Z</time></trkpt><trkpt lat="49.13688972195565" lon="6.3179599011676695"><ele>256.3333333333333</ele><time>2026-04-20T14:34:53.999Z</time></trkpt><trkpt lat="49.13704180605531" lon="6.317950900813678"><ele>256.0</ele><time>2026-04-20T14:34:54.999Z</time></trkpt><trkpt lat="49.13719256779093" lon="6.31793808873538"><ele>256.0</ele><time>2026-04-20T14:34:55.999Z</time></trkpt><trkpt lat="49.137342321508754" lon="6.3179288963858005"><ele>256.0</ele><time>2026-04-20T14:34:56.999Z</time></trkpt><trkpt lat="49.13748783232921" lon="6.317921819073869"><ele>256.0</ele><time>2026-04-20T14:34:57.999Z</time></trkpt><trkpt lat="49.13763404543298" lon="6.317918761918314"><ele>256.0</ele><time>2026-04-20T14:34:58.999Z</time></trkpt><trkpt lat="49.13777960976846" lon="6.317909128641535"><ele>257.0</ele><time>2026-04-20T14:34:59.999Z</time></trkpt><trkpt lat="49.137923323858615" lon="6.317904764835957"><ele>258.0</ele><time>2026-04-20T14:35:00.999Z</time></trkpt><trkpt lat="49.13806872447282" lon="6.3178965263978775"><ele>259.0</ele><time>2026-04-20T14:35:02Z</time></trkpt><trkpt lat="49.13821505432538" lon="6.317886273035712"><ele>260.0</ele><time>2026-04-20T14:35:03Z</time></trkpt><trkpt lat="49.138358359157635" lon="6.317877317806496"><ele>261.5</ele><time>2026-04-20T14:35:04Z</time></trkpt><trkpt lat="49.138503130416176" lon="6.317869014190398"><ele>263.0</ele><time>2026-04-20T14:35:05Z</time></trkpt><trkpt lat="49.1386456011443" lon="6.317861557428671"><ele>264.5</ele><time>2026-04-20T14:35:06Z</time></trkpt><trkpt lat="49.13878001486078" lon="6.317848640813297"><ele>266.0</ele><time>2026-04-20T14:35:07Z</time></trkpt><trkpt lat="49.1389180811147" lon="6.317832026457977"><ele>266.5</ele><time>2026-04-20T14:35:08Z</time></trkpt><trkpt lat="49.139053910415285" lon="6.3177969279297725"><ele>267.0</ele><time>2026-04-20T14:35:09Z</time></trkpt><trkpt lat="49.13918826542069" lon="6.317734317205882"><ele>267.5</ele><time>2026-04-20T14:35:10Z</time></trkpt><trkpt lat="49.1393176221534" lon="6.317638236027633"><ele>268.0</ele><time>2026-04-20T14:35:11Z</time></trkpt><trkpt lat="49.139440608639035" lon="6.317518130478852"><ele>268.0</ele><time>2026-04-20T14:35:12Z</time></trkpt><trkpt lat="49.139557877313315" lon="6.3173897785286846"><ele>268.0</ele><time>2026-04-20T14:35:13Z</time></trkpt><trkpt lat="49.13967596123812" lon="6.317261780785186"><ele>268.0</ele><time>2026-04-20T14:35:14Z</time></trkpt><trkpt lat="49.139792065826455" lon="6.317131478118723"><ele>268.0</ele><time>2026-04-20T14:35:15Z</time></trkpt><trkpt lat="49.13991230955611" lon="6.316998364038626"><ele>266.75</ele><time>2026-04-20T14:35:16Z</time></trkpt><trkpt lat="49.140033562792226" lon="6.31686531748637"><ele>265.5</ele><time>2026-04-20T14:35:17Z</time></trkpt><trkpt lat="49.14014785544807" lon="6.316734749458144"><ele>264.25</ele><time>2026-04-20T14:35:18Z</time></trkpt><trkpt lat="49.14026496916274" lon="6.316605238726896"><ele>263.0</ele><time>2026-04-20T14:35:19Z</time></trkpt><trkpt lat="49.14038556545325" lon="6.316473533018953"><ele>262.75</ele><time>2026-04-20T14:35:20Z</time></trkpt><trkpt lat="49.1405091860483" lon="6.3163437686056625"><ele>262.5</ele><time>2026-04-20T14:35:21Z</time></trkpt><trkpt lat="49.140628118926976" lon="6.316208341279403"><ele>262.25</ele><time>2026-04-20T14:35:22Z</time></trkpt><trkpt lat="49.14074513553548" lon="6.316073173420699"><ele>262.0</ele><time>2026-04-20T14:35:23Z</time></trkpt><trkpt lat="49.14086004594398" lon="6.3159395156723015"><ele>262.0</ele><time>2026-04-20T14:35:24Z</time></trkpt><trkpt lat="49.14098398210719" lon="6.315806325548452"><ele>262.0</ele><time>2026-04-20T14:35:25Z</time></trkpt><trkpt lat="49.14109639641361" lon="6.315672925934808"><ele>262.0</ele><time>2026-04-20T14:35:26Z</time></trkpt><trkpt lat="49.141227556799365" lon="6.315553369882268"><ele>262.0</ele><time>2026-04-20T14:35:27Z</time></trkpt><trkpt lat="49.14134473347081" lon="6.315423483369124"><ele>262.0</ele><time>2026-04-20T14:35:28Z</time></trkpt><trkpt lat="49.1414629347544" lon="6.315291263392607"><ele>262.0</ele><time>2026-04-20T14:35:29Z</time></trkpt><trkpt lat="49.14158362536389" lon="6.315157407243798"><ele>262.0</ele><time>2026-04-20T14:35:30Z</time></trkpt><trkpt lat="49.141701259716214" lon="6.315025188101892"><ele>262.0</ele><time>2026-04-20T14:35:31Z</time></trkpt><trkpt lat="49.14181928829159" lon="6.314892762409055"><ele>263.5</ele><time>2026-04-20T14:35:32Z</time></trkpt><trkpt lat="49.1419373952352" lon="6.314760755879356"><ele>265.0</ele><time>2026-04-20T14:35:33Z</time></trkpt><trkpt lat="49.14205477896973" lon="6.314629358896135"><ele>266.5</ele><time>2026-04-20T14:35:34Z</time></trkpt><trkpt lat="49.14217237418072" lon="6.314500700627073"><ele>268.0</ele><time>2026-04-20T14:35:35Z</time></trkpt><trkpt lat="49.142295674012615" lon="6.31438055535662"><ele>267.5</ele><time>2026-04-20T14:35:36Z</time></trkpt><trkpt lat="49.142422590954176" lon="6.314278016486579"><ele>267.0</ele><time>2026-04-20T14:35:37Z</time></trkpt><trkpt lat="49.14255037605296" lon="6.314199391583843"><ele>266.5</ele><time>2026-04-20T14:35:38Z</time></trkpt><trkpt lat="49.14268939332326" lon="6.314147085549724"><ele>266.0</ele><time>2026-04-20T14:35:39Z</time></trkpt><trkpt lat="49.14283207270373" lon="6.314109866351162"><ele>266.0</ele><time>2026-04-20T14:35:40Z</time></trkpt><trkpt lat="49.14297847988838" lon="6.314074872974167"><ele>266.0</ele><time>2026-04-20T14:35:41Z</time></trkpt><trkpt lat="49.143126322461086" lon="6.314043599686202"><ele>266.0</ele><time>2026-04-20T14:35:42Z</time></trkpt><trkpt lat="49.14327298453456" lon="6.314006723979437"><ele>266.0</ele><time>2026-04-20T14:35:43Z</time></trkpt><trkpt lat="49.143416227597264" lon="6.313976581968824"><ele>265.0</ele><time>2026-04-20T14:35:44Z</time></trkpt><trkpt lat="49.143551952692434" lon="6.313945002219729"><ele>264.0</ele><time>2026-04-20T14:35:45Z</time></trkpt><trkpt lat="49.14368380734761" lon="6.313916721853173"><ele>263.0</ele><time>2026-04-20T14:35:46Z</time></trkpt><trkpt lat="49.14380715579319" lon="6.3138892763813"><ele>262.0</ele><time>2026-04-20T14:35:47Z</time></trkpt><trkpt lat="49.14392069642138" lon="6.313864136820175"><ele>261.5</ele><time>2026-04-20T14:35:48Z</time></trkpt><trkpt lat="49.144031640250724" lon="6.313838639491472"><ele>261.0</ele><time>2026-04-20T14:35:49Z</time></trkpt><trkpt lat="49.14414788631528" lon="6.3138121323285565"><ele>260.5</ele><time>2026-04-20T14:35:50Z</time></trkpt><trkpt lat="49.14427083788196" lon="6.313786853316011"><ele>260.0</ele><time>2026-04-20T14:35:51Z</time></trkpt><trkpt lat="49.14439420120271" lon="6.313760192950056"><ele>260.0</ele><time>2026-04-20T14:35:52Z</time></trkpt><trkpt lat="49.14452230234716" lon="6.313733306785239"><ele>260.0</ele><time>2026-04-20T14:35:53Z</time></trkpt><trkpt lat="49.14465091403561" lon="6.313706052820304"><ele>260.0</ele><time>2026-04-20T14:35:54Z</time></trkpt><trkpt lat="49.144778550719806" lon="6.313680341990896"><ele>260.0</ele><time>2026-04-20T14:35:55Z</time></trkpt><trkpt lat="49.1449050201606" lon="6.313654500068354"><ele>260.6</ele><time>2026-04-20T14:35:56Z</time></trkpt><trkpt lat="49.1450267166467" lon="6.3136273862487995"><ele>261.2</ele><time>2026-04-20T14:35:57Z</time></trkpt><trkpt lat="49.14514386440771" lon="6.313598638666502"><ele>261.8</ele><time>2026-04-20T14:35:58Z</time></trkpt><trkpt lat="49.145243828091644" lon="6.313575706239356"><ele>262.4</ele><time>2026-04-20T14:35:58.999Z</time></trkpt><trkpt lat="49.14533033941622" lon="6.313561035405171"><ele>263.0</ele><time>2026-04-20T14:35:59.999Z</time></trkpt><trkpt lat="49.14540697152579" lon="6.313550102069424"><ele>263.0</ele><time>2026-04-20T14:36:00.999Z</time></trkpt><trkpt lat="49.14547664638612" lon="6.313549630945736"><ele>263.0</ele><time>2026-04-20T14:36:01.999Z</time></trkpt><trkpt lat="49.14556991254826" lon="6.313554998050256"><ele>263.0</ele><time>2026-04-20T14:36:03.999Z</time></trkpt><trkpt lat="49.14563942066298" lon="6.313561146119288"><ele>263.0</ele><time>2026-04-20T14:36:05.999Z</time></trkpt><trkpt lat="49.14571026148986" lon="6.3135678569762455"><ele>263.0</ele><time>2026-04-20T14:36:08.999Z</time></trkpt><trkpt lat="49.14577089796734" lon="6.313380330210327"><ele>263.0</ele><time>2026-04-20T14:36:43.999Z</time></trkpt><trkpt lat="49.145732395750535" lon="6.313490751834198"><ele>263.0</ele><time>2026-04-20T14:42:47.999Z</time></trkpt><trkpt lat="49.14565605362999" lon="6.313517561520854"><ele>263.0</ele><time>2026-04-20T14:42:50.999Z</time></trkpt><trkpt lat="49.145574397988725" lon="6.313500730891635"><ele>263.0</ele><time>2026-04-20T14:42:52.999Z</time></trkpt><trkpt lat="49.145504591488304" lon="6.313490029960788"><ele>263.0</ele><time>2026-04-20T14:42:54.999Z</time></trkpt><trkpt lat="49.145546303710915" lon="6.313574535975743"><ele>263.0</ele><time>2026-04-20T14:42:58.999Z</time></trkpt><trkpt lat="49.14566090374256" lon="6.313571466691406"><ele>263.0</ele><time>2026-04-20T14:43:00.999Z</time></trkpt><trkpt lat="49.14572862909789" lon="6.313578591408499"><ele>263.7142857142857</ele><time>2026-04-20T14:43:01.999Z</time></trkpt><trkpt lat="49.14579980084919" lon="6.31359304807868"><ele>264.4285714285714</ele><time>2026-04-20T14:43:02.999Z</time></trkpt><trkpt lat="49.14586937351479" lon="6.313604888992461"><ele>265.1428571428571</ele><time>2026-04-20T14:43:03.999Z</time></trkpt><trkpt lat="49.145936761868676" lon="6.313603638114019"><ele>265.85714285714283</ele><time>2026-04-20T14:43:04.999Z</time></trkpt><trkpt lat="49.146005517015794" lon="6.313605894057997"><ele>266.57142857142856</ele><time>2026-04-20T14:43:05.999Z</time></trkpt><trkpt lat="49.146076260418624" lon="6.313608711990584"><ele>267.2857142857143</ele><time>2026-04-20T14:43:06.999Z</time></trkpt><trkpt lat="49.14614249521417" lon="6.313622893808528"><ele>268.0</ele><time>2026-04-20T14:43:07.999Z</time></trkpt><trkpt lat="49.1462073353756" lon="6.313647919729363"><ele>268.0</ele><time>2026-04-20T14:43:08.999Z</time></trkpt><trkpt lat="49.1463154769145" lon="6.313705777649175"><ele>268.0</ele><time>2026-04-20T14:43:10.999Z</time></trkpt><trkpt lat="49.14636480620453" lon="6.313769129485262"><ele>268.0</ele><time>2026-04-20T14:43:11.999Z</time></trkpt><trkpt lat="49.14642256563601" lon="6.313829203754697"><ele>268.0</ele><time>2026-04-20T14:43:12.999Z</time></trkpt><trkpt lat="49.14648666934991" lon="6.313831071156302"><ele>268.0</ele><time>2026-04-20T14:43:13.999Z</time></trkpt><trkpt lat="49.146570558056254" lon="6.313739478793048"><ele>268.0</ele><time>2026-04-20T14:43:15.999Z</time></trkpt><trkpt lat="49.146610319853025" lon="6.31365000559673"><ele>268.0</ele><time>2026-04-20T14:43:16.999Z</time></trkpt><trkpt lat="49.146630861735744" lon="6.31354762018483"><ele>268.0</ele><time>2026-04-20T14:43:17.999Z</time></trkpt><trkpt lat="49.14659835019264" lon="6.313444901980595"><ele>268.0</ele><time>2026-04-20T14:43:18.999Z</time></trkpt><trkpt lat="49.14654196268235" lon="6.313356024825828"><ele>268.0</ele><time>2026-04-20T14:43:19.999Z</time></trkpt><trkpt lat="49.14647386753321" lon="6.313283130514401"><ele>268.0</ele><time>2026-04-20T14:43:20.999Z</time></trkpt><trkpt lat="49.14642500528346" lon="6.313197099253988"><ele>268.0</ele><time>2026-04-20T14:43:21.999Z</time></trkpt><trkpt lat="49.14639512693574" lon="6.31307536748184"><ele>268.2</ele><time>2026-04-20T14:43:22.999Z</time></trkpt><trkpt lat="49.14637433666384" lon="6.312932033687336"><ele>268.4</ele><time>2026-04-20T14:43:23.999Z</time></trkpt><trkpt lat="49.14635728233683" lon="6.31279003035969"><ele>268.59999999999997</ele><time>2026-04-20T14:43:24.999Z</time></trkpt><trkpt lat="49.146334702256155" lon="6.312634918688309"><ele>268.8</ele><time>2026-04-20T14:43:26Z</time></trkpt><trkpt lat="49.14630925106249" lon="6.312469598665352"><ele>269.0</ele><time>2026-04-20T14:43:27Z</time></trkpt><trkpt lat="49.14628360534416" lon="6.3123151574301986"><ele>268.75</ele><time>2026-04-20T14:43:28Z</time></trkpt><trkpt lat="49.14626035032222" lon="6.312162180908351"><ele>268.5</ele><time>2026-04-20T14:43:29Z</time></trkpt><trkpt lat="49.14623118275229" lon="6.3119905459768235"><ele>268.25</ele><time>2026-04-20T14:43:30Z</time></trkpt><trkpt lat="49.14620970491007" lon="6.311820715069844"><ele>268.0</ele><time>2026-04-20T14:43:31Z</time></trkpt><trkpt lat="49.14618686395425" lon="6.3116357931758245"><ele>268.0</ele><time>2026-04-20T14:43:32Z</time></trkpt><trkpt lat="49.146159118389804" lon="6.311448853359745"><ele>268.0</ele><time>2026-04-20T14:43:33Z</time></trkpt><trkpt lat="49.146123079063734" lon="6.311266004851663"><ele>268.0</ele><time>2026-04-20T14:43:34Z</time></trkpt><trkpt lat="49.14609407627839" lon="6.311082674435693"><ele>268.0</ele><time>2026-04-20T14:43:35Z</time></trkpt><trkpt lat="49.14606485766032" lon="6.310896033421881"><ele>268.0</ele><time>2026-04-20T14:43:36Z</time></trkpt><trkpt lat="49.14603866016143" lon="6.310694594296374"><ele>268.0</ele><time>2026-04-20T14:43:37Z</time></trkpt><trkpt lat="49.14601024519261" lon="6.310499854420828"><ele>268.0</ele><time>2026-04-20T14:43:38Z</time></trkpt><trkpt lat="49.14598424739056" lon="6.310311607702816"><ele>268.0</ele><time>2026-04-20T14:43:39Z</time></trkpt><trkpt lat="49.145956505350284" lon="6.310123831194491"><ele>268.0</ele><time>2026-04-20T14:43:40Z</time></trkpt><trkpt lat="49.145928402686344" lon="6.309929508278688"><ele>268.0</ele><time>2026-04-20T14:43:41Z</time></trkpt><trkpt lat="49.14589937497514" lon="6.309734760207479"><ele>268.0</ele><time>2026-04-20T14:43:42Z</time></trkpt><trkpt lat="49.14587156402864" lon="6.309542586753364"><ele>268.0</ele><time>2026-04-20T14:43:43Z</time></trkpt><trkpt lat="49.145840639065256" lon="6.309348781795241"><ele>268.0</ele><time>2026-04-20T14:43:44Z</time></trkpt><trkpt lat="49.14581144332368" lon="6.309153732762398"><ele>268.0</ele><time>2026-04-20T14:43:45Z</time></trkpt><trkpt lat="49.14578457544575" lon="6.308968051718195"><ele>268.0</ele><time>2026-04-20T14:43:46Z</time></trkpt><trkpt lat="49.14575662337601" lon="6.308776335769145"><ele>268.0</ele><time>2026-04-20T14:43:47Z</time></trkpt><trkpt lat="49.145729449201404" lon="6.308582898718729"><ele>267.5</ele><time>2026-04-20T14:43:48Z</time></trkpt><trkpt lat="49.14570203090498" lon="6.308389141880082"><ele>267.0</ele><time>2026-04-20T14:43:49Z</time></trkpt><trkpt lat="49.145672944349684" lon="6.3081949044718755"><ele>266.5</ele><time>2026-04-20T14:43:50Z</time></trkpt><trkpt lat="49.14564448377436" lon="6.3080013284942"><ele>266.0</ele><time>2026-04-20T14:43:51Z</time></trkpt><trkpt lat="49.14561506115089" lon="6.307806500911613"><ele>266.0</ele><time>2026-04-20T14:43:52Z</time></trkpt><trkpt lat="49.1455857610159" lon="6.3076129698565335"><ele>266.0</ele><time>2026-04-20T14:43:53Z</time></trkpt><trkpt lat="49.14555779964655" lon="6.307417970307142"><ele>266.0</ele><time>2026-04-20T14:43:54Z</time></trkpt><trkpt lat="49.145530147065244" lon="6.307221517195599"><ele>266.0</ele><time>2026-04-20T14:43:55Z</time></trkpt><trkpt lat="49.1455009374611" lon="6.307021249537305"><ele>266.75</ele><time>2026-04-20T14:43:56Z</time></trkpt><trkpt lat="49.1454715861084" lon="6.306820100794656"><ele>267.5</ele><time>2026-04-20T14:43:57Z</time></trkpt><trkpt lat="49.14544060821528" lon="6.306625374219128"><ele>268.25</ele><time>2026-04-20T14:43:58Z</time></trkpt><trkpt lat="49.1454097777522" lon="6.3064308811706855"><ele>269.0</ele><time>2026-04-20T14:43:59Z</time></trkpt><trkpt lat="49.145377573767455" lon="6.306232602475734"><ele>269.75</ele><time>2026-04-20T14:44:00Z</time></trkpt><trkpt lat="49.1453452066583" lon="6.306032240052757"><ele>270.5</ele><time>2026-04-20T14:44:01Z</time></trkpt><trkpt lat="49.14531903540308" lon="6.305830839588034"><ele>271.25</ele><time>2026-04-20T14:44:02Z</time></trkpt><trkpt lat="49.14529337278507" lon="6.305623542138666"><ele>272.0</ele><time>2026-04-20T14:44:03Z</time></trkpt><trkpt lat="49.145263100753354" lon="6.305419863543086"><ele>272.5</ele><time>2026-04-20T14:44:04Z</time></trkpt><trkpt lat="49.14523139514573" lon="6.30521473044106"><ele>273.0</ele><time>2026-04-20T14:44:05Z</time></trkpt><trkpt lat="49.145201205946144" lon="6.305009116714704"><ele>273.5</ele><time>2026-04-20T14:44:06Z</time></trkpt><trkpt lat="49.14516616974871" lon="6.30480250324001"><ele>274.0</ele><time>2026-04-20T14:44:07Z</time></trkpt><trkpt lat="49.14513206534508" lon="6.30459848085384"><ele>274.25</ele><time>2026-04-20T14:44:08Z</time></trkpt><trkpt lat="49.14509044109537" lon="6.30439055031337"><ele>274.5</ele><time>2026-04-20T14:44:09Z</time></trkpt><trkpt lat="49.145042718190034" lon="6.3041954740578525"><ele>274.75</ele><time>2026-04-20T14:44:10Z</time></trkpt><trkpt lat="49.14499159640851" lon="6.30399881630873"><ele>275.0</ele><time>2026-04-20T14:44:11Z</time></trkpt><trkpt lat="49.1449315079076" lon="6.303799592714451"><ele>274.25</ele><time>2026-04-20T14:44:12Z</time></trkpt><trkpt lat="49.14486487102054" lon="6.3036060019565054"><ele>273.5</ele><time>2026-04-20T14:44:13Z</time></trkpt><trkpt lat="49.144796073843246" lon="6.303417365511275"><ele>272.75</ele><time>2026-04-20T14:44:14Z</time></trkpt><trkpt lat="49.14472981609399" lon="6.303237342156219"><ele>272.0</ele><time>2026-04-20T14:44:15Z</time></trkpt><trkpt lat="49.1446551334366" lon="6.303058617338548"><ele>272.0</ele><time>2026-04-20T14:44:16Z</time></trkpt><trkpt lat="49.14457679452361" lon="6.302876978530246"><ele>272.0</ele><time>2026-04-20T14:44:17Z</time></trkpt><trkpt lat="49.144495960396064" lon="6.302705917509947"><ele>272.0</ele><time>2026-04-20T14:44:18Z</time></trkpt><trkpt lat="49.14441427834631" lon="6.3025332618297565"><ele>272.0</ele><time>2026-04-20T14:44:19Z</time></trkpt><trkpt lat="49.14432873561864" lon="6.3023604517809835"><ele>272.0</ele><time>2026-04-20T14:44:20Z</time></trkpt><trkpt lat="49.144245424861914" lon="6.3021835076994"><ele>272.0</ele><time>2026-04-20T14:44:21Z</time></trkpt><trkpt lat="49.144158606069475" lon="6.3020055268082045"><ele>272.0</ele><time>2026-04-20T14:44:22Z</time></trkpt><trkpt lat="49.14407237806502" lon="6.3018225253680695"><ele>272.0</ele><time>2026-04-20T14:44:23Z</time></trkpt><trkpt lat="49.143978982912195" lon="6.301639273604012"><ele>271.5</ele><time>2026-04-20T14:44:23.999Z</time></trkpt><trkpt lat="49.14389397701411" lon="6.301462672544606"><ele>271.0</ele><time>2026-04-20T14:44:24.999Z</time></trkpt><trkpt lat="49.1438081669066" lon="6.301296113401924"><ele>270.5</ele><time>2026-04-20T14:44:25.999Z</time></trkpt><trkpt lat="49.143717480835754" lon="6.301117227758405"><ele>270.0</ele><time>2026-04-20T14:44:26.999Z</time></trkpt><trkpt lat="49.14362960388024" lon="6.300935637505902"><ele>270.0</ele><time>2026-04-20T14:44:27.999Z</time></trkpt><trkpt lat="49.14353899792155" lon="6.3007554166892055"><ele>270.0</ele><time>2026-04-20T14:44:28.999Z</time></trkpt><trkpt lat="49.14345015269494" lon="6.300592197292416"><ele>270.0</ele><time>2026-04-20T14:44:29.999Z</time></trkpt><trkpt lat="49.143338508464915" lon="6.3003858663996"><ele>269.75</ele><time>2026-04-20T14:44:30.999Z</time></trkpt><trkpt lat="49.1432429539034" lon="6.300215594609318"><ele>269.5</ele><time>2026-04-20T14:44:31.999Z</time></trkpt><trkpt lat="49.14314975756243" lon="6.30003260888948"><ele>269.25</ele><time>2026-04-20T14:44:32.999Z</time></trkpt><trkpt lat="49.14306867804263" lon="6.2998645330045475"><ele>269.0</ele><time>2026-04-20T14:44:33.999Z</time></trkpt><trkpt lat="49.14297969067664" lon="6.2996919506464915"><ele>268.75</ele><time>2026-04-20T14:44:34.999Z</time></trkpt><trkpt lat="49.142888747564605" lon="6.299514994776763"><ele>268.5</ele><time>2026-04-20T14:44:35.999Z</time></trkpt><trkpt lat="49.14279878394277" lon="6.2993370704800284"><ele>268.25</ele><time>2026-04-20T14:44:36.999Z</time></trkpt><trkpt lat="49.14271006812251" lon="6.2991672284763"><ele>268.0</ele><time>2026-04-20T14:44:37.999Z</time></trkpt><trkpt lat="49.14262697122267" lon="6.298997235248559"><ele>268.0</ele><time>2026-04-20T14:44:38.999Z</time></trkpt><trkpt lat="49.14254339838556" lon="6.2988238177989455"><ele>268.0</ele><time>2026-04-20T14:44:39.999Z</time></trkpt><trkpt lat="49.14245432569145" lon="6.298644025830263"><ele>268.0</ele><time>2026-04-20T14:44:40.999Z</time></trkpt><trkpt lat="49.14236621589786" lon="6.298464958062883"><ele>268.0</ele><time>2026-04-20T14:44:41.999Z</time></trkpt><trkpt lat="49.142279432943674" lon="6.298284086532301"><ele>268.0</ele><time>2026-04-20T14:44:42.999Z</time></trkpt><trkpt lat="49.14219300210281" lon="6.298110649095552"><ele>268.0</ele><time>2026-04-20T14:44:43.999Z</time></trkpt><trkpt lat="49.14211170252451" lon="6.297937702362016"><ele>268.0</ele><time>2026-04-20T14:44:44.999Z</time></trkpt><trkpt lat="49.14202970843965" lon="6.29776866102198"><ele>268.0</ele><time>2026-04-20T14:44:45.999Z</time></trkpt><trkpt lat="49.14195071787056" lon="6.297596829120845"><ele>267.75</ele><time>2026-04-20T14:44:46.999Z</time></trkpt><trkpt lat="49.141867408632656" lon="6.297413452954181"><ele>267.5</ele><time>2026-04-20T14:44:47.999Z</time></trkpt><trkpt lat="49.14178376794684" lon="6.297226129834409"><ele>267.25</ele><time>2026-04-20T14:44:48.999Z</time></trkpt><trkpt lat="49.1416978455969" lon="6.297041943248841"><ele>267.0</ele><time>2026-04-20T14:44:49.999Z</time></trkpt><trkpt lat="49.141619805781374" lon="6.296868156805115"><ele>267.0</ele><time>2026-04-20T14:44:50.999Z</time></trkpt><trkpt lat="49.14153860726739" lon="6.296687738606687"><ele>267.0</ele><time>2026-04-20T14:44:51.999Z</time></trkpt><trkpt lat="49.14145202199109" lon="6.296511751522976"><ele>267.0</ele><time>2026-04-20T14:44:52.999Z</time></trkpt><trkpt lat="49.14136724699949" lon="6.296335047869088"><ele>267.0</ele><time>2026-04-20T14:44:53.999Z</time></trkpt><trkpt lat="49.14128485195014" lon="6.296171789037435"><ele>267.0</ele><time>2026-04-20T14:44:54.999Z</time></trkpt><trkpt lat="49.141197263147724" lon="6.296002975428161"><ele>267.0</ele><time>2026-04-20T14:44:55.999Z</time></trkpt><trkpt lat="49.14111001694145" lon="6.295846803136668"><ele>267.0</ele><time>2026-04-20T14:44:56.999Z</time></trkpt><trkpt lat="49.14101404511299" lon="6.295680330117509"><ele>267.0</ele><time>2026-04-20T14:44:57.999Z</time></trkpt><trkpt lat="49.14092742870091" lon="6.295540508132526"><ele>266.5</ele><time>2026-04-20T14:44:58.999Z</time></trkpt><trkpt lat="49.1408396018965" lon="6.2953897672033365"><ele>266.0</ele><time>2026-04-20T14:44:59.999Z</time></trkpt><trkpt lat="49.14074465887966" lon="6.29523276103736"><ele>265.5</ele><time>2026-04-20T14:45:00.999Z</time></trkpt><trkpt lat="49.140652231223804" lon="6.2950787470915355"><ele>265.0</ele><time>2026-04-20T14:45:01.999Z</time></trkpt><trkpt lat="49.14055750946845" lon="6.2949241982339705"><ele>265.0</ele><time>2026-04-20T14:45:02.999Z</time></trkpt><trkpt lat="49.140464767467584" lon="6.29476889947064"><ele>265.0</ele><time>2026-04-20T14:45:03.999Z</time></trkpt><trkpt lat="49.14037080754087" lon="6.29460671487055"><ele>265.0</ele><time>2026-04-20T14:45:04.999Z</time></trkpt><trkpt lat="49.14027433378416" lon="6.294442614865139"><ele>265.0</ele><time>2026-04-20T14:45:05.999Z</time></trkpt><trkpt lat="49.140180260979" lon="6.294286962202264"><ele>264.5</ele><time>2026-04-20T14:45:06.999Z</time></trkpt><trkpt lat="49.14008377219081" lon="6.294121872835484"><ele>264.0</ele><time>2026-04-20T14:45:07.999Z</time></trkpt><trkpt lat="49.139990291731216" lon="6.293960931221568"><ele>263.5</ele><time>2026-04-20T14:45:08.999Z</time></trkpt><trkpt lat="49.13989798363724" lon="6.293805954339561"><ele>263.0</ele><time>2026-04-20T14:45:09.999Z</time></trkpt><trkpt lat="49.1398024511486" lon="6.293648646747919"><ele>262.0</ele><time>2026-04-20T14:45:10.999Z</time></trkpt><trkpt lat="49.13970981492406" lon="6.293490024270754"><ele>261.0</ele><time>2026-04-20T14:45:11.999Z</time></trkpt><trkpt lat="49.139612912839105" lon="6.293331427463679"><ele>260.0</ele><time>2026-04-20T14:45:12.999Z</time></trkpt><trkpt lat="49.13952119444293" lon="6.293180036734141"><ele>259.0</ele><time>2026-04-20T14:45:13.999Z</time></trkpt><trkpt lat="49.13942641249334" lon="6.293019611888582"><ele>259.0</ele><time>2026-04-20T14:45:14.999Z</time></trkpt><trkpt lat="49.13933288737272" lon="6.29286461642405"><ele>259.0</ele><time>2026-04-20T14:45:15.999Z</time></trkpt><trkpt lat="49.139237784560464" lon="6.292704130213609"><ele>259.0</ele><time>2026-04-20T14:45:16.999Z</time></trkpt><trkpt lat="49.139140715882064" lon="6.292545581140889"><ele>259.0</ele><time>2026-04-20T14:45:17.999Z</time></trkpt><trkpt lat="49.13904237770732" lon="6.292378635194109"><ele>258.25</ele><time>2026-04-20T14:45:18.999Z</time></trkpt><trkpt lat="49.13894689550464" lon="6.292218128685967"><ele>257.5</ele><time>2026-04-20T14:45:19.999Z</time></trkpt><trkpt lat="49.13885102510228" lon="6.292057707314316"><ele>256.75</ele><time>2026-04-20T14:45:20.999Z</time></trkpt><trkpt lat="49.13875697118388" lon="6.291901194298658"><ele>256.0</ele><time>2026-04-20T14:45:21.999Z</time></trkpt><trkpt lat="49.1386617526209" lon="6.291740837698522"><ele>256.0</ele><time>2026-04-20T14:45:22.999Z</time></trkpt><trkpt lat="49.13856822269897" lon="6.291580611650004"><ele>256.0</ele><time>2026-04-20T14:45:23.999Z</time></trkpt><trkpt lat="49.13847230476392" lon="6.2914187386168985"><ele>256.0</ele><time>2026-04-20T14:45:24.999Z</time></trkpt><trkpt lat="49.13837735973408" lon="6.291259630843988"><ele>256.0</ele><time>2026-04-20T14:45:25.999Z</time></trkpt><trkpt lat="49.13828645724333" lon="6.2911028734030365"><ele>255.25</ele><time>2026-04-20T14:45:26.999Z</time></trkpt><trkpt lat="49.13818703220002" lon="6.2909381493726535"><ele>254.5</ele><time>2026-04-20T14:45:27.999Z</time></trkpt><trkpt lat="49.13809070789318" lon="6.290779666439286"><ele>253.75</ele><time>2026-04-20T14:45:28.999Z</time></trkpt><trkpt lat="49.13799546596519" lon="6.290620858365221"><ele>253.0</ele><time>2026-04-20T14:45:29.999Z</time></trkpt><trkpt lat="49.13789830645402" lon="6.290459231290897"><ele>252.75</ele><time>2026-04-20T14:45:30.999Z</time></trkpt><trkpt lat="49.13779936748103" lon="6.290298200697183"><ele>252.5</ele><time>2026-04-20T14:45:32Z</time></trkpt><trkpt lat="49.13770091509037" lon="6.290136225029015"><ele>252.25</ele><time>2026-04-20T14:45:33Z</time></trkpt><trkpt lat="49.13760557323843" lon="6.2899797517608365"><ele>252.0</ele><time>2026-04-20T14:45:34Z</time></trkpt><trkpt lat="49.137512105959985" lon="6.289821142143187"><ele>251.75</ele><time>2026-04-20T14:45:35Z</time></trkpt><trkpt lat="49.1374180829217" lon="6.289659683852346"><ele>251.5</ele><time>2026-04-20T14:45:36Z</time></trkpt><trkpt lat="49.137319914350265" lon="6.2894982202304615"><ele>251.25</ele><time>2026-04-20T14:45:37Z</time></trkpt><trkpt lat="49.13722571928794" lon="6.289341473827712"><ele>251.0</ele><time>2026-04-20T14:45:38Z</time></trkpt><trkpt lat="49.13713171040413" lon="6.289183648691571"><ele>250.75</ele><time>2026-04-20T14:45:39Z</time></trkpt><trkpt lat="49.13703574672548" lon="6.289021039017759"><ele>250.5</ele><time>2026-04-20T14:45:40Z</time></trkpt><trkpt lat="49.136941028764426" lon="6.288861057767454"><ele>250.25</ele><time>2026-04-20T14:45:41Z</time></trkpt><trkpt lat="49.136846571097465" lon="6.288702363108435"><ele>250.0</ele><time>2026-04-20T14:45:42Z</time></trkpt><trkpt lat="49.13675345456113" lon="6.288548629032091"><ele>250.0</ele><time>2026-04-20T14:45:43Z</time></trkpt><trkpt lat="49.13665807873497" lon="6.288388216529699"><ele>250.0</ele><time>2026-04-20T14:45:44Z</time></trkpt><trkpt lat="49.13656278369076" lon="6.288223410562207"><ele>250.0</ele><time>2026-04-20T14:45:45Z</time></trkpt><trkpt lat="49.136464001505125" lon="6.288059042644825"><ele>250.0</ele><time>2026-04-20T14:45:46Z</time></trkpt><trkpt lat="49.136364966159384" lon="6.28789786125456"><ele>249.75</ele><time>2026-04-20T14:45:47Z</time></trkpt><trkpt lat="49.13627045466707" lon="6.287737988505562"><ele>249.5</ele><time>2026-04-20T14:45:48Z</time></trkpt><trkpt lat="49.136176903116805" lon="6.2875785630412455"><ele>249.25</ele><time>2026-04-20T14:45:49Z</time></trkpt><trkpt lat="49.13607931417458" lon="6.287416110608248"><ele>249.0</ele><time>2026-04-20T14:45:50Z</time></trkpt><trkpt lat="49.135980194871536" lon="6.287256413404188"><ele>249.0</ele><time>2026-04-20T14:45:51Z</time></trkpt><trkpt lat="49.13588485431064" lon="6.287096130799259"><ele>249.0</ele><time>2026-04-20T14:45:52Z</time></trkpt><trkpt lat="49.13579300846081" lon="6.286940728728722"><ele>249.0</ele><time>2026-04-20T14:45:53Z</time></trkpt><trkpt lat="49.135696176692186" lon="6.286781585740771"><ele>249.0</ele><time>2026-04-20T14:45:54Z</time></trkpt><trkpt lat="49.13560048022539" lon="6.286622666228671"><ele>249.0</ele><time>2026-04-20T14:45:55Z</time></trkpt><trkpt lat="49.13550559212804" lon="6.286460626258722"><ele>249.0</ele><time>2026-04-20T14:45:56Z</time></trkpt><trkpt lat="49.13541124756757" lon="6.2862994473275045"><ele>249.0</ele><time>2026-04-20T14:45:57Z</time></trkpt><trkpt lat="49.135314965998646" lon="6.28613996643607"><ele>249.0</ele><time>2026-04-20T14:45:58Z</time></trkpt><trkpt lat="49.13521660432114" lon="6.285980348840978"><ele>248.5</ele><time>2026-04-20T14:45:59Z</time></trkpt><trkpt lat="49.13512074640479" lon="6.285818060348299"><ele>248.0</ele><time>2026-04-20T14:46:00Z</time></trkpt><trkpt lat="49.13502335650806" lon="6.285655938577444"><ele>247.5</ele><time>2026-04-20T14:46:01Z</time></trkpt><trkpt lat="49.13492588992686" lon="6.285495055843537"><ele>247.0</ele><time>2026-04-20T14:46:02Z</time></trkpt><trkpt lat="49.13483101392632" lon="6.285333973971165"><ele>247.0</ele><time>2026-04-20T14:46:03Z</time></trkpt><trkpt lat="49.13473443880485" lon="6.285169739893687"><ele>247.0</ele><time>2026-04-20T14:46:04Z</time></trkpt><trkpt lat="49.134639157771346" lon="6.285007346765163"><ele>247.0</ele><time>2026-04-20T14:46:05Z</time></trkpt><trkpt lat="49.13453991779715" lon="6.2848432186641405"><ele>247.0</ele><time>2026-04-20T14:46:06Z</time></trkpt><trkpt lat="49.13444088745592" lon="6.284679545225963"><ele>247.0</ele><time>2026-04-20T14:46:07Z</time></trkpt><trkpt lat="49.13434298925894" lon="6.284516610452651"><ele>247.0</ele><time>2026-04-20T14:46:08Z</time></trkpt><trkpt lat="49.13424304255681" lon="6.284355816586295"><ele>247.0</ele><time>2026-04-20T14:46:09Z</time></trkpt><trkpt lat="49.13414669045483" lon="6.284193950530633"><ele>247.0</ele><time>2026-04-20T14:46:10Z</time></trkpt><trkpt lat="49.134046001915856" lon="6.284022092587748"><ele>246.25</ele><time>2026-04-20T14:46:11Z</time></trkpt><trkpt lat="49.13395197104318" lon="6.283864377517883"><ele>245.5</ele><time>2026-04-20T14:46:12Z</time></trkpt><trkpt lat="49.133857336175204" lon="6.283706273961523"><ele>244.75</ele><time>2026-04-20T14:46:13Z</time></trkpt><trkpt lat="49.13376042423479" lon="6.283546866077362"><ele>244.0</ele><time>2026-04-20T14:46:14Z</time></trkpt><trkpt lat="49.13366768647091" lon="6.283388301672471"><ele>244.0</ele><time>2026-04-20T14:46:15Z</time></trkpt><trkpt lat="49.13357166347637" lon="6.283228149047557"><ele>244.0</ele><time>2026-04-20T14:46:16Z</time></trkpt><trkpt lat="49.13347693499832" lon="6.283066423158852"><ele>244.0</ele><time>2026-04-20T14:46:17Z</time></trkpt><trkpt lat="49.133383018651145" lon="6.282908536724877"><ele>244.0</ele><time>2026-04-20T14:46:18Z</time></trkpt><trkpt lat="49.13328625314202" lon="6.282748483073073"><ele>244.25</ele><time>2026-04-20T14:46:19Z</time></trkpt><trkpt lat="49.133190582020504" lon="6.2825882098473524"><ele>244.5</ele><time>2026-04-20T14:46:20Z</time></trkpt><trkpt lat="49.13309429527796" lon="6.282428823094967"><ele>244.75</ele><time>2026-04-20T14:46:21Z</time></trkpt><trkpt lat="49.13299807459964" lon="6.2822656087428905"><ele>245.0</ele><time>2026-04-20T14:46:22Z</time></trkpt><trkpt lat="49.132903149376006" lon="6.282110420246078"><ele>245.0</ele><time>2026-04-20T14:46:23Z</time></trkpt><trkpt lat="49.13280617010284" lon="6.281949219314829"><ele>245.0</ele><time>2026-04-20T14:46:24Z</time></trkpt><trkpt lat="49.13271091364694" lon="6.281789248731608"><ele>245.0</ele><time>2026-04-20T14:46:25Z</time></trkpt><trkpt lat="49.13261749884575" lon="6.281632020925081"><ele>245.0</ele><time>2026-04-20T14:46:26Z</time></trkpt><trkpt lat="49.13252151794361" lon="6.281459540761231"><ele>244.75</ele><time>2026-04-20T14:46:27Z</time></trkpt><trkpt lat="49.132425279239676" lon="6.281301898822906"><ele>244.5</ele><time>2026-04-20T14:46:28Z</time></trkpt><trkpt lat="49.13232457610678" lon="6.281141819767548"><ele>244.25</ele><time>2026-04-20T14:46:29Z</time></trkpt><trkpt lat="49.13223294163688" lon="6.280990365256339"><ele>244.0</ele><time>2026-04-20T14:46:30Z</time></trkpt><trkpt lat="49.13214321207659" lon="6.280832116443043"><ele>244.0</ele><time>2026-04-20T14:46:31Z</time></trkpt><trkpt lat="49.132050363524556" lon="6.280676531308595"><ele>244.0</ele><time>2026-04-20T14:46:32Z</time></trkpt><trkpt lat="49.131956506453776" lon="6.280519926548097"><ele>244.0</ele><time>2026-04-20T14:46:33Z</time></trkpt><trkpt lat="49.13186101352958" lon="6.280362821934623"><ele>244.0</ele><time>2026-04-20T14:46:33.999Z</time></trkpt><trkpt lat="49.13176188636925" lon="6.280200726371623"><ele>244.0</ele><time>2026-04-20T14:46:34.999Z</time></trkpt><trkpt lat="49.13166776951068" lon="6.280040252433099"><ele>244.0</ele><time>2026-04-20T14:46:35.999Z</time></trkpt><trkpt lat="49.131573205661596" lon="6.27988097989345"><ele>244.0</ele><time>2026-04-20T14:46:36.999Z</time></trkpt><trkpt lat="49.13147743172099" lon="6.279722000737612"><ele>244.0</ele><time>2026-04-20T14:46:37.999Z</time></trkpt><trkpt lat="49.13138625670547" lon="6.2795663105316715"><ele>244.0</ele><time>2026-04-20T14:46:38.999Z</time></trkpt><trkpt lat="49.13129468904329" lon="6.279413922793522"><ele>244.0</ele><time>2026-04-20T14:46:39.999Z</time></trkpt><trkpt lat="49.131202412000754" lon="6.279260620541378"><ele>244.0</ele><time>2026-04-20T14:46:40.999Z</time></trkpt><trkpt lat="49.13110648133862" lon="6.279100628334237"><ele>244.0</ele><time>2026-04-20T14:46:41.999Z</time></trkpt><trkpt lat="49.13101352723978" lon="6.278946131218444"><ele>243.75</ele><time>2026-04-20T14:46:42.999Z</time></trkpt><trkpt lat="49.13092254359451" lon="6.278791141574464"><ele>243.5</ele><time>2026-04-20T14:46:43.999Z</time></trkpt><trkpt lat="49.13083023836022" lon="6.278634439305194"><ele>243.25</ele><time>2026-04-20T14:46:44.999Z</time></trkpt><trkpt lat="49.13073199260316" lon="6.278473058704716"><ele>243.0</ele><time>2026-04-20T14:46:45.999Z</time></trkpt><trkpt lat="49.13063893791852" lon="6.278316154699319"><ele>243.0</ele><time>2026-04-20T14:46:46.999Z</time></trkpt><trkpt lat="49.130543594147944" lon="6.278154935518088"><ele>243.0</ele><time>2026-04-20T14:46:47.999Z</time></trkpt><trkpt lat="49.13045276396503" lon="6.277999581495199"><ele>243.0</ele><time>2026-04-20T14:46:48.999Z</time></trkpt><trkpt lat="49.13035846169382" lon="6.277842714768301"><ele>243.0</ele><time>2026-04-20T14:46:49.999Z</time></trkpt><trkpt lat="49.130271609924016" lon="6.277685589357974"><ele>242.5</ele><time>2026-04-20T14:46:50.999Z</time></trkpt><trkpt lat="49.130176447616996" lon="6.277524417783347"><ele>242.0</ele><time>2026-04-20T14:46:51.999Z</time></trkpt><trkpt lat="49.130084537001444" lon="6.277367898067077"><ele>241.5</ele><time>2026-04-20T14:46:52.999Z</time></trkpt><trkpt lat="49.130002907185506" lon="6.27722402345793"><ele>241.0</ele><time>2026-04-20T14:46:53.999Z</time></trkpt><trkpt lat="49.129936232279675" lon="6.277115384084417"><ele>241.16666666666666</ele><time>2026-04-20T14:46:54.999Z</time></trkpt><trkpt lat="49.12988663252878" lon="6.2770375709273845"><ele>241.33333333333331</ele><time>2026-04-20T14:46:55.999Z</time></trkpt><trkpt lat="49.12983912840533" lon="6.276963246782579"><ele>241.5</ele><time>2026-04-20T14:46:57.999Z</time></trkpt><trkpt lat="49.12979356115362" lon="6.27686821112584"><ele>241.66666666666669</ele><time>2026-04-20T14:47:02.999Z</time></trkpt><trkpt lat="49.12970877015184" lon="6.276730089283869"><ele>241.83333333333334</ele><time>2026-04-20T14:47:04.999Z</time></trkpt><trkpt lat="49.12965885525761" lon="6.276644258949518"><ele>242.0</ele><time>2026-04-20T14:47:05.999Z</time></trkpt><trkpt lat="49.129599946056736" lon="6.276545079463044"><ele>241.6</ele><time>2026-04-20T14:47:06.999Z</time></trkpt><trkpt lat="49.12953345815949" lon="6.2764326164707205"><ele>241.2</ele><time>2026-04-20T14:47:07.999Z</time></trkpt><trkpt lat="49.12945896943196" lon="6.2763015797526265"><ele>240.8</ele><time>2026-04-20T14:47:08.999Z</time></trkpt><trkpt lat="49.12939134284777" lon="6.276164325485214"><ele>240.4</ele><time>2026-04-20T14:47:09.999Z</time></trkpt><trkpt lat="49.12932534503746" lon="6.276010595799686"><ele>240.0</ele><time>2026-04-20T14:47:10.999Z</time></trkpt><trkpt lat="49.12926919187823" lon="6.275841528635969"><ele>240.0</ele><time>2026-04-20T14:47:11.999Z</time></trkpt><trkpt lat="49.12922468060054" lon="6.275654795333694"><ele>240.0</ele><time>2026-04-20T14:47:12.999Z</time></trkpt><trkpt lat="49.12917859547535" lon="6.275449238509785"><ele>240.0</ele><time>2026-04-20T14:47:13.999Z</time></trkpt><trkpt lat="49.129134272104885" lon="6.27524896746235"><ele>240.0</ele><time>2026-04-20T14:47:14.999Z</time></trkpt><trkpt lat="49.129084462948306" lon="6.275039341323565"><ele>239.25</ele><time>2026-04-20T14:47:15.999Z</time></trkpt><trkpt lat="49.12903446221574" lon="6.274820676383966"><ele>238.5</ele><time>2026-04-20T14:47:16.999Z</time></trkpt><trkpt lat="49.128986233513174" lon="6.274622139201078"><ele>237.75</ele><time>2026-04-20T14:47:17.999Z</time></trkpt><trkpt lat="49.128941964347284" lon="6.274417678763692"><ele>237.0</ele><time>2026-04-20T14:47:18.999Z</time></trkpt><trkpt lat="49.128901479172484" lon="6.274211261698586"><ele>236.5</ele><time>2026-04-20T14:47:19.999Z</time></trkpt><trkpt lat="49.1288587016917" lon="6.27400667224846"><ele>236.0</ele><time>2026-04-20T14:47:20.999Z</time></trkpt><trkpt lat="49.1288162593515" lon="6.273801206736483"><ele>235.5</ele><time>2026-04-20T14:47:21.999Z</time></trkpt><trkpt lat="49.12877226396533" lon="6.273597710893191"><ele>235.0</ele><time>2026-04-20T14:47:22.999Z</time></trkpt><trkpt lat="49.128725855004504" lon="6.2733905224728925"><ele>234.5</ele><time>2026-04-20T14:47:23.999Z</time></trkpt><trkpt lat="49.12868439116761" lon="6.273188509653945"><ele>234.0</ele><time>2026-04-20T14:47:24.999Z</time></trkpt><trkpt lat="49.128638376906096" lon="6.272986330853285"><ele>233.5</ele><time>2026-04-20T14:47:25.999Z</time></trkpt><trkpt lat="49.12859412117403" lon="6.272782054999803"><ele>233.0</ele><time>2026-04-20T14:47:26.999Z</time></trkpt><trkpt lat="49.12855112651521" lon="6.272574471122414"><ele>232.5</ele><time>2026-04-20T14:47:27.999Z</time></trkpt><trkpt lat="49.12850609709247" lon="6.272366626085023"><ele>232.0</ele><time>2026-04-20T14:47:28.999Z</time></trkpt><trkpt lat="49.12846024831997" lon="6.272162610026913"><ele>231.5</ele><time>2026-04-20T14:47:29.999Z</time></trkpt><trkpt lat="49.12841074431963" lon="6.271957696306241"><ele>231.0</ele><time>2026-04-20T14:47:30.999Z</time></trkpt><trkpt lat="49.12835561108107" lon="6.271754452164961"><ele>230.5</ele><time>2026-04-20T14:47:31.999Z</time></trkpt><trkpt lat="49.12829890778329" lon="6.271556325048544"><ele>230.0</ele><time>2026-04-20T14:47:32.999Z</time></trkpt><trkpt lat="49.1282379968722" lon="6.271358986336859"><ele>229.5</ele><time>2026-04-20T14:47:33.999Z</time></trkpt><trkpt lat="49.12817137673571" lon="6.2711671870837264"><ele>229.0</ele><time>2026-04-20T14:47:34.999Z</time></trkpt><trkpt lat="49.128095854667215" lon="6.270975946864103"><ele>228.25</ele><time>2026-04-20T14:47:35.999Z</time></trkpt><trkpt lat="49.128011690902234" lon="6.270790784670527"><ele>227.5</ele><time>2026-04-20T14:47:36.999Z</time></trkpt><trkpt lat="49.12792169219401" lon="6.270601655196135"><ele>226.75</ele><time>2026-04-20T14:47:38Z</time></trkpt><trkpt lat="49.12783431949225" lon="6.270428727301383"><ele>226.0</ele><time>2026-04-20T14:47:39Z</time></trkpt><trkpt lat="49.12774299834472" lon="6.270261860512151"><ele>225.5</ele><time>2026-04-20T14:47:40Z</time></trkpt><trkpt lat="49.127657502992875" lon="6.270100751650826"><ele>225.0</ele><time>2026-04-20T14:47:41Z</time></trkpt><trkpt lat="49.12756562696863" lon="6.269932915904742"><ele>224.5</ele><time>2026-04-20T14:47:42Z</time></trkpt><trkpt lat="49.127478441291" lon="6.2697723775312175"><ele>224.0</ele><time>2026-04-20T14:47:43Z</time></trkpt><trkpt lat="49.127388450873354" lon="6.269609244848754"><ele>223.75</ele><time>2026-04-20T14:47:44Z</time></trkpt><trkpt lat="49.127299614207054" lon="6.269444859921665"><ele>223.5</ele><time>2026-04-20T14:47:45Z</time></trkpt><trkpt lat="49.12720808520273" lon="6.269278642346204"><ele>223.25</ele><time>2026-04-20T14:47:46Z</time></trkpt><trkpt lat="49.1271205299954" lon="6.2691128441815325"><ele>223.0</ele><time>2026-04-20T14:47:47Z</time></trkpt><trkpt lat="49.12703670427995" lon="6.268967198392631"><ele>222.25</ele><time>2026-04-20T14:47:48Z</time></trkpt><trkpt lat="49.12695291314748" lon="6.268796689910224"><ele>221.5</ele><time>2026-04-20T14:47:49Z</time></trkpt><trkpt lat="49.12687617468035" lon="6.268614617151347"><ele>220.75</ele><time>2026-04-20T14:47:50Z</time></trkpt><trkpt lat="49.126802664252956" lon="6.26844073949042"><ele>220.0</ele><time>2026-04-20T14:47:51Z</time></trkpt><trkpt lat="49.1267320535288" lon="6.268265537897116"><ele>220.0</ele><time>2026-04-20T14:47:52Z</time></trkpt><trkpt lat="49.12666824556697" lon="6.268101235357676"><ele>220.0</ele><time>2026-04-20T14:47:53Z</time></trkpt><trkpt lat="49.12661294007513" lon="6.2679496982094065"><ele>220.0</ele><time>2026-04-20T14:47:54Z</time></trkpt><trkpt lat="49.12656440889575" lon="6.267811969200229"><ele>220.0</ele><time>2026-04-20T14:47:55Z</time></trkpt><trkpt lat="49.126521918842755" lon="6.2676855371381635"><ele>220.0</ele><time>2026-04-20T14:47:56Z</time></trkpt><trkpt lat="49.12648720471304" lon="6.2675790209418825"><ele>219.7142857142857</ele><time>2026-04-20T14:47:57Z</time></trkpt><trkpt lat="49.12646727709715" lon="6.267479256695583"><ele>219.42857142857142</ele><time>2026-04-20T14:47:58Z</time></trkpt><trkpt lat="49.12646587396848" lon="6.267374680226853"><ele>219.14285714285714</ele><time>2026-04-20T14:47:59Z</time></trkpt><trkpt lat="49.12647077367262" lon="6.267269331904014"><ele>218.85714285714283</ele><time>2026-04-20T14:48:00Z</time></trkpt><trkpt lat="49.12646119719185" lon="6.267170292113668"><ele>218.57142857142858</ele><time>2026-04-20T14:48:01Z</time></trkpt><trkpt lat="49.126430941467504" lon="6.267080287262837"><ele>218.28571428571428</ele><time>2026-04-20T14:48:02Z</time></trkpt><trkpt lat="49.126392832740564" lon="6.266998607104538"><ele>218.0</ele><time>2026-04-20T14:48:03Z</time></trkpt><trkpt lat="49.126325791840785" lon="6.266952718209413"><ele>218.00000000000003</ele><time>2026-04-20T14:48:04Z</time></trkpt><trkpt lat="49.12624860424728" lon="6.266949020877439"><ele>218.0</ele><time>2026-04-20T14:48:05Z</time></trkpt><trkpt lat="49.12618447656466" lon="6.266944514487021"><ele>218.0</ele><time>2026-04-20T14:48:06Z</time></trkpt><trkpt lat="49.12612849509446" lon="6.267097258877194"><ele>218.0</ele><time>2026-04-20T14:48:07Z</time></trkpt><trkpt lat="49.12608545002863" lon="6.267194670039855"><ele>218.00000000000003</ele><time>2026-04-20T14:48:08Z</time></trkpt><trkpt lat="49.1260276287718" lon="6.267288818007967"><ele>218.0</ele><time>2026-04-20T14:48:09Z</time></trkpt><trkpt lat="49.12596717518432" lon="6.267390240803386"><ele>218.0</ele><time>2026-04-20T14:48:10Z</time></trkpt><trkpt lat="49.12594039028998" lon="6.267509559701099"><ele>218.0</ele><time>2026-04-20T14:48:11Z</time></trkpt><trkpt lat="49.125856378947496" lon="6.267611068292253"><ele>218.0</ele><time>2026-04-20T14:48:12Z</time></trkpt><trkpt lat="49.125818156916765" lon="6.267761137700287"><ele>218.0</ele><time>2026-04-20T14:48:13Z</time></trkpt><trkpt lat="49.12580396367423" lon="6.267919735790733"><ele>218.0</ele><time>2026-04-20T14:48:14Z</time></trkpt><trkpt lat="49.125805716426676" lon="6.2680903323982715"><ele>218.5</ele><time>2026-04-20T14:48:15Z</time></trkpt><trkpt lat="49.12583197123078" lon="6.268254916556617"><ele>219.0</ele><time>2026-04-20T14:48:16Z</time></trkpt><trkpt lat="49.1258788125487" lon="6.268414350580642"><ele>219.5</ele><time>2026-04-20T14:48:17Z</time></trkpt><trkpt lat="49.125935849397315" lon="6.268573847886059"><ele>220.0</ele><time>2026-04-20T14:48:18Z</time></trkpt><trkpt lat="49.12599461984209" lon="6.268730168802403"><ele>220.0</ele><time>2026-04-20T14:48:19Z</time></trkpt><trkpt lat="49.126055495665554" lon="6.268892737395253"><ele>220.0</ele><time>2026-04-20T14:48:20Z</time></trkpt><trkpt lat="49.12611646553207" lon="6.269064599519272"><ele>220.0</ele><time>2026-04-20T14:48:21Z</time></trkpt><trkpt lat="49.126177412649774" lon="6.269241682441433"><ele>220.0</ele><time>2026-04-20T14:48:22Z</time></trkpt><trkpt lat="49.12623780468682" lon="6.269417819359894"><ele>221.0</ele><time>2026-04-20T14:48:23Z</time></trkpt><trkpt lat="49.12629978684165" lon="6.269600395175708"><ele>222.0</ele><time>2026-04-20T14:48:24Z</time></trkpt><trkpt lat="49.12636314784339" lon="6.269790064681555"><ele>223.0</ele><time>2026-04-20T14:48:25Z</time></trkpt><trkpt lat="49.12642446108025" lon="6.269988209290775"><ele>224.0</ele><time>2026-04-20T14:48:26Z</time></trkpt><trkpt lat="49.126477122795315" lon="6.270192019854295"><ele>224.25</ele><time>2026-04-20T14:48:27Z</time></trkpt><trkpt lat="49.126520372279494" lon="6.270395100988419"><ele>224.5</ele><time>2026-04-20T14:48:28Z</time></trkpt><trkpt lat="49.126549648067055" lon="6.270605804482189"><ele>224.75</ele><time>2026-04-20T14:48:29Z</time></trkpt><trkpt lat="49.126567185575254" lon="6.270821616057317"><ele>225.0</ele><time>2026-04-20T14:48:30Z</time></trkpt><trkpt lat="49.12657844094524" lon="6.271036619726881"><ele>225.5</ele><time>2026-04-20T14:48:31Z</time></trkpt><trkpt lat="49.12657637700486" lon="6.271239490696342"><ele>226.0</ele><time>2026-04-20T14:48:32Z</time></trkpt><trkpt lat="49.12656315825224" lon="6.271446865494056"><ele>226.5</ele><time>2026-04-20T14:48:33Z</time></trkpt><trkpt lat="49.126540371162" lon="6.27165685711625"><ele>227.0</ele><time>2026-04-20T14:48:34Z</time></trkpt><trkpt lat="49.126503655611806" lon="6.271858917924423"><ele>227.5</ele><time>2026-04-20T14:48:35Z</time></trkpt><trkpt lat="49.12644441193866" lon="6.272049911674051"><ele>228.0</ele><time>2026-04-20T14:48:36Z</time></trkpt><trkpt lat="49.12636396030904" lon="6.2722238145364795"><ele>228.5</ele><time>2026-04-20T14:48:37Z</time></trkpt><trkpt lat="49.126278754006876" lon="6.272395336763805"><ele>229.0</ele><time>2026-04-20T14:48:38Z</time></trkpt><trkpt lat="49.12618117496903" lon="6.272543921362914"><ele>229.25</ele><time>2026-04-20T14:48:39Z</time></trkpt><trkpt lat="49.12606732438255" lon="6.272675549438868"><ele>229.5</ele><time>2026-04-20T14:48:40Z</time></trkpt><trkpt lat="49.12594439458171" lon="6.272780978972018"><ele>229.75</ele><time>2026-04-20T14:48:41Z</time></trkpt><trkpt lat="49.1258149828347" lon="6.272855291990605"><ele>230.0</ele><time>2026-04-20T14:48:41.999Z</time></trkpt><trkpt lat="49.12567832458064" lon="6.272919171405652"><ele>230.0</ele><time>2026-04-20T14:48:42.999Z</time></trkpt><trkpt lat="49.12554262078836" lon="6.272979825023881"><ele>230.0</ele><time>2026-04-20T14:48:43.999Z</time></trkpt><trkpt lat="49.125410235613785" lon="6.273037366233158"><ele>230.0</ele><time>2026-04-20T14:48:44.999Z</time></trkpt><trkpt lat="49.12527965382982" lon="6.2730958158990155"><ele>230.0</ele><time>2026-04-20T14:48:45.999Z</time></trkpt><trkpt lat="49.12514785833866" lon="6.27315030947343"><ele>230.0</ele><time>2026-04-20T14:48:46.999Z</time></trkpt><trkpt lat="49.125010196814884" lon="6.273216230016651"><ele>230.0</ele><time>2026-04-20T14:48:47.999Z</time></trkpt><trkpt lat="49.12487745513895" lon="6.273285782560223"><ele>230.0</ele><time>2026-04-20T14:48:48.999Z</time></trkpt><trkpt lat="49.124747585080634" lon="6.273355949881127"><ele>230.0</ele><time>2026-04-20T14:48:49.999Z</time></trkpt><trkpt lat="49.124616257131514" lon="6.2734325846613395"><ele>229.0</ele><time>2026-04-20T14:48:50.999Z</time></trkpt><trkpt lat="49.124492021063915" lon="6.273518328504302"><ele>228.0</ele><time>2026-04-20T14:48:51.999Z</time></trkpt><trkpt lat="49.12436662488441" lon="6.27359624678626"><ele>227.0</ele><time>2026-04-20T14:48:52.999Z</time></trkpt><trkpt lat="49.12423850073185" lon="6.273669718090591"><ele>226.0</ele><time>2026-04-20T14:48:53.999Z</time></trkpt><trkpt lat="49.12410868080711" lon="6.273754099975465"><ele>225.5</ele><time>2026-04-20T14:48:54.999Z</time></trkpt><trkpt lat="49.123980138774094" lon="6.273833287898233"><ele>225.0</ele><time>2026-04-20T14:48:55.999Z</time></trkpt><trkpt lat="49.12385334632351" lon="6.273913375485919"><ele>224.5</ele><time>2026-04-20T14:48:56.999Z</time></trkpt><trkpt lat="49.1237314741841" lon="6.273992162733625"><ele>224.0</ele><time>2026-04-20T14:48:57.999Z</time></trkpt><trkpt lat="49.12361063319059" lon="6.274075106529576"><ele>224.0</ele><time>2026-04-20T14:48:58.999Z</time></trkpt><trkpt lat="49.12349561496356" lon="6.274156771589234"><ele>224.0</ele><time>2026-04-20T14:48:59.999Z</time></trkpt><trkpt lat="49.123386509435775" lon="6.274224326673705"><ele>224.0</ele><time>2026-04-20T14:49:00.999Z</time></trkpt><trkpt lat="49.12328085367056" lon="6.274284293505789"><ele>224.0</ele><time>2026-04-20T14:49:01.999Z</time></trkpt><trkpt lat="49.123186346656205" lon="6.2743376162769655"><ele>222.6</ele><time>2026-04-20T14:49:02.999Z</time></trkpt><trkpt lat="49.123098455873766" lon="6.274392765819304"><ele>221.2</ele><time>2026-04-20T14:49:03.999Z</time></trkpt><trkpt lat="49.123009043755424" lon="6.274464097194981"><ele>219.79999999999998</ele><time>2026-04-20T14:49:04.999Z</time></trkpt><trkpt lat="49.12292616805322" lon="6.274564624796805"><ele>218.39999999999998</ele><time>2026-04-20T14:49:05.999Z</time></trkpt><trkpt lat="49.12285502854074" lon="6.274693094983402"><ele>217.0</ele><time>2026-04-20T14:49:06.999Z</time></trkpt><trkpt lat="49.12280458280536" lon="6.27485976654493"><ele>217.0</ele><time>2026-04-20T14:49:07.999Z</time></trkpt><trkpt lat="49.1227597788557" lon="6.275027137856936"><ele>217.0</ele><time>2026-04-20T14:49:08.999Z</time></trkpt><trkpt lat="49.12271978972661" lon="6.275192257148767"><ele>217.0</ele><time>2026-04-20T14:49:09.999Z</time></trkpt><trkpt lat="49.12267288326617" lon="6.2753769889432505"><ele>217.0</ele><time>2026-04-20T14:49:10.999Z</time></trkpt><trkpt lat="49.12262539214552" lon="6.275548380662919"><ele>216.25</ele><time>2026-04-20T14:49:11.999Z</time></trkpt><trkpt lat="49.122578960025656" lon="6.275725653526033"><ele>215.5</ele><time>2026-04-20T14:49:12.999Z</time></trkpt><trkpt lat="49.1225428947328" lon="6.275909081196856"><ele>214.75</ele><time>2026-04-20T14:49:13.999Z</time></trkpt><trkpt lat="49.12250992582493" lon="6.2761001798307685"><ele>214.0</ele><time>2026-04-20T14:49:14.999Z</time></trkpt><trkpt lat="49.12248019289408" lon="6.276291204701155"><ele>213.75</ele><time>2026-04-20T14:49:15.999Z</time></trkpt><trkpt lat="49.12244458852262" lon="6.276495907230225"><ele>213.5</ele><time>2026-04-20T14:49:16.999Z</time></trkpt><trkpt lat="49.122410711612176" lon="6.276700601637531"><ele>213.25</ele><time>2026-04-20T14:49:17.999Z</time></trkpt><trkpt lat="49.12238626851344" lon="6.2768861863968075"><ele>213.0</ele><time>2026-04-20T14:49:18.999Z</time></trkpt><trkpt lat="49.12236052679641" lon="6.277088064446712"><ele>211.5</ele><time>2026-04-20T14:49:19.999Z</time></trkpt><trkpt lat="49.12234698914691" lon="6.277286856990982"><ele>210.0</ele><time>2026-04-20T14:49:20.999Z</time></trkpt><trkpt lat="49.12234161524111" lon="6.27748914386572"><ele>208.5</ele><time>2026-04-20T14:49:21.999Z</time></trkpt><trkpt lat="49.122344337430995" lon="6.277684262091807"><ele>207.0</ele><time>2026-04-20T14:49:22.999Z</time></trkpt><trkpt lat="49.12235489507311" lon="6.27788246515114"><ele>207.0</ele><time>2026-04-20T14:49:23.999Z</time></trkpt><trkpt lat="49.12235165954988" lon="6.278084073705951"><ele>207.0</ele><time>2026-04-20T14:49:24.999Z</time></trkpt><trkpt lat="49.12235378793003" lon="6.278281240729391"><ele>207.0</ele><time>2026-04-20T14:49:25.999Z</time></trkpt><trkpt lat="49.12235680890986" lon="6.278460029463345"><ele>207.0</ele><time>2026-04-20T14:49:26.999Z</time></trkpt><trkpt lat="49.12235244376022" lon="6.278641403439168"><ele>207.16666666666666</ele><time>2026-04-20T14:49:27.999Z</time></trkpt><trkpt lat="49.12233894226279" lon="6.278812839432322"><ele>207.33333333333331</ele><time>2026-04-20T14:49:28.999Z</time></trkpt><trkpt lat="49.1223250010528" lon="6.278951200311135"><ele>207.5</ele><time>2026-04-20T14:49:29.999Z</time></trkpt><trkpt lat="49.12230278840351" lon="6.279078091939832"><ele>207.66666666666666</ele><time>2026-04-20T14:49:30.999Z</time></trkpt><trkpt lat="49.12226768396752" lon="6.279165810685153"><ele>207.83333333333331</ele><time>2026-04-20T14:49:31.999Z</time></trkpt><trkpt lat="49.12221064072225" lon="6.279231964136049"><ele>208.0</ele><time>2026-04-20T14:49:32.999Z</time></trkpt><trkpt lat="49.12212805637309" lon="6.279288404521102"><ele>207.99999999999997</ele><time>2026-04-20T14:49:33.999Z</time></trkpt><trkpt lat="49.12203749052887" lon="6.279309488364922"><ele>208.0</ele><time>2026-04-20T14:49:34.999Z</time></trkpt><trkpt lat="49.12194364480104" lon="6.279306719556914"><ele>208.0</ele><time>2026-04-20T14:49:35.999Z</time></trkpt><trkpt lat="49.121850756627936" lon="6.2792955735152125"><ele>208.0</ele><time>2026-04-20T14:49:36.999Z</time></trkpt><trkpt lat="49.12177073914595" lon="6.27930914972099"><ele>207.99999999999997</ele><time>2026-04-20T14:49:37.999Z</time></trkpt><trkpt lat="49.12170270917423" lon="6.279299842436602"><ele>208.0</ele><time>2026-04-20T14:49:38.999Z</time></trkpt><trkpt lat="49.12164323029946" lon="6.2792216461676595"><ele>208.0</ele><time>2026-04-20T14:49:39.999Z</time></trkpt><trkpt lat="49.12160590694592" lon="6.2791221265326165"><ele>208.0</ele><time>2026-04-20T14:49:40.999Z</time></trkpt><trkpt lat="49.121545044943474" lon="6.279095126447291"><ele>208.0</ele><time>2026-04-20T14:49:41.999Z</time></trkpt><trkpt lat="49.121515637321835" lon="6.2789952086984355"><ele>208.0</ele><time>2026-04-20T14:49:42.999Z</time></trkpt><trkpt lat="49.12144570096638" lon="6.27891725814434"><ele>208.0</ele><time>2026-04-20T14:49:45Z</time></trkpt><trkpt lat="49.12129936511612" lon="6.279134583440835"><ele>208.49999999999997</ele><time>2026-04-20T14:49:51Z</time></trkpt><trkpt lat="49.12128893543707" lon="6.279252556720943"><ele>209.0</ele><time>2026-04-20T14:49:52Z</time></trkpt><trkpt lat="49.12126951795078" lon="6.279374355903784"><ele>209.5</ele><time>2026-04-20T14:49:53Z</time></trkpt><trkpt lat="49.12124634218499" lon="6.279502672821032"><ele>210.0</ele><time>2026-04-20T14:49:54Z</time></trkpt><trkpt lat="49.12122676472125" lon="6.279644618813825"><ele>210.49999999999997</ele><time>2026-04-20T14:49:55Z</time></trkpt><trkpt lat="49.121210032088214" lon="6.279782424133493"><ele>211.0</ele><time>2026-04-20T14:49:56Z</time></trkpt><trkpt lat="49.121191246014675" lon="6.27992328252635"><ele>211.0</ele><time>2026-04-20T14:49:57Z</time></trkpt><trkpt lat="49.12117076471522" lon="6.280061878458592"><ele>211.0</ele><time>2026-04-20T14:49:58Z</time></trkpt><trkpt lat="49.12115052464207" lon="6.280208703557582"><ele>211.0</ele><time>2026-04-20T14:49:59Z</time></trkpt><trkpt lat="49.12113632873496" lon="6.280338933224882"><ele>211.0</ele><time>2026-04-20T14:50:00Z</time></trkpt><trkpt lat="49.12111548038025" lon="6.280475134619689"><ele>211.0</ele><time>2026-04-20T14:50:01Z</time></trkpt><trkpt lat="49.12109789159979" lon="6.280619461202498"><ele>211.20000000000002</ele><time>2026-04-20T14:50:02Z</time></trkpt><trkpt lat="49.12108779116342" lon="6.28076741779264"><ele>211.4</ele><time>2026-04-20T14:50:03Z</time></trkpt><trkpt lat="49.12109521946874" lon="6.280915062361745"><ele>211.6</ele><time>2026-04-20T14:50:04Z</time></trkpt><trkpt lat="49.12111960666015" lon="6.281061540155662"><ele>211.8</ele><time>2026-04-20T14:50:05Z</time></trkpt><trkpt lat="49.121154277616796" lon="6.2812084736127884"><ele>212.0</ele><time>2026-04-20T14:50:06Z</time></trkpt><trkpt lat="49.121190096434546" lon="6.28134727406196"><ele>212.8</ele><time>2026-04-20T14:50:07Z</time></trkpt><trkpt lat="49.12122097945865" lon="6.281499006057658"><ele>213.6</ele><time>2026-04-20T14:50:08Z</time></trkpt><trkpt lat="49.121248796099394" lon="6.281633010735072"><ele>214.40000000000003</ele><time>2026-04-20T14:50:09Z</time></trkpt><trkpt lat="49.12127824149894" lon="6.281782641074922"><ele>215.20000000000002</ele><time>2026-04-20T14:50:10Z</time></trkpt><trkpt lat="49.12131296559457" lon="6.281919619704121"><ele>216.0</ele><time>2026-04-20T14:50:11Z</time></trkpt><trkpt lat="49.12134578213038" lon="6.282062185079842"><ele>216.0</ele><time>2026-04-20T14:50:12Z</time></trkpt><trkpt lat="49.121379996936795" lon="6.282200172393605"><ele>216.00000000000003</ele><time>2026-04-20T14:50:13Z</time></trkpt><trkpt lat="49.12141206167365" lon="6.282341519611191"><ele>216.00000000000003</ele><time>2026-04-20T14:50:14Z</time></trkpt><trkpt lat="49.121446382464455" lon="6.282488308451156"><ele>216.0</ele><time>2026-04-20T14:50:15Z</time></trkpt><trkpt lat="49.12146853754167" lon="6.282641253397438"><ele>216.0</ele><time>2026-04-20T14:50:16Z</time></trkpt><trkpt lat="49.12148348981495" lon="6.282795422987352"><ele>216.8</ele><time>2026-04-20T14:50:17Z</time></trkpt><trkpt lat="49.12149558564158" lon="6.282954209765105"><ele>217.60000000000002</ele><time>2026-04-20T14:50:18Z</time></trkpt><trkpt lat="49.121500768250165" lon="6.283108447854486"><ele>218.4</ele><time>2026-04-20T14:50:19Z</time></trkpt><trkpt lat="49.121503126759954" lon="6.283264744867863"><ele>219.2</ele><time>2026-04-20T14:50:20Z</time></trkpt><trkpt lat="49.121498865126945" lon="6.2834273014195166"><ele>220.0</ele><time>2026-04-20T14:50:21Z</time></trkpt><trkpt lat="49.12149514905706" lon="6.283589971162984"><ele>220.8</ele><time>2026-04-20T14:50:22Z</time></trkpt><trkpt lat="49.12148964462272" lon="6.283752146332898"><ele>221.6</ele><time>2026-04-20T14:50:23Z</time></trkpt><trkpt lat="49.121484774471995" lon="6.283916236343526"><ele>222.39999999999998</ele><time>2026-04-20T14:50:24Z</time></trkpt><trkpt lat="49.121477132766174" lon="6.284070876125793"><ele>223.2</ele><time>2026-04-20T14:50:25Z</time></trkpt><trkpt lat="49.12146863413653" lon="6.28422005265698"><ele>224.0</ele><time>2026-04-20T14:50:26Z</time></trkpt><trkpt lat="49.12145743316605" lon="6.284376324929322"><ele>223.83333333333334</ele><time>2026-04-20T14:50:27Z</time></trkpt><trkpt lat="49.121449114832295" lon="6.284522766804757"><ele>223.66666666666669</ele><time>2026-04-20T14:50:28Z</time></trkpt><trkpt lat="49.12144123142846" lon="6.284647097934741"><ele>223.5</ele><time>2026-04-20T14:50:29Z</time></trkpt><trkpt lat="49.1214356845631" lon="6.284749256867022"><ele>223.33333333333331</ele><time>2026-04-20T14:50:30Z</time></trkpt><trkpt lat="49.12143400170582" lon="6.284871646569173"><ele>223.16666666666666</ele><time>2026-04-20T14:50:32Z</time></trkpt><trkpt lat="49.12150174662534" lon="6.284935916415353"><ele>223.0</ele><time>2026-04-20T14:50:34Z</time></trkpt><trkpt lat="49.1216008037124" lon="6.28494911575301"><ele>222.99999999999997</ele><time>2026-04-20T14:50:36Z</time></trkpt><trkpt lat="49.12166574534042" lon="6.284940983812317"><ele>223.0</ele><time>2026-04-20T14:50:37Z</time></trkpt><trkpt lat="49.12173192625553" lon="6.2849323761048055"><ele>223.0</ele><time>2026-04-20T14:50:38Z</time></trkpt><trkpt lat="49.12180156294707" lon="6.284927299571605"><ele>223.0</ele><time>2026-04-20T14:50:39Z</time></trkpt><trkpt lat="49.121869788318605" lon="6.284923272906306"><ele>222.99999999999997</ele><time>2026-04-20T14:50:40Z</time></trkpt><trkpt lat="49.121991338156235" lon="6.284904729061788"><ele>223.0</ele><time>2026-04-20T14:50:42Z</time></trkpt><trkpt lat="49.122078026483955" lon="6.284895325729618"><ele>223.0</ele><time>2026-04-20T14:50:43.999Z</time></trkpt><trkpt lat="49.12215423354926" lon="6.284907670816816"><ele>223.0</ele><time>2026-04-20T14:50:45.999Z</time></trkpt><trkpt lat="49.122240125275404" lon="6.284758839732601"><ele>223.0</ele><time>2026-04-20T14:50:47.999Z</time></trkpt><trkpt lat="49.122249945186965" lon="6.28457752293897"><ele>223.0</ele><time>2026-04-20T14:50:49.999Z</time></trkpt><trkpt lat="49.12225557902097" lon="6.284473498822347"><ele>223.0</ele><time>2026-04-20T14:50:50.999Z</time></trkpt><trkpt lat="49.12226115495164" lon="6.28437054374973"><ele>222.4</ele><time>2026-04-20T14:50:51.999Z</time></trkpt><trkpt lat="49.12226654787215" lon="6.284270967749316"><ele>221.8</ele><time>2026-04-20T14:50:52.999Z</time></trkpt><trkpt lat="49.12227654654718" lon="6.284086932937076"><ele>221.2</ele><time>2026-04-20T14:50:54.999Z</time></trkpt><trkpt lat="49.12228701489504" lon="6.283894824831154"><ele>220.6</ele><time>2026-04-20T14:50:56.999Z</time></trkpt><trkpt lat="49.1222947659934" lon="6.283752581371176"><ele>220.0</ele><time>2026-04-20T14:50:58.999Z</time></trkpt><trkpt lat="49.122301340244476" lon="6.283631934532848"><ele>216.0</ele><time>2026-04-20T14:51:00.999Z</time></trkpt><trkpt lat="49.122292667268724" lon="6.283519249121065"><ele>216.0</ele><time>2026-04-20T14:51:02.999Z</time></trkpt><trkpt lat="49.12231582462828" lon="6.283423653966843"><ele>216.0</ele><time>2026-04-20T14:51:04.999Z</time></trkpt><trkpt lat="49.1223345934007" lon="6.283328005674023"><ele>216.0</ele><time>2026-04-20T14:51:07.999Z</time></trkpt></trkseg></trk></gpx>